<?xml version='1.0' encoding='UTF-8'?><gpx version="1.1" creator="JPX - https://github.com/jenetics/jpx" xmlns="http://www.topografix.com/GPX/1/1"><trk><trkseg><trkpt lat="40.2765249" lon="16.0029131"><ele>526.0</ele><time>2026-04-06T12:44:56.865Z</time></trkpt><trkpt lat="40.2765198" lon="16.00301"><ele>526.0</ele><time>2026-04-06T12:44:57.865Z</time></trkpt><trkpt lat="40.2765087" lon="16.003092"><ele>526.0</ele><time>2026-04-06T12:44:58.865Z</time></trkpt><trkpt lat="40.2764452" lon="16.003223"><ele>526.0</ele><time>2026-04-06T12:45:00.866Z</time></trkpt><trkpt lat="40.2763869" lon="16.0032733"><ele>526.0</ele><time>2026-04-06T12:45:01.865Z</time></trkpt><trkpt lat="40.2763225" lon="16.0033307"><ele>526.0</ele><time>2026-04-06T12:45:02.866Z</time></trkpt><trkpt lat="40.2762541" lon="16.0033987"><ele>523.2</ele><time>2026-04-06T12:45:03.865Z</time></trkpt><trkpt lat="40.2761795" lon="16.0034726"><ele>520.4000000000001</ele><time>2026-04-06T12:45:04.865Z</time></trkpt><trkpt lat="40.2760997" lon="16.0035609"><ele>517.6</ele><time>2026-04-06T12:45:05.865Z</time></trkpt><trkpt lat="40.2760097" lon="16.0036622"><ele>514.8000000000001</ele><time>2026-04-06T12:45:06.865Z</time></trkpt><trkpt lat="40.2759196" lon="16.0037759"><ele>512.0</ele><time>2026-04-06T12:45:07.865Z</time></trkpt><trkpt lat="40.275834" lon="16.0038838"><ele>512.0</ele><time>2026-04-06T12:45:08.865Z</time></trkpt><trkpt lat="40.2757492" lon="16.0039856"><ele>512.0</ele><time>2026-04-06T12:45:09.865Z</time></trkpt><trkpt lat="40.2756646" lon="16.0040874"><ele>512.0</ele><time>2026-04-06T12:45:10.865Z</time></trkpt><trkpt lat="40.2755823" lon="16.0041896"><ele>512.0</ele><time>2026-04-06T12:45:11.866Z</time></trkpt><trkpt lat="40.2754976" lon="16.0042954"><ele>510.75</ele><time>2026-04-06T12:45:12.865Z</time></trkpt><trkpt lat="40.2754097" lon="16.0044037"><ele>509.5</ele><time>2026-04-06T12:45:13.865Z</time></trkpt><trkpt lat="40.2753238" lon="16.0045126"><ele>508.25</ele><time>2026-04-06T12:45:14.866Z</time></trkpt><trkpt lat="40.2752416" lon="16.004617"><ele>507.0</ele><time>2026-04-06T12:45:15.865Z</time></trkpt><trkpt lat="40.2751642" lon="16.0047185"><ele>507.0</ele><time>2026-04-06T12:45:16.865Z</time></trkpt><trkpt lat="40.2750894" lon="16.004813"><ele>507.0</ele><time>2026-04-06T12:45:17.865Z</time></trkpt><trkpt lat="40.2750125" lon="16.004892"><ele>507.0</ele><time>2026-04-06T12:45:18.865Z</time></trkpt><trkpt lat="40.2749385" lon="16.00496"><ele>507.0</ele><time>2026-04-06T12:45:19.865Z</time></trkpt><trkpt lat="40.2748709" lon="16.0050213"><ele>507.0</ele><time>2026-04-06T12:45:20.865Z</time></trkpt><trkpt lat="40.2748114" lon="16.0050763"><ele>507.0</ele><time>2026-04-06T12:45:21.866Z</time></trkpt><trkpt lat="40.2747329" lon="16.0051633"><ele>507.0</ele><time>2026-04-06T12:45:23.865Z</time></trkpt><trkpt lat="40.2747994" lon="16.0051914"><ele>507.0</ele><time>2026-04-06T12:45:26.865Z</time></trkpt><trkpt lat="40.2748647" lon="16.0051291"><ele>507.0</ele><time>2026-04-06T12:45:27.865Z</time></trkpt><trkpt lat="40.2749323" lon="16.0050528"><ele>507.0</ele><time>2026-04-06T12:45:28.866Z</time></trkpt><trkpt lat="40.2750089" lon="16.0049728"><ele>507.0</ele><time>2026-04-06T12:45:29.865Z</time></trkpt><trkpt lat="40.2750873" lon="16.0048825"><ele>507.0</ele><time>2026-04-06T12:45:30.865Z</time></trkpt><trkpt lat="40.2751731" lon="16.0047849"><ele>507.0</ele><time>2026-04-06T12:45:31.865Z</time></trkpt><trkpt lat="40.27526" lon="16.0046782"><ele>507.0</ele><time>2026-04-06T12:45:32.865Z</time></trkpt><trkpt lat="40.2753504" lon="16.004564"><ele>507.0</ele><time>2026-04-06T12:45:33.866Z</time></trkpt><trkpt lat="40.2754418" lon="16.0044453"><ele>507.0</ele><time>2026-04-06T12:45:34.865Z</time></trkpt><trkpt lat="40.2755366" lon="16.0043258"><ele>508.25</ele><time>2026-04-06T12:45:35.865Z</time></trkpt><trkpt lat="40.2756308" lon="16.0042092"><ele>509.5</ele><time>2026-04-06T12:45:36.865Z</time></trkpt><trkpt lat="40.2757245" lon="16.0040938"><ele>510.75</ele><time>2026-04-06T12:45:37.865Z</time></trkpt><trkpt lat="40.2758168" lon="16.0039801"><ele>512.0</ele><time>2026-04-06T12:45:38.865Z</time></trkpt><trkpt lat="40.2759097" lon="16.0038681"><ele>512.0</ele><time>2026-04-06T12:45:39.865Z</time></trkpt><trkpt lat="40.2760004" lon="16.0037552"><ele>512.0</ele><time>2026-04-06T12:45:40.865Z</time></trkpt><trkpt lat="40.2761039" lon="16.0036486"><ele>512.0</ele><time>2026-04-06T12:45:41.865Z</time></trkpt><trkpt lat="40.2762039" lon="16.0035468"><ele>512.0</ele><time>2026-04-06T12:45:42.866Z</time></trkpt><trkpt lat="40.2763021" lon="16.0034541"><ele>512.0</ele><time>2026-04-06T12:45:43.865Z</time></trkpt><trkpt lat="40.2764061" lon="16.003374"><ele>512.0</ele><time>2026-04-06T12:45:44.865Z</time></trkpt><trkpt lat="40.2765158" lon="16.0032934"><ele>512.0</ele><time>2026-04-06T12:45:45.866Z</time></trkpt><trkpt lat="40.2766334" lon="16.0032204"><ele>512.0</ele><time>2026-04-06T12:45:46.865Z</time></trkpt><trkpt lat="40.276761" lon="16.0031584"><ele>516.6666666666666</ele><time>2026-04-06T12:45:47.865Z</time></trkpt><trkpt lat="40.2769064" lon="16.0030984"><ele>521.3333333333334</ele><time>2026-04-06T12:45:48.865Z</time></trkpt><trkpt lat="40.2770814" lon="16.0030432"><ele>526.0</ele><time>2026-04-06T12:45:49.865Z</time></trkpt><trkpt lat="40.2772682" lon="16.0029709"><ele>528.6666666666667</ele><time>2026-04-06T12:45:50.865Z</time></trkpt><trkpt lat="40.277452" lon="16.0028562"><ele>531.3333333333334</ele><time>2026-04-06T12:45:51.865Z</time></trkpt><trkpt lat="40.2776231" lon="16.0027047"><ele>534.0</ele><time>2026-04-06T12:45:52.865Z</time></trkpt><trkpt lat="40.2777646" lon="16.0025483"><ele>531.3333333333334</ele><time>2026-04-06T12:45:53.865Z</time></trkpt><trkpt lat="40.2778669" lon="16.0023811"><ele>528.6666666666667</ele><time>2026-04-06T12:45:54.865Z</time></trkpt><trkpt lat="40.2779356" lon="16.0021841"><ele>526.0</ele><time>2026-04-06T12:45:55.866Z</time></trkpt><trkpt lat="40.2779869" lon="16.0019451"><ele>526.0</ele><time>2026-04-06T12:45:56.865Z</time></trkpt><trkpt lat="40.2780336" lon="16.0016978"><ele>526.0</ele><time>2026-04-06T12:45:57.865Z</time></trkpt><trkpt lat="40.2780825" lon="16.0014701"><ele>526.0</ele><time>2026-04-06T12:45:58.866Z</time></trkpt><trkpt lat="40.2781396" lon="16.0012555"><ele>526.3333333333334</ele><time>2026-04-06T12:45:59.866Z</time></trkpt><trkpt lat="40.278213" lon="16.0010695"><ele>526.6666666666666</ele><time>2026-04-06T12:46:00.865Z</time></trkpt><trkpt lat="40.2783161" lon="16.00091"><ele>527.0</ele><time>2026-04-06T12:46:01.866Z</time></trkpt><trkpt lat="40.2784367" lon="16.0007848"><ele>527.0</ele><time>2026-04-06T12:46:02.865Z</time></trkpt><trkpt lat="40.2785777" lon="16.0006784"><ele>527.0</ele><time>2026-04-06T12:46:03.865Z</time></trkpt><trkpt lat="40.2787238" lon="16.0005807"><ele>527.0</ele><time>2026-04-06T12:46:04.865Z</time></trkpt><trkpt lat="40.2788654" lon="16.0004863"><ele>531.75</ele><time>2026-04-06T12:46:05.866Z</time></trkpt><trkpt lat="40.2789927" lon="16.0003823"><ele>536.5</ele><time>2026-04-06T12:46:06.866Z</time></trkpt><trkpt lat="40.2790989" lon="16.0002725"><ele>541.25</ele><time>2026-04-06T12:46:07.866Z</time></trkpt><trkpt lat="40.2791738" lon="16.0001664"><ele>546.0</ele><time>2026-04-06T12:46:08.865Z</time></trkpt><trkpt lat="40.2792273" lon="16.0000765"><ele>546.0</ele><time>2026-04-06T12:46:09.865Z</time></trkpt><trkpt lat="40.2792639" lon="16.0000081"><ele>546.0</ele><time>2026-04-06T12:46:10.865Z</time></trkpt><trkpt lat="40.2792987" lon="15.9999226"><ele>546.0</ele><time>2026-04-06T12:46:12.865Z</time></trkpt><trkpt lat="40.2793602" lon="15.9997799"><ele>546.0</ele><time>2026-04-06T12:48:31.864Z</time></trkpt><trkpt lat="40.2793936" lon="15.9996494"><ele>546.0</ele><time>2026-04-06T12:48:32.864Z</time></trkpt><trkpt lat="40.279416" lon="15.9994941"><ele>546.0</ele><time>2026-04-06T12:48:33.864Z</time></trkpt><trkpt lat="40.2794303" lon="15.9993349"><ele>546.0</ele><time>2026-04-06T12:48:34.864Z</time></trkpt><trkpt lat="40.2794392" lon="15.9991764"><ele>546.0</ele><time>2026-04-06T12:48:35.864Z</time></trkpt><trkpt lat="40.2794483" lon="15.9990199"><ele>546.0</ele><time>2026-04-06T12:48:36.864Z</time></trkpt><trkpt lat="40.2794608" lon="15.9988661"><ele>543.25</ele><time>2026-04-06T12:48:37.865Z</time></trkpt><trkpt lat="40.2794788" lon="15.998715"><ele>540.5</ele><time>2026-04-06T12:48:38.864Z</time></trkpt><trkpt lat="40.2795088" lon="15.998574"><ele>537.75</ele><time>2026-04-06T12:48:39.864Z</time></trkpt><trkpt lat="40.2795565" lon="15.9984388"><ele>535.0</ele><time>2026-04-06T12:48:40.864Z</time></trkpt><trkpt lat="40.2796219" lon="15.9983157"><ele>533.75</ele><time>2026-04-06T12:48:41.865Z</time></trkpt><trkpt lat="40.2797018" lon="15.9982063"><ele>532.5</ele><time>2026-04-06T12:48:42.864Z</time></trkpt><trkpt lat="40.2797932" lon="15.9981069"><ele>531.25</ele><time>2026-04-06T12:48:43.864Z</time></trkpt><trkpt lat="40.2798842" lon="15.9980056"><ele>530.0</ele><time>2026-04-06T12:48:44.864Z</time></trkpt><trkpt lat="40.279977" lon="15.9978978"><ele>534.75</ele><time>2026-04-06T12:48:45.864Z</time></trkpt><trkpt lat="40.2800686" lon="15.9977826"><ele>539.5</ele><time>2026-04-06T12:48:46.864Z</time></trkpt><trkpt lat="40.2801553" lon="15.9976536"><ele>544.25</ele><time>2026-04-06T12:48:47.864Z</time></trkpt><trkpt lat="40.2802388" lon="15.9975114"><ele>549.0</ele><time>2026-04-06T12:48:48.864Z</time></trkpt><trkpt lat="40.2803093" lon="15.9973518"><ele>549.0</ele><time>2026-04-06T12:48:49.865Z</time></trkpt><trkpt lat="40.2803625" lon="15.9971803"><ele>549.0</ele><time>2026-04-06T12:48:50.865Z</time></trkpt><trkpt lat="40.2804023" lon="15.9970036"><ele>549.0</ele><time>2026-04-06T12:48:51.864Z</time></trkpt><trkpt lat="40.2804318" lon="15.9968218"><ele>549.0</ele><time>2026-04-06T12:48:52.864Z</time></trkpt><trkpt lat="40.2804582" lon="15.9966398"><ele>547.25</ele><time>2026-04-06T12:48:53.864Z</time></trkpt><trkpt lat="40.2804809" lon="15.9964515"><ele>545.5</ele><time>2026-04-06T12:48:54.865Z</time></trkpt><trkpt lat="40.2804978" lon="15.9962595"><ele>543.75</ele><time>2026-04-06T12:48:55.864Z</time></trkpt><trkpt lat="40.2804993" lon="15.9960626"><ele>542.0</ele><time>2026-04-06T12:48:56.864Z</time></trkpt><trkpt lat="40.2804848" lon="15.9958649"><ele>542.3333333333333</ele><time>2026-04-06T12:48:57.865Z</time></trkpt><trkpt lat="40.2804521" lon="15.9956675"><ele>542.6666666666666</ele><time>2026-04-06T12:48:58.864Z</time></trkpt><trkpt lat="40.2804021" lon="15.9954821"><ele>543.0</ele><time>2026-04-06T12:48:59.865Z</time></trkpt><trkpt lat="40.2803248" lon="15.9953004"><ele>543.0</ele><time>2026-04-06T12:49:00.864Z</time></trkpt><trkpt lat="40.2802349" lon="15.9951235"><ele>543.0</ele><time>2026-04-06T12:49:01.864Z</time></trkpt><trkpt lat="40.2801483" lon="15.994948"><ele>543.0</ele><time>2026-04-06T12:49:02.864Z</time></trkpt><trkpt lat="40.2800765" lon="15.9947715"><ele>546.25</ele><time>2026-04-06T12:49:03.864Z</time></trkpt><trkpt lat="40.2800338" lon="15.994592"><ele>549.5</ele><time>2026-04-06T12:49:04.864Z</time></trkpt><trkpt lat="40.2800367" lon="15.9944131"><ele>552.75</ele><time>2026-04-06T12:49:05.864Z</time></trkpt><trkpt lat="40.280082" lon="15.99424"><ele>556.0</ele><time>2026-04-06T12:49:06.864Z</time></trkpt><trkpt lat="40.2801753" lon="15.9940891"><ele>557.0</ele><time>2026-04-06T12:49:07.864Z</time></trkpt><trkpt lat="40.280298" lon="15.9939534"><ele>558.0</ele><time>2026-04-06T12:49:08.864Z</time></trkpt><trkpt lat="40.2804227" lon="15.9938024"><ele>559.0</ele><time>2026-04-06T12:49:09.864Z</time></trkpt><trkpt lat="40.2805136" lon="15.9936354"><ele>559.0</ele><time>2026-04-06T12:49:10.864Z</time></trkpt><trkpt lat="40.2805613" lon="15.9934468"><ele>559.0</ele><time>2026-04-06T12:49:11.864Z</time></trkpt><trkpt lat="40.2805734" lon="15.9932482"><ele>559.0</ele><time>2026-04-06T12:49:12.864Z</time></trkpt><trkpt lat="40.2805428" lon="15.9930538"><ele>556.3333333333334</ele><time>2026-04-06T12:49:13.864Z</time></trkpt><trkpt lat="40.2804681" lon="15.9928715"><ele>553.6666666666666</ele><time>2026-04-06T12:49:14.864Z</time></trkpt><trkpt lat="40.280367" lon="15.9927028"><ele>551.0</ele><time>2026-04-06T12:49:15.864Z</time></trkpt><trkpt lat="40.2802725" lon="15.9925353"><ele>552.0</ele><time>2026-04-06T12:49:16.864Z</time></trkpt><trkpt lat="40.2802085" lon="15.9923502"><ele>553.0</ele><time>2026-04-06T12:49:17.864Z</time></trkpt><trkpt lat="40.2801827" lon="15.9921368"><ele>554.0</ele><time>2026-04-06T12:49:18.864Z</time></trkpt><trkpt lat="40.2801817" lon="15.9919018"><ele>557.0</ele><time>2026-04-06T12:49:19.864Z</time></trkpt><trkpt lat="40.2801675" lon="15.9916675"><ele>560.0</ele><time>2026-04-06T12:49:20.865Z</time></trkpt><trkpt lat="40.2801287" lon="15.9914448"><ele>563.0</ele><time>2026-04-06T12:49:21.864Z</time></trkpt><trkpt lat="40.2800533" lon="15.9912469"><ele>563.0</ele><time>2026-04-06T12:49:22.865Z</time></trkpt><trkpt lat="40.2799427" lon="15.9910807"><ele>563.0</ele><time>2026-04-06T12:49:23.864Z</time></trkpt><trkpt lat="40.2798034" lon="15.9909455"><ele>563.0</ele><time>2026-04-06T12:49:24.864Z</time></trkpt><trkpt lat="40.2796512" lon="15.99083"><ele>559.0</ele><time>2026-04-06T12:49:25.864Z</time></trkpt><trkpt lat="40.2795009" lon="15.9907321"><ele>555.0</ele><time>2026-04-06T12:49:26.864Z</time></trkpt><trkpt lat="40.2793596" lon="15.990637"><ele>551.0</ele><time>2026-04-06T12:49:27.864Z</time></trkpt><trkpt lat="40.2792447" lon="15.9905216"><ele>551.0</ele><time>2026-04-06T12:49:28.864Z</time></trkpt><trkpt lat="40.2791474" lon="15.9903781"><ele>551.0</ele><time>2026-04-06T12:49:29.864Z</time></trkpt><trkpt lat="40.27908" lon="15.9902165"><ele>551.0</ele><time>2026-04-06T12:49:30.864Z</time></trkpt><trkpt lat="40.2790479" lon="15.9900424"><ele>551.0</ele><time>2026-04-06T12:49:31.864Z</time></trkpt><trkpt lat="40.2790512" lon="15.9898654"><ele>555.25</ele><time>2026-04-06T12:49:32.864Z</time></trkpt><trkpt lat="40.2790925" lon="15.9896958"><ele>559.5</ele><time>2026-04-06T12:49:33.864Z</time></trkpt><trkpt lat="40.2791609" lon="15.9895476"><ele>563.75</ele><time>2026-04-06T12:49:34.865Z</time></trkpt><trkpt lat="40.2792661" lon="15.9894274"><ele>568.0</ele><time>2026-04-06T12:49:35.865Z</time></trkpt><trkpt lat="40.2794046" lon="15.9893454"><ele>568.0</ele><time>2026-04-06T12:49:36.865Z</time></trkpt><trkpt lat="40.2795796" lon="15.9893068"><ele>568.0</ele><time>2026-04-06T12:49:37.865Z</time></trkpt><trkpt lat="40.2797619" lon="15.9892814"><ele>568.0</ele><time>2026-04-06T12:49:38.865Z</time></trkpt><trkpt lat="40.2799381" lon="15.9892545"><ele>567.0</ele><time>2026-04-06T12:49:39.864Z</time></trkpt><trkpt lat="40.2801031" lon="15.9892204"><ele>566.0</ele><time>2026-04-06T12:49:40.864Z</time></trkpt><trkpt lat="40.2802499" lon="15.9891877"><ele>565.0</ele><time>2026-04-06T12:49:41.864Z</time></trkpt><trkpt lat="40.280376" lon="15.9891619"><ele>564.0</ele><time>2026-04-06T12:49:42.864Z</time></trkpt><trkpt lat="40.2804753" lon="15.9891433"><ele>564.0</ele><time>2026-04-06T12:49:43.864Z</time></trkpt><trkpt lat="40.2805556" lon="15.9891399"><ele>564.0</ele><time>2026-04-06T12:49:44.865Z</time></trkpt><trkpt lat="40.280622" lon="15.9891466"><ele>564.0</ele><time>2026-04-06T12:49:45.864Z</time></trkpt><trkpt lat="40.2806863" lon="15.9891606"><ele>564.0</ele><time>2026-04-06T12:49:46.864Z</time></trkpt><trkpt lat="40.2807544" lon="15.9891809"><ele>564.0</ele><time>2026-04-06T12:49:47.865Z</time></trkpt><trkpt lat="40.2808349" lon="15.9892094"><ele>564.0</ele><time>2026-04-06T12:49:48.865Z</time></trkpt><trkpt lat="40.2809081" lon="15.989235"><ele>564.0</ele><time>2026-04-06T12:49:49.864Z</time></trkpt><trkpt lat="40.2809718" lon="15.9892636"><ele>570.0</ele><time>2026-04-06T12:49:50.864Z</time></trkpt><trkpt lat="40.2810073" lon="15.9893373"><ele>576.0</ele><time>2026-04-06T12:49:52.864Z</time></trkpt><trkpt lat="40.2809133" lon="15.9894047"><ele>582.0</ele><time>2026-04-06T12:49:54.864Z</time></trkpt><trkpt lat="40.2808249" lon="15.9894312"><ele>588.0</ele><time>2026-04-06T12:49:55.864Z</time></trkpt><trkpt lat="40.2807275" lon="15.9894609"><ele>594.0</ele><time>2026-04-06T12:49:56.865Z</time></trkpt><trkpt lat="40.2806292" lon="15.9895034"><ele>591.8</ele><time>2026-04-06T12:49:57.865Z</time></trkpt><trkpt lat="40.2805305" lon="15.9895531"><ele>589.5999999999999</ele><time>2026-04-06T12:49:58.864Z</time></trkpt><trkpt lat="40.2804303" lon="15.9896039"><ele>587.4</ele><time>2026-04-06T12:49:59.865Z</time></trkpt><trkpt lat="40.2803264" lon="15.9896494"><ele>585.1999999999999</ele><time>2026-04-06T12:50:00.864Z</time></trkpt><trkpt lat="40.2802192" lon="15.98969"><ele>583.0</ele><time>2026-04-06T12:50:01.864Z</time></trkpt><trkpt lat="40.2801142" lon="15.9897228"><ele>583.0</ele><time>2026-04-06T12:50:02.865Z</time></trkpt><trkpt lat="40.2800092" lon="15.9897537"><ele>583.0</ele><time>2026-04-06T12:50:03.864Z</time></trkpt><trkpt lat="40.2799122" lon="15.9897987"><ele>583.0</ele><time>2026-04-06T12:50:04.864Z</time></trkpt><trkpt lat="40.2798255" lon="15.9898552"><ele>583.0</ele><time>2026-04-06T12:50:05.864Z</time></trkpt><trkpt lat="40.2797516" lon="15.9899179"><ele>583.0</ele><time>2026-04-06T12:50:06.864Z</time></trkpt><trkpt lat="40.2797026" lon="15.9899902"><ele>582.4</ele><time>2026-04-06T12:50:07.865Z</time></trkpt><trkpt lat="40.2796763" lon="15.9901356"><ele>581.8</ele><time>2026-04-06T12:50:09.864Z</time></trkpt><trkpt lat="40.2797565" lon="15.9902577"><ele>581.2</ele><time>2026-04-06T12:50:11.864Z</time></trkpt><trkpt lat="40.2798325" lon="15.9903065"><ele>580.6</ele><time>2026-04-06T12:50:12.864Z</time></trkpt><trkpt lat="40.2799282" lon="15.9903541"><ele>580.0</ele><time>2026-04-06T12:50:13.864Z</time></trkpt><trkpt lat="40.2800241" lon="15.9904042"><ele>580.0</ele><time>2026-04-06T12:50:14.864Z</time></trkpt><trkpt lat="40.2801292" lon="15.9904552"><ele>580.0</ele><time>2026-04-06T12:50:15.864Z</time></trkpt><trkpt lat="40.2802298" lon="15.9905098"><ele>580.0</ele><time>2026-04-06T12:50:16.865Z</time></trkpt><trkpt lat="40.2803285" lon="15.9905577"><ele>580.0</ele><time>2026-04-06T12:50:17.864Z</time></trkpt><trkpt lat="40.2804275" lon="15.9905952"><ele>580.0</ele><time>2026-04-06T12:50:18.864Z</time></trkpt><trkpt lat="40.2805235" lon="15.9906405"><ele>586.0</ele><time>2026-04-06T12:50:19.865Z</time></trkpt><trkpt lat="40.2806154" lon="15.9906919"><ele>592.0</ele><time>2026-04-06T12:50:20.865Z</time></trkpt><trkpt lat="40.2807004" lon="15.9907372"><ele>598.0</ele><time>2026-04-06T12:50:21.864Z</time></trkpt><trkpt lat="40.2807843" lon="15.9907646"><ele>604.0</ele><time>2026-04-06T12:50:22.864Z</time></trkpt><trkpt lat="40.2808731" lon="15.9907794"><ele>610.0</ele><time>2026-04-06T12:50:23.864Z</time></trkpt><trkpt lat="40.2809657" lon="15.9907818"><ele>610.0</ele><time>2026-04-06T12:50:24.864Z</time></trkpt><trkpt lat="40.281058" lon="15.9907776"><ele>610.0</ele><time>2026-04-06T12:50:25.864Z</time></trkpt><trkpt lat="40.2811503" lon="15.9907745"><ele>610.0</ele><time>2026-04-06T12:50:26.864Z</time></trkpt><trkpt lat="40.2812398" lon="15.9907853"><ele>610.0</ele><time>2026-04-06T12:50:27.864Z</time></trkpt><trkpt lat="40.2813269" lon="15.9908124"><ele>610.0</ele><time>2026-04-06T12:50:28.864Z</time></trkpt><trkpt lat="40.2814155" lon="15.9908544"><ele>615.0</ele><time>2026-04-06T12:50:29.864Z</time></trkpt><trkpt lat="40.2815048" lon="15.9908986"><ele>620.0</ele><time>2026-04-06T12:50:30.864Z</time></trkpt><trkpt lat="40.2815968" lon="15.9909492"><ele>625.0</ele><time>2026-04-06T12:50:31.864Z</time></trkpt><trkpt lat="40.2816876" lon="15.9910005"><ele>630.0</ele><time>2026-04-06T12:50:32.864Z</time></trkpt><trkpt lat="40.2817785" lon="15.9910343"><ele>635.0</ele><time>2026-04-06T12:50:33.864Z</time></trkpt><trkpt lat="40.2818707" lon="15.9910654"><ele>635.0</ele><time>2026-04-06T12:50:34.864Z</time></trkpt><trkpt lat="40.2819715" lon="15.991099"><ele>635.0</ele><time>2026-04-06T12:50:35.864Z</time></trkpt><trkpt lat="40.2820713" lon="15.9911345"><ele>635.0</ele><time>2026-04-06T12:50:36.864Z</time></trkpt><trkpt lat="40.2821713" lon="15.9911621"><ele>635.0</ele><time>2026-04-06T12:50:37.864Z</time></trkpt><trkpt lat="40.2822662" lon="15.9911876"><ele>635.0</ele><time>2026-04-06T12:50:38.864Z</time></trkpt><trkpt lat="40.2823609" lon="15.9912073"><ele>637.0</ele><time>2026-04-06T12:50:39.864Z</time></trkpt><trkpt lat="40.2824567" lon="15.9912151"><ele>639.0</ele><time>2026-04-06T12:50:40.864Z</time></trkpt><trkpt lat="40.2825515" lon="15.9912126"><ele>641.0</ele><time>2026-04-06T12:50:41.864Z</time></trkpt><trkpt lat="40.2826439" lon="15.9911974"><ele>643.0</ele><time>2026-04-06T12:50:42.864Z</time></trkpt><trkpt lat="40.2827385" lon="15.9911805"><ele>645.0</ele><time>2026-04-06T12:50:43.864Z</time></trkpt><trkpt lat="40.2828358" lon="15.9911592"><ele>645.0</ele><time>2026-04-06T12:50:44.864Z</time></trkpt><trkpt lat="40.2829256" lon="15.9911312"><ele>645.0</ele><time>2026-04-06T12:50:45.864Z</time></trkpt><trkpt lat="40.2830059" lon="15.991097"><ele>645.0</ele><time>2026-04-06T12:50:46.865Z</time></trkpt><trkpt lat="40.2830846" lon="15.9910715"><ele>645.0</ele><time>2026-04-06T12:50:47.864Z</time></trkpt><trkpt lat="40.2831657" lon="15.9910601"><ele>645.0</ele><time>2026-04-06T12:50:48.865Z</time></trkpt><trkpt lat="40.2832492" lon="15.9910618"><ele>645.0</ele><time>2026-04-06T12:50:49.864Z</time></trkpt><trkpt lat="40.28333" lon="15.9910798"><ele>646.8333333333334</ele><time>2026-04-06T12:50:50.864Z</time></trkpt><trkpt lat="40.2834077" lon="15.9911143"><ele>648.6666666666666</ele><time>2026-04-06T12:50:51.865Z</time></trkpt><trkpt lat="40.2834861" lon="15.9911546"><ele>650.5</ele><time>2026-04-06T12:50:52.865Z</time></trkpt><trkpt lat="40.2835648" lon="15.9911961"><ele>652.3333333333333</ele><time>2026-04-06T12:50:53.864Z</time></trkpt><trkpt lat="40.283641" lon="15.9912338"><ele>654.1666666666666</ele><time>2026-04-06T12:50:54.864Z</time></trkpt><trkpt lat="40.2837151" lon="15.9912748"><ele>656.0</ele><time>2026-04-06T12:50:55.865Z</time></trkpt><trkpt lat="40.2837938" lon="15.9913188"><ele>656.0</ele><time>2026-04-06T12:50:56.864Z</time></trkpt><trkpt lat="40.2838765" lon="15.9913604"><ele>656.0</ele><time>2026-04-06T12:50:57.864Z</time></trkpt><trkpt lat="40.2839611" lon="15.9914029"><ele>656.0</ele><time>2026-04-06T12:50:58.864Z</time></trkpt><trkpt lat="40.2840474" lon="15.991444"><ele>656.0</ele><time>2026-04-06T12:50:59.864Z</time></trkpt><trkpt lat="40.2841318" lon="15.9914745"><ele>656.0</ele><time>2026-04-06T12:51:00.865Z</time></trkpt><trkpt lat="40.2842193" lon="15.9914972"><ele>656.0</ele><time>2026-04-06T12:51:01.864Z</time></trkpt><trkpt lat="40.28431" lon="15.9915194"><ele>658.8</ele><time>2026-04-06T12:51:02.864Z</time></trkpt><trkpt lat="40.2843915" lon="15.991551"><ele>661.5999999999999</ele><time>2026-04-06T12:51:03.865Z</time></trkpt><trkpt lat="40.2844727" lon="15.9915972"><ele>664.4</ele><time>2026-04-06T12:51:04.864Z</time></trkpt><trkpt lat="40.2845526" lon="15.9916564"><ele>667.2</ele><time>2026-04-06T12:51:05.864Z</time></trkpt><trkpt lat="40.2846334" lon="15.9917229"><ele>670.0</ele><time>2026-04-06T12:51:06.864Z</time></trkpt><trkpt lat="40.2847092" lon="15.9918008"><ele>673.4</ele><time>2026-04-06T12:51:07.865Z</time></trkpt><trkpt lat="40.2847772" lon="15.9918865"><ele>676.8</ele><time>2026-04-06T12:51:08.864Z</time></trkpt><trkpt lat="40.2848401" lon="15.9919858"><ele>680.2</ele><time>2026-04-06T12:51:09.865Z</time></trkpt><trkpt lat="40.2849" lon="15.9920878"><ele>683.6</ele><time>2026-04-06T12:51:10.864Z</time></trkpt><trkpt lat="40.284961" lon="15.9921919"><ele>687.0</ele><time>2026-04-06T12:51:11.864Z</time></trkpt><trkpt lat="40.2850242" lon="15.992299"><ele>687.0</ele><time>2026-04-06T12:51:12.864Z</time></trkpt><trkpt lat="40.2850872" lon="15.9924127"><ele>687.0</ele><time>2026-04-06T12:51:13.864Z</time></trkpt><trkpt lat="40.2851439" lon="15.9925295"><ele>687.0</ele><time>2026-04-06T12:51:14.864Z</time></trkpt><trkpt lat="40.2851992" lon="15.9926482"><ele>687.0</ele><time>2026-04-06T12:51:15.864Z</time></trkpt><trkpt lat="40.2852539" lon="15.9927629"><ele>687.0</ele><time>2026-04-06T12:51:16.864Z</time></trkpt><trkpt lat="40.2853047" lon="15.9928765"><ele>688.3333333333334</ele><time>2026-04-06T12:51:17.864Z</time></trkpt><trkpt lat="40.2853581" lon="15.9929832"><ele>689.6666666666666</ele><time>2026-04-06T12:51:18.864Z</time></trkpt><trkpt lat="40.2854024" lon="15.9930879"><ele>691.0</ele><time>2026-04-06T12:51:19.865Z</time></trkpt><trkpt lat="40.2854433" lon="15.9931912"><ele>692.3333333333333</ele><time>2026-04-06T12:51:20.865Z</time></trkpt><trkpt lat="40.2854764" lon="15.9932932"><ele>693.6666666666666</ele><time>2026-04-06T12:51:21.864Z</time></trkpt><trkpt lat="40.2855067" lon="15.9933956"><ele>695.0</ele><time>2026-04-06T12:51:22.864Z</time></trkpt><trkpt lat="40.2855332" lon="15.99351"><ele>695.8</ele><time>2026-04-06T12:51:23.863Z</time></trkpt><trkpt lat="40.2855584" lon="15.9936378"><ele>696.6</ele><time>2026-04-06T12:51:24.863Z</time></trkpt><trkpt lat="40.285585" lon="15.9937765"><ele>697.4000000000001</ele><time>2026-04-06T12:51:25.863Z</time></trkpt><trkpt lat="40.2856169" lon="15.993919"><ele>698.2</ele><time>2026-04-06T12:51:26.864Z</time></trkpt><trkpt lat="40.2856505" lon="15.9940653"><ele>699.0</ele><time>2026-04-06T12:51:27.863Z</time></trkpt><trkpt lat="40.2856833" lon="15.9942127"><ele>700.0</ele><time>2026-04-06T12:51:28.863Z</time></trkpt><trkpt lat="40.2857142" lon="15.9943579"><ele>701.0</ele><time>2026-04-06T12:51:29.863Z</time></trkpt><trkpt lat="40.2857441" lon="15.9945088"><ele>702.0</ele><time>2026-04-06T12:51:30.863Z</time></trkpt><trkpt lat="40.2857735" lon="15.9946624"><ele>703.0</ele><time>2026-04-06T12:51:31.863Z</time></trkpt><trkpt lat="40.2857998" lon="15.9948166"><ele>703.0</ele><time>2026-04-06T12:51:32.863Z</time></trkpt><trkpt lat="40.2858293" lon="15.9949789"><ele>703.0</ele><time>2026-04-06T12:51:33.863Z</time></trkpt><trkpt lat="40.2858658" lon="15.9951381"><ele>703.0</ele><time>2026-04-06T12:51:34.864Z</time></trkpt><trkpt lat="40.2859061" lon="15.9952911"><ele>703.0</ele><time>2026-04-06T12:51:35.864Z</time></trkpt><trkpt lat="40.285958" lon="15.9954384"><ele>703.5</ele><time>2026-04-06T12:51:36.863Z</time></trkpt><trkpt lat="40.2860164" lon="15.9955731"><ele>704.0</ele><time>2026-04-06T12:51:37.863Z</time></trkpt><trkpt lat="40.2860719" lon="15.9957069"><ele>704.5</ele><time>2026-04-06T12:51:38.863Z</time></trkpt><trkpt lat="40.2861291" lon="15.9958335"><ele>705.0</ele><time>2026-04-06T12:51:39.863Z</time></trkpt><trkpt lat="40.2861869" lon="15.9959582"><ele>706.0</ele><time>2026-04-06T12:51:40.863Z</time></trkpt><trkpt lat="40.2862414" lon="15.9960856"><ele>707.0</ele><time>2026-04-06T12:51:41.864Z</time></trkpt><trkpt lat="40.286287" lon="15.9962186"><ele>708.0</ele><time>2026-04-06T12:51:42.864Z</time></trkpt><trkpt lat="40.2863277" lon="15.9963544"><ele>709.0</ele><time>2026-04-06T12:51:43.863Z</time></trkpt><trkpt lat="40.2863645" lon="15.9964951"><ele>710.0</ele><time>2026-04-06T12:51:44.863Z</time></trkpt><trkpt lat="40.2863963" lon="15.9966374"><ele>709.5</ele><time>2026-04-06T12:51:45.863Z</time></trkpt><trkpt lat="40.2864233" lon="15.9967862"><ele>709.0</ele><time>2026-04-06T12:51:46.863Z</time></trkpt><trkpt lat="40.2864525" lon="15.9969355"><ele>708.5</ele><time>2026-04-06T12:51:47.863Z</time></trkpt><trkpt lat="40.2864738" lon="15.9970836"><ele>708.0</ele><time>2026-04-06T12:51:48.863Z</time></trkpt><trkpt lat="40.2864988" lon="15.997233"><ele>708.0</ele><time>2026-04-06T12:51:49.863Z</time></trkpt><trkpt lat="40.2865167" lon="15.9973726"><ele>708.0</ele><time>2026-04-06T12:51:50.863Z</time></trkpt><trkpt lat="40.2865334" lon="15.9975103"><ele>708.0</ele><time>2026-04-06T12:51:51.864Z</time></trkpt><trkpt lat="40.2865588" lon="15.9976424"><ele>708.0</ele><time>2026-04-06T12:51:52.863Z</time></trkpt><trkpt lat="40.2866035" lon="15.9977727"><ele>708.0</ele><time>2026-04-06T12:51:53.864Z</time></trkpt><trkpt lat="40.2866551" lon="15.9978848"><ele>708.0</ele><time>2026-04-06T12:51:54.863Z</time></trkpt><trkpt lat="40.2867059" lon="15.9979968"><ele>708.0</ele><time>2026-04-06T12:51:55.863Z</time></trkpt><trkpt lat="40.2867621" lon="15.9981012"><ele>708.0</ele><time>2026-04-06T12:51:56.863Z</time></trkpt><trkpt lat="40.2868297" lon="15.998204"><ele>708.0</ele><time>2026-04-06T12:51:57.863Z</time></trkpt><trkpt lat="40.2869006" lon="15.9983073"><ele>708.0</ele><time>2026-04-06T12:51:58.863Z</time></trkpt><trkpt lat="40.2869681" lon="15.998409"><ele>708.0</ele><time>2026-04-06T12:51:59.863Z</time></trkpt><trkpt lat="40.2870365" lon="15.998513"><ele>708.0</ele><time>2026-04-06T12:52:00.863Z</time></trkpt><trkpt lat="40.2871017" lon="15.9986264"><ele>708.0</ele><time>2026-04-06T12:52:01.863Z</time></trkpt><trkpt lat="40.2871684" lon="15.9987364"><ele>708.0</ele><time>2026-04-06T12:52:02.863Z</time></trkpt><trkpt lat="40.287237" lon="15.9988461"><ele>708.0</ele><time>2026-04-06T12:52:03.863Z</time></trkpt><trkpt lat="40.2873127" lon="15.9989469"><ele>708.0</ele><time>2026-04-06T12:52:04.863Z</time></trkpt><trkpt lat="40.2873762" lon="15.9990508"><ele>708.0</ele><time>2026-04-06T12:52:05.863Z</time></trkpt><trkpt lat="40.2874347" lon="15.9991681"><ele>708.0</ele><time>2026-04-06T12:52:06.863Z</time></trkpt><trkpt lat="40.2874838" lon="15.9992957"><ele>708.0</ele><time>2026-04-06T12:52:07.863Z</time></trkpt><trkpt lat="40.2875317" lon="15.9994257"><ele>708.0</ele><time>2026-04-06T12:52:08.864Z</time></trkpt><trkpt lat="40.2875813" lon="15.9995529"><ele>708.8</ele><time>2026-04-06T12:52:09.863Z</time></trkpt><trkpt lat="40.287634" lon="15.9996733"><ele>709.5999999999999</ele><time>2026-04-06T12:52:10.863Z</time></trkpt><trkpt lat="40.2876844" lon="15.9997908"><ele>710.4000000000001</ele><time>2026-04-06T12:52:11.863Z</time></trkpt><trkpt lat="40.2877355" lon="15.9999038"><ele>711.2</ele><time>2026-04-06T12:52:12.864Z</time></trkpt><trkpt lat="40.2877817" lon="16.0000163"><ele>712.0</ele><time>2026-04-06T12:52:13.863Z</time></trkpt><trkpt lat="40.2878235" lon="16.0001295"><ele>712.0</ele><time>2026-04-06T12:52:14.863Z</time></trkpt><trkpt lat="40.2878635" lon="16.000252"><ele>712.0</ele><time>2026-04-06T12:52:15.863Z</time></trkpt><trkpt lat="40.2879062" lon="16.0003834"><ele>712.0</ele><time>2026-04-06T12:52:16.863Z</time></trkpt><trkpt lat="40.2879476" lon="16.0005195"><ele>712.0</ele><time>2026-04-06T12:52:17.863Z</time></trkpt><trkpt lat="40.2879968" lon="16.0006458"><ele>712.0</ele><time>2026-04-06T12:52:18.864Z</time></trkpt><trkpt lat="40.2880389" lon="16.0007709"><ele>712.4000000000001</ele><time>2026-04-06T12:52:19.863Z</time></trkpt><trkpt lat="40.2880778" lon="16.0008956"><ele>712.8000000000001</ele><time>2026-04-06T12:52:20.863Z</time></trkpt><trkpt lat="40.2881147" lon="16.0010279"><ele>713.2</ele><time>2026-04-06T12:52:21.863Z</time></trkpt><trkpt lat="40.2881485" lon="16.0011612"><ele>713.6</ele><time>2026-04-06T12:52:22.864Z</time></trkpt><trkpt lat="40.2881789" lon="16.0012874"><ele>714.0</ele><time>2026-04-06T12:52:23.863Z</time></trkpt><trkpt lat="40.2882043" lon="16.0014155"><ele>715.0</ele><time>2026-04-06T12:52:24.863Z</time></trkpt><trkpt lat="40.2882253" lon="16.0015473"><ele>716.0</ele><time>2026-04-06T12:52:25.864Z</time></trkpt><trkpt lat="40.288235" lon="16.0016886"><ele>717.0</ele><time>2026-04-06T12:52:26.864Z</time></trkpt><trkpt lat="40.2882351" lon="16.0018282"><ele>718.0</ele><time>2026-04-06T12:52:27.863Z</time></trkpt><trkpt lat="40.2882261" lon="16.0019647"><ele>719.0</ele><time>2026-04-06T12:52:28.863Z</time></trkpt><trkpt lat="40.2882106" lon="16.0021042"><ele>719.2</ele><time>2026-04-06T12:52:29.863Z</time></trkpt><trkpt lat="40.2881916" lon="16.0022449"><ele>719.4000000000001</ele><time>2026-04-06T12:52:30.863Z</time></trkpt><trkpt lat="40.2881692" lon="16.0023867"><ele>719.6</ele><time>2026-04-06T12:52:31.863Z</time></trkpt><trkpt lat="40.2881442" lon="16.0025238"><ele>719.8</ele><time>2026-04-06T12:52:32.863Z</time></trkpt><trkpt lat="40.2881126" lon="16.0026639"><ele>720.0</ele><time>2026-04-06T12:52:33.864Z</time></trkpt><trkpt lat="40.2880863" lon="16.0028035"><ele>720.0</ele><time>2026-04-06T12:52:34.863Z</time></trkpt><trkpt lat="40.2880534" lon="16.0029418"><ele>720.0</ele><time>2026-04-06T12:52:35.863Z</time></trkpt><trkpt lat="40.288016" lon="16.0030761"><ele>720.0</ele><time>2026-04-06T12:52:36.863Z</time></trkpt><trkpt lat="40.2879815" lon="16.0032068"><ele>720.0</ele><time>2026-04-06T12:52:37.863Z</time></trkpt><trkpt lat="40.2879509" lon="16.0033367"><ele>720.0</ele><time>2026-04-06T12:52:38.864Z</time></trkpt><trkpt lat="40.2879227" lon="16.0034705"><ele>721.5</ele><time>2026-04-06T12:52:39.863Z</time></trkpt><trkpt lat="40.2878977" lon="16.0036109"><ele>723.0</ele><time>2026-04-06T12:52:40.863Z</time></trkpt><trkpt lat="40.2878828" lon="16.0037372"><ele>724.5</ele><time>2026-04-06T12:52:41.863Z</time></trkpt><trkpt lat="40.2878824" lon="16.0038505"><ele>726.0</ele><time>2026-04-06T12:52:42.863Z</time></trkpt><trkpt lat="40.2878951" lon="16.0039545"><ele>727.5</ele><time>2026-04-06T12:52:43.863Z</time></trkpt><trkpt lat="40.2879274" lon="16.0040359"><ele>729.0</ele><time>2026-04-06T12:52:44.864Z</time></trkpt><trkpt lat="40.2879697" lon="16.0041244"><ele>729.4000000000001</ele><time>2026-04-06T12:52:45.863Z</time></trkpt><trkpt lat="40.2880334" lon="16.0042177"><ele>729.8</ele><time>2026-04-06T12:52:46.863Z</time></trkpt><trkpt lat="40.288106" lon="16.0043142"><ele>730.2</ele><time>2026-04-06T12:52:47.864Z</time></trkpt><trkpt lat="40.2881783" lon="16.0044209"><ele>730.5999999999999</ele><time>2026-04-06T12:52:48.864Z</time></trkpt><trkpt lat="40.2882426" lon="16.0045337"><ele>731.0</ele><time>2026-04-06T12:52:49.864Z</time></trkpt><trkpt lat="40.2883006" lon="16.0046447"><ele>731.0</ele><time>2026-04-06T12:52:50.863Z</time></trkpt><trkpt lat="40.2883624" lon="16.004748"><ele>731.0</ele><time>2026-04-06T12:52:51.864Z</time></trkpt><trkpt lat="40.2884289" lon="16.0048394"><ele>731.0</ele><time>2026-04-06T12:52:52.863Z</time></trkpt><trkpt lat="40.2885012" lon="16.0049189"><ele>731.0</ele><time>2026-04-06T12:52:53.863Z</time></trkpt><trkpt lat="40.288584" lon="16.0049689"><ele>731.0</ele><time>2026-04-06T12:52:54.863Z</time></trkpt><trkpt lat="40.2886728" lon="16.0050031"><ele>731.4</ele><time>2026-04-06T12:52:55.863Z</time></trkpt><trkpt lat="40.2887661" lon="16.0050456"><ele>731.8</ele><time>2026-04-06T12:52:56.863Z</time></trkpt><trkpt lat="40.2888537" lon="16.0050951"><ele>732.1999999999999</ele><time>2026-04-06T12:52:57.863Z</time></trkpt><trkpt lat="40.2889377" lon="16.0051637"><ele>732.5999999999999</ele><time>2026-04-06T12:52:58.863Z</time></trkpt><trkpt lat="40.2890196" lon="16.0052434"><ele>733.0</ele><time>2026-04-06T12:52:59.863Z</time></trkpt><trkpt lat="40.2891037" lon="16.0053272"><ele>734.2</ele><time>2026-04-06T12:53:00.864Z</time></trkpt><trkpt lat="40.2891843" lon="16.0054241"><ele>735.4</ele><time>2026-04-06T12:53:01.864Z</time></trkpt><trkpt lat="40.2892602" lon="16.0055221"><ele>736.6</ele><time>2026-04-06T12:53:02.863Z</time></trkpt><trkpt lat="40.2893349" lon="16.0056129"><ele>737.8000000000001</ele><time>2026-04-06T12:53:03.864Z</time></trkpt><trkpt lat="40.2894044" lon="16.0057003"><ele>739.0</ele><time>2026-04-06T12:53:04.863Z</time></trkpt><trkpt lat="40.2894711" lon="16.0057896"><ele>739.8333333333334</ele><time>2026-04-06T12:53:05.863Z</time></trkpt><trkpt lat="40.2895408" lon="16.0058699"><ele>740.6666666666667</ele><time>2026-04-06T12:53:06.863Z</time></trkpt><trkpt lat="40.2896126" lon="16.0059547"><ele>741.5</ele><time>2026-04-06T12:53:07.864Z</time></trkpt><trkpt lat="40.2896789" lon="16.0060368"><ele>742.3333333333334</ele><time>2026-04-06T12:53:08.863Z</time></trkpt><trkpt lat="40.2897408" lon="16.0061061"><ele>743.1666666666666</ele><time>2026-04-06T12:53:09.864Z</time></trkpt><trkpt lat="40.2897962" lon="16.0061503"><ele>744.0</ele><time>2026-04-06T12:53:10.864Z</time></trkpt><trkpt lat="40.2898899" lon="16.0061472"><ele>744.5</ele><time>2026-04-06T12:53:12.863Z</time></trkpt><trkpt lat="40.2900047" lon="16.0060306"><ele>745.0</ele><time>2026-04-06T12:53:14.863Z</time></trkpt><trkpt lat="40.2900719" lon="16.005928"><ele>745.5</ele><time>2026-04-06T12:53:15.863Z</time></trkpt><trkpt lat="40.2901338" lon="16.0058185"><ele>746.0</ele><time>2026-04-06T12:53:16.863Z</time></trkpt><trkpt lat="40.2901901" lon="16.0057078"><ele>746.0</ele><time>2026-04-06T12:53:17.863Z</time></trkpt><trkpt lat="40.2902439" lon="16.005592"><ele>746.0</ele><time>2026-04-06T12:53:18.863Z</time></trkpt><trkpt lat="40.2902974" lon="16.0054683"><ele>746.0</ele><time>2026-04-06T12:53:19.863Z</time></trkpt><trkpt lat="40.2903557" lon="16.0053488"><ele>746.0</ele><time>2026-04-06T12:53:20.863Z</time></trkpt><trkpt lat="40.2904197" lon="16.005241"><ele>746.0</ele><time>2026-04-06T12:53:21.864Z</time></trkpt><trkpt lat="40.2904892" lon="16.0051454"><ele>746.0</ele><time>2026-04-06T12:53:22.863Z</time></trkpt><trkpt lat="40.2905617" lon="16.0050532"><ele>746.0</ele><time>2026-04-06T12:53:23.863Z</time></trkpt><trkpt lat="40.2906395" lon="16.0049705"><ele>746.0</ele><time>2026-04-06T12:53:24.863Z</time></trkpt><trkpt lat="40.2907212" lon="16.0048987"><ele>746.0</ele><time>2026-04-06T12:53:25.864Z</time></trkpt><trkpt lat="40.2908077" lon="16.0048489"><ele>746.0</ele><time>2026-04-06T12:53:26.863Z</time></trkpt><trkpt lat="40.2908954" lon="16.0048095"><ele>744.5999999999999</ele><time>2026-04-06T12:53:27.863Z</time></trkpt><trkpt lat="40.2909857" lon="16.0047761"><ele>743.2</ele><time>2026-04-06T12:53:28.863Z</time></trkpt><trkpt lat="40.2910732" lon="16.0047376"><ele>741.8</ele><time>2026-04-06T12:53:29.863Z</time></trkpt><trkpt lat="40.2911542" lon="16.0046881"><ele>740.4000000000001</ele><time>2026-04-06T12:53:30.863Z</time></trkpt><trkpt lat="40.291227" lon="16.0046173"><ele>739.0</ele><time>2026-04-06T12:53:31.863Z</time></trkpt><trkpt lat="40.2912938" lon="16.0045269"><ele>739.0</ele><time>2026-04-06T12:53:32.864Z</time></trkpt><trkpt lat="40.2913534" lon="16.0044198"><ele>739.0</ele><time>2026-04-06T12:53:33.863Z</time></trkpt><trkpt lat="40.2914064" lon="16.0043108"><ele>739.0</ele><time>2026-04-06T12:53:34.863Z</time></trkpt><trkpt lat="40.291457" lon="16.0041908"><ele>739.0</ele><time>2026-04-06T12:53:35.863Z</time></trkpt><trkpt lat="40.2915033" lon="16.0040708"><ele>739.0</ele><time>2026-04-06T12:53:36.863Z</time></trkpt><trkpt lat="40.2915553" lon="16.0039669"><ele>737.0</ele><time>2026-04-06T12:53:37.863Z</time></trkpt><trkpt lat="40.2916082" lon="16.0038714"><ele>735.0</ele><time>2026-04-06T12:53:38.863Z</time></trkpt><trkpt lat="40.2916709" lon="16.0037835"><ele>733.0</ele><time>2026-04-06T12:53:39.863Z</time></trkpt><trkpt lat="40.2917469" lon="16.0037036"><ele>731.0</ele><time>2026-04-06T12:53:40.863Z</time></trkpt><trkpt lat="40.2918322" lon="16.0036236"><ele>729.0</ele><time>2026-04-06T12:53:41.863Z</time></trkpt><trkpt lat="40.2919186" lon="16.0035365"><ele>729.0</ele><time>2026-04-06T12:53:42.863Z</time></trkpt><trkpt lat="40.2920002" lon="16.0034371"><ele>729.0</ele><time>2026-04-06T12:53:43.864Z</time></trkpt><trkpt lat="40.2920799" lon="16.0033373"><ele>729.0</ele><time>2026-04-06T12:53:44.864Z</time></trkpt><trkpt lat="40.2921579" lon="16.0032423"><ele>729.0</ele><time>2026-04-06T12:53:45.863Z</time></trkpt><trkpt lat="40.2922373" lon="16.0031571"><ele>729.0</ele><time>2026-04-06T12:53:46.863Z</time></trkpt><trkpt lat="40.2923187" lon="16.0030795"><ele>729.8000000000001</ele><time>2026-04-06T12:53:47.863Z</time></trkpt><trkpt lat="40.2924037" lon="16.003021"><ele>730.6</ele><time>2026-04-06T12:53:48.863Z</time></trkpt><trkpt lat="40.292494" lon="16.0029911"><ele>731.4</ele><time>2026-04-06T12:53:49.863Z</time></trkpt><trkpt lat="40.2925907" lon="16.0029771"><ele>732.2</ele><time>2026-04-06T12:53:50.864Z</time></trkpt><trkpt lat="40.2926933" lon="16.0029676"><ele>733.0</ele><time>2026-04-06T12:53:51.863Z</time></trkpt><trkpt lat="40.2927902" lon="16.0029609"><ele>733.0</ele><time>2026-04-06T12:53:52.863Z</time></trkpt><trkpt lat="40.2928782" lon="16.0029609"><ele>733.0</ele><time>2026-04-06T12:53:53.863Z</time></trkpt><trkpt lat="40.2929483" lon="16.0029744"><ele>733.0</ele><time>2026-04-06T12:53:54.863Z</time></trkpt><trkpt lat="40.2930486" lon="16.0030562"><ele>733.0</ele><time>2026-04-06T12:53:56.863Z</time></trkpt><trkpt lat="40.2930789" lon="16.0031331"><ele>733.0</ele><time>2026-04-06T12:53:57.863Z</time></trkpt><trkpt lat="40.2931019" lon="16.0032363"><ele>733.0</ele><time>2026-04-06T12:53:58.863Z</time></trkpt><trkpt lat="40.2931329" lon="16.003353"><ele>735.2</ele><time>2026-04-06T12:53:59.863Z</time></trkpt><trkpt lat="40.2931746" lon="16.0034638"><ele>737.4</ele><time>2026-04-06T12:54:00.863Z</time></trkpt><trkpt lat="40.2932225" lon="16.003581"><ele>739.6</ele><time>2026-04-06T12:54:01.863Z</time></trkpt><trkpt lat="40.293275" lon="16.0036968"><ele>741.8000000000001</ele><time>2026-04-06T12:54:02.864Z</time></trkpt><trkpt lat="40.2933162" lon="16.0038039"><ele>744.0</ele><time>2026-04-06T12:54:03.863Z</time></trkpt><trkpt lat="40.2933421" lon="16.0039088"><ele>744.0</ele><time>2026-04-06T12:54:04.863Z</time></trkpt><trkpt lat="40.2933613" lon="16.0040108"><ele>744.0</ele><time>2026-04-06T12:54:05.863Z</time></trkpt><trkpt lat="40.2933808" lon="16.0041093"><ele>744.0</ele><time>2026-04-06T12:54:06.863Z</time></trkpt><trkpt lat="40.2933962" lon="16.0042146"><ele>744.0</ele><time>2026-04-06T12:54:07.864Z</time></trkpt><trkpt lat="40.2934135" lon="16.0043157"><ele>744.0</ele><time>2026-04-06T12:54:08.863Z</time></trkpt><trkpt lat="40.2934263" lon="16.0044195"><ele>744.0</ele><time>2026-04-06T12:54:09.863Z</time></trkpt><trkpt lat="40.2934334" lon="16.0045263"><ele>746.0</ele><time>2026-04-06T12:54:10.863Z</time></trkpt><trkpt lat="40.2934335" lon="16.0046375"><ele>748.0</ele><time>2026-04-06T12:54:11.864Z</time></trkpt><trkpt lat="40.2934271" lon="16.0047388"><ele>750.0</ele><time>2026-04-06T12:54:12.863Z</time></trkpt><trkpt lat="40.2934199" lon="16.0048385"><ele>752.0</ele><time>2026-04-06T12:54:13.863Z</time></trkpt><trkpt lat="40.2934181" lon="16.0049408"><ele>754.0</ele><time>2026-04-06T12:54:14.863Z</time></trkpt><trkpt lat="40.2934224" lon="16.0050417"><ele>756.0</ele><time>2026-04-06T12:54:15.863Z</time></trkpt><trkpt lat="40.2934318" lon="16.0051446"><ele>757.3333333333334</ele><time>2026-04-06T12:54:16.863Z</time></trkpt><trkpt lat="40.2934477" lon="16.0052495"><ele>758.6666666666666</ele><time>2026-04-06T12:54:17.864Z</time></trkpt><trkpt lat="40.2934719" lon="16.0053615"><ele>760.0</ele><time>2026-04-06T12:54:18.863Z</time></trkpt><trkpt lat="40.2934992" lon="16.0054792"><ele>761.3333333333333</ele><time>2026-04-06T12:54:19.864Z</time></trkpt><trkpt lat="40.2935283" lon="16.0055944"><ele>762.6666666666666</ele><time>2026-04-06T12:54:20.863Z</time></trkpt><trkpt lat="40.2935538" lon="16.0057095"><ele>764.0</ele><time>2026-04-06T12:54:21.863Z</time></trkpt><trkpt lat="40.2935781" lon="16.005819"><ele>766.3333333333333</ele><time>2026-04-06T12:54:22.863Z</time></trkpt><trkpt lat="40.2935962" lon="16.0059162"><ele>768.6666666666666</ele><time>2026-04-06T12:54:23.863Z</time></trkpt><trkpt lat="40.2936287" lon="16.0060015"><ele>771.0</ele><time>2026-04-06T12:54:24.863Z</time></trkpt><trkpt lat="40.2936747" lon="16.0060593"><ele>773.3333333333333</ele><time>2026-04-06T12:54:25.863Z</time></trkpt><trkpt lat="40.2937777" lon="16.0060904"><ele>775.6666666666666</ele><time>2026-04-06T12:54:27.863Z</time></trkpt><trkpt lat="40.2938352" lon="16.0060544"><ele>778.0</ele><time>2026-04-06T12:54:28.863Z</time></trkpt><trkpt lat="40.2939005" lon="16.0060064"><ele>779.9999999999999</ele><time>2026-04-06T12:54:29.863Z</time></trkpt><trkpt lat="40.2939724" lon="16.0059697"><ele>782.0</ele><time>2026-04-06T12:54:30.863Z</time></trkpt><trkpt lat="40.2940492" lon="16.0059586"><ele>784.0</ele><time>2026-04-06T12:54:31.863Z</time></trkpt><trkpt lat="40.2941305" lon="16.0059657"><ele>786.0</ele><time>2026-04-06T12:54:32.863Z</time></trkpt><trkpt lat="40.2942105" lon="16.0059949"><ele>787.9999999999999</ele><time>2026-04-06T12:54:33.863Z</time></trkpt><trkpt lat="40.2942896" lon="16.0060404"><ele>790.0</ele><time>2026-04-06T12:54:34.863Z</time></trkpt><trkpt lat="40.294367" lon="16.0060892"><ele>789.9999999999999</ele><time>2026-04-06T12:54:35.863Z</time></trkpt><trkpt lat="40.2944449" lon="16.0061403"><ele>790.0</ele><time>2026-04-06T12:54:36.864Z</time></trkpt><trkpt lat="40.2945255" lon="16.0061821"><ele>790.0</ele><time>2026-04-06T12:54:37.863Z</time></trkpt><trkpt lat="40.2946069" lon="16.0062208"><ele>790.0</ele><time>2026-04-06T12:54:38.864Z</time></trkpt><trkpt lat="40.2946824" lon="16.0062547"><ele>789.9999999999999</ele><time>2026-04-06T12:54:39.863Z</time></trkpt><trkpt lat="40.2947526" lon="16.0062903"><ele>790.0</ele><time>2026-04-06T12:54:40.863Z</time></trkpt><trkpt lat="40.2948236" lon="16.0063328"><ele>789.6666666666666</ele><time>2026-04-06T12:54:41.863Z</time></trkpt><trkpt lat="40.2948893" lon="16.0063768"><ele>789.3333333333333</ele><time>2026-04-06T12:54:42.863Z</time></trkpt><trkpt lat="40.2949615" lon="16.0064561"><ele>789.0</ele><time>2026-04-06T12:54:44.863Z</time></trkpt><trkpt lat="40.2948886" lon="16.0065687"><ele>788.6666666666667</ele><time>2026-04-06T12:54:47.864Z</time></trkpt><trkpt lat="40.2948208" lon="16.0066151"><ele>788.3333333333334</ele><time>2026-04-06T12:54:48.864Z</time></trkpt><trkpt lat="40.294746" lon="16.0066614"><ele>788.0</ele><time>2026-04-06T12:54:49.863Z</time></trkpt><trkpt lat="40.2946752" lon="16.0067122"><ele>791.1666666666667</ele><time>2026-04-06T12:54:50.863Z</time></trkpt><trkpt lat="40.294624" lon="16.0067668"><ele>794.3333333333334</ele><time>2026-04-06T12:54:51.863Z</time></trkpt><trkpt lat="40.2945992" lon="16.006879"><ele>797.5</ele><time>2026-04-06T12:54:53.864Z</time></trkpt><trkpt lat="40.2946523" lon="16.0069371"><ele>800.6666666666667</ele><time>2026-04-06T12:54:55.863Z</time></trkpt><trkpt lat="40.2947735" lon="16.0069353"><ele>803.8333333333334</ele><time>2026-04-06T12:54:57.862Z</time></trkpt><trkpt lat="40.2948397" lon="16.006935"><ele>807.0</ele><time>2026-04-06T12:54:58.862Z</time></trkpt><trkpt lat="40.2949399" lon="16.0069599"><ele>807.0</ele><time>2026-04-06T12:55:00.862Z</time></trkpt><trkpt lat="40.2949857" lon="16.0070255"><ele>807.0</ele><time>2026-04-06T12:55:03.863Z</time></trkpt><trkpt lat="40.2949087" lon="16.0070365"><ele>807.0</ele><time>2026-04-06T12:55:06.862Z</time></trkpt><trkpt lat="40.2947903" lon="16.0070513"><ele>807.0</ele><time>2026-04-06T12:55:08.862Z</time></trkpt><trkpt lat="40.2947289" lon="16.0070767"><ele>807.0</ele><time>2026-04-06T12:55:09.862Z</time></trkpt><trkpt lat="40.2946676" lon="16.0071127"><ele>807.0</ele><time>2026-04-06T12:55:10.862Z</time></trkpt><trkpt lat="40.2946103" lon="16.0071686"><ele>807.0</ele><time>2026-04-06T12:55:11.862Z</time></trkpt><trkpt lat="40.2945518" lon="16.0072455"><ele>807.0</ele><time>2026-04-06T12:55:12.862Z</time></trkpt><trkpt lat="40.2944948" lon="16.0073366"><ele>807.0</ele><time>2026-04-06T12:55:13.862Z</time></trkpt><trkpt lat="40.2944395" lon="16.0074394"><ele>807.0</ele><time>2026-04-06T12:55:14.862Z</time></trkpt><trkpt lat="40.2943763" lon="16.0075506"><ele>807.0</ele><time>2026-04-06T12:55:15.862Z</time></trkpt><trkpt lat="40.294304" lon="16.0076653"><ele>810.75</ele><time>2026-04-06T12:55:16.862Z</time></trkpt><trkpt lat="40.2942243" lon="16.0077816"><ele>814.5</ele><time>2026-04-06T12:55:17.862Z</time></trkpt><trkpt lat="40.2941432" lon="16.0079032"><ele>818.25</ele><time>2026-04-06T12:55:18.862Z</time></trkpt><trkpt lat="40.2940643" lon="16.0080369"><ele>822.0</ele><time>2026-04-06T12:55:19.862Z</time></trkpt><trkpt lat="40.2939955" lon="16.0081846"><ele>824.5</ele><time>2026-04-06T12:55:20.862Z</time></trkpt><trkpt lat="40.2939406" lon="16.0083403"><ele>827.0</ele><time>2026-04-06T12:55:21.862Z</time></trkpt><trkpt lat="40.2938933" lon="16.0084974"><ele>829.5</ele><time>2026-04-06T12:55:22.862Z</time></trkpt><trkpt lat="40.2938465" lon="16.0086351"><ele>832.0</ele><time>2026-04-06T12:55:23.862Z</time></trkpt><trkpt lat="40.2937825" lon="16.0087458"><ele>832.0</ele><time>2026-04-06T12:55:24.862Z</time></trkpt><trkpt lat="40.2936952" lon="16.0088013"><ele>832.0</ele><time>2026-04-06T12:55:25.862Z</time></trkpt><trkpt lat="40.293593" lon="16.0088053"><ele>832.0</ele><time>2026-04-06T12:55:26.862Z</time></trkpt><trkpt lat="40.2934942" lon="16.0087579"><ele>832.0</ele><time>2026-04-06T12:55:27.863Z</time></trkpt><trkpt lat="40.2933975" lon="16.0086769"><ele>832.0</ele><time>2026-04-06T12:55:28.862Z</time></trkpt><trkpt lat="40.2933027" lon="16.0085916"><ele>832.0</ele><time>2026-04-06T12:55:29.863Z</time></trkpt><trkpt lat="40.2932048" lon="16.0085111"><ele>832.0</ele><time>2026-04-06T12:55:30.863Z</time></trkpt><trkpt lat="40.2931061" lon="16.0084474"><ele>832.0</ele><time>2026-04-06T12:55:31.862Z</time></trkpt><trkpt lat="40.2930036" lon="16.0083881"><ele>832.0</ele><time>2026-04-06T12:55:32.862Z</time></trkpt><trkpt lat="40.2929015" lon="16.0083425"><ele>832.0</ele><time>2026-04-06T12:55:33.862Z</time></trkpt><trkpt lat="40.2928002" lon="16.0083046"><ele>834.2</ele><time>2026-04-06T12:55:34.862Z</time></trkpt><trkpt lat="40.2926948" lon="16.0082801"><ele>836.4000000000001</ele><time>2026-04-06T12:55:35.862Z</time></trkpt><trkpt lat="40.2925838" lon="16.0082801"><ele>838.5999999999999</ele><time>2026-04-06T12:55:36.863Z</time></trkpt><trkpt lat="40.2924747" lon="16.0082985"><ele>840.8</ele><time>2026-04-06T12:55:37.862Z</time></trkpt><trkpt lat="40.2923705" lon="16.0083422"><ele>843.0</ele><time>2026-04-06T12:55:38.862Z</time></trkpt><trkpt lat="40.2922668" lon="16.008407"><ele>839.0</ele><time>2026-04-06T12:55:39.862Z</time></trkpt><trkpt lat="40.2921725" lon="16.0084939"><ele>835.0</ele><time>2026-04-06T12:55:40.862Z</time></trkpt><trkpt lat="40.2920899" lon="16.0085945"><ele>831.0</ele><time>2026-04-06T12:55:41.863Z</time></trkpt><trkpt lat="40.2920149" lon="16.0087043"><ele>827.0</ele><time>2026-04-06T12:55:42.862Z</time></trkpt><trkpt lat="40.2919533" lon="16.0088329"><ele>827.0</ele><time>2026-04-06T12:55:43.862Z</time></trkpt><trkpt lat="40.2919147" lon="16.0089821"><ele>827.0</ele><time>2026-04-06T12:55:44.862Z</time></trkpt><trkpt lat="40.2919049" lon="16.0091483"><ele>827.0</ele><time>2026-04-06T12:55:45.862Z</time></trkpt><trkpt lat="40.2919153" lon="16.0093216"><ele>827.0</ele><time>2026-04-06T12:55:46.862Z</time></trkpt><trkpt lat="40.2919372" lon="16.0094981"><ele>829.75</ele><time>2026-04-06T12:55:47.862Z</time></trkpt><trkpt lat="40.2919552" lon="16.0096809"><ele>832.5</ele><time>2026-04-06T12:55:48.863Z</time></trkpt><trkpt lat="40.29197" lon="16.0098628"><ele>835.25</ele><time>2026-04-06T12:55:49.862Z</time></trkpt><trkpt lat="40.2919713" lon="16.0100448"><ele>838.0</ele><time>2026-04-06T12:55:50.862Z</time></trkpt><trkpt lat="40.2919537" lon="16.0102131"><ele>839.5</ele><time>2026-04-06T12:55:51.862Z</time></trkpt><trkpt lat="40.2919331" lon="16.0103686"><ele>841.0</ele><time>2026-04-06T12:55:52.863Z</time></trkpt><trkpt lat="40.2919296" lon="16.010523"><ele>842.5</ele><time>2026-04-06T12:55:53.862Z</time></trkpt><trkpt lat="40.2919471" lon="16.0106839"><ele>844.0</ele><time>2026-04-06T12:55:54.862Z</time></trkpt><trkpt lat="40.2919804" lon="16.0108511"><ele>846.25</ele><time>2026-04-06T12:55:55.862Z</time></trkpt><trkpt lat="40.2920217" lon="16.0110263"><ele>848.5</ele><time>2026-04-06T12:55:56.863Z</time></trkpt><trkpt lat="40.2920638" lon="16.0112063"><ele>850.75</ele><time>2026-04-06T12:55:57.862Z</time></trkpt><trkpt lat="40.2921039" lon="16.0113873"><ele>853.0</ele><time>2026-04-06T12:55:58.862Z</time></trkpt><trkpt lat="40.2921445" lon="16.0115681"><ele>854.75</ele><time>2026-04-06T12:55:59.863Z</time></trkpt><trkpt lat="40.2921858" lon="16.0117443"><ele>856.5</ele><time>2026-04-06T12:56:00.863Z</time></trkpt><trkpt lat="40.2922243" lon="16.0119228"><ele>858.25</ele><time>2026-04-06T12:56:01.862Z</time></trkpt><trkpt lat="40.2922666" lon="16.0121038"><ele>860.0</ele><time>2026-04-06T12:56:02.862Z</time></trkpt><trkpt lat="40.2922955" lon="16.0122868"><ele>860.0</ele><time>2026-04-06T12:56:03.862Z</time></trkpt><trkpt lat="40.2923144" lon="16.012471"><ele>860.0</ele><time>2026-04-06T12:56:04.862Z</time></trkpt><trkpt lat="40.292299" lon="16.0126491"><ele>860.0</ele><time>2026-04-06T12:56:05.862Z</time></trkpt><trkpt lat="40.2922436" lon="16.0128155"><ele>860.0</ele><time>2026-04-06T12:56:06.863Z</time></trkpt><trkpt lat="40.2921597" lon="16.0129709"><ele>860.25</ele><time>2026-04-06T12:56:07.862Z</time></trkpt><trkpt lat="40.2920626" lon="16.0131202"><ele>860.5</ele><time>2026-04-06T12:56:08.862Z</time></trkpt><trkpt lat="40.2919641" lon="16.013265"><ele>860.75</ele><time>2026-04-06T12:56:09.863Z</time></trkpt><trkpt lat="40.2918821" lon="16.0134147"><ele>861.0</ele><time>2026-04-06T12:56:10.862Z</time></trkpt><trkpt lat="40.2918326" lon="16.0135748"><ele>861.0</ele><time>2026-04-06T12:56:11.862Z</time></trkpt><trkpt lat="40.2918177" lon="16.0137476"><ele>861.0</ele><time>2026-04-06T12:56:12.862Z</time></trkpt><trkpt lat="40.291823" lon="16.01394"><ele>861.0</ele><time>2026-04-06T12:56:13.862Z</time></trkpt><trkpt lat="40.2918307" lon="16.0141412"><ele>861.0</ele><time>2026-04-06T12:56:14.862Z</time></trkpt><trkpt lat="40.2918473" lon="16.0143595"><ele>861.0</ele><time>2026-04-06T12:56:15.862Z</time></trkpt><trkpt lat="40.2918619" lon="16.0145769"><ele>861.0</ele><time>2026-04-06T12:56:16.862Z</time></trkpt><trkpt lat="40.291872" lon="16.0147906"><ele>861.0</ele><time>2026-04-06T12:56:17.862Z</time></trkpt><trkpt lat="40.2918801" lon="16.0149985"><ele>861.0</ele><time>2026-04-06T12:56:18.862Z</time></trkpt><trkpt lat="40.2918867" lon="16.0152036"><ele>861.0</ele><time>2026-04-06T12:56:19.862Z</time></trkpt><trkpt lat="40.2918975" lon="16.0154057"><ele>861.0</ele><time>2026-04-06T12:56:20.862Z</time></trkpt><trkpt lat="40.2919158" lon="16.0156032"><ele>861.0</ele><time>2026-04-06T12:56:21.863Z</time></trkpt><trkpt lat="40.2919594" lon="16.0158027"><ele>861.0</ele><time>2026-04-06T12:56:22.863Z</time></trkpt><trkpt lat="40.2920298" lon="16.0159951"><ele>861.0</ele><time>2026-04-06T12:56:23.862Z</time></trkpt><trkpt lat="40.2921221" lon="16.0161784"><ele>861.6666666666667</ele><time>2026-04-06T12:56:24.862Z</time></trkpt><trkpt lat="40.292224" lon="16.016358"><ele>862.3333333333334</ele><time>2026-04-06T12:56:25.862Z</time></trkpt><trkpt lat="40.2923265" lon="16.0165346"><ele>863.0</ele><time>2026-04-06T12:56:26.862Z</time></trkpt><trkpt lat="40.2924279" lon="16.0167107"><ele>863.0</ele><time>2026-04-06T12:56:27.862Z</time></trkpt><trkpt lat="40.2925298" lon="16.0168872"><ele>863.0</ele><time>2026-04-06T12:56:28.863Z</time></trkpt><trkpt lat="40.2926292" lon="16.0170677"><ele>863.0</ele><time>2026-04-06T12:56:29.862Z</time></trkpt><trkpt lat="40.2927249" lon="16.0172478"><ele>863.0</ele><time>2026-04-06T12:56:30.862Z</time></trkpt><trkpt lat="40.2928226" lon="16.0174278"><ele>863.0</ele><time>2026-04-06T12:56:31.862Z</time></trkpt><trkpt lat="40.2929222" lon="16.0176092"><ele>863.0</ele><time>2026-04-06T12:56:32.863Z</time></trkpt><trkpt lat="40.2930218" lon="16.0177896"><ele>863.3333333333334</ele><time>2026-04-06T12:56:33.863Z</time></trkpt><trkpt lat="40.2931219" lon="16.0179722"><ele>863.6666666666667</ele><time>2026-04-06T12:56:34.862Z</time></trkpt><trkpt lat="40.2932223" lon="16.0181531"><ele>864.0</ele><time>2026-04-06T12:56:35.863Z</time></trkpt><trkpt lat="40.2933283" lon="16.0183358"><ele>863.3333333333333</ele><time>2026-04-06T12:56:36.862Z</time></trkpt><trkpt lat="40.2934386" lon="16.0185151"><ele>862.6666666666666</ele><time>2026-04-06T12:56:37.863Z</time></trkpt><trkpt lat="40.293549" lon="16.0186914"><ele>862.0</ele><time>2026-04-06T12:56:38.862Z</time></trkpt><trkpt lat="40.2936519" lon="16.0188741"><ele>862.0</ele><time>2026-04-06T12:56:39.862Z</time></trkpt><trkpt lat="40.293754" lon="16.0190614"><ele>862.0</ele><time>2026-04-06T12:56:40.862Z</time></trkpt><trkpt lat="40.2938605" lon="16.0192453"><ele>862.0</ele><time>2026-04-06T12:56:41.862Z</time></trkpt><trkpt lat="40.2939662" lon="16.0194339"><ele>861.3333333333333</ele><time>2026-04-06T12:56:42.862Z</time></trkpt><trkpt lat="40.2940734" lon="16.0196249"><ele>860.6666666666667</ele><time>2026-04-06T12:56:43.862Z</time></trkpt><trkpt lat="40.2941821" lon="16.0198144"><ele>860.0</ele><time>2026-04-06T12:56:44.862Z</time></trkpt><trkpt lat="40.2942881" lon="16.0199987"><ele>859.0</ele><time>2026-04-06T12:56:45.862Z</time></trkpt><trkpt lat="40.2943946" lon="16.0201923"><ele>858.0</ele><time>2026-04-06T12:56:46.862Z</time></trkpt><trkpt lat="40.2945112" lon="16.0203797"><ele>857.0</ele><time>2026-04-06T12:56:47.862Z</time></trkpt><trkpt lat="40.2946246" lon="16.0205736"><ele>857.0</ele><time>2026-04-06T12:56:48.862Z</time></trkpt><trkpt lat="40.2947416" lon="16.0207677"><ele>857.0</ele><time>2026-04-06T12:56:49.862Z</time></trkpt><trkpt lat="40.2948568" lon="16.0209477"><ele>857.0</ele><time>2026-04-06T12:56:50.862Z</time></trkpt><trkpt lat="40.294976" lon="16.0211151"><ele>856.0</ele><time>2026-04-06T12:56:51.863Z</time></trkpt><trkpt lat="40.2951062" lon="16.0212599"><ele>855.0</ele><time>2026-04-06T12:56:52.862Z</time></trkpt><trkpt lat="40.2952402" lon="16.0213916"><ele>854.0</ele><time>2026-04-06T12:56:53.862Z</time></trkpt><trkpt lat="40.2953667" lon="16.0215117"><ele>854.0</ele><time>2026-04-06T12:56:54.862Z</time></trkpt><trkpt lat="40.2954773" lon="16.0216359"><ele>854.0</ele><time>2026-04-06T12:56:55.862Z</time></trkpt><trkpt lat="40.2955592" lon="16.0217736"><ele>854.0</ele><time>2026-04-06T12:56:56.862Z</time></trkpt><trkpt lat="40.2956027" lon="16.0219381"><ele>854.0</ele><time>2026-04-06T12:56:57.862Z</time></trkpt><trkpt lat="40.2956087" lon="16.0221252"><ele>855.6666666666667</ele><time>2026-04-06T12:56:58.862Z</time></trkpt><trkpt lat="40.2955937" lon="16.0223253"><ele>857.3333333333333</ele><time>2026-04-06T12:56:59.862Z</time></trkpt><trkpt lat="40.2955713" lon="16.0225338"><ele>859.0</ele><time>2026-04-06T12:57:00.862Z</time></trkpt><trkpt lat="40.295554" lon="16.0227563"><ele>859.0</ele><time>2026-04-06T12:57:01.862Z</time></trkpt><trkpt lat="40.2955323" lon="16.0229706"><ele>859.0</ele><time>2026-04-06T12:57:02.862Z</time></trkpt><trkpt lat="40.2955191" lon="16.0231738"><ele>859.0</ele><time>2026-04-06T12:57:03.862Z</time></trkpt><trkpt lat="40.2955114" lon="16.0233663"><ele>859.5</ele><time>2026-04-06T12:57:04.862Z</time></trkpt><trkpt lat="40.2955232" lon="16.0235382"><ele>860.0</ele><time>2026-04-06T12:57:05.863Z</time></trkpt><trkpt lat="40.295565" lon="16.0237066"><ele>860.5</ele><time>2026-04-06T12:57:06.862Z</time></trkpt><trkpt lat="40.2956411" lon="16.0238622"><ele>861.0</ele><time>2026-04-06T12:57:07.863Z</time></trkpt><trkpt lat="40.2957386" lon="16.0239997"><ele>862.5</ele><time>2026-04-06T12:57:08.862Z</time></trkpt><trkpt lat="40.295832" lon="16.0241272"><ele>864.0</ele><time>2026-04-06T12:57:09.862Z</time></trkpt><trkpt lat="40.2959093" lon="16.0242631"><ele>865.5</ele><time>2026-04-06T12:57:10.862Z</time></trkpt><trkpt lat="40.2959506" lon="16.0244016"><ele>867.0</ele><time>2026-04-06T12:57:11.862Z</time></trkpt><trkpt lat="40.2959556" lon="16.0245524"><ele>868.0</ele><time>2026-04-06T12:57:12.862Z</time></trkpt><trkpt lat="40.29593" lon="16.02471"><ele>869.0</ele><time>2026-04-06T12:57:13.862Z</time></trkpt><trkpt lat="40.2958898" lon="16.0248785"><ele>870.0</ele><time>2026-04-06T12:57:14.862Z</time></trkpt><trkpt lat="40.2958489" lon="16.0250608"><ele>871.0</ele><time>2026-04-06T12:57:15.862Z</time></trkpt><trkpt lat="40.2958098" lon="16.0252495"><ele>871.75</ele><time>2026-04-06T12:57:16.862Z</time></trkpt><trkpt lat="40.2957707" lon="16.0254358"><ele>872.5</ele><time>2026-04-06T12:57:17.862Z</time></trkpt><trkpt lat="40.2957331" lon="16.0256223"><ele>873.25</ele><time>2026-04-06T12:57:18.862Z</time></trkpt><trkpt lat="40.2957004" lon="16.0258056"><ele>874.0</ele><time>2026-04-06T12:57:19.862Z</time></trkpt><trkpt lat="40.2956692" lon="16.0259932"><ele>874.0</ele><time>2026-04-06T12:57:20.862Z</time></trkpt><trkpt lat="40.29564" lon="16.0261854"><ele>874.0</ele><time>2026-04-06T12:57:21.862Z</time></trkpt><trkpt lat="40.2956034" lon="16.0263723"><ele>874.0</ele><time>2026-04-06T12:57:22.862Z</time></trkpt><trkpt lat="40.2955703" lon="16.0265549"><ele>874.0</ele><time>2026-04-06T12:57:23.862Z</time></trkpt><trkpt lat="40.2955377" lon="16.0267405"><ele>874.0</ele><time>2026-04-06T12:57:24.862Z</time></trkpt><trkpt lat="40.2955109" lon="16.0269268"><ele>874.0</ele><time>2026-04-06T12:57:25.862Z</time></trkpt><trkpt lat="40.2954827" lon="16.0271121"><ele>874.0</ele><time>2026-04-06T12:57:26.862Z</time></trkpt><trkpt lat="40.2954482" lon="16.0273019"><ele>874.0</ele><time>2026-04-06T12:57:27.862Z</time></trkpt><trkpt lat="40.2954166" lon="16.0274814"><ele>874.75</ele><time>2026-04-06T12:57:28.862Z</time></trkpt><trkpt lat="40.2954005" lon="16.027651"><ele>875.5</ele><time>2026-04-06T12:57:29.862Z</time></trkpt><trkpt lat="40.2954043" lon="16.0278077"><ele>876.25</ele><time>2026-04-06T12:57:30.863Z</time></trkpt><trkpt lat="40.295448" lon="16.027954"><ele>877.0</ele><time>2026-04-06T12:57:31.862Z</time></trkpt><trkpt lat="40.2955263" lon="16.0280644"><ele>878.25</ele><time>2026-04-06T12:57:32.862Z</time></trkpt><trkpt lat="40.2956375" lon="16.0281396"><ele>879.5</ele><time>2026-04-06T12:57:33.862Z</time></trkpt><trkpt lat="40.2957687" lon="16.028194"><ele>880.75</ele><time>2026-04-06T12:57:34.862Z</time></trkpt><trkpt lat="40.2959071" lon="16.02824"><ele>882.0</ele><time>2026-04-06T12:57:35.862Z</time></trkpt><trkpt lat="40.2960454" lon="16.0282912"><ele>882.75</ele><time>2026-04-06T12:57:36.862Z</time></trkpt><trkpt lat="40.2961798" lon="16.0283313"><ele>883.5</ele><time>2026-04-06T12:57:37.863Z</time></trkpt><trkpt lat="40.2963076" lon="16.0283383"><ele>884.25</ele><time>2026-04-06T12:57:38.862Z</time></trkpt><trkpt lat="40.2964292" lon="16.028297"><ele>885.0</ele><time>2026-04-06T12:57:39.863Z</time></trkpt><trkpt lat="40.2965299" lon="16.0282087"><ele>885.75</ele><time>2026-04-06T12:57:40.862Z</time></trkpt><trkpt lat="40.2966276" lon="16.0280886"><ele>886.5</ele><time>2026-04-06T12:57:41.862Z</time></trkpt><trkpt lat="40.2967201" lon="16.0279586"><ele>887.25</ele><time>2026-04-06T12:57:42.862Z</time></trkpt><trkpt lat="40.2968112" lon="16.0278375"><ele>888.0</ele><time>2026-04-06T12:57:43.862Z</time></trkpt><trkpt lat="40.2968974" lon="16.0277432"><ele>888.0</ele><time>2026-04-06T12:57:44.862Z</time></trkpt><trkpt lat="40.2969709" lon="16.027681"><ele>888.0</ele><time>2026-04-06T12:57:45.862Z</time></trkpt><trkpt lat="40.2970361" lon="16.0276412"><ele>888.0</ele><time>2026-04-06T12:57:46.862Z</time></trkpt><trkpt lat="40.2971194" lon="16.0276294"><ele>888.0</ele><time>2026-04-06T12:57:48.862Z</time></trkpt><trkpt lat="40.2971922" lon="16.0276441"><ele>888.0</ele><time>2026-04-06T12:58:06.862Z</time></trkpt><trkpt lat="40.2972961" lon="16.0276807"><ele>888.0</ele><time>2026-04-06T12:58:08.862Z</time></trkpt><trkpt lat="40.2973975" lon="16.0277361"><ele>889.4</ele><time>2026-04-06T12:58:10.862Z</time></trkpt><trkpt lat="40.2975033" lon="16.0277788"><ele>890.8</ele><time>2026-04-06T12:58:12.862Z</time></trkpt><trkpt lat="40.2975967" lon="16.0278178"><ele>892.2</ele><time>2026-04-06T12:58:14.862Z</time></trkpt><trkpt lat="40.2976686" lon="16.0278495"><ele>893.6</ele><time>2026-04-06T12:58:56.861Z</time></trkpt><trkpt lat="40.2978121" lon="16.0278911"><ele>895.0</ele><time>2026-04-06T12:58:58.861Z</time></trkpt><trkpt lat="40.2979111" lon="16.0279014"><ele>895.0</ele><time>2026-04-06T12:58:59.861Z</time></trkpt><trkpt lat="40.2980162" lon="16.0278883"><ele>895.0</ele><time>2026-04-06T12:59:00.861Z</time></trkpt><trkpt lat="40.2981049" lon="16.0278382"><ele>895.0</ele><time>2026-04-06T12:59:01.861Z</time></trkpt><trkpt lat="40.2981884" lon="16.0277609"><ele>895.0</ele><time>2026-04-06T12:59:02.861Z</time></trkpt><trkpt lat="40.2982565" lon="16.0276399"><ele>895.0</ele><time>2026-04-06T12:59:03.861Z</time></trkpt><trkpt lat="40.2983202" lon="16.0274881"><ele>897.0</ele><time>2026-04-06T12:59:04.862Z</time></trkpt><trkpt lat="40.298379" lon="16.0273359"><ele>899.0</ele><time>2026-04-06T12:59:05.862Z</time></trkpt><trkpt lat="40.2984383" lon="16.0271896"><ele>901.0</ele><time>2026-04-06T12:59:06.862Z</time></trkpt><trkpt lat="40.2985008" lon="16.0270479"><ele>903.0</ele><time>2026-04-06T12:59:07.861Z</time></trkpt><trkpt lat="40.2985657" lon="16.0269107"><ele>903.0</ele><time>2026-04-06T12:59:08.862Z</time></trkpt><trkpt lat="40.2986325" lon="16.0267751"><ele>903.0</ele><time>2026-04-06T12:59:09.861Z</time></trkpt><trkpt lat="40.298705" lon="16.0266426"><ele>903.0</ele><time>2026-04-06T12:59:10.861Z</time></trkpt><trkpt lat="40.2987828" lon="16.0265147"><ele>903.0</ele><time>2026-04-06T12:59:11.862Z</time></trkpt><trkpt lat="40.2988653" lon="16.0263897"><ele>903.8</ele><time>2026-04-06T12:59:12.861Z</time></trkpt><trkpt lat="40.2989516" lon="16.0262787"><ele>904.5999999999999</ele><time>2026-04-06T12:59:13.861Z</time></trkpt><trkpt lat="40.299038" lon="16.0261865"><ele>905.4000000000001</ele><time>2026-04-06T12:59:14.861Z</time></trkpt><trkpt lat="40.2991282" lon="16.0261352"><ele>906.2</ele><time>2026-04-06T12:59:15.861Z</time></trkpt><trkpt lat="40.2992195" lon="16.0261345"><ele>907.0</ele><time>2026-04-06T12:59:16.862Z</time></trkpt><trkpt lat="40.2993091" lon="16.0261493"><ele>907.0</ele><time>2026-04-06T12:59:17.862Z</time></trkpt><trkpt lat="40.2993983" lon="16.0261445"><ele>907.0</ele><time>2026-04-06T12:59:18.861Z</time></trkpt><trkpt lat="40.2994759" lon="16.0260964"><ele>907.0</ele><time>2026-04-06T12:59:19.861Z</time></trkpt><trkpt lat="40.299533" lon="16.025999"><ele>907.0</ele><time>2026-04-06T12:59:20.861Z</time></trkpt><trkpt lat="40.2995775" lon="16.0258615"><ele>907.0</ele><time>2026-04-06T12:59:21.861Z</time></trkpt><trkpt lat="40.2996229" lon="16.0257142"><ele>905.25</ele><time>2026-04-06T12:59:22.861Z</time></trkpt><trkpt lat="40.2996794" lon="16.0255815"><ele>903.5</ele><time>2026-04-06T12:59:23.861Z</time></trkpt><trkpt lat="40.2997555" lon="16.0254788"><ele>901.75</ele><time>2026-04-06T12:59:24.861Z</time></trkpt><trkpt lat="40.299853" lon="16.0254011"><ele>900.0</ele><time>2026-04-06T12:59:25.861Z</time></trkpt><trkpt lat="40.2999785" lon="16.025354"><ele>903.5</ele><time>2026-04-06T12:59:26.861Z</time></trkpt><trkpt lat="40.3001192" lon="16.0253241"><ele>907.0</ele><time>2026-04-06T12:59:27.861Z</time></trkpt><trkpt lat="40.3002623" lon="16.0252886"><ele>910.5</ele><time>2026-04-06T12:59:28.861Z</time></trkpt><trkpt lat="40.3003875" lon="16.0252303"><ele>914.0</ele><time>2026-04-06T12:59:29.861Z</time></trkpt><trkpt lat="40.3004848" lon="16.0251396"><ele>914.0</ele><time>2026-04-06T12:59:30.861Z</time></trkpt><trkpt lat="40.3005433" lon="16.025027"><ele>914.0000000000001</ele><time>2026-04-06T12:59:31.861Z</time></trkpt><trkpt lat="40.3005817" lon="16.0249006"><ele>914.0000000000001</ele><time>2026-04-06T12:59:32.861Z</time></trkpt><trkpt lat="40.30063" lon="16.024782"><ele>914.0</ele><time>2026-04-06T12:59:33.861Z</time></trkpt><trkpt lat="40.3006983" lon="16.0246862"><ele>914.0</ele><time>2026-04-06T12:59:34.861Z</time></trkpt><trkpt lat="40.3007917" lon="16.0246198"><ele>913.8000000000001</ele><time>2026-04-06T12:59:35.861Z</time></trkpt><trkpt lat="40.3008933" lon="16.0245814"><ele>913.6000000000001</ele><time>2026-04-06T12:59:36.861Z</time></trkpt><trkpt lat="40.301003" lon="16.0245792"><ele>913.4</ele><time>2026-04-06T12:59:37.861Z</time></trkpt><trkpt lat="40.301113" lon="16.0246177"><ele>913.2</ele><time>2026-04-06T12:59:38.861Z</time></trkpt><trkpt lat="40.3012212" lon="16.0246816"><ele>913.0</ele><time>2026-04-06T12:59:39.862Z</time></trkpt><trkpt lat="40.3013205" lon="16.0247527"><ele>913.0</ele><time>2026-04-06T12:59:40.861Z</time></trkpt><trkpt lat="40.3014138" lon="16.0248127"><ele>913.0</ele><time>2026-04-06T12:59:41.861Z</time></trkpt><trkpt lat="40.301494" lon="16.0248636"><ele>913.0</ele><time>2026-04-06T12:59:42.861Z</time></trkpt><trkpt lat="40.3015585" lon="16.0249149"><ele>913.0</ele><time>2026-04-06T12:59:43.861Z</time></trkpt><trkpt lat="40.3015718" lon="16.0250393"><ele>913.0</ele><time>2026-04-06T12:59:45.861Z</time></trkpt><trkpt lat="40.3014607" lon="16.0250427"><ele>912.9999999999999</ele><time>2026-04-06T12:59:47.861Z</time></trkpt><trkpt lat="40.3013868" lon="16.0249885"><ele>913.0</ele><time>2026-04-06T12:59:48.861Z</time></trkpt><trkpt lat="40.3013096" lon="16.0249222"><ele>913.0</ele><time>2026-04-06T12:59:49.861Z</time></trkpt><trkpt lat="40.3012356" lon="16.0248634"><ele>913.0</ele><time>2026-04-06T12:59:50.861Z</time></trkpt><trkpt lat="40.3011588" lon="16.024818"><ele>912.9999999999999</ele><time>2026-04-06T12:59:51.861Z</time></trkpt><trkpt lat="40.301087" lon="16.0247932"><ele>913.0</ele><time>2026-04-06T12:59:52.861Z</time></trkpt><trkpt lat="40.3010236" lon="16.0247903"><ele>913.0</ele><time>2026-04-06T12:59:53.861Z</time></trkpt><trkpt lat="40.3009429" lon="16.0248379"><ele>913.0</ele><time>2026-04-06T12:59:55.861Z</time></trkpt><trkpt lat="40.3008931" lon="16.0249671"><ele>913.0</ele><time>2026-04-06T12:59:57.861Z</time></trkpt><trkpt lat="40.3008791" lon="16.0250653"><ele>913.0</ele><time>2026-04-06T12:59:58.861Z</time></trkpt><trkpt lat="40.3008828" lon="16.0251858"><ele>913.0</ele><time>2026-04-06T12:59:59.861Z</time></trkpt><trkpt lat="40.3009023" lon="16.0253066"><ele>915.1666666666666</ele><time>2026-04-06T13:00:00.861Z</time></trkpt><trkpt lat="40.3009306" lon="16.025425"><ele>917.3333333333333</ele><time>2026-04-06T13:00:01.861Z</time></trkpt><trkpt lat="40.3009366" lon="16.0255354"><ele>919.5</ele><time>2026-04-06T13:00:02.861Z</time></trkpt><trkpt lat="40.3009152" lon="16.0256331"><ele>921.6666666666667</ele><time>2026-04-06T13:00:03.861Z</time></trkpt><trkpt lat="40.3008494" lon="16.0256899"><ele>923.8333333333334</ele><time>2026-04-06T13:00:04.861Z</time></trkpt><trkpt lat="40.3007651" lon="16.0257271"><ele>926.0</ele><time>2026-04-06T13:00:05.861Z</time></trkpt><trkpt lat="40.3006804" lon="16.0257446"><ele>926.0000000000001</ele><time>2026-04-06T13:00:06.861Z</time></trkpt><trkpt lat="40.3006026" lon="16.0257462"><ele>926.0</ele><time>2026-04-06T13:00:07.861Z</time></trkpt><trkpt lat="40.3005386" lon="16.0257468"><ele>926.0</ele><time>2026-04-06T13:00:08.862Z</time></trkpt><trkpt lat="40.3004435" lon="16.0257538"><ele>926.0</ele><time>2026-04-06T13:00:10.861Z</time></trkpt><trkpt lat="40.3003816" lon="16.0257818"><ele>926.0000000000001</ele><time>2026-04-06T13:00:12.861Z</time></trkpt><trkpt lat="40.3003292" lon="16.0258515"><ele>926.0</ele><time>2026-04-06T13:00:15.861Z</time></trkpt><trkpt lat="40.3002789" lon="16.026015"><ele>925.8</ele><time>2026-04-06T13:00:39.861Z</time></trkpt><trkpt lat="40.3002405" lon="16.0261283"><ele>925.5999999999999</ele><time>2026-04-06T13:00:40.861Z</time></trkpt><trkpt lat="40.3002054" lon="16.0262547"><ele>925.4</ele><time>2026-04-06T13:00:41.862Z</time></trkpt><trkpt lat="40.3001786" lon="16.0264015"><ele>925.2</ele><time>2026-04-06T13:00:42.861Z</time></trkpt><trkpt lat="40.3001622" lon="16.0265548"><ele>925.0</ele><time>2026-04-06T13:00:43.861Z</time></trkpt><trkpt lat="40.3001595" lon="16.0267092"><ele>927.2</ele><time>2026-04-06T13:00:44.861Z</time></trkpt><trkpt lat="40.3001613" lon="16.0268549"><ele>929.4</ele><time>2026-04-06T13:00:45.861Z</time></trkpt><trkpt lat="40.3001579" lon="16.026989"><ele>931.5999999999999</ele><time>2026-04-06T13:00:46.862Z</time></trkpt><trkpt lat="40.3001259" lon="16.0271018"><ele>933.8</ele><time>2026-04-06T13:00:47.861Z</time></trkpt><trkpt lat="40.3000671" lon="16.0271897"><ele>936.0</ele><time>2026-04-06T13:00:48.861Z</time></trkpt><trkpt lat="40.2999864" lon="16.0272703"><ele>936.0</ele><time>2026-04-06T13:00:49.861Z</time></trkpt><trkpt lat="40.2999113" lon="16.0273651"><ele>935.9999999999999</ele><time>2026-04-06T13:00:50.861Z</time></trkpt><trkpt lat="40.2998608" lon="16.027488"><ele>935.9999999999999</ele><time>2026-04-06T13:00:51.861Z</time></trkpt><trkpt lat="40.299838" lon="16.0276311"><ele>936.0</ele><time>2026-04-06T13:00:52.861Z</time></trkpt><trkpt lat="40.299846" lon="16.0277851"><ele>936.0</ele><time>2026-04-06T13:00:53.861Z</time></trkpt><trkpt lat="40.2998736" lon="16.0279356"><ele>938.0</ele><time>2026-04-06T13:00:54.861Z</time></trkpt><trkpt lat="40.2999162" lon="16.0280907"><ele>940.0</ele><time>2026-04-06T13:00:55.861Z</time></trkpt><trkpt lat="40.2999719" lon="16.0282331"><ele>942.0</ele><time>2026-04-06T13:00:56.862Z</time></trkpt><trkpt lat="40.3000413" lon="16.0283582"><ele>944.0</ele><time>2026-04-06T13:00:57.861Z</time></trkpt><trkpt lat="40.3001341" lon="16.028454"><ele>944.25</ele><time>2026-04-06T13:00:58.861Z</time></trkpt><trkpt lat="40.3002377" lon="16.0285121"><ele>944.5</ele><time>2026-04-06T13:00:59.862Z</time></trkpt><trkpt lat="40.3003519" lon="16.0285407"><ele>944.75</ele><time>2026-04-06T13:01:00.861Z</time></trkpt><trkpt lat="40.3004677" lon="16.0285506"><ele>945.0</ele><time>2026-04-06T13:01:01.861Z</time></trkpt><trkpt lat="40.3005824" lon="16.0285608"><ele>949.5</ele><time>2026-04-06T13:01:02.861Z</time></trkpt><trkpt lat="40.3006947" lon="16.0285838"><ele>954.0</ele><time>2026-04-06T13:01:03.862Z</time></trkpt><trkpt lat="40.3007981" lon="16.0286473"><ele>958.5</ele><time>2026-04-06T13:01:04.862Z</time></trkpt><trkpt lat="40.3008892" lon="16.0287467"><ele>963.0</ele><time>2026-04-06T13:01:05.862Z</time></trkpt><trkpt lat="40.3009628" lon="16.0288746"><ele>963.0</ele><time>2026-04-06T13:01:06.861Z</time></trkpt><trkpt lat="40.3010214" lon="16.0290191"><ele>963.0</ele><time>2026-04-06T13:01:07.861Z</time></trkpt><trkpt lat="40.3010776" lon="16.029162"><ele>963.0</ele><time>2026-04-06T13:01:08.861Z</time></trkpt><trkpt lat="40.3011398" lon="16.0293044"><ele>963.0</ele><time>2026-04-06T13:01:09.861Z</time></trkpt><trkpt lat="40.3012232" lon="16.0294203"><ele>959.5</ele><time>2026-04-06T13:01:10.862Z</time></trkpt><trkpt lat="40.3013142" lon="16.029519"><ele>956.0</ele><time>2026-04-06T13:01:11.861Z</time></trkpt><trkpt lat="40.3014154" lon="16.0296088"><ele>952.5</ele><time>2026-04-06T13:01:12.862Z</time></trkpt><trkpt lat="40.3015174" lon="16.0296804"><ele>949.0</ele><time>2026-04-06T13:01:13.861Z</time></trkpt><trkpt lat="40.3016234" lon="16.0297414"><ele>951.2</ele><time>2026-04-06T13:01:14.862Z</time></trkpt><trkpt lat="40.3017248" lon="16.0298001"><ele>953.4000000000001</ele><time>2026-04-06T13:01:15.861Z</time></trkpt><trkpt lat="40.3018071" lon="16.0298732"><ele>955.6</ele><time>2026-04-06T13:01:16.862Z</time></trkpt><trkpt lat="40.3018679" lon="16.0299676"><ele>957.8</ele><time>2026-04-06T13:01:17.861Z</time></trkpt><trkpt lat="40.301908" lon="16.0300825"><ele>960.0</ele><time>2026-04-06T13:01:18.861Z</time></trkpt><trkpt lat="40.3019411" lon="16.0301999"><ele>960.0</ele><time>2026-04-06T13:01:19.861Z</time></trkpt><trkpt lat="40.3019579" lon="16.030305"><ele>960.0</ele><time>2026-04-06T13:01:20.861Z</time></trkpt><trkpt lat="40.301952" lon="16.030391"><ele>960.0</ele><time>2026-04-06T13:01:21.861Z</time></trkpt><trkpt lat="40.3018635" lon="16.030486"><ele>960.0</ele><time>2026-04-06T13:01:23.861Z</time></trkpt><trkpt lat="40.3017648" lon="16.0304597"><ele>960.0</ele><time>2026-04-06T13:01:24.861Z</time></trkpt><trkpt lat="40.3016731" lon="16.0304398"><ele>960.0</ele><time>2026-04-06T13:01:25.861Z</time></trkpt><trkpt lat="40.3016096" lon="16.0304708"><ele>960.0</ele><time>2026-04-06T13:01:26.861Z</time></trkpt><trkpt lat="40.3015917" lon="16.0306324"><ele>960.0</ele><time>2026-04-06T13:01:28.861Z</time></trkpt><trkpt lat="40.3016367" lon="16.0307288"><ele>960.0</ele><time>2026-04-06T13:01:29.862Z</time></trkpt><trkpt lat="40.3017124" lon="16.0308265"><ele>960.0</ele><time>2026-04-06T13:01:30.861Z</time></trkpt><trkpt lat="40.3018101" lon="16.0309103"><ele>958.75</ele><time>2026-04-06T13:01:31.861Z</time></trkpt><trkpt lat="40.3019211" lon="16.0309733"><ele>957.5</ele><time>2026-04-06T13:01:32.861Z</time></trkpt><trkpt lat="40.302035" lon="16.0310268"><ele>956.25</ele><time>2026-04-06T13:01:33.861Z</time></trkpt><trkpt lat="40.3021486" lon="16.0310772"><ele>955.0</ele><time>2026-04-06T13:01:34.862Z</time></trkpt><trkpt lat="40.3022596" lon="16.0311265"><ele>958.8</ele><time>2026-04-06T13:01:35.861Z</time></trkpt><trkpt lat="40.3023724" lon="16.0311705"><ele>962.6</ele><time>2026-04-06T13:01:36.861Z</time></trkpt><trkpt lat="40.3024803" lon="16.0312073"><ele>966.4000000000001</ele><time>2026-04-06T13:01:37.861Z</time></trkpt><trkpt lat="40.3025819" lon="16.0312404"><ele>970.2</ele><time>2026-04-06T13:01:38.861Z</time></trkpt><trkpt lat="40.3026792" lon="16.0312793"><ele>974.0</ele><time>2026-04-06T13:01:39.861Z</time></trkpt><trkpt lat="40.3027704" lon="16.0313263"><ele>974.0</ele><time>2026-04-06T13:01:40.862Z</time></trkpt><trkpt lat="40.3028581" lon="16.0313819"><ele>974.0000000000001</ele><time>2026-04-06T13:01:41.862Z</time></trkpt><trkpt lat="40.302932" lon="16.0314612"><ele>974.0000000000001</ele><time>2026-04-06T13:01:42.861Z</time></trkpt><trkpt lat="40.3029966" lon="16.0315556"><ele>974.0</ele><time>2026-04-06T13:01:43.861Z</time></trkpt><trkpt lat="40.3030552" lon="16.0316677"><ele>974.0</ele><time>2026-04-06T13:01:44.861Z</time></trkpt><trkpt lat="40.3031067" lon="16.0317884"><ele>975.0</ele><time>2026-04-06T13:01:45.861Z</time></trkpt><trkpt lat="40.3031493" lon="16.0319189"><ele>976.0000000000001</ele><time>2026-04-06T13:01:46.861Z</time></trkpt><trkpt lat="40.303182" lon="16.0320472"><ele>977.0000000000001</ele><time>2026-04-06T13:01:47.862Z</time></trkpt><trkpt lat="40.3031978" lon="16.0321698"><ele>978.0</ele><time>2026-04-06T13:01:48.861Z</time></trkpt><trkpt lat="40.3031774" lon="16.0322736"><ele>979.0</ele><time>2026-04-06T13:01:49.861Z</time></trkpt><trkpt lat="40.3031167" lon="16.0323642"><ele>978.25</ele><time>2026-04-06T13:01:50.861Z</time></trkpt><trkpt lat="40.303031" lon="16.0324351"><ele>977.5</ele><time>2026-04-06T13:01:51.862Z</time></trkpt><trkpt lat="40.3029186" lon="16.032468"><ele>976.75</ele><time>2026-04-06T13:01:52.861Z</time></trkpt><trkpt lat="40.3027956" lon="16.0324792"><ele>976.0</ele><time>2026-04-06T13:01:53.861Z</time></trkpt><trkpt lat="40.3026778" lon="16.0324726"><ele>976.0</ele><time>2026-04-06T13:01:54.862Z</time></trkpt><trkpt lat="40.3025594" lon="16.0324637"><ele>976.0</ele><time>2026-04-06T13:01:55.862Z</time></trkpt><trkpt lat="40.3024452" lon="16.0324699"><ele>976.0</ele><time>2026-04-06T13:01:56.861Z</time></trkpt><trkpt lat="40.3023329" lon="16.0325018"><ele>976.0</ele><time>2026-04-06T13:01:57.861Z</time></trkpt><trkpt lat="40.3022208" lon="16.032557"><ele>975.5</ele><time>2026-04-06T13:01:58.861Z</time></trkpt><trkpt lat="40.3021251" lon="16.0326402"><ele>975.0</ele><time>2026-04-06T13:01:59.861Z</time></trkpt><trkpt lat="40.302036" lon="16.0327314"><ele>974.5</ele><time>2026-04-06T13:02:00.861Z</time></trkpt><trkpt lat="40.301942" lon="16.032822"><ele>974.0</ele><time>2026-04-06T13:02:01.861Z</time></trkpt><trkpt lat="40.3018421" lon="16.0329027"><ele>974.0</ele><time>2026-04-06T13:02:02.861Z</time></trkpt><trkpt lat="40.3017298" lon="16.0329615"><ele>974.0000000000001</ele><time>2026-04-06T13:02:03.862Z</time></trkpt><trkpt lat="40.301622" lon="16.0330059"><ele>974.0000000000001</ele><time>2026-04-06T13:02:04.861Z</time></trkpt><trkpt lat="40.3015189" lon="16.0330347"><ele>974.0</ele><time>2026-04-06T13:02:05.861Z</time></trkpt><trkpt lat="40.3014208" lon="16.0330564"><ele>974.0</ele><time>2026-04-06T13:02:06.861Z</time></trkpt><trkpt lat="40.3013388" lon="16.03311"><ele>974.6</ele><time>2026-04-06T13:02:07.862Z</time></trkpt><trkpt lat="40.3012825" lon="16.0331996"><ele>975.2</ele><time>2026-04-06T13:02:08.861Z</time></trkpt><trkpt lat="40.3012587" lon="16.0333177"><ele>975.8000000000001</ele><time>2026-04-06T13:02:09.861Z</time></trkpt><trkpt lat="40.3012651" lon="16.0334652"><ele>976.4000000000001</ele><time>2026-04-06T13:02:10.861Z</time></trkpt><trkpt lat="40.3012861" lon="16.0336177"><ele>977.0</ele><time>2026-04-06T13:02:11.861Z</time></trkpt><trkpt lat="40.3013077" lon="16.0337659"><ele>977.0</ele><time>2026-04-06T13:02:12.862Z</time></trkpt><trkpt lat="40.3013347" lon="16.033915"><ele>977.0</ele><time>2026-04-06T13:02:13.862Z</time></trkpt><trkpt lat="40.3013705" lon="16.0340643"><ele>977.0</ele><time>2026-04-06T13:02:14.862Z</time></trkpt><trkpt lat="40.3014138" lon="16.0341986"><ele>977.0</ele><time>2026-04-06T13:02:15.861Z</time></trkpt><trkpt lat="40.3014576" lon="16.0343228"><ele>979.2</ele><time>2026-04-06T13:02:16.861Z</time></trkpt><trkpt lat="40.3014965" lon="16.034444"><ele>981.4000000000001</ele><time>2026-04-06T13:02:17.861Z</time></trkpt><trkpt lat="40.3015259" lon="16.0345753"><ele>983.5999999999999</ele><time>2026-04-06T13:02:18.862Z</time></trkpt><trkpt lat="40.3015322" lon="16.0347192"><ele>985.8</ele><time>2026-04-06T13:02:19.861Z</time></trkpt><trkpt lat="40.3015161" lon="16.0348707"><ele>988.0</ele><time>2026-04-06T13:02:20.861Z</time></trkpt><trkpt lat="40.3014745" lon="16.0350132"><ele>982.75</ele><time>2026-04-06T13:02:21.861Z</time></trkpt><trkpt lat="40.3014145" lon="16.0351464"><ele>977.5</ele><time>2026-04-06T13:02:22.861Z</time></trkpt><trkpt lat="40.3013513" lon="16.0352657"><ele>972.25</ele><time>2026-04-06T13:02:23.861Z</time></trkpt><trkpt lat="40.3013057" lon="16.035393"><ele>967.0</ele><time>2026-04-06T13:02:24.861Z</time></trkpt><trkpt lat="40.3012875" lon="16.0355424"><ele>967.0</ele><time>2026-04-06T13:02:25.861Z</time></trkpt><trkpt lat="40.3012811" lon="16.0356996"><ele>967.0</ele><time>2026-04-06T13:02:26.862Z</time></trkpt><trkpt lat="40.3012771" lon="16.035862"><ele>967.0</ele><time>2026-04-06T13:02:27.861Z</time></trkpt><trkpt lat="40.301271" lon="16.0360183"><ele>967.0</ele><time>2026-04-06T13:02:28.861Z</time></trkpt><trkpt lat="40.3012641" lon="16.0361811"><ele>966.75</ele><time>2026-04-06T13:02:29.862Z</time></trkpt><trkpt lat="40.3012427" lon="16.03634"><ele>966.5</ele><time>2026-04-06T13:02:30.861Z</time></trkpt><trkpt lat="40.3012042" lon="16.0364986"><ele>966.25</ele><time>2026-04-06T13:02:31.861Z</time></trkpt><trkpt lat="40.3011544" lon="16.0366526"><ele>966.0</ele><time>2026-04-06T13:02:32.861Z</time></trkpt><trkpt lat="40.3011017" lon="16.0368029"><ele>966.5</ele><time>2026-04-06T13:02:33.862Z</time></trkpt><trkpt lat="40.3010505" lon="16.036947"><ele>967.0</ele><time>2026-04-06T13:02:34.861Z</time></trkpt><trkpt lat="40.3009996" lon="16.037084"><ele>967.5</ele><time>2026-04-06T13:02:35.861Z</time></trkpt><trkpt lat="40.3009368" lon="16.0372047"><ele>968.0</ele><time>2026-04-06T13:02:36.862Z</time></trkpt><trkpt lat="40.3008707" lon="16.0373163"><ele>968.0</ele><time>2026-04-06T13:02:37.861Z</time></trkpt><trkpt lat="40.300818" lon="16.0374393"><ele>968.0</ele><time>2026-04-06T13:02:38.861Z</time></trkpt><trkpt lat="40.3007831" lon="16.0375718"><ele>968.0</ele><time>2026-04-06T13:02:39.861Z</time></trkpt><trkpt lat="40.3007701" lon="16.0377181"><ele>968.0</ele><time>2026-04-06T13:02:40.861Z</time></trkpt><trkpt lat="40.3007631" lon="16.0378702"><ele>968.0</ele><time>2026-04-06T13:02:41.861Z</time></trkpt><trkpt lat="40.3007311" lon="16.0379977"><ele>968.4</ele><time>2026-04-06T13:02:42.861Z</time></trkpt><trkpt lat="40.3006685" lon="16.0381028"><ele>968.8</ele><time>2026-04-06T13:02:43.861Z</time></trkpt><trkpt lat="40.3005853" lon="16.0381953"><ele>969.2</ele><time>2026-04-06T13:02:44.862Z</time></trkpt><trkpt lat="40.3004946" lon="16.0382847"><ele>969.6</ele><time>2026-04-06T13:02:45.861Z</time></trkpt><trkpt lat="40.300403" lon="16.0383739"><ele>970.0</ele><time>2026-04-06T13:02:46.861Z</time></trkpt><trkpt lat="40.3003192" lon="16.0384631"><ele>966.4</ele><time>2026-04-06T13:02:47.862Z</time></trkpt><trkpt lat="40.3002515" lon="16.0385515"><ele>962.8</ele><time>2026-04-06T13:02:48.861Z</time></trkpt><trkpt lat="40.3002166" lon="16.0386493"><ele>959.2</ele><time>2026-04-06T13:02:49.861Z</time></trkpt><trkpt lat="40.3002097" lon="16.0387615"><ele>955.6</ele><time>2026-04-06T13:02:50.861Z</time></trkpt><trkpt lat="40.3002235" lon="16.038882"><ele>952.0</ele><time>2026-04-06T13:02:51.862Z</time></trkpt><trkpt lat="40.3002663" lon="16.0390134"><ele>951.0</ele><time>2026-04-06T13:02:52.86Z</time></trkpt><trkpt lat="40.3003102" lon="16.0391499"><ele>950.0</ele><time>2026-04-06T13:02:53.86Z</time></trkpt><trkpt lat="40.3003463" lon="16.0392901"><ele>949.0</ele><time>2026-04-06T13:02:54.861Z</time></trkpt><trkpt lat="40.3003713" lon="16.0394418"><ele>948.0</ele><time>2026-04-06T13:02:55.86Z</time></trkpt><trkpt lat="40.3003673" lon="16.039592"><ele>948.0</ele><time>2026-04-06T13:02:56.86Z</time></trkpt><trkpt lat="40.3003491" lon="16.0397317"><ele>948.0</ele><time>2026-04-06T13:02:57.86Z</time></trkpt><trkpt lat="40.3003393" lon="16.0398654"><ele>948.0</ele><time>2026-04-06T13:02:58.861Z</time></trkpt><trkpt lat="40.3003577" lon="16.039992"><ele>948.0</ele><time>2026-04-06T13:02:59.86Z</time></trkpt><trkpt lat="40.3004151" lon="16.0401052"><ele>948.0</ele><time>2026-04-06T13:03:00.86Z</time></trkpt><trkpt lat="40.3004914" lon="16.0401948"><ele>951.0</ele><time>2026-04-06T13:03:01.86Z</time></trkpt><trkpt lat="40.3005848" lon="16.0402753"><ele>954.0</ele><time>2026-04-06T13:03:02.861Z</time></trkpt><trkpt lat="40.3006868" lon="16.0403528"><ele>957.0</ele><time>2026-04-06T13:03:03.86Z</time></trkpt><trkpt lat="40.3007956" lon="16.0404377"><ele>960.0</ele><time>2026-04-06T13:03:04.861Z</time></trkpt><trkpt lat="40.3009106" lon="16.0405346"><ele>960.0</ele><time>2026-04-06T13:03:05.86Z</time></trkpt><trkpt lat="40.3010278" lon="16.0406358"><ele>960.0</ele><time>2026-04-06T13:03:06.86Z</time></trkpt><trkpt lat="40.3011425" lon="16.0407342"><ele>960.0</ele><time>2026-04-06T13:03:07.86Z</time></trkpt><trkpt lat="40.3012527" lon="16.0408224"><ele>960.0</ele><time>2026-04-06T13:03:08.86Z</time></trkpt><trkpt lat="40.3013614" lon="16.0408936"><ele>958.8</ele><time>2026-04-06T13:03:09.86Z</time></trkpt><trkpt lat="40.3014696" lon="16.0409474"><ele>957.6</ele><time>2026-04-06T13:03:10.861Z</time></trkpt><trkpt lat="40.3015771" lon="16.0409981"><ele>956.4000000000001</ele><time>2026-04-06T13:03:11.86Z</time></trkpt><trkpt lat="40.3016818" lon="16.0410428"><ele>955.2</ele><time>2026-04-06T13:03:12.86Z</time></trkpt><trkpt lat="40.3017777" lon="16.0410826"><ele>954.0</ele><time>2026-04-06T13:03:13.86Z</time></trkpt><trkpt lat="40.3018543" lon="16.0411241"><ele>954.0</ele><time>2026-04-06T13:03:14.86Z</time></trkpt><trkpt lat="40.3019133" lon="16.041166"><ele>953.9999999999999</ele><time>2026-04-06T13:03:15.861Z</time></trkpt><trkpt lat="40.3019565" lon="16.0412313"><ele>954.0</ele><time>2026-04-06T13:03:16.86Z</time></trkpt><trkpt lat="40.3019818" lon="16.0413137"><ele>954.0</ele><time>2026-04-06T13:03:17.86Z</time></trkpt><trkpt lat="40.301983" lon="16.0414095"><ele>953.9999999999999</ele><time>2026-04-06T13:03:18.86Z</time></trkpt><trkpt lat="40.3019646" lon="16.0415146"><ele>954.0</ele><time>2026-04-06T13:03:19.861Z</time></trkpt><trkpt lat="40.3019282" lon="16.041623"><ele>954.0</ele><time>2026-04-06T13:03:20.86Z</time></trkpt><trkpt lat="40.3018839" lon="16.0417378"><ele>951.0</ele><time>2026-04-06T13:03:21.86Z</time></trkpt><trkpt lat="40.3018434" lon="16.0418534"><ele>948.0000000000001</ele><time>2026-04-06T13:03:22.86Z</time></trkpt><trkpt lat="40.3018084" lon="16.0419726"><ele>945.0000000000001</ele><time>2026-04-06T13:03:23.86Z</time></trkpt><trkpt lat="40.3017816" lon="16.042096"><ele>942.0</ele><time>2026-04-06T13:03:24.861Z</time></trkpt><trkpt lat="40.3017571" lon="16.0422173"><ele>939.0</ele><time>2026-04-06T13:03:25.86Z</time></trkpt><trkpt lat="40.3017297" lon="16.042336"><ele>939.0</ele><time>2026-04-06T13:03:26.86Z</time></trkpt><trkpt lat="40.301702" lon="16.0424576"><ele>939.0000000000001</ele><time>2026-04-06T13:03:27.861Z</time></trkpt><trkpt lat="40.3016584" lon="16.0425648"><ele>939.0000000000001</ele><time>2026-04-06T13:03:28.861Z</time></trkpt><trkpt lat="40.3015997" lon="16.0426609"><ele>939.0</ele><time>2026-04-06T13:03:29.86Z</time></trkpt><trkpt lat="40.3015258" lon="16.0427407"><ele>939.0</ele><time>2026-04-06T13:03:30.86Z</time></trkpt><trkpt lat="40.3014409" lon="16.0428056"><ele>935.4000000000001</ele><time>2026-04-06T13:03:31.86Z</time></trkpt><trkpt lat="40.3013583" lon="16.0428711"><ele>931.8000000000001</ele><time>2026-04-06T13:03:32.861Z</time></trkpt><trkpt lat="40.301288" lon="16.0429576"><ele>928.1999999999999</ele><time>2026-04-06T13:03:33.86Z</time></trkpt><trkpt lat="40.3012264" lon="16.0430672"><ele>924.5999999999999</ele><time>2026-04-06T13:03:34.86Z</time></trkpt><trkpt lat="40.3011877" lon="16.0431909"><ele>921.0</ele><time>2026-04-06T13:03:35.86Z</time></trkpt><trkpt lat="40.3011642" lon="16.043325"><ele>921.0</ele><time>2026-04-06T13:03:36.86Z</time></trkpt><trkpt lat="40.3011566" lon="16.0434616"><ele>920.9999999999999</ele><time>2026-04-06T13:03:37.86Z</time></trkpt><trkpt lat="40.3011602" lon="16.043597"><ele>920.9999999999999</ele><time>2026-04-06T13:03:38.86Z</time></trkpt><trkpt lat="40.3011651" lon="16.0437427"><ele>921.0</ele><time>2026-04-06T13:03:39.86Z</time></trkpt><trkpt lat="40.3011756" lon="16.0438862"><ele>921.0</ele><time>2026-04-06T13:03:40.86Z</time></trkpt><trkpt lat="40.3011911" lon="16.044033"><ele>920.0</ele><time>2026-04-06T13:03:41.86Z</time></trkpt><trkpt lat="40.3012047" lon="16.0441832"><ele>919.0</ele><time>2026-04-06T13:03:42.86Z</time></trkpt><trkpt lat="40.3012222" lon="16.0443315"><ele>918.0</ele><time>2026-04-06T13:03:43.86Z</time></trkpt><trkpt lat="40.3012434" lon="16.0444801"><ele>917.0</ele><time>2026-04-06T13:03:44.86Z</time></trkpt><trkpt lat="40.3012617" lon="16.0446301"><ele>917.0</ele><time>2026-04-06T13:03:45.861Z</time></trkpt><trkpt lat="40.3012781" lon="16.0447853"><ele>917.0</ele><time>2026-04-06T13:03:46.86Z</time></trkpt><trkpt lat="40.3012932" lon="16.0449409"><ele>917.0</ele><time>2026-04-06T13:03:47.86Z</time></trkpt><trkpt lat="40.3013028" lon="16.0451001"><ele>917.0</ele><time>2026-04-06T13:03:48.861Z</time></trkpt><trkpt lat="40.3013005" lon="16.0452543"><ele>916.5</ele><time>2026-04-06T13:03:49.86Z</time></trkpt><trkpt lat="40.301285" lon="16.0454128"><ele>916.0</ele><time>2026-04-06T13:03:50.86Z</time></trkpt><trkpt lat="40.3012682" lon="16.04558"><ele>915.5</ele><time>2026-04-06T13:03:51.86Z</time></trkpt><trkpt lat="40.3012439" lon="16.0457389"><ele>915.0</ele><time>2026-04-06T13:03:52.861Z</time></trkpt><trkpt lat="40.3012186" lon="16.0459013"><ele>914.5</ele><time>2026-04-06T13:03:53.86Z</time></trkpt><trkpt lat="40.3011928" lon="16.0460657"><ele>914.0</ele><time>2026-04-06T13:03:54.86Z</time></trkpt><trkpt lat="40.3011741" lon="16.046221"><ele>913.5</ele><time>2026-04-06T13:03:55.86Z</time></trkpt><trkpt lat="40.3011734" lon="16.0463787"><ele>913.0</ele><time>2026-04-06T13:03:56.86Z</time></trkpt><trkpt lat="40.3011918" lon="16.0465416"><ele>912.0</ele><time>2026-04-06T13:03:57.861Z</time></trkpt><trkpt lat="40.3012228" lon="16.0467023"><ele>911.0</ele><time>2026-04-06T13:03:58.86Z</time></trkpt><trkpt lat="40.3012587" lon="16.0468575"><ele>910.0</ele><time>2026-04-06T13:03:59.86Z</time></trkpt><trkpt lat="40.3012942" lon="16.0470185"><ele>909.0</ele><time>2026-04-06T13:04:00.86Z</time></trkpt><trkpt lat="40.3013236" lon="16.0471831"><ele>909.0</ele><time>2026-04-06T13:04:01.861Z</time></trkpt><trkpt lat="40.3013544" lon="16.0473395"><ele>909.0</ele><time>2026-04-06T13:04:02.861Z</time></trkpt><trkpt lat="40.3014009" lon="16.0474881"><ele>909.0</ele><time>2026-04-06T13:04:03.861Z</time></trkpt><trkpt lat="40.3014646" lon="16.0476156"><ele>909.0</ele><time>2026-04-06T13:04:04.86Z</time></trkpt><trkpt lat="40.3015409" lon="16.0477267"><ele>910.25</ele><time>2026-04-06T13:04:05.86Z</time></trkpt><trkpt lat="40.3016284" lon="16.0478304"><ele>911.5</ele><time>2026-04-06T13:04:06.861Z</time></trkpt><trkpt lat="40.3017332" lon="16.047926"><ele>912.75</ele><time>2026-04-06T13:04:07.861Z</time></trkpt><trkpt lat="40.301842" lon="16.0479978"><ele>914.0</ele><time>2026-04-06T13:04:08.86Z</time></trkpt><trkpt lat="40.301951" lon="16.0480544"><ele>914.0</ele><time>2026-04-06T13:04:09.86Z</time></trkpt><trkpt lat="40.3020585" lon="16.048104"><ele>914.0</ele><time>2026-04-06T13:04:10.86Z</time></trkpt><trkpt lat="40.3021608" lon="16.0481845"><ele>914.0</ele><time>2026-04-06T13:04:11.86Z</time></trkpt><trkpt lat="40.3022314" lon="16.0482989"><ele>914.0</ele><time>2026-04-06T13:04:12.86Z</time></trkpt><trkpt lat="40.3022803" lon="16.048433"><ele>912.4000000000001</ele><time>2026-04-06T13:04:13.86Z</time></trkpt><trkpt lat="40.3023313" lon="16.0485537"><ele>910.8000000000001</ele><time>2026-04-06T13:04:14.86Z</time></trkpt><trkpt lat="40.3024048" lon="16.0486398"><ele>909.1999999999999</ele><time>2026-04-06T13:04:15.86Z</time></trkpt><trkpt lat="40.3025026" lon="16.0486805"><ele>907.5999999999999</ele><time>2026-04-06T13:04:16.86Z</time></trkpt><trkpt lat="40.3026234" lon="16.0486821"><ele>906.0</ele><time>2026-04-06T13:04:17.86Z</time></trkpt><trkpt lat="40.3027402" lon="16.0486396"><ele>906.0</ele><time>2026-04-06T13:04:18.86Z</time></trkpt><trkpt lat="40.3028484" lon="16.0485638"><ele>906.0</ele><time>2026-04-06T13:04:19.86Z</time></trkpt><trkpt lat="40.3029595" lon="16.0484829"><ele>906.0</ele><time>2026-04-06T13:04:20.86Z</time></trkpt><trkpt lat="40.3030798" lon="16.0484005"><ele>906.0</ele><time>2026-04-06T13:04:21.86Z</time></trkpt><trkpt lat="40.3032001" lon="16.0483224"><ele>908.5</ele><time>2026-04-06T13:04:22.86Z</time></trkpt><trkpt lat="40.3033176" lon="16.0482466"><ele>911.0</ele><time>2026-04-06T13:04:23.86Z</time></trkpt><trkpt lat="40.3034271" lon="16.0481913"><ele>913.5</ele><time>2026-04-06T13:04:24.86Z</time></trkpt><trkpt lat="40.3035434" lon="16.0481612"><ele>916.0</ele><time>2026-04-06T13:04:25.86Z</time></trkpt><trkpt lat="40.3036683" lon="16.0481686"><ele>916.0</ele><time>2026-04-06T13:04:26.861Z</time></trkpt><trkpt lat="40.3037891" lon="16.0481912"><ele>916.0</ele><time>2026-04-06T13:04:27.86Z</time></trkpt><trkpt lat="40.303912" lon="16.0482165"><ele>916.0</ele><time>2026-04-06T13:04:28.861Z</time></trkpt><trkpt lat="40.3040347" lon="16.0482399"><ele>916.0</ele><time>2026-04-06T13:04:29.86Z</time></trkpt><trkpt lat="40.3041496" lon="16.0482847"><ele>912.5999999999999</ele><time>2026-04-06T13:04:30.86Z</time></trkpt><trkpt lat="40.3042565" lon="16.0483551"><ele>909.1999999999999</ele><time>2026-04-06T13:04:31.86Z</time></trkpt><trkpt lat="40.3043436" lon="16.0484514"><ele>905.8000000000001</ele><time>2026-04-06T13:04:32.86Z</time></trkpt><trkpt lat="40.3043964" lon="16.0485624"><ele>902.4000000000001</ele><time>2026-04-06T13:04:33.86Z</time></trkpt><trkpt lat="40.3044192" lon="16.0486884"><ele>899.0</ele><time>2026-04-06T13:04:34.86Z</time></trkpt><trkpt lat="40.3044293" lon="16.0488266"><ele>899.0</ele><time>2026-04-06T13:04:35.86Z</time></trkpt><trkpt lat="40.3044529" lon="16.0489657"><ele>899.0</ele><time>2026-04-06T13:04:36.86Z</time></trkpt><trkpt lat="40.3045101" lon="16.0490946"><ele>899.0</ele><time>2026-04-06T13:04:37.86Z</time></trkpt><trkpt lat="40.3045913" lon="16.0492197"><ele>899.0</ele><time>2026-04-06T13:04:38.861Z</time></trkpt><trkpt lat="40.3046842" lon="16.0493415"><ele>899.5</ele><time>2026-04-06T13:04:39.86Z</time></trkpt><trkpt lat="40.3047844" lon="16.0494613"><ele>900.0</ele><time>2026-04-06T13:04:40.86Z</time></trkpt><trkpt lat="40.304877" lon="16.0495835"><ele>900.5</ele><time>2026-04-06T13:04:41.86Z</time></trkpt><trkpt lat="40.3049557" lon="16.0497113"><ele>901.0</ele><time>2026-04-06T13:04:42.86Z</time></trkpt><trkpt lat="40.3050134" lon="16.0498496"><ele>898.0</ele><time>2026-04-06T13:04:43.86Z</time></trkpt><trkpt lat="40.3050517" lon="16.0500131"><ele>895.0</ele><time>2026-04-06T13:04:44.86Z</time></trkpt><trkpt lat="40.3050842" lon="16.0501828"><ele>892.0</ele><time>2026-04-06T13:04:45.86Z</time></trkpt><trkpt lat="40.3051136" lon="16.0503503"><ele>889.0</ele><time>2026-04-06T13:04:46.86Z</time></trkpt><trkpt lat="40.3051578" lon="16.0505156"><ele>889.0</ele><time>2026-04-06T13:04:47.86Z</time></trkpt><trkpt lat="40.3052068" lon="16.0506852"><ele>889.0</ele><time>2026-04-06T13:04:48.86Z</time></trkpt><trkpt lat="40.3052617" lon="16.0508592"><ele>889.0</ele><time>2026-04-06T13:04:49.86Z</time></trkpt><trkpt lat="40.3053214" lon="16.0510277"><ele>889.0</ele><time>2026-04-06T13:04:50.86Z</time></trkpt><trkpt lat="40.3053866" lon="16.0511953"><ele>887.25</ele><time>2026-04-06T13:04:51.861Z</time></trkpt><trkpt lat="40.3054661" lon="16.0513507"><ele>885.5</ele><time>2026-04-06T13:04:52.86Z</time></trkpt><trkpt lat="40.3055598" lon="16.0514928"><ele>883.75</ele><time>2026-04-06T13:04:53.86Z</time></trkpt><trkpt lat="40.3056566" lon="16.0516239"><ele>882.0</ele><time>2026-04-06T13:04:54.861Z</time></trkpt><trkpt lat="40.3057625" lon="16.0517516"><ele>882.0</ele><time>2026-04-06T13:04:55.86Z</time></trkpt><trkpt lat="40.3058733" lon="16.0518683"><ele>882.0</ele><time>2026-04-06T13:04:56.86Z</time></trkpt><trkpt lat="40.3059887" lon="16.0519693"><ele>882.0</ele><time>2026-04-06T13:04:57.86Z</time></trkpt><trkpt lat="40.306107" lon="16.0520585"><ele>882.0</ele><time>2026-04-06T13:04:58.86Z</time></trkpt><trkpt lat="40.3062213" lon="16.0521512"><ele>882.0</ele><time>2026-04-06T13:04:59.86Z</time></trkpt><trkpt lat="40.3063252" lon="16.052257"><ele>882.0</ele><time>2026-04-06T13:05:00.86Z</time></trkpt><trkpt lat="40.3063979" lon="16.0523795"><ele>882.0</ele><time>2026-04-06T13:05:01.86Z</time></trkpt><trkpt lat="40.3064279" lon="16.0525307"><ele>882.0</ele><time>2026-04-06T13:05:02.861Z</time></trkpt><trkpt lat="40.3064267" lon="16.0526978"><ele>882.25</ele><time>2026-04-06T13:05:03.86Z</time></trkpt><trkpt lat="40.3064128" lon="16.0528732"><ele>882.5</ele><time>2026-04-06T13:05:04.861Z</time></trkpt><trkpt lat="40.3064121" lon="16.0530501"><ele>882.75</ele><time>2026-04-06T13:05:05.86Z</time></trkpt><trkpt lat="40.3064345" lon="16.0532121"><ele>883.0</ele><time>2026-04-06T13:05:06.861Z</time></trkpt><trkpt lat="40.3064921" lon="16.0533532"><ele>881.0</ele><time>2026-04-06T13:05:07.86Z</time></trkpt><trkpt lat="40.306578" lon="16.0534755"><ele>879.0</ele><time>2026-04-06T13:05:08.86Z</time></trkpt><trkpt lat="40.3066776" lon="16.0535855"><ele>877.0</ele><time>2026-04-06T13:05:09.861Z</time></trkpt><trkpt lat="40.3067914" lon="16.053689"><ele>875.0</ele><time>2026-04-06T13:05:10.86Z</time></trkpt><trkpt lat="40.3069147" lon="16.0537927"><ele>875.0</ele><time>2026-04-06T13:05:11.86Z</time></trkpt><trkpt lat="40.3070411" lon="16.0538865"><ele>875.0</ele><time>2026-04-06T13:05:12.86Z</time></trkpt><trkpt lat="40.3071651" lon="16.0539573"><ele>875.0</ele><time>2026-04-06T13:05:13.86Z</time></trkpt><trkpt lat="40.3072866" lon="16.0540121"><ele>875.0</ele><time>2026-04-06T13:05:14.86Z</time></trkpt><trkpt lat="40.307408" lon="16.0540553"><ele>876.75</ele><time>2026-04-06T13:05:15.86Z</time></trkpt><trkpt lat="40.30753" lon="16.0541018"><ele>878.5</ele><time>2026-04-06T13:05:16.861Z</time></trkpt><trkpt lat="40.3076422" lon="16.054154"><ele>880.25</ele><time>2026-04-06T13:05:17.86Z</time></trkpt><trkpt lat="40.3077467" lon="16.0542325"><ele>882.0</ele><time>2026-04-06T13:05:18.861Z</time></trkpt><trkpt lat="40.3078477" lon="16.0543377"><ele>879.75</ele><time>2026-04-06T13:05:19.86Z</time></trkpt><trkpt lat="40.3079422" lon="16.0544545"><ele>877.5</ele><time>2026-04-06T13:05:20.86Z</time></trkpt><trkpt lat="40.308038" lon="16.0545776"><ele>875.25</ele><time>2026-04-06T13:05:21.86Z</time></trkpt><trkpt lat="40.3081378" lon="16.0547037"><ele>873.0</ele><time>2026-04-06T13:05:22.861Z</time></trkpt><trkpt lat="40.3082381" lon="16.0548335"><ele>869.5</ele><time>2026-04-06T13:05:23.86Z</time></trkpt><trkpt lat="40.3083427" lon="16.0549635"><ele>866.0</ele><time>2026-04-06T13:05:24.86Z</time></trkpt><trkpt lat="40.3084456" lon="16.055092"><ele>862.5</ele><time>2026-04-06T13:05:25.86Z</time></trkpt><trkpt lat="40.30855" lon="16.0552113"><ele>859.0</ele><time>2026-04-06T13:05:26.86Z</time></trkpt><trkpt lat="40.308647" lon="16.0553228"><ele>859.0</ele><time>2026-04-06T13:05:27.86Z</time></trkpt><trkpt lat="40.3087353" lon="16.0554448"><ele>859.0</ele><time>2026-04-06T13:05:28.86Z</time></trkpt><trkpt lat="40.308829" lon="16.055553"><ele>859.0</ele><time>2026-04-06T13:05:29.861Z</time></trkpt><trkpt lat="40.3089293" lon="16.055635"><ele>859.0</ele><time>2026-04-06T13:05:30.86Z</time></trkpt><trkpt lat="40.3090397" lon="16.055665"><ele>859.5</ele><time>2026-04-06T13:05:31.86Z</time></trkpt><trkpt lat="40.3091644" lon="16.0556398"><ele>860.0</ele><time>2026-04-06T13:05:32.86Z</time></trkpt><trkpt lat="40.3092778" lon="16.0555841"><ele>860.5</ele><time>2026-04-06T13:05:33.861Z</time></trkpt><trkpt lat="40.3093942" lon="16.0555271"><ele>861.0</ele><time>2026-04-06T13:05:34.86Z</time></trkpt><trkpt lat="40.3095142" lon="16.0554866"><ele>861.0</ele><time>2026-04-06T13:05:35.861Z</time></trkpt><trkpt lat="40.3096389" lon="16.0554675"><ele>861.0</ele><time>2026-04-06T13:05:36.86Z</time></trkpt><trkpt lat="40.309767" lon="16.0554786"><ele>861.0</ele><time>2026-04-06T13:05:37.861Z</time></trkpt><trkpt lat="40.3098839" lon="16.0555248"><ele>861.0</ele><time>2026-04-06T13:05:38.861Z</time></trkpt><trkpt lat="40.3099963" lon="16.0556035"><ele>860.5</ele><time>2026-04-06T13:05:39.86Z</time></trkpt><trkpt lat="40.3101059" lon="16.0556746"><ele>860.0</ele><time>2026-04-06T13:05:40.86Z</time></trkpt><trkpt lat="40.3102163" lon="16.0557245"><ele>859.5</ele><time>2026-04-06T13:05:41.86Z</time></trkpt><trkpt lat="40.3103289" lon="16.0557537"><ele>859.0</ele><time>2026-04-06T13:05:42.86Z</time></trkpt><trkpt lat="40.3104386" lon="16.05577"><ele>859.0</ele><time>2026-04-06T13:05:43.86Z</time></trkpt><trkpt lat="40.3105453" lon="16.0557752"><ele>859.0000000000001</ele><time>2026-04-06T13:05:44.86Z</time></trkpt><trkpt lat="40.3106517" lon="16.0557714"><ele>859.0000000000001</ele><time>2026-04-06T13:05:45.86Z</time></trkpt><trkpt lat="40.310757" lon="16.0557544"><ele>859.0</ele><time>2026-04-06T13:05:46.861Z</time></trkpt><trkpt lat="40.3108641" lon="16.0557231"><ele>859.0</ele><time>2026-04-06T13:05:47.861Z</time></trkpt><trkpt lat="40.3109703" lon="16.0556777"><ele>857.8000000000001</ele><time>2026-04-06T13:05:48.861Z</time></trkpt><trkpt lat="40.3110711" lon="16.0556128"><ele>856.6000000000001</ele><time>2026-04-06T13:05:49.86Z</time></trkpt><trkpt lat="40.3111617" lon="16.0555314"><ele>855.4</ele><time>2026-04-06T13:05:50.86Z</time></trkpt><trkpt lat="40.3112527" lon="16.0554491"><ele>854.2</ele><time>2026-04-06T13:05:51.86Z</time></trkpt><trkpt lat="40.3113513" lon="16.0553834"><ele>853.0</ele><time>2026-04-06T13:05:52.86Z</time></trkpt><trkpt lat="40.3114589" lon="16.0553471"><ele>850.75</ele><time>2026-04-06T13:05:53.86Z</time></trkpt><trkpt lat="40.3115723" lon="16.0553332"><ele>848.5</ele><time>2026-04-06T13:05:54.86Z</time></trkpt><trkpt lat="40.3116866" lon="16.0553311"><ele>846.25</ele><time>2026-04-06T13:05:55.86Z</time></trkpt><trkpt lat="40.3118069" lon="16.0553443"><ele>844.0</ele><time>2026-04-06T13:05:56.861Z</time></trkpt><trkpt lat="40.3119287" lon="16.0553715"><ele>844.0</ele><time>2026-04-06T13:05:57.86Z</time></trkpt><trkpt lat="40.3120439" lon="16.0554215"><ele>844.0</ele><time>2026-04-06T13:05:58.86Z</time></trkpt><trkpt lat="40.312157" lon="16.0554855"><ele>844.0</ele><time>2026-04-06T13:05:59.86Z</time></trkpt><trkpt lat="40.312262" lon="16.0555507"><ele>844.0</ele><time>2026-04-06T13:06:00.86Z</time></trkpt><trkpt lat="40.3123625" lon="16.0556075"><ele>842.0</ele><time>2026-04-06T13:06:01.86Z</time></trkpt><trkpt lat="40.3124673" lon="16.0556344"><ele>840.0</ele><time>2026-04-06T13:06:02.861Z</time></trkpt><trkpt lat="40.3125761" lon="16.0556064"><ele>838.0</ele><time>2026-04-06T13:06:03.86Z</time></trkpt><trkpt lat="40.312686" lon="16.0555447"><ele>836.0</ele><time>2026-04-06T13:06:04.86Z</time></trkpt><trkpt lat="40.3127946" lon="16.0554688"><ele>836.0</ele><time>2026-04-06T13:06:05.86Z</time></trkpt><trkpt lat="40.3129025" lon="16.0553796"><ele>836.0</ele><time>2026-04-06T13:06:06.86Z</time></trkpt><trkpt lat="40.3130026" lon="16.0552753"><ele>836.0</ele><time>2026-04-06T13:06:07.86Z</time></trkpt><trkpt lat="40.3130854" lon="16.0551554"><ele>836.0</ele><time>2026-04-06T13:06:08.86Z</time></trkpt><trkpt lat="40.3131481" lon="16.0550246"><ele>834.4</ele><time>2026-04-06T13:06:09.861Z</time></trkpt><trkpt lat="40.3131962" lon="16.0548964"><ele>832.8</ele><time>2026-04-06T13:06:10.86Z</time></trkpt><trkpt lat="40.313245" lon="16.054784"><ele>831.1999999999999</ele><time>2026-04-06T13:06:11.861Z</time></trkpt><trkpt lat="40.3132981" lon="16.0547087"><ele>829.5999999999999</ele><time>2026-04-06T13:06:12.86Z</time></trkpt><trkpt lat="40.3133583" lon="16.0546713"><ele>828.0</ele><time>2026-04-06T13:06:13.86Z</time></trkpt><trkpt lat="40.3134701" lon="16.0546926"><ele>828.0</ele><time>2026-04-06T13:06:15.86Z</time></trkpt><trkpt lat="40.3134841" lon="16.0548148"><ele>828.0</ele><time>2026-04-06T13:06:16.861Z</time></trkpt><trkpt lat="40.313485" lon="16.0549531"><ele>828.0</ele><time>2026-04-06T13:06:17.86Z</time></trkpt><trkpt lat="40.313466" lon="16.0551078"><ele>828.0</ele><time>2026-04-06T13:06:18.86Z</time></trkpt><trkpt lat="40.3134411" lon="16.0552714"><ele>828.0</ele><time>2026-04-06T13:06:19.86Z</time></trkpt><trkpt lat="40.3134225" lon="16.0554379"><ele>827.25</ele><time>2026-04-06T13:06:20.86Z</time></trkpt><trkpt lat="40.3134036" lon="16.055604"><ele>826.5</ele><time>2026-04-06T13:06:21.86Z</time></trkpt><trkpt lat="40.3133847" lon="16.0557578"><ele>825.75</ele><time>2026-04-06T13:06:22.861Z</time></trkpt><trkpt lat="40.3133509" lon="16.055884"><ele>825.0</ele><time>2026-04-06T13:06:23.86Z</time></trkpt><trkpt lat="40.3132903" lon="16.055995"><ele>825.75</ele><time>2026-04-06T13:06:24.86Z</time></trkpt><trkpt lat="40.3132039" lon="16.0560901"><ele>826.5</ele><time>2026-04-06T13:06:25.86Z</time></trkpt><trkpt lat="40.3131057" lon="16.0561771"><ele>827.25</ele><time>2026-04-06T13:06:26.86Z</time></trkpt><trkpt lat="40.3129983" lon="16.0562557"><ele>828.0</ele><time>2026-04-06T13:06:27.86Z</time></trkpt><trkpt lat="40.312883" lon="16.0563183"><ele>828.0</ele><time>2026-04-06T13:06:28.861Z</time></trkpt><trkpt lat="40.3127605" lon="16.0563615"><ele>828.0</ele><time>2026-04-06T13:06:29.861Z</time></trkpt><trkpt lat="40.3126278" lon="16.0563863"><ele>828.0</ele><time>2026-04-06T13:06:30.86Z</time></trkpt><trkpt lat="40.3124929" lon="16.0564067"><ele>828.0</ele><time>2026-04-06T13:06:31.86Z</time></trkpt><trkpt lat="40.3123532" lon="16.0564395"><ele>828.0</ele><time>2026-04-06T13:06:32.86Z</time></trkpt><trkpt lat="40.3122173" lon="16.0564855"><ele>828.0</ele><time>2026-04-06T13:06:33.861Z</time></trkpt><trkpt lat="40.3120958" lon="16.0565469"><ele>828.0</ele><time>2026-04-06T13:06:34.861Z</time></trkpt><trkpt lat="40.311993" lon="16.0566176"><ele>828.0</ele><time>2026-04-06T13:06:35.86Z</time></trkpt><trkpt lat="40.3119083" lon="16.0566975"><ele>825.2</ele><time>2026-04-06T13:06:36.86Z</time></trkpt><trkpt lat="40.3118358" lon="16.0567875"><ele>822.4</ele><time>2026-04-06T13:06:37.861Z</time></trkpt><trkpt lat="40.3117776" lon="16.0568949"><ele>819.6</ele><time>2026-04-06T13:06:38.86Z</time></trkpt><trkpt lat="40.3117371" lon="16.0570249"><ele>816.8000000000001</ele><time>2026-04-06T13:06:39.861Z</time></trkpt><trkpt lat="40.3117082" lon="16.0571665"><ele>814.0</ele><time>2026-04-06T13:06:40.86Z</time></trkpt><trkpt lat="40.3116788" lon="16.0573118"><ele>811.25</ele><time>2026-04-06T13:06:41.86Z</time></trkpt><trkpt lat="40.3116392" lon="16.0574563"><ele>808.5</ele><time>2026-04-06T13:06:42.86Z</time></trkpt><trkpt lat="40.3115792" lon="16.0575958"><ele>805.75</ele><time>2026-04-06T13:06:43.861Z</time></trkpt><trkpt lat="40.3115044" lon="16.0577288"><ele>803.0</ele><time>2026-04-06T13:06:44.86Z</time></trkpt><trkpt lat="40.3114249" lon="16.0578614"><ele>802.0</ele><time>2026-04-06T13:06:45.861Z</time></trkpt><trkpt lat="40.3113526" lon="16.0579951"><ele>801.0</ele><time>2026-04-06T13:06:46.86Z</time></trkpt><trkpt lat="40.311273" lon="16.0581225"><ele>800.0</ele><time>2026-04-06T13:06:47.86Z</time></trkpt><trkpt lat="40.311195" lon="16.0582431"><ele>799.0</ele><time>2026-04-06T13:06:48.86Z</time></trkpt><trkpt lat="40.3111136" lon="16.0583572"><ele>799.0</ele><time>2026-04-06T13:06:49.86Z</time></trkpt><trkpt lat="40.3110183" lon="16.0584557"><ele>799.0</ele><time>2026-04-06T13:06:50.86Z</time></trkpt><trkpt lat="40.3109024" lon="16.0585343"><ele>799.0</ele><time>2026-04-06T13:06:51.86Z</time></trkpt><trkpt lat="40.3107842" lon="16.0586055"><ele>799.0</ele><time>2026-04-06T13:06:52.86Z</time></trkpt><trkpt lat="40.3106673" lon="16.058676"><ele>799.2</ele><time>2026-04-06T13:06:53.861Z</time></trkpt><trkpt lat="40.3105589" lon="16.0587459"><ele>799.4000000000001</ele><time>2026-04-06T13:06:54.86Z</time></trkpt><trkpt lat="40.3104601" lon="16.0588169"><ele>799.6</ele><time>2026-04-06T13:06:55.86Z</time></trkpt><trkpt lat="40.3103609" lon="16.0588642"><ele>799.8</ele><time>2026-04-06T13:06:56.859Z</time></trkpt><trkpt lat="40.3102557" lon="16.0588817"><ele>800.0</ele><time>2026-04-06T13:06:57.859Z</time></trkpt><trkpt lat="40.3101392" lon="16.0588729"><ele>800.0</ele><time>2026-04-06T13:06:58.859Z</time></trkpt><trkpt lat="40.3100225" lon="16.0588436"><ele>800.0</ele><time>2026-04-06T13:06:59.859Z</time></trkpt><trkpt lat="40.3099096" lon="16.0588008"><ele>800.0</ele><time>2026-04-06T13:07:00.859Z</time></trkpt><trkpt lat="40.3098019" lon="16.0587563"><ele>800.0</ele><time>2026-04-06T13:07:01.86Z</time></trkpt><trkpt lat="40.3096992" lon="16.0587205"><ele>799.5</ele><time>2026-04-06T13:07:02.859Z</time></trkpt><trkpt lat="40.3095926" lon="16.0587205"><ele>799.0</ele><time>2026-04-06T13:07:03.859Z</time></trkpt><trkpt lat="40.3094841" lon="16.058772"><ele>798.5</ele><time>2026-04-06T13:07:04.859Z</time></trkpt><trkpt lat="40.3093828" lon="16.0588629"><ele>798.0</ele><time>2026-04-06T13:07:05.859Z</time></trkpt><trkpt lat="40.3092795" lon="16.0589638"><ele>798.0</ele><time>2026-04-06T13:07:06.86Z</time></trkpt><trkpt lat="40.3091734" lon="16.0590562"><ele>798.0</ele><time>2026-04-06T13:07:07.859Z</time></trkpt><trkpt lat="40.3090671" lon="16.0591329"><ele>798.0</ele><time>2026-04-06T13:07:08.859Z</time></trkpt><trkpt lat="40.3089609" lon="16.0592006"><ele>798.0</ele><time>2026-04-06T13:07:09.859Z</time></trkpt><trkpt lat="40.3088496" lon="16.0592431"><ele>795.0</ele><time>2026-04-06T13:07:10.859Z</time></trkpt><trkpt lat="40.308741" lon="16.0592788"><ele>792.0</ele><time>2026-04-06T13:07:11.859Z</time></trkpt><trkpt lat="40.3086409" lon="16.0593128"><ele>789.0</ele><time>2026-04-06T13:07:12.859Z</time></trkpt><trkpt lat="40.3085466" lon="16.0593425"><ele>786.0</ele><time>2026-04-06T13:07:13.859Z</time></trkpt><trkpt lat="40.3084581" lon="16.0593686"><ele>783.0</ele><time>2026-04-06T13:07:14.859Z</time></trkpt><trkpt lat="40.3083818" lon="16.0593962"><ele>783.0</ele><time>2026-04-06T13:07:15.86Z</time></trkpt><trkpt lat="40.3083149" lon="16.0594387"><ele>783.0</ele><time>2026-04-06T13:07:16.859Z</time></trkpt><trkpt lat="40.3082999" lon="16.0595866"><ele>783.0</ele><time>2026-04-06T13:07:18.859Z</time></trkpt><trkpt lat="40.3083611" lon="16.0596538"><ele>783.0</ele><time>2026-04-06T13:07:19.859Z</time></trkpt><trkpt lat="40.3084395" lon="16.0596828"><ele>783.0</ele><time>2026-04-06T13:07:20.859Z</time></trkpt><trkpt lat="40.3085336" lon="16.0596779"><ele>783.0</ele><time>2026-04-06T13:07:21.86Z</time></trkpt><trkpt lat="40.308644" lon="16.0596656"><ele>783.0</ele><time>2026-04-06T13:07:22.859Z</time></trkpt><trkpt lat="40.3087583" lon="16.0596643"><ele>783.0</ele><time>2026-04-06T13:07:23.859Z</time></trkpt><trkpt lat="40.3088769" lon="16.059665"><ele>783.0</ele><time>2026-04-06T13:07:24.859Z</time></trkpt><trkpt lat="40.3089921" lon="16.0596559"><ele>783.0</ele><time>2026-04-06T13:07:25.859Z</time></trkpt><trkpt lat="40.3091062" lon="16.059643"><ele>783.2</ele><time>2026-04-06T13:07:26.859Z</time></trkpt><trkpt lat="40.3092143" lon="16.059635"><ele>783.4</ele><time>2026-04-06T13:07:27.859Z</time></trkpt><trkpt lat="40.3093209" lon="16.0596434"><ele>783.6</ele><time>2026-04-06T13:07:28.859Z</time></trkpt><trkpt lat="40.3094197" lon="16.0596713"><ele>783.8000000000001</ele><time>2026-04-06T13:07:29.859Z</time></trkpt><trkpt lat="40.3095056" lon="16.0597167"><ele>784.0</ele><time>2026-04-06T13:07:30.859Z</time></trkpt><trkpt lat="40.3095841" lon="16.0597739"><ele>783.9999999999999</ele><time>2026-04-06T13:07:31.859Z</time></trkpt><trkpt lat="40.3096483" lon="16.0598423"><ele>784.0</ele><time>2026-04-06T13:07:32.86Z</time></trkpt><trkpt lat="40.309703" lon="16.0599177"><ele>784.0</ele><time>2026-04-06T13:07:33.859Z</time></trkpt><trkpt lat="40.309754" lon="16.0600009"><ele>784.0</ele><time>2026-04-06T13:07:34.859Z</time></trkpt><trkpt lat="40.3098061" lon="16.0600843"><ele>783.9999999999999</ele><time>2026-04-06T13:07:35.859Z</time></trkpt><trkpt lat="40.3098601" lon="16.0601644"><ele>784.0</ele><time>2026-04-06T13:07:36.859Z</time></trkpt><trkpt lat="40.3099207" lon="16.0602348"><ele>782.0</ele><time>2026-04-06T13:07:37.859Z</time></trkpt><trkpt lat="40.309994" lon="16.0602875"><ele>780.0</ele><time>2026-04-06T13:07:38.86Z</time></trkpt><trkpt lat="40.3100761" lon="16.0603271"><ele>778.0</ele><time>2026-04-06T13:07:39.859Z</time></trkpt><trkpt lat="40.3101688" lon="16.0603506"><ele>776.0</ele><time>2026-04-06T13:07:40.859Z</time></trkpt><trkpt lat="40.3102676" lon="16.0603561"><ele>774.0</ele><time>2026-04-06T13:07:41.859Z</time></trkpt><trkpt lat="40.310371" lon="16.0603463"><ele>774.0</ele><time>2026-04-06T13:07:42.859Z</time></trkpt><trkpt lat="40.3104737" lon="16.0603187"><ele>774.0</ele><time>2026-04-06T13:07:43.86Z</time></trkpt><trkpt lat="40.3105785" lon="16.0602667"><ele>774.0</ele><time>2026-04-06T13:07:44.859Z</time></trkpt><trkpt lat="40.3106829" lon="16.06021"><ele>774.0</ele><time>2026-04-06T13:07:45.859Z</time></trkpt><trkpt lat="40.3107939" lon="16.0601637"><ele>774.0</ele><time>2026-04-06T13:07:46.859Z</time></trkpt><trkpt lat="40.3109154" lon="16.0601461"><ele>774.0</ele><time>2026-04-06T13:07:47.86Z</time></trkpt><trkpt lat="40.3110383" lon="16.0601509"><ele>774.0</ele><time>2026-04-06T13:07:48.859Z</time></trkpt><trkpt lat="40.3111601" lon="16.0601886"><ele>774.0</ele><time>2026-04-06T13:07:49.859Z</time></trkpt><trkpt lat="40.3112853" lon="16.0602285"><ele>774.0</ele><time>2026-04-06T13:07:50.86Z</time></trkpt><trkpt lat="40.3114122" lon="16.0602698"><ele>773.0</ele><time>2026-04-06T13:07:51.859Z</time></trkpt><trkpt lat="40.3115374" lon="16.0603086"><ele>772.0</ele><time>2026-04-06T13:07:52.859Z</time></trkpt><trkpt lat="40.3116578" lon="16.0603438"><ele>771.0</ele><time>2026-04-06T13:07:53.859Z</time></trkpt><trkpt lat="40.3117773" lon="16.0603775"><ele>770.0</ele><time>2026-04-06T13:07:54.86Z</time></trkpt><trkpt lat="40.3118938" lon="16.0604351"><ele>770.0</ele><time>2026-04-06T13:07:55.859Z</time></trkpt><trkpt lat="40.3120082" lon="16.0605134"><ele>770.0</ele><time>2026-04-06T13:07:56.859Z</time></trkpt><trkpt lat="40.3121229" lon="16.0605859"><ele>770.0</ele><time>2026-04-06T13:07:57.859Z</time></trkpt><trkpt lat="40.3122355" lon="16.0606367"><ele>770.0</ele><time>2026-04-06T13:07:58.86Z</time></trkpt><trkpt lat="40.3123471" lon="16.0606809"><ele>769.8</ele><time>2026-04-06T13:07:59.859Z</time></trkpt><trkpt lat="40.312457" lon="16.0607251"><ele>769.6</ele><time>2026-04-06T13:08:00.86Z</time></trkpt><trkpt lat="40.3125614" lon="16.0607683"><ele>769.4000000000001</ele><time>2026-04-06T13:08:01.859Z</time></trkpt><trkpt lat="40.3126617" lon="16.0607994"><ele>769.2</ele><time>2026-04-06T13:08:02.86Z</time></trkpt><trkpt lat="40.3127571" lon="16.0608109"><ele>769.0</ele><time>2026-04-06T13:08:03.859Z</time></trkpt><trkpt lat="40.3128496" lon="16.0607818"><ele>769.0</ele><time>2026-04-06T13:08:04.859Z</time></trkpt><trkpt lat="40.3129245" lon="16.0607064"><ele>769.0</ele><time>2026-04-06T13:08:05.859Z</time></trkpt><trkpt lat="40.3129767" lon="16.060587"><ele>769.0</ele><time>2026-04-06T13:08:06.859Z</time></trkpt><trkpt lat="40.3130099" lon="16.0604559"><ele>769.0</ele><time>2026-04-06T13:08:07.859Z</time></trkpt><trkpt lat="40.3130354" lon="16.0603186"><ele>769.0</ele><time>2026-04-06T13:08:08.859Z</time></trkpt><trkpt lat="40.3130624" lon="16.0601827"><ele>766.8000000000001</ele><time>2026-04-06T13:08:09.859Z</time></trkpt><trkpt lat="40.3130957" lon="16.0600525"><ele>764.6</ele><time>2026-04-06T13:08:10.859Z</time></trkpt><trkpt lat="40.3131234" lon="16.0599345"><ele>762.4</ele><time>2026-04-06T13:08:11.859Z</time></trkpt><trkpt lat="40.3131366" lon="16.0598037"><ele>760.2</ele><time>2026-04-06T13:08:12.859Z</time></trkpt><trkpt lat="40.3131394" lon="16.0596769"><ele>758.0</ele><time>2026-04-06T13:08:13.859Z</time></trkpt><trkpt lat="40.3131483" lon="16.0595595"><ele>758.0</ele><time>2026-04-06T13:08:14.859Z</time></trkpt><trkpt lat="40.3131761" lon="16.0594492"><ele>758.0</ele><time>2026-04-06T13:08:15.859Z</time></trkpt><trkpt lat="40.3132262" lon="16.0593602"><ele>758.0</ele><time>2026-04-06T13:08:16.859Z</time></trkpt><trkpt lat="40.3133099" lon="16.0593088"><ele>758.0</ele><time>2026-04-06T13:08:17.859Z</time></trkpt><trkpt lat="40.3134035" lon="16.0592722"><ele>758.0</ele><time>2026-04-06T13:08:18.859Z</time></trkpt><trkpt lat="40.3134933" lon="16.0592532"><ele>758.0</ele><time>2026-04-06T13:08:19.859Z</time></trkpt><trkpt lat="40.3135795" lon="16.0592555"><ele>758.0</ele><time>2026-04-06T13:08:20.859Z</time></trkpt><trkpt lat="40.3136582" lon="16.0593087"><ele>758.0</ele><time>2026-04-06T13:08:21.859Z</time></trkpt><trkpt lat="40.313729" lon="16.059405"><ele>758.0</ele><time>2026-04-06T13:08:22.859Z</time></trkpt><trkpt lat="40.3137985" lon="16.0595139"><ele>758.0</ele><time>2026-04-06T13:08:23.859Z</time></trkpt><trkpt lat="40.3138635" lon="16.059624"><ele>757.8333333333333</ele><time>2026-04-06T13:08:24.859Z</time></trkpt><trkpt lat="40.3139254" lon="16.0597272"><ele>757.6666666666666</ele><time>2026-04-06T13:08:25.859Z</time></trkpt><trkpt lat="40.3139857" lon="16.0598235"><ele>757.5</ele><time>2026-04-06T13:08:26.859Z</time></trkpt><trkpt lat="40.3140387" lon="16.0599193"><ele>757.3333333333334</ele><time>2026-04-06T13:08:27.859Z</time></trkpt><trkpt lat="40.3140755" lon="16.0600139"><ele>757.1666666666667</ele><time>2026-04-06T13:08:28.859Z</time></trkpt><trkpt lat="40.3140975" lon="16.0601126"><ele>757.0</ele><time>2026-04-06T13:08:29.859Z</time></trkpt><trkpt lat="40.3141115" lon="16.060207"><ele>755.8</ele><time>2026-04-06T13:08:30.859Z</time></trkpt><trkpt lat="40.3141268" lon="16.0602896"><ele>754.6</ele><time>2026-04-06T13:08:31.86Z</time></trkpt><trkpt lat="40.3141877" lon="16.0604145"><ele>753.4</ele><time>2026-04-06T13:08:33.86Z</time></trkpt><trkpt lat="40.3142861" lon="16.0604929"><ele>752.1999999999999</ele><time>2026-04-06T13:08:35.859Z</time></trkpt><trkpt lat="40.3143877" lon="16.0605786"><ele>751.0</ele><time>2026-04-06T13:08:37.859Z</time></trkpt><trkpt lat="40.3144818" lon="16.0606645"><ele>751.0</ele><time>2026-04-06T13:08:39.859Z</time></trkpt><trkpt lat="40.314573" lon="16.060743"><ele>751.0</ele><time>2026-04-06T13:08:41.859Z</time></trkpt><trkpt lat="40.3146669" lon="16.0607842"><ele>751.0</ele><time>2026-04-06T13:08:43.859Z</time></trkpt><trkpt lat="40.3147681" lon="16.0607949"><ele>751.0</ele><time>2026-04-06T13:08:45.859Z</time></trkpt><trkpt lat="40.3148684" lon="16.0607728"><ele>751.0</ele><time>2026-04-06T13:08:47.859Z</time></trkpt><trkpt lat="40.314977" lon="16.0607312"><ele>751.4</ele><time>2026-04-06T13:08:49.86Z</time></trkpt><trkpt lat="40.3150801" lon="16.0606748"><ele>751.8</ele><time>2026-04-06T13:08:51.859Z</time></trkpt><trkpt lat="40.3151682" lon="16.0605799"><ele>752.1999999999999</ele><time>2026-04-06T13:08:53.86Z</time></trkpt><trkpt lat="40.3152403" lon="16.0604671"><ele>752.5999999999999</ele><time>2026-04-06T13:08:55.859Z</time></trkpt><trkpt lat="40.3152905" lon="16.0603406"><ele>753.0</ele><time>2026-04-06T13:08:57.859Z</time></trkpt><trkpt lat="40.3153444" lon="16.060214"><ele>753.0</ele><time>2026-04-06T13:08:59.86Z</time></trkpt><trkpt lat="40.3153777" lon="16.0600732"><ele>753.0</ele><time>2026-04-06T13:09:01.859Z</time></trkpt><trkpt lat="40.315393" lon="16.0599892"><ele>753.0</ele><time>2026-04-06T13:09:02.859Z</time></trkpt><trkpt lat="40.315406" lon="16.0598977"><ele>753.0</ele><time>2026-04-06T13:09:03.859Z</time></trkpt><trkpt lat="40.3154145" lon="16.0598034"><ele>753.0</ele><time>2026-04-06T13:09:04.86Z</time></trkpt><trkpt lat="40.315421" lon="16.0597063"><ele>753.0</ele><time>2026-04-06T13:09:05.859Z</time></trkpt><trkpt lat="40.3154289" lon="16.059604"><ele>753.1666666666666</ele><time>2026-04-06T13:09:06.86Z</time></trkpt><trkpt lat="40.3154439" lon="16.0595058"><ele>753.3333333333334</ele><time>2026-04-06T13:09:07.859Z</time></trkpt><trkpt lat="40.3154676" lon="16.0594132"><ele>753.5</ele><time>2026-04-06T13:09:08.859Z</time></trkpt><trkpt lat="40.315501" lon="16.059335"><ele>753.6666666666667</ele><time>2026-04-06T13:09:09.86Z</time></trkpt><trkpt lat="40.3156056" lon="16.0592733"><ele>753.8333333333334</ele><time>2026-04-06T13:09:11.859Z</time></trkpt><trkpt lat="40.3156711" lon="16.0592904"><ele>754.0</ele><time>2026-04-06T13:09:12.859Z</time></trkpt><trkpt lat="40.3157391" lon="16.0593443"><ele>751.6666666666667</ele><time>2026-04-06T13:09:13.86Z</time></trkpt><trkpt lat="40.3158006" lon="16.0594189"><ele>749.3333333333334</ele><time>2026-04-06T13:09:14.859Z</time></trkpt><trkpt lat="40.3158575" lon="16.0595037"><ele>747.0</ele><time>2026-04-06T13:09:15.859Z</time></trkpt><trkpt lat="40.3159197" lon="16.0595792"><ele>744.6666666666666</ele><time>2026-04-06T13:09:16.859Z</time></trkpt><trkpt lat="40.3159902" lon="16.059632"><ele>742.3333333333333</ele><time>2026-04-06T13:09:17.859Z</time></trkpt><trkpt lat="40.3160704" lon="16.0596625"><ele>740.0</ele><time>2026-04-06T13:09:18.86Z</time></trkpt><trkpt lat="40.3161628" lon="16.0596697"><ele>740.0</ele><time>2026-04-06T13:09:19.859Z</time></trkpt><trkpt lat="40.316257" lon="16.059657"><ele>740.0</ele><time>2026-04-06T13:09:20.86Z</time></trkpt><trkpt lat="40.3163508" lon="16.0596163"><ele>740.0</ele><time>2026-04-06T13:09:21.86Z</time></trkpt><trkpt lat="40.3164254" lon="16.0595545"><ele>740.0</ele><time>2026-04-06T13:09:22.86Z</time></trkpt><trkpt lat="40.3164828" lon="16.0594735"><ele>740.0</ele><time>2026-04-06T13:09:23.86Z</time></trkpt><trkpt lat="40.3165264" lon="16.0593877"><ele>740.0</ele><time>2026-04-06T13:09:24.859Z</time></trkpt><trkpt lat="40.3166043" lon="16.0593195"><ele>734.2</ele><time>2026-04-06T13:09:26.859Z</time></trkpt><trkpt lat="40.3166492" lon="16.0594032"><ele>728.4</ele><time>2026-04-06T13:09:28.859Z</time></trkpt><trkpt lat="40.3166257" lon="16.0595011"><ele>722.5999999999999</ele><time>2026-04-06T13:09:29.859Z</time></trkpt><trkpt lat="40.3165888" lon="16.0596055"><ele>716.8</ele><time>2026-04-06T13:09:30.859Z</time></trkpt><trkpt lat="40.3165045" lon="16.0597037"><ele>711.0</ele><time>2026-04-06T13:09:31.859Z</time></trkpt><trkpt lat="40.3164123" lon="16.0597755"><ele>713.0</ele><time>2026-04-06T13:09:32.859Z</time></trkpt><trkpt lat="40.3163089" lon="16.0598345"><ele>715.0</ele><time>2026-04-06T13:09:33.859Z</time></trkpt><trkpt lat="40.3162222" lon="16.0598989"><ele>717.0</ele><time>2026-04-06T13:09:34.859Z</time></trkpt><trkpt lat="40.3161408" lon="16.0599755"><ele>719.0</ele><time>2026-04-06T13:09:35.86Z</time></trkpt><trkpt lat="40.3160586" lon="16.0600349"><ele>721.0</ele><time>2026-04-06T13:09:36.86Z</time></trkpt><trkpt lat="40.3159827" lon="16.0600627"><ele>721.0</ele><time>2026-04-06T13:09:37.859Z</time></trkpt><trkpt lat="40.315918" lon="16.0600175"><ele>721.0</ele><time>2026-04-06T13:09:38.859Z</time></trkpt><trkpt lat="40.3158408" lon="16.0599538"><ele>721.0</ele><time>2026-04-06T13:09:39.859Z</time></trkpt><trkpt lat="40.3157613" lon="16.0598995"><ele>721.0</ele><time>2026-04-06T13:09:40.859Z</time></trkpt><trkpt lat="40.3156852" lon="16.0598703"><ele>721.0</ele><time>2026-04-06T13:09:41.859Z</time></trkpt><trkpt lat="40.3156149" lon="16.0598722"><ele>721.0</ele><time>2026-04-06T13:09:42.859Z</time></trkpt><trkpt lat="40.3155552" lon="16.0599335"><ele>727.4</ele><time>2026-04-06T13:09:43.86Z</time></trkpt><trkpt lat="40.3155077" lon="16.0600206"><ele>733.8</ele><time>2026-04-06T13:09:44.859Z</time></trkpt><trkpt lat="40.3154771" lon="16.0601286"><ele>740.1999999999999</ele><time>2026-04-06T13:09:45.86Z</time></trkpt><trkpt lat="40.3154654" lon="16.0602472"><ele>746.5999999999999</ele><time>2026-04-06T13:09:46.859Z</time></trkpt><trkpt lat="40.3154719" lon="16.0603684"><ele>753.0</ele><time>2026-04-06T13:09:47.859Z</time></trkpt><trkpt lat="40.3154906" lon="16.0604926"><ele>753.0</ele><time>2026-04-06T13:09:48.859Z</time></trkpt><trkpt lat="40.3155203" lon="16.0606176"><ele>753.0</ele><time>2026-04-06T13:09:49.86Z</time></trkpt><trkpt lat="40.3155494" lon="16.0607396"><ele>753.0</ele><time>2026-04-06T13:09:50.859Z</time></trkpt><trkpt lat="40.3155796" lon="16.0608599"><ele>753.0</ele><time>2026-04-06T13:09:51.859Z</time></trkpt><trkpt lat="40.3156063" lon="16.0609773"><ele>753.0</ele><time>2026-04-06T13:09:52.859Z</time></trkpt><trkpt lat="40.315622" lon="16.0610947"><ele>748.4</ele><time>2026-04-06T13:09:53.859Z</time></trkpt><trkpt lat="40.3156125" lon="16.0612103"><ele>743.8</ele><time>2026-04-06T13:09:54.859Z</time></trkpt><trkpt lat="40.3155768" lon="16.0613176"><ele>739.2</ele><time>2026-04-06T13:09:55.859Z</time></trkpt><trkpt lat="40.3155184" lon="16.0614141"><ele>734.6</ele><time>2026-04-06T13:09:56.859Z</time></trkpt><trkpt lat="40.3154366" lon="16.0614871"><ele>730.0</ele><time>2026-04-06T13:09:57.859Z</time></trkpt><trkpt lat="40.3153574" lon="16.0615598"><ele>725.0</ele><time>2026-04-06T13:09:58.859Z</time></trkpt><trkpt lat="40.3152806" lon="16.0616361"><ele>720.0</ele><time>2026-04-06T13:09:59.859Z</time></trkpt><trkpt lat="40.3151987" lon="16.0617045"><ele>715.0</ele><time>2026-04-06T13:10:00.859Z</time></trkpt><trkpt lat="40.3151091" lon="16.0617348"><ele>710.0</ele><time>2026-04-06T13:10:01.859Z</time></trkpt><trkpt lat="40.3150201" lon="16.0617218"><ele>705.0</ele><time>2026-04-06T13:10:02.859Z</time></trkpt><trkpt lat="40.3149294" lon="16.0616717"><ele>711.25</ele><time>2026-04-06T13:10:03.859Z</time></trkpt><trkpt lat="40.3148414" lon="16.0615973"><ele>717.5</ele><time>2026-04-06T13:10:04.859Z</time></trkpt><trkpt lat="40.3147482" lon="16.0615041"><ele>723.75</ele><time>2026-04-06T13:10:05.859Z</time></trkpt><trkpt lat="40.3146483" lon="16.0614129"><ele>730.0</ele><time>2026-04-06T13:10:06.86Z</time></trkpt><trkpt lat="40.3145533" lon="16.0613368"><ele>730.4</ele><time>2026-04-06T13:10:07.859Z</time></trkpt><trkpt lat="40.3144501" lon="16.0612842"><ele>730.8</ele><time>2026-04-06T13:10:08.859Z</time></trkpt><trkpt lat="40.3143461" lon="16.0612657"><ele>731.2</ele><time>2026-04-06T13:10:09.86Z</time></trkpt><trkpt lat="40.3142386" lon="16.0612702"><ele>731.6</ele><time>2026-04-06T13:10:10.859Z</time></trkpt><trkpt lat="40.3141383" lon="16.0612935"><ele>732.0</ele><time>2026-04-06T13:10:11.859Z</time></trkpt><trkpt lat="40.3140474" lon="16.061352"><ele>732.0</ele><time>2026-04-06T13:10:12.859Z</time></trkpt><trkpt lat="40.3139775" lon="16.0614463"><ele>732.0</ele><time>2026-04-06T13:10:13.859Z</time></trkpt><trkpt lat="40.3139165" lon="16.0615536"><ele>732.0</ele><time>2026-04-06T13:10:14.86Z</time></trkpt><trkpt lat="40.3138608" lon="16.0616735"><ele>732.0</ele><time>2026-04-06T13:10:15.859Z</time></trkpt><trkpt lat="40.3138111" lon="16.0617983"><ele>732.0</ele><time>2026-04-06T13:10:16.859Z</time></trkpt><trkpt lat="40.313768" lon="16.0619273"><ele>732.75</ele><time>2026-04-06T13:10:17.859Z</time></trkpt><trkpt lat="40.3137289" lon="16.0620652"><ele>733.5</ele><time>2026-04-06T13:10:18.859Z</time></trkpt><trkpt lat="40.3136951" lon="16.0622065"><ele>734.25</ele><time>2026-04-06T13:10:19.859Z</time></trkpt><trkpt lat="40.3136568" lon="16.0623467"><ele>735.0</ele><time>2026-04-06T13:10:20.86Z</time></trkpt><trkpt lat="40.3136079" lon="16.0624807"><ele>728.2</ele><time>2026-04-06T13:10:21.86Z</time></trkpt><trkpt lat="40.3135544" lon="16.0626091"><ele>721.4</ele><time>2026-04-06T13:10:22.859Z</time></trkpt><trkpt lat="40.3134931" lon="16.0627172"><ele>714.5999999999999</ele><time>2026-04-06T13:10:23.859Z</time></trkpt><trkpt lat="40.3134225" lon="16.0628011"><ele>707.8</ele><time>2026-04-06T13:10:24.859Z</time></trkpt><trkpt lat="40.3133447" lon="16.0628434"><ele>701.0</ele><time>2026-04-06T13:10:25.859Z</time></trkpt><trkpt lat="40.3132585" lon="16.0628399"><ele>701.0</ele><time>2026-04-06T13:10:26.859Z</time></trkpt><trkpt lat="40.3131694" lon="16.0628179"><ele>701.0</ele><time>2026-04-06T13:10:27.859Z</time></trkpt><trkpt lat="40.3130767" lon="16.0628136"><ele>701.0</ele><time>2026-04-06T13:10:28.86Z</time></trkpt><trkpt lat="40.3129804" lon="16.0628369"><ele>701.0</ele><time>2026-04-06T13:10:29.859Z</time></trkpt><trkpt lat="40.3128909" lon="16.0628788"><ele>701.0</ele><time>2026-04-06T13:10:30.86Z</time></trkpt><trkpt lat="40.3127981" lon="16.062895"><ele>702.0</ele><time>2026-04-06T13:10:31.859Z</time></trkpt><trkpt lat="40.3127089" lon="16.0628664"><ele>703.0</ele><time>2026-04-06T13:10:32.86Z</time></trkpt><trkpt lat="40.3126347" lon="16.0627994"><ele>704.0</ele><time>2026-04-06T13:10:33.859Z</time></trkpt><trkpt lat="40.3125613" lon="16.0627295"><ele>705.0</ele><time>2026-04-06T13:10:34.859Z</time></trkpt><trkpt lat="40.3124829" lon="16.0626743"><ele>706.0</ele><time>2026-04-06T13:10:35.859Z</time></trkpt><trkpt lat="40.3124002" lon="16.0626415"><ele>707.0</ele><time>2026-04-06T13:10:36.859Z</time></trkpt><trkpt lat="40.3123123" lon="16.0626436"><ele>708.6666666666666</ele><time>2026-04-06T13:10:37.859Z</time></trkpt><trkpt lat="40.3122301" lon="16.0626696"><ele>710.3333333333333</ele><time>2026-04-06T13:10:38.86Z</time></trkpt><trkpt lat="40.3121582" lon="16.0627206"><ele>712.0</ele><time>2026-04-06T13:10:39.859Z</time></trkpt><trkpt lat="40.3121058" lon="16.0627992"><ele>713.6666666666666</ele><time>2026-04-06T13:10:40.859Z</time></trkpt><trkpt lat="40.3121094" lon="16.0629237"><ele>715.3333333333334</ele><time>2026-04-06T13:10:41.859Z</time></trkpt><trkpt lat="40.3121032" lon="16.0630495"><ele>717.0</ele><time>2026-04-06T13:10:42.86Z</time></trkpt><trkpt lat="40.3120872" lon="16.0631711"><ele>712.3333333333334</ele><time>2026-04-06T13:10:43.859Z</time></trkpt><trkpt lat="40.312058" lon="16.0632824"><ele>707.6666666666666</ele><time>2026-04-06T13:10:44.859Z</time></trkpt><trkpt lat="40.3120125" lon="16.0633835"><ele>703.0</ele><time>2026-04-06T13:10:45.859Z</time></trkpt><trkpt lat="40.3119589" lon="16.0634709"><ele>698.3333333333333</ele><time>2026-04-06T13:10:46.859Z</time></trkpt><trkpt lat="40.3118932" lon="16.0635302"><ele>693.6666666666666</ele><time>2026-04-06T13:10:47.859Z</time></trkpt><trkpt lat="40.3118141" lon="16.0635552"><ele>689.0</ele><time>2026-04-06T13:10:48.859Z</time></trkpt><trkpt lat="40.3117256" lon="16.0635424"><ele>689.0</ele><time>2026-04-06T13:10:49.859Z</time></trkpt><trkpt lat="40.3116349" lon="16.0635336"><ele>689.0</ele><time>2026-04-06T13:10:50.859Z</time></trkpt><trkpt lat="40.3115508" lon="16.0635357"><ele>689.0</ele><time>2026-04-06T13:10:51.86Z</time></trkpt><trkpt lat="40.3114692" lon="16.0635529"><ele>689.0</ele><time>2026-04-06T13:10:52.859Z</time></trkpt><trkpt lat="40.3114026" lon="16.0635849"><ele>689.0</ele><time>2026-04-06T13:10:53.859Z</time></trkpt><trkpt lat="40.3113431" lon="16.0636282"><ele>689.0</ele><time>2026-04-06T13:10:54.86Z</time></trkpt><trkpt lat="40.3112902" lon="16.0636776"><ele>691.5</ele><time>2026-04-06T13:10:55.859Z</time></trkpt><trkpt lat="40.3111914" lon="16.0637848"><ele>694.0</ele><time>2026-04-06T13:10:57.859Z</time></trkpt><trkpt lat="40.3111401" lon="16.0638373"><ele>696.5</ele><time>2026-04-06T13:10:58.859Z</time></trkpt><trkpt lat="40.3110856" lon="16.0638838"><ele>699.0</ele><time>2026-04-06T13:10:59.86Z</time></trkpt><trkpt lat="40.3110273" lon="16.0639287"><ele>701.5</ele><time>2026-04-06T13:11:00.86Z</time></trkpt><trkpt lat="40.310969" lon="16.0639606"><ele>704.0</ele><time>2026-04-06T13:11:01.86Z</time></trkpt><trkpt lat="40.3108465" lon="16.0639839"><ele>704.0</ele><time>2026-04-06T13:11:03.859Z</time></trkpt><trkpt lat="40.3107816" lon="16.0639854"><ele>704.0</ele><time>2026-04-06T13:11:04.859Z</time></trkpt><trkpt lat="40.3107163" lon="16.0639856"><ele>704.0</ele><time>2026-04-06T13:11:05.858Z</time></trkpt><trkpt lat="40.3106515" lon="16.0639853"><ele>704.0</ele><time>2026-04-06T13:11:06.858Z</time></trkpt><trkpt lat="40.3105833" lon="16.0640147"><ele>704.0</ele><time>2026-04-06T13:11:07.858Z</time></trkpt><trkpt lat="40.3105252" lon="16.0640543"><ele>704.0</ele><time>2026-04-06T13:11:08.858Z</time></trkpt><trkpt lat="40.3104687" lon="16.0641174"><ele>704.0</ele><time>2026-04-06T13:11:09.858Z</time></trkpt><trkpt lat="40.3104155" lon="16.0641882"><ele>700.5714285714286</ele><time>2026-04-06T13:11:10.858Z</time></trkpt><trkpt lat="40.3103642" lon="16.0642611"><ele>697.1428571428571</ele><time>2026-04-06T13:11:11.858Z</time></trkpt><trkpt lat="40.3103081" lon="16.0643252"><ele>693.7142857142858</ele><time>2026-04-06T13:11:12.858Z</time></trkpt><trkpt lat="40.3102468" lon="16.0643772"><ele>690.2857142857142</ele><time>2026-04-06T13:11:13.858Z</time></trkpt><trkpt lat="40.3101862" lon="16.0644264"><ele>686.8571428571428</ele><time>2026-04-06T13:11:14.858Z</time></trkpt><trkpt lat="40.3101181" lon="16.0644568"><ele>683.4285714285714</ele><time>2026-04-06T13:11:15.858Z</time></trkpt><trkpt lat="40.310043" lon="16.064469"><ele>680.0</ele><time>2026-04-06T13:11:16.859Z</time></trkpt><trkpt lat="40.3099707" lon="16.0644711"><ele>680.0</ele><time>2026-04-06T13:11:17.858Z</time></trkpt><trkpt lat="40.3099017" lon="16.0644537"><ele>680.0</ele><time>2026-04-06T13:11:18.859Z</time></trkpt><trkpt lat="40.3098368" lon="16.0644395"><ele>680.0</ele><time>2026-04-06T13:11:19.858Z</time></trkpt><trkpt lat="40.3097728" lon="16.0644254"><ele>680.0</ele><time>2026-04-06T13:11:20.858Z</time></trkpt><trkpt lat="40.3096518" lon="16.0644207"><ele>680.0</ele><time>2026-04-06T13:11:22.858Z</time></trkpt><trkpt lat="40.3095406" lon="16.0644286"><ele>680.0</ele><time>2026-04-06T13:11:24.859Z</time></trkpt><trkpt lat="40.3094147" lon="16.0644761"><ele>680.5714285714286</ele><time>2026-04-06T13:11:26.858Z</time></trkpt><trkpt lat="40.3093529" lon="16.064518"><ele>681.1428571428571</ele><time>2026-04-06T13:11:27.858Z</time></trkpt><trkpt lat="40.3092935" lon="16.0645695"><ele>681.7142857142857</ele><time>2026-04-06T13:11:28.858Z</time></trkpt><trkpt lat="40.3092353" lon="16.0646204"><ele>682.2857142857142</ele><time>2026-04-06T13:11:29.859Z</time></trkpt><trkpt lat="40.3091794" lon="16.0646728"><ele>682.8571428571429</ele><time>2026-04-06T13:11:30.859Z</time></trkpt><trkpt lat="40.309119" lon="16.0647274"><ele>683.4285714285713</ele><time>2026-04-06T13:11:31.858Z</time></trkpt><trkpt lat="40.3090575" lon="16.0647804"><ele>684.0</ele><time>2026-04-06T13:11:32.858Z</time></trkpt><trkpt lat="40.3089942" lon="16.0648349"><ele>684.0</ele><time>2026-04-06T13:11:33.858Z</time></trkpt><trkpt lat="40.3089245" lon="16.0648851"><ele>684.0</ele><time>2026-04-06T13:11:34.859Z</time></trkpt><trkpt lat="40.3088493" lon="16.0649329"><ele>684.0</ele><time>2026-04-06T13:11:35.858Z</time></trkpt><trkpt lat="40.3087777" lon="16.0649871"><ele>684.0</ele><time>2026-04-06T13:11:36.858Z</time></trkpt><trkpt lat="40.3087085" lon="16.0650457"><ele>684.0</ele><time>2026-04-06T13:11:37.858Z</time></trkpt><trkpt lat="40.3086356" lon="16.0650947"><ele>684.0</ele><time>2026-04-06T13:11:38.859Z</time></trkpt><trkpt lat="40.3085591" lon="16.0651395"><ele>682.3333333333334</ele><time>2026-04-06T13:11:39.858Z</time></trkpt><trkpt lat="40.3084792" lon="16.0651848"><ele>680.6666666666666</ele><time>2026-04-06T13:11:40.858Z</time></trkpt><trkpt lat="40.308401" lon="16.0652271"><ele>679.0</ele><time>2026-04-06T13:11:41.858Z</time></trkpt><trkpt lat="40.3083337" lon="16.0652731"><ele>677.3333333333333</ele><time>2026-04-06T13:11:42.858Z</time></trkpt><trkpt lat="40.3082637" lon="16.0653253"><ele>675.6666666666666</ele><time>2026-04-06T13:11:43.859Z</time></trkpt><trkpt lat="40.3081955" lon="16.0653714"><ele>674.0</ele><time>2026-04-06T13:11:44.858Z</time></trkpt><trkpt lat="40.3081279" lon="16.065418"><ele>674.6666666666666</ele><time>2026-04-06T13:11:45.859Z</time></trkpt><trkpt lat="40.3080525" lon="16.0654551"><ele>675.3333333333333</ele><time>2026-04-06T13:11:46.858Z</time></trkpt><trkpt lat="40.3079798" lon="16.0654834"><ele>676.0</ele><time>2026-04-06T13:11:47.858Z</time></trkpt><trkpt lat="40.3079196" lon="16.0655157"><ele>676.6666666666666</ele><time>2026-04-06T13:11:48.859Z</time></trkpt><trkpt lat="40.3078591" lon="16.0655479"><ele>677.3333333333334</ele><time>2026-04-06T13:11:49.858Z</time></trkpt><trkpt lat="40.3077545" lon="16.0655856"><ele>678.0</ele><time>2026-04-06T13:11:51.859Z</time></trkpt><trkpt lat="40.3077116" lon="16.0656635"><ele>678.0</ele><time>2026-04-06T13:11:54.859Z</time></trkpt><trkpt lat="40.3077839" lon="16.0656938"><ele>678.0</ele><time>2026-04-06T13:11:56.858Z</time></trkpt><trkpt lat="40.3079071" lon="16.0656991"><ele>678.0</ele><time>2026-04-06T13:11:58.858Z</time></trkpt><trkpt lat="40.3079849" lon="16.0657064"><ele>678.0</ele><time>2026-04-06T13:11:59.858Z</time></trkpt><trkpt lat="40.3080602" lon="16.0657019"><ele>678.0</ele><time>2026-04-06T13:12:00.859Z</time></trkpt><trkpt lat="40.3081323" lon="16.0656781"><ele>678.0</ele><time>2026-04-06T13:12:01.858Z</time></trkpt><trkpt lat="40.3081942" lon="16.0656268"><ele>677.4285714285714</ele><time>2026-04-06T13:12:02.858Z</time></trkpt><trkpt lat="40.3082465" lon="16.0655621"><ele>676.8571428571429</ele><time>2026-04-06T13:12:03.858Z</time></trkpt><trkpt lat="40.3082939" lon="16.0654965"><ele>676.2857142857143</ele><time>2026-04-06T13:12:04.858Z</time></trkpt><trkpt lat="40.3083347" lon="16.0654305"><ele>675.7142857142858</ele><time>2026-04-06T13:12:05.858Z</time></trkpt><trkpt lat="40.3083878" lon="16.0653794"><ele>675.1428571428571</ele><time>2026-04-06T13:12:06.858Z</time></trkpt><trkpt lat="40.308452" lon="16.0653369"><ele>674.5714285714287</ele><time>2026-04-06T13:12:07.858Z</time></trkpt><trkpt lat="40.3085156" lon="16.0652957"><ele>674.0</ele><time>2026-04-06T13:12:08.859Z</time></trkpt><trkpt lat="40.3085752" lon="16.0652515"><ele>674.0</ele><time>2026-04-06T13:12:09.858Z</time></trkpt><trkpt lat="40.3086467" lon="16.0652095"><ele>674.0</ele><time>2026-04-06T13:12:10.858Z</time></trkpt><trkpt lat="40.3087199" lon="16.0651628"><ele>674.0</ele><time>2026-04-06T13:12:11.858Z</time></trkpt><trkpt lat="40.3087895" lon="16.0651125"><ele>674.0</ele><time>2026-04-06T13:12:12.858Z</time></trkpt><trkpt lat="40.3088517" lon="16.0650585"><ele>674.0</ele><time>2026-04-06T13:12:13.858Z</time></trkpt><trkpt lat="40.3089119" lon="16.0649981"><ele>674.0</ele><time>2026-04-06T13:12:14.858Z</time></trkpt><trkpt lat="40.3089804" lon="16.0649464"><ele>675.6666666666666</ele><time>2026-04-06T13:12:15.858Z</time></trkpt><trkpt lat="40.3090513" lon="16.0648981"><ele>677.3333333333333</ele><time>2026-04-06T13:12:16.859Z</time></trkpt><trkpt lat="40.3091193" lon="16.064853"><ele>679.0</ele><time>2026-04-06T13:12:17.859Z</time></trkpt><trkpt lat="40.3091872" lon="16.0648051"><ele>680.6666666666666</ele><time>2026-04-06T13:12:18.858Z</time></trkpt><trkpt lat="40.3092526" lon="16.0647492"><ele>682.3333333333334</ele><time>2026-04-06T13:12:19.858Z</time></trkpt><trkpt lat="40.3093185" lon="16.0646874"><ele>684.0</ele><time>2026-04-06T13:12:20.859Z</time></trkpt><trkpt lat="40.3093787" lon="16.0646303"><ele>683.9999999999999</ele><time>2026-04-06T13:12:21.858Z</time></trkpt><trkpt lat="40.3094342" lon="16.0645803"><ele>684.0</ele><time>2026-04-06T13:12:22.858Z</time></trkpt><trkpt lat="40.3094996" lon="16.0645478"><ele>684.0</ele><time>2026-04-06T13:12:23.858Z</time></trkpt><trkpt lat="40.3095736" lon="16.0645378"><ele>684.0</ele><time>2026-04-06T13:12:24.859Z</time></trkpt><trkpt lat="40.3096465" lon="16.0645425"><ele>684.0</ele><time>2026-04-06T13:12:25.858Z</time></trkpt><trkpt lat="40.3097215" lon="16.0645502"><ele>683.9999999999999</ele><time>2026-04-06T13:12:26.858Z</time></trkpt><trkpt lat="40.3097958" lon="16.0645612"><ele>684.0</ele><time>2026-04-06T13:12:27.858Z</time></trkpt><trkpt lat="40.3098697" lon="16.0645696"><ele>683.3333333333334</ele><time>2026-04-06T13:12:28.858Z</time></trkpt><trkpt lat="40.3099468" lon="16.0645874"><ele>682.6666666666666</ele><time>2026-04-06T13:12:29.859Z</time></trkpt><trkpt lat="40.3100174" lon="16.0645977"><ele>682.0</ele><time>2026-04-06T13:12:30.858Z</time></trkpt><trkpt lat="40.3100901" lon="16.0645988"><ele>681.3333333333333</ele><time>2026-04-06T13:12:31.858Z</time></trkpt><trkpt lat="40.3101669" lon="16.0645838"><ele>680.6666666666666</ele><time>2026-04-06T13:12:32.858Z</time></trkpt><trkpt lat="40.3102526" lon="16.0645612"><ele>680.0</ele><time>2026-04-06T13:12:33.858Z</time></trkpt><trkpt lat="40.3103295" lon="16.0645305"><ele>680.0</ele><time>2026-04-06T13:12:34.859Z</time></trkpt><trkpt lat="40.3104052" lon="16.0645007"><ele>680.0</ele><time>2026-04-06T13:12:35.858Z</time></trkpt><trkpt lat="40.3104842" lon="16.0644684"><ele>680.0</ele><time>2026-04-06T13:12:36.858Z</time></trkpt><trkpt lat="40.3105718" lon="16.064433"><ele>680.0</ele><time>2026-04-06T13:12:37.858Z</time></trkpt><trkpt lat="40.3106642" lon="16.0643848"><ele>680.0</ele><time>2026-04-06T13:12:38.858Z</time></trkpt><trkpt lat="40.310753" lon="16.0643455"><ele>680.0</ele><time>2026-04-06T13:12:39.859Z</time></trkpt><trkpt lat="40.3108446" lon="16.0643222"><ele>677.8</ele><time>2026-04-06T13:12:40.859Z</time></trkpt><trkpt lat="40.3109306" lon="16.0643207"><ele>675.6</ele><time>2026-04-06T13:12:41.858Z</time></trkpt><trkpt lat="40.3110233" lon="16.0643345"><ele>673.4000000000001</ele><time>2026-04-06T13:12:42.858Z</time></trkpt><trkpt lat="40.311114" lon="16.064339"><ele>671.2</ele><time>2026-04-06T13:12:43.858Z</time></trkpt><trkpt lat="40.3112101" lon="16.0643152"><ele>669.0</ele><time>2026-04-06T13:12:44.858Z</time></trkpt><trkpt lat="40.3113012" lon="16.0642697"><ele>669.0</ele><time>2026-04-06T13:12:45.859Z</time></trkpt><trkpt lat="40.3113788" lon="16.0642029"><ele>669.0</ele><time>2026-04-06T13:12:46.858Z</time></trkpt><trkpt lat="40.31144" lon="16.064114"><ele>669.0</ele><time>2026-04-06T13:12:47.859Z</time></trkpt><trkpt lat="40.311485" lon="16.0640121"><ele>669.0</ele><time>2026-04-06T13:12:48.858Z</time></trkpt><trkpt lat="40.3115248" lon="16.0639111"><ele>669.0</ele><time>2026-04-06T13:12:49.859Z</time></trkpt><trkpt lat="40.311574" lon="16.0638336"><ele>669.0</ele><time>2026-04-06T13:12:50.859Z</time></trkpt><trkpt lat="40.3116265" lon="16.0637759"><ele>672.3333333333334</ele><time>2026-04-06T13:12:51.858Z</time></trkpt><trkpt lat="40.3116872" lon="16.0637522"><ele>675.6666666666666</ele><time>2026-04-06T13:12:52.858Z</time></trkpt><trkpt lat="40.3117569" lon="16.0637916"><ele>679.0</ele><time>2026-04-06T13:12:53.858Z</time></trkpt><trkpt lat="40.3118328" lon="16.0638496"><ele>682.3333333333333</ele><time>2026-04-06T13:12:54.858Z</time></trkpt><trkpt lat="40.311909" lon="16.0638912"><ele>685.6666666666666</ele><time>2026-04-06T13:12:55.858Z</time></trkpt><trkpt lat="40.3119864" lon="16.063907"><ele>689.0</ele><time>2026-04-06T13:12:56.858Z</time></trkpt><trkpt lat="40.3120709" lon="16.0638733"><ele>689.0</ele><time>2026-04-06T13:12:57.858Z</time></trkpt><trkpt lat="40.3121561" lon="16.0638134"><ele>689.0</ele><time>2026-04-06T13:12:58.858Z</time></trkpt><trkpt lat="40.3122268" lon="16.0637334"><ele>689.0</ele><time>2026-04-06T13:12:59.858Z</time></trkpt><trkpt lat="40.3122878" lon="16.0636342"><ele>689.0</ele><time>2026-04-06T13:13:00.858Z</time></trkpt><trkpt lat="40.3123249" lon="16.0635277"><ele>689.0</ele><time>2026-04-06T13:13:01.858Z</time></trkpt><trkpt lat="40.3123513" lon="16.063421"><ele>686.0</ele><time>2026-04-06T13:13:02.858Z</time></trkpt><trkpt lat="40.312368" lon="16.063324"><ele>683.0</ele><time>2026-04-06T13:13:03.859Z</time></trkpt><trkpt lat="40.3123911" lon="16.0631918"><ele>680.0</ele><time>2026-04-06T13:13:05.858Z</time></trkpt><trkpt lat="40.3124362" lon="16.0631185"><ele>677.0</ele><time>2026-04-06T13:13:07.859Z</time></trkpt><trkpt lat="40.31252" lon="16.0631554"><ele>674.0</ele><time>2026-04-06T13:13:09.859Z</time></trkpt><trkpt lat="40.3125659" lon="16.0632134"><ele>671.0</ele><time>2026-04-06T13:13:10.858Z</time></trkpt><trkpt lat="40.3126168" lon="16.0632828"><ele>671.0</ele><time>2026-04-06T13:13:11.858Z</time></trkpt><trkpt lat="40.3126789" lon="16.063353"><ele>671.0</ele><time>2026-04-06T13:13:12.859Z</time></trkpt><trkpt lat="40.3127411" lon="16.0634098"><ele>671.0</ele><time>2026-04-06T13:13:13.858Z</time></trkpt><trkpt lat="40.3128101" lon="16.0634494"><ele>671.0</ele><time>2026-04-06T13:13:14.858Z</time></trkpt><trkpt lat="40.3128853" lon="16.0634712"><ele>671.0</ele><time>2026-04-06T13:13:15.858Z</time></trkpt><trkpt lat="40.312963" lon="16.0634727"><ele>671.0</ele><time>2026-04-06T13:13:16.858Z</time></trkpt><trkpt lat="40.3130432" lon="16.0634628"><ele>670.0</ele><time>2026-04-06T13:13:17.858Z</time></trkpt><trkpt lat="40.3131251" lon="16.0634411"><ele>669.0</ele><time>2026-04-06T13:13:18.858Z</time></trkpt><trkpt lat="40.3132075" lon="16.0634162"><ele>668.0</ele><time>2026-04-06T13:13:19.858Z</time></trkpt><trkpt lat="40.3132927" lon="16.0633977"><ele>667.0</ele><time>2026-04-06T13:13:20.858Z</time></trkpt><trkpt lat="40.3133772" lon="16.0633918"><ele>666.0</ele><time>2026-04-06T13:13:21.858Z</time></trkpt><trkpt lat="40.3134596" lon="16.0634054"><ele>665.0</ele><time>2026-04-06T13:13:22.858Z</time></trkpt><trkpt lat="40.3135401" lon="16.0634247"><ele>665.0</ele><time>2026-04-06T13:13:23.859Z</time></trkpt><trkpt lat="40.3136238" lon="16.063426"><ele>665.0</ele><time>2026-04-06T13:13:24.858Z</time></trkpt><trkpt lat="40.3137094" lon="16.063407"><ele>665.0</ele><time>2026-04-06T13:13:25.859Z</time></trkpt><trkpt lat="40.3137852" lon="16.0633537"><ele>665.0</ele><time>2026-04-06T13:13:26.858Z</time></trkpt><trkpt lat="40.3138494" lon="16.0632718"><ele>665.0</ele><time>2026-04-06T13:13:27.858Z</time></trkpt><trkpt lat="40.3138994" lon="16.0631744"><ele>665.0</ele><time>2026-04-06T13:13:28.859Z</time></trkpt><trkpt lat="40.3139358" lon="16.0630698"><ele>665.8333333333333</ele><time>2026-04-06T13:13:29.858Z</time></trkpt><trkpt lat="40.3139617" lon="16.0629622"><ele>666.6666666666666</ele><time>2026-04-06T13:13:30.858Z</time></trkpt><trkpt lat="40.3139959" lon="16.0628614"><ele>667.5</ele><time>2026-04-06T13:13:31.858Z</time></trkpt><trkpt lat="40.3140399" lon="16.0627766"><ele>668.3333333333334</ele><time>2026-04-06T13:13:32.858Z</time></trkpt><trkpt lat="40.3140955" lon="16.0627164"><ele>669.1666666666667</ele><time>2026-04-06T13:13:33.859Z</time></trkpt><trkpt lat="40.3141613" lon="16.0626857"><ele>670.0</ele><time>2026-04-06T13:13:34.859Z</time></trkpt><trkpt lat="40.3142347" lon="16.062669"><ele>670.0</ele><time>2026-04-06T13:13:35.858Z</time></trkpt><trkpt lat="40.3143184" lon="16.0626566"><ele>670.0</ele><time>2026-04-06T13:13:36.858Z</time></trkpt><trkpt lat="40.3143968" lon="16.0626593"><ele>670.0</ele><time>2026-04-06T13:13:37.858Z</time></trkpt><trkpt lat="40.3144825" lon="16.0626804"><ele>670.0</ele><time>2026-04-06T13:13:38.858Z</time></trkpt><trkpt lat="40.3145638" lon="16.0627175"><ele>670.0</ele><time>2026-04-06T13:13:39.858Z</time></trkpt><trkpt lat="40.3146439" lon="16.0627642"><ele>670.0</ele><time>2026-04-06T13:13:40.858Z</time></trkpt><trkpt lat="40.3147199" lon="16.0628179"><ele>670.6666666666667</ele><time>2026-04-06T13:13:41.858Z</time></trkpt><trkpt lat="40.3147976" lon="16.0628681"><ele>671.3333333333334</ele><time>2026-04-06T13:13:42.858Z</time></trkpt><trkpt lat="40.3148762" lon="16.0629056"><ele>672.0</ele><time>2026-04-06T13:13:43.858Z</time></trkpt><trkpt lat="40.31496" lon="16.0629199"><ele>672.6666666666666</ele><time>2026-04-06T13:13:44.859Z</time></trkpt><trkpt lat="40.3150426" lon="16.0629131"><ele>673.3333333333333</ele><time>2026-04-06T13:13:45.858Z</time></trkpt><trkpt lat="40.3151259" lon="16.0628977"><ele>674.0</ele><time>2026-04-06T13:13:46.858Z</time></trkpt><trkpt lat="40.3152093" lon="16.0628812"><ele>674.0</ele><time>2026-04-06T13:13:47.858Z</time></trkpt><trkpt lat="40.3152949" lon="16.0628599"><ele>674.0</ele><time>2026-04-06T13:13:48.858Z</time></trkpt><trkpt lat="40.3153774" lon="16.0628228"><ele>674.0</ele><time>2026-04-06T13:13:49.858Z</time></trkpt><trkpt lat="40.3154538" lon="16.0627626"><ele>674.0</ele><time>2026-04-06T13:13:50.858Z</time></trkpt><trkpt lat="40.3155218" lon="16.0626857"><ele>674.0</ele><time>2026-04-06T13:13:51.858Z</time></trkpt><trkpt lat="40.3155799" lon="16.062607"><ele>674.0</ele><time>2026-04-06T13:13:52.858Z</time></trkpt><trkpt lat="40.3156373" lon="16.0625257"><ele>676.8000000000001</ele><time>2026-04-06T13:13:53.858Z</time></trkpt><trkpt lat="40.3156989" lon="16.0624486"><ele>679.6</ele><time>2026-04-06T13:13:54.859Z</time></trkpt><trkpt lat="40.3157646" lon="16.0623807"><ele>682.4</ele><time>2026-04-06T13:13:55.858Z</time></trkpt><trkpt lat="40.3158397" lon="16.0623215"><ele>685.2</ele><time>2026-04-06T13:13:56.858Z</time></trkpt><trkpt lat="40.3159265" lon="16.0622609"><ele>688.0</ele><time>2026-04-06T13:13:57.858Z</time></trkpt><trkpt lat="40.3160215" lon="16.0621887"><ele>688.0</ele><time>2026-04-06T13:13:58.858Z</time></trkpt><trkpt lat="40.3161195" lon="16.062121"><ele>688.0</ele><time>2026-04-06T13:13:59.859Z</time></trkpt><trkpt lat="40.3162195" lon="16.0620721"><ele>688.0</ele><time>2026-04-06T13:14:00.858Z</time></trkpt><trkpt lat="40.3163256" lon="16.0620517"><ele>688.0</ele><time>2026-04-06T13:14:01.858Z</time></trkpt><trkpt lat="40.3164397" lon="16.0620383"><ele>688.0</ele><time>2026-04-06T13:14:02.859Z</time></trkpt><trkpt lat="40.3165412" lon="16.061991"><ele>682.2</ele><time>2026-04-06T13:14:03.858Z</time></trkpt><trkpt lat="40.3166313" lon="16.0619174"><ele>676.4</ele><time>2026-04-06T13:14:04.858Z</time></trkpt><trkpt lat="40.3167118" lon="16.0618569"><ele>670.6</ele><time>2026-04-06T13:14:05.859Z</time></trkpt><trkpt lat="40.3168" lon="16.0618373"><ele>664.8000000000001</ele><time>2026-04-06T13:14:06.858Z</time></trkpt><trkpt lat="40.3168844" lon="16.0618576"><ele>659.0</ele><time>2026-04-06T13:14:07.858Z</time></trkpt><trkpt lat="40.3169703" lon="16.061915"><ele>659.0</ele><time>2026-04-06T13:14:08.858Z</time></trkpt><trkpt lat="40.3170504" lon="16.0620113"><ele>659.0</ele><time>2026-04-06T13:14:09.858Z</time></trkpt><trkpt lat="40.3171292" lon="16.0621156"><ele>659.0</ele><time>2026-04-06T13:14:10.858Z</time></trkpt><trkpt lat="40.3172151" lon="16.0621958"><ele>659.0</ele><time>2026-04-06T13:14:11.859Z</time></trkpt><trkpt lat="40.3173086" lon="16.0622278"><ele>659.0</ele><time>2026-04-06T13:14:12.858Z</time></trkpt><trkpt lat="40.3174097" lon="16.0622059"><ele>655.0</ele><time>2026-04-06T13:14:13.858Z</time></trkpt><trkpt lat="40.3175125" lon="16.0621308"><ele>651.0</ele><time>2026-04-06T13:14:14.859Z</time></trkpt><trkpt lat="40.3175998" lon="16.0620492"><ele>647.0</ele><time>2026-04-06T13:14:15.858Z</time></trkpt><trkpt lat="40.3176907" lon="16.0619642"><ele>643.0</ele><time>2026-04-06T13:14:16.858Z</time></trkpt><trkpt lat="40.317789" lon="16.0618886"><ele>643.0</ele><time>2026-04-06T13:14:17.858Z</time></trkpt><trkpt lat="40.3178891" lon="16.061834"><ele>643.0</ele><time>2026-04-06T13:14:18.858Z</time></trkpt><trkpt lat="40.3179837" lon="16.0617803"><ele>643.0</ele><time>2026-04-06T13:14:19.858Z</time></trkpt><trkpt lat="40.3180654" lon="16.0617082"><ele>643.0</ele><time>2026-04-06T13:14:20.858Z</time></trkpt><trkpt lat="40.3181142" lon="16.0616062"><ele>643.0</ele><time>2026-04-06T13:14:21.858Z</time></trkpt><trkpt lat="40.318128" lon="16.0614677"><ele>644.8</ele><time>2026-04-06T13:14:22.858Z</time></trkpt><trkpt lat="40.3181038" lon="16.0613253"><ele>646.5999999999999</ele><time>2026-04-06T13:14:23.858Z</time></trkpt><trkpt lat="40.3180541" lon="16.0611903"><ele>648.4000000000001</ele><time>2026-04-06T13:14:24.858Z</time></trkpt><trkpt lat="40.317994" lon="16.061069"><ele>650.2</ele><time>2026-04-06T13:14:25.858Z</time></trkpt><trkpt lat="40.3179363" lon="16.0609567"><ele>652.0</ele><time>2026-04-06T13:14:26.859Z</time></trkpt><trkpt lat="40.3179008" lon="16.0608477"><ele>649.5</ele><time>2026-04-06T13:14:27.858Z</time></trkpt><trkpt lat="40.3178909" lon="16.0607374"><ele>647.0</ele><time>2026-04-06T13:14:28.858Z</time></trkpt><trkpt lat="40.317904" lon="16.0606378"><ele>644.5</ele><time>2026-04-06T13:14:29.858Z</time></trkpt><trkpt lat="40.3179342" lon="16.0605628"><ele>642.0</ele><time>2026-04-06T13:14:30.858Z</time></trkpt><trkpt lat="40.3180038" lon="16.0604726"><ele>639.5</ele><time>2026-04-06T13:14:32.859Z</time></trkpt><trkpt lat="40.3180902" lon="16.0604442"><ele>637.0</ele><time>2026-04-06T13:14:34.858Z</time></trkpt><trkpt lat="40.3181833" lon="16.0603683"><ele>637.0</ele><time>2026-04-06T13:14:36.858Z</time></trkpt><trkpt lat="40.3182323" lon="16.0603075"><ele>637.0</ele><time>2026-04-06T13:14:37.858Z</time></trkpt><trkpt lat="40.318289" lon="16.0602455"><ele>637.0</ele><time>2026-04-06T13:14:38.859Z</time></trkpt><trkpt lat="40.3183475" lon="16.0601812"><ele>637.0</ele><time>2026-04-06T13:14:39.858Z</time></trkpt><trkpt lat="40.3184064" lon="16.0601142"><ele>637.0</ele><time>2026-04-06T13:14:40.858Z</time></trkpt><trkpt lat="40.318464" lon="16.0600495"><ele>637.0</ele><time>2026-04-06T13:14:41.858Z</time></trkpt><trkpt lat="40.3185145" lon="16.0599908"><ele>637.0</ele><time>2026-04-06T13:14:42.859Z</time></trkpt><trkpt lat="40.31856" lon="16.0599331"><ele>637.0</ele><time>2026-04-06T13:14:43.859Z</time></trkpt><trkpt lat="40.3186286" lon="16.0598428"><ele>637.0</ele><time>2026-04-06T13:14:45.858Z</time></trkpt><trkpt lat="40.318695" lon="16.0598174"><ele>637.0</ele><time>2026-04-06T13:14:49.858Z</time></trkpt><trkpt lat="40.3186329" lon="16.0599109"><ele>637.0</ele><time>2026-04-06T13:14:55.858Z</time></trkpt><trkpt lat="40.3185346" lon="16.0599879"><ele>637.0</ele><time>2026-04-06T13:14:57.858Z</time></trkpt><trkpt lat="40.3184773" lon="16.0600408"><ele>637.0</ele><time>2026-04-06T13:14:58.859Z</time></trkpt><trkpt lat="40.3184169" lon="16.0601048"><ele>637.0</ele><time>2026-04-06T13:14:59.859Z</time></trkpt><trkpt lat="40.3183587" lon="16.0601728"><ele>637.0</ele><time>2026-04-06T13:15:00.859Z</time></trkpt><trkpt lat="40.3183021" lon="16.0602402"><ele>637.0</ele><time>2026-04-06T13:15:01.858Z</time></trkpt><trkpt lat="40.3182587" lon="16.0603116"><ele>637.0</ele><time>2026-04-06T13:15:02.859Z</time></trkpt><trkpt lat="40.3182275" lon="16.0603946"><ele>637.0</ele><time>2026-04-06T13:15:03.858Z</time></trkpt><trkpt lat="40.3182048" lon="16.0604935"><ele>637.0</ele><time>2026-04-06T13:15:04.858Z</time></trkpt><trkpt lat="40.3181875" lon="16.0605922"><ele>637.0</ele><time>2026-04-06T13:15:05.858Z</time></trkpt><trkpt lat="40.3181676" lon="16.0606958"><ele>637.0</ele><time>2026-04-06T13:15:06.858Z</time></trkpt><trkpt lat="40.3181431" lon="16.060794"><ele>637.0</ele><time>2026-04-06T13:15:07.858Z</time></trkpt><trkpt lat="40.3181191" lon="16.0608992"><ele>637.0</ele><time>2026-04-06T13:15:08.859Z</time></trkpt><trkpt lat="40.3181066" lon="16.0610051"><ele>637.0</ele><time>2026-04-06T13:15:09.858Z</time></trkpt><trkpt lat="40.3181106" lon="16.0611122"><ele>637.0</ele><time>2026-04-06T13:15:10.859Z</time></trkpt><trkpt lat="40.318127" lon="16.0612258"><ele>634.3333333333334</ele><time>2026-04-06T13:15:11.858Z</time></trkpt><trkpt lat="40.3181455" lon="16.061341"><ele>631.6666666666667</ele><time>2026-04-06T13:15:12.858Z</time></trkpt><trkpt lat="40.3181635" lon="16.0614576"><ele>629.0</ele><time>2026-04-06T13:15:13.858Z</time></trkpt><trkpt lat="40.318179" lon="16.0615747"><ele>626.3333333333334</ele><time>2026-04-06T13:15:14.858Z</time></trkpt><trkpt lat="40.3181795" lon="16.0616902"><ele>623.6666666666666</ele><time>2026-04-06T13:15:15.858Z</time></trkpt><trkpt lat="40.3181625" lon="16.0618011"><ele>621.0</ele><time>2026-04-06T13:15:16.858Z</time></trkpt><trkpt lat="40.3181243" lon="16.061907"><ele>619.6</ele><time>2026-04-06T13:15:17.859Z</time></trkpt><trkpt lat="40.3180718" lon="16.0620051"><ele>618.2</ele><time>2026-04-06T13:15:18.858Z</time></trkpt><trkpt lat="40.3180034" lon="16.0620892"><ele>616.8</ele><time>2026-04-06T13:15:19.858Z</time></trkpt><trkpt lat="40.3179247" lon="16.0621673"><ele>615.4</ele><time>2026-04-06T13:15:20.859Z</time></trkpt><trkpt lat="40.3178392" lon="16.0622466"><ele>614.0</ele><time>2026-04-06T13:15:21.858Z</time></trkpt><trkpt lat="40.3177479" lon="16.0623196"><ele>614.5</ele><time>2026-04-06T13:15:22.858Z</time></trkpt><trkpt lat="40.3176558" lon="16.0623999"><ele>615.0</ele><time>2026-04-06T13:15:23.858Z</time></trkpt><trkpt lat="40.3175497" lon="16.0624728"><ele>615.5</ele><time>2026-04-06T13:15:24.858Z</time></trkpt><trkpt lat="40.3174323" lon="16.0625541"><ele>616.0</ele><time>2026-04-06T13:15:25.859Z</time></trkpt><trkpt lat="40.3173183" lon="16.0626255"><ele>619.75</ele><time>2026-04-06T13:15:26.859Z</time></trkpt><trkpt lat="40.3172007" lon="16.0627006"><ele>623.5</ele><time>2026-04-06T13:15:27.858Z</time></trkpt><trkpt lat="40.3170806" lon="16.0627685"><ele>627.25</ele><time>2026-04-06T13:15:28.858Z</time></trkpt><trkpt lat="40.3169546" lon="16.0628302"><ele>631.0</ele><time>2026-04-06T13:15:29.859Z</time></trkpt><trkpt lat="40.3168316" lon="16.0628818"><ele>631.0</ele><time>2026-04-06T13:15:30.858Z</time></trkpt><trkpt lat="40.3167152" lon="16.0629302"><ele>631.0</ele><time>2026-04-06T13:15:31.858Z</time></trkpt><trkpt lat="40.3166087" lon="16.0629864"><ele>631.0</ele><time>2026-04-06T13:15:32.858Z</time></trkpt><trkpt lat="40.3165183" lon="16.0630506"><ele>631.0</ele><time>2026-04-06T13:15:33.858Z</time></trkpt><trkpt lat="40.316455" lon="16.0631267"><ele>631.0</ele><time>2026-04-06T13:15:34.858Z</time></trkpt><trkpt lat="40.3164124" lon="16.0632023"><ele>627.8</ele><time>2026-04-06T13:15:35.858Z</time></trkpt><trkpt lat="40.3163758" lon="16.0633185"><ele>624.6</ele><time>2026-04-06T13:15:37.858Z</time></trkpt><trkpt lat="40.3163972" lon="16.0634239"><ele>621.4</ele><time>2026-04-06T13:15:43.858Z</time></trkpt><trkpt lat="40.3164648" lon="16.0634475"><ele>618.2</ele><time>2026-04-06T13:15:45.858Z</time></trkpt><trkpt lat="40.3165788" lon="16.0633905"><ele>615.0</ele><time>2026-04-06T13:15:47.859Z</time></trkpt><trkpt lat="40.3166542" lon="16.0633411"><ele>612.4</ele><time>2026-04-06T13:15:48.858Z</time></trkpt><trkpt lat="40.3167413" lon="16.0632884"><ele>609.8</ele><time>2026-04-06T13:15:49.859Z</time></trkpt><trkpt lat="40.316835" lon="16.0632315"><ele>607.2</ele><time>2026-04-06T13:15:50.858Z</time></trkpt><trkpt lat="40.3169361" lon="16.0631703"><ele>604.6</ele><time>2026-04-06T13:15:51.858Z</time></trkpt><trkpt lat="40.3170435" lon="16.0631067"><ele>602.0</ele><time>2026-04-06T13:15:52.857Z</time></trkpt><trkpt lat="40.3171573" lon="16.0630382"><ele>605.5</ele><time>2026-04-06T13:15:53.857Z</time></trkpt><trkpt lat="40.3172774" lon="16.0629642"><ele>609.0</ele><time>2026-04-06T13:15:54.857Z</time></trkpt><trkpt lat="40.3174003" lon="16.0629003"><ele>612.5</ele><time>2026-04-06T13:15:55.857Z</time></trkpt><trkpt lat="40.3175339" lon="16.0628484"><ele>616.0</ele><time>2026-04-06T13:15:56.857Z</time></trkpt><trkpt lat="40.3176725" lon="16.0628027"><ele>616.0</ele><time>2026-04-06T13:15:57.858Z</time></trkpt><trkpt lat="40.3178089" lon="16.0627674"><ele>616.0</ele><time>2026-04-06T13:15:58.858Z</time></trkpt><trkpt lat="40.3179361" lon="16.0627422"><ele>616.0</ele><time>2026-04-06T13:15:59.858Z</time></trkpt><trkpt lat="40.3180635" lon="16.0627227"><ele>616.0</ele><time>2026-04-06T13:16:00.857Z</time></trkpt><trkpt lat="40.3181863" lon="16.0627095"><ele>612.0</ele><time>2026-04-06T13:16:01.857Z</time></trkpt><trkpt lat="40.3183078" lon="16.0626953"><ele>608.0</ele><time>2026-04-06T13:16:02.858Z</time></trkpt><trkpt lat="40.3184306" lon="16.0626801"><ele>604.0</ele><time>2026-04-06T13:16:03.857Z</time></trkpt><trkpt lat="40.3185577" lon="16.0626624"><ele>600.0</ele><time>2026-04-06T13:16:04.857Z</time></trkpt><trkpt lat="40.31869" lon="16.0626393"><ele>600.0</ele><time>2026-04-06T13:16:05.857Z</time></trkpt><trkpt lat="40.3188235" lon="16.0626171"><ele>600.0</ele><time>2026-04-06T13:16:06.858Z</time></trkpt><trkpt lat="40.3189609" lon="16.0625978"><ele>600.0</ele><time>2026-04-06T13:16:07.858Z</time></trkpt><trkpt lat="40.3190985" lon="16.062581"><ele>600.0</ele><time>2026-04-06T13:16:08.858Z</time></trkpt><trkpt lat="40.3192388" lon="16.0625726"><ele>601.25</ele><time>2026-04-06T13:16:09.858Z</time></trkpt><trkpt lat="40.3193782" lon="16.0625726"><ele>602.5</ele><time>2026-04-06T13:16:10.857Z</time></trkpt><trkpt lat="40.3195184" lon="16.0625864"><ele>603.75</ele><time>2026-04-06T13:16:11.858Z</time></trkpt><trkpt lat="40.3196575" lon="16.0626094"><ele>605.0</ele><time>2026-04-06T13:16:12.857Z</time></trkpt><trkpt lat="40.3197949" lon="16.0626361"><ele>607.5</ele><time>2026-04-06T13:16:13.857Z</time></trkpt><trkpt lat="40.3199333" lon="16.06266"><ele>610.0</ele><time>2026-04-06T13:16:14.857Z</time></trkpt><trkpt lat="40.3200741" lon="16.0626831"><ele>612.5</ele><time>2026-04-06T13:16:15.857Z</time></trkpt><trkpt lat="40.3202207" lon="16.0627082"><ele>615.0</ele><time>2026-04-06T13:16:16.857Z</time></trkpt><trkpt lat="40.3203715" lon="16.0627257"><ele>615.0</ele><time>2026-04-06T13:16:17.857Z</time></trkpt><trkpt lat="40.3205248" lon="16.062736"><ele>615.0</ele><time>2026-04-06T13:16:18.857Z</time></trkpt><trkpt lat="40.3206813" lon="16.0627387"><ele>615.0</ele><time>2026-04-06T13:16:19.857Z</time></trkpt><trkpt lat="40.3208397" lon="16.0627234"><ele>618.3333333333334</ele><time>2026-04-06T13:16:20.858Z</time></trkpt><trkpt lat="40.3209983" lon="16.0626958"><ele>621.6666666666667</ele><time>2026-04-06T13:16:21.858Z</time></trkpt><trkpt lat="40.3211553" lon="16.0626654"><ele>625.0</ele><time>2026-04-06T13:16:22.857Z</time></trkpt><trkpt lat="40.3213078" lon="16.0626406"><ele>626.5</ele><time>2026-04-06T13:16:23.857Z</time></trkpt><trkpt lat="40.3214544" lon="16.062615"><ele>628.0</ele><time>2026-04-06T13:16:24.857Z</time></trkpt><trkpt lat="40.3216015" lon="16.0625884"><ele>629.5</ele><time>2026-04-06T13:16:25.858Z</time></trkpt><trkpt lat="40.321748" lon="16.0625565"><ele>631.0</ele><time>2026-04-06T13:16:26.857Z</time></trkpt><trkpt lat="40.3218962" lon="16.0625292"><ele>631.0</ele><time>2026-04-06T13:16:27.857Z</time></trkpt><trkpt lat="40.3220474" lon="16.0624988"><ele>631.0</ele><time>2026-04-06T13:16:28.858Z</time></trkpt><trkpt lat="40.3222071" lon="16.0624724"><ele>631.0</ele><time>2026-04-06T13:16:29.857Z</time></trkpt><trkpt lat="40.3223664" lon="16.0624406"><ele>640.0</ele><time>2026-04-06T13:16:30.857Z</time></trkpt><trkpt lat="40.3225252" lon="16.0623985"><ele>649.0</ele><time>2026-04-06T13:16:31.857Z</time></trkpt><trkpt lat="40.3226704" lon="16.0623039"><ele>658.0</ele><time>2026-04-06T13:16:32.857Z</time></trkpt><trkpt lat="40.3228228" lon="16.0622251"><ele>658.0</ele><time>2026-04-06T13:16:33.858Z</time></trkpt><trkpt lat="40.3229782" lon="16.0621505"><ele>658.0</ele><time>2026-04-06T13:16:34.857Z</time></trkpt><trkpt lat="40.3231309" lon="16.0620698"><ele>658.0</ele><time>2026-04-06T13:16:35.857Z</time></trkpt><trkpt lat="40.3232852" lon="16.0620042"><ele>661.6666666666667</ele><time>2026-04-06T13:16:36.858Z</time></trkpt><trkpt lat="40.3234392" lon="16.0619357"><ele>665.3333333333334</ele><time>2026-04-06T13:16:37.857Z</time></trkpt><trkpt lat="40.3235927" lon="16.0618661"><ele>669.0</ele><time>2026-04-06T13:16:38.857Z</time></trkpt><trkpt lat="40.3237462" lon="16.0617955"><ele>625.0</ele><time>2026-04-06T13:16:39.858Z</time></trkpt><trkpt lat="40.3275267" lon="16.0613517"><ele>625.0</ele><time>2026-04-06T13:17:03.868Z</time></trkpt><trkpt lat="40.3276651" lon="16.0613345"><ele>625.0</ele><time>2026-04-06T13:17:04.868Z</time></trkpt><trkpt lat="40.3278153" lon="16.0613039"><ele>625.0</ele><time>2026-04-06T13:17:05.868Z</time></trkpt><trkpt lat="40.327971" lon="16.0612653"><ele>625.0</ele><time>2026-04-06T13:17:06.868Z</time></trkpt><trkpt lat="40.3281279" lon="16.0612332"><ele>619.6666666666667</ele><time>2026-04-06T13:17:07.868Z</time></trkpt><trkpt lat="40.3282899" lon="16.0612055"><ele>614.3333333333334</ele><time>2026-04-06T13:17:08.868Z</time></trkpt><trkpt lat="40.3284547" lon="16.0611824"><ele>609.0</ele><time>2026-04-06T13:17:09.868Z</time></trkpt><trkpt lat="40.328625" lon="16.061165"><ele>609.0</ele><time>2026-04-06T13:17:10.869Z</time></trkpt><trkpt lat="40.3287943" lon="16.0611541"><ele>609.0</ele><time>2026-04-06T13:17:11.868Z</time></trkpt><trkpt lat="40.328962" lon="16.0611532"><ele>609.0</ele><time>2026-04-06T13:17:12.868Z</time></trkpt><trkpt lat="40.3291291" lon="16.0611639"><ele>604.3333333333334</ele><time>2026-04-06T13:17:13.868Z</time></trkpt><trkpt lat="40.3292987" lon="16.0611773"><ele>599.6666666666667</ele><time>2026-04-06T13:17:14.868Z</time></trkpt><trkpt lat="40.3294715" lon="16.0611917"><ele>595.0</ele><time>2026-04-06T13:17:15.868Z</time></trkpt><trkpt lat="40.3296453" lon="16.0612"><ele>592.3333333333334</ele><time>2026-04-06T13:17:16.868Z</time></trkpt><trkpt lat="40.3298217" lon="16.0612143"><ele>589.6666666666666</ele><time>2026-04-06T13:17:17.868Z</time></trkpt><trkpt lat="40.3299998" lon="16.0612305"><ele>587.0</ele><time>2026-04-06T13:17:18.868Z</time></trkpt><trkpt lat="40.3301808" lon="16.0612477"><ele>587.0</ele><time>2026-04-06T13:17:19.868Z</time></trkpt><trkpt lat="40.3303649" lon="16.061273"><ele>587.0</ele><time>2026-04-06T13:17:20.868Z</time></trkpt><trkpt lat="40.3305453" lon="16.0612863"><ele>587.0</ele><time>2026-04-06T13:17:21.868Z</time></trkpt><trkpt lat="40.3307244" lon="16.0612915"><ele>584.6666666666666</ele><time>2026-04-06T13:17:22.868Z</time></trkpt><trkpt lat="40.3309166" lon="16.0612952"><ele>582.3333333333334</ele><time>2026-04-06T13:17:23.868Z</time></trkpt><trkpt lat="40.3311054" lon="16.0613049"><ele>580.0</ele><time>2026-04-06T13:17:24.868Z</time></trkpt><trkpt lat="40.3312956" lon="16.0613204"><ele>577.6666666666667</ele><time>2026-04-06T13:17:25.868Z</time></trkpt><trkpt lat="40.3314885" lon="16.0613405"><ele>575.3333333333334</ele><time>2026-04-06T13:17:26.868Z</time></trkpt><trkpt lat="40.3316833" lon="16.061357"><ele>573.0</ele><time>2026-04-06T13:17:27.868Z</time></trkpt><trkpt lat="40.3318784" lon="16.0613713"><ele>573.0</ele><time>2026-04-06T13:17:28.868Z</time></trkpt><trkpt lat="40.332071" lon="16.0613838"><ele>573.0</ele><time>2026-04-06T13:17:29.868Z</time></trkpt><trkpt lat="40.3322618" lon="16.0614038"><ele>573.0</ele><time>2026-04-06T13:17:30.868Z</time></trkpt><trkpt lat="40.3324532" lon="16.0614238"><ele>571.0</ele><time>2026-04-06T13:17:31.869Z</time></trkpt><trkpt lat="40.3326424" lon="16.0614406"><ele>569.0</ele><time>2026-04-06T13:17:32.868Z</time></trkpt><trkpt lat="40.3328361" lon="16.0614568"><ele>567.0</ele><time>2026-04-06T13:17:33.868Z</time></trkpt><trkpt lat="40.3330358" lon="16.0614678"><ele>565.0</ele><time>2026-04-06T13:17:34.868Z</time></trkpt><trkpt lat="40.3332285" lon="16.0614782"><ele>563.0</ele><time>2026-04-06T13:17:35.869Z</time></trkpt><trkpt lat="40.3334201" lon="16.06149"><ele>561.0</ele><time>2026-04-06T13:17:36.868Z</time></trkpt><trkpt lat="40.3336099" lon="16.0614998"><ele>561.0</ele><time>2026-04-06T13:17:37.868Z</time></trkpt><trkpt lat="40.3337944" lon="16.0615146"><ele>561.0</ele><time>2026-04-06T13:17:38.868Z</time></trkpt><trkpt lat="40.3339765" lon="16.0615353"><ele>561.0</ele><time>2026-04-06T13:17:39.868Z</time></trkpt><trkpt lat="40.3341607" lon="16.0615593"><ele>560.6666666666666</ele><time>2026-04-06T13:17:40.868Z</time></trkpt><trkpt lat="40.3343491" lon="16.0615921"><ele>560.3333333333333</ele><time>2026-04-06T13:17:41.868Z</time></trkpt><trkpt lat="40.3345413" lon="16.0616375"><ele>560.0</ele><time>2026-04-06T13:17:42.868Z</time></trkpt><trkpt lat="40.3347296" lon="16.0616957"><ele>556.6666666666666</ele><time>2026-04-06T13:17:43.868Z</time></trkpt><trkpt lat="40.3349169" lon="16.0617659"><ele>553.3333333333334</ele><time>2026-04-06T13:17:44.868Z</time></trkpt><trkpt lat="40.3351015" lon="16.0618449"><ele>550.0</ele><time>2026-04-06T13:17:45.869Z</time></trkpt><trkpt lat="40.3352902" lon="16.0619295"><ele>550.0</ele><time>2026-04-06T13:17:46.868Z</time></trkpt><trkpt lat="40.3354802" lon="16.0620207"><ele>550.0</ele><time>2026-04-06T13:17:47.869Z</time></trkpt><trkpt lat="40.3356746" lon="16.062113"><ele>550.0</ele><time>2026-04-06T13:17:48.869Z</time></trkpt><trkpt lat="40.3358699" lon="16.0622081"><ele>546.6666666666667</ele><time>2026-04-06T13:17:49.869Z</time></trkpt><trkpt lat="40.3360692" lon="16.0623144"><ele>543.3333333333334</ele><time>2026-04-06T13:17:50.868Z</time></trkpt><trkpt lat="40.3362666" lon="16.0624445"><ele>540.0</ele><time>2026-04-06T13:17:51.868Z</time></trkpt><trkpt lat="40.3364657" lon="16.0625897"><ele>537.3333333333334</ele><time>2026-04-06T13:17:52.868Z</time></trkpt><trkpt lat="40.3366627" lon="16.0627356"><ele>534.6666666666667</ele><time>2026-04-06T13:17:53.868Z</time></trkpt><trkpt lat="40.3368515" lon="16.0628734"><ele>532.0</ele><time>2026-04-06T13:17:54.868Z</time></trkpt><trkpt lat="40.3370341" lon="16.0630077"><ele>532.0</ele><time>2026-04-06T13:17:55.868Z</time></trkpt><trkpt lat="40.3372123" lon="16.0631365"><ele>532.0</ele><time>2026-04-06T13:17:56.868Z</time></trkpt><trkpt lat="40.3373872" lon="16.0632643"><ele>532.0</ele><time>2026-04-06T13:17:57.868Z</time></trkpt><trkpt lat="40.3375639" lon="16.0633817"><ele>529.3333333333334</ele><time>2026-04-06T13:17:58.869Z</time></trkpt><trkpt lat="40.3377428" lon="16.0634719"><ele>526.6666666666666</ele><time>2026-04-06T13:17:59.868Z</time></trkpt><trkpt lat="40.3379297" lon="16.0635302"><ele>524.0</ele><time>2026-04-06T13:18:00.868Z</time></trkpt><trkpt lat="40.3381244" lon="16.0635557"><ele>523.6666666666666</ele><time>2026-04-06T13:18:01.868Z</time></trkpt><trkpt lat="40.3383281" lon="16.0635629"><ele>523.3333333333334</ele><time>2026-04-06T13:18:02.868Z</time></trkpt><trkpt lat="40.3385302" lon="16.0635703"><ele>523.0</ele><time>2026-04-06T13:18:03.868Z</time></trkpt><trkpt lat="40.3387336" lon="16.0635778"><ele>522.0</ele><time>2026-04-06T13:18:04.869Z</time></trkpt><trkpt lat="40.3389362" lon="16.0635918"><ele>521.0</ele><time>2026-04-06T13:18:05.868Z</time></trkpt><trkpt lat="40.3391409" lon="16.0636236"><ele>520.0</ele><time>2026-04-06T13:18:06.868Z</time></trkpt><trkpt lat="40.339346" lon="16.0636794"><ele>520.0</ele><time>2026-04-06T13:18:07.868Z</time></trkpt><trkpt lat="40.3395471" lon="16.0637519"><ele>520.0</ele><time>2026-04-06T13:18:08.868Z</time></trkpt><trkpt lat="40.3397469" lon="16.0638442"><ele>520.0</ele><time>2026-04-06T13:18:09.869Z</time></trkpt><trkpt lat="40.3399409" lon="16.0639572"><ele>523.3333333333334</ele><time>2026-04-06T13:18:10.868Z</time></trkpt><trkpt lat="40.3401292" lon="16.0640961"><ele>526.6666666666666</ele><time>2026-04-06T13:18:11.868Z</time></trkpt><trkpt lat="40.3403116" lon="16.0642514"><ele>530.0</ele><time>2026-04-06T13:18:12.868Z</time></trkpt><trkpt lat="40.3404952" lon="16.0644132"><ele>527.3333333333333</ele><time>2026-04-06T13:18:13.868Z</time></trkpt><trkpt lat="40.3406784" lon="16.0645774"><ele>524.6666666666666</ele><time>2026-04-06T13:18:14.868Z</time></trkpt><trkpt lat="40.3408608" lon="16.064741"><ele>522.0</ele><time>2026-04-06T13:18:15.869Z</time></trkpt><trkpt lat="40.3410451" lon="16.0649008"><ele>518.0</ele><time>2026-04-06T13:18:16.868Z</time></trkpt><trkpt lat="40.3412288" lon="16.0650619"><ele>514.0</ele><time>2026-04-06T13:18:17.868Z</time></trkpt><trkpt lat="40.3414149" lon="16.0652209"><ele>510.0</ele><time>2026-04-06T13:18:18.868Z</time></trkpt><trkpt lat="40.3415991" lon="16.0653774"><ele>510.0</ele><time>2026-04-06T13:18:19.868Z</time></trkpt><trkpt lat="40.3417867" lon="16.0655313"><ele>510.0</ele><time>2026-04-06T13:18:20.868Z</time></trkpt><trkpt lat="40.341975" lon="16.0656856"><ele>510.0</ele><time>2026-04-06T13:18:21.868Z</time></trkpt><trkpt lat="40.342162" lon="16.065838"><ele>506.33333333333337</ele><time>2026-04-06T13:18:22.868Z</time></trkpt><trkpt lat="40.3423465" lon="16.0659906"><ele>502.6666666666667</ele><time>2026-04-06T13:18:23.869Z</time></trkpt><trkpt lat="40.3425339" lon="16.0661376"><ele>499.0</ele><time>2026-04-06T13:18:24.868Z</time></trkpt><trkpt lat="40.3427197" lon="16.0662896"><ele>499.0</ele><time>2026-04-06T13:18:25.868Z</time></trkpt><trkpt lat="40.3429087" lon="16.0664431"><ele>499.0</ele><time>2026-04-06T13:18:26.868Z</time></trkpt><trkpt lat="40.3431" lon="16.066595"><ele>499.0</ele><time>2026-04-06T13:18:27.868Z</time></trkpt><trkpt lat="40.3432942" lon="16.0667492"><ele>497.5</ele><time>2026-04-06T13:18:28.868Z</time></trkpt><trkpt lat="40.3434863" lon="16.0669092"><ele>496.0</ele><time>2026-04-06T13:18:29.869Z</time></trkpt><trkpt lat="40.3436742" lon="16.0670761"><ele>496.0</ele><time>2026-04-06T13:18:30.869Z</time></trkpt><trkpt lat="40.3438497" lon="16.0672534"><ele>496.0</ele><time>2026-04-06T13:18:31.868Z</time></trkpt><trkpt lat="40.3440152" lon="16.067447"><ele>496.0</ele><time>2026-04-06T13:18:32.868Z</time></trkpt><trkpt lat="40.3441618" lon="16.0676564"><ele>495.33333333333337</ele><time>2026-04-06T13:18:33.868Z</time></trkpt><trkpt lat="40.3442993" lon="16.0678824"><ele>494.66666666666663</ele><time>2026-04-06T13:18:34.868Z</time></trkpt><trkpt lat="40.3444261" lon="16.0681209"><ele>494.0</ele><time>2026-04-06T13:18:35.869Z</time></trkpt><trkpt lat="40.344543" lon="16.0683719"><ele>495.0</ele><time>2026-04-06T13:18:36.868Z</time></trkpt><trkpt lat="40.3446573" lon="16.0686262"><ele>496.0</ele><time>2026-04-06T13:18:37.868Z</time></trkpt><trkpt lat="40.3447717" lon="16.0688767"><ele>497.0</ele><time>2026-04-06T13:18:38.869Z</time></trkpt><trkpt lat="40.3448891" lon="16.0691257"><ele>493.66666666666663</ele><time>2026-04-06T13:18:39.868Z</time></trkpt><trkpt lat="40.3450135" lon="16.0693702"><ele>490.33333333333337</ele><time>2026-04-06T13:18:40.869Z</time></trkpt><trkpt lat="40.3451384" lon="16.0696136"><ele>487.0</ele><time>2026-04-06T13:18:41.868Z</time></trkpt><trkpt lat="40.3452626" lon="16.069858"><ele>484.5</ele><time>2026-04-06T13:18:42.869Z</time></trkpt><trkpt lat="40.3453926" lon="16.0701045"><ele>482.0</ele><time>2026-04-06T13:18:43.868Z</time></trkpt><trkpt lat="40.3455215" lon="16.0703531"><ele>481.5</ele><time>2026-04-06T13:18:44.868Z</time></trkpt><trkpt lat="40.3456486" lon="16.0706057"><ele>481.0</ele><time>2026-04-06T13:18:45.868Z</time></trkpt><trkpt lat="40.3457741" lon="16.0708644"><ele>481.0</ele><time>2026-04-06T13:18:46.868Z</time></trkpt><trkpt lat="40.3459023" lon="16.0711219"><ele>481.0</ele><time>2026-04-06T13:18:47.868Z</time></trkpt><trkpt lat="40.3460308" lon="16.071379"><ele>479.0</ele><time>2026-04-06T13:18:48.868Z</time></trkpt><trkpt lat="40.3461611" lon="16.0716331"><ele>477.0</ele><time>2026-04-06T13:18:49.868Z</time></trkpt><trkpt lat="40.3462996" lon="16.0718859"><ele>478.5</ele><time>2026-04-06T13:18:50.868Z</time></trkpt><trkpt lat="40.3464466" lon="16.0721334"><ele>480.0</ele><time>2026-04-06T13:18:51.868Z</time></trkpt><trkpt lat="40.3465987" lon="16.0723758"><ele>477.0</ele><time>2026-04-06T13:18:52.868Z</time></trkpt><trkpt lat="40.3467515" lon="16.072617"><ele>474.0</ele><time>2026-04-06T13:18:53.868Z</time></trkpt><trkpt lat="40.3469052" lon="16.0728569"><ele>474.0</ele><time>2026-04-06T13:18:54.869Z</time></trkpt><trkpt lat="40.3470627" lon="16.0731017"><ele>474.0</ele><time>2026-04-06T13:18:55.869Z</time></trkpt><trkpt lat="40.3472223" lon="16.0733446"><ele>472.5</ele><time>2026-04-06T13:18:56.868Z</time></trkpt><trkpt lat="40.3473814" lon="16.0735827"><ele>471.0</ele><time>2026-04-06T13:18:57.869Z</time></trkpt><trkpt lat="40.3475401" lon="16.0738232"><ele>471.0</ele><time>2026-04-06T13:18:58.868Z</time></trkpt><trkpt lat="40.3476974" lon="16.0740634"><ele>471.0</ele><time>2026-04-06T13:18:59.869Z</time></trkpt><trkpt lat="40.347858" lon="16.0743044"><ele>471.0</ele><time>2026-04-06T13:19:00.868Z</time></trkpt><trkpt lat="40.3480198" lon="16.074544"><ele>471.0</ele><time>2026-04-06T13:19:01.868Z</time></trkpt><trkpt lat="40.3481765" lon="16.0747837"><ele>469.0</ele><time>2026-04-06T13:19:02.868Z</time></trkpt><trkpt lat="40.34833" lon="16.0750243"><ele>467.0</ele><time>2026-04-06T13:19:03.869Z</time></trkpt><trkpt lat="40.3484828" lon="16.0752662"><ele>467.0</ele><time>2026-04-06T13:19:04.868Z</time></trkpt><trkpt lat="40.3486367" lon="16.0755017"><ele>467.0</ele><time>2026-04-06T13:19:05.868Z</time></trkpt><trkpt lat="40.3487884" lon="16.0757357"><ele>465.5</ele><time>2026-04-06T13:19:06.868Z</time></trkpt><trkpt lat="40.3489351" lon="16.075964"><ele>464.0</ele><time>2026-04-06T13:19:07.868Z</time></trkpt><trkpt lat="40.3490825" lon="16.0761901"><ele>464.0</ele><time>2026-04-06T13:19:08.868Z</time></trkpt><trkpt lat="40.3492264" lon="16.0764145"><ele>464.0</ele><time>2026-04-06T13:19:09.868Z</time></trkpt><trkpt lat="40.3493683" lon="16.0766338"><ele>464.0</ele><time>2026-04-06T13:19:10.868Z</time></trkpt><trkpt lat="40.3495108" lon="16.0768493"><ele>463.66666666666663</ele><time>2026-04-06T13:19:11.868Z</time></trkpt><trkpt lat="40.3496522" lon="16.07706"><ele>463.33333333333337</ele><time>2026-04-06T13:19:12.868Z</time></trkpt><trkpt lat="40.3497908" lon="16.0772719"><ele>463.0</ele><time>2026-04-06T13:19:13.869Z</time></trkpt><trkpt lat="40.3499277" lon="16.0774795"><ele>463.0</ele><time>2026-04-06T13:19:14.868Z</time></trkpt><trkpt lat="40.3500603" lon="16.0776869"><ele>463.0</ele><time>2026-04-06T13:19:15.868Z</time></trkpt><trkpt lat="40.3501915" lon="16.0778878"><ele>463.0</ele><time>2026-04-06T13:19:16.868Z</time></trkpt><trkpt lat="40.3503251" lon="16.0780887"><ele>463.6666666666667</ele><time>2026-04-06T13:19:17.869Z</time></trkpt><trkpt lat="40.3504559" lon="16.0782912"><ele>464.33333333333337</ele><time>2026-04-06T13:19:18.868Z</time></trkpt><trkpt lat="40.3505833" lon="16.0784944"><ele>465.0</ele><time>2026-04-06T13:19:19.869Z</time></trkpt><trkpt lat="40.3507059" lon="16.0787"><ele>465.33333333333337</ele><time>2026-04-06T13:19:20.868Z</time></trkpt><trkpt lat="40.3508142" lon="16.0789211"><ele>465.6666666666667</ele><time>2026-04-06T13:19:21.869Z</time></trkpt><trkpt lat="40.3509055" lon="16.0791533"><ele>466.0</ele><time>2026-04-06T13:19:22.868Z</time></trkpt><trkpt lat="40.3509795" lon="16.0794042"><ele>465.6666666666667</ele><time>2026-04-06T13:19:23.868Z</time></trkpt><trkpt lat="40.3510395" lon="16.0796658"><ele>465.33333333333337</ele><time>2026-04-06T13:19:24.868Z</time></trkpt><trkpt lat="40.351086" lon="16.0799282"><ele>465.0</ele><time>2026-04-06T13:19:25.868Z</time></trkpt><trkpt lat="40.3511154" lon="16.080198"><ele>465.0</ele><time>2026-04-06T13:19:26.868Z</time></trkpt><trkpt lat="40.351127" lon="16.0804729"><ele>465.0</ele><time>2026-04-06T13:19:27.868Z</time></trkpt><trkpt lat="40.3511163" lon="16.0807474"><ele>465.0</ele><time>2026-04-06T13:19:28.868Z</time></trkpt><trkpt lat="40.3510915" lon="16.08102"><ele>464.66666666666663</ele><time>2026-04-06T13:19:29.868Z</time></trkpt><trkpt lat="40.3510473" lon="16.0812929"><ele>464.3333333333333</ele><time>2026-04-06T13:19:30.868Z</time></trkpt><trkpt lat="40.3509827" lon="16.0815594"><ele>464.0</ele><time>2026-04-06T13:19:31.868Z</time></trkpt><trkpt lat="40.3508994" lon="16.0818162"><ele>464.0</ele><time>2026-04-06T13:19:32.869Z</time></trkpt><trkpt lat="40.3508019" lon="16.0820638"><ele>464.0</ele><time>2026-04-06T13:19:33.869Z</time></trkpt><trkpt lat="40.3506915" lon="16.0823022"><ele>464.0</ele><time>2026-04-06T13:19:34.868Z</time></trkpt><trkpt lat="40.3505668" lon="16.0825319"><ele>463.3333333333333</ele><time>2026-04-06T13:19:35.868Z</time></trkpt><trkpt lat="40.3504284" lon="16.0827483"><ele>462.66666666666663</ele><time>2026-04-06T13:19:36.869Z</time></trkpt><trkpt lat="40.3502768" lon="16.0829557"><ele>462.0</ele><time>2026-04-06T13:19:37.869Z</time></trkpt><trkpt lat="40.3501199" lon="16.083158"><ele>461.0</ele><time>2026-04-06T13:19:38.868Z</time></trkpt><trkpt lat="40.3499621" lon="16.0833566"><ele>460.0</ele><time>2026-04-06T13:19:39.868Z</time></trkpt><trkpt lat="40.3498118" lon="16.0835552"><ele>459.0</ele><time>2026-04-06T13:19:40.869Z</time></trkpt><trkpt lat="40.3496702" lon="16.0837467"><ele>458.33333333333337</ele><time>2026-04-06T13:19:41.868Z</time></trkpt><trkpt lat="40.3495333" lon="16.0839287"><ele>457.6666666666667</ele><time>2026-04-06T13:19:42.868Z</time></trkpt><trkpt lat="40.3493987" lon="16.0841041"><ele>457.0</ele><time>2026-04-06T13:19:43.869Z</time></trkpt><trkpt lat="40.349267" lon="16.0842808"><ele>457.0</ele><time>2026-04-06T13:19:44.869Z</time></trkpt><trkpt lat="40.3491372" lon="16.0844527"><ele>457.0</ele><time>2026-04-06T13:19:45.868Z</time></trkpt><trkpt lat="40.349005" lon="16.0846305"><ele>457.0</ele><time>2026-04-06T13:19:46.868Z</time></trkpt><trkpt lat="40.3488724" lon="16.0848058"><ele>456.0</ele><time>2026-04-06T13:19:47.869Z</time></trkpt><trkpt lat="40.3487425" lon="16.084978"><ele>455.0</ele><time>2026-04-06T13:19:48.868Z</time></trkpt><trkpt lat="40.3486184" lon="16.0851537"><ele>454.0</ele><time>2026-04-06T13:19:49.868Z</time></trkpt><trkpt lat="40.3485068" lon="16.0853431"><ele>454.0</ele><time>2026-04-06T13:19:50.869Z</time></trkpt><trkpt lat="40.3484183" lon="16.0855536"><ele>454.0</ele><time>2026-04-06T13:19:51.868Z</time></trkpt><trkpt lat="40.3483526" lon="16.0857803"><ele>454.0</ele><time>2026-04-06T13:19:52.868Z</time></trkpt><trkpt lat="40.34831" lon="16.0860219"><ele>454.0</ele><time>2026-04-06T13:19:53.868Z</time></trkpt><trkpt lat="40.3482933" lon="16.086265"><ele>454.0</ele><time>2026-04-06T13:19:54.868Z</time></trkpt><trkpt lat="40.3483035" lon="16.0865081"><ele>454.0</ele><time>2026-04-06T13:19:55.868Z</time></trkpt><trkpt lat="40.3483416" lon="16.0867518"><ele>454.0</ele><time>2026-04-06T13:19:56.868Z</time></trkpt><trkpt lat="40.3484067" lon="16.086987"><ele>454.0</ele><time>2026-04-06T13:19:57.868Z</time></trkpt><trkpt lat="40.3484995" lon="16.0872042"><ele>454.0</ele><time>2026-04-06T13:19:58.868Z</time></trkpt><trkpt lat="40.3486133" lon="16.0873996"><ele>453.6666666666667</ele><time>2026-04-06T13:19:59.869Z</time></trkpt><trkpt lat="40.3487405" lon="16.0875662"><ele>453.33333333333337</ele><time>2026-04-06T13:20:00.868Z</time></trkpt><trkpt lat="40.3488768" lon="16.0876998"><ele>453.0</ele><time>2026-04-06T13:20:01.868Z</time></trkpt><trkpt lat="40.3490197" lon="16.0878022"><ele>454.66666666666663</ele><time>2026-04-06T13:20:02.868Z</time></trkpt><trkpt lat="40.3491712" lon="16.0878793"><ele>456.3333333333333</ele><time>2026-04-06T13:20:03.868Z</time></trkpt><trkpt lat="40.3493319" lon="16.0879348"><ele>458.0</ele><time>2026-04-06T13:20:04.868Z</time></trkpt><trkpt lat="40.3494974" lon="16.0879637"><ele>458.0</ele><time>2026-04-06T13:20:05.869Z</time></trkpt><trkpt lat="40.3496652" lon="16.0879651"><ele>458.0</ele><time>2026-04-06T13:20:06.868Z</time></trkpt><trkpt lat="40.3498342" lon="16.0879445"><ele>458.0</ele><time>2026-04-06T13:20:07.868Z</time></trkpt><trkpt lat="40.3500041" lon="16.087903"><ele>460.0</ele><time>2026-04-06T13:20:08.869Z</time></trkpt><trkpt lat="40.3501671" lon="16.0878433"><ele>462.0</ele><time>2026-04-06T13:20:09.868Z</time></trkpt><trkpt lat="40.3503122" lon="16.0877873"><ele>464.0</ele><time>2026-04-06T13:20:10.868Z</time></trkpt><trkpt lat="40.3504368" lon="16.0877393"><ele>464.6</ele><time>2026-04-06T13:20:11.869Z</time></trkpt><trkpt lat="40.350553" lon="16.0877097"><ele>465.2</ele><time>2026-04-06T13:20:12.868Z</time></trkpt><trkpt lat="40.3506517" lon="16.0877009"><ele>465.80000000000007</ele><time>2026-04-06T13:20:13.868Z</time></trkpt><trkpt lat="40.3507353" lon="16.0877122"><ele>466.40000000000003</ele><time>2026-04-06T13:20:14.868Z</time></trkpt><trkpt lat="40.3508022" lon="16.0877339"><ele>467.0</ele><time>2026-04-06T13:20:15.868Z</time></trkpt><trkpt lat="40.3508895" lon="16.0878084"><ele>467.0</ele><time>2026-04-06T13:20:17.869Z</time></trkpt><trkpt lat="40.3509054" lon="16.0879317"><ele>467.00000000000006</ele><time>2026-04-06T13:20:19.868Z</time></trkpt><trkpt lat="40.3508746" lon="16.0880119"><ele>467.00000000000006</ele><time>2026-04-06T13:20:20.868Z</time></trkpt><trkpt lat="40.3508193" lon="16.0881062"><ele>467.0</ele><time>2026-04-06T13:20:21.868Z</time></trkpt><trkpt lat="40.3507609" lon="16.0882101"><ele>467.0</ele><time>2026-04-06T13:20:22.868Z</time></trkpt><trkpt lat="40.3506999" lon="16.0883216"><ele>466.0</ele><time>2026-04-06T13:20:23.868Z</time></trkpt><trkpt lat="40.3506408" lon="16.0884444"><ele>465.0</ele><time>2026-04-06T13:20:24.869Z</time></trkpt><trkpt lat="40.3505844" lon="16.0885736"><ele>464.0</ele><time>2026-04-06T13:20:25.869Z</time></trkpt><trkpt lat="40.3505299" lon="16.0887092"><ele>463.0</ele><time>2026-04-06T13:20:26.868Z</time></trkpt><trkpt lat="40.350472" lon="16.088847"><ele>462.25</ele><time>2026-04-06T13:20:27.868Z</time></trkpt><trkpt lat="40.3504095" lon="16.0889874"><ele>461.5</ele><time>2026-04-06T13:20:28.869Z</time></trkpt><trkpt lat="40.3503455" lon="16.0891307"><ele>460.75</ele><time>2026-04-06T13:20:29.868Z</time></trkpt><trkpt lat="40.3502828" lon="16.0892784"><ele>460.0</ele><time>2026-04-06T13:20:30.868Z</time></trkpt><trkpt lat="40.3502235" lon="16.0894247"><ele>460.0</ele><time>2026-04-06T13:20:31.868Z</time></trkpt><trkpt lat="40.3501662" lon="16.0895728"><ele>460.0</ele><time>2026-04-06T13:20:32.868Z</time></trkpt><trkpt lat="40.3501067" lon="16.0897199"><ele>460.0</ele><time>2026-04-06T13:20:33.869Z</time></trkpt><trkpt lat="40.3500453" lon="16.0898677"><ele>460.0</ele><time>2026-04-06T13:20:34.869Z</time></trkpt><trkpt lat="40.3499876" lon="16.0900137"><ele>459.5</ele><time>2026-04-06T13:20:35.868Z</time></trkpt><trkpt lat="40.3499299" lon="16.0901604"><ele>459.0</ele><time>2026-04-06T13:20:36.868Z</time></trkpt><trkpt lat="40.3498727" lon="16.0903121"><ele>458.5</ele><time>2026-04-06T13:20:37.868Z</time></trkpt><trkpt lat="40.3498167" lon="16.0904565"><ele>458.0</ele><time>2026-04-06T13:20:38.868Z</time></trkpt><trkpt lat="40.3497538" lon="16.0906"><ele>458.0</ele><time>2026-04-06T13:20:39.868Z</time></trkpt><trkpt lat="40.349688" lon="16.0907494"><ele>458.0</ele><time>2026-04-06T13:20:40.868Z</time></trkpt><trkpt lat="40.3496255" lon="16.0908945"><ele>458.0</ele><time>2026-04-06T13:20:41.868Z</time></trkpt><trkpt lat="40.3495653" lon="16.091037"><ele>458.0</ele><time>2026-04-06T13:20:42.869Z</time></trkpt><trkpt lat="40.3495094" lon="16.0911809"><ele>457.79999999999995</ele><time>2026-04-06T13:20:43.868Z</time></trkpt><trkpt lat="40.3494566" lon="16.0913157"><ele>457.59999999999997</ele><time>2026-04-06T13:20:44.868Z</time></trkpt><trkpt lat="40.349404" lon="16.0914436"><ele>457.40000000000003</ele><time>2026-04-06T13:20:45.868Z</time></trkpt><trkpt lat="40.349362" lon="16.0915515"><ele>457.20000000000005</ele><time>2026-04-06T13:20:46.869Z</time></trkpt><trkpt lat="40.3493377" lon="16.0916465"><ele>457.0</ele><time>2026-04-06T13:20:47.868Z</time></trkpt><trkpt lat="40.3493377" lon="16.0917318"><ele>457.40000000000003</ele><time>2026-04-06T13:20:48.868Z</time></trkpt><trkpt lat="40.3494111" lon="16.0918586"><ele>457.80000000000007</ele><time>2026-04-06T13:20:50.868Z</time></trkpt><trkpt lat="40.3494737" lon="16.0918901"><ele>458.2</ele><time>2026-04-06T13:20:51.869Z</time></trkpt><trkpt lat="40.3495596" lon="16.0918851"><ele>458.6</ele><time>2026-04-06T13:20:52.869Z</time></trkpt><trkpt lat="40.3496508" lon="16.0918769"><ele>459.0</ele><time>2026-04-06T13:20:53.868Z</time></trkpt><trkpt lat="40.3497399" lon="16.0918882"><ele>459.0</ele><time>2026-04-06T13:20:54.868Z</time></trkpt><trkpt lat="40.3498311" lon="16.0919184"><ele>459.0</ele><time>2026-04-06T13:20:55.869Z</time></trkpt><trkpt lat="40.3499276" lon="16.0919543"><ele>459.0</ele><time>2026-04-06T13:20:56.868Z</time></trkpt><trkpt lat="40.3500269" lon="16.0919926"><ele>459.0</ele><time>2026-04-06T13:20:57.868Z</time></trkpt><trkpt lat="40.3501306" lon="16.0920269"><ele>459.0</ele><time>2026-04-06T13:20:58.868Z</time></trkpt><trkpt lat="40.3502364" lon="16.0920632"><ele>459.0</ele><time>2026-04-06T13:20:59.868Z</time></trkpt><trkpt lat="40.3503439" lon="16.0921029"><ele>459.0</ele><time>2026-04-06T13:21:00.868Z</time></trkpt><trkpt lat="40.350454" lon="16.0921397"><ele>459.0</ele><time>2026-04-06T13:21:01.868Z</time></trkpt><trkpt lat="40.350563" lon="16.092182"><ele>459.0</ele><time>2026-04-06T13:21:02.868Z</time></trkpt><trkpt lat="40.3506727" lon="16.0922259"><ele>461.5</ele><time>2026-04-06T13:21:03.868Z</time></trkpt><trkpt lat="40.3507875" lon="16.0922795"><ele>464.0</ele><time>2026-04-06T13:21:04.868Z</time></trkpt><trkpt lat="40.3509012" lon="16.0923286"><ele>466.5</ele><time>2026-04-06T13:21:05.868Z</time></trkpt><trkpt lat="40.3510137" lon="16.0923771"><ele>469.0</ele><time>2026-04-06T13:21:06.868Z</time></trkpt><trkpt lat="40.3511232" lon="16.0924203"><ele>468.75</ele><time>2026-04-06T13:21:07.868Z</time></trkpt><trkpt lat="40.3512342" lon="16.092463"><ele>468.5</ele><time>2026-04-06T13:21:08.868Z</time></trkpt><trkpt lat="40.3513429" lon="16.0925115"><ele>468.25</ele><time>2026-04-06T13:21:09.868Z</time></trkpt><trkpt lat="40.3514487" lon="16.0925596"><ele>468.0</ele><time>2026-04-06T13:21:10.868Z</time></trkpt><trkpt lat="40.3515578" lon="16.0926092"><ele>471.0</ele><time>2026-04-06T13:21:11.867Z</time></trkpt><trkpt lat="40.3516692" lon="16.0926547"><ele>474.0</ele><time>2026-04-06T13:21:12.868Z</time></trkpt><trkpt lat="40.3517749" lon="16.0926985"><ele>477.0</ele><time>2026-04-06T13:21:13.867Z</time></trkpt><trkpt lat="40.3518836" lon="16.0927418"><ele>480.0</ele><time>2026-04-06T13:21:14.867Z</time></trkpt><trkpt lat="40.3519916" lon="16.0927709"><ele>480.0</ele><time>2026-04-06T13:21:15.867Z</time></trkpt><trkpt lat="40.3520947" lon="16.09276"><ele>480.0</ele><time>2026-04-06T13:21:16.867Z</time></trkpt><trkpt lat="40.352196" lon="16.0927058"><ele>480.0</ele><time>2026-04-06T13:21:17.867Z</time></trkpt><trkpt lat="40.352297" lon="16.0926263"><ele>480.0</ele><time>2026-04-06T13:21:18.868Z</time></trkpt><trkpt lat="40.3523985" lon="16.0925399"><ele>482.5</ele><time>2026-04-06T13:21:19.867Z</time></trkpt><trkpt lat="40.3525038" lon="16.0924551"><ele>485.0</ele><time>2026-04-06T13:21:20.867Z</time></trkpt><trkpt lat="40.3526092" lon="16.0923726"><ele>487.5</ele><time>2026-04-06T13:21:21.867Z</time></trkpt><trkpt lat="40.3527109" lon="16.0922959"><ele>490.0</ele><time>2026-04-06T13:21:22.867Z</time></trkpt><trkpt lat="40.3528161" lon="16.092216"><ele>490.0</ele><time>2026-04-06T13:21:23.867Z</time></trkpt><trkpt lat="40.3529178" lon="16.0921323"><ele>490.0</ele><time>2026-04-06T13:21:24.867Z</time></trkpt><trkpt lat="40.3530109" lon="16.0920574"><ele>490.0</ele><time>2026-04-06T13:21:25.868Z</time></trkpt><trkpt lat="40.3530995" lon="16.0920116"><ele>490.0</ele><time>2026-04-06T13:21:26.867Z</time></trkpt><trkpt lat="40.3531822" lon="16.0920075"><ele>490.0</ele><time>2026-04-06T13:21:27.867Z</time></trkpt><trkpt lat="40.3532571" lon="16.0920425"><ele>493.0</ele><time>2026-04-06T13:21:28.867Z</time></trkpt><trkpt lat="40.3532951" lon="16.0921348"><ele>496.0</ele><time>2026-04-06T13:21:29.867Z</time></trkpt><trkpt lat="40.3533055" lon="16.0922643"><ele>499.0</ele><time>2026-04-06T13:21:30.867Z</time></trkpt><trkpt lat="40.3533035" lon="16.0924107"><ele>502.0</ele><time>2026-04-06T13:21:31.868Z</time></trkpt><trkpt lat="40.3532972" lon="16.0925628"><ele>505.0</ele><time>2026-04-06T13:21:32.868Z</time></trkpt><trkpt lat="40.3532913" lon="16.0927163"><ele>505.75</ele><time>2026-04-06T13:21:33.868Z</time></trkpt><trkpt lat="40.3532904" lon="16.0928665"><ele>506.5</ele><time>2026-04-06T13:21:34.867Z</time></trkpt><trkpt lat="40.3532889" lon="16.0930187"><ele>507.25</ele><time>2026-04-06T13:21:35.867Z</time></trkpt><trkpt lat="40.3532896" lon="16.0931663"><ele>508.0</ele><time>2026-04-06T13:21:36.867Z</time></trkpt><trkpt lat="40.3532869" lon="16.0933171"><ele>509.0</ele><time>2026-04-06T13:21:37.867Z</time></trkpt><trkpt lat="40.3532797" lon="16.0934646"><ele>509.99999999999994</ele><time>2026-04-06T13:21:38.867Z</time></trkpt><trkpt lat="40.3532779" lon="16.0936073"><ele>510.99999999999994</ele><time>2026-04-06T13:21:39.867Z</time></trkpt><trkpt lat="40.3532878" lon="16.0937371"><ele>512.0</ele><time>2026-04-06T13:21:40.867Z</time></trkpt><trkpt lat="40.3533304" lon="16.0938459"><ele>513.0</ele><time>2026-04-06T13:21:41.867Z</time></trkpt><trkpt lat="40.3533984" lon="16.0939135"><ele>513.0</ele><time>2026-04-06T13:21:42.867Z</time></trkpt><trkpt lat="40.3534888" lon="16.0939277"><ele>513.0</ele><time>2026-04-06T13:21:43.868Z</time></trkpt><trkpt lat="40.3535916" lon="16.0938989"><ele>513.0</ele><time>2026-04-06T13:21:44.867Z</time></trkpt><trkpt lat="40.3536996" lon="16.0938488"><ele>513.0</ele><time>2026-04-06T13:21:45.867Z</time></trkpt><trkpt lat="40.3538128" lon="16.0937939"><ele>513.0</ele><time>2026-04-06T13:21:46.868Z</time></trkpt><trkpt lat="40.3539274" lon="16.0937415"><ele>517.5</ele><time>2026-04-06T13:21:47.867Z</time></trkpt><trkpt lat="40.3540392" lon="16.0936896"><ele>522.0</ele><time>2026-04-06T13:21:48.868Z</time></trkpt><trkpt lat="40.3541475" lon="16.093633"><ele>526.5</ele><time>2026-04-06T13:21:49.867Z</time></trkpt><trkpt lat="40.3542571" lon="16.0935799"><ele>531.0</ele><time>2026-04-06T13:21:50.867Z</time></trkpt><trkpt lat="40.3543671" lon="16.0935258"><ele>531.0</ele><time>2026-04-06T13:21:51.867Z</time></trkpt><trkpt lat="40.3544784" lon="16.09347"><ele>531.0</ele><time>2026-04-06T13:21:52.867Z</time></trkpt><trkpt lat="40.3545939" lon="16.0934206"><ele>531.0</ele><time>2026-04-06T13:21:53.867Z</time></trkpt><trkpt lat="40.3547133" lon="16.0933869"><ele>531.0</ele><time>2026-04-06T13:21:54.867Z</time></trkpt><trkpt lat="40.3548338" lon="16.0933731"><ele>533.75</ele><time>2026-04-06T13:21:55.868Z</time></trkpt><trkpt lat="40.3549535" lon="16.0933789"><ele>536.5</ele><time>2026-04-06T13:21:56.867Z</time></trkpt><trkpt lat="40.3550766" lon="16.093396"><ele>539.25</ele><time>2026-04-06T13:21:57.867Z</time></trkpt><trkpt lat="40.3552003" lon="16.0934133"><ele>542.0</ele><time>2026-04-06T13:21:58.867Z</time></trkpt><trkpt lat="40.3553265" lon="16.0934357"><ele>542.0</ele><time>2026-04-06T13:21:59.868Z</time></trkpt><trkpt lat="40.3554544" lon="16.0934642"><ele>542.0</ele><time>2026-04-06T13:22:00.868Z</time></trkpt><trkpt lat="40.3555855" lon="16.0934934"><ele>542.0</ele><time>2026-04-06T13:22:01.868Z</time></trkpt><trkpt lat="40.3557173" lon="16.0935194"><ele>542.0</ele><time>2026-04-06T13:22:02.867Z</time></trkpt><trkpt lat="40.3558481" lon="16.093542"><ele>543.75</ele><time>2026-04-06T13:22:03.867Z</time></trkpt><trkpt lat="40.3559783" lon="16.0935632"><ele>545.5</ele><time>2026-04-06T13:22:04.867Z</time></trkpt><trkpt lat="40.3561096" lon="16.0935843"><ele>547.25</ele><time>2026-04-06T13:22:05.867Z</time></trkpt><trkpt lat="40.3562411" lon="16.0936127"><ele>549.0</ele><time>2026-04-06T13:22:06.868Z</time></trkpt><trkpt lat="40.3563744" lon="16.0936504"><ele>549.0</ele><time>2026-04-06T13:22:07.867Z</time></trkpt><trkpt lat="40.3565164" lon="16.0937025"><ele>549.0</ele><time>2026-04-06T13:22:08.867Z</time></trkpt><trkpt lat="40.3566674" lon="16.0937633"><ele>549.0</ele><time>2026-04-06T13:22:09.867Z</time></trkpt><trkpt lat="40.3568289" lon="16.0938297"><ele>549.0</ele><time>2026-04-06T13:22:10.867Z</time></trkpt><trkpt lat="40.3569904" lon="16.0938951"><ele>549.0</ele><time>2026-04-06T13:22:11.868Z</time></trkpt><trkpt lat="40.3571495" lon="16.0939582"><ele>549.0</ele><time>2026-04-06T13:22:12.867Z</time></trkpt><trkpt lat="40.3573112" lon="16.0940222"><ele>550.0</ele><time>2026-04-06T13:22:13.867Z</time></trkpt><trkpt lat="40.3574757" lon="16.0940807"><ele>551.0</ele><time>2026-04-06T13:22:14.867Z</time></trkpt><trkpt lat="40.3576396" lon="16.0941417"><ele>552.0</ele><time>2026-04-06T13:22:15.867Z</time></trkpt><trkpt lat="40.3578009" lon="16.094187"><ele>560.0</ele><time>2026-04-06T13:22:16.867Z</time></trkpt><trkpt lat="40.3579646" lon="16.0942296"><ele>568.0</ele><time>2026-04-06T13:22:17.868Z</time></trkpt><trkpt lat="40.3581265" lon="16.0942691"><ele>576.0</ele><time>2026-04-06T13:22:18.868Z</time></trkpt><trkpt lat="40.3582841" lon="16.0943046"><ele>578.0</ele><time>2026-04-06T13:22:19.867Z</time></trkpt><trkpt lat="40.3584405" lon="16.0943473"><ele>580.0</ele><time>2026-04-06T13:22:20.867Z</time></trkpt><trkpt lat="40.3585929" lon="16.0943976"><ele>582.0</ele><time>2026-04-06T13:22:21.867Z</time></trkpt><trkpt lat="40.3587418" lon="16.0944565"><ele>580.6666666666666</ele><time>2026-04-06T13:22:22.867Z</time></trkpt><trkpt lat="40.3588858" lon="16.0945288"><ele>579.3333333333333</ele><time>2026-04-06T13:22:23.867Z</time></trkpt><trkpt lat="40.3590299" lon="16.0946147"><ele>578.0</ele><time>2026-04-06T13:22:24.867Z</time></trkpt><trkpt lat="40.3591756" lon="16.0947018"><ele>578.0</ele><time>2026-04-06T13:22:25.867Z</time></trkpt><trkpt lat="40.3593258" lon="16.0947911"><ele>578.0</ele><time>2026-04-06T13:22:26.868Z</time></trkpt><trkpt lat="40.3594761" lon="16.0948815"><ele>578.0</ele><time>2026-04-06T13:22:27.867Z</time></trkpt><trkpt lat="40.3596279" lon="16.0949688"><ele>585.6666666666666</ele><time>2026-04-06T13:22:28.867Z</time></trkpt><trkpt lat="40.3597842" lon="16.0950414"><ele>593.3333333333334</ele><time>2026-04-06T13:22:29.867Z</time></trkpt><trkpt lat="40.3599454" lon="16.0950927"><ele>601.0</ele><time>2026-04-06T13:22:30.867Z</time></trkpt><trkpt lat="40.3601077" lon="16.0951317"><ele>601.0</ele><time>2026-04-06T13:22:31.867Z</time></trkpt><trkpt lat="40.3602623" lon="16.095167"><ele>601.0</ele><time>2026-04-06T13:22:32.867Z</time></trkpt><trkpt lat="40.3604178" lon="16.0952101"><ele>601.0</ele><time>2026-04-06T13:22:33.868Z</time></trkpt><trkpt lat="40.36058" lon="16.0952538"><ele>604.0</ele><time>2026-04-06T13:22:34.867Z</time></trkpt><trkpt lat="40.3607419" lon="16.0952855"><ele>607.0</ele><time>2026-04-06T13:22:35.867Z</time></trkpt><trkpt lat="40.3609013" lon="16.0953055"><ele>610.0</ele><time>2026-04-06T13:22:36.867Z</time></trkpt><trkpt lat="40.3610585" lon="16.095308"><ele>610.0</ele><time>2026-04-06T13:22:37.867Z</time></trkpt><trkpt lat="40.3612151" lon="16.0953035"><ele>610.0</ele><time>2026-04-06T13:22:38.867Z</time></trkpt><trkpt lat="40.3613676" lon="16.0952839"><ele>610.0</ele><time>2026-04-06T13:22:39.867Z</time></trkpt><trkpt lat="40.3615187" lon="16.0952529"><ele>612.5</ele><time>2026-04-06T13:22:40.867Z</time></trkpt><trkpt lat="40.3616657" lon="16.0952156"><ele>615.0</ele><time>2026-04-06T13:22:41.867Z</time></trkpt><trkpt lat="40.3618093" lon="16.0951945"><ele>617.5</ele><time>2026-04-06T13:22:42.867Z</time></trkpt><trkpt lat="40.3619482" lon="16.0952104"><ele>620.0</ele><time>2026-04-06T13:22:43.867Z</time></trkpt><trkpt lat="40.362076" lon="16.0952743"><ele>621.6666666666666</ele><time>2026-04-06T13:22:44.867Z</time></trkpt><trkpt lat="40.3622129" lon="16.095354"><ele>623.3333333333334</ele><time>2026-04-06T13:22:45.867Z</time></trkpt><trkpt lat="40.362356" lon="16.0954261"><ele>625.0</ele><time>2026-04-06T13:22:46.868Z</time></trkpt><trkpt lat="40.3624992" lon="16.0954846"><ele>625.0</ele><time>2026-04-06T13:22:47.868Z</time></trkpt><trkpt lat="40.3626414" lon="16.0955157"><ele>625.0</ele><time>2026-04-06T13:22:48.867Z</time></trkpt><trkpt lat="40.3627821" lon="16.0955029"><ele>625.0</ele><time>2026-04-06T13:22:49.867Z</time></trkpt><trkpt lat="40.362925" lon="16.0954421"><ele>625.0</ele><time>2026-04-06T13:22:50.867Z</time></trkpt><trkpt lat="40.3630696" lon="16.0953521"><ele>629.0</ele><time>2026-04-06T13:22:51.868Z</time></trkpt><trkpt lat="40.3632157" lon="16.0952526"><ele>633.0</ele><time>2026-04-06T13:22:52.867Z</time></trkpt><trkpt lat="40.3633575" lon="16.0951561"><ele>637.0</ele><time>2026-04-06T13:22:53.868Z</time></trkpt><trkpt lat="40.363502" lon="16.0950636"><ele>637.0</ele><time>2026-04-06T13:22:54.867Z</time></trkpt><trkpt lat="40.3636497" lon="16.094981"><ele>637.0</ele><time>2026-04-06T13:22:55.867Z</time></trkpt><trkpt lat="40.3638032" lon="16.0949018"><ele>637.0</ele><time>2026-04-06T13:22:56.867Z</time></trkpt><trkpt lat="40.3639618" lon="16.0948247"><ele>635.3333333333334</ele><time>2026-04-06T13:22:57.868Z</time></trkpt><trkpt lat="40.3641169" lon="16.094746"><ele>633.6666666666666</ele><time>2026-04-06T13:22:58.867Z</time></trkpt><trkpt lat="40.3642751" lon="16.0946797"><ele>632.0</ele><time>2026-04-06T13:22:59.867Z</time></trkpt><trkpt lat="40.3644342" lon="16.0946367"><ele>632.0</ele><time>2026-04-06T13:23:00.867Z</time></trkpt><trkpt lat="40.364596" lon="16.0946124"><ele>632.0</ele><time>2026-04-06T13:23:01.867Z</time></trkpt><trkpt lat="40.3647593" lon="16.0945925"><ele>632.0</ele><time>2026-04-06T13:23:02.868Z</time></trkpt><trkpt lat="40.3649172" lon="16.0945711"><ele>637.0</ele><time>2026-04-06T13:23:03.868Z</time></trkpt><trkpt lat="40.3650652" lon="16.0945432"><ele>642.0</ele><time>2026-04-06T13:23:04.867Z</time></trkpt><trkpt lat="40.3651943" lon="16.0945029"><ele>647.0</ele><time>2026-04-06T13:23:05.867Z</time></trkpt><trkpt lat="40.3653042" lon="16.0944603"><ele>652.0</ele><time>2026-04-06T13:23:06.867Z</time></trkpt><trkpt lat="40.3654076" lon="16.0944284"><ele>652.0</ele><time>2026-04-06T13:23:07.867Z</time></trkpt><trkpt lat="40.3655064" lon="16.0944257"><ele>652.0</ele><time>2026-04-06T13:23:08.867Z</time></trkpt><trkpt lat="40.36559" lon="16.0944705"><ele>652.0</ele><time>2026-04-06T13:23:09.867Z</time></trkpt><trkpt lat="40.3656538" lon="16.0945711"><ele>652.0</ele><time>2026-04-06T13:23:10.867Z</time></trkpt><trkpt lat="40.3656979" lon="16.0947155"><ele>652.0</ele><time>2026-04-06T13:23:11.867Z</time></trkpt><trkpt lat="40.3657145" lon="16.0948886"><ele>655.0</ele><time>2026-04-06T13:23:12.868Z</time></trkpt><trkpt lat="40.3657005" lon="16.0950783"><ele>658.0</ele><time>2026-04-06T13:23:13.867Z</time></trkpt><trkpt lat="40.3656703" lon="16.0952821"><ele>661.0</ele><time>2026-04-06T13:23:14.867Z</time></trkpt><trkpt lat="40.3656294" lon="16.095487"><ele>661.0</ele><time>2026-04-06T13:23:15.867Z</time></trkpt><trkpt lat="40.3656006" lon="16.095686"><ele>661.0</ele><time>2026-04-06T13:23:16.867Z</time></trkpt><trkpt lat="40.3655789" lon="16.0958782"><ele>661.0</ele><time>2026-04-06T13:23:17.867Z</time></trkpt><trkpt lat="40.3655577" lon="16.0960555"><ele>661.0</ele><time>2026-04-06T13:23:18.867Z</time></trkpt><trkpt lat="40.3655434" lon="16.0962252"><ele>661.0</ele><time>2026-04-06T13:23:19.868Z</time></trkpt><trkpt lat="40.3655474" lon="16.096393"><ele>661.0</ele><time>2026-04-06T13:23:20.867Z</time></trkpt><trkpt lat="40.3655653" lon="16.0965602"><ele>661.0</ele><time>2026-04-06T13:23:21.868Z</time></trkpt><trkpt lat="40.3656048" lon="16.0967309"><ele>661.0</ele><time>2026-04-06T13:23:22.867Z</time></trkpt><trkpt lat="40.3656627" lon="16.0968933"><ele>662.5</ele><time>2026-04-06T13:23:23.867Z</time></trkpt><trkpt lat="40.3657331" lon="16.0970517"><ele>664.0</ele><time>2026-04-06T13:23:24.867Z</time></trkpt><trkpt lat="40.3658069" lon="16.0972031"><ele>665.5</ele><time>2026-04-06T13:23:25.867Z</time></trkpt><trkpt lat="40.3658895" lon="16.0973411"><ele>667.0</ele><time>2026-04-06T13:23:26.868Z</time></trkpt><trkpt lat="40.3659808" lon="16.0974481"><ele>669.4000000000001</ele><time>2026-04-06T13:23:27.868Z</time></trkpt><trkpt lat="40.3660873" lon="16.0975102"><ele>671.8000000000001</ele><time>2026-04-06T13:23:28.868Z</time></trkpt><trkpt lat="40.3662001" lon="16.0975427"><ele>674.2</ele><time>2026-04-06T13:23:29.868Z</time></trkpt><trkpt lat="40.3663011" lon="16.0975635"><ele>676.6</ele><time>2026-04-06T13:23:30.867Z</time></trkpt><trkpt lat="40.3663841" lon="16.0975931"><ele>679.0</ele><time>2026-04-06T13:23:31.867Z</time></trkpt><trkpt lat="40.3664715" lon="16.0976527"><ele>679.0</ele><time>2026-04-06T13:23:33.867Z</time></trkpt><trkpt lat="40.3664744" lon="16.0977385"><ele>679.0</ele><time>2026-04-06T13:23:36.867Z</time></trkpt><trkpt lat="40.3663948" lon="16.0978157"><ele>679.0</ele><time>2026-04-06T13:23:38.868Z</time></trkpt><trkpt lat="40.3663327" lon="16.097849"><ele>679.0</ele><time>2026-04-06T13:23:39.867Z</time></trkpt><trkpt lat="40.3662706" lon="16.0978818"><ele>679.0</ele><time>2026-04-06T13:23:40.867Z</time></trkpt><trkpt lat="40.3662102" lon="16.0979178"><ele>679.0</ele><time>2026-04-06T13:23:41.867Z</time></trkpt><trkpt lat="40.3661508" lon="16.0979633"><ele>679.0</ele><time>2026-04-06T13:23:42.868Z</time></trkpt><trkpt lat="40.3660947" lon="16.0980055"><ele>679.0</ele><time>2026-04-06T13:23:43.868Z</time></trkpt><trkpt lat="40.3659883" lon="16.0980792"><ele>679.0</ele><time>2026-04-06T13:23:45.867Z</time></trkpt><trkpt lat="40.3658655" lon="16.098121"><ele>679.0</ele><time>2026-04-06T13:23:47.867Z</time></trkpt><trkpt lat="40.3657666" lon="16.0981229"><ele>679.0</ele><time>2026-04-06T13:23:49.867Z</time></trkpt><trkpt lat="40.3656789" lon="16.0981078"><ele>679.0</ele><time>2026-04-06T13:23:51.868Z</time></trkpt><trkpt lat="40.365547" lon="16.0980691"><ele>681.3333333333334</ele><time>2026-04-06T13:23:53.867Z</time></trkpt><trkpt lat="40.365475" lon="16.0980381"><ele>683.6666666666667</ele><time>2026-04-06T13:23:54.867Z</time></trkpt><trkpt lat="40.3653997" lon="16.0979819"><ele>686.0</ele><time>2026-04-06T13:23:55.867Z</time></trkpt><trkpt lat="40.3653396" lon="16.0979015"><ele>688.3333333333334</ele><time>2026-04-06T13:23:56.868Z</time></trkpt><trkpt lat="40.3653074" lon="16.0978064"><ele>690.6666666666666</ele><time>2026-04-06T13:23:57.868Z</time></trkpt><trkpt lat="40.365297" lon="16.0977062"><ele>693.0</ele><time>2026-04-06T13:23:58.867Z</time></trkpt><trkpt lat="40.3653015" lon="16.0976072"><ele>693.0</ele><time>2026-04-06T13:23:59.867Z</time></trkpt><trkpt lat="40.3653119" lon="16.0975074"><ele>693.0</ele><time>2026-04-06T13:24:00.867Z</time></trkpt><trkpt lat="40.3653167" lon="16.0974054"><ele>693.0</ele><time>2026-04-06T13:24:01.867Z</time></trkpt><trkpt lat="40.3653165" lon="16.0972968"><ele>693.0</ele><time>2026-04-06T13:24:02.867Z</time></trkpt><trkpt lat="40.3653064" lon="16.0971842"><ele>693.0</ele><time>2026-04-06T13:24:03.867Z</time></trkpt><trkpt lat="40.3652809" lon="16.0970773"><ele>693.0</ele><time>2026-04-06T13:24:04.867Z</time></trkpt><trkpt lat="40.3652456" lon="16.0969771"><ele>693.4</ele><time>2026-04-06T13:24:05.867Z</time></trkpt><trkpt lat="40.3652009" lon="16.0968761"><ele>693.8</ele><time>2026-04-06T13:24:06.867Z</time></trkpt><trkpt lat="40.3651605" lon="16.0967732"><ele>694.2</ele><time>2026-04-06T13:24:07.868Z</time></trkpt><trkpt lat="40.3651211" lon="16.0966645"><ele>694.6</ele><time>2026-04-06T13:24:08.868Z</time></trkpt><trkpt lat="40.3650815" lon="16.0965517"><ele>695.0</ele><time>2026-04-06T13:24:09.867Z</time></trkpt><trkpt lat="40.3650494" lon="16.096434"><ele>694.0</ele><time>2026-04-06T13:24:10.868Z</time></trkpt><trkpt lat="40.365025" lon="16.0963098"><ele>693.0</ele><time>2026-04-06T13:24:11.867Z</time></trkpt><trkpt lat="40.3650045" lon="16.0961849"><ele>692.0</ele><time>2026-04-06T13:24:12.867Z</time></trkpt><trkpt lat="40.364987" lon="16.0960593"><ele>691.0</ele><time>2026-04-06T13:24:13.867Z</time></trkpt><trkpt lat="40.364976" lon="16.0959377"><ele>690.0</ele><time>2026-04-06T13:24:14.867Z</time></trkpt><trkpt lat="40.364957" lon="16.0958204"><ele>689.6666666666666</ele><time>2026-04-06T13:24:15.868Z</time></trkpt><trkpt lat="40.3649127" lon="16.0957249"><ele>689.3333333333334</ele><time>2026-04-06T13:24:16.867Z</time></trkpt><trkpt lat="40.3648587" lon="16.0956655"><ele>689.0</ele><time>2026-04-06T13:24:17.867Z</time></trkpt><trkpt lat="40.3647866" lon="16.0956485"><ele>688.6666666666667</ele><time>2026-04-06T13:24:18.867Z</time></trkpt><trkpt lat="40.3647096" lon="16.0956749"><ele>688.3333333333334</ele><time>2026-04-06T13:24:19.867Z</time></trkpt><trkpt lat="40.3646286" lon="16.0957628"><ele>688.0</ele><time>2026-04-06T13:24:20.868Z</time></trkpt><trkpt lat="40.364545" lon="16.0958973"><ele>688.0</ele><time>2026-04-06T13:24:21.867Z</time></trkpt><trkpt lat="40.3644578" lon="16.0960427"><ele>688.0</ele><time>2026-04-06T13:24:22.867Z</time></trkpt><trkpt lat="40.3643703" lon="16.0961644"><ele>688.0</ele><time>2026-04-06T13:24:23.867Z</time></trkpt><trkpt lat="40.3642845" lon="16.096267"><ele>688.0</ele><time>2026-04-06T13:24:24.868Z</time></trkpt><trkpt lat="40.3641992" lon="16.0963702"><ele>688.0</ele><time>2026-04-06T13:24:25.867Z</time></trkpt><trkpt lat="40.3641277" lon="16.0964866"><ele>688.0</ele><time>2026-04-06T13:24:26.868Z</time></trkpt><trkpt lat="40.3640701" lon="16.0966097"><ele>688.0</ele><time>2026-04-06T13:24:27.867Z</time></trkpt><trkpt lat="40.3640217" lon="16.0967351"><ele>688.0</ele><time>2026-04-06T13:24:28.867Z</time></trkpt><trkpt lat="40.3639752" lon="16.0968564"><ele>688.0</ele><time>2026-04-06T13:24:29.867Z</time></trkpt><trkpt lat="40.3639162" lon="16.0969703"><ele>688.4</ele><time>2026-04-06T13:24:30.867Z</time></trkpt><trkpt lat="40.3638531" lon="16.0970766"><ele>688.8</ele><time>2026-04-06T13:24:31.867Z</time></trkpt><trkpt lat="40.3637917" lon="16.0971753"><ele>689.2</ele><time>2026-04-06T13:24:32.867Z</time></trkpt><trkpt lat="40.363722" lon="16.0972551"><ele>689.6</ele><time>2026-04-06T13:24:33.867Z</time></trkpt><trkpt lat="40.363639" lon="16.097316"><ele>690.0</ele><time>2026-04-06T13:24:34.867Z</time></trkpt><trkpt lat="40.3635459" lon="16.0973614"><ele>690.0</ele><time>2026-04-06T13:24:35.868Z</time></trkpt><trkpt lat="40.3634534" lon="16.0974085"><ele>690.0</ele><time>2026-04-06T13:24:36.867Z</time></trkpt><trkpt lat="40.3633609" lon="16.0974514"><ele>690.0</ele><time>2026-04-06T13:24:37.868Z</time></trkpt><trkpt lat="40.3632751" lon="16.0974961"><ele>690.0</ele><time>2026-04-06T13:24:38.867Z</time></trkpt><trkpt lat="40.3631908" lon="16.0975419"><ele>690.0</ele><time>2026-04-06T13:24:39.867Z</time></trkpt><trkpt lat="40.3631098" lon="16.0975833"><ele>692.4285714285714</ele><time>2026-04-06T13:24:40.867Z</time></trkpt><trkpt lat="40.3630319" lon="16.0976094"><ele>694.8571428571429</ele><time>2026-04-06T13:24:41.868Z</time></trkpt><trkpt lat="40.3629674" lon="16.097633"><ele>697.2857142857142</ele><time>2026-04-06T13:24:42.867Z</time></trkpt><trkpt lat="40.3628971" lon="16.0976684"><ele>699.7142857142858</ele><time>2026-04-06T13:24:44.867Z</time></trkpt><trkpt lat="40.3628474" lon="16.0977226"><ele>702.1428571428571</ele><time>2026-04-06T13:24:48.867Z</time></trkpt><trkpt lat="40.3627869" lon="16.0977621"><ele>704.5714285714286</ele><time>2026-04-06T13:24:51.839Z</time></trkpt><trkpt lat="40.3627393" lon="16.0978525"><ele>707.0</ele><time>2026-04-06T13:32:31.865Z</time></trkpt><trkpt lat="40.3626933" lon="16.0979724"><ele>707.0</ele><time>2026-04-06T13:32:33.865Z</time></trkpt><trkpt lat="40.3626436" lon="16.0980861"><ele>707.0</ele><time>2026-04-06T13:32:35.865Z</time></trkpt><trkpt lat="40.362601" lon="16.0981588"><ele>707.0</ele><time>2026-04-06T13:32:39.865Z</time></trkpt><trkpt lat="40.3625196" lon="16.098222"><ele>707.0</ele><time>2026-04-06T13:32:43.866Z</time></trkpt><trkpt lat="40.3624462" lon="16.0982512"><ele>707.0</ele><time>2026-04-06T13:32:45.865Z</time></trkpt><trkpt lat="40.3623739" lon="16.0982699"><ele>707.0</ele><time>2026-04-06T13:32:47.865Z</time></trkpt><trkpt lat="40.3623108" lon="16.0983166"><ele>708.6666666666666</ele><time>2026-04-06T13:32:49.865Z</time></trkpt><trkpt lat="40.3622315" lon="16.0983665"><ele>710.3333333333333</ele><time>2026-04-06T13:32:51.865Z</time></trkpt><trkpt lat="40.3621656" lon="16.0983977"><ele>712.0</ele><time>2026-04-06T13:32:53.865Z</time></trkpt><trkpt lat="40.3621043" lon="16.0984178"><ele>713.6666666666666</ele><time>2026-04-06T13:32:55.865Z</time></trkpt><trkpt lat="40.3620145" lon="16.0984678"><ele>715.3333333333334</ele><time>2026-04-06T13:32:58.865Z</time></trkpt><trkpt lat="40.361943" lon="16.0985131"><ele>717.0</ele><time>2026-04-06T13:33:00.865Z</time></trkpt><trkpt lat="40.3618729" lon="16.0985451"><ele>718.3333333333334</ele><time>2026-04-06T13:33:02.855Z</time></trkpt><trkpt lat="40.3617857" lon="16.0985765"><ele>719.6666666666666</ele><time>2026-04-06T13:33:04.865Z</time></trkpt><trkpt lat="40.3617063" lon="16.0986276"><ele>721.0</ele><time>2026-04-06T13:33:06.865Z</time></trkpt><trkpt lat="40.3616224" lon="16.0986906"><ele>722.3333333333333</ele><time>2026-04-06T13:33:09.865Z</time></trkpt><trkpt lat="40.3615386" lon="16.0987001"><ele>723.6666666666666</ele><time>2026-04-06T13:33:11.865Z</time></trkpt><trkpt lat="40.3614702" lon="16.0987207"><ele>725.0</ele><time>2026-04-06T13:33:13.866Z</time></trkpt><trkpt lat="40.3613863" lon="16.0987392"><ele>724.3333333333333</ele><time>2026-04-06T13:33:15.865Z</time></trkpt><trkpt lat="40.361301" lon="16.0987535"><ele>723.6666666666666</ele><time>2026-04-06T13:33:17.865Z</time></trkpt><trkpt lat="40.3612068" lon="16.0987666"><ele>723.0</ele><time>2026-04-06T13:33:19.865Z</time></trkpt><trkpt lat="40.3611255" lon="16.0987979"><ele>722.3333333333334</ele><time>2026-04-06T13:33:21.866Z</time></trkpt><trkpt lat="40.3610453" lon="16.0988374"><ele>721.6666666666667</ele><time>2026-04-06T13:33:23.865Z</time></trkpt><trkpt lat="40.3609667" lon="16.0988853"><ele>721.0</ele><time>2026-04-06T13:33:25.865Z</time></trkpt><trkpt lat="40.3608722" lon="16.0989265"><ele>721.0</ele><time>2026-04-06T13:33:27.865Z</time></trkpt><trkpt lat="40.3608173" lon="16.0989679"><ele>721.0</ele><time>2026-04-06T13:33:29.865Z</time></trkpt><trkpt lat="40.3607516" lon="16.0990353"><ele>721.0</ele><time>2026-04-06T13:33:33.865Z</time></trkpt><trkpt lat="40.3607028" lon="16.0991206"><ele>721.0</ele><time>2026-04-06T13:33:36.865Z</time></trkpt><trkpt lat="40.3607009" lon="16.099226"><ele>721.0</ele><time>2026-04-06T13:33:39.866Z</time></trkpt><trkpt lat="40.3606802" lon="16.0993169"><ele>721.0</ele><time>2026-04-06T13:39:10.864Z</time></trkpt><trkpt lat="40.3606214" lon="16.0994347"><ele>721.5999999999999</ele><time>2026-04-06T13:39:12.864Z</time></trkpt><trkpt lat="40.3605458" lon="16.0995489"><ele>722.2</ele><time>2026-04-06T13:39:14.864Z</time></trkpt><trkpt lat="40.3604601" lon="16.0996557"><ele>722.8</ele><time>2026-04-06T13:39:16.865Z</time></trkpt><trkpt lat="40.3603742" lon="16.0997368"><ele>723.4000000000001</ele><time>2026-04-06T13:39:18.864Z</time></trkpt><trkpt lat="40.3602771" lon="16.0997803"><ele>724.0</ele><time>2026-04-06T13:39:20.864Z</time></trkpt><trkpt lat="40.3601956" lon="16.0997984"><ele>723.2857142857142</ele><time>2026-04-06T13:39:22.864Z</time></trkpt><trkpt lat="40.3601278" lon="16.0998125"><ele>722.5714285714286</ele><time>2026-04-06T13:39:24.864Z</time></trkpt><trkpt lat="40.3600643" lon="16.0998383"><ele>721.8571428571429</ele><time>2026-04-06T13:39:26.865Z</time></trkpt><trkpt lat="40.3600031" lon="16.0998682"><ele>721.1428571428571</ele><time>2026-04-06T13:39:28.802Z</time></trkpt><trkpt lat="40.3599238" lon="16.099886"><ele>720.4285714285714</ele><time>2026-04-06T13:39:30.864Z</time></trkpt><trkpt lat="40.35986" lon="16.0999188"><ele>719.7142857142857</ele><time>2026-04-06T13:39:32.864Z</time></trkpt><trkpt lat="40.3597908" lon="16.0999402"><ele>719.0</ele><time>2026-04-06T13:39:34.864Z</time></trkpt><trkpt lat="40.3597265" lon="16.0999669"><ele>719.0</ele><time>2026-04-06T13:39:36.864Z</time></trkpt><trkpt lat="40.3596592" lon="16.0999886"><ele>719.0</ele><time>2026-04-06T13:39:39.864Z</time></trkpt><trkpt lat="40.3595897" lon="16.1000349"><ele>719.0</ele><time>2026-04-06T13:39:43.864Z</time></trkpt><trkpt lat="40.3595193" lon="16.0999823"><ele>719.0</ele><time>2026-04-06T13:39:49.864Z</time></trkpt><trkpt lat="40.3594441" lon="16.0999681"><ele>719.0</ele><time>2026-04-06T13:39:53.864Z</time></trkpt><trkpt lat="40.3593877" lon="16.1000098"><ele>719.0</ele><time>2026-04-06T13:39:58.864Z</time></trkpt><trkpt lat="40.3593084" lon="16.1000431"><ele>718.9999999999999</ele><time>2026-04-06T13:40:01.864Z</time></trkpt><trkpt lat="40.3592357" lon="16.1000547"><ele>719.0</ele><time>2026-04-06T13:40:03.864Z</time></trkpt><trkpt lat="40.359163" lon="16.1000399"><ele>719.0</ele><time>2026-04-06T13:40:05.864Z</time></trkpt><trkpt lat="40.3590884" lon="16.1000482"><ele>719.0</ele><time>2026-04-06T13:40:07.864Z</time></trkpt><trkpt lat="40.3590153" lon="16.1000618"><ele>719.0</ele><time>2026-04-06T13:40:09.864Z</time></trkpt><trkpt lat="40.358952" lon="16.1000632"><ele>718.9999999999999</ele><time>2026-04-06T13:40:11.864Z</time></trkpt><trkpt lat="40.3589019" lon="16.0999985"><ele>719.0</ele><time>2026-04-06T13:40:15.864Z</time></trkpt><trkpt lat="40.3588394" lon="16.1000136"><ele>716.0</ele><time>2026-04-06T13:40:18.91Z</time></trkpt><trkpt lat="40.3587728" lon="16.1000511"><ele>713.0</ele><time>2026-04-06T13:40:20.864Z</time></trkpt><trkpt lat="40.3586909" lon="16.100076"><ele>710.0</ele><time>2026-04-06T13:40:23.932Z</time></trkpt><trkpt lat="40.3586179" lon="16.1000716"><ele>707.0</ele><time>2026-04-06T13:40:26.864Z</time></trkpt><trkpt lat="40.3585447" lon="16.1000615"><ele>704.0</ele><time>2026-04-06T13:40:29.865Z</time></trkpt><trkpt lat="40.3584674" lon="16.1000263"><ele>701.0</ele><time>2026-04-06T13:40:33.865Z</time></trkpt><trkpt lat="40.3584354" lon="16.0999457"><ele>703.0</ele><time>2026-04-06T13:40:37.864Z</time></trkpt><trkpt lat="40.3584893" lon="16.0998815"><ele>705.0</ele><time>2026-04-06T13:40:41.865Z</time></trkpt><trkpt lat="40.3585667" lon="16.0998641"><ele>707.0</ele><time>2026-04-06T13:40:44.864Z</time></trkpt><trkpt lat="40.3586766" lon="16.0998262"><ele>709.0</ele><time>2026-04-06T13:40:46.864Z</time></trkpt><trkpt lat="40.35874" lon="16.0998069"><ele>711.0</ele><time>2026-04-06T13:40:47.864Z</time></trkpt><trkpt lat="40.3588022" lon="16.0997932"><ele>713.0</ele><time>2026-04-06T13:40:48.864Z</time></trkpt><trkpt lat="40.3589206" lon="16.0997595"><ele>713.0</ele><time>2026-04-06T13:40:50.864Z</time></trkpt><trkpt lat="40.3589829" lon="16.0997437"><ele>713.0</ele><time>2026-04-06T13:40:51.865Z</time></trkpt><trkpt lat="40.3590944" lon="16.0996891"><ele>713.0</ele><time>2026-04-06T13:40:53.864Z</time></trkpt><trkpt lat="40.3591439" lon="16.0996362"><ele>713.0</ele><time>2026-04-06T13:40:54.864Z</time></trkpt><trkpt lat="40.3591931" lon="16.0995824"><ele>713.0</ele><time>2026-04-06T13:40:55.864Z</time></trkpt><trkpt lat="40.3592371" lon="16.099518"><ele>713.0</ele><time>2026-04-06T13:40:56.864Z</time></trkpt><trkpt lat="40.3592745" lon="16.0994437"><ele>713.0</ele><time>2026-04-06T13:40:57.864Z</time></trkpt><trkpt lat="40.3593066" lon="16.0993659"><ele>713.0</ele><time>2026-04-06T13:40:58.864Z</time></trkpt><trkpt lat="40.3593359" lon="16.0992842"><ele>713.0</ele><time>2026-04-06T13:40:59.865Z</time></trkpt><trkpt lat="40.3593606" lon="16.099203"><ele>713.0</ele><time>2026-04-06T13:41:00.864Z</time></trkpt><trkpt lat="40.359394" lon="16.0990417"><ele>713.0</ele><time>2026-04-06T13:41:02.864Z</time></trkpt><trkpt lat="40.3594245" lon="16.0988863"><ele>713.0</ele><time>2026-04-06T13:41:04.864Z</time></trkpt><trkpt lat="40.3594476" lon="16.0987558"><ele>712.8</ele><time>2026-04-06T13:41:06.864Z</time></trkpt><trkpt lat="40.359489" lon="16.0986602"><ele>712.5999999999999</ele><time>2026-04-06T13:41:09.864Z</time></trkpt><trkpt lat="40.3595469" lon="16.0986133"><ele>712.4000000000001</ele><time>2026-04-06T13:41:11.864Z</time></trkpt><trkpt lat="40.3596331" lon="16.0985734"><ele>712.2</ele><time>2026-04-06T13:41:13.864Z</time></trkpt><trkpt lat="40.359736" lon="16.0985391"><ele>712.0</ele><time>2026-04-06T13:41:15.864Z</time></trkpt><trkpt lat="40.3598375" lon="16.0985117"><ele>712.0</ele><time>2026-04-06T13:41:17.865Z</time></trkpt><trkpt lat="40.3599275" lon="16.0984973"><ele>712.0</ele><time>2026-04-06T13:41:19.865Z</time></trkpt><trkpt lat="40.3600207" lon="16.0985038"><ele>712.0</ele><time>2026-04-06T13:41:21.864Z</time></trkpt><trkpt lat="40.3601211" lon="16.0985129"><ele>712.0</ele><time>2026-04-06T13:41:23.864Z</time></trkpt><trkpt lat="40.3602206" lon="16.0985261"><ele>712.0</ele><time>2026-04-06T13:41:25.863Z</time></trkpt><trkpt lat="40.3603284" lon="16.0985321"><ele>712.0</ele><time>2026-04-06T13:41:27.864Z</time></trkpt><trkpt lat="40.3604293" lon="16.0985392"><ele>712.0</ele><time>2026-04-06T13:41:29.863Z</time></trkpt><trkpt lat="40.3605053" lon="16.0985224"><ele>712.0</ele><time>2026-04-06T13:41:31.863Z</time></trkpt><trkpt lat="40.360585" lon="16.0985389"><ele>712.0</ele><time>2026-04-06T13:41:33.863Z</time></trkpt><trkpt lat="40.3606448" lon="16.0985907"><ele>712.0</ele><time>2026-04-06T13:41:35.863Z</time></trkpt><trkpt lat="40.3606796" lon="16.0986766"><ele>712.0</ele><time>2026-04-06T13:41:37.863Z</time></trkpt><trkpt lat="40.3606996" lon="16.0987685"><ele>713.5</ele><time>2026-04-06T13:41:39.864Z</time></trkpt><trkpt lat="40.3607245" lon="16.0988673"><ele>715.0</ele><time>2026-04-06T13:41:41.863Z</time></trkpt><trkpt lat="40.3607505" lon="16.0989606"><ele>716.5</ele><time>2026-04-06T13:41:43.863Z</time></trkpt><trkpt lat="40.3608165" lon="16.0989963"><ele>718.0</ele><time>2026-04-06T13:41:46.863Z</time></trkpt><trkpt lat="40.3608823" lon="16.0989461"><ele>719.5</ele><time>2026-04-06T13:41:48.864Z</time></trkpt><trkpt lat="40.3609589" lon="16.0988878"><ele>721.0</ele><time>2026-04-06T13:41:50.863Z</time></trkpt><trkpt lat="40.3610367" lon="16.0988509"><ele>721.0</ele><time>2026-04-06T13:41:52.863Z</time></trkpt><trkpt lat="40.361123" lon="16.098815"><ele>721.0</ele><time>2026-04-06T13:41:54.863Z</time></trkpt><trkpt lat="40.3612205" lon="16.098771"><ele>721.0</ele><time>2026-04-06T13:41:56.863Z</time></trkpt><trkpt lat="40.361318" lon="16.0987267"><ele>721.0</ele><time>2026-04-06T13:41:58.863Z</time></trkpt><trkpt lat="40.361421" lon="16.0986887"><ele>721.0</ele><time>2026-04-06T13:42:00.863Z</time></trkpt><trkpt lat="40.3615208" lon="16.0986662"><ele>721.8</ele><time>2026-04-06T13:42:02.863Z</time></trkpt><trkpt lat="40.3616157" lon="16.0986416"><ele>722.5999999999999</ele><time>2026-04-06T13:42:04.864Z</time></trkpt><trkpt lat="40.3616884" lon="16.098593"><ele>723.4</ele><time>2026-04-06T13:42:06.863Z</time></trkpt><trkpt lat="40.3617627" lon="16.0985477"><ele>724.2</ele><time>2026-04-06T13:42:08.864Z</time></trkpt><trkpt lat="40.3618341" lon="16.0985355"><ele>725.0</ele><time>2026-04-06T13:42:09.863Z</time></trkpt><trkpt lat="40.3619568" lon="16.0984866"><ele>725.0</ele><time>2026-04-06T13:42:11.863Z</time></trkpt><trkpt lat="40.362017" lon="16.0984566"><ele>725.0</ele><time>2026-04-06T13:42:12.863Z</time></trkpt><trkpt lat="40.3621138" lon="16.0983989"><ele>725.0</ele><time>2026-04-06T13:42:14.864Z</time></trkpt><trkpt lat="40.3621796" lon="16.0983844"><ele>725.0</ele><time>2026-04-06T13:42:15.863Z</time></trkpt><trkpt lat="40.3622586" lon="16.098354"><ele>725.0</ele><time>2026-04-06T13:42:16.863Z</time></trkpt><trkpt lat="40.3623301" lon="16.0983234"><ele>725.0</ele><time>2026-04-06T13:42:17.863Z</time></trkpt><trkpt lat="40.3624059" lon="16.0982861"><ele>723.6666666666666</ele><time>2026-04-06T13:42:18.864Z</time></trkpt><trkpt lat="40.3624829" lon="16.0982549"><ele>722.3333333333333</ele><time>2026-04-06T13:42:19.863Z</time></trkpt><trkpt lat="40.3625521" lon="16.0982376"><ele>721.0</ele><time>2026-04-06T13:42:20.864Z</time></trkpt><trkpt lat="40.3626665" lon="16.0982124"><ele>719.6666666666666</ele><time>2026-04-06T13:42:22.863Z</time></trkpt><trkpt lat="40.3627549" lon="16.0982262"><ele>718.3333333333334</ele><time>2026-04-06T13:42:24.863Z</time></trkpt><trkpt lat="40.3628424" lon="16.0982338"><ele>717.0</ele><time>2026-04-06T13:42:26.864Z</time></trkpt><trkpt lat="40.3629665" lon="16.0982541"><ele>716.6666666666666</ele><time>2026-04-06T13:42:28.863Z</time></trkpt><trkpt lat="40.3630371" lon="16.0982608"><ele>716.3333333333334</ele><time>2026-04-06T13:42:29.863Z</time></trkpt><trkpt lat="40.363111" lon="16.0982631"><ele>716.0</ele><time>2026-04-06T13:42:30.863Z</time></trkpt><trkpt lat="40.3631891" lon="16.0982604"><ele>715.6666666666667</ele><time>2026-04-06T13:42:31.864Z</time></trkpt><trkpt lat="40.3632718" lon="16.0982513"><ele>715.3333333333334</ele><time>2026-04-06T13:42:32.864Z</time></trkpt><trkpt lat="40.3633596" lon="16.0982409"><ele>715.0</ele><time>2026-04-06T13:42:33.863Z</time></trkpt><trkpt lat="40.3634464" lon="16.0982292"><ele>715.0</ele><time>2026-04-06T13:42:34.863Z</time></trkpt><trkpt lat="40.3635362" lon="16.098221"><ele>715.0</ele><time>2026-04-06T13:42:35.863Z</time></trkpt><trkpt lat="40.3636294" lon="16.0982098"><ele>715.0</ele><time>2026-04-06T13:42:36.863Z</time></trkpt><trkpt lat="40.363722" lon="16.0981968"><ele>715.0</ele><time>2026-04-06T13:42:37.863Z</time></trkpt><trkpt lat="40.3638103" lon="16.0981753"><ele>715.0</ele><time>2026-04-06T13:42:38.863Z</time></trkpt><trkpt lat="40.363897" lon="16.0981413"><ele>714.4</ele><time>2026-04-06T13:42:39.863Z</time></trkpt><trkpt lat="40.3639897" lon="16.098097"><ele>713.8</ele><time>2026-04-06T13:42:40.863Z</time></trkpt><trkpt lat="40.3640837" lon="16.0980397"><ele>713.2</ele><time>2026-04-06T13:42:41.863Z</time></trkpt><trkpt lat="40.3641859" lon="16.097972"><ele>712.6</ele><time>2026-04-06T13:42:42.863Z</time></trkpt><trkpt lat="40.3642991" lon="16.0979011"><ele>712.0</ele><time>2026-04-06T13:42:43.864Z</time></trkpt><trkpt lat="40.364412" lon="16.0978275"><ele>712.0</ele><time>2026-04-06T13:42:44.863Z</time></trkpt><trkpt lat="40.3645208" lon="16.0977527"><ele>712.0</ele><time>2026-04-06T13:42:45.863Z</time></trkpt><trkpt lat="40.3646292" lon="16.0976871"><ele>712.0</ele><time>2026-04-06T13:42:46.864Z</time></trkpt><trkpt lat="40.3647383" lon="16.0976383"><ele>712.0</ele><time>2026-04-06T13:42:47.863Z</time></trkpt><trkpt lat="40.364844" lon="16.0975955"><ele>708.8333333333334</ele><time>2026-04-06T13:42:48.863Z</time></trkpt><trkpt lat="40.3649438" lon="16.0975671"><ele>705.6666666666667</ele><time>2026-04-06T13:42:49.864Z</time></trkpt><trkpt lat="40.3650312" lon="16.0975469"><ele>702.5</ele><time>2026-04-06T13:42:50.863Z</time></trkpt><trkpt lat="40.3651056" lon="16.0975397"><ele>699.3333333333334</ele><time>2026-04-06T13:42:51.864Z</time></trkpt><trkpt lat="40.3652046" lon="16.0975429"><ele>696.1666666666666</ele><time>2026-04-06T13:42:53.863Z</time></trkpt><trkpt lat="40.3652522" lon="16.0976322"><ele>693.0</ele><time>2026-04-06T13:43:35.863Z</time></trkpt><trkpt lat="40.3652512" lon="16.0977222"><ele>693.0</ele><time>2026-04-06T13:43:37.863Z</time></trkpt><trkpt lat="40.3652701" lon="16.0978359"><ele>693.0</ele><time>2026-04-06T13:43:39.863Z</time></trkpt><trkpt lat="40.3653258" lon="16.097962"><ele>693.0</ele><time>2026-04-06T13:43:41.863Z</time></trkpt><trkpt lat="40.3653709" lon="16.0980211"><ele>693.0</ele><time>2026-04-06T13:43:42.864Z</time></trkpt><trkpt lat="40.3654236" lon="16.0980694"><ele>693.0</ele><time>2026-04-06T13:43:43.864Z</time></trkpt><trkpt lat="40.3654864" lon="16.0981016"><ele>693.0</ele><time>2026-04-06T13:43:44.863Z</time></trkpt><trkpt lat="40.3655549" lon="16.0981205"><ele>690.6666666666666</ele><time>2026-04-06T13:43:45.863Z</time></trkpt><trkpt lat="40.3656284" lon="16.0981339"><ele>688.3333333333334</ele><time>2026-04-06T13:43:46.863Z</time></trkpt><trkpt lat="40.3657055" lon="16.0981473"><ele>686.0</ele><time>2026-04-06T13:43:47.863Z</time></trkpt><trkpt lat="40.3657844" lon="16.0981617"><ele>683.6666666666667</ele><time>2026-04-06T13:43:48.863Z</time></trkpt><trkpt lat="40.3658526" lon="16.0981793"><ele>681.3333333333334</ele><time>2026-04-06T13:43:49.863Z</time></trkpt><trkpt lat="40.3659473" lon="16.0982172"><ele>679.0</ele><time>2026-04-06T13:43:51.863Z</time></trkpt><trkpt lat="40.3660447" lon="16.0982223"><ele>679.2</ele><time>2026-04-06T13:43:54.864Z</time></trkpt><trkpt lat="40.3661515" lon="16.0982597"><ele>679.4000000000001</ele><time>2026-04-06T13:43:56.863Z</time></trkpt><trkpt lat="40.36624" lon="16.0983059"><ele>679.6</ele><time>2026-04-06T13:43:57.863Z</time></trkpt><trkpt lat="40.3663443" lon="16.0983651"><ele>679.8</ele><time>2026-04-06T13:43:58.863Z</time></trkpt><trkpt lat="40.3664613" lon="16.09843"><ele>680.0</ele><time>2026-04-06T13:43:59.863Z</time></trkpt><trkpt lat="40.3665808" lon="16.0984906"><ele>681.0</ele><time>2026-04-06T13:44:00.864Z</time></trkpt><trkpt lat="40.3667093" lon="16.0985303"><ele>682.0</ele><time>2026-04-06T13:44:01.863Z</time></trkpt><trkpt lat="40.3668542" lon="16.0985334"><ele>683.0</ele><time>2026-04-06T13:44:02.863Z</time></trkpt><trkpt lat="40.366999" lon="16.0985079"><ele>684.0</ele><time>2026-04-06T13:44:03.863Z</time></trkpt><trkpt lat="40.3671454" lon="16.0984717"><ele>687.3333333333334</ele><time>2026-04-06T13:44:04.864Z</time></trkpt><trkpt lat="40.3672973" lon="16.0984345"><ele>690.6666666666667</ele><time>2026-04-06T13:44:05.864Z</time></trkpt><trkpt lat="40.3674526" lon="16.0984106"><ele>694.0</ele><time>2026-04-06T13:44:06.863Z</time></trkpt><trkpt lat="40.3676085" lon="16.0983987"><ele>694.0</ele><time>2026-04-06T13:44:07.863Z</time></trkpt><trkpt lat="40.3677668" lon="16.0983849"><ele>694.0</ele><time>2026-04-06T13:44:08.863Z</time></trkpt><trkpt lat="40.3679252" lon="16.0983598"><ele>694.0</ele><time>2026-04-06T13:44:09.863Z</time></trkpt><trkpt lat="40.3680783" lon="16.0983193"><ele>694.0</ele><time>2026-04-06T13:44:10.863Z</time></trkpt><trkpt lat="40.3682287" lon="16.0982767"><ele>694.0</ele><time>2026-04-06T13:44:11.863Z</time></trkpt><trkpt lat="40.3683774" lon="16.0982453"><ele>694.0</ele><time>2026-04-06T13:44:12.863Z</time></trkpt><trkpt lat="40.3685268" lon="16.0982321"><ele>694.0</ele><time>2026-04-06T13:44:13.863Z</time></trkpt><trkpt lat="40.3686793" lon="16.0982487"><ele>694.0</ele><time>2026-04-06T13:44:14.863Z</time></trkpt><trkpt lat="40.368832" lon="16.0982793"><ele>694.0</ele><time>2026-04-06T13:44:15.863Z</time></trkpt><trkpt lat="40.3689882" lon="16.0983028"><ele>698.3333333333334</ele><time>2026-04-06T13:44:16.863Z</time></trkpt><trkpt lat="40.3691502" lon="16.0983106"><ele>702.6666666666666</ele><time>2026-04-06T13:44:17.864Z</time></trkpt><trkpt lat="40.3693164" lon="16.0983017"><ele>707.0</ele><time>2026-04-06T13:44:18.863Z</time></trkpt><trkpt lat="40.3694849" lon="16.0982793"><ele>707.0</ele><time>2026-04-06T13:44:19.863Z</time></trkpt><trkpt lat="40.3696562" lon="16.0982519"><ele>707.0</ele><time>2026-04-06T13:44:20.863Z</time></trkpt><trkpt lat="40.3698242" lon="16.0982275"><ele>707.0</ele><time>2026-04-06T13:44:21.863Z</time></trkpt><trkpt lat="40.3699923" lon="16.0982173"><ele>711.0</ele><time>2026-04-06T13:44:22.863Z</time></trkpt><trkpt lat="40.3701672" lon="16.0982277"><ele>715.0</ele><time>2026-04-06T13:44:23.863Z</time></trkpt><trkpt lat="40.3703433" lon="16.0982147"><ele>719.0</ele><time>2026-04-06T13:44:24.864Z</time></trkpt><trkpt lat="40.3705254" lon="16.0981815"><ele>722.6666666666666</ele><time>2026-04-06T13:44:25.863Z</time></trkpt><trkpt lat="40.3707035" lon="16.0981332"><ele>726.3333333333334</ele><time>2026-04-06T13:44:26.863Z</time></trkpt><trkpt lat="40.3708766" lon="16.0980809"><ele>730.0</ele><time>2026-04-06T13:44:27.863Z</time></trkpt><trkpt lat="40.3710453" lon="16.0980321"><ele>730.0</ele><time>2026-04-06T13:44:28.863Z</time></trkpt><trkpt lat="40.3712058" lon="16.0979941"><ele>730.0</ele><time>2026-04-06T13:44:29.864Z</time></trkpt><trkpt lat="40.3713413" lon="16.0979627"><ele>730.0</ele><time>2026-04-06T13:44:30.863Z</time></trkpt><trkpt lat="40.3714507" lon="16.0979502"><ele>730.0</ele><time>2026-04-06T13:44:31.863Z</time></trkpt><trkpt lat="40.3715228" lon="16.0979682"><ele>729.8</ele><time>2026-04-06T13:44:32.863Z</time></trkpt><trkpt lat="40.3715721" lon="16.0980894"><ele>729.6</ele><time>2026-04-06T13:44:34.864Z</time></trkpt><trkpt lat="40.3715472" lon="16.098182"><ele>729.4000000000001</ele><time>2026-04-06T13:44:35.863Z</time></trkpt><trkpt lat="40.3714936" lon="16.098281"><ele>729.2</ele><time>2026-04-06T13:44:36.863Z</time></trkpt><trkpt lat="40.3714038" lon="16.0983865"><ele>729.0</ele><time>2026-04-06T13:44:37.864Z</time></trkpt><trkpt lat="40.3713206" lon="16.0985163"><ele>727.25</ele><time>2026-04-06T13:44:38.864Z</time></trkpt><trkpt lat="40.3712706" lon="16.0986744"><ele>725.5</ele><time>2026-04-06T13:44:39.863Z</time></trkpt><trkpt lat="40.3712506" lon="16.0988692"><ele>723.75</ele><time>2026-04-06T13:44:40.863Z</time></trkpt><trkpt lat="40.3712532" lon="16.099087"><ele>722.0</ele><time>2026-04-06T13:44:41.864Z</time></trkpt><trkpt lat="40.371263" lon="16.0993192"><ele>722.0</ele><time>2026-04-06T13:44:42.863Z</time></trkpt><trkpt lat="40.3712721" lon="16.0995463"><ele>722.0</ele><time>2026-04-06T13:44:43.863Z</time></trkpt><trkpt lat="40.3712735" lon="16.0997673"><ele>722.0</ele><time>2026-04-06T13:44:44.863Z</time></trkpt><trkpt lat="40.3712636" lon="16.0999794"><ele>723.6666666666666</ele><time>2026-04-06T13:44:45.864Z</time></trkpt><trkpt lat="40.3712455" lon="16.100184"><ele>725.3333333333334</ele><time>2026-04-06T13:44:46.863Z</time></trkpt><trkpt lat="40.3711979" lon="16.1003653"><ele>727.0</ele><time>2026-04-06T13:44:47.863Z</time></trkpt><trkpt lat="40.3711274" lon="16.1005365"><ele>727.0</ele><time>2026-04-06T13:44:48.863Z</time></trkpt><trkpt lat="40.3710342" lon="16.1006884"><ele>727.0</ele><time>2026-04-06T13:44:49.863Z</time></trkpt><trkpt lat="40.3709247" lon="16.1008327"><ele>727.0</ele><time>2026-04-06T13:44:50.863Z</time></trkpt><trkpt lat="40.3708038" lon="16.1009713"><ele>727.75</ele><time>2026-04-06T13:44:51.863Z</time></trkpt><trkpt lat="40.3706832" lon="16.1011081"><ele>728.5</ele><time>2026-04-06T13:44:52.863Z</time></trkpt><trkpt lat="40.3705676" lon="16.1012342"><ele>729.25</ele><time>2026-04-06T13:44:53.863Z</time></trkpt><trkpt lat="40.3704728" lon="16.101347"><ele>730.0</ele><time>2026-04-06T13:44:54.863Z</time></trkpt><trkpt lat="40.370394" lon="16.1014621"><ele>730.8</ele><time>2026-04-06T13:44:55.863Z</time></trkpt><trkpt lat="40.3703373" lon="16.1015839"><ele>731.6</ele><time>2026-04-06T13:44:56.864Z</time></trkpt><trkpt lat="40.3703377" lon="16.1017014"><ele>732.4000000000001</ele><time>2026-04-06T13:44:57.863Z</time></trkpt><trkpt lat="40.3703796" lon="16.1018002"><ele>733.2</ele><time>2026-04-06T13:44:58.864Z</time></trkpt><trkpt lat="40.3704616" lon="16.101858"><ele>734.0</ele><time>2026-04-06T13:44:59.863Z</time></trkpt><trkpt lat="40.3705581" lon="16.101883"><ele>733.75</ele><time>2026-04-06T13:45:00.864Z</time></trkpt><trkpt lat="40.3706592" lon="16.1018616"><ele>733.5</ele><time>2026-04-06T13:45:01.863Z</time></trkpt><trkpt lat="40.3707727" lon="16.1017578"><ele>733.25</ele><time>2026-04-06T13:45:02.864Z</time></trkpt><trkpt lat="40.3708872" lon="16.1016249"><ele>733.0</ele><time>2026-04-06T13:45:03.863Z</time></trkpt><trkpt lat="40.3710064" lon="16.1014961"><ele>733.0</ele><time>2026-04-06T13:45:04.864Z</time></trkpt><trkpt lat="40.3711307" lon="16.1013722"><ele>733.0</ele><time>2026-04-06T13:45:05.863Z</time></trkpt><trkpt lat="40.371268" lon="16.1012494"><ele>733.0</ele><time>2026-04-06T13:45:06.864Z</time></trkpt><trkpt lat="40.3714023" lon="16.1011366"><ele>737.0</ele><time>2026-04-06T13:45:07.863Z</time></trkpt><trkpt lat="40.3715461" lon="16.1010405"><ele>741.0</ele><time>2026-04-06T13:45:08.863Z</time></trkpt><trkpt lat="40.3716902" lon="16.1009631"><ele>745.0</ele><time>2026-04-06T13:45:09.863Z</time></trkpt><trkpt lat="40.3718391" lon="16.1009041"><ele>745.0</ele><time>2026-04-06T13:45:10.863Z</time></trkpt><trkpt lat="40.3719963" lon="16.1008647"><ele>745.0</ele><time>2026-04-06T13:45:11.863Z</time></trkpt><trkpt lat="40.3721551" lon="16.100824"><ele>745.0</ele><time>2026-04-06T13:45:12.863Z</time></trkpt><trkpt lat="40.372309" lon="16.1007821"><ele>745.0</ele><time>2026-04-06T13:45:13.863Z</time></trkpt><trkpt lat="40.3724634" lon="16.1007367"><ele>745.0</ele><time>2026-04-06T13:45:14.863Z</time></trkpt><trkpt lat="40.3726077" lon="16.100693"><ele>745.0</ele><time>2026-04-06T13:45:15.863Z</time></trkpt><trkpt lat="40.3727422" lon="16.1006478"><ele>745.0</ele><time>2026-04-06T13:45:16.863Z</time></trkpt><trkpt lat="40.3728702" lon="16.1005808"><ele>745.0</ele><time>2026-04-06T13:45:17.863Z</time></trkpt><trkpt lat="40.3729951" lon="16.1004795"><ele>745.0</ele><time>2026-04-06T13:45:18.864Z</time></trkpt><trkpt lat="40.3731137" lon="16.1003584"><ele>745.0</ele><time>2026-04-06T13:45:19.863Z</time></trkpt><trkpt lat="40.3732293" lon="16.1002542"><ele>745.0</ele><time>2026-04-06T13:45:20.863Z</time></trkpt><trkpt lat="40.3733529" lon="16.1001646"><ele>747.3333333333334</ele><time>2026-04-06T13:45:21.863Z</time></trkpt><trkpt lat="40.3734969" lon="16.1000961"><ele>749.6666666666666</ele><time>2026-04-06T13:45:22.863Z</time></trkpt><trkpt lat="40.37364" lon="16.1000386"><ele>752.0</ele><time>2026-04-06T13:45:23.863Z</time></trkpt><trkpt lat="40.3737825" lon="16.0999814"><ele>752.75</ele><time>2026-04-06T13:45:24.863Z</time></trkpt><trkpt lat="40.3739165" lon="16.0999219"><ele>753.5</ele><time>2026-04-06T13:45:25.863Z</time></trkpt><trkpt lat="40.3740458" lon="16.0998343"><ele>754.25</ele><time>2026-04-06T13:45:26.863Z</time></trkpt><trkpt lat="40.3741644" lon="16.0997059"><ele>755.0</ele><time>2026-04-06T13:45:27.864Z</time></trkpt><trkpt lat="40.3742727" lon="16.0995359"><ele>755.0</ele><time>2026-04-06T13:45:28.863Z</time></trkpt><trkpt lat="40.3743783" lon="16.0993682"><ele>755.0</ele><time>2026-04-06T13:45:29.863Z</time></trkpt><trkpt lat="40.3744815" lon="16.099214"><ele>755.0</ele><time>2026-04-06T13:45:30.863Z</time></trkpt><trkpt lat="40.374596" lon="16.0990755"><ele>756.0</ele><time>2026-04-06T13:45:31.863Z</time></trkpt><trkpt lat="40.374713" lon="16.0989487"><ele>757.0</ele><time>2026-04-06T13:45:32.863Z</time></trkpt><trkpt lat="40.3748278" lon="16.0988353"><ele>758.0</ele><time>2026-04-06T13:45:33.863Z</time></trkpt><trkpt lat="40.3749545" lon="16.0987409"><ele>759.0</ele><time>2026-04-06T13:45:34.863Z</time></trkpt><trkpt lat="40.3750992" lon="16.098668"><ele>759.0</ele><time>2026-04-06T13:45:35.863Z</time></trkpt><trkpt lat="40.3752582" lon="16.0986261"><ele>759.0</ele><time>2026-04-06T13:45:36.863Z</time></trkpt><trkpt lat="40.3754217" lon="16.0986074"><ele>759.0</ele><time>2026-04-06T13:45:37.863Z</time></trkpt><trkpt lat="40.3755814" lon="16.0985812"><ele>760.3333333333334</ele><time>2026-04-06T13:45:38.863Z</time></trkpt><trkpt lat="40.3757375" lon="16.0985333"><ele>761.6666666666667</ele><time>2026-04-06T13:45:39.863Z</time></trkpt><trkpt lat="40.3758821" lon="16.0984818"><ele>763.0</ele><time>2026-04-06T13:45:40.864Z</time></trkpt><trkpt lat="40.3760234" lon="16.0984539"><ele>763.0</ele><time>2026-04-06T13:45:41.863Z</time></trkpt><trkpt lat="40.3761547" lon="16.0984643"><ele>763.0</ele><time>2026-04-06T13:45:42.864Z</time></trkpt><trkpt lat="40.3762752" lon="16.0985235"><ele>763.0</ele><time>2026-04-06T13:45:43.863Z</time></trkpt><trkpt lat="40.3763727" lon="16.0986295"><ele>763.0</ele><time>2026-04-06T13:45:44.863Z</time></trkpt><trkpt lat="40.3764502" lon="16.0987703"><ele>762.5</ele><time>2026-04-06T13:45:45.863Z</time></trkpt><trkpt lat="40.3764938" lon="16.0989439"><ele>762.0</ele><time>2026-04-06T13:45:46.864Z</time></trkpt><trkpt lat="40.37653" lon="16.0991276"><ele>761.5</ele><time>2026-04-06T13:45:47.864Z</time></trkpt><trkpt lat="40.3765763" lon="16.0993055"><ele>761.0</ele><time>2026-04-06T13:45:48.862Z</time></trkpt><trkpt lat="40.3766481" lon="16.0994693"><ele>764.6666666666666</ele><time>2026-04-06T13:45:49.862Z</time></trkpt><trkpt lat="40.3767546" lon="16.0996042"><ele>768.3333333333333</ele><time>2026-04-06T13:45:50.862Z</time></trkpt><trkpt lat="40.3768875" lon="16.0997147"><ele>772.0</ele><time>2026-04-06T13:45:51.862Z</time></trkpt><trkpt lat="40.3770359" lon="16.0998161"><ele>772.0</ele><time>2026-04-06T13:45:52.862Z</time></trkpt><trkpt lat="40.3771793" lon="16.0999102"><ele>772.0</ele><time>2026-04-06T13:45:53.863Z</time></trkpt><trkpt lat="40.3773235" lon="16.0999832"><ele>772.0</ele><time>2026-04-06T13:45:54.862Z</time></trkpt><trkpt lat="40.3774674" lon="16.1000323"><ele>774.75</ele><time>2026-04-06T13:45:55.862Z</time></trkpt><trkpt lat="40.3776007" lon="16.1000645"><ele>777.5</ele><time>2026-04-06T13:45:56.863Z</time></trkpt><trkpt lat="40.3777183" lon="16.1000994"><ele>780.25</ele><time>2026-04-06T13:45:57.862Z</time></trkpt><trkpt lat="40.3778053" lon="16.1001657"><ele>783.0</ele><time>2026-04-06T13:45:58.862Z</time></trkpt><trkpt lat="40.3778566" lon="16.1002714"><ele>783.0</ele><time>2026-04-06T13:45:59.862Z</time></trkpt><trkpt lat="40.37788" lon="16.1004091"><ele>783.0</ele><time>2026-04-06T13:46:00.862Z</time></trkpt><trkpt lat="40.3778945" lon="16.1005689"><ele>783.0</ele><time>2026-04-06T13:46:01.862Z</time></trkpt><trkpt lat="40.3778946" lon="16.1007464"><ele>783.0</ele><time>2026-04-06T13:46:02.862Z</time></trkpt><trkpt lat="40.3778819" lon="16.1009316"><ele>786.0</ele><time>2026-04-06T13:46:03.862Z</time></trkpt><trkpt lat="40.377862" lon="16.1011275"><ele>789.0</ele><time>2026-04-06T13:46:04.863Z</time></trkpt><trkpt lat="40.3778435" lon="16.1013277"><ele>792.0</ele><time>2026-04-06T13:46:05.862Z</time></trkpt><trkpt lat="40.3778229" lon="16.1015319"><ele>792.6666666666667</ele><time>2026-04-06T13:46:06.862Z</time></trkpt><trkpt lat="40.3778095" lon="16.1017393"><ele>793.3333333333334</ele><time>2026-04-06T13:46:07.862Z</time></trkpt><trkpt lat="40.3778183" lon="16.1019499"><ele>794.0</ele><time>2026-04-06T13:46:08.862Z</time></trkpt><trkpt lat="40.3778485" lon="16.102166"><ele>794.0</ele><time>2026-04-06T13:46:09.863Z</time></trkpt><trkpt lat="40.37789" lon="16.1023845"><ele>794.0</ele><time>2026-04-06T13:46:10.862Z</time></trkpt><trkpt lat="40.3779314" lon="16.1026027"><ele>794.0</ele><time>2026-04-06T13:46:11.862Z</time></trkpt><trkpt lat="40.3779707" lon="16.1028106"><ele>795.3333333333334</ele><time>2026-04-06T13:46:12.863Z</time></trkpt><trkpt lat="40.3780174" lon="16.1030122"><ele>796.6666666666667</ele><time>2026-04-06T13:46:13.863Z</time></trkpt><trkpt lat="40.3780843" lon="16.1032089"><ele>798.0</ele><time>2026-04-06T13:46:14.862Z</time></trkpt><trkpt lat="40.3781816" lon="16.1033974"><ele>798.0</ele><time>2026-04-06T13:46:15.863Z</time></trkpt><trkpt lat="40.3782891" lon="16.1035805"><ele>798.0</ele><time>2026-04-06T13:46:16.863Z</time></trkpt><trkpt lat="40.3783942" lon="16.1037644"><ele>798.0</ele><time>2026-04-06T13:46:17.862Z</time></trkpt><trkpt lat="40.3784994" lon="16.1039477"><ele>799.3333333333333</ele><time>2026-04-06T13:46:18.862Z</time></trkpt><trkpt lat="40.3786102" lon="16.1041244"><ele>800.6666666666666</ele><time>2026-04-06T13:46:19.863Z</time></trkpt><trkpt lat="40.3787132" lon="16.104291"><ele>802.0</ele><time>2026-04-06T13:46:20.862Z</time></trkpt><trkpt lat="40.3788214" lon="16.1044379"><ele>799.3333333333333</ele><time>2026-04-06T13:46:21.862Z</time></trkpt><trkpt lat="40.3789353" lon="16.1045657"><ele>796.6666666666667</ele><time>2026-04-06T13:46:22.862Z</time></trkpt><trkpt lat="40.3790576" lon="16.1046819"><ele>794.0</ele><time>2026-04-06T13:46:23.862Z</time></trkpt><trkpt lat="40.3791842" lon="16.1047952"><ele>794.0</ele><time>2026-04-06T13:46:24.862Z</time></trkpt><trkpt lat="40.3793154" lon="16.1049079"><ele>794.0</ele><time>2026-04-06T13:46:25.863Z</time></trkpt><trkpt lat="40.3794472" lon="16.1050248"><ele>794.0</ele><time>2026-04-06T13:46:26.862Z</time></trkpt><trkpt lat="40.3795749" lon="16.1051457"><ele>797.5</ele><time>2026-04-06T13:46:27.862Z</time></trkpt><trkpt lat="40.3796892" lon="16.1052716"><ele>801.0</ele><time>2026-04-06T13:46:28.862Z</time></trkpt><trkpt lat="40.3797787" lon="16.1054086"><ele>804.5</ele><time>2026-04-06T13:46:29.862Z</time></trkpt><trkpt lat="40.3798376" lon="16.1055691"><ele>808.0</ele><time>2026-04-06T13:46:30.862Z</time></trkpt><trkpt lat="40.3798678" lon="16.105745"><ele>810.0</ele><time>2026-04-06T13:46:31.862Z</time></trkpt><trkpt lat="40.3798946" lon="16.1059289"><ele>812.0</ele><time>2026-04-06T13:46:32.863Z</time></trkpt><trkpt lat="40.3799517" lon="16.1061051"><ele>814.0</ele><time>2026-04-06T13:46:33.862Z</time></trkpt><trkpt lat="40.3800507" lon="16.1062497"><ele>816.0</ele><time>2026-04-06T13:46:34.862Z</time></trkpt><trkpt lat="40.3801639" lon="16.1063782"><ele>816.0</ele><time>2026-04-06T13:46:35.862Z</time></trkpt><trkpt lat="40.3802937" lon="16.1064952"><ele>816.0</ele><time>2026-04-06T13:46:36.862Z</time></trkpt><trkpt lat="40.3804249" lon="16.1066076"><ele>816.0</ele><time>2026-04-06T13:46:37.862Z</time></trkpt><trkpt lat="40.3805499" lon="16.1067205"><ele>819.0</ele><time>2026-04-06T13:46:38.862Z</time></trkpt><trkpt lat="40.3806707" lon="16.1068358"><ele>822.0</ele><time>2026-04-06T13:46:39.862Z</time></trkpt><trkpt lat="40.3807787" lon="16.1069569"><ele>825.0</ele><time>2026-04-06T13:46:40.862Z</time></trkpt><trkpt lat="40.3808815" lon="16.1070881"><ele>828.0</ele><time>2026-04-06T13:46:41.862Z</time></trkpt><trkpt lat="40.3809751" lon="16.107244"><ele>827.0</ele><time>2026-04-06T13:46:42.862Z</time></trkpt><trkpt lat="40.3810576" lon="16.1074129"><ele>826.0</ele><time>2026-04-06T13:46:43.862Z</time></trkpt><trkpt lat="40.381134" lon="16.1075973"><ele>825.0</ele><time>2026-04-06T13:46:44.862Z</time></trkpt><trkpt lat="40.3812132" lon="16.1077875"><ele>825.0</ele><time>2026-04-06T13:46:45.862Z</time></trkpt><trkpt lat="40.3812975" lon="16.1079801"><ele>825.0</ele><time>2026-04-06T13:46:46.862Z</time></trkpt><trkpt lat="40.381378" lon="16.1081717"><ele>825.0</ele><time>2026-04-06T13:46:47.862Z</time></trkpt><trkpt lat="40.3814624" lon="16.1083696"><ele>831.3333333333333</ele><time>2026-04-06T13:46:48.862Z</time></trkpt><trkpt lat="40.381548" lon="16.1085765"><ele>837.6666666666666</ele><time>2026-04-06T13:46:49.862Z</time></trkpt><trkpt lat="40.3816372" lon="16.1087774"><ele>844.0</ele><time>2026-04-06T13:46:50.862Z</time></trkpt><trkpt lat="40.3817314" lon="16.1089707"><ele>841.6666666666666</ele><time>2026-04-06T13:46:51.863Z</time></trkpt><trkpt lat="40.3818191" lon="16.1091593"><ele>839.3333333333333</ele><time>2026-04-06T13:46:52.863Z</time></trkpt><trkpt lat="40.381891" lon="16.1093449"><ele>837.0</ele><time>2026-04-06T13:46:53.862Z</time></trkpt><trkpt lat="40.3819397" lon="16.1095354"><ele>837.0</ele><time>2026-04-06T13:46:54.862Z</time></trkpt><trkpt lat="40.3819674" lon="16.1097368"><ele>837.0</ele><time>2026-04-06T13:46:55.862Z</time></trkpt><trkpt lat="40.3819807" lon="16.1099524"><ele>837.0</ele><time>2026-04-06T13:46:56.862Z</time></trkpt><trkpt lat="40.3819739" lon="16.1101699"><ele>837.0</ele><time>2026-04-06T13:46:57.862Z</time></trkpt><trkpt lat="40.3819473" lon="16.110394"><ele>837.0</ele><time>2026-04-06T13:46:58.863Z</time></trkpt><trkpt lat="40.3819367" lon="16.1106236"><ele>837.0</ele><time>2026-04-06T13:46:59.862Z</time></trkpt><trkpt lat="40.3819356" lon="16.1108396"><ele>838.25</ele><time>2026-04-06T13:47:00.862Z</time></trkpt><trkpt lat="40.3819462" lon="16.1110402"><ele>839.5</ele><time>2026-04-06T13:47:01.862Z</time></trkpt><trkpt lat="40.3819794" lon="16.1112187"><ele>840.75</ele><time>2026-04-06T13:47:02.862Z</time></trkpt><trkpt lat="40.3820409" lon="16.1113763"><ele>842.0</ele><time>2026-04-06T13:47:03.862Z</time></trkpt><trkpt lat="40.3821067" lon="16.1115158"><ele>840.8</ele><time>2026-04-06T13:47:04.862Z</time></trkpt><trkpt lat="40.3821629" lon="16.1116504"><ele>839.6</ele><time>2026-04-06T13:47:05.862Z</time></trkpt><trkpt lat="40.3821919" lon="16.1117876"><ele>838.4</ele><time>2026-04-06T13:47:06.862Z</time></trkpt><trkpt lat="40.3821935" lon="16.1119279"><ele>837.1999999999999</ele><time>2026-04-06T13:47:07.863Z</time></trkpt><trkpt lat="40.382192" lon="16.1120609"><ele>836.0</ele><time>2026-04-06T13:47:08.863Z</time></trkpt><trkpt lat="40.3822243" lon="16.1121633"><ele>841.5999999999999</ele><time>2026-04-06T13:47:09.862Z</time></trkpt><trkpt lat="40.3822906" lon="16.1122094"><ele>847.2</ele><time>2026-04-06T13:47:10.862Z</time></trkpt><trkpt lat="40.3823697" lon="16.1121805"><ele>852.8000000000001</ele><time>2026-04-06T13:47:11.862Z</time></trkpt><trkpt lat="40.382432" lon="16.1120889"><ele>858.4000000000001</ele><time>2026-04-06T13:47:12.863Z</time></trkpt><trkpt lat="40.3824616" lon="16.1119575"><ele>864.0</ele><time>2026-04-06T13:47:13.862Z</time></trkpt><trkpt lat="40.3824572" lon="16.1117898"><ele>864.0</ele><time>2026-04-06T13:47:14.862Z</time></trkpt><trkpt lat="40.3824383" lon="16.1116071"><ele>864.0</ele><time>2026-04-06T13:47:15.863Z</time></trkpt><trkpt lat="40.382405" lon="16.1114216"><ele>864.0</ele><time>2026-04-06T13:47:16.862Z</time></trkpt><trkpt lat="40.3823743" lon="16.1112411"><ele>864.0</ele><time>2026-04-06T13:47:17.862Z</time></trkpt><trkpt lat="40.3823699" lon="16.1110708"><ele>864.0</ele><time>2026-04-06T13:47:18.862Z</time></trkpt><trkpt lat="40.3823954" lon="16.1109045"><ele>864.0</ele><time>2026-04-06T13:47:19.862Z</time></trkpt><trkpt lat="40.3824474" lon="16.1107254"><ele>864.0</ele><time>2026-04-06T13:47:20.862Z</time></trkpt><trkpt lat="40.3825113" lon="16.1105411"><ele>864.0</ele><time>2026-04-06T13:47:21.862Z</time></trkpt><trkpt lat="40.3825838" lon="16.1103543"><ele>864.0</ele><time>2026-04-06T13:47:22.862Z</time></trkpt><trkpt lat="40.382657" lon="16.1101741"><ele>864.0</ele><time>2026-04-06T13:47:23.862Z</time></trkpt><trkpt lat="40.3827182" lon="16.1099933"><ele>864.0</ele><time>2026-04-06T13:47:24.862Z</time></trkpt><trkpt lat="40.3827556" lon="16.1098118"><ele>864.0</ele><time>2026-04-06T13:47:25.862Z</time></trkpt><trkpt lat="40.3827674" lon="16.1096328"><ele>864.5</ele><time>2026-04-06T13:47:26.862Z</time></trkpt><trkpt lat="40.3827431" lon="16.1094582"><ele>865.0</ele><time>2026-04-06T13:47:27.862Z</time></trkpt><trkpt lat="40.382701" lon="16.1092813"><ele>865.5</ele><time>2026-04-06T13:47:28.862Z</time></trkpt><trkpt lat="40.3826527" lon="16.1091023"><ele>866.0</ele><time>2026-04-06T13:47:29.862Z</time></trkpt><trkpt lat="40.3825996" lon="16.1089293"><ele>867.1999999999999</ele><time>2026-04-06T13:47:30.862Z</time></trkpt><trkpt lat="40.3825494" lon="16.1087697"><ele>868.3999999999999</ele><time>2026-04-06T13:47:31.862Z</time></trkpt><trkpt lat="40.3825094" lon="16.1086259"><ele>869.6</ele><time>2026-04-06T13:47:32.862Z</time></trkpt><trkpt lat="40.3824919" lon="16.108493"><ele>870.8</ele><time>2026-04-06T13:47:33.863Z</time></trkpt><trkpt lat="40.3824941" lon="16.1083754"><ele>872.0</ele><time>2026-04-06T13:47:34.862Z</time></trkpt><trkpt lat="40.3825204" lon="16.1082647"><ele>870.6</ele><time>2026-04-06T13:47:35.862Z</time></trkpt><trkpt lat="40.3825857" lon="16.1081699"><ele>869.2</ele><time>2026-04-06T13:47:36.863Z</time></trkpt><trkpt lat="40.3826793" lon="16.1080785"><ele>867.8</ele><time>2026-04-06T13:47:37.862Z</time></trkpt><trkpt lat="40.3827763" lon="16.1079923"><ele>866.4</ele><time>2026-04-06T13:47:38.863Z</time></trkpt><trkpt lat="40.3828623" lon="16.1079197"><ele>865.0</ele><time>2026-04-06T13:47:39.863Z</time></trkpt><trkpt lat="40.3829372" lon="16.1078756"><ele>866.4</ele><time>2026-04-06T13:47:40.862Z</time></trkpt><trkpt lat="40.3830438" lon="16.1079481"><ele>867.8</ele><time>2026-04-06T13:47:42.862Z</time></trkpt><trkpt lat="40.3830542" lon="16.1080389"><ele>869.2</ele><time>2026-04-06T13:47:43.862Z</time></trkpt><trkpt lat="40.3830312" lon="16.1081531"><ele>870.6</ele><time>2026-04-06T13:47:44.862Z</time></trkpt><trkpt lat="40.3829793" lon="16.1082701"><ele>872.0</ele><time>2026-04-06T13:47:45.862Z</time></trkpt><trkpt lat="40.3829119" lon="16.1083977"><ele>872.0</ele><time>2026-04-06T13:47:46.863Z</time></trkpt><trkpt lat="40.3828628" lon="16.1085429"><ele>872.0</ele><time>2026-04-06T13:47:47.863Z</time></trkpt><trkpt lat="40.3828371" lon="16.1087001"><ele>872.0</ele><time>2026-04-06T13:47:48.862Z</time></trkpt><trkpt lat="40.3828485" lon="16.1088633"><ele>872.0</ele><time>2026-04-06T13:47:49.862Z</time></trkpt><trkpt lat="40.3828969" lon="16.1090214"><ele>870.5</ele><time>2026-04-06T13:47:50.863Z</time></trkpt><trkpt lat="40.3829713" lon="16.1091733"><ele>869.0</ele><time>2026-04-06T13:47:51.862Z</time></trkpt><trkpt lat="40.3830624" lon="16.1093242"><ele>867.5</ele><time>2026-04-06T13:47:52.862Z</time></trkpt><trkpt lat="40.3831682" lon="16.1094823"><ele>866.0</ele><time>2026-04-06T13:47:53.862Z</time></trkpt><trkpt lat="40.3832713" lon="16.1096342"><ele>870.1999999999999</ele><time>2026-04-06T13:47:54.862Z</time></trkpt><trkpt lat="40.3833658" lon="16.109772"><ele>874.3999999999999</ele><time>2026-04-06T13:47:55.862Z</time></trkpt><trkpt lat="40.3834407" lon="16.1098911"><ele>878.6</ele><time>2026-04-06T13:47:56.863Z</time></trkpt><trkpt lat="40.3834846" lon="16.1099969"><ele>882.8</ele><time>2026-04-06T13:47:57.862Z</time></trkpt><trkpt lat="40.3835025" lon="16.1100971"><ele>887.0</ele><time>2026-04-06T13:47:58.863Z</time></trkpt><trkpt lat="40.3834892" lon="16.1102"><ele>887.0</ele><time>2026-04-06T13:47:59.862Z</time></trkpt><trkpt lat="40.3834481" lon="16.1102977"><ele>887.0</ele><time>2026-04-06T13:48:00.862Z</time></trkpt><trkpt lat="40.3833788" lon="16.1104029"><ele>887.0</ele><time>2026-04-06T13:48:01.863Z</time></trkpt><trkpt lat="40.3833013" lon="16.1105204"><ele>887.0</ele><time>2026-04-06T13:48:02.862Z</time></trkpt><trkpt lat="40.3832494" lon="16.1106425"><ele>887.0</ele><time>2026-04-06T13:48:03.862Z</time></trkpt><trkpt lat="40.3832381" lon="16.1107697"><ele>887.75</ele><time>2026-04-06T13:48:04.862Z</time></trkpt><trkpt lat="40.3832754" lon="16.110903"><ele>888.5</ele><time>2026-04-06T13:48:05.862Z</time></trkpt><trkpt lat="40.3833459" lon="16.1110404"><ele>889.25</ele><time>2026-04-06T13:48:06.862Z</time></trkpt><trkpt lat="40.3834212" lon="16.1111874"><ele>890.0</ele><time>2026-04-06T13:48:07.862Z</time></trkpt><trkpt lat="40.3834843" lon="16.1113495"><ele>890.0</ele><time>2026-04-06T13:48:08.862Z</time></trkpt><trkpt lat="40.3835378" lon="16.1115163"><ele>890.0</ele><time>2026-04-06T13:48:09.862Z</time></trkpt><trkpt lat="40.3835932" lon="16.1116797"><ele>890.0</ele><time>2026-04-06T13:48:10.862Z</time></trkpt><trkpt lat="40.3836736" lon="16.1118377"><ele>890.0</ele><time>2026-04-06T13:48:11.862Z</time></trkpt><trkpt lat="40.3837839" lon="16.1119888"><ele>893.3333333333334</ele><time>2026-04-06T13:48:12.862Z</time></trkpt><trkpt lat="40.3839028" lon="16.1121425"><ele>896.6666666666667</ele><time>2026-04-06T13:48:13.863Z</time></trkpt><trkpt lat="40.3840244" lon="16.1123022"><ele>900.0</ele><time>2026-04-06T13:48:14.862Z</time></trkpt><trkpt lat="40.3841432" lon="16.1124655"><ele>900.0</ele><time>2026-04-06T13:48:15.862Z</time></trkpt><trkpt lat="40.3842523" lon="16.1126273"><ele>900.0</ele><time>2026-04-06T13:48:16.862Z</time></trkpt><trkpt lat="40.384365" lon="16.1127833"><ele>900.0</ele><time>2026-04-06T13:48:17.862Z</time></trkpt><trkpt lat="40.3844733" lon="16.1129292"><ele>900.0</ele><time>2026-04-06T13:48:18.862Z</time></trkpt><trkpt lat="40.3845876" lon="16.1130508"><ele>900.0</ele><time>2026-04-06T13:48:19.862Z</time></trkpt><trkpt lat="40.3847152" lon="16.1131459"><ele>900.0</ele><time>2026-04-06T13:48:20.862Z</time></trkpt><trkpt lat="40.3848638" lon="16.1132263"><ele>902.6666666666667</ele><time>2026-04-06T13:48:21.862Z</time></trkpt><trkpt lat="40.3850144" lon="16.1133018"><ele>905.3333333333334</ele><time>2026-04-06T13:48:22.862Z</time></trkpt><trkpt lat="40.3851601" lon="16.1133801"><ele>908.0</ele><time>2026-04-06T13:48:23.862Z</time></trkpt><trkpt lat="40.3853024" lon="16.1134659"><ele>908.0</ele><time>2026-04-06T13:48:24.862Z</time></trkpt><trkpt lat="40.3854411" lon="16.1135642"><ele>908.0</ele><time>2026-04-06T13:48:25.863Z</time></trkpt><trkpt lat="40.3855748" lon="16.1136868"><ele>908.0</ele><time>2026-04-06T13:48:26.862Z</time></trkpt><trkpt lat="40.3856993" lon="16.1138187"><ele>908.6666666666667</ele><time>2026-04-06T13:48:27.862Z</time></trkpt><trkpt lat="40.3858159" lon="16.1139644"><ele>909.3333333333333</ele><time>2026-04-06T13:48:28.862Z</time></trkpt><trkpt lat="40.3859311" lon="16.1141114"><ele>910.0</ele><time>2026-04-06T13:48:29.862Z</time></trkpt><trkpt lat="40.386048" lon="16.1142523"><ele>910.0</ele><time>2026-04-06T13:48:30.862Z</time></trkpt><trkpt lat="40.3861616" lon="16.1143871"><ele>910.0</ele><time>2026-04-06T13:48:31.862Z</time></trkpt><trkpt lat="40.3862622" lon="16.1145146"><ele>910.0</ele><time>2026-04-06T13:48:32.862Z</time></trkpt><trkpt lat="40.3863489" lon="16.1146257"><ele>910.0</ele><time>2026-04-06T13:48:33.862Z</time></trkpt><trkpt lat="40.3864341" lon="16.1147046"><ele>914.2</ele><time>2026-04-06T13:48:34.862Z</time></trkpt><trkpt lat="40.3865217" lon="16.1147482"><ele>918.4</ele><time>2026-04-06T13:48:35.862Z</time></trkpt><trkpt lat="40.3866216" lon="16.1147543"><ele>922.5999999999999</ele><time>2026-04-06T13:48:36.862Z</time></trkpt><trkpt lat="40.3867253" lon="16.114731"><ele>926.8</ele><time>2026-04-06T13:48:37.862Z</time></trkpt><trkpt lat="40.3868415" lon="16.1146961"><ele>931.0</ele><time>2026-04-06T13:48:38.862Z</time></trkpt><trkpt lat="40.3869663" lon="16.1146507"><ele>931.0</ele><time>2026-04-06T13:48:39.863Z</time></trkpt><trkpt lat="40.3870952" lon="16.114601"><ele>931.0</ele><time>2026-04-06T13:48:40.862Z</time></trkpt><trkpt lat="40.387219" lon="16.1145437"><ele>931.0</ele><time>2026-04-06T13:48:41.862Z</time></trkpt><trkpt lat="40.3873344" lon="16.1144851"><ele>931.0</ele><time>2026-04-06T13:48:42.862Z</time></trkpt><trkpt lat="40.3874434" lon="16.1144333"><ele>931.0</ele><time>2026-04-06T13:48:43.862Z</time></trkpt><trkpt lat="40.3875473" lon="16.1143984"><ele>930.9999999999999</ele><time>2026-04-06T13:48:44.863Z</time></trkpt><trkpt lat="40.3876524" lon="16.1143955"><ele>930.9999999999999</ele><time>2026-04-06T13:48:45.862Z</time></trkpt><trkpt lat="40.3877544" lon="16.1144402"><ele>931.0</ele><time>2026-04-06T13:48:46.862Z</time></trkpt><trkpt lat="40.3878515" lon="16.11453"><ele>931.0</ele><time>2026-04-06T13:48:47.862Z</time></trkpt><trkpt lat="40.3879396" lon="16.1146426"><ele>931.4</ele><time>2026-04-06T13:48:48.862Z</time></trkpt><trkpt lat="40.3880101" lon="16.1147617"><ele>931.8</ele><time>2026-04-06T13:48:49.862Z</time></trkpt><trkpt lat="40.3880682" lon="16.1148749"><ele>932.1999999999999</ele><time>2026-04-06T13:48:50.863Z</time></trkpt><trkpt lat="40.3881101" lon="16.1149833"><ele>932.5999999999999</ele><time>2026-04-06T13:48:51.862Z</time></trkpt><trkpt lat="40.3881443" lon="16.1150975"><ele>933.0</ele><time>2026-04-06T13:48:52.862Z</time></trkpt><trkpt lat="40.388175" lon="16.1152129"><ele>933.0</ele><time>2026-04-06T13:48:53.862Z</time></trkpt><trkpt lat="40.3882136" lon="16.1153262"><ele>933.0</ele><time>2026-04-06T13:48:54.862Z</time></trkpt><trkpt lat="40.3882605" lon="16.1154474"><ele>933.0</ele><time>2026-04-06T13:48:55.863Z</time></trkpt><trkpt lat="40.3883088" lon="16.1155774"><ele>933.0</ele><time>2026-04-06T13:48:56.862Z</time></trkpt><trkpt lat="40.3883645" lon="16.1157203"><ele>933.0</ele><time>2026-04-06T13:48:57.863Z</time></trkpt><trkpt lat="40.3884237" lon="16.1158643"><ele>932.4</ele><time>2026-04-06T13:48:58.862Z</time></trkpt><trkpt lat="40.3884759" lon="16.1160049"><ele>931.8</ele><time>2026-04-06T13:48:59.862Z</time></trkpt><trkpt lat="40.3885143" lon="16.1161393"><ele>931.2</ele><time>2026-04-06T13:49:00.863Z</time></trkpt><trkpt lat="40.3885264" lon="16.1162607"><ele>930.6</ele><time>2026-04-06T13:49:01.862Z</time></trkpt><trkpt lat="40.3884948" lon="16.116367"><ele>930.0</ele><time>2026-04-06T13:49:02.863Z</time></trkpt><trkpt lat="40.3884233" lon="16.1164561"><ele>930.0</ele><time>2026-04-06T13:49:03.863Z</time></trkpt><trkpt lat="40.388323" lon="16.1165221"><ele>930.0</ele><time>2026-04-06T13:49:04.862Z</time></trkpt><trkpt lat="40.3882171" lon="16.1165926"><ele>930.0</ele><time>2026-04-06T13:49:05.862Z</time></trkpt><trkpt lat="40.3881154" lon="16.116673"><ele>930.0</ele><time>2026-04-06T13:49:06.862Z</time></trkpt><trkpt lat="40.3880232" lon="16.1167646"><ele>926.25</ele><time>2026-04-06T13:49:07.863Z</time></trkpt><trkpt lat="40.3879388" lon="16.1168615"><ele>922.5</ele><time>2026-04-06T13:49:08.862Z</time></trkpt><trkpt lat="40.3878633" lon="16.1169696"><ele>918.75</ele><time>2026-04-06T13:49:09.862Z</time></trkpt><trkpt lat="40.3877931" lon="16.117094"><ele>915.0</ele><time>2026-04-06T13:49:10.863Z</time></trkpt><trkpt lat="40.387746" lon="16.11724"><ele>919.25</ele><time>2026-04-06T13:49:11.862Z</time></trkpt><trkpt lat="40.3877197" lon="16.1174063"><ele>923.5</ele><time>2026-04-06T13:49:12.862Z</time></trkpt><trkpt lat="40.3877084" lon="16.1175963"><ele>927.75</ele><time>2026-04-06T13:49:13.862Z</time></trkpt><trkpt lat="40.3877021" lon="16.1178068"><ele>932.0</ele><time>2026-04-06T13:49:14.862Z</time></trkpt><trkpt lat="40.3876917" lon="16.1180237"><ele>932.0</ele><time>2026-04-06T13:49:15.863Z</time></trkpt><trkpt lat="40.3876666" lon="16.1182279"><ele>932.0</ele><time>2026-04-06T13:49:16.863Z</time></trkpt><trkpt lat="40.3876311" lon="16.1184153"><ele>932.0</ele><time>2026-04-06T13:49:17.862Z</time></trkpt><trkpt lat="40.3875844" lon="16.1185797"><ele>932.0</ele><time>2026-04-06T13:49:18.862Z</time></trkpt><trkpt lat="40.3875272" lon="16.1187254"><ele>934.0</ele><time>2026-04-06T13:49:19.862Z</time></trkpt><trkpt lat="40.3874447" lon="16.1188468"><ele>936.0</ele><time>2026-04-06T13:49:20.862Z</time></trkpt><trkpt lat="40.3873407" lon="16.1189877"><ele>938.0</ele><time>2026-04-06T13:49:21.863Z</time></trkpt><trkpt lat="40.3872404" lon="16.1191456"><ele>940.0</ele><time>2026-04-06T13:49:22.862Z</time></trkpt><trkpt lat="40.3871429" lon="16.1193079"><ele>940.0</ele><time>2026-04-06T13:49:23.862Z</time></trkpt><trkpt lat="40.3870389" lon="16.1194544"><ele>940.0</ele><time>2026-04-06T13:49:24.863Z</time></trkpt><trkpt lat="40.3869163" lon="16.1195634"><ele>940.0</ele><time>2026-04-06T13:49:25.863Z</time></trkpt><trkpt lat="40.386779" lon="16.1196308"><ele>940.0</ele><time>2026-04-06T13:49:26.863Z</time></trkpt><trkpt lat="40.3866238" lon="16.1196584"><ele>940.0</ele><time>2026-04-06T13:49:27.862Z</time></trkpt><trkpt lat="40.3864901" lon="16.1196784"><ele>940.0</ele><time>2026-04-06T13:49:28.862Z</time></trkpt><trkpt lat="40.3863805" lon="16.1197285"><ele>940.0</ele><time>2026-04-06T13:49:29.862Z</time></trkpt><trkpt lat="40.3862917" lon="16.1198034"><ele>940.0</ele><time>2026-04-06T13:49:30.862Z</time></trkpt><trkpt lat="40.3862139" lon="16.1199006"><ele>940.2</ele><time>2026-04-06T13:49:31.862Z</time></trkpt><trkpt lat="40.3861579" lon="16.1200227"><ele>940.4</ele><time>2026-04-06T13:49:32.862Z</time></trkpt><trkpt lat="40.3861285" lon="16.1201583"><ele>940.5999999999999</ele><time>2026-04-06T13:49:33.862Z</time></trkpt><trkpt lat="40.3861265" lon="16.1203008"><ele>940.8</ele><time>2026-04-06T13:49:34.862Z</time></trkpt><trkpt lat="40.386147" lon="16.1204531"><ele>941.0</ele><time>2026-04-06T13:49:35.862Z</time></trkpt><trkpt lat="40.3861874" lon="16.1206101"><ele>940.25</ele><time>2026-04-06T13:49:36.862Z</time></trkpt><trkpt lat="40.3862538" lon="16.1207603"><ele>939.5</ele><time>2026-04-06T13:49:37.863Z</time></trkpt><trkpt lat="40.3863489" lon="16.1209043"><ele>938.75</ele><time>2026-04-06T13:49:38.863Z</time></trkpt><trkpt lat="40.3864541" lon="16.1210432"><ele>938.0</ele><time>2026-04-06T13:49:39.862Z</time></trkpt><trkpt lat="40.3865489" lon="16.1211796"><ele>939.75</ele><time>2026-04-06T13:49:40.863Z</time></trkpt><trkpt lat="40.3866314" lon="16.1213116"><ele>941.5</ele><time>2026-04-06T13:49:41.862Z</time></trkpt><trkpt lat="40.3866933" lon="16.1214403"><ele>943.25</ele><time>2026-04-06T13:49:42.862Z</time></trkpt><trkpt lat="40.3867359" lon="16.1215688"><ele>945.0</ele><time>2026-04-06T13:49:43.862Z</time></trkpt><trkpt lat="40.38675" lon="16.1217038"><ele>945.0</ele><time>2026-04-06T13:49:44.862Z</time></trkpt><trkpt lat="40.3867377" lon="16.1218488"><ele>945.0</ele><time>2026-04-06T13:49:45.863Z</time></trkpt><trkpt lat="40.3867312" lon="16.1220005"><ele>945.0</ele><time>2026-04-06T13:49:46.862Z</time></trkpt><trkpt lat="40.3867541" lon="16.1221582"><ele>945.0</ele><time>2026-04-06T13:49:47.863Z</time></trkpt><trkpt lat="40.3868118" lon="16.1223101"><ele>942.0</ele><time>2026-04-06T13:49:48.863Z</time></trkpt><trkpt lat="40.3868968" lon="16.1224605"><ele>939.0</ele><time>2026-04-06T13:49:49.862Z</time></trkpt><trkpt lat="40.3869829" lon="16.1226206"><ele>936.0</ele><time>2026-04-06T13:49:50.862Z</time></trkpt><trkpt lat="40.3870638" lon="16.1228028"><ele>936.0</ele><time>2026-04-06T13:49:51.862Z</time></trkpt><trkpt lat="40.3871383" lon="16.1230127"><ele>936.0</ele><time>2026-04-06T13:49:52.862Z</time></trkpt><trkpt lat="40.387208" lon="16.1232287"><ele>936.0</ele><time>2026-04-06T13:49:53.862Z</time></trkpt><trkpt lat="40.3872701" lon="16.1234461"><ele>936.3333333333333</ele><time>2026-04-06T13:49:54.862Z</time></trkpt><trkpt lat="40.3873287" lon="16.1236649"><ele>936.6666666666666</ele><time>2026-04-06T13:49:55.862Z</time></trkpt><trkpt lat="40.3873839" lon="16.123872"><ele>937.0</ele><time>2026-04-06T13:49:56.861Z</time></trkpt><trkpt lat="40.3874353" lon="16.1240698"><ele>937.0</ele><time>2026-04-06T13:49:57.861Z</time></trkpt><trkpt lat="40.3874806" lon="16.1242508"><ele>937.0</ele><time>2026-04-06T13:49:58.861Z</time></trkpt><trkpt lat="40.3875206" lon="16.1244127"><ele>937.0</ele><time>2026-04-06T13:49:59.861Z</time></trkpt><trkpt lat="40.3875561" lon="16.1245651"><ele>937.0</ele><time>2026-04-06T13:50:00.861Z</time></trkpt><trkpt lat="40.3875774" lon="16.1247095"><ele>937.0</ele><time>2026-04-06T13:50:01.861Z</time></trkpt><trkpt lat="40.3875846" lon="16.1248465"><ele>937.0</ele><time>2026-04-06T13:50:02.861Z</time></trkpt><trkpt lat="40.3875726" lon="16.1249836"><ele>937.0</ele><time>2026-04-06T13:50:03.861Z</time></trkpt><trkpt lat="40.3875306" lon="16.125122"><ele>937.0</ele><time>2026-04-06T13:50:04.861Z</time></trkpt><trkpt lat="40.3874779" lon="16.1252592"><ele>937.0</ele><time>2026-04-06T13:50:05.861Z</time></trkpt><trkpt lat="40.3874297" lon="16.1253951"><ele>936.0</ele><time>2026-04-06T13:50:06.862Z</time></trkpt><trkpt lat="40.3874018" lon="16.1255368"><ele>935.0</ele><time>2026-04-06T13:50:07.862Z</time></trkpt><trkpt lat="40.3874164" lon="16.1256856"><ele>934.0</ele><time>2026-04-06T13:50:08.862Z</time></trkpt><trkpt lat="40.3874659" lon="16.1258406"><ele>933.0</ele><time>2026-04-06T13:50:09.861Z</time></trkpt><trkpt lat="40.3875363" lon="16.1260024"><ele>933.0</ele><time>2026-04-06T13:50:10.861Z</time></trkpt><trkpt lat="40.3876089" lon="16.1261609"><ele>933.0</ele><time>2026-04-06T13:50:11.862Z</time></trkpt><trkpt lat="40.3876734" lon="16.1263135"><ele>933.0</ele><time>2026-04-06T13:50:12.861Z</time></trkpt><trkpt lat="40.387717" lon="16.1264608"><ele>933.0</ele><time>2026-04-06T13:50:13.861Z</time></trkpt><trkpt lat="40.3877408" lon="16.1266126"><ele>932.25</ele><time>2026-04-06T13:50:14.861Z</time></trkpt><trkpt lat="40.3877276" lon="16.1267597"><ele>931.5</ele><time>2026-04-06T13:50:15.861Z</time></trkpt><trkpt lat="40.3876817" lon="16.1269071"><ele>930.75</ele><time>2026-04-06T13:50:16.862Z</time></trkpt><trkpt lat="40.3876254" lon="16.1270536"><ele>930.0</ele><time>2026-04-06T13:50:17.862Z</time></trkpt><trkpt lat="40.3875861" lon="16.1272059"><ele>930.0</ele><time>2026-04-06T13:50:18.862Z</time></trkpt><trkpt lat="40.3875781" lon="16.1273767"><ele>930.0</ele><time>2026-04-06T13:50:19.861Z</time></trkpt><trkpt lat="40.3876091" lon="16.1275502"><ele>930.0</ele><time>2026-04-06T13:50:20.862Z</time></trkpt><trkpt lat="40.3876424" lon="16.1277311"><ele>930.0</ele><time>2026-04-06T13:50:21.861Z</time></trkpt><trkpt lat="40.3876633" lon="16.1279134"><ele>930.0</ele><time>2026-04-06T13:50:22.861Z</time></trkpt><trkpt lat="40.3876499" lon="16.1280946"><ele>930.0</ele><time>2026-04-06T13:50:23.861Z</time></trkpt><trkpt lat="40.3876111" lon="16.1282797"><ele>930.0</ele><time>2026-04-06T13:50:24.861Z</time></trkpt><trkpt lat="40.3875572" lon="16.1284653"><ele>930.0</ele><time>2026-04-06T13:50:25.861Z</time></trkpt><trkpt lat="40.3875044" lon="16.1286423"><ele>930.25</ele><time>2026-04-06T13:50:26.861Z</time></trkpt><trkpt lat="40.3874694" lon="16.1288116"><ele>930.5</ele><time>2026-04-06T13:50:27.861Z</time></trkpt><trkpt lat="40.3874606" lon="16.1289699"><ele>930.75</ele><time>2026-04-06T13:50:28.861Z</time></trkpt><trkpt lat="40.3874781" lon="16.1291158"><ele>931.0</ele><time>2026-04-06T13:50:29.861Z</time></trkpt><trkpt lat="40.3875181" lon="16.1292511"><ele>930.5</ele><time>2026-04-06T13:50:30.861Z</time></trkpt><trkpt lat="40.3875671" lon="16.1293812"><ele>930.0</ele><time>2026-04-06T13:50:31.861Z</time></trkpt><trkpt lat="40.3876278" lon="16.1295053"><ele>929.5</ele><time>2026-04-06T13:50:32.861Z</time></trkpt><trkpt lat="40.3877003" lon="16.1296223"><ele>929.0</ele><time>2026-04-06T13:50:33.862Z</time></trkpt><trkpt lat="40.3877719" lon="16.1297461"><ele>929.0</ele><time>2026-04-06T13:50:34.861Z</time></trkpt><trkpt lat="40.387839" lon="16.1298859"><ele>929.0</ele><time>2026-04-06T13:50:35.861Z</time></trkpt><trkpt lat="40.3879054" lon="16.1300421"><ele>929.0</ele><time>2026-04-06T13:50:36.861Z</time></trkpt><trkpt lat="40.3879649" lon="16.1302132"><ele>929.0</ele><time>2026-04-06T13:50:37.862Z</time></trkpt><trkpt lat="40.3880192" lon="16.1303911"><ele>936.3333333333334</ele><time>2026-04-06T13:50:38.862Z</time></trkpt><trkpt lat="40.3880532" lon="16.1305734"><ele>943.6666666666667</ele><time>2026-04-06T13:50:39.861Z</time></trkpt><trkpt lat="40.3880585" lon="16.1307767"><ele>951.0</ele><time>2026-04-06T13:50:40.861Z</time></trkpt><trkpt lat="40.3880392" lon="16.1309903"><ele>951.0</ele><time>2026-04-06T13:50:41.862Z</time></trkpt><trkpt lat="40.3880112" lon="16.1312086"><ele>951.0</ele><time>2026-04-06T13:50:42.862Z</time></trkpt><trkpt lat="40.3879777" lon="16.1314303"><ele>951.0</ele><time>2026-04-06T13:50:43.861Z</time></trkpt><trkpt lat="40.3879455" lon="16.1316499"><ele>943.3333333333333</ele><time>2026-04-06T13:50:44.861Z</time></trkpt><trkpt lat="40.3879193" lon="16.131869"><ele>935.6666666666666</ele><time>2026-04-06T13:50:45.861Z</time></trkpt><trkpt lat="40.3878928" lon="16.1320882"><ele>928.0</ele><time>2026-04-06T13:50:46.861Z</time></trkpt><trkpt lat="40.3878643" lon="16.1322989"><ele>931.6666666666666</ele><time>2026-04-06T13:50:47.862Z</time></trkpt><trkpt lat="40.3878156" lon="16.1325083"><ele>935.3333333333333</ele><time>2026-04-06T13:50:48.861Z</time></trkpt><trkpt lat="40.3877462" lon="16.1327137"><ele>939.0</ele><time>2026-04-06T13:50:49.861Z</time></trkpt><trkpt lat="40.3876667" lon="16.1329111"><ele>939.0</ele><time>2026-04-06T13:50:50.862Z</time></trkpt><trkpt lat="40.3875836" lon="16.1330913"><ele>939.0</ele><time>2026-04-06T13:50:51.862Z</time></trkpt><trkpt lat="40.3875015" lon="16.133246"><ele>939.0</ele><time>2026-04-06T13:50:52.862Z</time></trkpt><trkpt lat="40.3874083" lon="16.1333717"><ele>939.0</ele><time>2026-04-06T13:50:53.862Z</time></trkpt><trkpt lat="40.3872917" lon="16.1334517"><ele>940.5</ele><time>2026-04-06T13:50:54.861Z</time></trkpt><trkpt lat="40.3871705" lon="16.1335106"><ele>942.0</ele><time>2026-04-06T13:50:55.862Z</time></trkpt><trkpt lat="40.3870229" lon="16.1335432"><ele>943.5</ele><time>2026-04-06T13:50:56.861Z</time></trkpt><trkpt lat="40.3868786" lon="16.1335697"><ele>945.0</ele><time>2026-04-06T13:50:57.861Z</time></trkpt><trkpt lat="40.386748" lon="16.1336034"><ele>945.0</ele><time>2026-04-06T13:50:58.861Z</time></trkpt><trkpt lat="40.3866474" lon="16.1336539"><ele>945.0</ele><time>2026-04-06T13:50:59.862Z</time></trkpt><trkpt lat="40.3865751" lon="16.1337275"><ele>945.0</ele><time>2026-04-06T13:51:00.861Z</time></trkpt><trkpt lat="40.3865296" lon="16.1338176"><ele>945.0</ele><time>2026-04-06T13:51:01.861Z</time></trkpt><trkpt lat="40.3865097" lon="16.1339157"><ele>945.0</ele><time>2026-04-06T13:51:02.861Z</time></trkpt><trkpt lat="40.3865132" lon="16.1340243"><ele>945.0</ele><time>2026-04-06T13:51:03.862Z</time></trkpt><trkpt lat="40.3865311" lon="16.1341423"><ele>949.75</ele><time>2026-04-06T13:51:04.861Z</time></trkpt><trkpt lat="40.3865496" lon="16.1342735"><ele>954.5</ele><time>2026-04-06T13:51:05.861Z</time></trkpt><trkpt lat="40.3865574" lon="16.1344182"><ele>959.25</ele><time>2026-04-06T13:51:06.861Z</time></trkpt><trkpt lat="40.3865508" lon="16.1345774"><ele>964.0</ele><time>2026-04-06T13:51:07.861Z</time></trkpt><trkpt lat="40.386534" lon="16.1347539"><ele>965.25</ele><time>2026-04-06T13:51:08.861Z</time></trkpt><trkpt lat="40.3865219" lon="16.1349322"><ele>966.5</ele><time>2026-04-06T13:51:09.861Z</time></trkpt><trkpt lat="40.3865211" lon="16.1351088"><ele>967.75</ele><time>2026-04-06T13:51:10.861Z</time></trkpt><trkpt lat="40.3865313" lon="16.13528"><ele>969.0</ele><time>2026-04-06T13:51:11.861Z</time></trkpt><trkpt lat="40.386542" lon="16.1354297"><ele>969.0</ele><time>2026-04-06T13:51:12.862Z</time></trkpt><trkpt lat="40.3865525" lon="16.1355619"><ele>969.0</ele><time>2026-04-06T13:51:13.861Z</time></trkpt><trkpt lat="40.3865679" lon="16.1356873"><ele>969.0</ele><time>2026-04-06T13:51:14.862Z</time></trkpt><trkpt lat="40.3865851" lon="16.1357968"><ele>969.0</ele><time>2026-04-06T13:51:15.861Z</time></trkpt><trkpt lat="40.3865954" lon="16.1358823"><ele>969.0</ele><time>2026-04-06T13:51:16.861Z</time></trkpt><trkpt lat="40.3865598" lon="16.1359756"><ele>969.0</ele><time>2026-04-06T13:51:18.861Z</time></trkpt><trkpt lat="40.3864749" lon="16.1360458"><ele>968.6666666666666</ele><time>2026-04-06T13:51:20.861Z</time></trkpt><trkpt lat="40.386412" lon="16.1360734"><ele>968.3333333333333</ele><time>2026-04-06T13:51:21.861Z</time></trkpt><trkpt lat="40.3863395" lon="16.1360991"><ele>968.0</ele><time>2026-04-06T13:51:22.861Z</time></trkpt><trkpt lat="40.3862575" lon="16.1361245"><ele>967.6666666666666</ele><time>2026-04-06T13:51:23.861Z</time></trkpt><trkpt lat="40.3861669" lon="16.13615"><ele>967.3333333333333</ele><time>2026-04-06T13:51:24.861Z</time></trkpt><trkpt lat="40.3860726" lon="16.136171"><ele>967.0</ele><time>2026-04-06T13:51:25.861Z</time></trkpt><trkpt lat="40.3859791" lon="16.1361892"><ele>965.2</ele><time>2026-04-06T13:51:26.861Z</time></trkpt><trkpt lat="40.3858867" lon="16.1362074"><ele>963.4000000000001</ele><time>2026-04-06T13:51:27.861Z</time></trkpt><trkpt lat="40.3857815" lon="16.1362238"><ele>961.5999999999999</ele><time>2026-04-06T13:51:28.861Z</time></trkpt><trkpt lat="40.3856766" lon="16.1362321"><ele>959.8</ele><time>2026-04-06T13:51:29.861Z</time></trkpt><trkpt lat="40.3855716" lon="16.1362424"><ele>958.0</ele><time>2026-04-06T13:51:30.861Z</time></trkpt><trkpt lat="40.3854735" lon="16.1362598"><ele>957.2</ele><time>2026-04-06T13:51:31.861Z</time></trkpt><trkpt lat="40.3853719" lon="16.1362815"><ele>956.4</ele><time>2026-04-06T13:51:32.862Z</time></trkpt><trkpt lat="40.3852699" lon="16.1363047"><ele>955.6000000000001</ele><time>2026-04-06T13:51:33.861Z</time></trkpt><trkpt lat="40.3851692" lon="16.1363288"><ele>954.8000000000001</ele><time>2026-04-06T13:51:34.862Z</time></trkpt><trkpt lat="40.3850765" lon="16.1363505"><ele>954.0</ele><time>2026-04-06T13:51:35.862Z</time></trkpt><trkpt lat="40.3849944" lon="16.1363704"><ele>954.0</ele><time>2026-04-06T13:51:36.861Z</time></trkpt><trkpt lat="40.3849251" lon="16.1363866"><ele>953.9999999999999</ele><time>2026-04-06T13:51:37.861Z</time></trkpt><trkpt lat="40.3848584" lon="16.1363998"><ele>954.0</ele><time>2026-04-06T13:51:38.861Z</time></trkpt><trkpt lat="40.3847906" lon="16.136414"><ele>954.0</ele><time>2026-04-06T13:51:39.861Z</time></trkpt><trkpt lat="40.3847172" lon="16.1364362"><ele>953.9999999999999</ele><time>2026-04-06T13:51:40.861Z</time></trkpt><trkpt lat="40.3846487" lon="16.1364702"><ele>954.0</ele><time>2026-04-06T13:51:41.861Z</time></trkpt><trkpt lat="40.3845798" lon="16.136508"><ele>954.0</ele><time>2026-04-06T13:51:42.861Z</time></trkpt><trkpt lat="40.3845146" lon="16.1365507"><ele>955.0</ele><time>2026-04-06T13:51:43.861Z</time></trkpt><trkpt lat="40.3844527" lon="16.1365993"><ele>955.9999999999999</ele><time>2026-04-06T13:51:44.862Z</time></trkpt><trkpt lat="40.3843926" lon="16.136646"><ele>957.0</ele><time>2026-04-06T13:51:45.861Z</time></trkpt><trkpt lat="40.3843291" lon="16.136693"><ele>958.0</ele><time>2026-04-06T13:51:46.861Z</time></trkpt><trkpt lat="40.3842632" lon="16.1367411"><ele>958.9999999999999</ele><time>2026-04-06T13:51:47.862Z</time></trkpt><trkpt lat="40.3841976" lon="16.1367923"><ele>960.0</ele><time>2026-04-06T13:51:48.861Z</time></trkpt><trkpt lat="40.3841284" lon="16.1368402"><ele>961.0</ele><time>2026-04-06T13:51:49.861Z</time></trkpt><trkpt lat="40.3840604" lon="16.1368844"><ele>961.0</ele><time>2026-04-06T13:51:50.862Z</time></trkpt><trkpt lat="40.3839888" lon="16.1369293"><ele>960.9999999999999</ele><time>2026-04-06T13:51:51.861Z</time></trkpt><trkpt lat="40.3839109" lon="16.1369855"><ele>960.9999999999999</ele><time>2026-04-06T13:51:52.861Z</time></trkpt><trkpt lat="40.3838245" lon="16.1370455"><ele>961.0</ele><time>2026-04-06T13:51:53.862Z</time></trkpt><trkpt lat="40.383726" lon="16.1371224"><ele>961.0</ele><time>2026-04-06T13:51:54.861Z</time></trkpt><trkpt lat="40.3836233" lon="16.1372"><ele>960.0</ele><time>2026-04-06T13:51:55.861Z</time></trkpt><trkpt lat="40.3835154" lon="16.1372816"><ele>959.0</ele><time>2026-04-06T13:51:56.861Z</time></trkpt><trkpt lat="40.3834136" lon="16.1373645"><ele>958.0</ele><time>2026-04-06T13:51:57.861Z</time></trkpt><trkpt lat="40.3833269" lon="16.1374518"><ele>957.0</ele><time>2026-04-06T13:51:58.862Z</time></trkpt><trkpt lat="40.3832488" lon="16.1375478"><ele>957.0</ele><time>2026-04-06T13:51:59.861Z</time></trkpt><trkpt lat="40.3831746" lon="16.1376447"><ele>957.0</ele><time>2026-04-06T13:52:00.861Z</time></trkpt><trkpt lat="40.3831081" lon="16.1377376"><ele>957.0</ele><time>2026-04-06T13:52:01.861Z</time></trkpt><trkpt lat="40.3830449" lon="16.1378242"><ele>957.0</ele><time>2026-04-06T13:52:02.862Z</time></trkpt><trkpt lat="40.3829807" lon="16.1379033"><ele>957.0</ele><time>2026-04-06T13:52:03.862Z</time></trkpt><trkpt lat="40.3829202" lon="16.137973"><ele>957.0</ele><time>2026-04-06T13:52:04.862Z</time></trkpt><trkpt lat="40.3828647" lon="16.1380332"><ele>957.0000000000001</ele><time>2026-04-06T13:52:05.861Z</time></trkpt><trkpt lat="40.3827956" lon="16.1381029"><ele>957.0</ele><time>2026-04-06T13:52:07.861Z</time></trkpt><trkpt lat="40.3827454" lon="16.1381794"><ele>957.0</ele><time>2026-04-06T13:52:10.861Z</time></trkpt><trkpt lat="40.3826862" lon="16.138227"><ele>957.0000000000001</ele><time>2026-04-06T13:52:13.861Z</time></trkpt><trkpt lat="40.3826599" lon="16.1383167"><ele>957.0</ele><time>2026-04-06T13:52:21.861Z</time></trkpt><trkpt lat="40.3826657" lon="16.1383995"><ele>957.0</ele><time>2026-04-06T13:52:25.861Z</time></trkpt><trkpt lat="40.3827244" lon="16.1384563"><ele>959.1666666666666</ele><time>2026-04-06T13:52:29.861Z</time></trkpt><trkpt lat="40.3828118" lon="16.1384919"><ele>961.3333333333333</ele><time>2026-04-06T13:52:32.861Z</time></trkpt><trkpt lat="40.3828183" lon="16.1385895"><ele>963.5</ele><time>2026-04-06T13:53:41.861Z</time></trkpt><trkpt lat="40.3827567" lon="16.1385718"><ele>965.6666666666666</ele><time>2026-04-06T13:53:44.861Z</time></trkpt><trkpt lat="40.3827111" lon="16.138479"><ele>967.8333333333333</ele><time>2026-04-06T13:53:46.861Z</time></trkpt><trkpt lat="40.3826637" lon="16.1383482"><ele>970.0</ele><time>2026-04-06T13:53:48.862Z</time></trkpt><trkpt lat="40.3826801" lon="16.1382489"><ele>969.0</ele><time>2026-04-06T13:53:50.862Z</time></trkpt><trkpt lat="40.3827546" lon="16.1381661"><ele>968.0</ele><time>2026-04-06T13:53:52.861Z</time></trkpt><trkpt lat="40.3828596" lon="16.1380627"><ele>967.0</ele><time>2026-04-06T13:53:54.862Z</time></trkpt><trkpt lat="40.3829145" lon="16.1380005"><ele>966.0</ele><time>2026-04-06T13:53:55.861Z</time></trkpt><trkpt lat="40.3829717" lon="16.1379376"><ele>965.0</ele><time>2026-04-06T13:53:56.862Z</time></trkpt><trkpt lat="40.383032" lon="16.1378688"><ele>965.0</ele><time>2026-04-06T13:53:57.861Z</time></trkpt><trkpt lat="40.3831004" lon="16.1377834"><ele>965.0</ele><time>2026-04-06T13:53:58.861Z</time></trkpt><trkpt lat="40.3831778" lon="16.1376804"><ele>965.0</ele><time>2026-04-06T13:53:59.861Z</time></trkpt><trkpt lat="40.3832521" lon="16.1375825"><ele>965.0</ele><time>2026-04-06T13:54:00.861Z</time></trkpt><trkpt lat="40.3833312" lon="16.1374881"><ele>965.0</ele><time>2026-04-06T13:54:01.86Z</time></trkpt><trkpt lat="40.383414" lon="16.1374037"><ele>964.3333333333334</ele><time>2026-04-06T13:54:02.86Z</time></trkpt><trkpt lat="40.3834967" lon="16.1373326"><ele>963.6666666666667</ele><time>2026-04-06T13:54:03.86Z</time></trkpt><trkpt lat="40.3835781" lon="16.137272"><ele>963.0</ele><time>2026-04-06T13:54:04.86Z</time></trkpt><trkpt lat="40.3836609" lon="16.1372148"><ele>962.3333333333333</ele><time>2026-04-06T13:54:05.86Z</time></trkpt><trkpt lat="40.3837383" lon="16.137165"><ele>961.6666666666666</ele><time>2026-04-06T13:54:06.861Z</time></trkpt><trkpt lat="40.3838043" lon="16.1371148"><ele>961.0</ele><time>2026-04-06T13:54:07.86Z</time></trkpt><trkpt lat="40.3838645" lon="16.1370643"><ele>960.9999999999999</ele><time>2026-04-06T13:54:08.86Z</time></trkpt><trkpt lat="40.3839206" lon="16.1370176"><ele>961.0</ele><time>2026-04-06T13:54:09.86Z</time></trkpt><trkpt lat="40.3839758" lon="16.136976"><ele>961.0</ele><time>2026-04-06T13:54:10.861Z</time></trkpt><trkpt lat="40.3840737" lon="16.1369131"><ele>961.0</ele><time>2026-04-06T13:54:12.86Z</time></trkpt><trkpt lat="40.3841757" lon="16.1368446"><ele>960.9999999999999</ele><time>2026-04-06T13:54:14.861Z</time></trkpt><trkpt lat="40.3842366" lon="16.1368014"><ele>961.0</ele><time>2026-04-06T13:54:15.861Z</time></trkpt><trkpt lat="40.3842978" lon="16.1367518"><ele>961.0</ele><time>2026-04-06T13:54:16.86Z</time></trkpt><trkpt lat="40.3843649" lon="16.1367022"><ele>960.9999999999999</ele><time>2026-04-06T13:54:17.86Z</time></trkpt><trkpt lat="40.3844334" lon="16.136651"><ele>961.0</ele><time>2026-04-06T13:54:18.86Z</time></trkpt><trkpt lat="40.3844984" lon="16.1366008"><ele>961.0</ele><time>2026-04-06T13:54:19.86Z</time></trkpt><trkpt lat="40.3845625" lon="16.1365545"><ele>960.9999999999999</ele><time>2026-04-06T13:54:20.861Z</time></trkpt><trkpt lat="40.3846235" lon="16.1365112"><ele>961.0</ele><time>2026-04-06T13:54:21.861Z</time></trkpt><trkpt lat="40.3846845" lon="16.1364711"><ele>961.0</ele><time>2026-04-06T13:54:22.861Z</time></trkpt><trkpt lat="40.3847433" lon="16.1364379"><ele>960.0</ele><time>2026-04-06T13:54:23.861Z</time></trkpt><trkpt lat="40.3848052" lon="16.1364136"><ele>958.9999999999999</ele><time>2026-04-06T13:54:24.861Z</time></trkpt><trkpt lat="40.3848683" lon="16.1363983"><ele>958.0</ele><time>2026-04-06T13:54:25.861Z</time></trkpt><trkpt lat="40.3849344" lon="16.1363848"><ele>957.0</ele><time>2026-04-06T13:54:26.861Z</time></trkpt><trkpt lat="40.3850013" lon="16.1363693"><ele>955.9999999999999</ele><time>2026-04-06T13:54:27.86Z</time></trkpt><trkpt lat="40.3850695" lon="16.1363527"><ele>955.0</ele><time>2026-04-06T13:54:28.86Z</time></trkpt><trkpt lat="40.3851379" lon="16.1363366"><ele>954.0</ele><time>2026-04-06T13:54:29.861Z</time></trkpt><trkpt lat="40.3852023" lon="16.1363215"><ele>954.0</ele><time>2026-04-06T13:54:30.86Z</time></trkpt><trkpt lat="40.3853196" lon="16.1362962"><ele>954.0000000000001</ele><time>2026-04-06T13:54:32.86Z</time></trkpt><trkpt lat="40.3854299" lon="16.1362784"><ele>954.0000000000001</ele><time>2026-04-06T13:54:34.86Z</time></trkpt><trkpt lat="40.3855496" lon="16.1362645"><ele>954.0</ele><time>2026-04-06T13:54:36.86Z</time></trkpt><trkpt lat="40.3856133" lon="16.1362594"><ele>954.0</ele><time>2026-04-06T13:54:37.86Z</time></trkpt><trkpt lat="40.3857333" lon="16.1362497"><ele>954.8000000000001</ele><time>2026-04-06T13:54:39.86Z</time></trkpt><trkpt lat="40.3858492" lon="16.1362401"><ele>955.6000000000001</ele><time>2026-04-06T13:54:41.86Z</time></trkpt><trkpt lat="40.3859577" lon="16.1362219"><ele>956.4</ele><time>2026-04-06T13:54:43.86Z</time></trkpt><trkpt lat="40.3860599" lon="16.1361999"><ele>957.2</ele><time>2026-04-06T13:54:45.861Z</time></trkpt><trkpt lat="40.3861465" lon="16.1361893"><ele>958.0</ele><time>2026-04-06T13:54:47.861Z</time></trkpt><trkpt lat="40.3862146" lon="16.1361792"><ele>957.9999999999999</ele><time>2026-04-06T13:54:49.86Z</time></trkpt><trkpt lat="40.3862989" lon="16.1361519"><ele>958.0</ele><time>2026-04-06T13:54:52.861Z</time></trkpt><trkpt lat="40.3863865" lon="16.1361215"><ele>958.0</ele><time>2026-04-06T13:54:55.861Z</time></trkpt><trkpt lat="40.3864474" lon="16.1360919"><ele>958.0</ele><time>2026-04-06T13:54:57.86Z</time></trkpt><trkpt lat="40.3865089" lon="16.136055"><ele>957.9999999999999</ele><time>2026-04-06T13:54:59.861Z</time></trkpt><trkpt lat="40.3865773" lon="16.1360451"><ele>958.0</ele><time>2026-04-06T13:55:01.86Z</time></trkpt><trkpt lat="40.3866346" lon="16.136123"><ele>958.8</ele><time>2026-04-06T13:55:04.861Z</time></trkpt><trkpt lat="40.3866186" lon="16.136255"><ele>959.5999999999999</ele><time>2026-04-06T13:55:06.86Z</time></trkpt><trkpt lat="40.3865914" lon="16.1363517"><ele>960.4000000000001</ele><time>2026-04-06T13:55:07.861Z</time></trkpt><trkpt lat="40.3865568" lon="16.1364692"><ele>961.2</ele><time>2026-04-06T13:55:08.86Z</time></trkpt><trkpt lat="40.3865089" lon="16.1365912"><ele>962.0</ele><time>2026-04-06T13:55:09.86Z</time></trkpt><trkpt lat="40.3864474" lon="16.1367119"><ele>962.0</ele><time>2026-04-06T13:55:10.86Z</time></trkpt><trkpt lat="40.386377" lon="16.13682"><ele>962.0</ele><time>2026-04-06T13:55:11.86Z</time></trkpt><trkpt lat="40.3862907" lon="16.1369054"><ele>962.0</ele><time>2026-04-06T13:55:12.861Z</time></trkpt><trkpt lat="40.3861944" lon="16.1369678"><ele>962.0</ele><time>2026-04-06T13:55:13.86Z</time></trkpt><trkpt lat="40.3860853" lon="16.1370127"><ele>962.0</ele><time>2026-04-06T13:55:14.86Z</time></trkpt><trkpt lat="40.3859724" lon="16.1370492"><ele>962.25</ele><time>2026-04-06T13:55:15.86Z</time></trkpt><trkpt lat="40.3858517" lon="16.1370838"><ele>962.5</ele><time>2026-04-06T13:55:16.86Z</time></trkpt><trkpt lat="40.385725" lon="16.1371082"><ele>962.75</ele><time>2026-04-06T13:55:17.86Z</time></trkpt><trkpt lat="40.3855906" lon="16.1371271"><ele>963.0</ele><time>2026-04-06T13:55:18.86Z</time></trkpt><trkpt lat="40.385457" lon="16.1371415"><ele>963.0</ele><time>2026-04-06T13:55:19.86Z</time></trkpt><trkpt lat="40.3853245" lon="16.1371512"><ele>963.0</ele><time>2026-04-06T13:55:20.86Z</time></trkpt><trkpt lat="40.3851981" lon="16.1371563"><ele>963.0</ele><time>2026-04-06T13:55:21.86Z</time></trkpt><trkpt lat="40.3850758" lon="16.1371552"><ele>963.0</ele><time>2026-04-06T13:55:22.86Z</time></trkpt><trkpt lat="40.3849568" lon="16.1371613"><ele>963.0</ele><time>2026-04-06T13:55:23.861Z</time></trkpt><trkpt lat="40.3848364" lon="16.1371874"><ele>963.0</ele><time>2026-04-06T13:55:24.86Z</time></trkpt><trkpt lat="40.3847204" lon="16.1372382"><ele>963.0</ele><time>2026-04-06T13:55:25.86Z</time></trkpt><trkpt lat="40.3846092" lon="16.1373112"><ele>963.0</ele><time>2026-04-06T13:55:26.86Z</time></trkpt><trkpt lat="40.3845026" lon="16.1374054"><ele>962.0</ele><time>2026-04-06T13:55:27.86Z</time></trkpt><trkpt lat="40.3844014" lon="16.1375046"><ele>961.0</ele><time>2026-04-06T13:55:28.86Z</time></trkpt><trkpt lat="40.3843147" lon="16.137602"><ele>960.0</ele><time>2026-04-06T13:55:29.86Z</time></trkpt><trkpt lat="40.3842407" lon="16.137698"><ele>959.0</ele><time>2026-04-06T13:55:30.86Z</time></trkpt><trkpt lat="40.3841852" lon="16.1377975"><ele>958.0</ele><time>2026-04-06T13:55:31.86Z</time></trkpt><trkpt lat="40.3841453" lon="16.1379082"><ele>958.0</ele><time>2026-04-06T13:55:32.86Z</time></trkpt><trkpt lat="40.3841165" lon="16.1380429"><ele>958.0</ele><time>2026-04-06T13:55:33.86Z</time></trkpt><trkpt lat="40.3840999" lon="16.1381942"><ele>958.0</ele><time>2026-04-06T13:55:34.86Z</time></trkpt><trkpt lat="40.3840849" lon="16.1383576"><ele>958.0</ele><time>2026-04-06T13:55:35.86Z</time></trkpt><trkpt lat="40.3840774" lon="16.1385296"><ele>955.5</ele><time>2026-04-06T13:55:36.86Z</time></trkpt><trkpt lat="40.3840725" lon="16.1386994"><ele>953.0</ele><time>2026-04-06T13:55:37.86Z</time></trkpt><trkpt lat="40.3840676" lon="16.138866"><ele>950.5</ele><time>2026-04-06T13:55:38.86Z</time></trkpt><trkpt lat="40.3840603" lon="16.1390277"><ele>948.0</ele><time>2026-04-06T13:55:39.86Z</time></trkpt><trkpt lat="40.3840559" lon="16.1391876"><ele>945.0</ele><time>2026-04-06T13:55:40.86Z</time></trkpt><trkpt lat="40.3840459" lon="16.1393433"><ele>942.0</ele><time>2026-04-06T13:55:41.86Z</time></trkpt><trkpt lat="40.3840229" lon="16.1394951"><ele>939.0</ele><time>2026-04-06T13:55:42.86Z</time></trkpt><trkpt lat="40.3839812" lon="16.1396378"><ele>936.0</ele><time>2026-04-06T13:55:43.86Z</time></trkpt><trkpt lat="40.3839147" lon="16.1397699"><ele>937.0</ele><time>2026-04-06T13:55:44.86Z</time></trkpt><trkpt lat="40.3838282" lon="16.1398801"><ele>938.0</ele><time>2026-04-06T13:55:45.86Z</time></trkpt><trkpt lat="40.383729" lon="16.1399682"><ele>939.0</ele><time>2026-04-06T13:55:46.861Z</time></trkpt><trkpt lat="40.3836231" lon="16.1400421"><ele>940.0</ele><time>2026-04-06T13:55:47.86Z</time></trkpt><trkpt lat="40.3835204" lon="16.140105"><ele>940.0</ele><time>2026-04-06T13:55:48.86Z</time></trkpt><trkpt lat="40.3834208" lon="16.1401663"><ele>940.0</ele><time>2026-04-06T13:55:49.86Z</time></trkpt><trkpt lat="40.383325" lon="16.1402253"><ele>940.0</ele><time>2026-04-06T13:55:50.86Z</time></trkpt><trkpt lat="40.3832416" lon="16.1402774"><ele>940.0</ele><time>2026-04-06T13:55:51.86Z</time></trkpt><trkpt lat="40.383173" lon="16.1403309"><ele>940.0</ele><time>2026-04-06T13:55:52.86Z</time></trkpt><trkpt lat="40.3831256" lon="16.1404742"><ele>940.0</ele><time>2026-04-06T13:55:54.861Z</time></trkpt><trkpt lat="40.3831701" lon="16.1406167"><ele>940.0</ele><time>2026-04-06T13:55:56.86Z</time></trkpt><trkpt lat="40.3832692" lon="16.1406666"><ele>940.0</ele><time>2026-04-06T13:55:58.86Z</time></trkpt><trkpt lat="40.3833371" lon="16.1406588"><ele>940.0</ele><time>2026-04-06T13:55:59.86Z</time></trkpt><trkpt lat="40.383415" lon="16.1406358"><ele>940.0</ele><time>2026-04-06T13:56:00.86Z</time></trkpt><trkpt lat="40.3834979" lon="16.1406027"><ele>940.0</ele><time>2026-04-06T13:56:01.86Z</time></trkpt><trkpt lat="40.3835848" lon="16.1405693"><ele>940.0</ele><time>2026-04-06T13:56:02.86Z</time></trkpt><trkpt lat="40.3836758" lon="16.1405346"><ele>940.0</ele><time>2026-04-06T13:56:03.861Z</time></trkpt><trkpt lat="40.3837724" lon="16.1405017"><ele>940.0</ele><time>2026-04-06T13:56:04.86Z</time></trkpt><trkpt lat="40.383864" lon="16.1404656"><ele>940.0</ele><time>2026-04-06T13:56:05.861Z</time></trkpt><trkpt lat="40.3839569" lon="16.1404324"><ele>937.6666666666666</ele><time>2026-04-06T13:56:06.86Z</time></trkpt><trkpt lat="40.3840487" lon="16.1404018"><ele>935.3333333333333</ele><time>2026-04-06T13:56:07.861Z</time></trkpt><trkpt lat="40.3841349" lon="16.1403739"><ele>933.0</ele><time>2026-04-06T13:56:08.86Z</time></trkpt><trkpt lat="40.3842146" lon="16.1403579"><ele>930.6666666666667</ele><time>2026-04-06T13:56:09.86Z</time></trkpt><trkpt lat="40.3842937" lon="16.1403683"><ele>928.3333333333334</ele><time>2026-04-06T13:56:10.86Z</time></trkpt><trkpt lat="40.3843422" lon="16.140427"><ele>926.0</ele><time>2026-04-06T13:56:11.86Z</time></trkpt><trkpt lat="40.3843673" lon="16.1405093"><ele>926.0</ele><time>2026-04-06T13:56:12.86Z</time></trkpt><trkpt lat="40.3843743" lon="16.1405959"><ele>925.9999999999999</ele><time>2026-04-06T13:56:13.86Z</time></trkpt><trkpt lat="40.3843486" lon="16.1406776"><ele>925.9999999999999</ele><time>2026-04-06T13:56:14.861Z</time></trkpt><trkpt lat="40.3842535" lon="16.1407408"><ele>926.0</ele><time>2026-04-06T13:56:15.86Z</time></trkpt><trkpt lat="40.3841326" lon="16.1407952"><ele>926.0</ele><time>2026-04-06T13:56:16.86Z</time></trkpt><trkpt lat="40.3840042" lon="16.1408445"><ele>925.5</ele><time>2026-04-06T13:56:17.86Z</time></trkpt><trkpt lat="40.3838838" lon="16.1408953"><ele>925.0</ele><time>2026-04-06T13:56:18.86Z</time></trkpt><trkpt lat="40.383765" lon="16.14095"><ele>924.5</ele><time>2026-04-06T13:56:19.86Z</time></trkpt><trkpt lat="40.3836493" lon="16.1410057"><ele>924.0</ele><time>2026-04-06T13:56:20.86Z</time></trkpt><trkpt lat="40.3835342" lon="16.1410644"><ele>924.0</ele><time>2026-04-06T13:56:21.86Z</time></trkpt><trkpt lat="40.383426" lon="16.1411347"><ele>924.0</ele><time>2026-04-06T13:56:22.861Z</time></trkpt><trkpt lat="40.3833292" lon="16.1412239"><ele>924.0</ele><time>2026-04-06T13:56:23.861Z</time></trkpt><trkpt lat="40.3832352" lon="16.1413174"><ele>924.0</ele><time>2026-04-06T13:56:24.86Z</time></trkpt><trkpt lat="40.3831446" lon="16.1414076"><ele>924.0</ele><time>2026-04-06T13:56:25.86Z</time></trkpt><trkpt lat="40.38305" lon="16.1414827"><ele>924.0</ele><time>2026-04-06T13:56:26.86Z</time></trkpt><trkpt lat="40.3829449" lon="16.1415294"><ele>924.0</ele><time>2026-04-06T13:56:27.86Z</time></trkpt><trkpt lat="40.3828295" lon="16.1415476"><ele>924.0</ele><time>2026-04-06T13:56:28.86Z</time></trkpt><trkpt lat="40.3827078" lon="16.1415671"><ele>919.0</ele><time>2026-04-06T13:56:29.861Z</time></trkpt><trkpt lat="40.3825861" lon="16.1415975"><ele>914.0</ele><time>2026-04-06T13:56:30.86Z</time></trkpt><trkpt lat="40.3824601" lon="16.1416429"><ele>909.0</ele><time>2026-04-06T13:56:31.861Z</time></trkpt><trkpt lat="40.3823365" lon="16.1417062"><ele>904.0</ele><time>2026-04-06T13:56:32.86Z</time></trkpt><trkpt lat="40.382226" lon="16.1417896"><ele>905.0</ele><time>2026-04-06T13:56:33.86Z</time></trkpt><trkpt lat="40.3821326" lon="16.1418958"><ele>906.0000000000001</ele><time>2026-04-06T13:56:34.86Z</time></trkpt><trkpt lat="40.3820725" lon="16.1420207"><ele>907.0000000000001</ele><time>2026-04-06T13:56:35.86Z</time></trkpt><trkpt lat="40.3820461" lon="16.1421525"><ele>908.0</ele><time>2026-04-06T13:56:36.86Z</time></trkpt><trkpt lat="40.3820304" lon="16.1422862"><ele>909.0</ele><time>2026-04-06T13:56:37.86Z</time></trkpt><trkpt lat="40.3820045" lon="16.1424086"><ele>909.0</ele><time>2026-04-06T13:56:38.86Z</time></trkpt><trkpt lat="40.3819605" lon="16.1425086"><ele>909.0000000000001</ele><time>2026-04-06T13:56:39.86Z</time></trkpt><trkpt lat="40.3819011" lon="16.1425863"><ele>909.0000000000001</ele><time>2026-04-06T13:56:40.86Z</time></trkpt><trkpt lat="40.3818118" lon="16.1426443"><ele>909.0</ele><time>2026-04-06T13:56:41.86Z</time></trkpt><trkpt lat="40.3817048" lon="16.1426881"><ele>909.0</ele><time>2026-04-06T13:56:42.861Z</time></trkpt><trkpt lat="40.3815886" lon="16.142722"><ele>909.0</ele><time>2026-04-06T13:56:43.861Z</time></trkpt><trkpt lat="40.3814755" lon="16.1427521"><ele>909.0000000000001</ele><time>2026-04-06T13:56:44.86Z</time></trkpt><trkpt lat="40.3813724" lon="16.1427916"><ele>909.0000000000001</ele><time>2026-04-06T13:56:45.86Z</time></trkpt><trkpt lat="40.3812855" lon="16.1428524"><ele>909.0</ele><time>2026-04-06T13:56:46.86Z</time></trkpt><trkpt lat="40.3812202" lon="16.1429473"><ele>909.0</ele><time>2026-04-06T13:56:47.86Z</time></trkpt><trkpt lat="40.3811841" lon="16.1430687"><ele>909.75</ele><time>2026-04-06T13:56:48.86Z</time></trkpt><trkpt lat="40.3811752" lon="16.1432053"><ele>910.5</ele><time>2026-04-06T13:56:49.861Z</time></trkpt><trkpt lat="40.3811917" lon="16.1433546"><ele>911.25</ele><time>2026-04-06T13:56:50.86Z</time></trkpt><trkpt lat="40.3812236" lon="16.1435059"><ele>912.0</ele><time>2026-04-06T13:56:51.861Z</time></trkpt><trkpt lat="40.3812626" lon="16.1436605"><ele>912.0</ele><time>2026-04-06T13:56:52.86Z</time></trkpt><trkpt lat="40.3813016" lon="16.1438224"><ele>912.0</ele><time>2026-04-06T13:56:53.86Z</time></trkpt><trkpt lat="40.3813368" lon="16.143987"><ele>912.0</ele><time>2026-04-06T13:56:54.86Z</time></trkpt><trkpt lat="40.3813702" lon="16.1441541"><ele>912.0</ele><time>2026-04-06T13:56:55.86Z</time></trkpt><trkpt lat="40.381401" lon="16.1443137"><ele>911.6</ele><time>2026-04-06T13:56:56.86Z</time></trkpt><trkpt lat="40.3814333" lon="16.1444655"><ele>911.2</ele><time>2026-04-06T13:56:57.86Z</time></trkpt><trkpt lat="40.3814595" lon="16.144616"><ele>910.8</ele><time>2026-04-06T13:56:58.86Z</time></trkpt><trkpt lat="40.3814742" lon="16.144757"><ele>910.4</ele><time>2026-04-06T13:56:59.86Z</time></trkpt><trkpt lat="40.3814711" lon="16.1448891"><ele>910.0</ele><time>2026-04-06T13:57:00.86Z</time></trkpt><trkpt lat="40.3814374" lon="16.1450015"><ele>909.9999999999999</ele><time>2026-04-06T13:57:01.86Z</time></trkpt><trkpt lat="40.3813777" lon="16.1450803"><ele>910.0</ele><time>2026-04-06T13:57:02.861Z</time></trkpt><trkpt lat="40.3812986" lon="16.145132"><ele>910.0</ele><time>2026-04-06T13:57:03.86Z</time></trkpt><trkpt lat="40.3812112" lon="16.1451668"><ele>910.0</ele><time>2026-04-06T13:57:04.86Z</time></trkpt><trkpt lat="40.3811211" lon="16.1452011"><ele>909.9999999999999</ele><time>2026-04-06T13:57:05.86Z</time></trkpt><trkpt lat="40.3810378" lon="16.145237"><ele>910.0</ele><time>2026-04-06T13:57:06.86Z</time></trkpt><trkpt lat="40.3809587" lon="16.1452874"><ele>911.6</ele><time>2026-04-06T13:57:07.86Z</time></trkpt><trkpt lat="40.3808828" lon="16.1453539"><ele>913.2</ele><time>2026-04-06T13:57:08.86Z</time></trkpt><trkpt lat="40.3808101" lon="16.1454276"><ele>914.8</ele><time>2026-04-06T13:57:09.86Z</time></trkpt><trkpt lat="40.3807376" lon="16.1455037"><ele>916.4</ele><time>2026-04-06T13:57:10.86Z</time></trkpt><trkpt lat="40.3806685" lon="16.1455761"><ele>918.0</ele><time>2026-04-06T13:57:11.86Z</time></trkpt><trkpt lat="40.3806003" lon="16.1456514"><ele>916.5</ele><time>2026-04-06T13:57:12.861Z</time></trkpt><trkpt lat="40.3805326" lon="16.145723"><ele>915.0</ele><time>2026-04-06T13:57:13.86Z</time></trkpt><trkpt lat="40.3804686" lon="16.1457999"><ele>913.5</ele><time>2026-04-06T13:57:14.86Z</time></trkpt><trkpt lat="40.3804068" lon="16.1458785"><ele>912.0</ele><time>2026-04-06T13:57:15.86Z</time></trkpt><trkpt lat="40.3803479" lon="16.1459627"><ele>910.5</ele><time>2026-04-06T13:57:16.86Z</time></trkpt><trkpt lat="40.3802946" lon="16.1460539"><ele>909.0</ele><time>2026-04-06T13:57:17.861Z</time></trkpt><trkpt lat="40.3802518" lon="16.1461546"><ele>910.5</ele><time>2026-04-06T13:57:18.86Z</time></trkpt><trkpt lat="40.3802181" lon="16.1462587"><ele>912.0</ele><time>2026-04-06T13:57:19.861Z</time></trkpt><trkpt lat="40.380192" lon="16.1463647"><ele>913.5</ele><time>2026-04-06T13:57:20.86Z</time></trkpt><trkpt lat="40.3801711" lon="16.1464759"><ele>915.0</ele><time>2026-04-06T13:57:21.86Z</time></trkpt><trkpt lat="40.3801544" lon="16.1465918"><ele>916.5</ele><time>2026-04-06T13:57:22.86Z</time></trkpt><trkpt lat="40.3801395" lon="16.146706"><ele>918.0</ele><time>2026-04-06T13:57:23.86Z</time></trkpt><trkpt lat="40.3801292" lon="16.1468046"><ele>918.0</ele><time>2026-04-06T13:57:24.86Z</time></trkpt><trkpt lat="40.3801225" lon="16.1469169"><ele>918.0</ele><time>2026-04-06T13:57:26.86Z</time></trkpt><trkpt lat="40.3801668" lon="16.1468111"><ele>918.0</ele><time>2026-04-06T13:57:31.86Z</time></trkpt><trkpt lat="40.3801716" lon="16.1467174"><ele>918.0</ele><time>2026-04-06T13:57:32.86Z</time></trkpt><trkpt lat="40.3801836" lon="16.1466119"><ele>918.0</ele><time>2026-04-06T13:57:33.86Z</time></trkpt><trkpt lat="40.3801989" lon="16.1465043"><ele>918.0</ele><time>2026-04-06T13:57:34.86Z</time></trkpt><trkpt lat="40.3802187" lon="16.1463937"><ele>920.2</ele><time>2026-04-06T13:57:35.86Z</time></trkpt><trkpt lat="40.3802452" lon="16.1462801"><ele>922.4</ele><time>2026-04-06T13:57:36.86Z</time></trkpt><trkpt lat="40.3802854" lon="16.1461543"><ele>924.6000000000001</ele><time>2026-04-06T13:57:37.861Z</time></trkpt><trkpt lat="40.3803442" lon="16.1460192"><ele>926.8000000000001</ele><time>2026-04-06T13:57:38.861Z</time></trkpt><trkpt lat="40.380419" lon="16.1458901"><ele>929.0</ele><time>2026-04-06T13:57:39.86Z</time></trkpt><trkpt lat="40.3805063" lon="16.145777"><ele>926.25</ele><time>2026-04-06T13:57:40.86Z</time></trkpt><trkpt lat="40.3805993" lon="16.1456722"><ele>923.5</ele><time>2026-04-06T13:57:41.861Z</time></trkpt><trkpt lat="40.3806967" lon="16.1455728"><ele>920.75</ele><time>2026-04-06T13:57:42.86Z</time></trkpt><trkpt lat="40.3807958" lon="16.1454791"><ele>918.0</ele><time>2026-04-06T13:57:43.86Z</time></trkpt><trkpt lat="40.380894" lon="16.1453896"><ele>918.0</ele><time>2026-04-06T13:57:44.861Z</time></trkpt><trkpt lat="40.3809908" lon="16.1453132"><ele>918.0</ele><time>2026-04-06T13:57:45.86Z</time></trkpt><trkpt lat="40.3810989" lon="16.1452506"><ele>918.0</ele><time>2026-04-06T13:57:46.86Z</time></trkpt><trkpt lat="40.3812021" lon="16.1451989"><ele>918.0</ele><time>2026-04-06T13:57:47.86Z</time></trkpt><trkpt lat="40.3813017" lon="16.1451532"><ele>918.0</ele><time>2026-04-06T13:57:48.86Z</time></trkpt><trkpt lat="40.381386" lon="16.1451047"><ele>916.4</ele><time>2026-04-06T13:57:49.861Z</time></trkpt><trkpt lat="40.3814551" lon="16.1450375"><ele>914.8</ele><time>2026-04-06T13:57:50.86Z</time></trkpt><trkpt lat="40.3815062" lon="16.1449514"><ele>913.2</ele><time>2026-04-06T13:57:51.86Z</time></trkpt><trkpt lat="40.3815382" lon="16.1448441"><ele>911.6</ele><time>2026-04-06T13:57:52.861Z</time></trkpt><trkpt lat="40.3815433" lon="16.1447183"><ele>910.0</ele><time>2026-04-06T13:57:53.861Z</time></trkpt><trkpt lat="40.3815104" lon="16.1445754"><ele>909.75</ele><time>2026-04-06T13:57:54.861Z</time></trkpt><trkpt lat="40.3814751" lon="16.1444306"><ele>909.5</ele><time>2026-04-06T13:57:55.86Z</time></trkpt><trkpt lat="40.381441" lon="16.144279"><ele>909.25</ele><time>2026-04-06T13:57:56.861Z</time></trkpt><trkpt lat="40.381408" lon="16.1441267"><ele>909.0</ele><time>2026-04-06T13:57:57.86Z</time></trkpt><trkpt lat="40.3813761" lon="16.1439742"><ele>909.6</ele><time>2026-04-06T13:57:58.86Z</time></trkpt><trkpt lat="40.3813405" lon="16.1438275"><ele>910.2</ele><time>2026-04-06T13:57:59.86Z</time></trkpt><trkpt lat="40.3813074" lon="16.1436832"><ele>910.8000000000001</ele><time>2026-04-06T13:58:00.86Z</time></trkpt><trkpt lat="40.3812783" lon="16.143547"><ele>911.4000000000001</ele><time>2026-04-06T13:58:01.861Z</time></trkpt><trkpt lat="40.3812525" lon="16.1434127"><ele>912.0</ele><time>2026-04-06T13:58:02.86Z</time></trkpt><trkpt lat="40.3812312" lon="16.1432864"><ele>911.5</ele><time>2026-04-06T13:58:03.86Z</time></trkpt><trkpt lat="40.3812227" lon="16.1431702"><ele>911.0</ele><time>2026-04-06T13:58:04.86Z</time></trkpt><trkpt lat="40.3812305" lon="16.1430628"><ele>910.5</ele><time>2026-04-06T13:58:05.86Z</time></trkpt><trkpt lat="40.3812543" lon="16.1429692"><ele>910.0</ele><time>2026-04-06T13:58:06.86Z</time></trkpt><trkpt lat="40.3812867" lon="16.1428923"><ele>909.5</ele><time>2026-04-06T13:58:07.86Z</time></trkpt><trkpt lat="40.38137" lon="16.1428176"><ele>909.0</ele><time>2026-04-06T13:58:09.86Z</time></trkpt><trkpt lat="40.3814267" lon="16.1428638"><ele>909.0</ele><time>2026-04-06T13:58:12.861Z</time></trkpt><trkpt lat="40.3813914" lon="16.1429644"><ele>909.0</ele><time>2026-04-06T13:58:14.859Z</time></trkpt><trkpt lat="40.3813647" lon="16.1431213"><ele>909.0</ele><time>2026-04-06T13:58:16.859Z</time></trkpt><trkpt lat="40.381381" lon="16.1432031"><ele>909.0</ele><time>2026-04-06T13:58:17.859Z</time></trkpt><trkpt lat="40.3814145" lon="16.1432836"><ele>909.0</ele><time>2026-04-06T13:58:18.86Z</time></trkpt><trkpt lat="40.3814591" lon="16.1433572"><ele>909.0</ele><time>2026-04-06T13:58:19.859Z</time></trkpt><trkpt lat="40.3815131" lon="16.1434326"><ele>907.6666666666666</ele><time>2026-04-06T13:58:20.859Z</time></trkpt><trkpt lat="40.3815737" lon="16.1435123"><ele>906.3333333333333</ele><time>2026-04-06T13:58:21.86Z</time></trkpt><trkpt lat="40.3816299" lon="16.1435942"><ele>905.0</ele><time>2026-04-06T13:58:22.86Z</time></trkpt><trkpt lat="40.3816841" lon="16.1436841"><ele>903.6666666666666</ele><time>2026-04-06T13:58:23.859Z</time></trkpt><trkpt lat="40.381733" lon="16.1437781"><ele>902.3333333333333</ele><time>2026-04-06T13:58:24.859Z</time></trkpt><trkpt lat="40.3817876" lon="16.1438795"><ele>901.0</ele><time>2026-04-06T13:58:25.859Z</time></trkpt><trkpt lat="40.3818462" lon="16.1439759"><ele>902.5999999999999</ele><time>2026-04-06T13:58:26.859Z</time></trkpt><trkpt lat="40.3819119" lon="16.1440735"><ele>904.1999999999999</ele><time>2026-04-06T13:58:27.859Z</time></trkpt><trkpt lat="40.3819814" lon="16.1441684"><ele>905.8000000000001</ele><time>2026-04-06T13:58:28.859Z</time></trkpt><trkpt lat="40.3820518" lon="16.1442674"><ele>907.4000000000001</ele><time>2026-04-06T13:58:29.859Z</time></trkpt><trkpt lat="40.3821249" lon="16.1443673"><ele>909.0</ele><time>2026-04-06T13:58:30.859Z</time></trkpt><trkpt lat="40.3821887" lon="16.1444649"><ele>904.8000000000001</ele><time>2026-04-06T13:58:31.86Z</time></trkpt><trkpt lat="40.3822536" lon="16.1445579"><ele>900.6000000000001</ele><time>2026-04-06T13:58:32.859Z</time></trkpt><trkpt lat="40.3823241" lon="16.1446497"><ele>896.4</ele><time>2026-04-06T13:58:33.859Z</time></trkpt><trkpt lat="40.3824013" lon="16.1447302"><ele>892.2</ele><time>2026-04-06T13:58:34.859Z</time></trkpt><trkpt lat="40.3824824" lon="16.144804"><ele>888.0</ele><time>2026-04-06T13:58:35.859Z</time></trkpt><trkpt lat="40.3825647" lon="16.144876"><ele>888.8</ele><time>2026-04-06T13:58:36.859Z</time></trkpt><trkpt lat="40.3826483" lon="16.1449445"><ele>889.5999999999999</ele><time>2026-04-06T13:58:37.86Z</time></trkpt><trkpt lat="40.3827331" lon="16.1450137"><ele>890.4000000000001</ele><time>2026-04-06T13:58:38.86Z</time></trkpt><trkpt lat="40.3828168" lon="16.1450831"><ele>891.2</ele><time>2026-04-06T13:58:39.859Z</time></trkpt><trkpt lat="40.3829068" lon="16.1451473"><ele>892.0</ele><time>2026-04-06T13:58:40.859Z</time></trkpt><trkpt lat="40.3830003" lon="16.1452073"><ele>887.0</ele><time>2026-04-06T13:58:41.86Z</time></trkpt><trkpt lat="40.3831025" lon="16.1452627"><ele>882.0</ele><time>2026-04-06T13:58:42.859Z</time></trkpt><trkpt lat="40.3832149" lon="16.1453182"><ele>877.0</ele><time>2026-04-06T13:58:43.859Z</time></trkpt><trkpt lat="40.383332" lon="16.1453687"><ele>872.0</ele><time>2026-04-06T13:58:44.859Z</time></trkpt><trkpt lat="40.3834476" lon="16.145418"><ele>872.0000000000001</ele><time>2026-04-06T13:58:45.859Z</time></trkpt><trkpt lat="40.3835462" lon="16.1454692"><ele>872.0</ele><time>2026-04-06T13:58:46.859Z</time></trkpt><trkpt lat="40.3836241" lon="16.1455269"><ele>872.0</ele><time>2026-04-06T13:58:47.859Z</time></trkpt><trkpt lat="40.3836804" lon="16.1455882"><ele>872.0</ele><time>2026-04-06T13:58:48.859Z</time></trkpt><trkpt lat="40.3837202" lon="16.1456687"><ele>872.0000000000001</ele><time>2026-04-06T13:58:49.859Z</time></trkpt><trkpt lat="40.3837329" lon="16.1457595"><ele>872.0</ele><time>2026-04-06T13:58:50.86Z</time></trkpt><trkpt lat="40.3837206" lon="16.1458614"><ele>871.4000000000001</ele><time>2026-04-06T13:58:51.859Z</time></trkpt><trkpt lat="40.3836844" lon="16.145966"><ele>870.8000000000001</ele><time>2026-04-06T13:58:52.859Z</time></trkpt><trkpt lat="40.3836234" lon="16.1460705"><ele>870.2</ele><time>2026-04-06T13:58:53.859Z</time></trkpt><trkpt lat="40.3835554" lon="16.1461856"><ele>869.6</ele><time>2026-04-06T13:58:54.859Z</time></trkpt><trkpt lat="40.3834916" lon="16.1463141"><ele>869.0</ele><time>2026-04-06T13:58:55.86Z</time></trkpt><trkpt lat="40.3834368" lon="16.1464512"><ele>865.25</ele><time>2026-04-06T13:58:56.859Z</time></trkpt><trkpt lat="40.3833886" lon="16.1465944"><ele>861.5</ele><time>2026-04-06T13:58:57.86Z</time></trkpt><trkpt lat="40.383352" lon="16.1467445"><ele>857.75</ele><time>2026-04-06T13:58:58.859Z</time></trkpt><trkpt lat="40.3833175" lon="16.1468993"><ele>854.0</ele><time>2026-04-06T13:58:59.86Z</time></trkpt><trkpt lat="40.3832943" lon="16.1470466"><ele>854.0000000000001</ele><time>2026-04-06T13:59:00.859Z</time></trkpt><trkpt lat="40.3832746" lon="16.1471789"><ele>854.0</ele><time>2026-04-06T13:59:01.859Z</time></trkpt><trkpt lat="40.3832577" lon="16.1472942"><ele>854.0</ele><time>2026-04-06T13:59:02.859Z</time></trkpt><trkpt lat="40.3832553" lon="16.1473991"><ele>854.0</ele><time>2026-04-06T13:59:03.859Z</time></trkpt><trkpt lat="40.3832774" lon="16.1474984"><ele>854.0000000000001</ele><time>2026-04-06T13:59:04.859Z</time></trkpt><trkpt lat="40.3833153" lon="16.1475878"><ele>854.0</ele><time>2026-04-06T13:59:05.859Z</time></trkpt><trkpt lat="40.3833711" lon="16.147664"><ele>852.2</ele><time>2026-04-06T13:59:06.859Z</time></trkpt><trkpt lat="40.3834481" lon="16.1477219"><ele>850.4000000000001</ele><time>2026-04-06T13:59:07.859Z</time></trkpt><trkpt lat="40.3835327" lon="16.1477774"><ele>848.6</ele><time>2026-04-06T13:59:08.859Z</time></trkpt><trkpt lat="40.3836185" lon="16.1478383"><ele>846.8</ele><time>2026-04-06T13:59:09.859Z</time></trkpt><trkpt lat="40.383692" lon="16.1479151"><ele>845.0</ele><time>2026-04-06T13:59:10.859Z</time></trkpt><trkpt lat="40.3837462" lon="16.1480069"><ele>845.0</ele><time>2026-04-06T13:59:11.859Z</time></trkpt><trkpt lat="40.3837862" lon="16.1481215"><ele>845.0</ele><time>2026-04-06T13:59:12.859Z</time></trkpt><trkpt lat="40.3838045" lon="16.1482497"><ele>845.0</ele><time>2026-04-06T13:59:13.859Z</time></trkpt><trkpt lat="40.3837969" lon="16.1483866"><ele>845.0</ele><time>2026-04-06T13:59:14.859Z</time></trkpt><trkpt lat="40.3837913" lon="16.148532"><ele>845.0</ele><time>2026-04-06T13:59:15.859Z</time></trkpt><trkpt lat="40.383798" lon="16.1486854"><ele>845.25</ele><time>2026-04-06T13:59:16.86Z</time></trkpt><trkpt lat="40.3838306" lon="16.1488446"><ele>845.5</ele><time>2026-04-06T13:59:17.86Z</time></trkpt><trkpt lat="40.3838778" lon="16.1490047"><ele>845.75</ele><time>2026-04-06T13:59:18.86Z</time></trkpt><trkpt lat="40.3839318" lon="16.149159"><ele>846.0</ele><time>2026-04-06T13:59:19.859Z</time></trkpt><trkpt lat="40.3839833" lon="16.1493095"><ele>844.8</ele><time>2026-04-06T13:59:20.86Z</time></trkpt><trkpt lat="40.3840264" lon="16.1494505"><ele>843.5999999999999</ele><time>2026-04-06T13:59:21.859Z</time></trkpt><trkpt lat="40.3840501" lon="16.1495863"><ele>842.4</ele><time>2026-04-06T13:59:22.859Z</time></trkpt><trkpt lat="40.3840555" lon="16.1497178"><ele>841.2</ele><time>2026-04-06T13:59:23.859Z</time></trkpt><trkpt lat="40.3840469" lon="16.1498453"><ele>840.0</ele><time>2026-04-06T13:59:24.859Z</time></trkpt><trkpt lat="40.3840266" lon="16.1499728"><ele>840.0</ele><time>2026-04-06T13:59:25.86Z</time></trkpt><trkpt lat="40.3839934" lon="16.1501065"><ele>840.0</ele><time>2026-04-06T13:59:26.859Z</time></trkpt><trkpt lat="40.3839528" lon="16.1502436"><ele>840.0</ele><time>2026-04-06T13:59:27.859Z</time></trkpt><trkpt lat="40.3839017" lon="16.1503732"><ele>840.0</ele><time>2026-04-06T13:59:28.859Z</time></trkpt><trkpt lat="40.3838387" lon="16.1504977"><ele>840.0</ele><time>2026-04-06T13:59:29.859Z</time></trkpt><trkpt lat="40.3837671" lon="16.1506202"><ele>843.2</ele><time>2026-04-06T13:59:30.859Z</time></trkpt><trkpt lat="40.3837107" lon="16.1507461"><ele>846.4</ele><time>2026-04-06T13:59:31.86Z</time></trkpt><trkpt lat="40.3836681" lon="16.1508814"><ele>849.5999999999999</ele><time>2026-04-06T13:59:32.859Z</time></trkpt><trkpt lat="40.3836322" lon="16.1510242"><ele>852.8</ele><time>2026-04-06T13:59:33.86Z</time></trkpt><trkpt lat="40.3835937" lon="16.1511616"><ele>856.0</ele><time>2026-04-06T13:59:34.859Z</time></trkpt><trkpt lat="40.3835457" lon="16.151284"><ele>856.0</ele><time>2026-04-06T13:59:35.859Z</time></trkpt><trkpt lat="40.3834811" lon="16.1513906"><ele>856.0</ele><time>2026-04-06T13:59:36.859Z</time></trkpt><trkpt lat="40.3834033" lon="16.1514983"><ele>856.0</ele><time>2026-04-06T13:59:37.86Z</time></trkpt><trkpt lat="40.3833221" lon="16.1516108"><ele>856.0</ele><time>2026-04-06T13:59:38.859Z</time></trkpt><trkpt lat="40.3832447" lon="16.1517321"><ele>856.0</ele><time>2026-04-06T13:59:39.859Z</time></trkpt><trkpt lat="40.383163" lon="16.1518474"><ele>855.9999999999999</ele><time>2026-04-06T13:59:40.859Z</time></trkpt><trkpt lat="40.3830731" lon="16.1519453"><ele>855.9999999999999</ele><time>2026-04-06T13:59:41.859Z</time></trkpt><trkpt lat="40.3829781" lon="16.1520194"><ele>856.0</ele><time>2026-04-06T13:59:42.86Z</time></trkpt><trkpt lat="40.3828958" lon="16.1520893"><ele>856.0</ele><time>2026-04-06T13:59:43.859Z</time></trkpt><trkpt lat="40.3828252" lon="16.1521774"><ele>856.0</ele><time>2026-04-06T13:59:44.859Z</time></trkpt><trkpt lat="40.3827694" lon="16.152281"><ele>855.9999999999999</ele><time>2026-04-06T13:59:45.859Z</time></trkpt><trkpt lat="40.3827232" lon="16.1523954"><ele>855.9999999999999</ele><time>2026-04-06T13:59:46.859Z</time></trkpt><trkpt lat="40.3826758" lon="16.1525088"><ele>856.0</ele><time>2026-04-06T13:59:47.859Z</time></trkpt><trkpt lat="40.3826263" lon="16.1526153"><ele>856.0</ele><time>2026-04-06T13:59:48.859Z</time></trkpt><trkpt lat="40.3825651" lon="16.1527029"><ele>853.4999999999999</ele><time>2026-04-06T13:59:49.859Z</time></trkpt><trkpt lat="40.3824958" lon="16.1527698"><ele>851.0</ele><time>2026-04-06T13:59:50.859Z</time></trkpt><trkpt lat="40.3824181" lon="16.1528232"><ele>848.5</ele><time>2026-04-06T13:59:51.86Z</time></trkpt><trkpt lat="40.3823369" lon="16.1528689"><ele>846.0</ele><time>2026-04-06T13:59:52.86Z</time></trkpt><trkpt lat="40.3822502" lon="16.152908"><ele>843.4999999999999</ele><time>2026-04-06T13:59:53.859Z</time></trkpt><trkpt lat="40.3821628" lon="16.1529406"><ele>841.0</ele><time>2026-04-06T13:59:54.86Z</time></trkpt><trkpt lat="40.3820841" lon="16.1529661"><ele>840.9999999999999</ele><time>2026-04-06T13:59:55.859Z</time></trkpt><trkpt lat="40.3820175" lon="16.1529957"><ele>841.0</ele><time>2026-04-06T13:59:56.859Z</time></trkpt><trkpt lat="40.3819667" lon="16.1530498"><ele>841.0</ele><time>2026-04-06T13:59:57.86Z</time></trkpt><trkpt lat="40.3819139" lon="16.1532093"><ele>841.0</ele><time>2026-04-06T13:59:59.86Z</time></trkpt><trkpt lat="40.3819029" lon="16.1533077"><ele>840.9999999999999</ele><time>2026-04-06T14:00:00.859Z</time></trkpt><trkpt lat="40.3818953" lon="16.1534079"><ele>841.0</ele><time>2026-04-06T14:00:01.859Z</time></trkpt><trkpt lat="40.3818823" lon="16.1535143"><ele>839.3333333333333</ele><time>2026-04-06T14:00:02.859Z</time></trkpt><trkpt lat="40.3818665" lon="16.1536211"><ele>837.6666666666666</ele><time>2026-04-06T14:00:03.86Z</time></trkpt><trkpt lat="40.3818465" lon="16.1537315"><ele>836.0</ele><time>2026-04-06T14:00:04.859Z</time></trkpt><trkpt lat="40.3818252" lon="16.1538449"><ele>834.3333333333333</ele><time>2026-04-06T14:00:05.859Z</time></trkpt><trkpt lat="40.3818081" lon="16.1539525"><ele>832.6666666666666</ele><time>2026-04-06T14:00:06.859Z</time></trkpt><trkpt lat="40.3817966" lon="16.154063"><ele>831.0</ele><time>2026-04-06T14:00:07.859Z</time></trkpt><trkpt lat="40.3818005" lon="16.1541754"><ele>829.1666666666666</ele><time>2026-04-06T14:00:08.859Z</time></trkpt><trkpt lat="40.3818207" lon="16.1542778"><ele>827.3333333333333</ele><time>2026-04-06T14:00:09.859Z</time></trkpt><trkpt lat="40.3818538" lon="16.1543722"><ele>825.5</ele><time>2026-04-06T14:00:10.859Z</time></trkpt><trkpt lat="40.3818832" lon="16.1544663"><ele>823.6666666666666</ele><time>2026-04-06T14:00:11.86Z</time></trkpt><trkpt lat="40.3819198" lon="16.1545663"><ele>821.8333333333333</ele><time>2026-04-06T14:00:12.859Z</time></trkpt><trkpt lat="40.3819519" lon="16.1546747"><ele>820.0</ele><time>2026-04-06T14:00:13.859Z</time></trkpt><trkpt lat="40.38198" lon="16.1547838"><ele>817.4999999999999</ele><time>2026-04-06T14:00:14.86Z</time></trkpt><trkpt lat="40.3819935" lon="16.154886"><ele>815.0</ele><time>2026-04-06T14:00:15.859Z</time></trkpt><trkpt lat="40.3819862" lon="16.1549837"><ele>812.5</ele><time>2026-04-06T14:00:16.859Z</time></trkpt><trkpt lat="40.3819594" lon="16.1550793"><ele>810.0</ele><time>2026-04-06T14:00:17.859Z</time></trkpt><trkpt lat="40.3819128" lon="16.1551755"><ele>807.4999999999999</ele><time>2026-04-06T14:00:18.859Z</time></trkpt><trkpt lat="40.3818508" lon="16.1552721"><ele>805.0</ele><time>2026-04-06T14:00:19.859Z</time></trkpt><trkpt lat="40.3817842" lon="16.1553708"><ele>804.9999999999999</ele><time>2026-04-06T14:00:20.859Z</time></trkpt><trkpt lat="40.3817217" lon="16.1554677"><ele>805.0</ele><time>2026-04-06T14:00:21.859Z</time></trkpt><trkpt lat="40.3816686" lon="16.1555681"><ele>805.0</ele><time>2026-04-06T14:00:22.859Z</time></trkpt><trkpt lat="40.3816354" lon="16.1556713"><ele>805.0</ele><time>2026-04-06T14:00:23.859Z</time></trkpt><trkpt lat="40.3816178" lon="16.1557827"><ele>804.9999999999999</ele><time>2026-04-06T14:00:24.859Z</time></trkpt><trkpt lat="40.3816118" lon="16.1558954"><ele>805.0</ele><time>2026-04-06T14:00:25.859Z</time></trkpt><trkpt lat="40.3816181" lon="16.1560119"><ele>803.8</ele><time>2026-04-06T14:00:26.859Z</time></trkpt><trkpt lat="40.3816312" lon="16.1561328"><ele>802.6</ele><time>2026-04-06T14:00:27.859Z</time></trkpt><trkpt lat="40.3816454" lon="16.1562478"><ele>801.4000000000001</ele><time>2026-04-06T14:00:28.86Z</time></trkpt><trkpt lat="40.3816642" lon="16.1563724"><ele>800.2</ele><time>2026-04-06T14:00:29.859Z</time></trkpt><trkpt lat="40.3816874" lon="16.1565111"><ele>799.0</ele><time>2026-04-06T14:00:30.859Z</time></trkpt><trkpt lat="40.3817119" lon="16.1566574"><ele>799.0</ele><time>2026-04-06T14:00:31.859Z</time></trkpt><trkpt lat="40.3817438" lon="16.1568077"><ele>799.0</ele><time>2026-04-06T14:00:32.859Z</time></trkpt><trkpt lat="40.3817818" lon="16.1569611"><ele>799.0</ele><time>2026-04-06T14:00:33.86Z</time></trkpt><trkpt lat="40.3818319" lon="16.1571138"><ele>799.0</ele><time>2026-04-06T14:00:34.859Z</time></trkpt><trkpt lat="40.3818806" lon="16.1572645"><ele>801.5</ele><time>2026-04-06T14:00:35.859Z</time></trkpt><trkpt lat="40.3819339" lon="16.1574074"><ele>804.0</ele><time>2026-04-06T14:00:36.859Z</time></trkpt><trkpt lat="40.3819864" lon="16.1575532"><ele>806.5</ele><time>2026-04-06T14:00:37.859Z</time></trkpt><trkpt lat="40.3820399" lon="16.1577009"><ele>809.0</ele><time>2026-04-06T14:00:38.859Z</time></trkpt><trkpt lat="40.3820919" lon="16.1578479"><ele>809.0</ele><time>2026-04-06T14:00:39.859Z</time></trkpt><trkpt lat="40.3821419" lon="16.1579985"><ele>809.0</ele><time>2026-04-06T14:00:40.859Z</time></trkpt><trkpt lat="40.3821888" lon="16.1581464"><ele>809.0</ele><time>2026-04-06T14:00:41.859Z</time></trkpt><trkpt lat="40.3822325" lon="16.1582919"><ele>809.0</ele><time>2026-04-06T14:00:42.859Z</time></trkpt><trkpt lat="40.3822802" lon="16.1584254"><ele>808.6</ele><time>2026-04-06T14:00:43.859Z</time></trkpt><trkpt lat="40.3823197" lon="16.158564"><ele>808.2</ele><time>2026-04-06T14:00:44.859Z</time></trkpt><trkpt lat="40.3823576" lon="16.1587034"><ele>807.8000000000001</ele><time>2026-04-06T14:00:45.859Z</time></trkpt><trkpt lat="40.382384" lon="16.1588413"><ele>807.4000000000001</ele><time>2026-04-06T14:00:46.859Z</time></trkpt><trkpt lat="40.3823952" lon="16.1589885"><ele>807.0</ele><time>2026-04-06T14:00:47.859Z</time></trkpt><trkpt lat="40.3823861" lon="16.1591277"><ele>806.0</ele><time>2026-04-06T14:00:48.859Z</time></trkpt><trkpt lat="40.3823571" lon="16.1592614"><ele>805.0</ele><time>2026-04-06T14:00:49.86Z</time></trkpt><trkpt lat="40.3823124" lon="16.1593875"><ele>804.0</ele><time>2026-04-06T14:00:50.859Z</time></trkpt><trkpt lat="40.3822531" lon="16.1595145"><ele>803.0</ele><time>2026-04-06T14:00:51.859Z</time></trkpt><trkpt lat="40.3821884" lon="16.1596423"><ele>802.0</ele><time>2026-04-06T14:00:52.86Z</time></trkpt><trkpt lat="40.3821306" lon="16.1597746"><ele>805.6</ele><time>2026-04-06T14:00:53.859Z</time></trkpt><trkpt lat="40.3820893" lon="16.1599133"><ele>809.2</ele><time>2026-04-06T14:00:54.859Z</time></trkpt><trkpt lat="40.3820588" lon="16.1600551"><ele>812.8</ele><time>2026-04-06T14:00:55.86Z</time></trkpt><trkpt lat="40.3820372" lon="16.1601999"><ele>816.4</ele><time>2026-04-06T14:00:56.86Z</time></trkpt><trkpt lat="40.3820292" lon="16.160344"><ele>820.0</ele><time>2026-04-06T14:00:57.859Z</time></trkpt><trkpt lat="40.3820257" lon="16.1604821"><ele>819.9999999999999</ele><time>2026-04-06T14:00:58.859Z</time></trkpt><trkpt lat="40.3820233" lon="16.1606068"><ele>820.0</ele><time>2026-04-06T14:00:59.859Z</time></trkpt><trkpt lat="40.3820127" lon="16.1607115"><ele>820.0</ele><time>2026-04-06T14:01:00.86Z</time></trkpt><trkpt lat="40.3819847" lon="16.1607962"><ele>820.0</ele><time>2026-04-06T14:01:01.859Z</time></trkpt><trkpt lat="40.3819349" lon="16.1608681"><ele>819.9999999999999</ele><time>2026-04-06T14:01:02.859Z</time></trkpt><trkpt lat="40.3818691" lon="16.1609377"><ele>820.0</ele><time>2026-04-06T14:01:03.86Z</time></trkpt><trkpt lat="40.3817917" lon="16.1610109"><ele>818.6</ele><time>2026-04-06T14:01:04.859Z</time></trkpt><trkpt lat="40.3817195" lon="16.1610986"><ele>817.2</ele><time>2026-04-06T14:01:05.859Z</time></trkpt><trkpt lat="40.3816619" lon="16.1612049"><ele>815.8</ele><time>2026-04-06T14:01:06.859Z</time></trkpt><trkpt lat="40.3816259" lon="16.1613162"><ele>814.4</ele><time>2026-04-06T14:01:07.86Z</time></trkpt><trkpt lat="40.3815983" lon="16.1614241"><ele>813.0</ele><time>2026-04-06T14:01:08.859Z</time></trkpt><trkpt lat="40.3815691" lon="16.1615174"><ele>814.3333333333334</ele><time>2026-04-06T14:01:09.859Z</time></trkpt><trkpt lat="40.3815345" lon="16.1616015"><ele>815.6666666666667</ele><time>2026-04-06T14:01:10.86Z</time></trkpt><trkpt lat="40.3814826" lon="16.1616693"><ele>817.0</ele><time>2026-04-06T14:01:11.859Z</time></trkpt><trkpt lat="40.3814134" lon="16.1617234"><ele>818.3333333333334</ele><time>2026-04-06T14:01:12.859Z</time></trkpt><trkpt lat="40.3813358" lon="16.1617748"><ele>819.6666666666667</ele><time>2026-04-06T14:01:13.859Z</time></trkpt><trkpt lat="40.3812598" lon="16.1618348"><ele>821.0</ele><time>2026-04-06T14:01:14.859Z</time></trkpt><trkpt lat="40.3811927" lon="16.1619097"><ele>821.0000000000001</ele><time>2026-04-06T14:01:15.859Z</time></trkpt><trkpt lat="40.381131" lon="16.1619915"><ele>821.0</ele><time>2026-04-06T14:01:16.859Z</time></trkpt><trkpt lat="40.3810696" lon="16.1620783"><ele>821.0</ele><time>2026-04-06T14:01:17.86Z</time></trkpt><trkpt lat="40.3810099" lon="16.1621699"><ele>821.0</ele><time>2026-04-06T14:01:18.859Z</time></trkpt><trkpt lat="40.3809583" lon="16.1622591"><ele>821.0000000000001</ele><time>2026-04-06T14:01:19.86Z</time></trkpt><trkpt lat="40.3809184" lon="16.1623599"><ele>821.0</ele><time>2026-04-06T14:01:20.859Z</time></trkpt><trkpt lat="40.3808896" lon="16.1624728"><ele>816.1999999999999</ele><time>2026-04-06T14:01:21.859Z</time></trkpt><trkpt lat="40.3808816" lon="16.1625975"><ele>811.4</ele><time>2026-04-06T14:01:22.859Z</time></trkpt><trkpt lat="40.3808897" lon="16.1627255"><ele>806.6</ele><time>2026-04-06T14:01:23.86Z</time></trkpt><trkpt lat="40.380901" lon="16.1628551"><ele>801.8</ele><time>2026-04-06T14:01:24.859Z</time></trkpt><trkpt lat="40.3809142" lon="16.1629849"><ele>797.0</ele><time>2026-04-06T14:01:25.859Z</time></trkpt><trkpt lat="40.3809271" lon="16.1631217"><ele>795.4000000000001</ele><time>2026-04-06T14:01:26.859Z</time></trkpt><trkpt lat="40.3809381" lon="16.1632593"><ele>793.8000000000001</ele><time>2026-04-06T14:01:27.859Z</time></trkpt><trkpt lat="40.3809497" lon="16.163401"><ele>792.2</ele><time>2026-04-06T14:01:28.86Z</time></trkpt><trkpt lat="40.3809589" lon="16.1635477"><ele>790.6</ele><time>2026-04-06T14:01:29.859Z</time></trkpt><trkpt lat="40.3809647" lon="16.163693"><ele>789.0</ele><time>2026-04-06T14:01:30.859Z</time></trkpt><trkpt lat="40.3809706" lon="16.1638411"><ele>789.0</ele><time>2026-04-06T14:01:31.859Z</time></trkpt><trkpt lat="40.3809798" lon="16.1639898"><ele>789.0</ele><time>2026-04-06T14:01:32.86Z</time></trkpt><trkpt lat="40.3809917" lon="16.1641344"><ele>789.0</ele><time>2026-04-06T14:01:33.859Z</time></trkpt><trkpt lat="40.3810115" lon="16.1642778"><ele>789.0</ele><time>2026-04-06T14:01:34.859Z</time></trkpt><trkpt lat="40.3810263" lon="16.1644061"><ele>789.0</ele><time>2026-04-06T14:01:35.86Z</time></trkpt><trkpt lat="40.3810274" lon="16.1645214"><ele>789.5</ele><time>2026-04-06T14:01:36.859Z</time></trkpt><trkpt lat="40.381012" lon="16.1646245"><ele>790.0</ele><time>2026-04-06T14:01:37.859Z</time></trkpt><trkpt lat="40.3809885" lon="16.1647245"><ele>790.5</ele><time>2026-04-06T14:01:38.86Z</time></trkpt><trkpt lat="40.3809425" lon="16.1648046"><ele>791.0</ele><time>2026-04-06T14:01:39.859Z</time></trkpt><trkpt lat="40.380881" lon="16.1648637"><ele>791.5</ele><time>2026-04-06T14:01:40.859Z</time></trkpt><trkpt lat="40.3808138" lon="16.1649071"><ele>792.0</ele><time>2026-04-06T14:01:41.859Z</time></trkpt><trkpt lat="40.3807279" lon="16.1649223"><ele>793.0</ele><time>2026-04-06T14:01:42.859Z</time></trkpt><trkpt lat="40.3806293" lon="16.1649317"><ele>794.0</ele><time>2026-04-06T14:01:43.86Z</time></trkpt><trkpt lat="40.380522" lon="16.1649564"><ele>795.0</ele><time>2026-04-06T14:01:44.859Z</time></trkpt><trkpt lat="40.3804138" lon="16.1650031"><ele>796.0</ele><time>2026-04-06T14:01:45.859Z</time></trkpt><trkpt lat="40.380314" lon="16.1650796"><ele>797.0</ele><time>2026-04-06T14:01:46.859Z</time></trkpt><trkpt lat="40.38022" lon="16.1651744"><ele>797.0</ele><time>2026-04-06T14:01:47.859Z</time></trkpt><trkpt lat="40.3801268" lon="16.1652829"><ele>797.0</ele><time>2026-04-06T14:01:48.859Z</time></trkpt><trkpt lat="40.3800416" lon="16.1653975"><ele>797.0</ele><time>2026-04-06T14:01:49.86Z</time></trkpt><trkpt lat="40.3799628" lon="16.1655088"><ele>797.0</ele><time>2026-04-06T14:01:50.859Z</time></trkpt><trkpt lat="40.3798983" lon="16.1656179"><ele>794.2</ele><time>2026-04-06T14:01:51.859Z</time></trkpt><trkpt lat="40.3798344" lon="16.1657202"><ele>791.4000000000001</ele><time>2026-04-06T14:01:52.859Z</time></trkpt><trkpt lat="40.3797622" lon="16.165808"><ele>788.5999999999999</ele><time>2026-04-06T14:01:53.86Z</time></trkpt><trkpt lat="40.3796863" lon="16.1658829"><ele>785.8</ele><time>2026-04-06T14:01:54.86Z</time></trkpt><trkpt lat="40.3796108" lon="16.1659493"><ele>783.0</ele><time>2026-04-06T14:01:55.859Z</time></trkpt><trkpt lat="40.3795411" lon="16.1660075"><ele>783.0</ele><time>2026-04-06T14:01:56.859Z</time></trkpt><trkpt lat="40.3794842" lon="16.166062"><ele>783.0</ele><time>2026-04-06T14:01:57.86Z</time></trkpt><trkpt lat="40.3794043" lon="16.1661901"><ele>783.0</ele><time>2026-04-06T14:01:59.859Z</time></trkpt><trkpt lat="40.3793633" lon="16.1662595"><ele>783.0</ele><time>2026-04-06T14:02:00.859Z</time></trkpt><trkpt lat="40.3793204" lon="16.1663283"><ele>783.0</ele><time>2026-04-06T14:02:01.859Z</time></trkpt><trkpt lat="40.3792788" lon="16.1664038"><ele>783.0</ele><time>2026-04-06T14:02:02.86Z</time></trkpt><trkpt lat="40.3792448" lon="16.1664878"><ele>780.7142857142857</ele><time>2026-04-06T14:02:03.86Z</time></trkpt><trkpt lat="40.3792169" lon="16.1665738"><ele>778.4285714285714</ele><time>2026-04-06T14:02:04.86Z</time></trkpt><trkpt lat="40.3791979" lon="16.1666578"><ele>776.1428571428571</ele><time>2026-04-06T14:02:05.859Z</time></trkpt><trkpt lat="40.3791845" lon="16.1667454"><ele>773.8571428571429</ele><time>2026-04-06T14:02:06.859Z</time></trkpt><trkpt lat="40.3791722" lon="16.1668327"><ele>771.5714285714287</ele><time>2026-04-06T14:02:07.859Z</time></trkpt><trkpt lat="40.3791636" lon="16.1669218"><ele>769.2857142857143</ele><time>2026-04-06T14:02:08.859Z</time></trkpt><trkpt lat="40.379152" lon="16.1670086"><ele>767.0</ele><time>2026-04-06T14:02:09.859Z</time></trkpt><trkpt lat="40.3791351" lon="16.167095"><ele>767.0</ele><time>2026-04-06T14:02:10.859Z</time></trkpt><trkpt lat="40.3791152" lon="16.1671806"><ele>767.0</ele><time>2026-04-06T14:02:11.859Z</time></trkpt><trkpt lat="40.3790972" lon="16.1672698"><ele>767.0</ele><time>2026-04-06T14:02:12.859Z</time></trkpt><trkpt lat="40.3790856" lon="16.1673618"><ele>767.0</ele><time>2026-04-06T14:02:13.859Z</time></trkpt><trkpt lat="40.3790735" lon="16.1674646"><ele>767.0</ele><time>2026-04-06T14:02:14.86Z</time></trkpt><trkpt lat="40.379066" lon="16.1675714"><ele>767.0</ele><time>2026-04-06T14:02:15.859Z</time></trkpt><trkpt lat="40.3790644" lon="16.1676816"><ele>764.0</ele><time>2026-04-06T14:02:16.859Z</time></trkpt><trkpt lat="40.3790718" lon="16.1677949"><ele>761.0</ele><time>2026-04-06T14:02:17.859Z</time></trkpt><trkpt lat="40.3790831" lon="16.167914"><ele>758.0</ele><time>2026-04-06T14:02:18.859Z</time></trkpt><trkpt lat="40.3790976" lon="16.1680349"><ele>755.0</ele><time>2026-04-06T14:02:19.859Z</time></trkpt><trkpt lat="40.3791097" lon="16.1681571"><ele>752.0</ele><time>2026-04-06T14:02:20.86Z</time></trkpt><trkpt lat="40.3791246" lon="16.1682871"><ele>749.8</ele><time>2026-04-06T14:02:21.859Z</time></trkpt><trkpt lat="40.3791426" lon="16.1684191"><ele>747.6</ele><time>2026-04-06T14:02:22.859Z</time></trkpt><trkpt lat="40.3791679" lon="16.1685504"><ele>745.4</ele><time>2026-04-06T14:02:23.86Z</time></trkpt><trkpt lat="40.3791994" lon="16.1686901"><ele>743.1999999999999</ele><time>2026-04-06T14:02:24.859Z</time></trkpt><trkpt lat="40.3792372" lon="16.1688286"><ele>741.0</ele><time>2026-04-06T14:02:25.859Z</time></trkpt><trkpt lat="40.3792739" lon="16.1689728"><ele>737.75</ele><time>2026-04-06T14:02:26.86Z</time></trkpt><trkpt lat="40.3793193" lon="16.1691145"><ele>734.5</ele><time>2026-04-06T14:02:27.86Z</time></trkpt><trkpt lat="40.3793756" lon="16.1692566"><ele>731.25</ele><time>2026-04-06T14:02:28.86Z</time></trkpt><trkpt lat="40.3794315" lon="16.169395"><ele>728.0</ele><time>2026-04-06T14:02:29.859Z</time></trkpt><trkpt lat="40.3794917" lon="16.1695332"><ele>728.0</ele><time>2026-04-06T14:02:30.859Z</time></trkpt><trkpt lat="40.3795538" lon="16.1696697"><ele>728.0</ele><time>2026-04-06T14:02:31.859Z</time></trkpt><trkpt lat="40.3796117" lon="16.1697988"><ele>728.0</ele><time>2026-04-06T14:02:32.859Z</time></trkpt><trkpt lat="40.3796614" lon="16.1699162"><ele>728.0</ele><time>2026-04-06T14:02:33.86Z</time></trkpt><trkpt lat="40.3797036" lon="16.1700178"><ele>728.0</ele><time>2026-04-06T14:02:34.859Z</time></trkpt><trkpt lat="40.3797376" lon="16.1701143"><ele>724.2</ele><time>2026-04-06T14:02:35.859Z</time></trkpt><trkpt lat="40.3797661" lon="16.1701983"><ele>720.4</ele><time>2026-04-06T14:02:36.859Z</time></trkpt><trkpt lat="40.3798222" lon="16.1702732"><ele>716.6</ele><time>2026-04-06T14:02:38.86Z</time></trkpt><trkpt lat="40.3798697" lon="16.1701652"><ele>712.8000000000001</ele><time>2026-04-06T14:02:41.859Z</time></trkpt><trkpt lat="40.379853" lon="16.1699953"><ele>709.0</ele><time>2026-04-06T14:02:43.86Z</time></trkpt><trkpt lat="40.3798384" lon="16.1698743"><ele>709.0</ele><time>2026-04-06T14:02:44.86Z</time></trkpt><trkpt lat="40.3798343" lon="16.1697479"><ele>709.0</ele><time>2026-04-06T14:02:45.86Z</time></trkpt><trkpt lat="40.3798405" lon="16.1696218"><ele>709.0</ele><time>2026-04-06T14:02:46.859Z</time></trkpt><trkpt lat="40.3798588" lon="16.1694945"><ele>709.0</ele><time>2026-04-06T14:02:47.858Z</time></trkpt><trkpt lat="40.379888" lon="16.1693664"><ele>709.0</ele><time>2026-04-06T14:02:48.859Z</time></trkpt><trkpt lat="40.3799239" lon="16.1692411"><ele>709.0</ele><time>2026-04-06T14:02:49.858Z</time></trkpt><trkpt lat="40.3799696" lon="16.1691224"><ele>709.0</ele><time>2026-04-06T14:02:50.858Z</time></trkpt><trkpt lat="40.3800143" lon="16.169017"><ele>709.0</ele><time>2026-04-06T14:02:51.859Z</time></trkpt><trkpt lat="40.380054" lon="16.1689113"><ele>709.0</ele><time>2026-04-06T14:02:52.859Z</time></trkpt><trkpt lat="40.380095" lon="16.1688092"><ele>709.0</ele><time>2026-04-06T14:02:53.858Z</time></trkpt><trkpt lat="40.3801434" lon="16.1687149"><ele>710.8000000000001</ele><time>2026-04-06T14:02:54.858Z</time></trkpt><trkpt lat="40.3802007" lon="16.1686392"><ele>712.6</ele><time>2026-04-06T14:02:55.858Z</time></trkpt><trkpt lat="40.3802685" lon="16.1685635"><ele>714.4</ele><time>2026-04-06T14:02:56.858Z</time></trkpt><trkpt lat="40.3803342" lon="16.1684723"><ele>716.2</ele><time>2026-04-06T14:02:57.858Z</time></trkpt><trkpt lat="40.3803846" lon="16.1683654"><ele>718.0</ele><time>2026-04-06T14:02:58.859Z</time></trkpt><trkpt lat="40.3804213" lon="16.1682507"><ele>719.8333333333334</ele><time>2026-04-06T14:02:59.858Z</time></trkpt><trkpt lat="40.380454" lon="16.1681458"><ele>721.6666666666667</ele><time>2026-04-06T14:03:00.858Z</time></trkpt><trkpt lat="40.3804944" lon="16.1680649"><ele>723.5</ele><time>2026-04-06T14:03:01.858Z</time></trkpt><trkpt lat="40.3805464" lon="16.1680091"><ele>725.3333333333334</ele><time>2026-04-06T14:03:02.859Z</time></trkpt><trkpt lat="40.3806112" lon="16.1679733"><ele>727.1666666666666</ele><time>2026-04-06T14:03:03.858Z</time></trkpt><trkpt lat="40.3806839" lon="16.1679318"><ele>729.0</ele><time>2026-04-06T14:03:04.858Z</time></trkpt><trkpt lat="40.3807629" lon="16.1678813"><ele>722.6</ele><time>2026-04-06T14:03:05.858Z</time></trkpt><trkpt lat="40.3808439" lon="16.1678188"><ele>716.2</ele><time>2026-04-06T14:03:06.858Z</time></trkpt><trkpt lat="40.3809235" lon="16.1677457"><ele>709.8000000000001</ele><time>2026-04-06T14:03:07.858Z</time></trkpt><trkpt lat="40.3810075" lon="16.1676709"><ele>703.4000000000001</ele><time>2026-04-06T14:03:08.858Z</time></trkpt><trkpt lat="40.3810916" lon="16.1675908"><ele>697.0</ele><time>2026-04-06T14:03:09.858Z</time></trkpt><trkpt lat="40.3811757" lon="16.1675046"><ele>697.0</ele><time>2026-04-06T14:03:10.858Z</time></trkpt><trkpt lat="40.3812616" lon="16.1674095"><ele>697.0</ele><time>2026-04-06T14:03:11.858Z</time></trkpt><trkpt lat="40.3813415" lon="16.1673116"><ele>697.0</ele><time>2026-04-06T14:03:12.858Z</time></trkpt><trkpt lat="40.3814196" lon="16.1672125"><ele>697.0</ele><time>2026-04-06T14:03:13.858Z</time></trkpt><trkpt lat="40.3815005" lon="16.1671195"><ele>697.0</ele><time>2026-04-06T14:03:14.858Z</time></trkpt><trkpt lat="40.3815877" lon="16.1670357"><ele>697.8</ele><time>2026-04-06T14:03:15.859Z</time></trkpt><trkpt lat="40.3816758" lon="16.1669681"><ele>698.6</ele><time>2026-04-06T14:03:16.858Z</time></trkpt><trkpt lat="40.3817661" lon="16.1669108"><ele>699.4</ele><time>2026-04-06T14:03:17.859Z</time></trkpt><trkpt lat="40.3818565" lon="16.1668625"><ele>700.1999999999999</ele><time>2026-04-06T14:03:18.858Z</time></trkpt><trkpt lat="40.3819508" lon="16.1668251"><ele>701.0</ele><time>2026-04-06T14:03:19.858Z</time></trkpt><trkpt lat="40.3820461" lon="16.1667994"><ele>701.0</ele><time>2026-04-06T14:03:20.858Z</time></trkpt><trkpt lat="40.3821491" lon="16.1667799"><ele>701.0</ele><time>2026-04-06T14:03:21.858Z</time></trkpt><trkpt lat="40.3822514" lon="16.1667527"><ele>701.0</ele><time>2026-04-06T14:03:22.858Z</time></trkpt><trkpt lat="40.3823504" lon="16.1667237"><ele>701.0</ele><time>2026-04-06T14:03:23.859Z</time></trkpt><trkpt lat="40.3824446" lon="16.1666895"><ele>701.0</ele><time>2026-04-06T14:03:24.858Z</time></trkpt><trkpt lat="40.3825361" lon="16.1666511"><ele>700.0</ele><time>2026-04-06T14:03:25.858Z</time></trkpt><trkpt lat="40.3826268" lon="16.1666115"><ele>699.0</ele><time>2026-04-06T14:03:26.858Z</time></trkpt><trkpt lat="40.3827112" lon="16.1665658"><ele>698.0</ele><time>2026-04-06T14:03:27.858Z</time></trkpt><trkpt lat="40.3827862" lon="16.1665187"><ele>697.0</ele><time>2026-04-06T14:03:28.858Z</time></trkpt><trkpt lat="40.3828524" lon="16.1664699"><ele>696.0</ele><time>2026-04-06T14:03:29.858Z</time></trkpt><trkpt lat="40.3829177" lon="16.1664158"><ele>695.0</ele><time>2026-04-06T14:03:30.858Z</time></trkpt><trkpt lat="40.3829729" lon="16.1663525"><ele>689.5</ele><time>2026-04-06T14:03:31.859Z</time></trkpt><trkpt lat="40.3830237" lon="16.1662815"><ele>684.0</ele><time>2026-04-06T14:03:32.858Z</time></trkpt><trkpt lat="40.3830607" lon="16.1661972"><ele>678.5</ele><time>2026-04-06T14:03:33.858Z</time></trkpt><trkpt lat="40.3830802" lon="16.1661033"><ele>673.0</ele><time>2026-04-06T14:03:34.859Z</time></trkpt><trkpt lat="40.3830735" lon="16.1659939"><ele>667.5</ele><time>2026-04-06T14:03:35.858Z</time></trkpt><trkpt lat="40.383054" lon="16.1658773"><ele>662.0</ele><time>2026-04-06T14:03:36.858Z</time></trkpt><trkpt lat="40.3830275" lon="16.1657536"><ele>661.4000000000001</ele><time>2026-04-06T14:03:37.858Z</time></trkpt><trkpt lat="40.3830082" lon="16.1656282"><ele>660.8000000000001</ele><time>2026-04-06T14:03:38.859Z</time></trkpt><trkpt lat="40.3830108" lon="16.1655034"><ele>660.2</ele><time>2026-04-06T14:03:39.858Z</time></trkpt><trkpt lat="40.383032" lon="16.1653832"><ele>659.6</ele><time>2026-04-06T14:03:40.858Z</time></trkpt><trkpt lat="40.3830593" lon="16.1652675"><ele>659.0</ele><time>2026-04-06T14:03:41.858Z</time></trkpt><trkpt lat="40.3830917" lon="16.1651566"><ele>659.0</ele><time>2026-04-06T14:03:42.858Z</time></trkpt><trkpt lat="40.3831272" lon="16.1650474"><ele>659.0</ele><time>2026-04-06T14:03:43.858Z</time></trkpt><trkpt lat="40.3831668" lon="16.1649452"><ele>659.0</ele><time>2026-04-06T14:03:44.858Z</time></trkpt><trkpt lat="40.38321" lon="16.1648455"><ele>659.0</ele><time>2026-04-06T14:03:45.858Z</time></trkpt><trkpt lat="40.3832551" lon="16.1647485"><ele>659.0</ele><time>2026-04-06T14:03:46.858Z</time></trkpt><trkpt lat="40.3832975" lon="16.1646472"><ele>659.0</ele><time>2026-04-06T14:03:47.858Z</time></trkpt><trkpt lat="40.3833311" lon="16.1645443"><ele>659.1666666666666</ele><time>2026-04-06T14:03:48.858Z</time></trkpt><trkpt lat="40.3833538" lon="16.1644398"><ele>659.3333333333333</ele><time>2026-04-06T14:03:49.858Z</time></trkpt><trkpt lat="40.3833676" lon="16.1643361"><ele>659.5</ele><time>2026-04-06T14:03:50.858Z</time></trkpt><trkpt lat="40.3833682" lon="16.1642351"><ele>659.6666666666666</ele><time>2026-04-06T14:03:51.858Z</time></trkpt><trkpt lat="40.3833682" lon="16.1641311"><ele>659.8333333333334</ele><time>2026-04-06T14:03:52.858Z</time></trkpt><trkpt lat="40.3833703" lon="16.1640235"><ele>660.0</ele><time>2026-04-06T14:03:53.858Z</time></trkpt><trkpt lat="40.3833811" lon="16.1639146"><ele>659.4</ele><time>2026-04-06T14:03:54.858Z</time></trkpt><trkpt lat="40.3833984" lon="16.1638044"><ele>658.8</ele><time>2026-04-06T14:03:55.858Z</time></trkpt><trkpt lat="40.3834229" lon="16.163695"><ele>658.2</ele><time>2026-04-06T14:03:56.858Z</time></trkpt><trkpt lat="40.3834566" lon="16.1635795"><ele>657.6</ele><time>2026-04-06T14:03:57.859Z</time></trkpt><trkpt lat="40.3834995" lon="16.1634601"><ele>657.0</ele><time>2026-04-06T14:03:58.859Z</time></trkpt><trkpt lat="40.3835577" lon="16.1633412"><ele>657.0</ele><time>2026-04-06T14:03:59.858Z</time></trkpt><trkpt lat="40.383619" lon="16.1632225"><ele>657.0</ele><time>2026-04-06T14:04:00.859Z</time></trkpt><trkpt lat="40.3836827" lon="16.1631089"><ele>657.0</ele><time>2026-04-06T14:04:01.858Z</time></trkpt><trkpt lat="40.3837438" lon="16.1629967"><ele>657.0</ele><time>2026-04-06T14:04:02.858Z</time></trkpt><trkpt lat="40.3838039" lon="16.1628794"><ele>657.0</ele><time>2026-04-06T14:04:03.858Z</time></trkpt><trkpt lat="40.3838565" lon="16.162757"><ele>657.0</ele><time>2026-04-06T14:04:04.858Z</time></trkpt><trkpt lat="40.3839032" lon="16.1626335"><ele>657.0</ele><time>2026-04-06T14:04:05.858Z</time></trkpt><trkpt lat="40.3839545" lon="16.1625129"><ele>657.0</ele><time>2026-04-06T14:04:06.859Z</time></trkpt><trkpt lat="40.384009" lon="16.1623974"><ele>657.0</ele><time>2026-04-06T14:04:07.858Z</time></trkpt><trkpt lat="40.3840694" lon="16.1622912"><ele>657.0</ele><time>2026-04-06T14:04:08.859Z</time></trkpt><trkpt lat="40.3841376" lon="16.1621917"><ele>657.0</ele><time>2026-04-06T14:04:09.858Z</time></trkpt><trkpt lat="40.3842088" lon="16.1621121"><ele>657.0</ele><time>2026-04-06T14:04:10.858Z</time></trkpt><trkpt lat="40.3842855" lon="16.162041"><ele>657.0</ele><time>2026-04-06T14:04:11.858Z</time></trkpt><trkpt lat="40.3843651" lon="16.1619783"><ele>657.0</ele><time>2026-04-06T14:04:12.858Z</time></trkpt><trkpt lat="40.3844511" lon="16.1619191"><ele>657.0</ele><time>2026-04-06T14:04:13.858Z</time></trkpt><trkpt lat="40.3845423" lon="16.1618544"><ele>657.0</ele><time>2026-04-06T14:04:14.858Z</time></trkpt><trkpt lat="40.384636" lon="16.1617881"><ele>657.0</ele><time>2026-04-06T14:04:15.858Z</time></trkpt><trkpt lat="40.3847276" lon="16.1617229"><ele>657.0</ele><time>2026-04-06T14:04:16.858Z</time></trkpt><trkpt lat="40.3848208" lon="16.1616598"><ele>657.0</ele><time>2026-04-06T14:04:17.859Z</time></trkpt><trkpt lat="40.3849185" lon="16.1615997"><ele>657.0</ele><time>2026-04-06T14:04:18.858Z</time></trkpt><trkpt lat="40.3850183" lon="16.1615399"><ele>659.0</ele><time>2026-04-06T14:04:19.858Z</time></trkpt><trkpt lat="40.3851146" lon="16.1614824"><ele>661.0</ele><time>2026-04-06T14:04:20.859Z</time></trkpt><trkpt lat="40.3852096" lon="16.161422"><ele>663.0</ele><time>2026-04-06T14:04:21.859Z</time></trkpt><trkpt lat="40.385298" lon="16.1613576"><ele>665.0</ele><time>2026-04-06T14:04:22.858Z</time></trkpt><trkpt lat="40.3853832" lon="16.1612945"><ele>667.0</ele><time>2026-04-06T14:04:23.858Z</time></trkpt><trkpt lat="40.3854704" lon="16.1612326"><ele>660.0</ele><time>2026-04-06T14:04:24.858Z</time></trkpt><trkpt lat="40.3855596" lon="16.1611729"><ele>653.0</ele><time>2026-04-06T14:04:25.859Z</time></trkpt><trkpt lat="40.3856507" lon="16.1611176"><ele>646.0</ele><time>2026-04-06T14:04:26.858Z</time></trkpt><trkpt lat="40.3857409" lon="16.1610699"><ele>639.0</ele><time>2026-04-06T14:04:27.858Z</time></trkpt><trkpt lat="40.3858229" lon="16.1610256"><ele>632.0</ele><time>2026-04-06T14:04:28.858Z</time></trkpt><trkpt lat="40.3859024" lon="16.1609855"><ele>632.0</ele><time>2026-04-06T14:04:29.858Z</time></trkpt><trkpt lat="40.3859687" lon="16.1609572"><ele>632.0</ele><time>2026-04-06T14:04:30.858Z</time></trkpt><trkpt lat="40.3860683" lon="16.1609264"><ele>632.0</ele><time>2026-04-06T14:04:32.859Z</time></trkpt><trkpt lat="40.3861244" lon="16.1609757"><ele>632.0</ele><time>2026-04-06T14:04:34.858Z</time></trkpt><trkpt lat="40.3861257" lon="16.1611153"><ele>632.0</ele><time>2026-04-06T14:04:36.858Z</time></trkpt><trkpt lat="40.3860717" lon="16.1612663"><ele>632.0</ele><time>2026-04-06T14:04:38.858Z</time></trkpt><trkpt lat="40.3860235" lon="16.16134"><ele>632.0</ele><time>2026-04-06T14:04:39.858Z</time></trkpt><trkpt lat="40.3859674" lon="16.161424"><ele>632.0</ele><time>2026-04-06T14:04:40.859Z</time></trkpt><trkpt lat="40.3859101" lon="16.1615199"><ele>632.0</ele><time>2026-04-06T14:04:41.858Z</time></trkpt><trkpt lat="40.3858547" lon="16.16162"><ele>632.0</ele><time>2026-04-06T14:04:42.858Z</time></trkpt><trkpt lat="40.3858044" lon="16.1617194"><ele>632.0</ele><time>2026-04-06T14:04:43.858Z</time></trkpt><trkpt lat="40.3857587" lon="16.1618141"><ele>628.0</ele><time>2026-04-06T14:04:44.859Z</time></trkpt><trkpt lat="40.3857208" lon="16.1619044"><ele>624.0</ele><time>2026-04-06T14:04:45.858Z</time></trkpt><trkpt lat="40.3856967" lon="16.1619937"><ele>620.0</ele><time>2026-04-06T14:04:46.858Z</time></trkpt><trkpt lat="40.3856867" lon="16.1620885"><ele>616.0</ele><time>2026-04-06T14:04:47.858Z</time></trkpt><trkpt lat="40.3856908" lon="16.16219"><ele>612.0</ele><time>2026-04-06T14:04:48.858Z</time></trkpt><trkpt lat="40.3857031" lon="16.1622994"><ele>608.0</ele><time>2026-04-06T14:04:49.859Z</time></trkpt><trkpt lat="40.385714" lon="16.1624172"><ele>604.0</ele><time>2026-04-06T14:04:50.858Z</time></trkpt><trkpt lat="40.385717" lon="16.1625399"><ele>600.0</ele><time>2026-04-06T14:04:51.858Z</time></trkpt><trkpt lat="40.3857157" lon="16.1626735"><ele>596.0</ele><time>2026-04-06T14:04:52.859Z</time></trkpt><trkpt lat="40.3857073" lon="16.1628115"><ele>592.0</ele><time>2026-04-06T14:04:53.858Z</time></trkpt><trkpt lat="40.3856975" lon="16.1629562"><ele>588.0</ele><time>2026-04-06T14:04:54.858Z</time></trkpt><trkpt lat="40.3856809" lon="16.1631018"><ele>584.6</ele><time>2026-04-06T14:04:55.858Z</time></trkpt><trkpt lat="40.3856594" lon="16.1632435"><ele>581.1999999999999</ele><time>2026-04-06T14:04:56.859Z</time></trkpt><trkpt lat="40.3856379" lon="16.163389"><ele>577.8</ele><time>2026-04-06T14:04:57.858Z</time></trkpt><trkpt lat="40.3856207" lon="16.1635304"><ele>574.4</ele><time>2026-04-06T14:04:58.859Z</time></trkpt><trkpt lat="40.3856153" lon="16.1636677"><ele>571.0</ele><time>2026-04-06T14:04:59.858Z</time></trkpt><trkpt lat="40.3856218" lon="16.1637992"><ele>571.0</ele><time>2026-04-06T14:05:00.859Z</time></trkpt><trkpt lat="40.3856308" lon="16.163919"><ele>571.0</ele><time>2026-04-06T14:05:01.858Z</time></trkpt><trkpt lat="40.3856362" lon="16.1640272"><ele>571.0</ele><time>2026-04-06T14:05:02.858Z</time></trkpt><trkpt lat="40.3856441" lon="16.1641325"><ele>571.0</ele><time>2026-04-06T14:05:03.858Z</time></trkpt><trkpt lat="40.3856605" lon="16.1642296"><ele>571.0</ele><time>2026-04-06T14:05:04.858Z</time></trkpt><trkpt lat="40.3856812" lon="16.1643208"><ele>571.0</ele><time>2026-04-06T14:05:05.859Z</time></trkpt><trkpt lat="40.3857094" lon="16.1644057"><ele>570.0</ele><time>2026-04-06T14:05:06.859Z</time></trkpt><trkpt lat="40.3857415" lon="16.16449"><ele>569.0</ele><time>2026-04-06T14:05:07.858Z</time></trkpt><trkpt lat="40.3857725" lon="16.1645801"><ele>568.0</ele><time>2026-04-06T14:05:08.858Z</time></trkpt><trkpt lat="40.385797" lon="16.1646727"><ele>567.0</ele><time>2026-04-06T14:05:09.858Z</time></trkpt><trkpt lat="40.3858038" lon="16.1647578"><ele>566.0</ele><time>2026-04-06T14:05:10.858Z</time></trkpt><trkpt lat="40.3857686" lon="16.164889"><ele>565.0</ele><time>2026-04-06T14:05:12.859Z</time></trkpt><trkpt lat="40.3856693" lon="16.1649886"><ele>564.3333333333334</ele><time>2026-04-06T14:05:14.858Z</time></trkpt><trkpt lat="40.3856117" lon="16.1650433"><ele>563.6666666666667</ele><time>2026-04-06T14:05:15.859Z</time></trkpt><trkpt lat="40.3855561" lon="16.165107"><ele>563.0</ele><time>2026-04-06T14:05:16.858Z</time></trkpt><trkpt lat="40.3855082" lon="16.1651804"><ele>562.3333333333334</ele><time>2026-04-06T14:05:17.858Z</time></trkpt><trkpt lat="40.3854735" lon="16.1652527"><ele>561.6666666666666</ele><time>2026-04-06T14:05:18.858Z</time></trkpt><trkpt lat="40.3854592" lon="16.1654029"><ele>561.0</ele><time>2026-04-06T14:05:20.858Z</time></trkpt><trkpt lat="40.385523" lon="16.1655379"><ele>561.0</ele><time>2026-04-06T14:05:22.859Z</time></trkpt><trkpt lat="40.385571" lon="16.1656041"><ele>561.0</ele><time>2026-04-06T14:05:23.858Z</time></trkpt><trkpt lat="40.3856245" lon="16.1656639"><ele>561.0</ele><time>2026-04-06T14:05:24.859Z</time></trkpt><trkpt lat="40.3856782" lon="16.165721"><ele>561.0</ele><time>2026-04-06T14:05:25.858Z</time></trkpt><trkpt lat="40.3857862" lon="16.1657777"><ele>561.0</ele><time>2026-04-06T14:05:27.858Z</time></trkpt><trkpt lat="40.3858885" lon="16.1657653"><ele>561.0</ele><time>2026-04-06T14:05:29.858Z</time></trkpt><trkpt lat="40.3859709" lon="16.1657057"><ele>561.0</ele><time>2026-04-06T14:05:31.858Z</time></trkpt><trkpt lat="40.3860208" lon="16.1655907"><ele>561.0</ele><time>2026-04-06T14:05:33.859Z</time></trkpt><trkpt lat="40.3860504" lon="16.1654248"><ele>561.0</ele><time>2026-04-06T14:05:35.859Z</time></trkpt><trkpt lat="40.3860674" lon="16.1653378"><ele>561.0</ele><time>2026-04-06T14:05:36.858Z</time></trkpt><trkpt lat="40.3860951" lon="16.1652515"><ele>561.0</ele><time>2026-04-06T14:05:37.858Z</time></trkpt><trkpt lat="40.3861362" lon="16.1651691"><ele>561.0</ele><time>2026-04-06T14:05:38.858Z</time></trkpt><trkpt lat="40.386186" lon="16.1651008"><ele>561.0</ele><time>2026-04-06T14:05:39.858Z</time></trkpt><trkpt lat="40.3862369" lon="16.1650333"><ele>561.0</ele><time>2026-04-06T14:05:40.858Z</time></trkpt><trkpt lat="40.3862845" lon="16.1649626"><ele>561.0</ele><time>2026-04-06T14:05:41.859Z</time></trkpt><trkpt lat="40.3863246" lon="16.1648843"><ele>561.0</ele><time>2026-04-06T14:05:42.858Z</time></trkpt><trkpt lat="40.3863597" lon="16.164805"><ele>561.0</ele><time>2026-04-06T14:05:43.859Z</time></trkpt><trkpt lat="40.386386" lon="16.1647217"><ele>561.0</ele><time>2026-04-06T14:05:44.858Z</time></trkpt><trkpt lat="40.3864012" lon="16.1646392"><ele>561.0</ele><time>2026-04-06T14:05:45.858Z</time></trkpt><trkpt lat="40.3864337" lon="16.1644959"><ele>559.6</ele><time>2026-04-06T14:05:47.858Z</time></trkpt><trkpt lat="40.3865019" lon="16.164365"><ele>558.2</ele><time>2026-04-06T14:05:49.858Z</time></trkpt><trkpt lat="40.3865368" lon="16.1642865"><ele>556.8</ele><time>2026-04-06T14:05:50.858Z</time></trkpt><trkpt lat="40.3865565" lon="16.1641529"><ele>555.4</ele><time>2026-04-06T14:05:52.859Z</time></trkpt><trkpt lat="40.3865038" lon="16.1640257"><ele>554.0</ele><time>2026-04-06T14:05:54.858Z</time></trkpt><trkpt lat="40.3864746" lon="16.1638786"><ele>554.0</ele><time>2026-04-06T14:05:56.858Z</time></trkpt><trkpt lat="40.3865332" lon="16.1637977"><ele>554.0</ele><time>2026-04-06T14:05:58.858Z</time></trkpt><trkpt lat="40.3866466" lon="16.1637608"><ele>554.0</ele><time>2026-04-06T14:06:00.859Z</time></trkpt><trkpt lat="40.3867569" lon="16.1636957"><ele>554.0</ele><time>2026-04-06T14:06:02.859Z</time></trkpt><trkpt lat="40.3868317" lon="16.1635667"><ele>554.0</ele><time>2026-04-06T14:06:04.859Z</time></trkpt><trkpt lat="40.3868593" lon="16.163488"><ele>554.0</ele><time>2026-04-06T14:06:05.858Z</time></trkpt><trkpt lat="40.386888" lon="16.1634068"><ele>554.0</ele><time>2026-04-06T14:06:06.858Z</time></trkpt><trkpt lat="40.3869189" lon="16.1633204"><ele>554.0</ele><time>2026-04-06T14:06:07.858Z</time></trkpt><trkpt lat="40.3869568" lon="16.1632324"><ele>554.0</ele><time>2026-04-06T14:06:08.858Z</time></trkpt><trkpt lat="40.3869965" lon="16.1631395"><ele>554.0</ele><time>2026-04-06T14:06:09.859Z</time></trkpt><trkpt lat="40.3870354" lon="16.1630495"><ele>554.0</ele><time>2026-04-06T14:06:10.859Z</time></trkpt><trkpt lat="40.3870726" lon="16.1629627"><ele>556.1666666666666</ele><time>2026-04-06T14:06:11.858Z</time></trkpt><trkpt lat="40.3871081" lon="16.1628697"><ele>558.3333333333333</ele><time>2026-04-06T14:06:12.858Z</time></trkpt><trkpt lat="40.3871407" lon="16.1627763"><ele>560.5</ele><time>2026-04-06T14:06:13.858Z</time></trkpt><trkpt lat="40.3871729" lon="16.1626842"><ele>562.6666666666666</ele><time>2026-04-06T14:06:14.858Z</time></trkpt><trkpt lat="40.38721" lon="16.1626001"><ele>564.8333333333334</ele><time>2026-04-06T14:06:15.858Z</time></trkpt><trkpt lat="40.3872528" lon="16.1625185"><ele>567.0</ele><time>2026-04-06T14:06:16.858Z</time></trkpt><trkpt lat="40.3873074" lon="16.1624424"><ele>563.1666666666666</ele><time>2026-04-06T14:06:17.858Z</time></trkpt><trkpt lat="40.3873656" lon="16.1623636"><ele>559.3333333333334</ele><time>2026-04-06T14:06:18.859Z</time></trkpt><trkpt lat="40.3874188" lon="16.1622805"><ele>555.5</ele><time>2026-04-06T14:06:19.858Z</time></trkpt><trkpt lat="40.3874664" lon="16.1621957"><ele>551.6666666666667</ele><time>2026-04-06T14:06:20.858Z</time></trkpt><trkpt lat="40.3875116" lon="16.162105"><ele>547.8333333333334</ele><time>2026-04-06T14:06:21.859Z</time></trkpt><trkpt lat="40.3875581" lon="16.1620116"><ele>544.0</ele><time>2026-04-06T14:06:22.858Z</time></trkpt><trkpt lat="40.3876045" lon="16.1619138"><ele>544.0</ele><time>2026-04-06T14:06:23.858Z</time></trkpt><trkpt lat="40.3876389" lon="16.1618148"><ele>544.0</ele><time>2026-04-06T14:06:24.858Z</time></trkpt><trkpt lat="40.3876666" lon="16.1617143"><ele>544.0</ele><time>2026-04-06T14:06:25.858Z</time></trkpt><trkpt lat="40.3876905" lon="16.1616087"><ele>544.0</ele><time>2026-04-06T14:06:26.858Z</time></trkpt><trkpt lat="40.3877133" lon="16.1615098"><ele>544.0</ele><time>2026-04-06T14:06:27.858Z</time></trkpt><trkpt lat="40.3877469" lon="16.1614288"><ele>544.0</ele><time>2026-04-06T14:06:28.858Z</time></trkpt><trkpt lat="40.3877867" lon="16.1613619"><ele>545.3333333333334</ele><time>2026-04-06T14:06:29.858Z</time></trkpt><trkpt lat="40.3878396" lon="16.1613034"><ele>546.6666666666667</ele><time>2026-04-06T14:06:30.858Z</time></trkpt><trkpt lat="40.3879044" lon="16.1612417"><ele>548.0</ele><time>2026-04-06T14:06:31.858Z</time></trkpt><trkpt lat="40.387974" lon="16.1611799"><ele>549.3333333333334</ele><time>2026-04-06T14:06:32.858Z</time></trkpt><trkpt lat="40.3880403" lon="16.1611191"><ele>550.6666666666666</ele><time>2026-04-06T14:06:33.858Z</time></trkpt><trkpt lat="40.388116" lon="16.1610635"><ele>552.0</ele><time>2026-04-06T14:06:34.859Z</time></trkpt><trkpt lat="40.3881865" lon="16.161008"><ele>548.0</ele><time>2026-04-06T14:06:35.858Z</time></trkpt><trkpt lat="40.3882497" lon="16.1609542"><ele>544.0</ele><time>2026-04-06T14:06:36.858Z</time></trkpt><trkpt lat="40.3883043" lon="16.1608979"><ele>540.0</ele><time>2026-04-06T14:06:37.859Z</time></trkpt><trkpt lat="40.3883489" lon="16.1608358"><ele>536.0</ele><time>2026-04-06T14:06:38.858Z</time></trkpt><trkpt lat="40.3884026" lon="16.1606904"><ele>532.0</ele><time>2026-04-06T14:06:40.858Z</time></trkpt><trkpt lat="40.3884153" lon="16.1606062"><ele>528.0</ele><time>2026-04-06T14:06:41.858Z</time></trkpt><trkpt lat="40.3884202" lon="16.1605179"><ele>528.0</ele><time>2026-04-06T14:06:42.858Z</time></trkpt><trkpt lat="40.3884265" lon="16.160433"><ele>528.0</ele><time>2026-04-06T14:06:43.858Z</time></trkpt><trkpt lat="40.3884589" lon="16.1602851"><ele>528.0</ele><time>2026-04-06T14:06:45.859Z</time></trkpt><trkpt lat="40.3885333" lon="16.1601449"><ele>528.0</ele><time>2026-04-06T14:06:47.858Z</time></trkpt><trkpt lat="40.3885837" lon="16.1600736"><ele>528.0</ele><time>2026-04-06T14:06:48.859Z</time></trkpt><trkpt lat="40.3886386" lon="16.1600014"><ele>528.0</ele><time>2026-04-06T14:06:49.859Z</time></trkpt><trkpt lat="40.3886929" lon="16.1599197"><ele>528.0</ele><time>2026-04-06T14:06:50.858Z</time></trkpt><trkpt lat="40.3887478" lon="16.1598276"><ele>528.0</ele><time>2026-04-06T14:06:51.858Z</time></trkpt><trkpt lat="40.3887964" lon="16.1597239"><ele>528.0</ele><time>2026-04-06T14:06:52.859Z</time></trkpt><trkpt lat="40.3888349" lon="16.1596148"><ele>528.0</ele><time>2026-04-06T14:06:53.858Z</time></trkpt><trkpt lat="40.3888706" lon="16.1595024"><ele>528.0</ele><time>2026-04-06T14:06:54.858Z</time></trkpt><trkpt lat="40.3889053" lon="16.1593951"><ele>526.0</ele><time>2026-04-06T14:06:55.858Z</time></trkpt><trkpt lat="40.3889429" lon="16.1592948"><ele>524.0</ele><time>2026-04-06T14:06:56.858Z</time></trkpt><trkpt lat="40.3889842" lon="16.159194"><ele>522.0</ele><time>2026-04-06T14:06:57.858Z</time></trkpt><trkpt lat="40.3890303" lon="16.1590913"><ele>520.0</ele><time>2026-04-06T14:06:58.858Z</time></trkpt><trkpt lat="40.3890799" lon="16.1589827"><ele>518.0</ele><time>2026-04-06T14:06:59.859Z</time></trkpt><trkpt lat="40.3891301" lon="16.1588764"><ele>518.0</ele><time>2026-04-06T14:07:00.858Z</time></trkpt><trkpt lat="40.3891777" lon="16.1587712"><ele>518.0</ele><time>2026-04-06T14:07:01.858Z</time></trkpt><trkpt lat="40.3892243" lon="16.1586718"><ele>518.0</ele><time>2026-04-06T14:07:02.858Z</time></trkpt><trkpt lat="40.3892725" lon="16.1585765"><ele>518.0</ele><time>2026-04-06T14:07:03.858Z</time></trkpt><trkpt lat="40.3893238" lon="16.1584765"><ele>518.0</ele><time>2026-04-06T14:07:04.858Z</time></trkpt><trkpt lat="40.3893714" lon="16.1583706"><ele>518.0</ele><time>2026-04-06T14:07:05.859Z</time></trkpt><trkpt lat="40.3894135" lon="16.1582565"><ele>518.0</ele><time>2026-04-06T14:07:06.859Z</time></trkpt><trkpt lat="40.3894482" lon="16.1581364"><ele>518.0</ele><time>2026-04-06T14:07:07.858Z</time></trkpt><trkpt lat="40.3894821" lon="16.1580169"><ele>518.0</ele><time>2026-04-06T14:07:08.858Z</time></trkpt><trkpt lat="40.389518" lon="16.1579107"><ele>518.0</ele><time>2026-04-06T14:07:09.858Z</time></trkpt><trkpt lat="40.3895604" lon="16.1578182"><ele>516.8333333333333</ele><time>2026-04-06T14:07:10.858Z</time></trkpt><trkpt lat="40.3896108" lon="16.1577431"><ele>515.6666666666666</ele><time>2026-04-06T14:07:11.859Z</time></trkpt><trkpt lat="40.3896579" lon="16.1576797"><ele>514.5</ele><time>2026-04-06T14:07:12.858Z</time></trkpt><trkpt lat="40.3897203" lon="16.1575521"><ele>513.3333333333334</ele><time>2026-04-06T14:07:14.859Z</time></trkpt><trkpt lat="40.3897174" lon="16.1573992"><ele>512.1666666666667</ele><time>2026-04-06T14:07:16.858Z</time></trkpt><trkpt lat="40.389702" lon="16.157312"><ele>511.0</ele><time>2026-04-06T14:07:17.858Z</time></trkpt><trkpt lat="40.3896842" lon="16.157219"><ele>511.0</ele><time>2026-04-06T14:07:18.858Z</time></trkpt><trkpt lat="40.3896801" lon="16.1571198"><ele>511.0</ele><time>2026-04-06T14:07:19.858Z</time></trkpt><trkpt lat="40.3896902" lon="16.1570206"><ele>511.0</ele><time>2026-04-06T14:07:20.858Z</time></trkpt><trkpt lat="40.3897132" lon="16.1569311"><ele>511.0</ele><time>2026-04-06T14:07:21.859Z</time></trkpt><trkpt lat="40.3897494" lon="16.1568523"><ele>511.0</ele><time>2026-04-06T14:07:22.858Z</time></trkpt><trkpt lat="40.3897983" lon="16.1567859"><ele>511.0</ele><time>2026-04-06T14:07:23.859Z</time></trkpt><trkpt lat="40.3898451" lon="16.156717"><ele>511.0</ele><time>2026-04-06T14:07:24.858Z</time></trkpt><trkpt lat="40.3898834" lon="16.1566488"><ele>511.00000000000006</ele><time>2026-04-06T14:07:25.859Z</time></trkpt><trkpt lat="40.3899117" lon="16.1565697"><ele>511.0</ele><time>2026-04-06T14:07:26.858Z</time></trkpt><trkpt lat="40.3899266" lon="16.1564808"><ele>511.0</ele><time>2026-04-06T14:07:27.858Z</time></trkpt><trkpt lat="40.3899325" lon="16.1563794"><ele>511.0</ele><time>2026-04-06T14:07:28.858Z</time></trkpt><trkpt lat="40.3899273" lon="16.1562671"><ele>511.00000000000006</ele><time>2026-04-06T14:07:29.858Z</time></trkpt><trkpt lat="40.3899149" lon="16.1561467"><ele>511.0</ele><time>2026-04-06T14:07:30.858Z</time></trkpt><trkpt lat="40.3898976" lon="16.1560236"><ele>510.1666666666667</ele><time>2026-04-06T14:07:31.858Z</time></trkpt><trkpt lat="40.3898839" lon="16.1559048"><ele>509.33333333333337</ele><time>2026-04-06T14:07:32.859Z</time></trkpt><trkpt lat="40.3898756" lon="16.1557946"><ele>508.5</ele><time>2026-04-06T14:07:33.858Z</time></trkpt><trkpt lat="40.3898778" lon="16.1556933"><ele>507.66666666666663</ele><time>2026-04-06T14:07:34.858Z</time></trkpt><trkpt lat="40.3898926" lon="16.155604"><ele>506.8333333333333</ele><time>2026-04-06T14:07:35.859Z</time></trkpt><trkpt lat="40.389924" lon="16.1555259"><ele>506.0</ele><time>2026-04-06T14:07:36.858Z</time></trkpt><trkpt lat="40.3899686" lon="16.1554654"><ele>506.0</ele><time>2026-04-06T14:07:37.858Z</time></trkpt><trkpt lat="40.3900607" lon="16.1553858"><ele>506.0</ele><time>2026-04-06T14:07:39.858Z</time></trkpt><trkpt lat="40.3901596" lon="16.1553357"><ele>506.0</ele><time>2026-04-06T14:07:41.858Z</time></trkpt><trkpt lat="40.3902647" lon="16.1553557"><ele>506.0</ele><time>2026-04-06T14:07:43.859Z</time></trkpt><trkpt lat="40.3903685" lon="16.1554324"><ele>506.0</ele><time>2026-04-06T14:07:45.858Z</time></trkpt><trkpt lat="40.3904811" lon="16.1554967"><ele>505.6</ele><time>2026-04-06T14:07:47.859Z</time></trkpt><trkpt lat="40.3905736" lon="16.1555562"><ele>505.20000000000005</ele><time>2026-04-06T14:07:49.858Z</time></trkpt><trkpt lat="40.3906176" lon="16.1556433"><ele>504.79999999999995</ele><time>2026-04-06T14:07:52.859Z</time></trkpt><trkpt lat="40.3905593" lon="16.1557501"><ele>504.4</ele><time>2026-04-06T14:07:57.858Z</time></trkpt><trkpt lat="40.3904572" lon="16.155838"><ele>504.0</ele><time>2026-04-06T14:07:59.859Z</time></trkpt><trkpt lat="40.3904135" lon="16.1559061"><ele>504.0</ele><time>2026-04-06T14:08:00.858Z</time></trkpt><trkpt lat="40.3903822" lon="16.1559926"><ele>504.0</ele><time>2026-04-06T14:08:01.858Z</time></trkpt><trkpt lat="40.3903743" lon="16.1560998"><ele>504.0</ele><time>2026-04-06T14:08:02.858Z</time></trkpt><trkpt lat="40.3903818" lon="16.1562173"><ele>504.0</ele><time>2026-04-06T14:08:03.858Z</time></trkpt><trkpt lat="40.3904094" lon="16.1563392"><ele>504.0</ele><time>2026-04-06T14:08:04.858Z</time></trkpt><trkpt lat="40.390457" lon="16.1564605"><ele>504.0</ele><time>2026-04-06T14:08:05.858Z</time></trkpt><trkpt lat="40.3905097" lon="16.1565824"><ele>499.25</ele><time>2026-04-06T14:08:06.857Z</time></trkpt><trkpt lat="40.3905624" lon="16.1567119"><ele>494.5</ele><time>2026-04-06T14:08:07.857Z</time></trkpt><trkpt lat="40.390617" lon="16.1568544"><ele>489.75</ele><time>2026-04-06T14:08:08.857Z</time></trkpt><trkpt lat="40.3906756" lon="16.1569952"><ele>485.0</ele><time>2026-04-06T14:08:09.858Z</time></trkpt><trkpt lat="40.3907376" lon="16.1571353"><ele>485.0</ele><time>2026-04-06T14:08:10.857Z</time></trkpt><trkpt lat="40.3907962" lon="16.157279"><ele>485.0</ele><time>2026-04-06T14:08:11.857Z</time></trkpt><trkpt lat="40.3908436" lon="16.1574247"><ele>485.0</ele><time>2026-04-06T14:08:12.857Z</time></trkpt><trkpt lat="40.3908963" lon="16.1575771"><ele>485.0</ele><time>2026-04-06T14:08:13.858Z</time></trkpt><trkpt lat="40.3909503" lon="16.1577285"><ele>483.25</ele><time>2026-04-06T14:08:14.857Z</time></trkpt><trkpt lat="40.3909988" lon="16.1578855"><ele>481.5</ele><time>2026-04-06T14:08:15.858Z</time></trkpt><trkpt lat="40.391034" lon="16.1580455"><ele>479.75</ele><time>2026-04-06T14:08:16.857Z</time></trkpt><trkpt lat="40.3910593" lon="16.1582087"><ele>478.0</ele><time>2026-04-06T14:08:17.857Z</time></trkpt><trkpt lat="40.3910762" lon="16.1583745"><ele>476.5</ele><time>2026-04-06T14:08:18.857Z</time></trkpt><trkpt lat="40.3910893" lon="16.158551"><ele>475.0</ele><time>2026-04-06T14:08:19.857Z</time></trkpt><trkpt lat="40.3911005" lon="16.1587342"><ele>473.5</ele><time>2026-04-06T14:08:20.857Z</time></trkpt><trkpt lat="40.3911081" lon="16.1589251"><ele>472.0</ele><time>2026-04-06T14:08:21.857Z</time></trkpt><trkpt lat="40.3911156" lon="16.1591227"><ele>470.75</ele><time>2026-04-06T14:08:22.857Z</time></trkpt><trkpt lat="40.3911225" lon="16.1593143"><ele>469.5</ele><time>2026-04-06T14:08:23.857Z</time></trkpt><trkpt lat="40.3911317" lon="16.1595063"><ele>468.25</ele><time>2026-04-06T14:08:24.857Z</time></trkpt><trkpt lat="40.3911469" lon="16.1596931"><ele>467.0</ele><time>2026-04-06T14:08:25.857Z</time></trkpt><trkpt lat="40.3911608" lon="16.1598695"><ele>465.75</ele><time>2026-04-06T14:08:26.857Z</time></trkpt><trkpt lat="40.3911717" lon="16.1600476"><ele>464.5</ele><time>2026-04-06T14:08:27.857Z</time></trkpt><trkpt lat="40.3911833" lon="16.1602228"><ele>463.25</ele><time>2026-04-06T14:08:28.857Z</time></trkpt><trkpt lat="40.3911921" lon="16.1603838"><ele>462.0</ele><time>2026-04-06T14:08:29.857Z</time></trkpt><trkpt lat="40.3911847" lon="16.1605269"><ele>462.0</ele><time>2026-04-06T14:08:30.857Z</time></trkpt><trkpt lat="40.3911565" lon="16.1606538"><ele>462.0</ele><time>2026-04-06T14:08:31.857Z</time></trkpt><trkpt lat="40.3911132" lon="16.1607636"><ele>462.0</ele><time>2026-04-06T14:08:32.857Z</time></trkpt><trkpt lat="40.3910677" lon="16.160862"><ele>462.0</ele><time>2026-04-06T14:08:33.857Z</time></trkpt><trkpt lat="40.3910231" lon="16.1609523"><ele>462.0</ele><time>2026-04-06T14:08:34.857Z</time></trkpt><trkpt lat="40.3909821" lon="16.1610391"><ele>462.0</ele><time>2026-04-06T14:08:35.857Z</time></trkpt><trkpt lat="40.3909463" lon="16.1611195"><ele>461.3333333333333</ele><time>2026-04-06T14:08:36.857Z</time></trkpt><trkpt lat="40.3909131" lon="16.161197"><ele>460.66666666666663</ele><time>2026-04-06T14:08:37.857Z</time></trkpt><trkpt lat="40.3908663" lon="16.1613019"><ele>460.0</ele><time>2026-04-06T14:08:39.857Z</time></trkpt><trkpt lat="40.3908962" lon="16.1613842"><ele>459.3333333333333</ele><time>2026-04-06T14:08:43.857Z</time></trkpt><trkpt lat="40.3909584" lon="16.1613457"><ele>458.66666666666663</ele><time>2026-04-06T14:08:48.857Z</time></trkpt><trkpt lat="40.3910273" lon="16.1612977"><ele>458.0</ele><time>2026-04-06T14:08:51.886Z</time></trkpt><trkpt lat="40.3911482" lon="16.1612855"><ele>458.0</ele><time>2026-04-06T14:08:53.857Z</time></trkpt><trkpt lat="40.3912247" lon="16.1612737"><ele>457.99999999999994</ele><time>2026-04-06T14:08:54.858Z</time></trkpt><trkpt lat="40.3913199" lon="16.1612615"><ele>457.99999999999994</ele><time>2026-04-06T14:08:55.857Z</time></trkpt><trkpt lat="40.3914281" lon="16.1612498"><ele>458.0</ele><time>2026-04-06T14:08:56.857Z</time></trkpt><trkpt lat="40.3915405" lon="16.1612364"><ele>458.0</ele><time>2026-04-06T14:08:57.857Z</time></trkpt><trkpt lat="40.3916468" lon="16.1612097"><ele>461.25</ele><time>2026-04-06T14:08:58.858Z</time></trkpt><trkpt lat="40.3917394" lon="16.1611446"><ele>464.5</ele><time>2026-04-06T14:08:59.858Z</time></trkpt><trkpt lat="40.3918102" lon="16.1610399"><ele>467.75</ele><time>2026-04-06T14:09:00.857Z</time></trkpt><trkpt lat="40.3918637" lon="16.1609025"><ele>471.0</ele><time>2026-04-06T14:09:01.858Z</time></trkpt><trkpt lat="40.3919066" lon="16.16075"><ele>470.20000000000005</ele><time>2026-04-06T14:09:02.858Z</time></trkpt><trkpt lat="40.3919504" lon="16.1605975"><ele>469.40000000000003</ele><time>2026-04-06T14:09:03.857Z</time></trkpt><trkpt lat="40.3919894" lon="16.1604522"><ele>468.6</ele><time>2026-04-06T14:09:04.857Z</time></trkpt><trkpt lat="40.3920313" lon="16.1603193"><ele>467.8</ele><time>2026-04-06T14:09:05.857Z</time></trkpt><trkpt lat="40.3920739" lon="16.1602044"><ele>467.0</ele><time>2026-04-06T14:09:06.857Z</time></trkpt><trkpt lat="40.3921156" lon="16.1601112"><ele>472.40000000000003</ele><time>2026-04-06T14:09:07.857Z</time></trkpt><trkpt lat="40.392218" lon="16.1600718"><ele>477.80000000000007</ele><time>2026-04-06T14:09:09.857Z</time></trkpt><trkpt lat="40.3922863" lon="16.1602113"><ele>483.2</ele><time>2026-04-06T14:09:11.857Z</time></trkpt><trkpt lat="40.3922904" lon="16.160332"><ele>488.6</ele><time>2026-04-06T14:09:12.857Z</time></trkpt><trkpt lat="40.3922885" lon="16.1604738"><ele>494.0</ele><time>2026-04-06T14:09:13.857Z</time></trkpt><trkpt lat="40.3922877" lon="16.1606661"><ele>498.66666666666663</ele><time>2026-04-06T14:09:14.857Z</time></trkpt><trkpt lat="40.3922872" lon="16.1608707"><ele>503.33333333333337</ele><time>2026-04-06T14:09:15.858Z</time></trkpt><trkpt lat="40.3922946" lon="16.1610794"><ele>508.0</ele><time>2026-04-06T14:09:16.857Z</time></trkpt><trkpt lat="40.3923046" lon="16.1612873"><ele>508.0</ele><time>2026-04-06T14:09:17.857Z</time></trkpt><trkpt lat="40.3923228" lon="16.1614975"><ele>508.0</ele><time>2026-04-06T14:09:18.858Z</time></trkpt><trkpt lat="40.392346" lon="16.1617059"><ele>508.0</ele><time>2026-04-06T14:09:19.857Z</time></trkpt><trkpt lat="40.3923716" lon="16.1619132"><ele>509.6666666666667</ele><time>2026-04-06T14:09:20.857Z</time></trkpt><trkpt lat="40.3923999" lon="16.1621136"><ele>511.33333333333337</ele><time>2026-04-06T14:09:21.857Z</time></trkpt><trkpt lat="40.3924292" lon="16.162312"><ele>513.0</ele><time>2026-04-06T14:09:22.857Z</time></trkpt><trkpt lat="40.3924643" lon="16.1625061"><ele>513.0</ele><time>2026-04-06T14:09:23.857Z</time></trkpt><trkpt lat="40.3924984" lon="16.1627004"><ele>513.0</ele><time>2026-04-06T14:09:24.858Z</time></trkpt><trkpt lat="40.3925281" lon="16.1628967"><ele>513.0</ele><time>2026-04-06T14:09:25.857Z</time></trkpt><trkpt lat="40.3925542" lon="16.1630923"><ele>514.0</ele><time>2026-04-06T14:09:26.857Z</time></trkpt><trkpt lat="40.392568" lon="16.1632912"><ele>515.0</ele><time>2026-04-06T14:09:27.857Z</time></trkpt><trkpt lat="40.3925761" lon="16.1634908"><ele>516.0</ele><time>2026-04-06T14:09:28.857Z</time></trkpt><trkpt lat="40.3925771" lon="16.1636853"><ele>516.0</ele><time>2026-04-06T14:09:29.857Z</time></trkpt><trkpt lat="40.3925705" lon="16.163869"><ele>516.0</ele><time>2026-04-06T14:09:30.858Z</time></trkpt><trkpt lat="40.3925528" lon="16.1640392"><ele>516.0</ele><time>2026-04-06T14:09:31.857Z</time></trkpt><trkpt lat="40.3925202" lon="16.1641955"><ele>516.0</ele><time>2026-04-06T14:09:32.857Z</time></trkpt><trkpt lat="40.3924626" lon="16.1643313"><ele>518.4</ele><time>2026-04-06T14:09:33.857Z</time></trkpt><trkpt lat="40.392391" lon="16.1644495"><ele>520.8</ele><time>2026-04-06T14:09:34.857Z</time></trkpt><trkpt lat="40.3923294" lon="16.1645582"><ele>523.1999999999999</ele><time>2026-04-06T14:09:35.857Z</time></trkpt><trkpt lat="40.3922928" lon="16.1646744"><ele>525.6</ele><time>2026-04-06T14:09:36.857Z</time></trkpt><trkpt lat="40.3922767" lon="16.1647827"><ele>528.0</ele><time>2026-04-06T14:09:37.858Z</time></trkpt><trkpt lat="40.3922887" lon="16.1648927"><ele>529.0</ele><time>2026-04-06T14:09:38.857Z</time></trkpt><trkpt lat="40.3923499" lon="16.1649933"><ele>530.0</ele><time>2026-04-06T14:09:39.858Z</time></trkpt><trkpt lat="40.3924459" lon="16.1650676"><ele>531.0</ele><time>2026-04-06T14:09:40.857Z</time></trkpt><trkpt lat="40.3925599" lon="16.1651011"><ele>532.0</ele><time>2026-04-06T14:09:41.858Z</time></trkpt><trkpt lat="40.3926767" lon="16.1650914"><ele>533.0</ele><time>2026-04-06T14:09:42.857Z</time></trkpt><trkpt lat="40.3927842" lon="16.1650312"><ele>533.0</ele><time>2026-04-06T14:09:43.857Z</time></trkpt><trkpt lat="40.3928952" lon="16.1649361"><ele>533.0</ele><time>2026-04-06T14:09:44.857Z</time></trkpt><trkpt lat="40.3930036" lon="16.1648207"><ele>533.0</ele><time>2026-04-06T14:09:45.857Z</time></trkpt><trkpt lat="40.3931044" lon="16.1646863"><ele>533.0</ele><time>2026-04-06T14:09:46.857Z</time></trkpt><trkpt lat="40.3931752" lon="16.1645247"><ele>538.0</ele><time>2026-04-06T14:09:47.857Z</time></trkpt><trkpt lat="40.3932268" lon="16.1643341"><ele>543.0</ele><time>2026-04-06T14:09:48.857Z</time></trkpt><trkpt lat="40.3932785" lon="16.164121"><ele>548.0</ele><time>2026-04-06T14:09:49.858Z</time></trkpt><trkpt lat="40.3933335" lon="16.1639017"><ele>548.0</ele><time>2026-04-06T14:09:50.857Z</time></trkpt><trkpt lat="40.3933942" lon="16.1636863"><ele>548.0</ele><time>2026-04-06T14:09:51.857Z</time></trkpt><trkpt lat="40.3934592" lon="16.1634723"><ele>548.0</ele><time>2026-04-06T14:09:52.858Z</time></trkpt><trkpt lat="40.3935248" lon="16.1632609"><ele>549.0</ele><time>2026-04-06T14:09:53.857Z</time></trkpt><trkpt lat="40.3935892" lon="16.163053"><ele>550.0</ele><time>2026-04-06T14:09:54.858Z</time></trkpt><trkpt lat="40.3936388" lon="16.1628425"><ele>551.0</ele><time>2026-04-06T14:09:55.858Z</time></trkpt><trkpt lat="40.3936676" lon="16.1626325"><ele>551.0</ele><time>2026-04-06T14:09:56.857Z</time></trkpt><trkpt lat="40.3936929" lon="16.1624291"><ele>551.0</ele><time>2026-04-06T14:09:57.857Z</time></trkpt><trkpt lat="40.3937088" lon="16.1622381"><ele>551.0</ele><time>2026-04-06T14:09:58.857Z</time></trkpt><trkpt lat="40.3937361" lon="16.1620553"><ele>551.0</ele><time>2026-04-06T14:09:59.858Z</time></trkpt><trkpt lat="40.3937745" lon="16.1618773"><ele>552.0</ele><time>2026-04-06T14:10:00.857Z</time></trkpt><trkpt lat="40.3938321" lon="16.1617021"><ele>553.0</ele><time>2026-04-06T14:10:01.857Z</time></trkpt><trkpt lat="40.3939156" lon="16.1615379"><ele>554.0</ele><time>2026-04-06T14:10:02.857Z</time></trkpt><trkpt lat="40.3940064" lon="16.1613889"><ele>555.0</ele><time>2026-04-06T14:10:03.857Z</time></trkpt><trkpt lat="40.3941211" lon="16.1612533"><ele>557.3333333333334</ele><time>2026-04-06T14:10:04.857Z</time></trkpt><trkpt lat="40.3942585" lon="16.1611349"><ele>559.6666666666667</ele><time>2026-04-06T14:10:05.857Z</time></trkpt><trkpt lat="40.3944073" lon="16.1610301"><ele>562.0</ele><time>2026-04-06T14:10:06.858Z</time></trkpt><trkpt lat="40.3945676" lon="16.1609629"><ele>566.0</ele><time>2026-04-06T14:10:07.857Z</time></trkpt><trkpt lat="40.3947209" lon="16.1609254"><ele>570.0</ele><time>2026-04-06T14:10:08.857Z</time></trkpt><trkpt lat="40.3948797" lon="16.1609052"><ele>574.0</ele><time>2026-04-06T14:10:09.857Z</time></trkpt><trkpt lat="40.3950292" lon="16.1609035"><ele>574.0</ele><time>2026-04-06T14:10:10.857Z</time></trkpt><trkpt lat="40.3951606" lon="16.1609154"><ele>574.0</ele><time>2026-04-06T14:10:11.857Z</time></trkpt><trkpt lat="40.3952659" lon="16.1609504"><ele>574.0</ele><time>2026-04-06T14:10:12.858Z</time></trkpt><trkpt lat="40.3953572" lon="16.1610196"><ele>574.0</ele><time>2026-04-06T14:10:13.857Z</time></trkpt><trkpt lat="40.3954219" lon="16.161111"><ele>574.0</ele><time>2026-04-06T14:10:14.857Z</time></trkpt><trkpt lat="40.3954724" lon="16.1612319"><ele>573.25</ele><time>2026-04-06T14:10:15.857Z</time></trkpt><trkpt lat="40.3955259" lon="16.1613734"><ele>572.5</ele><time>2026-04-06T14:10:16.857Z</time></trkpt><trkpt lat="40.3955855" lon="16.1615108"><ele>571.75</ele><time>2026-04-06T14:10:17.858Z</time></trkpt><trkpt lat="40.3956533" lon="16.161648"><ele>571.0</ele><time>2026-04-06T14:10:18.858Z</time></trkpt><trkpt lat="40.3957283" lon="16.1617722"><ele>575.25</ele><time>2026-04-06T14:10:19.857Z</time></trkpt><trkpt lat="40.3958095" lon="16.1618823"><ele>579.5</ele><time>2026-04-06T14:10:20.857Z</time></trkpt><trkpt lat="40.3958959" lon="16.1619825"><ele>583.75</ele><time>2026-04-06T14:10:21.857Z</time></trkpt><trkpt lat="40.3959794" lon="16.1620786"><ele>588.0</ele><time>2026-04-06T14:10:22.857Z</time></trkpt><trkpt lat="40.3960613" lon="16.1621788"><ele>588.0</ele><time>2026-04-06T14:10:23.858Z</time></trkpt><trkpt lat="40.3961391" lon="16.162278"><ele>588.0</ele><time>2026-04-06T14:10:24.857Z</time></trkpt><trkpt lat="40.3962134" lon="16.1623763"><ele>588.0</ele><time>2026-04-06T14:10:25.857Z</time></trkpt><trkpt lat="40.3962792" lon="16.162468"><ele>588.0</ele><time>2026-04-06T14:10:26.857Z</time></trkpt><trkpt lat="40.3963207" lon="16.1625514"><ele>588.0</ele><time>2026-04-06T14:10:27.857Z</time></trkpt><trkpt lat="40.3963298" lon="16.1626678"><ele>589.6</ele><time>2026-04-06T14:10:29.857Z</time></trkpt><trkpt lat="40.3962712" lon="16.1627608"><ele>591.1999999999999</ele><time>2026-04-06T14:10:31.857Z</time></trkpt><trkpt lat="40.3962208" lon="16.162814"><ele>592.8</ele><time>2026-04-06T14:10:32.857Z</time></trkpt><trkpt lat="40.3961495" lon="16.1628725"><ele>594.4</ele><time>2026-04-06T14:10:33.858Z</time></trkpt><trkpt lat="40.3960604" lon="16.1629264"><ele>596.0</ele><time>2026-04-06T14:10:34.857Z</time></trkpt><trkpt lat="40.3959498" lon="16.1629832"><ele>596.0</ele><time>2026-04-06T14:10:35.857Z</time></trkpt><trkpt lat="40.3958372" lon="16.1630475"><ele>596.0</ele><time>2026-04-06T14:10:36.857Z</time></trkpt><trkpt lat="40.3957321" lon="16.163115"><ele>596.0</ele><time>2026-04-06T14:10:37.857Z</time></trkpt><trkpt lat="40.3956465" lon="16.1631999"><ele>596.0</ele><time>2026-04-06T14:10:38.858Z</time></trkpt><trkpt lat="40.3955901" lon="16.1633136"><ele>597.5</ele><time>2026-04-06T14:10:39.858Z</time></trkpt><trkpt lat="40.3955592" lon="16.1634591"><ele>599.0</ele><time>2026-04-06T14:10:40.858Z</time></trkpt><trkpt lat="40.3955417" lon="16.1636222"><ele>600.5</ele><time>2026-04-06T14:10:41.858Z</time></trkpt><trkpt lat="40.3955314" lon="16.1637942"><ele>602.0</ele><time>2026-04-06T14:10:42.857Z</time></trkpt><trkpt lat="40.3955255" lon="16.1639672"><ele>603.75</ele><time>2026-04-06T14:10:43.858Z</time></trkpt><trkpt lat="40.3955279" lon="16.164144"><ele>605.5</ele><time>2026-04-06T14:10:44.857Z</time></trkpt><trkpt lat="40.39555" lon="16.1643313"><ele>607.25</ele><time>2026-04-06T14:10:45.857Z</time></trkpt><trkpt lat="40.3955878" lon="16.1645219"><ele>609.0</ele><time>2026-04-06T14:10:46.858Z</time></trkpt><trkpt lat="40.3956244" lon="16.1647169"><ele>610.3333333333334</ele><time>2026-04-06T14:10:47.857Z</time></trkpt><trkpt lat="40.3956594" lon="16.1649131"><ele>611.6666666666667</ele><time>2026-04-06T14:10:48.857Z</time></trkpt><trkpt lat="40.395697" lon="16.165109"><ele>613.0</ele><time>2026-04-06T14:10:49.857Z</time></trkpt><trkpt lat="40.3957394" lon="16.1653006"><ele>613.0</ele><time>2026-04-06T14:10:50.857Z</time></trkpt><trkpt lat="40.3957809" lon="16.1654932"><ele>613.0</ele><time>2026-04-06T14:10:51.857Z</time></trkpt><trkpt lat="40.3958248" lon="16.1656809"><ele>613.0</ele><time>2026-04-06T14:10:52.857Z</time></trkpt><trkpt lat="40.3958644" lon="16.1658657"><ele>613.0</ele><time>2026-04-06T14:10:53.857Z</time></trkpt><trkpt lat="40.395903" lon="16.166046"><ele>613.75</ele><time>2026-04-06T14:10:54.857Z</time></trkpt><trkpt lat="40.3959406" lon="16.1662149"><ele>614.5</ele><time>2026-04-06T14:10:55.857Z</time></trkpt><trkpt lat="40.3959871" lon="16.1663778"><ele>615.25</ele><time>2026-04-06T14:10:56.857Z</time></trkpt><trkpt lat="40.3960498" lon="16.1665301"><ele>616.0</ele><time>2026-04-06T14:10:57.858Z</time></trkpt><trkpt lat="40.3961327" lon="16.1666706"><ele>616.25</ele><time>2026-04-06T14:10:58.857Z</time></trkpt><trkpt lat="40.3962347" lon="16.1667914"><ele>616.5</ele><time>2026-04-06T14:10:59.857Z</time></trkpt><trkpt lat="40.3963309" lon="16.1668992"><ele>616.75</ele><time>2026-04-06T14:11:00.857Z</time></trkpt><trkpt lat="40.3964163" lon="16.1670141"><ele>617.0</ele><time>2026-04-06T14:11:01.857Z</time></trkpt><trkpt lat="40.3964912" lon="16.1671324"><ele>618.75</ele><time>2026-04-06T14:11:02.857Z</time></trkpt><trkpt lat="40.3965503" lon="16.1672728"><ele>620.5</ele><time>2026-04-06T14:11:03.857Z</time></trkpt><trkpt lat="40.3965806" lon="16.1674394"><ele>622.25</ele><time>2026-04-06T14:11:04.857Z</time></trkpt><trkpt lat="40.3965992" lon="16.1676175"><ele>624.0</ele><time>2026-04-06T14:11:05.858Z</time></trkpt><trkpt lat="40.3966166" lon="16.1678048"><ele>624.25</ele><time>2026-04-06T14:11:06.858Z</time></trkpt><trkpt lat="40.3966359" lon="16.1679884"><ele>624.5</ele><time>2026-04-06T14:11:07.857Z</time></trkpt><trkpt lat="40.3966517" lon="16.1681688"><ele>624.75</ele><time>2026-04-06T14:11:08.857Z</time></trkpt><trkpt lat="40.3966573" lon="16.1683488"><ele>625.0</ele><time>2026-04-06T14:11:09.857Z</time></trkpt><trkpt lat="40.3966484" lon="16.1685337"><ele>626.25</ele><time>2026-04-06T14:11:10.857Z</time></trkpt><trkpt lat="40.3966213" lon="16.1687123"><ele>627.5</ele><time>2026-04-06T14:11:11.857Z</time></trkpt><trkpt lat="40.3965696" lon="16.1688833"><ele>628.75</ele><time>2026-04-06T14:11:12.857Z</time></trkpt><trkpt lat="40.3965047" lon="16.1690535"><ele>630.0</ele><time>2026-04-06T14:11:13.857Z</time></trkpt><trkpt lat="40.3964373" lon="16.1692315"><ele>632.0</ele><time>2026-04-06T14:11:14.858Z</time></trkpt><trkpt lat="40.3963738" lon="16.1694116"><ele>634.0</ele><time>2026-04-06T14:11:15.858Z</time></trkpt><trkpt lat="40.3963169" lon="16.1695961"><ele>636.0</ele><time>2026-04-06T14:11:16.857Z</time></trkpt><trkpt lat="40.3962684" lon="16.1697856"><ele>633.25</ele><time>2026-04-06T14:11:17.857Z</time></trkpt><trkpt lat="40.3962224" lon="16.1699784"><ele>630.5</ele><time>2026-04-06T14:11:18.858Z</time></trkpt><trkpt lat="40.396174" lon="16.1701649"><ele>627.75</ele><time>2026-04-06T14:11:19.857Z</time></trkpt><trkpt lat="40.39612" lon="16.1703363"><ele>625.0</ele><time>2026-04-06T14:11:20.857Z</time></trkpt><trkpt lat="40.3960566" lon="16.1704807"><ele>625.0</ele><time>2026-04-06T14:11:21.857Z</time></trkpt><trkpt lat="40.3959951" lon="16.1705903"><ele>625.0</ele><time>2026-04-06T14:11:22.857Z</time></trkpt><trkpt lat="40.3959371" lon="16.1706839"><ele>625.0</ele><time>2026-04-06T14:11:23.857Z</time></trkpt><trkpt lat="40.3958803" lon="16.1707731"><ele>625.0</ele><time>2026-04-06T14:11:24.857Z</time></trkpt><trkpt lat="40.3958276" lon="16.1708746"><ele>625.0</ele><time>2026-04-06T14:11:25.857Z</time></trkpt><trkpt lat="40.395775" lon="16.1709828"><ele>626.2</ele><time>2026-04-06T14:11:26.857Z</time></trkpt><trkpt lat="40.3957205" lon="16.1710848"><ele>627.4</ele><time>2026-04-06T14:11:27.858Z</time></trkpt><trkpt lat="40.3956607" lon="16.1711743"><ele>628.6</ele><time>2026-04-06T14:11:28.857Z</time></trkpt><trkpt lat="40.3955889" lon="16.1712584"><ele>629.8</ele><time>2026-04-06T14:11:29.857Z</time></trkpt><trkpt lat="40.3955079" lon="16.1713359"><ele>631.0</ele><time>2026-04-06T14:11:30.857Z</time></trkpt><trkpt lat="40.3954294" lon="16.1714114"><ele>631.0</ele><time>2026-04-06T14:11:31.857Z</time></trkpt><trkpt lat="40.3953631" lon="16.1714937"><ele>631.0</ele><time>2026-04-06T14:11:32.858Z</time></trkpt><trkpt lat="40.3953112" lon="16.1715787"><ele>631.0</ele><time>2026-04-06T14:11:33.857Z</time></trkpt><trkpt lat="40.3952946" lon="16.1716707"><ele>631.0</ele><time>2026-04-06T14:11:34.857Z</time></trkpt><trkpt lat="40.3953094" lon="16.1717601"><ele>631.0</ele><time>2026-04-06T14:11:35.857Z</time></trkpt><trkpt lat="40.3953515" lon="16.1718279"><ele>631.0</ele><time>2026-04-06T14:11:36.858Z</time></trkpt><trkpt lat="40.3954221" lon="16.1718731"><ele>634.5</ele><time>2026-04-06T14:11:37.857Z</time></trkpt><trkpt lat="40.3955142" lon="16.1719006"><ele>638.0</ele><time>2026-04-06T14:11:38.857Z</time></trkpt><trkpt lat="40.3956059" lon="16.1719324"><ele>641.5</ele><time>2026-04-06T14:11:39.857Z</time></trkpt><trkpt lat="40.3956857" lon="16.1719791"><ele>645.0</ele><time>2026-04-06T14:11:40.857Z</time></trkpt><trkpt lat="40.3957274" lon="16.1720526"><ele>648.5</ele><time>2026-04-06T14:11:41.858Z</time></trkpt><trkpt lat="40.3957331" lon="16.172136"><ele>652.0</ele><time>2026-04-06T14:11:42.857Z</time></trkpt><trkpt lat="40.3956517" lon="16.1722528"><ele>652.0</ele><time>2026-04-06T14:11:44.857Z</time></trkpt><trkpt lat="40.3955807" lon="16.1722743"><ele>652.0</ele><time>2026-04-06T14:11:45.857Z</time></trkpt><trkpt lat="40.3954912" lon="16.1722618"><ele>652.0</ele><time>2026-04-06T14:11:46.857Z</time></trkpt><trkpt lat="40.3953975" lon="16.17223"><ele>652.0</ele><time>2026-04-06T14:11:47.857Z</time></trkpt><trkpt lat="40.3953127" lon="16.1721944"><ele>652.0</ele><time>2026-04-06T14:11:48.857Z</time></trkpt><trkpt lat="40.3952341" lon="16.1721659"><ele>652.0</ele><time>2026-04-06T14:11:49.857Z</time></trkpt><trkpt lat="40.3951494" lon="16.1721444"><ele>650.6</ele><time>2026-04-06T14:11:50.857Z</time></trkpt><trkpt lat="40.3950734" lon="16.1721543"><ele>649.2</ele><time>2026-04-06T14:11:51.857Z</time></trkpt><trkpt lat="40.3950152" lon="16.1721918"><ele>647.8</ele><time>2026-04-06T14:11:52.857Z</time></trkpt><trkpt lat="40.3949799" lon="16.1723172"><ele>646.4</ele><time>2026-04-06T14:11:54.857Z</time></trkpt><trkpt lat="40.3950569" lon="16.1724602"><ele>645.0</ele><time>2026-04-06T14:11:56.857Z</time></trkpt><trkpt lat="40.3951159" lon="16.1725235"><ele>647.6666666666666</ele><time>2026-04-06T14:11:57.857Z</time></trkpt><trkpt lat="40.3951692" lon="16.172579"><ele>650.3333333333334</ele><time>2026-04-06T14:11:58.857Z</time></trkpt><trkpt lat="40.3952324" lon="16.1726609"><ele>653.0</ele><time>2026-04-06T14:12:00.858Z</time></trkpt><trkpt lat="40.3953136" lon="16.172744"><ele>655.6666666666667</ele><time>2026-04-06T14:12:02.857Z</time></trkpt><trkpt lat="40.3953784" lon="16.1727817"><ele>658.3333333333334</ele><time>2026-04-06T14:12:03.857Z</time></trkpt><trkpt lat="40.3954565" lon="16.1728141"><ele>661.0</ele><time>2026-04-06T14:12:04.858Z</time></trkpt><trkpt lat="40.3955423" lon="16.1728424"><ele>661.4</ele><time>2026-04-06T14:12:05.857Z</time></trkpt><trkpt lat="40.3956369" lon="16.1728673"><ele>661.8</ele><time>2026-04-06T14:12:06.857Z</time></trkpt><trkpt lat="40.3957346" lon="16.1728876"><ele>662.1999999999999</ele><time>2026-04-06T14:12:07.857Z</time></trkpt><trkpt lat="40.3958309" lon="16.1729027"><ele>662.5999999999999</ele><time>2026-04-06T14:12:08.858Z</time></trkpt><trkpt lat="40.3959241" lon="16.1729129"><ele>663.0</ele><time>2026-04-06T14:12:09.858Z</time></trkpt><trkpt lat="40.396019" lon="16.1729191"><ele>663.0</ele><time>2026-04-06T14:12:10.857Z</time></trkpt><trkpt lat="40.3961172" lon="16.1729192"><ele>663.0</ele><time>2026-04-06T14:12:11.857Z</time></trkpt><trkpt lat="40.3962175" lon="16.1729125"><ele>663.0</ele><time>2026-04-06T14:12:12.857Z</time></trkpt><trkpt lat="40.3963246" lon="16.1728987"><ele>663.0</ele><time>2026-04-06T14:12:13.857Z</time></trkpt><trkpt lat="40.3964375" lon="16.1728814"><ele>663.0</ele><time>2026-04-06T14:12:14.857Z</time></trkpt><trkpt lat="40.3965509" lon="16.1728588"><ele>665.5</ele><time>2026-04-06T14:12:15.857Z</time></trkpt><trkpt lat="40.3966651" lon="16.1728306"><ele>668.0</ele><time>2026-04-06T14:12:16.857Z</time></trkpt><trkpt lat="40.3967891" lon="16.1727937"><ele>670.5</ele><time>2026-04-06T14:12:17.857Z</time></trkpt><trkpt lat="40.3969147" lon="16.1727613"><ele>673.0</ele><time>2026-04-06T14:12:18.857Z</time></trkpt><trkpt lat="40.397045" lon="16.1727316"><ele>674.75</ele><time>2026-04-06T14:12:19.857Z</time></trkpt><trkpt lat="40.3971752" lon="16.1727017"><ele>676.5</ele><time>2026-04-06T14:12:20.857Z</time></trkpt><trkpt lat="40.3973004" lon="16.1726657"><ele>678.25</ele><time>2026-04-06T14:12:21.857Z</time></trkpt><trkpt lat="40.3974234" lon="16.1726317"><ele>680.0</ele><time>2026-04-06T14:12:22.857Z</time></trkpt><trkpt lat="40.3975473" lon="16.1725978"><ele>680.0</ele><time>2026-04-06T14:12:23.857Z</time></trkpt><trkpt lat="40.397675" lon="16.1725628"><ele>680.0</ele><time>2026-04-06T14:12:24.858Z</time></trkpt><trkpt lat="40.3978049" lon="16.1725236"><ele>680.0</ele><time>2026-04-06T14:12:25.857Z</time></trkpt><trkpt lat="40.397933" lon="16.1724889"><ele>680.0</ele><time>2026-04-06T14:12:26.857Z</time></trkpt><trkpt lat="40.3980628" lon="16.1724602"><ele>682.5</ele><time>2026-04-06T14:12:27.857Z</time></trkpt><trkpt lat="40.398194" lon="16.1724295"><ele>685.0</ele><time>2026-04-06T14:12:28.857Z</time></trkpt><trkpt lat="40.3983249" lon="16.172387"><ele>687.5</ele><time>2026-04-06T14:12:29.857Z</time></trkpt><trkpt lat="40.3984642" lon="16.1723424"><ele>690.0</ele><time>2026-04-06T14:12:30.857Z</time></trkpt><trkpt lat="40.3986044" lon="16.1722961"><ele>691.25</ele><time>2026-04-06T14:12:31.857Z</time></trkpt><trkpt lat="40.398746" lon="16.1722411"><ele>692.5</ele><time>2026-04-06T14:12:32.857Z</time></trkpt><trkpt lat="40.3988853" lon="16.1721795"><ele>693.75</ele><time>2026-04-06T14:12:33.857Z</time></trkpt><trkpt lat="40.3990226" lon="16.1721216"><ele>695.0</ele><time>2026-04-06T14:12:34.857Z</time></trkpt><trkpt lat="40.3991705" lon="16.1720659"><ele>700.3333333333333</ele><time>2026-04-06T14:12:35.857Z</time></trkpt><trkpt lat="40.3993215" lon="16.1720057"><ele>705.6666666666666</ele><time>2026-04-06T14:12:36.858Z</time></trkpt><trkpt lat="40.3994708" lon="16.1719467"><ele>711.0</ele><time>2026-04-06T14:12:37.857Z</time></trkpt><trkpt lat="40.3996209" lon="16.1718818"><ele>715.3333333333334</ele><time>2026-04-06T14:12:38.858Z</time></trkpt><trkpt lat="40.3997687" lon="16.1718166"><ele>719.6666666666667</ele><time>2026-04-06T14:12:39.857Z</time></trkpt><trkpt lat="40.3999215" lon="16.1717515"><ele>724.0</ele><time>2026-04-06T14:12:40.858Z</time></trkpt><trkpt lat="40.4000677" lon="16.1716895"><ele>724.0</ele><time>2026-04-06T14:12:41.857Z</time></trkpt><trkpt lat="40.4002145" lon="16.1716272"><ele>724.0</ele><time>2026-04-06T14:12:42.857Z</time></trkpt><trkpt lat="40.4031717" lon="16.1673867"><ele>734.6666666666667</ele><time>2026-04-06T14:13:06.867Z</time></trkpt><trkpt lat="40.4032603" lon="16.1672042"><ele>745.3333333333334</ele><time>2026-04-06T14:13:07.867Z</time></trkpt><trkpt lat="40.4032798" lon="16.1669659"><ele>756.0</ele><time>2026-04-06T14:13:08.867Z</time></trkpt><trkpt lat="40.4032772" lon="16.1667595"><ele>756.0</ele><time>2026-04-06T14:13:09.866Z</time></trkpt><trkpt lat="40.4032665" lon="16.1665732"><ele>756.0</ele><time>2026-04-06T14:13:10.866Z</time></trkpt><trkpt lat="40.4032705" lon="16.1663923"><ele>756.0</ele><time>2026-04-06T14:13:11.867Z</time></trkpt><trkpt lat="40.4032969" lon="16.1662112"><ele>756.0</ele><time>2026-04-06T14:13:12.866Z</time></trkpt><trkpt lat="40.4033478" lon="16.166026"><ele>756.0</ele><time>2026-04-06T14:13:13.866Z</time></trkpt><trkpt lat="40.4034086" lon="16.1658409"><ele>756.0</ele><time>2026-04-06T14:13:14.866Z</time></trkpt><trkpt lat="40.4034733" lon="16.1656596"><ele>756.0</ele><time>2026-04-06T14:13:15.866Z</time></trkpt><trkpt lat="40.4035299" lon="16.1654716"><ele>754.6666666666666</ele><time>2026-04-06T14:13:16.866Z</time></trkpt><trkpt lat="40.4035704" lon="16.1652663"><ele>753.3333333333333</ele><time>2026-04-06T14:13:17.866Z</time></trkpt><trkpt lat="40.403592" lon="16.1650567"><ele>752.0</ele><time>2026-04-06T14:13:18.866Z</time></trkpt><trkpt lat="40.4036173" lon="16.1648476"><ele>752.0</ele><time>2026-04-06T14:13:19.866Z</time></trkpt><trkpt lat="40.4036512" lon="16.164633"><ele>752.0</ele><time>2026-04-06T14:13:20.866Z</time></trkpt><trkpt lat="40.4036954" lon="16.1644171"><ele>752.0</ele><time>2026-04-06T14:13:21.866Z</time></trkpt><trkpt lat="40.4037456" lon="16.1642083"><ele>752.75</ele><time>2026-04-06T14:13:22.866Z</time></trkpt><trkpt lat="40.4037883" lon="16.164025"><ele>753.5</ele><time>2026-04-06T14:13:23.866Z</time></trkpt><trkpt lat="40.4038054" lon="16.1638669"><ele>754.25</ele><time>2026-04-06T14:13:24.866Z</time></trkpt><trkpt lat="40.4037899" lon="16.1637146"><ele>755.0</ele><time>2026-04-06T14:13:25.866Z</time></trkpt><trkpt lat="40.4037538" lon="16.1635481"><ele>755.0</ele><time>2026-04-06T14:13:26.866Z</time></trkpt><trkpt lat="40.4037126" lon="16.1633734"><ele>755.0</ele><time>2026-04-06T14:13:27.866Z</time></trkpt><trkpt lat="40.403686" lon="16.1631857"><ele>755.0</ele><time>2026-04-06T14:13:28.866Z</time></trkpt><trkpt lat="40.4036753" lon="16.1629896"><ele>755.0</ele><time>2026-04-06T14:13:29.866Z</time></trkpt><trkpt lat="40.4036788" lon="16.1627885"><ele>754.75</ele><time>2026-04-06T14:13:30.867Z</time></trkpt><trkpt lat="40.4036917" lon="16.1625968"><ele>754.5</ele><time>2026-04-06T14:13:31.866Z</time></trkpt><trkpt lat="40.403723" lon="16.1624159"><ele>754.25</ele><time>2026-04-06T14:13:32.867Z</time></trkpt><trkpt lat="40.4037705" lon="16.1622571"><ele>754.0</ele><time>2026-04-06T14:13:33.866Z</time></trkpt><trkpt lat="40.4038304" lon="16.1621199"><ele>758.0</ele><time>2026-04-06T14:13:34.866Z</time></trkpt><trkpt lat="40.4039066" lon="16.1620109"><ele>762.0</ele><time>2026-04-06T14:13:35.867Z</time></trkpt><trkpt lat="40.4039991" lon="16.1619338"><ele>766.0</ele><time>2026-04-06T14:13:36.866Z</time></trkpt><trkpt lat="40.4041043" lon="16.1618846"><ele>770.0</ele><time>2026-04-06T14:13:37.866Z</time></trkpt><trkpt lat="40.4042241" lon="16.1618689"><ele>770.0</ele><time>2026-04-06T14:13:38.866Z</time></trkpt><trkpt lat="40.4043609" lon="16.1618677"><ele>770.0</ele><time>2026-04-06T14:13:39.866Z</time></trkpt><trkpt lat="40.4045113" lon="16.161876"><ele>770.0</ele><time>2026-04-06T14:13:40.866Z</time></trkpt><trkpt lat="40.4046716" lon="16.161904"><ele>770.0</ele><time>2026-04-06T14:13:41.866Z</time></trkpt><trkpt lat="40.4048326" lon="16.1619609"><ele>771.6666666666667</ele><time>2026-04-06T14:13:42.866Z</time></trkpt><trkpt lat="40.4049923" lon="16.1620438"><ele>773.3333333333333</ele><time>2026-04-06T14:13:43.866Z</time></trkpt><trkpt lat="40.405149" lon="16.1621389"><ele>775.0</ele><time>2026-04-06T14:13:44.866Z</time></trkpt><trkpt lat="40.4053075" lon="16.1622341"><ele>775.0</ele><time>2026-04-06T14:13:45.867Z</time></trkpt><trkpt lat="40.4054651" lon="16.1623156"><ele>775.0</ele><time>2026-04-06T14:13:46.866Z</time></trkpt><trkpt lat="40.4056233" lon="16.162372"><ele>775.0</ele><time>2026-04-06T14:13:47.866Z</time></trkpt><trkpt lat="40.4057801" lon="16.1624061"><ele>773.25</ele><time>2026-04-06T14:13:48.866Z</time></trkpt><trkpt lat="40.4059283" lon="16.1624129"><ele>771.5</ele><time>2026-04-06T14:13:49.867Z</time></trkpt><trkpt lat="40.4060555" lon="16.1623823"><ele>769.75</ele><time>2026-04-06T14:13:50.866Z</time></trkpt><trkpt lat="40.4061524" lon="16.1623172"><ele>768.0</ele><time>2026-04-06T14:13:51.866Z</time></trkpt><trkpt lat="40.4062281" lon="16.1622548"><ele>768.0</ele><time>2026-04-06T14:13:52.866Z</time></trkpt><trkpt lat="40.4062901" lon="16.1622125"><ele>768.0</ele><time>2026-04-06T14:13:53.866Z</time></trkpt><trkpt lat="40.4063613" lon="16.162144"><ele>768.0</ele><time>2026-04-06T14:13:56.866Z</time></trkpt><trkpt lat="40.4064427" lon="16.1620924"><ele>768.0</ele><time>2026-04-06T14:13:58.866Z</time></trkpt><trkpt lat="40.4065379" lon="16.1620875"><ele>768.0</ele><time>2026-04-06T14:14:00.866Z</time></trkpt><trkpt lat="40.4066264" lon="16.1621601"><ele>768.0</ele><time>2026-04-06T14:14:02.866Z</time></trkpt><trkpt lat="40.4066785" lon="16.1623035"><ele>773.1666666666666</ele><time>2026-04-06T14:14:04.866Z</time></trkpt><trkpt lat="40.4067036" lon="16.1623867"><ele>778.3333333333333</ele><time>2026-04-06T14:14:05.866Z</time></trkpt><trkpt lat="40.4067406" lon="16.1624669"><ele>783.5</ele><time>2026-04-06T14:14:06.867Z</time></trkpt><trkpt lat="40.4067889" lon="16.1625382"><ele>788.6666666666666</ele><time>2026-04-06T14:14:07.866Z</time></trkpt><trkpt lat="40.4068469" lon="16.1626056"><ele>793.8333333333333</ele><time>2026-04-06T14:14:08.867Z</time></trkpt><trkpt lat="40.4069108" lon="16.1626735"><ele>799.0</ele><time>2026-04-06T14:14:09.866Z</time></trkpt><trkpt lat="40.4069822" lon="16.1627389"><ele>799.0</ele><time>2026-04-06T14:14:10.867Z</time></trkpt><trkpt lat="40.4070647" lon="16.1627982"><ele>799.0</ele><time>2026-04-06T14:14:11.867Z</time></trkpt><trkpt lat="40.4071523" lon="16.1628544"><ele>799.0</ele><time>2026-04-06T14:14:12.867Z</time></trkpt><trkpt lat="40.4072386" lon="16.1629144"><ele>799.0</ele><time>2026-04-06T14:14:13.867Z</time></trkpt><trkpt lat="40.4073147" lon="16.1629805"><ele>799.0</ele><time>2026-04-06T14:14:14.866Z</time></trkpt><trkpt lat="40.4073773" lon="16.1630614"><ele>798.1666666666666</ele><time>2026-04-06T14:14:15.866Z</time></trkpt><trkpt lat="40.4074353" lon="16.1631499"><ele>797.3333333333333</ele><time>2026-04-06T14:14:16.866Z</time></trkpt><trkpt lat="40.4074873" lon="16.1632369"><ele>796.5</ele><time>2026-04-06T14:14:17.866Z</time></trkpt><trkpt lat="40.4075381" lon="16.1633144"><ele>795.6666666666667</ele><time>2026-04-06T14:14:18.866Z</time></trkpt><trkpt lat="40.4075855" lon="16.1633786"><ele>794.8333333333334</ele><time>2026-04-06T14:14:19.866Z</time></trkpt><trkpt lat="40.4076379" lon="16.1634352"><ele>794.0</ele><time>2026-04-06T14:14:20.866Z</time></trkpt><trkpt lat="40.4077252" lon="16.1634943"><ele>796.0</ele><time>2026-04-06T14:14:22.866Z</time></trkpt><trkpt lat="40.4078187" lon="16.1634761"><ele>798.0</ele><time>2026-04-06T14:14:24.866Z</time></trkpt><trkpt lat="40.4079238" lon="16.1633686"><ele>800.0</ele><time>2026-04-06T14:14:26.866Z</time></trkpt><trkpt lat="40.4079927" lon="16.1632923"><ele>802.0</ele><time>2026-04-06T14:14:27.866Z</time></trkpt><trkpt lat="40.4080839" lon="16.1632149"><ele>804.0</ele><time>2026-04-06T14:14:28.866Z</time></trkpt><trkpt lat="40.4081953" lon="16.1631441"><ele>804.0</ele><time>2026-04-06T14:14:29.866Z</time></trkpt><trkpt lat="40.4083168" lon="16.16308"><ele>804.0</ele><time>2026-04-06T14:14:30.867Z</time></trkpt><trkpt lat="40.4084459" lon="16.1630231"><ele>804.0</ele><time>2026-04-06T14:14:31.866Z</time></trkpt><trkpt lat="40.4085733" lon="16.1629704"><ele>804.0</ele><time>2026-04-06T14:14:32.866Z</time></trkpt><trkpt lat="40.408693" lon="16.1629272"><ele>804.0</ele><time>2026-04-06T14:14:33.867Z</time></trkpt><trkpt lat="40.4088011" lon="16.1628849"><ele>804.0</ele><time>2026-04-06T14:14:34.867Z</time></trkpt><trkpt lat="40.4089059" lon="16.1628367"><ele>804.0</ele><time>2026-04-06T14:14:35.866Z</time></trkpt><trkpt lat="40.4090072" lon="16.1627888"><ele>804.0</ele><time>2026-04-06T14:14:36.867Z</time></trkpt><trkpt lat="40.4091031" lon="16.1627365"><ele>804.0</ele><time>2026-04-06T14:14:37.866Z</time></trkpt><trkpt lat="40.4091978" lon="16.1626862"><ele>809.8000000000001</ele><time>2026-04-06T14:14:38.866Z</time></trkpt><trkpt lat="40.4092975" lon="16.162642"><ele>815.6</ele><time>2026-04-06T14:14:39.866Z</time></trkpt><trkpt lat="40.4094014" lon="16.1626113"><ele>821.4</ele><time>2026-04-06T14:14:40.866Z</time></trkpt><trkpt lat="40.4095042" lon="16.1625993"><ele>827.2</ele><time>2026-04-06T14:14:41.866Z</time></trkpt><trkpt lat="40.4096065" lon="16.1626029"><ele>833.0</ele><time>2026-04-06T14:14:42.866Z</time></trkpt><trkpt lat="40.4097086" lon="16.1626165"><ele>838.5</ele><time>2026-04-06T14:14:43.866Z</time></trkpt><trkpt lat="40.4098158" lon="16.1626316"><ele>844.0</ele><time>2026-04-06T14:14:44.866Z</time></trkpt><trkpt lat="40.4099301" lon="16.1626416"><ele>849.5</ele><time>2026-04-06T14:14:45.866Z</time></trkpt><trkpt lat="40.4100524" lon="16.1626432"><ele>855.0</ele><time>2026-04-06T14:14:46.867Z</time></trkpt><trkpt lat="40.4101788" lon="16.1626471"><ele>855.0</ele><time>2026-04-06T14:14:47.866Z</time></trkpt><trkpt lat="40.4103021" lon="16.1626633"><ele>855.0</ele><time>2026-04-06T14:14:48.866Z</time></trkpt><trkpt lat="40.4104219" lon="16.1626917"><ele>855.0</ele><time>2026-04-06T14:14:49.866Z</time></trkpt><trkpt lat="40.4105404" lon="16.1627199"><ele>855.0</ele><time>2026-04-06T14:14:50.866Z</time></trkpt><trkpt lat="40.4106622" lon="16.1627264"><ele>859.0</ele><time>2026-04-06T14:14:51.866Z</time></trkpt><trkpt lat="40.4107784" lon="16.1626959"><ele>863.0</ele><time>2026-04-06T14:14:52.867Z</time></trkpt><trkpt lat="40.4108822" lon="16.1626266"><ele>867.0</ele><time>2026-04-06T14:14:53.866Z</time></trkpt><trkpt lat="40.410979" lon="16.1625341"><ele>871.0</ele><time>2026-04-06T14:14:54.866Z</time></trkpt><trkpt lat="40.4110737" lon="16.1624189"><ele>874.75</ele><time>2026-04-06T14:14:55.866Z</time></trkpt><trkpt lat="40.4111607" lon="16.1623061"><ele>878.5</ele><time>2026-04-06T14:14:56.866Z</time></trkpt><trkpt lat="40.4112463" lon="16.1621954"><ele>882.25</ele><time>2026-04-06T14:14:57.866Z</time></trkpt><trkpt lat="40.4113254" lon="16.1620855"><ele>886.0</ele><time>2026-04-06T14:14:58.867Z</time></trkpt><trkpt lat="40.4114017" lon="16.1619748"><ele>885.9999999999999</ele><time>2026-04-06T14:14:59.866Z</time></trkpt><trkpt lat="40.4114722" lon="16.1618657"><ele>886.0</ele><time>2026-04-06T14:15:00.866Z</time></trkpt><trkpt lat="40.4115403" lon="16.1617674"><ele>886.0</ele><time>2026-04-06T14:15:01.866Z</time></trkpt><trkpt lat="40.4116034" lon="16.1616912"><ele>886.0</ele><time>2026-04-06T14:15:02.866Z</time></trkpt><trkpt lat="40.4116665" lon="16.1616394"><ele>885.9999999999999</ele><time>2026-04-06T14:15:03.866Z</time></trkpt><trkpt lat="40.4117269" lon="16.1616065"><ele>886.0</ele><time>2026-04-06T14:15:04.866Z</time></trkpt><trkpt lat="40.4118239" lon="16.1616087"><ele>886.0</ele><time>2026-04-06T14:15:06.866Z</time></trkpt><trkpt lat="40.4119058" lon="16.1616671"><ele>885.9999999999999</ele><time>2026-04-06T14:15:08.866Z</time></trkpt><trkpt lat="40.4120192" lon="16.1617681"><ele>885.9999999999999</ele><time>2026-04-06T14:15:10.866Z</time></trkpt><trkpt lat="40.4120863" lon="16.1618476"><ele>886.0</ele><time>2026-04-06T14:15:11.866Z</time></trkpt><trkpt lat="40.4121596" lon="16.1619489"><ele>886.0</ele><time>2026-04-06T14:15:12.866Z</time></trkpt><trkpt lat="40.4122366" lon="16.1620596"><ele>887.1999999999999</ele><time>2026-04-06T14:15:13.866Z</time></trkpt><trkpt lat="40.4123051" lon="16.1621714"><ele>888.3999999999999</ele><time>2026-04-06T14:15:14.867Z</time></trkpt><trkpt lat="40.4123654" lon="16.1622915"><ele>889.6</ele><time>2026-04-06T14:15:15.866Z</time></trkpt><trkpt lat="40.4124152" lon="16.1624213"><ele>890.8</ele><time>2026-04-06T14:15:16.866Z</time></trkpt><trkpt lat="40.4124611" lon="16.1625592"><ele>892.0</ele><time>2026-04-06T14:15:17.866Z</time></trkpt><trkpt lat="40.4125119" lon="16.1626972"><ele>893.0</ele><time>2026-04-06T14:15:18.867Z</time></trkpt><trkpt lat="40.4125739" lon="16.1628307"><ele>894.0</ele><time>2026-04-06T14:15:19.867Z</time></trkpt><trkpt lat="40.4126383" lon="16.1629602"><ele>895.0</ele><time>2026-04-06T14:15:20.866Z</time></trkpt><trkpt lat="40.4127065" lon="16.1630936"><ele>896.0</ele><time>2026-04-06T14:15:21.866Z</time></trkpt><trkpt lat="40.4127737" lon="16.1632238"><ele>896.5</ele><time>2026-04-06T14:15:22.866Z</time></trkpt><trkpt lat="40.4128555" lon="16.163342"><ele>897.0</ele><time>2026-04-06T14:15:23.867Z</time></trkpt><trkpt lat="40.4129513" lon="16.1634464"><ele>897.5</ele><time>2026-04-06T14:15:24.866Z</time></trkpt><trkpt lat="40.4130506" lon="16.1635428"><ele>898.0</ele><time>2026-04-06T14:15:25.866Z</time></trkpt><trkpt lat="40.4131425" lon="16.1636333"><ele>898.0</ele><time>2026-04-06T14:15:26.866Z</time></trkpt><trkpt lat="40.4132305" lon="16.1637226"><ele>898.0</ele><time>2026-04-06T14:15:27.867Z</time></trkpt><trkpt lat="40.4133159" lon="16.1638068"><ele>898.0</ele><time>2026-04-06T14:15:28.866Z</time></trkpt><trkpt lat="40.4133963" lon="16.1638922"><ele>898.0</ele><time>2026-04-06T14:15:29.866Z</time></trkpt><trkpt lat="40.4134698" lon="16.1639729"><ele>898.0</ele><time>2026-04-06T14:15:30.866Z</time></trkpt><trkpt lat="40.4135273" lon="16.1640442"><ele>899.4</ele><time>2026-04-06T14:15:31.867Z</time></trkpt><trkpt lat="40.4135878" lon="16.1641435"><ele>900.8</ele><time>2026-04-06T14:15:33.866Z</time></trkpt><trkpt lat="40.4136219" lon="16.1642237"><ele>902.2</ele><time>2026-04-06T14:15:35.866Z</time></trkpt><trkpt lat="40.4137245" lon="16.1643421"><ele>903.6</ele><time>2026-04-06T14:15:37.866Z</time></trkpt><trkpt lat="40.4138054" lon="16.1644034"><ele>905.0</ele><time>2026-04-06T14:15:38.866Z</time></trkpt><trkpt lat="40.4139034" lon="16.1644581"><ele>905.0</ele><time>2026-04-06T14:15:39.866Z</time></trkpt><trkpt lat="40.4140164" lon="16.1645014"><ele>905.0</ele><time>2026-04-06T14:15:40.867Z</time></trkpt><trkpt lat="40.4141339" lon="16.1645418"><ele>905.0</ele><time>2026-04-06T14:15:41.866Z</time></trkpt><trkpt lat="40.4142548" lon="16.1645624"><ele>905.0</ele><time>2026-04-06T14:15:42.867Z</time></trkpt><trkpt lat="40.4143829" lon="16.1645547"><ele>905.0</ele><time>2026-04-06T14:15:43.867Z</time></trkpt><trkpt lat="40.4145177" lon="16.1645303"><ele>905.0</ele><time>2026-04-06T14:15:44.866Z</time></trkpt><trkpt lat="40.4146613" lon="16.1645135"><ele>905.0</ele><time>2026-04-06T14:15:45.867Z</time></trkpt><trkpt lat="40.4148083" lon="16.1645156"><ele>905.0</ele><time>2026-04-06T14:15:46.866Z</time></trkpt><trkpt lat="40.4149548" lon="16.1645439"><ele>904.5</ele><time>2026-04-06T14:15:47.867Z</time></trkpt><trkpt lat="40.4150841" lon="16.1645917"><ele>904.0</ele><time>2026-04-06T14:15:48.867Z</time></trkpt><trkpt lat="40.4151965" lon="16.1646658"><ele>903.5</ele><time>2026-04-06T14:15:49.866Z</time></trkpt><trkpt lat="40.4152919" lon="16.1647681"><ele>903.0</ele><time>2026-04-06T14:15:50.866Z</time></trkpt><trkpt lat="40.4153648" lon="16.1649062"><ele>903.0</ele><time>2026-04-06T14:15:51.866Z</time></trkpt><trkpt lat="40.4154427" lon="16.1650795"><ele>903.0</ele><time>2026-04-06T14:15:52.866Z</time></trkpt><trkpt lat="40.4155306" lon="16.1652776"><ele>903.0</ele><time>2026-04-06T14:15:53.866Z</time></trkpt><trkpt lat="40.4156388" lon="16.1654891"><ele>903.0</ele><time>2026-04-06T14:15:54.866Z</time></trkpt><trkpt lat="40.4157655" lon="16.1656823"><ele>903.0</ele><time>2026-04-06T14:15:55.866Z</time></trkpt><trkpt lat="40.4159142" lon="16.1658421"><ele>903.0</ele><time>2026-04-06T14:15:56.866Z</time></trkpt><trkpt lat="40.416077" lon="16.1659743"><ele>904.6666666666667</ele><time>2026-04-06T14:15:57.866Z</time></trkpt><trkpt lat="40.4162508" lon="16.1660812"><ele>906.3333333333334</ele><time>2026-04-06T14:15:58.867Z</time></trkpt><trkpt lat="40.4164217" lon="16.1661812"><ele>908.0</ele><time>2026-04-06T14:15:59.866Z</time></trkpt><trkpt lat="40.4165785" lon="16.1662906"><ele>908.0</ele><time>2026-04-06T14:16:00.866Z</time></trkpt><trkpt lat="40.4167242" lon="16.1664106"><ele>908.0</ele><time>2026-04-06T14:16:01.866Z</time></trkpt><trkpt lat="40.4168419" lon="16.1665475"><ele>908.0</ele><time>2026-04-06T14:16:02.866Z</time></trkpt><trkpt lat="40.4169464" lon="16.1666586"><ele>908.5</ele><time>2026-04-06T14:16:03.866Z</time></trkpt><trkpt lat="40.4170583" lon="16.1667155"><ele>909.0</ele><time>2026-04-06T14:16:04.866Z</time></trkpt><trkpt lat="40.4171847" lon="16.1667282"><ele>909.5</ele><time>2026-04-06T14:16:05.866Z</time></trkpt><trkpt lat="40.417327" lon="16.1667192"><ele>910.0</ele><time>2026-04-06T14:16:06.866Z</time></trkpt><trkpt lat="40.41748" lon="16.1666974"><ele>910.0</ele><time>2026-04-06T14:16:07.866Z</time></trkpt><trkpt lat="40.4176339" lon="16.1666727"><ele>910.0</ele><time>2026-04-06T14:16:08.866Z</time></trkpt><trkpt lat="40.4177886" lon="16.1666522"><ele>910.0</ele><time>2026-04-06T14:16:09.867Z</time></trkpt><trkpt lat="40.4179337" lon="16.166646"><ele>909.5</ele><time>2026-04-06T14:16:10.866Z</time></trkpt><trkpt lat="40.4180655" lon="16.1666561"><ele>909.0</ele><time>2026-04-06T14:16:11.866Z</time></trkpt><trkpt lat="40.4181767" lon="16.1666913"><ele>908.5</ele><time>2026-04-06T14:16:12.866Z</time></trkpt><trkpt lat="40.4182674" lon="16.1667588"><ele>908.0</ele><time>2026-04-06T14:16:13.866Z</time></trkpt><trkpt lat="40.4183355" lon="16.1668625"><ele>908.0</ele><time>2026-04-06T14:16:14.866Z</time></trkpt><trkpt lat="40.4183717" lon="16.1670079"><ele>908.0</ele><time>2026-04-06T14:16:15.866Z</time></trkpt><trkpt lat="40.4184028" lon="16.1671807"><ele>908.0</ele><time>2026-04-06T14:16:16.867Z</time></trkpt><trkpt lat="40.4184486" lon="16.1673466"><ele>908.0</ele><time>2026-04-06T14:16:17.867Z</time></trkpt><trkpt lat="40.4185292" lon="16.1674908"><ele>908.0</ele><time>2026-04-06T14:16:18.866Z</time></trkpt><trkpt lat="40.4186453" lon="16.1676015"><ele>908.0</ele><time>2026-04-06T14:16:19.866Z</time></trkpt><trkpt lat="40.4187874" lon="16.1676929"><ele>908.0</ele><time>2026-04-06T14:16:20.866Z</time></trkpt><trkpt lat="40.4189575" lon="16.1677633"><ele>908.0</ele><time>2026-04-06T14:16:21.866Z</time></trkpt><trkpt lat="40.4191459" lon="16.1678292"><ele>908.0</ele><time>2026-04-06T14:16:22.866Z</time></trkpt><trkpt lat="40.4193398" lon="16.1678977"><ele>908.0</ele><time>2026-04-06T14:16:23.866Z</time></trkpt><trkpt lat="40.419533" lon="16.1679657"><ele>908.3333333333334</ele><time>2026-04-06T14:16:24.866Z</time></trkpt><trkpt lat="40.4197266" lon="16.1680359"><ele>908.6666666666667</ele><time>2026-04-06T14:16:25.866Z</time></trkpt><trkpt lat="40.4199164" lon="16.168107"><ele>909.0</ele><time>2026-04-06T14:16:26.866Z</time></trkpt><trkpt lat="40.420098" lon="16.1681775"><ele>911.6666666666667</ele><time>2026-04-06T14:16:27.866Z</time></trkpt><trkpt lat="40.4202688" lon="16.1682516"><ele>914.3333333333334</ele><time>2026-04-06T14:16:28.866Z</time></trkpt><trkpt lat="40.4204285" lon="16.1683294"><ele>917.0</ele><time>2026-04-06T14:16:29.867Z</time></trkpt><trkpt lat="40.4205733" lon="16.1684028"><ele>917.75</ele><time>2026-04-06T14:16:30.866Z</time></trkpt><trkpt lat="40.4207076" lon="16.168468"><ele>918.5</ele><time>2026-04-06T14:16:31.866Z</time></trkpt><trkpt lat="40.4208247" lon="16.1685317"><ele>919.25</ele><time>2026-04-06T14:16:32.866Z</time></trkpt><trkpt lat="40.4209214" lon="16.1685887"><ele>920.0</ele><time>2026-04-06T14:16:33.866Z</time></trkpt><trkpt lat="40.4209962" lon="16.1686306"><ele>920.0</ele><time>2026-04-06T14:16:34.866Z</time></trkpt><trkpt lat="40.4210628" lon="16.168648"><ele>920.0</ele><time>2026-04-06T14:16:35.866Z</time></trkpt><trkpt lat="40.421178" lon="16.1686021"><ele>920.0</ele><time>2026-04-06T14:16:37.867Z</time></trkpt><trkpt lat="40.421251" lon="16.1685506"><ele>920.0</ele><time>2026-04-06T14:16:38.866Z</time></trkpt><trkpt lat="40.4213385" lon="16.1684952"><ele>920.0</ele><time>2026-04-06T14:16:39.867Z</time></trkpt><trkpt lat="40.421441" lon="16.1684408"><ele>922.0</ele><time>2026-04-06T14:16:40.866Z</time></trkpt><trkpt lat="40.4215473" lon="16.1683862"><ele>924.0</ele><time>2026-04-06T14:16:41.866Z</time></trkpt><trkpt lat="40.4216627" lon="16.1683313"><ele>926.0</ele><time>2026-04-06T14:16:42.866Z</time></trkpt><trkpt lat="40.4217849" lon="16.1682696"><ele>928.0</ele><time>2026-04-06T14:16:43.866Z</time></trkpt><trkpt lat="40.4219028" lon="16.1682048"><ele>927.0</ele><time>2026-04-06T14:16:44.866Z</time></trkpt><trkpt lat="40.4220263" lon="16.1681365"><ele>926.0</ele><time>2026-04-06T14:16:45.866Z</time></trkpt><trkpt lat="40.4221568" lon="16.1680734"><ele>925.0</ele><time>2026-04-06T14:16:46.866Z</time></trkpt><trkpt lat="40.4222985" lon="16.1680033"><ele>924.0</ele><time>2026-04-06T14:16:47.866Z</time></trkpt><trkpt lat="40.4224405" lon="16.1679325"><ele>924.0</ele><time>2026-04-06T14:16:48.866Z</time></trkpt><trkpt lat="40.4225843" lon="16.1678596"><ele>924.0</ele><time>2026-04-06T14:16:49.866Z</time></trkpt><trkpt lat="40.4227257" lon="16.167787"><ele>924.0</ele><time>2026-04-06T14:16:50.866Z</time></trkpt><trkpt lat="40.4228712" lon="16.1677163"><ele>927.3333333333333</ele><time>2026-04-06T14:16:51.866Z</time></trkpt><trkpt lat="40.423019" lon="16.1676443"><ele>930.6666666666666</ele><time>2026-04-06T14:16:52.866Z</time></trkpt><trkpt lat="40.4231674" lon="16.1675725"><ele>934.0</ele><time>2026-04-06T14:16:53.866Z</time></trkpt><trkpt lat="40.4233134" lon="16.1675056"><ele>934.0</ele><time>2026-04-06T14:16:54.866Z</time></trkpt><trkpt lat="40.4234614" lon="16.1674352"><ele>934.0</ele><time>2026-04-06T14:16:55.867Z</time></trkpt><trkpt lat="40.4236135" lon="16.1673625"><ele>934.0</ele><time>2026-04-06T14:16:56.866Z</time></trkpt><trkpt lat="40.4237657" lon="16.1672868"><ele>934.0</ele><time>2026-04-06T14:16:57.866Z</time></trkpt><trkpt lat="40.4239124" lon="16.1672102"><ele>934.0</ele><time>2026-04-06T14:16:58.866Z</time></trkpt><trkpt lat="40.4240636" lon="16.1671359"><ele>934.0</ele><time>2026-04-06T14:16:59.866Z</time></trkpt><trkpt lat="40.4242088" lon="16.1670625"><ele>934.0</ele><time>2026-04-06T14:17:00.866Z</time></trkpt><trkpt lat="40.4243477" lon="16.1669908"><ele>934.0</ele><time>2026-04-06T14:17:01.866Z</time></trkpt><trkpt lat="40.4244842" lon="16.1669137"><ele>934.0</ele><time>2026-04-06T14:17:02.866Z</time></trkpt><trkpt lat="40.424607" lon="16.1668386"><ele>934.0</ele><time>2026-04-06T14:17:03.866Z</time></trkpt><trkpt lat="40.424723" lon="16.1667652"><ele>936.2</ele><time>2026-04-06T14:17:04.866Z</time></trkpt><trkpt lat="40.4248274" lon="16.1667062"><ele>938.4000000000001</ele><time>2026-04-06T14:17:05.866Z</time></trkpt><trkpt lat="40.4249229" lon="16.1666583"><ele>940.6</ele><time>2026-04-06T14:17:06.866Z</time></trkpt><trkpt lat="40.4250076" lon="16.1666081"><ele>942.8</ele><time>2026-04-06T14:17:07.867Z</time></trkpt><trkpt lat="40.4250769" lon="16.1665368"><ele>945.0</ele><time>2026-04-06T14:17:08.866Z</time></trkpt><trkpt lat="40.4251199" lon="16.1664431"><ele>945.0</ele><time>2026-04-06T14:17:09.867Z</time></trkpt><trkpt lat="40.4251422" lon="16.166338"><ele>945.0</ele><time>2026-04-06T14:17:10.866Z</time></trkpt><trkpt lat="40.4251383" lon="16.1662202"><ele>945.0</ele><time>2026-04-06T14:17:11.867Z</time></trkpt><trkpt lat="40.4251222" lon="16.1660853"><ele>945.0</ele><time>2026-04-06T14:17:12.867Z</time></trkpt><trkpt lat="40.4250925" lon="16.1659001"><ele>945.0</ele><time>2026-04-06T14:17:13.866Z</time></trkpt><trkpt lat="40.4250781" lon="16.1656827"><ele>945.6666666666667</ele><time>2026-04-06T14:17:14.866Z</time></trkpt><trkpt lat="40.4250849" lon="16.1654563"><ele>946.3333333333334</ele><time>2026-04-06T14:17:15.866Z</time></trkpt><trkpt lat="40.4251107" lon="16.1652424"><ele>947.0</ele><time>2026-04-06T14:17:16.867Z</time></trkpt><trkpt lat="40.4251501" lon="16.1650317"><ele>948.0</ele><time>2026-04-06T14:17:17.866Z</time></trkpt><trkpt lat="40.4251994" lon="16.1648356"><ele>949.0</ele><time>2026-04-06T14:17:18.866Z</time></trkpt><trkpt lat="40.4252512" lon="16.164653"><ele>950.0</ele><time>2026-04-06T14:17:19.866Z</time></trkpt><trkpt lat="40.4253038" lon="16.1644801"><ele>951.0</ele><time>2026-04-06T14:17:20.866Z</time></trkpt><trkpt lat="40.4253518" lon="16.1643204"><ele>951.0</ele><time>2026-04-06T14:17:21.867Z</time></trkpt><trkpt lat="40.4253911" lon="16.1641752"><ele>950.9999999999999</ele><time>2026-04-06T14:17:22.867Z</time></trkpt><trkpt lat="40.4254137" lon="16.1640462"><ele>950.9999999999999</ele><time>2026-04-06T14:17:23.866Z</time></trkpt><trkpt lat="40.4254338" lon="16.163923"><ele>951.0</ele><time>2026-04-06T14:17:24.866Z</time></trkpt><trkpt lat="40.4254572" lon="16.1638154"><ele>951.0</ele><time>2026-04-06T14:17:25.867Z</time></trkpt><trkpt lat="40.4254784" lon="16.1637251"><ele>954.0</ele><time>2026-04-06T14:17:26.866Z</time></trkpt><trkpt lat="40.4255104" lon="16.1636336"><ele>957.0</ele><time>2026-04-06T14:17:27.866Z</time></trkpt><trkpt lat="40.4255498" lon="16.1635511"><ele>960.0</ele><time>2026-04-06T14:17:28.866Z</time></trkpt><trkpt lat="40.4255954" lon="16.1634767"><ele>963.0</ele><time>2026-04-06T14:17:29.867Z</time></trkpt><trkpt lat="40.4256525" lon="16.1634168"><ele>966.0</ele><time>2026-04-06T14:17:30.867Z</time></trkpt><trkpt lat="40.4257176" lon="16.163365"><ele>969.0</ele><time>2026-04-06T14:17:31.866Z</time></trkpt><trkpt lat="40.4257894" lon="16.1633207"><ele>969.0</ele><time>2026-04-06T14:17:32.866Z</time></trkpt><trkpt lat="40.4258664" lon="16.1632802"><ele>969.0000000000001</ele><time>2026-04-06T14:17:33.866Z</time></trkpt><trkpt lat="40.4259531" lon="16.1632464"><ele>969.0000000000001</ele><time>2026-04-06T14:17:34.866Z</time></trkpt><trkpt lat="40.4260385" lon="16.163221"><ele>969.0</ele><time>2026-04-06T14:17:35.866Z</time></trkpt><trkpt lat="40.4261309" lon="16.1632103"><ele>969.0</ele><time>2026-04-06T14:17:36.866Z</time></trkpt><trkpt lat="40.4262377" lon="16.163212"><ele>970.25</ele><time>2026-04-06T14:17:37.866Z</time></trkpt><trkpt lat="40.4263622" lon="16.1632273"><ele>971.5</ele><time>2026-04-06T14:17:38.866Z</time></trkpt><trkpt lat="40.4264982" lon="16.163261"><ele>972.75</ele><time>2026-04-06T14:17:39.866Z</time></trkpt><trkpt lat="40.4266355" lon="16.1633126"><ele>974.0</ele><time>2026-04-06T14:17:40.866Z</time></trkpt><trkpt lat="40.4267736" lon="16.1633726"><ele>974.0</ele><time>2026-04-06T14:17:41.866Z</time></trkpt><trkpt lat="40.4269112" lon="16.16342"><ele>974.0</ele><time>2026-04-06T14:17:42.866Z</time></trkpt><trkpt lat="40.4270541" lon="16.1634425"><ele>974.0</ele><time>2026-04-06T14:17:43.867Z</time></trkpt><trkpt lat="40.4272061" lon="16.1634355"><ele>974.0</ele><time>2026-04-06T14:17:44.866Z</time></trkpt><trkpt lat="40.4273586" lon="16.1634044"><ele>975.0</ele><time>2026-04-06T14:17:45.866Z</time></trkpt><trkpt lat="40.4275022" lon="16.1633602"><ele>976.0</ele><time>2026-04-06T14:17:46.866Z</time></trkpt><trkpt lat="40.4276443" lon="16.1633155"><ele>977.0</ele><time>2026-04-06T14:17:47.867Z</time></trkpt><trkpt lat="40.4277846" lon="16.1632741"><ele>978.0</ele><time>2026-04-06T14:17:48.866Z</time></trkpt><trkpt lat="40.4279201" lon="16.1632235"><ele>980.25</ele><time>2026-04-06T14:17:49.867Z</time></trkpt><trkpt lat="40.4280428" lon="16.1631537"><ele>982.5</ele><time>2026-04-06T14:17:50.866Z</time></trkpt><trkpt lat="40.4281453" lon="16.163067"><ele>984.75</ele><time>2026-04-06T14:17:51.866Z</time></trkpt><trkpt lat="40.428221" lon="16.1629709"><ele>987.0</ele><time>2026-04-06T14:17:52.866Z</time></trkpt><trkpt lat="40.4282808" lon="16.1628643"><ele>987.0</ele><time>2026-04-06T14:17:53.866Z</time></trkpt><trkpt lat="40.4283144" lon="16.1627321"><ele>987.0</ele><time>2026-04-06T14:17:54.866Z</time></trkpt><trkpt lat="40.4283286" lon="16.1625769"><ele>987.0</ele><time>2026-04-06T14:17:55.866Z</time></trkpt><trkpt lat="40.4283471" lon="16.1624212"><ele>987.0</ele><time>2026-04-06T14:17:56.866Z</time></trkpt><trkpt lat="40.428383" lon="16.1622651"><ele>987.0</ele><time>2026-04-06T14:17:57.867Z</time></trkpt><trkpt lat="40.4284476" lon="16.1621111"><ele>987.0</ele><time>2026-04-06T14:17:58.866Z</time></trkpt><trkpt lat="40.4285315" lon="16.1619561"><ele>987.0</ele><time>2026-04-06T14:17:59.866Z</time></trkpt><trkpt lat="40.4286284" lon="16.1618112"><ele>987.0</ele><time>2026-04-06T14:18:00.866Z</time></trkpt><trkpt lat="40.4287297" lon="16.1616771"><ele>988.5</ele><time>2026-04-06T14:18:01.866Z</time></trkpt><trkpt lat="40.4288376" lon="16.1615487"><ele>990.0</ele><time>2026-04-06T14:18:02.867Z</time></trkpt><trkpt lat="40.4289518" lon="16.1614342"><ele>991.5</ele><time>2026-04-06T14:18:03.866Z</time></trkpt><trkpt lat="40.4290689" lon="16.1613277"><ele>993.0</ele><time>2026-04-06T14:18:04.866Z</time></trkpt><trkpt lat="40.4291952" lon="16.1612275"><ele>993.0</ele><time>2026-04-06T14:18:05.866Z</time></trkpt><trkpt lat="40.4293251" lon="16.1611499"><ele>993.0</ele><time>2026-04-06T14:18:06.866Z</time></trkpt><trkpt lat="40.4294619" lon="16.1610828"><ele>993.0</ele><time>2026-04-06T14:18:07.866Z</time></trkpt><trkpt lat="40.4296055" lon="16.1610275"><ele>993.0</ele><time>2026-04-06T14:18:08.867Z</time></trkpt><trkpt lat="40.429755" lon="16.1609784"><ele>994.0</ele><time>2026-04-06T14:18:09.866Z</time></trkpt><trkpt lat="40.4299044" lon="16.160927"><ele>995.0</ele><time>2026-04-06T14:18:10.866Z</time></trkpt><trkpt lat="40.4300533" lon="16.160871"><ele>996.0</ele><time>2026-04-06T14:18:11.866Z</time></trkpt><trkpt lat="40.4301993" lon="16.1608139"><ele>996.0</ele><time>2026-04-06T14:18:12.866Z</time></trkpt><trkpt lat="40.4303434" lon="16.1607579"><ele>996.0</ele><time>2026-04-06T14:18:13.865Z</time></trkpt><trkpt lat="40.4304929" lon="16.1607039"><ele>996.0</ele><time>2026-04-06T14:18:14.865Z</time></trkpt><trkpt lat="40.4306402" lon="16.1606451"><ele>995.0</ele><time>2026-04-06T14:18:15.865Z</time></trkpt><trkpt lat="40.4307906" lon="16.1605841"><ele>994.0</ele><time>2026-04-06T14:18:16.865Z</time></trkpt><trkpt lat="40.4309379" lon="16.1605218"><ele>993.0</ele><time>2026-04-06T14:18:17.865Z</time></trkpt><trkpt lat="40.4310777" lon="16.1604381"><ele>993.0</ele><time>2026-04-06T14:18:18.865Z</time></trkpt><trkpt lat="40.4312063" lon="16.1603368"><ele>993.0</ele><time>2026-04-06T14:18:19.865Z</time></trkpt><trkpt lat="40.4313185" lon="16.1602352"><ele>993.0</ele><time>2026-04-06T14:18:20.866Z</time></trkpt><trkpt lat="40.4314236" lon="16.1601463"><ele>993.0</ele><time>2026-04-06T14:18:21.865Z</time></trkpt><trkpt lat="40.4315217" lon="16.1600882"><ele>994.5999999999999</ele><time>2026-04-06T14:18:22.865Z</time></trkpt><trkpt lat="40.4316229" lon="16.1600532"><ele>996.1999999999999</ele><time>2026-04-06T14:18:23.865Z</time></trkpt><trkpt lat="40.4317306" lon="16.1600463"><ele>997.8</ele><time>2026-04-06T14:18:24.865Z</time></trkpt><trkpt lat="40.4318482" lon="16.160063"><ele>999.4</ele><time>2026-04-06T14:18:25.865Z</time></trkpt><trkpt lat="40.4319623" lon="16.160068"><ele>1001.0</ele><time>2026-04-06T14:18:26.865Z</time></trkpt><trkpt lat="40.4320724" lon="16.1600354"><ele>1000.75</ele><time>2026-04-06T14:18:27.865Z</time></trkpt><trkpt lat="40.4321805" lon="16.1599654"><ele>1000.5</ele><time>2026-04-06T14:18:28.865Z</time></trkpt><trkpt lat="40.4322895" lon="16.1598806"><ele>1000.25</ele><time>2026-04-06T14:18:29.866Z</time></trkpt><trkpt lat="40.4323867" lon="16.1597982"><ele>1000.0</ele><time>2026-04-06T14:18:30.865Z</time></trkpt><trkpt lat="40.4324603" lon="16.159712"><ele>1000.0</ele><time>2026-04-06T14:18:31.866Z</time></trkpt><trkpt lat="40.4325195" lon="16.1596139"><ele>1000.0</ele><time>2026-04-06T14:18:32.865Z</time></trkpt><trkpt lat="40.4325509" lon="16.1594924"><ele>1000.0</ele><time>2026-04-06T14:18:33.865Z</time></trkpt><trkpt lat="40.4325658" lon="16.1593537"><ele>1000.0</ele><time>2026-04-06T14:18:34.865Z</time></trkpt><trkpt lat="40.4325835" lon="16.1592019"><ele>1000.0</ele><time>2026-04-06T14:18:35.865Z</time></trkpt><trkpt lat="40.4326172" lon="16.1590432"><ele>999.75</ele><time>2026-04-06T14:18:36.865Z</time></trkpt><trkpt lat="40.432672" lon="16.1588795"><ele>999.5</ele><time>2026-04-06T14:18:37.866Z</time></trkpt><trkpt lat="40.4327432" lon="16.1587034"><ele>999.25</ele><time>2026-04-06T14:18:38.866Z</time></trkpt><trkpt lat="40.4328222" lon="16.1585277"><ele>999.0</ele><time>2026-04-06T14:18:39.865Z</time></trkpt><trkpt lat="40.432901" lon="16.1583609"><ele>1000.75</ele><time>2026-04-06T14:18:40.865Z</time></trkpt><trkpt lat="40.4329744" lon="16.1582107"><ele>1002.5</ele><time>2026-04-06T14:18:41.865Z</time></trkpt><trkpt lat="40.4330519" lon="16.1580828"><ele>1004.25</ele><time>2026-04-06T14:18:42.865Z</time></trkpt><trkpt lat="40.4331209" lon="16.1579644"><ele>1006.0</ele><time>2026-04-06T14:18:43.865Z</time></trkpt><trkpt lat="40.4331979" lon="16.1578542"><ele>1006.0</ele><time>2026-04-06T14:18:44.865Z</time></trkpt><trkpt lat="40.4332934" lon="16.1577564"><ele>1006.0</ele><time>2026-04-06T14:18:45.865Z</time></trkpt><trkpt lat="40.4333941" lon="16.1576777"><ele>1006.0</ele><time>2026-04-06T14:18:46.865Z</time></trkpt><trkpt lat="40.4335085" lon="16.1576083"><ele>1006.0</ele><time>2026-04-06T14:18:47.865Z</time></trkpt><trkpt lat="40.4336258" lon="16.1575518"><ele>1006.0</ele><time>2026-04-06T14:18:48.865Z</time></trkpt><trkpt lat="40.4337499" lon="16.1575073"><ele>1006.0</ele><time>2026-04-06T14:18:49.865Z</time></trkpt><trkpt lat="40.4338849" lon="16.1574929"><ele>1006.0</ele><time>2026-04-06T14:18:50.865Z</time></trkpt><trkpt lat="40.4340351" lon="16.1574891"><ele>1006.0</ele><time>2026-04-06T14:18:51.865Z</time></trkpt><trkpt lat="40.4341941" lon="16.1574859"><ele>1005.25</ele><time>2026-04-06T14:18:52.865Z</time></trkpt><trkpt lat="40.4343434" lon="16.1574821"><ele>1004.5</ele><time>2026-04-06T14:18:53.865Z</time></trkpt><trkpt lat="40.4344828" lon="16.1574809"><ele>1003.75</ele><time>2026-04-06T14:18:54.865Z</time></trkpt><trkpt lat="40.4346087" lon="16.1574766"><ele>1003.0</ele><time>2026-04-06T14:18:55.865Z</time></trkpt><trkpt lat="40.4347284" lon="16.1574666"><ele>1003.0</ele><time>2026-04-06T14:18:56.865Z</time></trkpt><trkpt lat="40.4348464" lon="16.1574597"><ele>1003.0</ele><time>2026-04-06T14:18:57.865Z</time></trkpt><trkpt lat="40.4349567" lon="16.1574533"><ele>1003.0</ele><time>2026-04-06T14:18:58.866Z</time></trkpt><trkpt lat="40.4350543" lon="16.1574542"><ele>1003.0</ele><time>2026-04-06T14:18:59.866Z</time></trkpt><trkpt lat="40.4351332" lon="16.1574602"><ele>1003.0</ele><time>2026-04-06T14:19:00.865Z</time></trkpt><trkpt lat="40.4352149" lon="16.1574917"><ele>1003.0</ele><time>2026-04-06T14:19:02.865Z</time></trkpt><trkpt lat="40.435205" lon="16.1576109"><ele>1003.0</ele><time>2026-04-06T14:19:05.866Z</time></trkpt><trkpt lat="40.4350994" lon="16.1577017"><ele>1003.0</ele><time>2026-04-06T14:19:07.865Z</time></trkpt><trkpt lat="40.4350192" lon="16.1577406"><ele>1003.0</ele><time>2026-04-06T14:19:08.865Z</time></trkpt><trkpt lat="40.4349321" lon="16.1577817"><ele>1003.0</ele><time>2026-04-06T14:19:09.865Z</time></trkpt><trkpt lat="40.4348441" lon="16.1578297"><ele>1002.9999999999999</ele><time>2026-04-06T14:19:10.865Z</time></trkpt><trkpt lat="40.4347636" lon="16.1578775"><ele>1003.0</ele><time>2026-04-06T14:19:11.865Z</time></trkpt><trkpt lat="40.4346861" lon="16.1579339"><ele>1003.0</ele><time>2026-04-06T14:19:12.865Z</time></trkpt><trkpt lat="40.4346136" lon="16.1579956"><ele>1003.0</ele><time>2026-04-06T14:19:13.866Z</time></trkpt><trkpt lat="40.4345518" lon="16.1580729"><ele>1002.9999999999999</ele><time>2026-04-06T14:19:14.865Z</time></trkpt><trkpt lat="40.4344982" lon="16.158166"><ele>1003.0</ele><time>2026-04-06T14:19:15.865Z</time></trkpt><trkpt lat="40.4344632" lon="16.1582825"><ele>1004.4</ele><time>2026-04-06T14:19:16.865Z</time></trkpt><trkpt lat="40.434476" lon="16.1584175"><ele>1005.8</ele><time>2026-04-06T14:19:17.866Z</time></trkpt><trkpt lat="40.4345257" lon="16.1585419"><ele>1007.2</ele><time>2026-04-06T14:19:18.865Z</time></trkpt><trkpt lat="40.4346145" lon="16.1586377"><ele>1008.6</ele><time>2026-04-06T14:19:19.865Z</time></trkpt><trkpt lat="40.4347263" lon="16.1587036"><ele>1010.0</ele><time>2026-04-06T14:19:20.865Z</time></trkpt><trkpt lat="40.4348547" lon="16.158741"><ele>1010.0</ele><time>2026-04-06T14:19:21.865Z</time></trkpt><trkpt lat="40.4349944" lon="16.1587675"><ele>1010.0</ele><time>2026-04-06T14:19:22.865Z</time></trkpt><trkpt lat="40.4351373" lon="16.1587908"><ele>1010.0</ele><time>2026-04-06T14:19:23.865Z</time></trkpt><trkpt lat="40.4352829" lon="16.1588171"><ele>1010.0</ele><time>2026-04-06T14:19:24.865Z</time></trkpt><trkpt lat="40.4354296" lon="16.1588495"><ele>1010.5</ele><time>2026-04-06T14:19:25.865Z</time></trkpt><trkpt lat="40.4355784" lon="16.1588816"><ele>1011.0</ele><time>2026-04-06T14:19:26.866Z</time></trkpt><trkpt lat="40.435727" lon="16.1589157"><ele>1011.5</ele><time>2026-04-06T14:19:27.865Z</time></trkpt><trkpt lat="40.435869" lon="16.1589596"><ele>1012.0</ele><time>2026-04-06T14:19:28.865Z</time></trkpt><trkpt lat="40.4360066" lon="16.1590082"><ele>1014.0</ele><time>2026-04-06T14:19:29.865Z</time></trkpt><trkpt lat="40.4361356" lon="16.1590713"><ele>1016.0</ele><time>2026-04-06T14:19:30.865Z</time></trkpt><trkpt lat="40.4362539" lon="16.159139"><ele>1018.0</ele><time>2026-04-06T14:19:31.865Z</time></trkpt><trkpt lat="40.4363501" lon="16.1592205"><ele>1020.0</ele><time>2026-04-06T14:19:32.866Z</time></trkpt><trkpt lat="40.4364196" lon="16.1593209"><ele>1020.0</ele><time>2026-04-06T14:19:33.865Z</time></trkpt><trkpt lat="40.4364772" lon="16.1594391"><ele>1020.0</ele><time>2026-04-06T14:19:34.865Z</time></trkpt><trkpt lat="40.4365089" lon="16.1595707"><ele>1020.0</ele><time>2026-04-06T14:19:35.866Z</time></trkpt><trkpt lat="40.4365248" lon="16.1596962"><ele>1020.0</ele><time>2026-04-06T14:19:36.865Z</time></trkpt><trkpt lat="40.4365257" lon="16.1598202"><ele>1020.0</ele><time>2026-04-06T14:19:37.865Z</time></trkpt><trkpt lat="40.4365088" lon="16.1599443"><ele>1017.6666666666666</ele><time>2026-04-06T14:19:38.865Z</time></trkpt><trkpt lat="40.4364789" lon="16.160065"><ele>1015.3333333333333</ele><time>2026-04-06T14:19:39.866Z</time></trkpt><trkpt lat="40.436432" lon="16.1601705"><ele>1013.0</ele><time>2026-04-06T14:19:40.865Z</time></trkpt><trkpt lat="40.4363866" lon="16.1602669"><ele>1010.6666666666666</ele><time>2026-04-06T14:19:41.865Z</time></trkpt><trkpt lat="40.4363511" lon="16.1603601"><ele>1008.3333333333333</ele><time>2026-04-06T14:19:42.865Z</time></trkpt><trkpt lat="40.4363368" lon="16.1604486"><ele>1006.0</ele><time>2026-04-06T14:19:43.866Z</time></trkpt><trkpt lat="40.4363639" lon="16.1605928"><ele>1006.0</ele><time>2026-04-06T14:19:45.865Z</time></trkpt><trkpt lat="40.4364216" lon="16.1606886"><ele>1005.9999999999999</ele><time>2026-04-06T14:19:47.865Z</time></trkpt><trkpt lat="40.4365105" lon="16.1606952"><ele>1005.9999999999999</ele><time>2026-04-06T14:19:50.866Z</time></trkpt><trkpt lat="40.4365885" lon="16.1605703"><ele>1006.0</ele><time>2026-04-06T14:19:52.866Z</time></trkpt><trkpt lat="40.4366164" lon="16.1604618"><ele>1006.0</ele><time>2026-04-06T14:19:53.865Z</time></trkpt><trkpt lat="40.43663" lon="16.1603366"><ele>1006.0</ele><time>2026-04-06T14:19:54.865Z</time></trkpt><trkpt lat="40.4366328" lon="16.1602049"><ele>1005.9999999999999</ele><time>2026-04-06T14:19:55.865Z</time></trkpt><trkpt lat="40.4366349" lon="16.1600597"><ele>1005.9999999999999</ele><time>2026-04-06T14:19:56.865Z</time></trkpt><trkpt lat="40.4366388" lon="16.1599079"><ele>1006.0</ele><time>2026-04-06T14:19:57.865Z</time></trkpt><trkpt lat="40.4366523" lon="16.1597549"><ele>1006.0</ele><time>2026-04-06T14:19:58.865Z</time></trkpt><trkpt lat="40.4366855" lon="16.1596095"><ele>1009.5</ele><time>2026-04-06T14:19:59.865Z</time></trkpt><trkpt lat="40.4367341" lon="16.1594721"><ele>1013.0</ele><time>2026-04-06T14:20:00.865Z</time></trkpt><trkpt lat="40.436805" lon="16.1593483"><ele>1016.5</ele><time>2026-04-06T14:20:01.865Z</time></trkpt><trkpt lat="40.4369006" lon="16.1592421"><ele>1020.0</ele><time>2026-04-06T14:20:02.865Z</time></trkpt><trkpt lat="40.4370025" lon="16.1591644"><ele>1020.0</ele><time>2026-04-06T14:20:03.865Z</time></trkpt><trkpt lat="40.4371186" lon="16.1591173"><ele>1020.0</ele><time>2026-04-06T14:20:04.865Z</time></trkpt><trkpt lat="40.4372581" lon="16.1591207"><ele>1020.0</ele><time>2026-04-06T14:20:05.865Z</time></trkpt><trkpt lat="40.4373956" lon="16.1591424"><ele>1020.0</ele><time>2026-04-06T14:20:06.865Z</time></trkpt><trkpt lat="40.4375277" lon="16.1591414"><ele>1019.0</ele><time>2026-04-06T14:20:07.865Z</time></trkpt><trkpt lat="40.4376511" lon="16.1591022"><ele>1018.0</ele><time>2026-04-06T14:20:08.866Z</time></trkpt><trkpt lat="40.4377709" lon="16.1590143"><ele>1017.0</ele><time>2026-04-06T14:20:09.865Z</time></trkpt><trkpt lat="40.4378863" lon="16.1588879"><ele>1016.0</ele><time>2026-04-06T14:20:10.865Z</time></trkpt><trkpt lat="40.4379964" lon="16.1587378"><ele>1016.0</ele><time>2026-04-06T14:20:11.865Z</time></trkpt><trkpt lat="40.4381002" lon="16.1585856"><ele>1016.0</ele><time>2026-04-06T14:20:12.865Z</time></trkpt><trkpt lat="40.4382025" lon="16.1584319"><ele>1016.0</ele><time>2026-04-06T14:20:13.865Z</time></trkpt><trkpt lat="40.4383024" lon="16.1582848"><ele>1022.5</ele><time>2026-04-06T14:20:14.865Z</time></trkpt><trkpt lat="40.4383931" lon="16.1581502"><ele>1029.0</ele><time>2026-04-06T14:20:15.866Z</time></trkpt><trkpt lat="40.4384808" lon="16.1580404"><ele>1035.5</ele><time>2026-04-06T14:20:16.865Z</time></trkpt><trkpt lat="40.4385897" lon="16.157966"><ele>1042.0</ele><time>2026-04-06T14:20:17.865Z</time></trkpt><trkpt lat="40.4387225" lon="16.1579296"><ele>1039.25</ele><time>2026-04-06T14:20:18.865Z</time></trkpt><trkpt lat="40.4388738" lon="16.1579212"><ele>1036.5</ele><time>2026-04-06T14:20:19.866Z</time></trkpt><trkpt lat="40.4390288" lon="16.1579138"><ele>1033.75</ele><time>2026-04-06T14:20:20.866Z</time></trkpt><trkpt lat="40.439167" lon="16.1578859"><ele>1031.0</ele><time>2026-04-06T14:20:21.865Z</time></trkpt><trkpt lat="40.4392801" lon="16.1578183"><ele>1031.0</ele><time>2026-04-06T14:20:22.865Z</time></trkpt><trkpt lat="40.439363" lon="16.1577149"><ele>1031.0</ele><time>2026-04-06T14:20:23.865Z</time></trkpt><trkpt lat="40.4394352" lon="16.1575855"><ele>1031.0</ele><time>2026-04-06T14:20:24.865Z</time></trkpt><trkpt lat="40.4395065" lon="16.1574697"><ele>1031.0</ele><time>2026-04-06T14:20:25.865Z</time></trkpt><trkpt lat="40.4395915" lon="16.1574017"><ele>1031.0</ele><time>2026-04-06T14:20:26.865Z</time></trkpt><trkpt lat="40.4396923" lon="16.1573839"><ele>1033.5</ele><time>2026-04-06T14:20:27.865Z</time></trkpt><trkpt lat="40.4398134" lon="16.157399"><ele>1036.0</ele><time>2026-04-06T14:20:28.865Z</time></trkpt><trkpt lat="40.4399446" lon="16.1573994"><ele>1038.5</ele><time>2026-04-06T14:20:29.865Z</time></trkpt><trkpt lat="40.4400711" lon="16.1573485"><ele>1041.0</ele><time>2026-04-06T14:20:30.865Z</time></trkpt><trkpt lat="40.4401795" lon="16.1572415"><ele>1041.0</ele><time>2026-04-06T14:20:31.865Z</time></trkpt><trkpt lat="40.4402686" lon="16.1570972"><ele>1041.0</ele><time>2026-04-06T14:20:32.865Z</time></trkpt><trkpt lat="40.4403483" lon="16.1569465"><ele>1041.0</ele><time>2026-04-06T14:20:33.865Z</time></trkpt><trkpt lat="40.4404299" lon="16.1568175"><ele>1041.0</ele><time>2026-04-06T14:20:34.865Z</time></trkpt><trkpt lat="40.4405351" lon="16.1567274"><ele>1036.6666666666667</ele><time>2026-04-06T14:20:35.865Z</time></trkpt><trkpt lat="40.4406652" lon="16.1566694"><ele>1032.3333333333335</ele><time>2026-04-06T14:20:36.865Z</time></trkpt><trkpt lat="40.4408234" lon="16.1566379"><ele>1028.0</ele><time>2026-04-06T14:20:37.865Z</time></trkpt><trkpt lat="40.4409918" lon="16.156612"><ele>1028.0</ele><time>2026-04-06T14:20:38.865Z</time></trkpt><trkpt lat="40.4411591" lon="16.1565919"><ele>1028.0</ele><time>2026-04-06T14:20:39.865Z</time></trkpt><trkpt lat="40.4413248" lon="16.1565844"><ele>1028.0</ele><time>2026-04-06T14:20:40.865Z</time></trkpt><trkpt lat="40.4414852" lon="16.1566066"><ele>1030.0</ele><time>2026-04-06T14:20:41.865Z</time></trkpt><trkpt lat="40.4416362" lon="16.1566718"><ele>1032.0</ele><time>2026-04-06T14:20:42.866Z</time></trkpt><trkpt lat="40.4417783" lon="16.1567791"><ele>1034.0</ele><time>2026-04-06T14:20:43.865Z</time></trkpt><trkpt lat="40.4419063" lon="16.1569279"><ele>1034.0</ele><time>2026-04-06T14:20:44.865Z</time></trkpt><trkpt lat="40.4420239" lon="16.1571005"><ele>1034.0</ele><time>2026-04-06T14:20:45.865Z</time></trkpt><trkpt lat="40.4421376" lon="16.157256"><ele>1034.0</ele><time>2026-04-06T14:20:46.865Z</time></trkpt><trkpt lat="40.4422668" lon="16.1574003"><ele>1033.6666666666667</ele><time>2026-04-06T14:20:47.865Z</time></trkpt><trkpt lat="40.4424097" lon="16.157524"><ele>1033.3333333333333</ele><time>2026-04-06T14:20:48.866Z</time></trkpt><trkpt lat="40.4425595" lon="16.1576179"><ele>1033.0</ele><time>2026-04-06T14:20:49.865Z</time></trkpt><trkpt lat="40.4427118" lon="16.157684"><ele>1033.0</ele><time>2026-04-06T14:20:50.865Z</time></trkpt><trkpt lat="40.4428684" lon="16.1577156"><ele>1033.0</ele><time>2026-04-06T14:20:51.865Z</time></trkpt><trkpt lat="40.4430286" lon="16.1577152"><ele>1033.0</ele><time>2026-04-06T14:20:52.866Z</time></trkpt><trkpt lat="40.4431973" lon="16.1577179"><ele>1037.6666666666665</ele><time>2026-04-06T14:20:53.865Z</time></trkpt><trkpt lat="40.4433698" lon="16.1577419"><ele>1042.3333333333333</ele><time>2026-04-06T14:20:54.865Z</time></trkpt><trkpt lat="40.443557" lon="16.1577812"><ele>1047.0</ele><time>2026-04-06T14:20:55.866Z</time></trkpt><trkpt lat="40.4437481" lon="16.1578381"><ele>1050.3333333333333</ele><time>2026-04-06T14:20:56.866Z</time></trkpt><trkpt lat="40.4439384" lon="16.1578949"><ele>1053.6666666666665</ele><time>2026-04-06T14:20:57.865Z</time></trkpt><trkpt lat="40.4441224" lon="16.1579478"><ele>1057.0</ele><time>2026-04-06T14:20:58.865Z</time></trkpt><trkpt lat="40.4442926" lon="16.1580076"><ele>1057.0</ele><time>2026-04-06T14:20:59.865Z</time></trkpt><trkpt lat="40.4444439" lon="16.1580758"><ele>1057.0</ele><time>2026-04-06T14:21:00.865Z</time></trkpt><trkpt lat="40.4445839" lon="16.1581418"><ele>1057.0</ele><time>2026-04-06T14:21:01.866Z</time></trkpt><trkpt lat="40.444718" lon="16.1581767"><ele>1057.0</ele><time>2026-04-06T14:21:02.865Z</time></trkpt><trkpt lat="40.4448531" lon="16.1581684"><ele>1056.3333333333333</ele><time>2026-04-06T14:21:03.865Z</time></trkpt><trkpt lat="40.4449928" lon="16.1581245"><ele>1055.6666666666667</ele><time>2026-04-06T14:21:04.865Z</time></trkpt><trkpt lat="40.445139" lon="16.1580571"><ele>1055.0</ele><time>2026-04-06T14:21:05.865Z</time></trkpt><trkpt lat="40.4452891" lon="16.1579646"><ele>1055.0</ele><time>2026-04-06T14:21:06.865Z</time></trkpt><trkpt lat="40.4454307" lon="16.1578544"><ele>1055.0</ele><time>2026-04-06T14:21:07.865Z</time></trkpt><trkpt lat="40.4455606" lon="16.1577242"><ele>1055.0</ele><time>2026-04-06T14:21:08.865Z</time></trkpt><trkpt lat="40.4456796" lon="16.1575799"><ele>1052.3333333333335</ele><time>2026-04-06T14:21:09.865Z</time></trkpt><trkpt lat="40.4457874" lon="16.1574219"><ele>1049.6666666666667</ele><time>2026-04-06T14:21:10.865Z</time></trkpt><trkpt lat="40.4458816" lon="16.1572636"><ele>1047.0</ele><time>2026-04-06T14:21:11.865Z</time></trkpt><trkpt lat="40.4459672" lon="16.1571095"><ele>1047.0</ele><time>2026-04-06T14:21:12.866Z</time></trkpt><trkpt lat="40.4460663" lon="16.1569751"><ele>1047.0</ele><time>2026-04-06T14:21:13.865Z</time></trkpt><trkpt lat="40.4461956" lon="16.1568725"><ele>1047.0</ele><time>2026-04-06T14:21:14.865Z</time></trkpt><trkpt lat="40.4463406" lon="16.1567748"><ele>1043.6666666666667</ele><time>2026-04-06T14:21:15.865Z</time></trkpt><trkpt lat="40.4464857" lon="16.1566711"><ele>1040.3333333333335</ele><time>2026-04-06T14:21:16.865Z</time></trkpt><trkpt lat="40.4466113" lon="16.1565503"><ele>1037.0</ele><time>2026-04-06T14:21:17.865Z</time></trkpt><trkpt lat="40.4467279" lon="16.1564183"><ele>1037.0</ele><time>2026-04-06T14:21:18.866Z</time></trkpt><trkpt lat="40.4468336" lon="16.1562818"><ele>1037.0</ele><time>2026-04-06T14:21:19.865Z</time></trkpt><trkpt lat="40.4469251" lon="16.1561458"><ele>1037.0</ele><time>2026-04-06T14:21:20.865Z</time></trkpt><trkpt lat="40.4470013" lon="16.1560089"><ele>1037.0</ele><time>2026-04-06T14:21:21.865Z</time></trkpt><trkpt lat="40.4470606" lon="16.1558674"><ele>1037.0</ele><time>2026-04-06T14:21:22.865Z</time></trkpt><trkpt lat="40.4470995" lon="16.1557117"><ele>1037.0</ele><time>2026-04-06T14:21:23.866Z</time></trkpt><trkpt lat="40.4471127" lon="16.1555505"><ele>1037.0</ele><time>2026-04-06T14:21:24.865Z</time></trkpt><trkpt lat="40.4470828" lon="16.155385"><ele>1037.0</ele><time>2026-04-06T14:21:25.865Z</time></trkpt><trkpt lat="40.4470243" lon="16.1552229"><ele>1034.25</ele><time>2026-04-06T14:21:26.866Z</time></trkpt><trkpt lat="40.4469393" lon="16.1550806"><ele>1031.5</ele><time>2026-04-06T14:21:27.865Z</time></trkpt><trkpt lat="40.4468296" lon="16.1549525"><ele>1028.75</ele><time>2026-04-06T14:21:28.865Z</time></trkpt><trkpt lat="40.4467104" lon="16.1548243"><ele>1026.0</ele><time>2026-04-06T14:21:29.865Z</time></trkpt><trkpt lat="40.4465927" lon="16.1546996"><ele>1025.0</ele><time>2026-04-06T14:21:30.865Z</time></trkpt><trkpt lat="40.4464725" lon="16.1545898"><ele>1024.0</ele><time>2026-04-06T14:21:31.865Z</time></trkpt><trkpt lat="40.4463312" lon="16.1545141"><ele>1023.0</ele><time>2026-04-06T14:21:32.865Z</time></trkpt><trkpt lat="40.4461758" lon="16.1544662"><ele>1023.0</ele><time>2026-04-06T14:21:33.865Z</time></trkpt><trkpt lat="40.4460273" lon="16.1544374"><ele>1023.0</ele><time>2026-04-06T14:21:34.865Z</time></trkpt><trkpt lat="40.4458738" lon="16.1544288"><ele>1023.0</ele><time>2026-04-06T14:21:35.865Z</time></trkpt><trkpt lat="40.4457226" lon="16.1544346"><ele>1023.0</ele><time>2026-04-06T14:21:36.865Z</time></trkpt><trkpt lat="40.4455775" lon="16.1544464"><ele>1023.0</ele><time>2026-04-06T14:21:37.866Z</time></trkpt><trkpt lat="40.4454457" lon="16.154454"><ele>1023.0</ele><time>2026-04-06T14:21:38.866Z</time></trkpt><trkpt lat="40.4453397" lon="16.154442"><ele>1023.0</ele><time>2026-04-06T14:21:39.866Z</time></trkpt><trkpt lat="40.4452455" lon="16.1544106"><ele>1026.1666666666667</ele><time>2026-04-06T14:21:40.865Z</time></trkpt><trkpt lat="40.4451849" lon="16.1543549"><ele>1029.3333333333333</ele><time>2026-04-06T14:21:41.865Z</time></trkpt><trkpt lat="40.4451397" lon="16.1542814"><ele>1032.5</ele><time>2026-04-06T14:21:42.865Z</time></trkpt><trkpt lat="40.4451166" lon="16.1541954"><ele>1035.6666666666665</ele><time>2026-04-06T14:21:43.865Z</time></trkpt><trkpt lat="40.4451409" lon="16.1540866"><ele>1038.8333333333333</ele><time>2026-04-06T14:21:44.865Z</time></trkpt><trkpt lat="40.445182" lon="16.1539778"><ele>1042.0</ele><time>2026-04-06T14:21:45.865Z</time></trkpt><trkpt lat="40.4452474" lon="16.1538776"><ele>1043.5</ele><time>2026-04-06T14:21:46.865Z</time></trkpt><trkpt lat="40.4453353" lon="16.1537891"><ele>1045.0</ele><time>2026-04-06T14:21:47.865Z</time></trkpt><trkpt lat="40.4454422" lon="16.1537124"><ele>1046.5</ele><time>2026-04-06T14:21:48.865Z</time></trkpt><trkpt lat="40.4455492" lon="16.1536413"><ele>1048.0</ele><time>2026-04-06T14:21:49.865Z</time></trkpt><trkpt lat="40.4456514" lon="16.1535554"><ele>1041.25</ele><time>2026-04-06T14:21:50.865Z</time></trkpt><trkpt lat="40.4457315" lon="16.1534449"><ele>1034.5</ele><time>2026-04-06T14:21:51.865Z</time></trkpt><trkpt lat="40.445779" lon="16.1533105"><ele>1027.75</ele><time>2026-04-06T14:21:52.866Z</time></trkpt><trkpt lat="40.4457955" lon="16.1531624"><ele>1021.0</ele><time>2026-04-06T14:21:53.865Z</time></trkpt><trkpt lat="40.4457804" lon="16.1530091"><ele>1021.0</ele><time>2026-04-06T14:21:54.865Z</time></trkpt><trkpt lat="40.4457487" lon="16.1528591"><ele>1021.0</ele><time>2026-04-06T14:21:55.866Z</time></trkpt><trkpt lat="40.4457086" lon="16.1527121"><ele>1021.0</ele><time>2026-04-06T14:21:56.865Z</time></trkpt><trkpt lat="40.4456703" lon="16.1525715"><ele>1021.0</ele><time>2026-04-06T14:21:57.865Z</time></trkpt><trkpt lat="40.4456427" lon="16.15244"><ele>1022.9999999999999</ele><time>2026-04-06T14:21:58.866Z</time></trkpt><trkpt lat="40.4456319" lon="16.1523256"><ele>1025.0</ele><time>2026-04-06T14:21:59.865Z</time></trkpt><trkpt lat="40.445635" lon="16.1522207"><ele>1027.0</ele><time>2026-04-06T14:22:00.865Z</time></trkpt><trkpt lat="40.445673" lon="16.1521301"><ele>1029.0</ele><time>2026-04-06T14:22:01.865Z</time></trkpt><trkpt lat="40.4457342" lon="16.1520534"><ele>1031.0</ele><time>2026-04-06T14:22:02.865Z</time></trkpt><trkpt lat="40.4458161" lon="16.1519744"><ele>1033.0</ele><time>2026-04-06T14:22:03.866Z</time></trkpt><trkpt lat="40.4458975" lon="16.1518818"><ele>1033.0</ele><time>2026-04-06T14:22:04.865Z</time></trkpt><trkpt lat="40.4459732" lon="16.1517658"><ele>1033.0</ele><time>2026-04-06T14:22:05.865Z</time></trkpt><trkpt lat="40.4460413" lon="16.1516314"><ele>1033.0</ele><time>2026-04-06T14:22:06.865Z</time></trkpt><trkpt lat="40.4461006" lon="16.1514957"><ele>1033.0</ele><time>2026-04-06T14:22:07.865Z</time></trkpt><trkpt lat="40.4461642" lon="16.1513553"><ele>1028.25</ele><time>2026-04-06T14:22:08.865Z</time></trkpt><trkpt lat="40.4462272" lon="16.1512104"><ele>1023.5</ele><time>2026-04-06T14:22:09.865Z</time></trkpt><trkpt lat="40.4462965" lon="16.1510673"><ele>1018.75</ele><time>2026-04-06T14:22:10.865Z</time></trkpt><trkpt lat="40.4463738" lon="16.1509263"><ele>1014.0</ele><time>2026-04-06T14:22:11.866Z</time></trkpt><trkpt lat="40.4464536" lon="16.1507875"><ele>1021.5</ele><time>2026-04-06T14:22:12.865Z</time></trkpt><trkpt lat="40.4465372" lon="16.1506626"><ele>1029.0</ele><time>2026-04-06T14:22:13.865Z</time></trkpt><trkpt lat="40.4466247" lon="16.1505636"><ele>1036.5</ele><time>2026-04-06T14:22:14.866Z</time></trkpt><trkpt lat="40.4467087" lon="16.1504825"><ele>1044.0</ele><time>2026-04-06T14:22:15.866Z</time></trkpt><trkpt lat="40.4468071" lon="16.1504176"><ele>1044.0</ele><time>2026-04-06T14:22:16.865Z</time></trkpt><trkpt lat="40.4469145" lon="16.1503744"><ele>1044.0</ele><time>2026-04-06T14:22:17.865Z</time></trkpt><trkpt lat="40.4470265" lon="16.1503492"><ele>1044.0</ele><time>2026-04-06T14:22:18.865Z</time></trkpt><trkpt lat="40.4471466" lon="16.1503281"><ele>1044.0</ele><time>2026-04-06T14:22:19.865Z</time></trkpt><trkpt lat="40.4472688" lon="16.150311"><ele>1042.4</ele><time>2026-04-06T14:22:20.865Z</time></trkpt><trkpt lat="40.4473894" lon="16.1502917"><ele>1040.8000000000002</ele><time>2026-04-06T14:22:21.865Z</time></trkpt><trkpt lat="40.4475029" lon="16.1502698"><ele>1039.1999999999998</ele><time>2026-04-06T14:22:22.865Z</time></trkpt><trkpt lat="40.4476045" lon="16.1502422"><ele>1037.6</ele><time>2026-04-06T14:22:23.865Z</time></trkpt><trkpt lat="40.4477058" lon="16.1502168"><ele>1036.0</ele><time>2026-04-06T14:22:24.865Z</time></trkpt><trkpt lat="40.447806" lon="16.1501967"><ele>1036.0</ele><time>2026-04-06T14:22:25.865Z</time></trkpt><trkpt lat="40.4479123" lon="16.1501783"><ele>1036.0</ele><time>2026-04-06T14:22:26.865Z</time></trkpt><trkpt lat="40.4480203" lon="16.1501648"><ele>1036.0</ele><time>2026-04-06T14:22:27.865Z</time></trkpt><trkpt lat="40.4481325" lon="16.150172"><ele>1036.0</ele><time>2026-04-06T14:22:28.866Z</time></trkpt><trkpt lat="40.4482404" lon="16.1502169"><ele>1036.0</ele><time>2026-04-06T14:22:29.865Z</time></trkpt><trkpt lat="40.4483456" lon="16.1502848"><ele>1034.25</ele><time>2026-04-06T14:22:30.866Z</time></trkpt><trkpt lat="40.4484464" lon="16.1503663"><ele>1032.5</ele><time>2026-04-06T14:22:31.865Z</time></trkpt><trkpt lat="40.4485461" lon="16.1504435"><ele>1030.75</ele><time>2026-04-06T14:22:32.865Z</time></trkpt><trkpt lat="40.44865" lon="16.1504918"><ele>1029.0</ele><time>2026-04-06T14:22:33.865Z</time></trkpt><trkpt lat="40.4487618" lon="16.1505072"><ele>1029.5</ele><time>2026-04-06T14:22:34.865Z</time></trkpt><trkpt lat="40.4488833" lon="16.150504"><ele>1030.0</ele><time>2026-04-06T14:22:35.865Z</time></trkpt><trkpt lat="40.4490022" lon="16.1504947"><ele>1030.5</ele><time>2026-04-06T14:22:36.865Z</time></trkpt><trkpt lat="40.4491185" lon="16.1505125"><ele>1031.0</ele><time>2026-04-06T14:22:37.866Z</time></trkpt><trkpt lat="40.4492385" lon="16.1505548"><ele>1031.0</ele><time>2026-04-06T14:22:38.865Z</time></trkpt><trkpt lat="40.4493531" lon="16.1506146"><ele>1031.0</ele><time>2026-04-06T14:22:39.866Z</time></trkpt><trkpt lat="40.4494642" lon="16.1506628"><ele>1031.0</ele><time>2026-04-06T14:22:40.865Z</time></trkpt><trkpt lat="40.4495634" lon="16.150696"><ele>1031.0</ele><time>2026-04-06T14:22:41.866Z</time></trkpt><trkpt lat="40.4496534" lon="16.1506861"><ele>1031.0</ele><time>2026-04-06T14:22:42.865Z</time></trkpt><trkpt lat="40.4497299" lon="16.1506401"><ele>1027.0</ele><time>2026-04-06T14:22:43.866Z</time></trkpt><trkpt lat="40.4497766" lon="16.1505425"><ele>1022.9999999999999</ele><time>2026-04-06T14:22:44.865Z</time></trkpt><trkpt lat="40.4498004" lon="16.1504013"><ele>1018.9999999999999</ele><time>2026-04-06T14:22:45.865Z</time></trkpt><trkpt lat="40.4498166" lon="16.1502504"><ele>1015.0</ele><time>2026-04-06T14:22:46.865Z</time></trkpt><trkpt lat="40.4498372" lon="16.1500983"><ele>1011.0</ele><time>2026-04-06T14:22:47.865Z</time></trkpt><trkpt lat="40.4498799" lon="16.1499648"><ele>1015.5999999999999</ele><time>2026-04-06T14:22:48.865Z</time></trkpt><trkpt lat="40.4499503" lon="16.1498589"><ele>1020.1999999999999</ele><time>2026-04-06T14:22:49.866Z</time></trkpt><trkpt lat="40.4500438" lon="16.1497877"><ele>1024.8000000000002</ele><time>2026-04-06T14:22:50.865Z</time></trkpt><trkpt lat="40.4501502" lon="16.1497471"><ele>1029.4</ele><time>2026-04-06T14:22:51.866Z</time></trkpt><trkpt lat="40.4502651" lon="16.1497327"><ele>1034.0</ele><time>2026-04-06T14:22:52.865Z</time></trkpt><trkpt lat="40.4503753" lon="16.1497504"><ele>1031.5</ele><time>2026-04-06T14:22:53.865Z</time></trkpt><trkpt lat="40.450487" lon="16.1498177"><ele>1029.0</ele><time>2026-04-06T14:22:54.865Z</time></trkpt><trkpt lat="40.4505904" lon="16.1499114"><ele>1026.5</ele><time>2026-04-06T14:22:55.865Z</time></trkpt><trkpt lat="40.4507014" lon="16.1500106"><ele>1024.0</ele><time>2026-04-06T14:22:56.865Z</time></trkpt><trkpt lat="40.4508172" lon="16.1500915"><ele>1024.0</ele><time>2026-04-06T14:22:57.866Z</time></trkpt><trkpt lat="40.4509154" lon="16.1501266"><ele>1024.0</ele><time>2026-04-06T14:22:58.865Z</time></trkpt><trkpt lat="40.451008" lon="16.1501183"><ele>1024.0</ele><time>2026-04-06T14:22:59.866Z</time></trkpt><trkpt lat="40.4510963" lon="16.150069"><ele>1024.0</ele><time>2026-04-06T14:23:00.866Z</time></trkpt><trkpt lat="40.4511795" lon="16.1499795"><ele>1024.0</ele><time>2026-04-06T14:23:01.865Z</time></trkpt><trkpt lat="40.451259" lon="16.149867"><ele>1020.25</ele><time>2026-04-06T14:23:02.866Z</time></trkpt><trkpt lat="40.4513395" lon="16.1497453"><ele>1016.5</ele><time>2026-04-06T14:23:03.865Z</time></trkpt><trkpt lat="40.4514242" lon="16.14962"><ele>1012.75</ele><time>2026-04-06T14:23:04.865Z</time></trkpt><trkpt lat="40.4515077" lon="16.1495014"><ele>1009.0</ele><time>2026-04-06T14:23:05.865Z</time></trkpt><trkpt lat="40.4515948" lon="16.1493834"><ele>1009.0</ele><time>2026-04-06T14:23:06.866Z</time></trkpt><trkpt lat="40.4516791" lon="16.1492642"><ele>1009.0</ele><time>2026-04-06T14:23:07.865Z</time></trkpt><trkpt lat="40.4517623" lon="16.1491441"><ele>1009.0</ele><time>2026-04-06T14:23:08.866Z</time></trkpt><trkpt lat="40.4518415" lon="16.1490319"><ele>1009.0</ele><time>2026-04-06T14:23:09.865Z</time></trkpt><trkpt lat="40.4519101" lon="16.148937"><ele>1007.3333333333333</ele><time>2026-04-06T14:23:10.866Z</time></trkpt><trkpt lat="40.4519756" lon="16.1488716"><ele>1005.6666666666666</ele><time>2026-04-06T14:23:11.865Z</time></trkpt><trkpt lat="40.452037" lon="16.1488372"><ele>1004.0</ele><time>2026-04-06T14:23:12.865Z</time></trkpt><trkpt lat="40.4521567" lon="16.148847"><ele>1002.3333333333333</ele><time>2026-04-06T14:23:14.866Z</time></trkpt><trkpt lat="40.4522024" lon="16.1489361"><ele>1000.6666666666666</ele><time>2026-04-06T14:23:15.865Z</time></trkpt><trkpt lat="40.4522456" lon="16.1490472"><ele>999.0</ele><time>2026-04-06T14:23:16.865Z</time></trkpt><trkpt lat="40.4522733" lon="16.1491685"><ele>999.0</ele><time>2026-04-06T14:23:17.865Z</time></trkpt><trkpt lat="40.4523068" lon="16.1492879"><ele>999.0</ele><time>2026-04-06T14:23:18.866Z</time></trkpt><trkpt lat="40.4523562" lon="16.1493915"><ele>999.0</ele><time>2026-04-06T14:23:19.866Z</time></trkpt><trkpt lat="40.4524238" lon="16.1494508"><ele>999.0</ele><time>2026-04-06T14:23:20.866Z</time></trkpt><trkpt lat="40.4525035" lon="16.1494757"><ele>999.0</ele><time>2026-04-06T14:23:21.866Z</time></trkpt><trkpt lat="40.4525823" lon="16.1494668"><ele>999.0</ele><time>2026-04-06T14:23:22.865Z</time></trkpt><trkpt lat="40.4526685" lon="16.1494257"><ele>999.0</ele><time>2026-04-06T14:23:23.865Z</time></trkpt><trkpt lat="40.4527633" lon="16.1493683"><ele>999.0000000000001</ele><time>2026-04-06T14:23:24.866Z</time></trkpt><trkpt lat="40.4528598" lon="16.1493065"><ele>999.0000000000001</ele><time>2026-04-06T14:23:25.865Z</time></trkpt><trkpt lat="40.4529531" lon="16.1492481"><ele>999.0</ele><time>2026-04-06T14:23:26.865Z</time></trkpt><trkpt lat="40.4530443" lon="16.1492138"><ele>999.0</ele><time>2026-04-06T14:23:27.865Z</time></trkpt><trkpt lat="40.4531284" lon="16.1492146"><ele>1000.1666666666666</ele><time>2026-04-06T14:23:28.865Z</time></trkpt><trkpt lat="40.4532017" lon="16.1492421"><ele>1001.3333333333333</ele><time>2026-04-06T14:23:29.865Z</time></trkpt><trkpt lat="40.4532645" lon="16.1492875"><ele>1002.5</ele><time>2026-04-06T14:23:30.865Z</time></trkpt><trkpt lat="40.4532814" lon="16.1493744"><ele>1003.6666666666666</ele><time>2026-04-06T14:23:31.865Z</time></trkpt><trkpt lat="40.4532721" lon="16.149484"><ele>1004.8333333333333</ele><time>2026-04-06T14:23:32.866Z</time></trkpt><trkpt lat="40.4532511" lon="16.1496015"><ele>1006.0</ele><time>2026-04-06T14:23:33.865Z</time></trkpt><trkpt lat="40.4532435" lon="16.1497193"><ele>1006.0</ele><time>2026-04-06T14:23:34.866Z</time></trkpt><trkpt lat="40.4532625" lon="16.1498291"><ele>1005.9999999999999</ele><time>2026-04-06T14:23:35.865Z</time></trkpt><trkpt lat="40.4532971" lon="16.1499296"><ele>1005.9999999999999</ele><time>2026-04-06T14:23:36.866Z</time></trkpt><trkpt lat="40.453354" lon="16.1500246"><ele>1006.0</ele><time>2026-04-06T14:23:37.865Z</time></trkpt><trkpt lat="40.4534235" lon="16.1501181"><ele>1006.0</ele><time>2026-04-06T14:23:38.865Z</time></trkpt><trkpt lat="40.4534933" lon="16.1502119"><ele>1007.0</ele><time>2026-04-06T14:23:39.865Z</time></trkpt><trkpt lat="40.4535609" lon="16.1503079"><ele>1007.9999999999999</ele><time>2026-04-06T14:23:40.865Z</time></trkpt><trkpt lat="40.4536299" lon="16.1504005"><ele>1008.9999999999999</ele><time>2026-04-06T14:23:41.865Z</time></trkpt><trkpt lat="40.4537035" lon="16.1504864"><ele>1010.0</ele><time>2026-04-06T14:23:42.865Z</time></trkpt><trkpt lat="40.4537809" lon="16.150559"><ele>1011.0</ele><time>2026-04-06T14:23:43.865Z</time></trkpt><trkpt lat="40.4538559" lon="16.150627"><ele>1011.0</ele><time>2026-04-06T14:23:44.865Z</time></trkpt><trkpt lat="40.4539253" lon="16.150696"><ele>1011.0</ele><time>2026-04-06T14:23:45.866Z</time></trkpt><trkpt lat="40.4539905" lon="16.1507686"><ele>1011.0</ele><time>2026-04-06T14:23:46.865Z</time></trkpt><trkpt lat="40.4540396" lon="16.1508509"><ele>1011.0</ele><time>2026-04-06T14:23:47.865Z</time></trkpt><trkpt lat="40.4540767" lon="16.1509435"><ele>1011.0</ele><time>2026-04-06T14:23:48.865Z</time></trkpt><trkpt lat="40.4540909" lon="16.1510528"><ele>1011.0</ele><time>2026-04-06T14:23:49.865Z</time></trkpt><trkpt lat="40.4540762" lon="16.1511651"><ele>1008.5</ele><time>2026-04-06T14:23:50.865Z</time></trkpt><trkpt lat="40.4540334" lon="16.1512956"><ele>1006.0</ele><time>2026-04-06T14:23:51.865Z</time></trkpt><trkpt lat="40.4539419" lon="16.1514526"><ele>1003.5</ele><time>2026-04-06T14:23:52.865Z</time></trkpt><trkpt lat="40.4538688" lon="16.1516062"><ele>1001.0</ele><time>2026-04-06T14:23:53.865Z</time></trkpt><trkpt lat="40.4538339" lon="16.1517431"><ele>999.1999999999999</ele><time>2026-04-06T14:23:54.865Z</time></trkpt><trkpt lat="40.4538473" lon="16.1518626"><ele>997.3999999999999</ele><time>2026-04-06T14:23:55.865Z</time></trkpt><trkpt lat="40.4539058" lon="16.1519542"><ele>995.6</ele><time>2026-04-06T14:23:56.865Z</time></trkpt><trkpt lat="40.4540044" lon="16.1520099"><ele>993.8</ele><time>2026-04-06T14:23:57.865Z</time></trkpt><trkpt lat="40.4541208" lon="16.152019"><ele>992.0</ele><time>2026-04-06T14:23:58.865Z</time></trkpt><trkpt lat="40.4542346" lon="16.1519889"><ele>992.0</ele><time>2026-04-06T14:23:59.865Z</time></trkpt><trkpt lat="40.4543505" lon="16.1519331"><ele>992.0</ele><time>2026-04-06T14:24:00.865Z</time></trkpt><trkpt lat="40.4544672" lon="16.1518774"><ele>992.0</ele><time>2026-04-06T14:24:01.865Z</time></trkpt><trkpt lat="40.4545856" lon="16.1518579"><ele>992.0</ele><time>2026-04-06T14:24:02.865Z</time></trkpt><trkpt lat="40.4547095" lon="16.1518724"><ele>994.75</ele><time>2026-04-06T14:24:03.865Z</time></trkpt><trkpt lat="40.4548392" lon="16.1518916"><ele>997.5</ele><time>2026-04-06T14:24:04.865Z</time></trkpt><trkpt lat="40.4549699" lon="16.1518912"><ele>1000.25</ele><time>2026-04-06T14:24:05.865Z</time></trkpt><trkpt lat="40.4550911" lon="16.1518674"><ele>1003.0</ele><time>2026-04-06T14:24:06.866Z</time></trkpt><trkpt lat="40.4551908" lon="16.1518503"><ele>1003.0</ele><time>2026-04-06T14:24:07.865Z</time></trkpt><trkpt lat="40.4552749" lon="16.1518745"><ele>1003.0</ele><time>2026-04-06T14:24:08.865Z</time></trkpt><trkpt lat="40.4553546" lon="16.1519276"><ele>1003.0</ele><time>2026-04-06T14:24:09.865Z</time></trkpt><trkpt lat="40.4554308" lon="16.1520381"><ele>1003.0</ele><time>2026-04-06T14:24:10.866Z</time></trkpt><trkpt lat="40.4555051" lon="16.1521933"><ele>1003.0</ele><time>2026-04-06T14:24:11.866Z</time></trkpt><trkpt lat="40.4555786" lon="16.1523648"><ele>1001.0</ele><time>2026-04-06T14:24:12.865Z</time></trkpt><trkpt lat="40.4556649" lon="16.1525183"><ele>999.0</ele><time>2026-04-06T14:24:13.865Z</time></trkpt><trkpt lat="40.4557576" lon="16.1526444"><ele>997.0</ele><time>2026-04-06T14:24:14.865Z</time></trkpt><trkpt lat="40.4558607" lon="16.1527219"><ele>995.0</ele><time>2026-04-06T14:24:15.865Z</time></trkpt><trkpt lat="40.4559792" lon="16.1527494"><ele>995.0</ele><time>2026-04-06T14:24:16.865Z</time></trkpt><trkpt lat="40.4561008" lon="16.1527556"><ele>995.0</ele><time>2026-04-06T14:24:17.865Z</time></trkpt><trkpt lat="40.4562264" lon="16.1527693"><ele>995.0</ele><time>2026-04-06T14:24:18.865Z</time></trkpt><trkpt lat="40.4563564" lon="16.1527897"><ele>995.0</ele><time>2026-04-06T14:24:19.865Z</time></trkpt><trkpt lat="40.4564885" lon="16.1527975"><ele>997.25</ele><time>2026-04-06T14:24:20.865Z</time></trkpt><trkpt lat="40.4566331" lon="16.152762"><ele>999.5</ele><time>2026-04-06T14:24:21.865Z</time></trkpt><trkpt lat="40.4567822" lon="16.1527233"><ele>1001.75</ele><time>2026-04-06T14:24:22.865Z</time></trkpt><trkpt lat="40.4569248" lon="16.1527106"><ele>1004.0</ele><time>2026-04-06T14:24:23.865Z</time></trkpt><trkpt lat="40.4570566" lon="16.1527211"><ele>999.25</ele><time>2026-04-06T14:24:24.865Z</time></trkpt><trkpt lat="40.4571743" lon="16.1527201"><ele>994.5</ele><time>2026-04-06T14:24:25.865Z</time></trkpt><trkpt lat="40.4572816" lon="16.1526786"><ele>989.75</ele><time>2026-04-06T14:24:26.866Z</time></trkpt><trkpt lat="40.4573775" lon="16.1525922"><ele>985.0</ele><time>2026-04-06T14:24:27.865Z</time></trkpt><trkpt lat="40.4574645" lon="16.1524865"><ele>985.0</ele><time>2026-04-06T14:24:28.865Z</time></trkpt><trkpt lat="40.4575474" lon="16.1523971"><ele>985.0</ele><time>2026-04-06T14:24:29.865Z</time></trkpt><trkpt lat="40.4576374" lon="16.1523501"><ele>985.0</ele><time>2026-04-06T14:24:30.865Z</time></trkpt><trkpt lat="40.4577272" lon="16.152351"><ele>985.0</ele><time>2026-04-06T14:24:31.865Z</time></trkpt><trkpt lat="40.4578186" lon="16.1523931"><ele>985.0</ele><time>2026-04-06T14:24:32.865Z</time></trkpt><trkpt lat="40.4579069" lon="16.1524808"><ele>984.5</ele><time>2026-04-06T14:24:33.865Z</time></trkpt><trkpt lat="40.4580039" lon="16.1525827"><ele>984.0</ele><time>2026-04-06T14:24:34.866Z</time></trkpt><trkpt lat="40.4581" lon="16.1526602"><ele>983.5</ele><time>2026-04-06T14:24:35.864Z</time></trkpt><trkpt lat="40.4582047" lon="16.1527003"><ele>983.0</ele><time>2026-04-06T14:24:36.864Z</time></trkpt><trkpt lat="40.4583142" lon="16.1526917"><ele>983.0</ele><time>2026-04-06T14:24:37.865Z</time></trkpt><trkpt lat="40.4584312" lon="16.1526405"><ele>983.0</ele><time>2026-04-06T14:24:38.865Z</time></trkpt><trkpt lat="40.4585531" lon="16.1525826"><ele>983.0</ele><time>2026-04-06T14:24:39.864Z</time></trkpt><trkpt lat="40.458684" lon="16.1525495"><ele>983.0</ele><time>2026-04-06T14:24:40.864Z</time></trkpt><trkpt lat="40.4588234" lon="16.1525504"><ele>981.5</ele><time>2026-04-06T14:24:41.864Z</time></trkpt><trkpt lat="40.4589552" lon="16.1525858"><ele>980.0</ele><time>2026-04-06T14:24:42.864Z</time></trkpt><trkpt lat="40.459076" lon="16.1526143"><ele>978.5</ele><time>2026-04-06T14:24:43.864Z</time></trkpt><trkpt lat="40.4591821" lon="16.1526019"><ele>977.0</ele><time>2026-04-06T14:24:44.864Z</time></trkpt><trkpt lat="40.4592778" lon="16.1525389"><ele>977.0</ele><time>2026-04-06T14:24:45.864Z</time></trkpt><trkpt lat="40.4593654" lon="16.1524288"><ele>977.0</ele><time>2026-04-06T14:24:46.865Z</time></trkpt><trkpt lat="40.4594481" lon="16.1522986"><ele>977.0</ele><time>2026-04-06T14:24:47.864Z</time></trkpt><trkpt lat="40.4595235" lon="16.1521775"><ele>977.0</ele><time>2026-04-06T14:24:48.864Z</time></trkpt><trkpt lat="40.459591" lon="16.152091"><ele>981.6</ele><time>2026-04-06T14:24:49.864Z</time></trkpt><trkpt lat="40.4596511" lon="16.1520434"><ele>986.2</ele><time>2026-04-06T14:24:50.864Z</time></trkpt><trkpt lat="40.4597253" lon="16.1520417"><ele>990.8</ele><time>2026-04-06T14:24:51.864Z</time></trkpt><trkpt lat="40.4598023" lon="16.1520712"><ele>995.4</ele><time>2026-04-06T14:24:52.864Z</time></trkpt><trkpt lat="40.4598777" lon="16.1521272"><ele>1000.0</ele><time>2026-04-06T14:24:53.864Z</time></trkpt><trkpt lat="40.4599496" lon="16.1523006"><ele>992.25</ele><time>2026-04-06T14:24:54.864Z</time></trkpt><trkpt lat="40.4600246" lon="16.1524481"><ele>984.5</ele><time>2026-04-06T14:24:55.864Z</time></trkpt><trkpt lat="40.4600982" lon="16.1525684"><ele>976.75</ele><time>2026-04-06T14:24:56.864Z</time></trkpt><trkpt lat="40.4601925" lon="16.1526553"><ele>969.0</ele><time>2026-04-06T14:24:57.864Z</time></trkpt><trkpt lat="40.4603146" lon="16.1527123"><ele>969.0</ele><time>2026-04-06T14:24:58.864Z</time></trkpt><trkpt lat="40.4604467" lon="16.1527735"><ele>969.0</ele><time>2026-04-06T14:24:59.864Z</time></trkpt><trkpt lat="40.4605683" lon="16.152835"><ele>969.0</ele><time>2026-04-06T14:25:00.865Z</time></trkpt><trkpt lat="40.4606888" lon="16.1528585"><ele>969.0</ele><time>2026-04-06T14:25:01.864Z</time></trkpt><trkpt lat="40.4608085" lon="16.1528373"><ele>970.0</ele><time>2026-04-06T14:25:02.864Z</time></trkpt><trkpt lat="40.4609371" lon="16.1527686"><ele>971.0</ele><time>2026-04-06T14:25:03.865Z</time></trkpt><trkpt lat="40.4610638" lon="16.1526727"><ele>972.0</ele><time>2026-04-06T14:25:04.865Z</time></trkpt><trkpt lat="40.4611849" lon="16.1525711"><ele>973.0</ele><time>2026-04-06T14:25:05.864Z</time></trkpt><trkpt lat="40.4612869" lon="16.1524974"><ele>970.8</ele><time>2026-04-06T14:25:06.864Z</time></trkpt><trkpt lat="40.4613812" lon="16.1524519"><ele>968.5999999999999</ele><time>2026-04-06T14:25:07.864Z</time></trkpt><trkpt lat="40.4614712" lon="16.1524446"><ele>966.4000000000001</ele><time>2026-04-06T14:25:08.865Z</time></trkpt><trkpt lat="40.4615641" lon="16.152457"><ele>964.2</ele><time>2026-04-06T14:25:09.864Z</time></trkpt><trkpt lat="40.4616685" lon="16.1524648"><ele>962.0</ele><time>2026-04-06T14:25:10.865Z</time></trkpt><trkpt lat="40.461788" lon="16.1524352"><ele>965.6666666666667</ele><time>2026-04-06T14:25:11.864Z</time></trkpt><trkpt lat="40.4619292" lon="16.1523713"><ele>969.3333333333333</ele><time>2026-04-06T14:25:12.864Z</time></trkpt><trkpt lat="40.4620855" lon="16.1522872"><ele>973.0</ele><time>2026-04-06T14:25:13.864Z</time></trkpt><trkpt lat="40.462252" lon="16.1522147"><ele>973.0</ele><time>2026-04-06T14:25:14.864Z</time></trkpt><trkpt lat="40.4624218" lon="16.1521551"><ele>973.0</ele><time>2026-04-06T14:25:15.864Z</time></trkpt><trkpt lat="40.4625839" lon="16.1521152"><ele>973.0</ele><time>2026-04-06T14:25:16.865Z</time></trkpt><trkpt lat="40.4627354" lon="16.1520786"><ele>973.0</ele><time>2026-04-06T14:25:17.864Z</time></trkpt><trkpt lat="40.4628769" lon="16.1520181"><ele>973.0</ele><time>2026-04-06T14:25:18.864Z</time></trkpt><trkpt lat="40.4630011" lon="16.1519392"><ele>973.0</ele><time>2026-04-06T14:25:19.864Z</time></trkpt><trkpt lat="40.4631188" lon="16.1518435"><ele>973.0</ele><time>2026-04-06T14:25:20.864Z</time></trkpt><trkpt lat="40.4632412" lon="16.1517709"><ele>967.25</ele><time>2026-04-06T14:25:21.864Z</time></trkpt><trkpt lat="40.4633781" lon="16.1517354"><ele>961.5</ele><time>2026-04-06T14:25:22.864Z</time></trkpt><trkpt lat="40.4635136" lon="16.1517382"><ele>955.75</ele><time>2026-04-06T14:25:23.864Z</time></trkpt><trkpt lat="40.4636519" lon="16.1517651"><ele>950.0</ele><time>2026-04-06T14:25:24.865Z</time></trkpt><trkpt lat="40.4637934" lon="16.1517981"><ele>945.3333333333334</ele><time>2026-04-06T14:25:25.864Z</time></trkpt><trkpt lat="40.4639383" lon="16.1518404"><ele>940.6666666666667</ele><time>2026-04-06T14:25:26.864Z</time></trkpt><trkpt lat="40.4640876" lon="16.1518852"><ele>936.0</ele><time>2026-04-06T14:25:27.864Z</time></trkpt><trkpt lat="40.4642393" lon="16.151932"><ele>936.0</ele><time>2026-04-06T14:25:28.864Z</time></trkpt><trkpt lat="40.4643877" lon="16.1519857"><ele>936.0</ele><time>2026-04-06T14:25:29.865Z</time></trkpt><trkpt lat="40.4645325" lon="16.1520529"><ele>936.0</ele><time>2026-04-06T14:25:30.864Z</time></trkpt><trkpt lat="40.46468" lon="16.152122"><ele>934.25</ele><time>2026-04-06T14:25:31.864Z</time></trkpt><trkpt lat="40.46483" lon="16.1521984"><ele>932.5</ele><time>2026-04-06T14:25:32.864Z</time></trkpt><trkpt lat="40.4649693" lon="16.1522632"><ele>930.75</ele><time>2026-04-06T14:25:33.864Z</time></trkpt><trkpt lat="40.4650938" lon="16.1523255"><ele>929.0</ele><time>2026-04-06T14:25:34.864Z</time></trkpt><trkpt lat="40.4652059" lon="16.152401"><ele>929.0</ele><time>2026-04-06T14:25:35.864Z</time></trkpt><trkpt lat="40.4652964" lon="16.1525109"><ele>929.0</ele><time>2026-04-06T14:25:36.864Z</time></trkpt><trkpt lat="40.4653598" lon="16.1526493"><ele>929.0</ele><time>2026-04-06T14:25:37.864Z</time></trkpt><trkpt lat="40.4653872" lon="16.1528268"><ele>929.0</ele><time>2026-04-06T14:25:38.864Z</time></trkpt><trkpt lat="40.4653828" lon="16.153029"><ele>927.3333333333334</ele><time>2026-04-06T14:25:39.864Z</time></trkpt><trkpt lat="40.4653662" lon="16.153244"><ele>925.6666666666667</ele><time>2026-04-06T14:25:40.864Z</time></trkpt><trkpt lat="40.4653536" lon="16.1534734"><ele>924.0</ele><time>2026-04-06T14:25:41.865Z</time></trkpt><trkpt lat="40.4653423" lon="16.1537055"><ele>924.0</ele><time>2026-04-06T14:25:42.864Z</time></trkpt><trkpt lat="40.4653352" lon="16.1539316"><ele>924.0</ele><time>2026-04-06T14:25:43.864Z</time></trkpt><trkpt lat="40.4653188" lon="16.1541425"><ele>924.0</ele><time>2026-04-06T14:25:44.864Z</time></trkpt><trkpt lat="40.4652913" lon="16.154337"><ele>923.75</ele><time>2026-04-06T14:25:45.864Z</time></trkpt><trkpt lat="40.4652543" lon="16.1545078"><ele>923.5</ele><time>2026-04-06T14:25:46.864Z</time></trkpt><trkpt lat="40.4652373" lon="16.1546785"><ele>923.25</ele><time>2026-04-06T14:25:47.864Z</time></trkpt><trkpt lat="40.4652621" lon="16.1548398"><ele>923.0</ele><time>2026-04-06T14:25:48.865Z</time></trkpt><trkpt lat="40.4653356" lon="16.1549977"><ele>922.6666666666667</ele><time>2026-04-06T14:25:49.864Z</time></trkpt><trkpt lat="40.4654414" lon="16.1551549"><ele>922.3333333333333</ele><time>2026-04-06T14:25:50.864Z</time></trkpt><trkpt lat="40.4655618" lon="16.1553207"><ele>922.0</ele><time>2026-04-06T14:25:51.864Z</time></trkpt><trkpt lat="40.4656942" lon="16.1554845"><ele>923.3333333333333</ele><time>2026-04-06T14:25:52.865Z</time></trkpt><trkpt lat="40.4658384" lon="16.1556499"><ele>924.6666666666667</ele><time>2026-04-06T14:25:53.865Z</time></trkpt><trkpt lat="40.4659819" lon="16.1558077"><ele>926.0</ele><time>2026-04-06T14:25:54.865Z</time></trkpt><trkpt lat="40.4661214" lon="16.1559581"><ele>926.0</ele><time>2026-04-06T14:25:55.864Z</time></trkpt><trkpt lat="40.4662512" lon="16.1561078"><ele>926.0</ele><time>2026-04-06T14:25:56.864Z</time></trkpt><trkpt lat="40.4663716" lon="16.1562478"><ele>926.0</ele><time>2026-04-06T14:25:57.864Z</time></trkpt><trkpt lat="40.466484" lon="16.1563748"><ele>925.75</ele><time>2026-04-06T14:25:58.864Z</time></trkpt><trkpt lat="40.4665856" lon="16.1564855"><ele>925.5</ele><time>2026-04-06T14:25:59.864Z</time></trkpt><trkpt lat="40.4666846" lon="16.1565789"><ele>925.25</ele><time>2026-04-06T14:26:00.864Z</time></trkpt><trkpt lat="40.4667794" lon="16.1566616"><ele>925.0</ele><time>2026-04-06T14:26:01.864Z</time></trkpt><trkpt lat="40.4668652" lon="16.1567248"><ele>925.6666666666666</ele><time>2026-04-06T14:26:02.865Z</time></trkpt><trkpt lat="40.4669327" lon="16.1567718"><ele>926.3333333333333</ele><time>2026-04-06T14:26:03.864Z</time></trkpt><trkpt lat="40.4670198" lon="16.1568101"><ele>927.0</ele><time>2026-04-06T14:26:05.865Z</time></trkpt><trkpt lat="40.4670834" lon="16.1568347"><ele>927.6666666666667</ele><time>2026-04-06T14:26:09.864Z</time></trkpt><trkpt lat="40.4670183" lon="16.1567653"><ele>928.3333333333334</ele><time>2026-04-06T14:26:16.864Z</time></trkpt><trkpt lat="40.4669461" lon="16.1567628"><ele>929.0</ele><time>2026-04-06T14:26:18.864Z</time></trkpt><trkpt lat="40.4669206" lon="16.156842"><ele>929.0000000000001</ele><time>2026-04-06T14:26:21.864Z</time></trkpt><trkpt lat="40.4669961" lon="16.1568855"><ele>929.0</ele><time>2026-04-06T14:26:25.864Z</time></trkpt><trkpt lat="40.4670544" lon="16.1569177"><ele>929.0</ele><time>2026-04-06T14:26:27.864Z</time></trkpt><trkpt lat="40.4669882" lon="16.1568723"><ele>929.0</ele><time>2026-04-06T14:27:07.864Z</time></trkpt><trkpt lat="40.4669445" lon="16.1568025"><ele>929.0000000000001</ele><time>2026-04-06T14:27:14.864Z</time></trkpt><trkpt lat="40.4670158" lon="16.1567767"><ele>929.0</ele><time>2026-04-06T14:27:18.864Z</time></trkpt><trkpt lat="40.4671433" lon="16.1568478"><ele>928.2</ele><time>2026-04-06T14:27:20.865Z</time></trkpt><trkpt lat="40.467234" lon="16.1568865"><ele>927.4000000000001</ele><time>2026-04-06T14:27:21.865Z</time></trkpt><trkpt lat="40.4673247" lon="16.1569288"><ele>926.6</ele><time>2026-04-06T14:27:22.864Z</time></trkpt><trkpt lat="40.467415" lon="16.156968"><ele>925.8</ele><time>2026-04-06T14:27:23.865Z</time></trkpt><trkpt lat="40.4675043" lon="16.1570064"><ele>925.0</ele><time>2026-04-06T14:27:24.864Z</time></trkpt><trkpt lat="40.4675955" lon="16.1570396"><ele>924.9999999999999</ele><time>2026-04-06T14:27:25.864Z</time></trkpt><trkpt lat="40.4676821" lon="16.157078"><ele>925.0</ele><time>2026-04-06T14:27:26.864Z</time></trkpt><trkpt lat="40.4677644" lon="16.1571138"><ele>925.0</ele><time>2026-04-06T14:27:27.864Z</time></trkpt><trkpt lat="40.4678466" lon="16.1571494"><ele>925.0</ele><time>2026-04-06T14:27:28.865Z</time></trkpt><trkpt lat="40.4679255" lon="16.1571842"><ele>924.9999999999999</ele><time>2026-04-06T14:27:29.865Z</time></trkpt><trkpt lat="40.4680081" lon="16.1572123"><ele>925.0</ele><time>2026-04-06T14:27:30.864Z</time></trkpt><trkpt lat="40.4680942" lon="16.1572353"><ele>923.3333333333333</ele><time>2026-04-06T14:27:31.864Z</time></trkpt><trkpt lat="40.4681801" lon="16.1572479"><ele>921.6666666666666</ele><time>2026-04-06T14:27:32.864Z</time></trkpt><trkpt lat="40.4682679" lon="16.1572513"><ele>920.0</ele><time>2026-04-06T14:27:33.864Z</time></trkpt><trkpt lat="40.4683559" lon="16.1572483"><ele>918.3333333333333</ele><time>2026-04-06T14:27:34.865Z</time></trkpt><trkpt lat="40.4684374" lon="16.1572467"><ele>916.6666666666666</ele><time>2026-04-06T14:27:35.864Z</time></trkpt><trkpt lat="40.4685156" lon="16.1572445"><ele>915.0</ele><time>2026-04-06T14:27:36.865Z</time></trkpt><trkpt lat="40.4685895" lon="16.1572427"><ele>915.0</ele><time>2026-04-06T14:27:37.865Z</time></trkpt><trkpt lat="40.4686613" lon="16.1572423"><ele>915.0</ele><time>2026-04-06T14:27:38.864Z</time></trkpt><trkpt lat="40.4687365" lon="16.1572463"><ele>915.0</ele><time>2026-04-06T14:27:39.864Z</time></trkpt><trkpt lat="40.4688142" lon="16.1572577"><ele>915.0</ele><time>2026-04-06T14:27:40.864Z</time></trkpt><trkpt lat="40.4688925" lon="16.1572852"><ele>915.0</ele><time>2026-04-06T14:27:41.865Z</time></trkpt><trkpt lat="40.468967" lon="16.1573301"><ele>915.0</ele><time>2026-04-06T14:27:42.864Z</time></trkpt><trkpt lat="40.4690343" lon="16.1573944"><ele>914.2</ele><time>2026-04-06T14:27:43.864Z</time></trkpt><trkpt lat="40.469092" lon="16.1574805"><ele>913.4</ele><time>2026-04-06T14:27:44.864Z</time></trkpt><trkpt lat="40.4691449" lon="16.1575762"><ele>912.5999999999999</ele><time>2026-04-06T14:27:45.864Z</time></trkpt><trkpt lat="40.4691909" lon="16.1576771"><ele>911.8</ele><time>2026-04-06T14:27:46.864Z</time></trkpt><trkpt lat="40.4692379" lon="16.1577854"><ele>911.0</ele><time>2026-04-06T14:27:47.865Z</time></trkpt><trkpt lat="40.4692873" lon="16.1578949"><ele>911.0</ele><time>2026-04-06T14:27:48.864Z</time></trkpt><trkpt lat="40.4693374" lon="16.1580109"><ele>910.9999999999999</ele><time>2026-04-06T14:27:49.864Z</time></trkpt><trkpt lat="40.4693814" lon="16.1581346"><ele>910.9999999999999</ele><time>2026-04-06T14:27:50.864Z</time></trkpt><trkpt lat="40.4694136" lon="16.1582702"><ele>911.0</ele><time>2026-04-06T14:27:51.864Z</time></trkpt><trkpt lat="40.4694196" lon="16.1584173"><ele>911.0</ele><time>2026-04-06T14:27:52.865Z</time></trkpt><trkpt lat="40.469413" lon="16.1585641"><ele>911.8333333333334</ele><time>2026-04-06T14:27:53.864Z</time></trkpt><trkpt lat="40.4694097" lon="16.1587055"><ele>912.6666666666667</ele><time>2026-04-06T14:27:54.864Z</time></trkpt><trkpt lat="40.4694218" lon="16.1588256"><ele>913.5</ele><time>2026-04-06T14:27:55.864Z</time></trkpt><trkpt lat="40.469448" lon="16.1589296"><ele>914.3333333333333</ele><time>2026-04-06T14:27:56.864Z</time></trkpt><trkpt lat="40.4694989" lon="16.1590112"><ele>915.1666666666666</ele><time>2026-04-06T14:27:57.864Z</time></trkpt><trkpt lat="40.4695755" lon="16.1590596"><ele>916.0</ele><time>2026-04-06T14:27:58.864Z</time></trkpt><trkpt lat="40.4696678" lon="16.1590863"><ele>916.0</ele><time>2026-04-06T14:27:59.864Z</time></trkpt><trkpt lat="40.4697714" lon="16.1590949"><ele>915.9999999999999</ele><time>2026-04-06T14:28:00.864Z</time></trkpt><trkpt lat="40.4698761" lon="16.1590897"><ele>915.9999999999999</ele><time>2026-04-06T14:28:01.864Z</time></trkpt><trkpt lat="40.4699873" lon="16.1590768"><ele>916.0</ele><time>2026-04-06T14:28:02.864Z</time></trkpt><trkpt lat="40.4701008" lon="16.1590608"><ele>916.0</ele><time>2026-04-06T14:28:03.864Z</time></trkpt><trkpt lat="40.470217" lon="16.1590385"><ele>912.5</ele><time>2026-04-06T14:28:04.864Z</time></trkpt><trkpt lat="40.4703325" lon="16.1590164"><ele>909.0</ele><time>2026-04-06T14:28:05.864Z</time></trkpt><trkpt lat="40.4704538" lon="16.1589997"><ele>905.5</ele><time>2026-04-06T14:28:06.864Z</time></trkpt><trkpt lat="40.4705777" lon="16.1589934"><ele>902.0</ele><time>2026-04-06T14:28:07.865Z</time></trkpt><trkpt lat="40.4707083" lon="16.1590003"><ele>899.75</ele><time>2026-04-06T14:28:08.864Z</time></trkpt><trkpt lat="40.4708401" lon="16.1590151"><ele>897.5</ele><time>2026-04-06T14:28:09.864Z</time></trkpt><trkpt lat="40.4709708" lon="16.1590344"><ele>895.25</ele><time>2026-04-06T14:28:10.864Z</time></trkpt><trkpt lat="40.4710976" lon="16.159072"><ele>893.0</ele><time>2026-04-06T14:28:11.864Z</time></trkpt><trkpt lat="40.4712221" lon="16.1591286"><ele>894.25</ele><time>2026-04-06T14:28:12.865Z</time></trkpt><trkpt lat="40.4713442" lon="16.1592062"><ele>895.5</ele><time>2026-04-06T14:28:13.864Z</time></trkpt><trkpt lat="40.4714659" lon="16.1592871"><ele>896.75</ele><time>2026-04-06T14:28:14.864Z</time></trkpt><trkpt lat="40.4715875" lon="16.1593638"><ele>898.0</ele><time>2026-04-06T14:28:15.864Z</time></trkpt><trkpt lat="40.4717104" lon="16.1594359"><ele>898.0</ele><time>2026-04-06T14:28:16.864Z</time></trkpt><trkpt lat="40.4718297" lon="16.1594993"><ele>898.0</ele><time>2026-04-06T14:28:17.864Z</time></trkpt><trkpt lat="40.471949" lon="16.1595401"><ele>898.0</ele><time>2026-04-06T14:28:18.864Z</time></trkpt><trkpt lat="40.472067" lon="16.1595528"><ele>898.0</ele><time>2026-04-06T14:28:19.864Z</time></trkpt><trkpt lat="40.4721805" lon="16.1595361"><ele>895.0</ele><time>2026-04-06T14:28:20.864Z</time></trkpt><trkpt lat="40.4722852" lon="16.1595109"><ele>892.0</ele><time>2026-04-06T14:28:21.864Z</time></trkpt><trkpt lat="40.4723803" lon="16.1594968"><ele>889.0</ele><time>2026-04-06T14:28:22.864Z</time></trkpt><trkpt lat="40.4724741" lon="16.1595238"><ele>886.0</ele><time>2026-04-06T14:28:23.864Z</time></trkpt><trkpt lat="40.4725664" lon="16.1595829"><ele>883.0</ele><time>2026-04-06T14:28:24.864Z</time></trkpt><trkpt lat="40.4726569" lon="16.1596631"><ele>883.0</ele><time>2026-04-06T14:28:25.864Z</time></trkpt><trkpt lat="40.4727551" lon="16.1597391"><ele>883.0</ele><time>2026-04-06T14:28:26.864Z</time></trkpt><trkpt lat="40.4728644" lon="16.159785"><ele>883.0</ele><time>2026-04-06T14:28:27.864Z</time></trkpt><trkpt lat="40.472982" lon="16.1597901"><ele>883.0</ele><time>2026-04-06T14:28:28.865Z</time></trkpt><trkpt lat="40.4731123" lon="16.1597636"><ele>881.75</ele><time>2026-04-06T14:28:29.865Z</time></trkpt><trkpt lat="40.4732375" lon="16.1597173"><ele>880.5</ele><time>2026-04-06T14:28:30.864Z</time></trkpt><trkpt lat="40.4733619" lon="16.1596682"><ele>879.25</ele><time>2026-04-06T14:28:31.864Z</time></trkpt><trkpt lat="40.4734889" lon="16.1596222"><ele>878.0</ele><time>2026-04-06T14:28:32.864Z</time></trkpt><trkpt lat="40.473618" lon="16.1595942"><ele>878.0</ele><time>2026-04-06T14:28:33.864Z</time></trkpt><trkpt lat="40.4737547" lon="16.1595798"><ele>878.0</ele><time>2026-04-06T14:28:34.864Z</time></trkpt><trkpt lat="40.4738973" lon="16.1595803"><ele>878.0</ele><time>2026-04-06T14:28:35.864Z</time></trkpt><trkpt lat="40.4740424" lon="16.1595904"><ele>878.0</ele><time>2026-04-06T14:28:36.865Z</time></trkpt><trkpt lat="40.4741877" lon="16.1596003"><ele>877.25</ele><time>2026-04-06T14:28:37.864Z</time></trkpt><trkpt lat="40.4743236" lon="16.1596119"><ele>876.5</ele><time>2026-04-06T14:28:38.864Z</time></trkpt><trkpt lat="40.4744479" lon="16.159623"><ele>875.75</ele><time>2026-04-06T14:28:39.864Z</time></trkpt><trkpt lat="40.4745647" lon="16.1596295"><ele>875.0</ele><time>2026-04-06T14:28:40.865Z</time></trkpt><trkpt lat="40.4746642" lon="16.1596195"><ele>873.8333333333334</ele><time>2026-04-06T14:28:41.864Z</time></trkpt><trkpt lat="40.4747482" lon="16.1595914"><ele>872.6666666666667</ele><time>2026-04-06T14:28:42.864Z</time></trkpt><trkpt lat="40.4748226" lon="16.1595286"><ele>871.5</ele><time>2026-04-06T14:28:43.864Z</time></trkpt><trkpt lat="40.4748864" lon="16.1594493"><ele>870.3333333333333</ele><time>2026-04-06T14:28:44.865Z</time></trkpt><trkpt lat="40.4749425" lon="16.1593673"><ele>869.1666666666666</ele><time>2026-04-06T14:28:45.864Z</time></trkpt><trkpt lat="40.4749966" lon="16.1593081"><ele>868.0</ele><time>2026-04-06T14:28:46.864Z</time></trkpt><trkpt lat="40.4750569" lon="16.1592754"><ele>868.0</ele><time>2026-04-06T14:28:47.864Z</time></trkpt><trkpt lat="40.4751907" lon="16.1592972"><ele>868.0</ele><time>2026-04-06T14:28:49.864Z</time></trkpt><trkpt lat="40.4752754" lon="16.1593329"><ele>868.0</ele><time>2026-04-06T14:28:50.864Z</time></trkpt><trkpt lat="40.4753618" lon="16.1593674"><ele>868.0</ele><time>2026-04-06T14:28:51.864Z</time></trkpt><trkpt lat="40.4754499" lon="16.1593989"><ele>868.0</ele><time>2026-04-06T14:28:52.864Z</time></trkpt><trkpt lat="40.4755343" lon="16.1594256"><ele>866.2</ele><time>2026-04-06T14:28:53.864Z</time></trkpt><trkpt lat="40.4756221" lon="16.1594483"><ele>864.4</ele><time>2026-04-06T14:28:54.864Z</time></trkpt><trkpt lat="40.4757119" lon="16.1594786"><ele>862.6000000000001</ele><time>2026-04-06T14:28:55.864Z</time></trkpt><trkpt lat="40.475802" lon="16.1595192"><ele>860.8000000000001</ele><time>2026-04-06T14:28:56.864Z</time></trkpt><trkpt lat="40.4758884" lon="16.1595712"><ele>859.0</ele><time>2026-04-06T14:28:57.864Z</time></trkpt><trkpt lat="40.4759721" lon="16.1596351"><ele>859.0</ele><time>2026-04-06T14:28:58.864Z</time></trkpt><trkpt lat="40.4760486" lon="16.1597041"><ele>859.0000000000001</ele><time>2026-04-06T14:28:59.865Z</time></trkpt><trkpt lat="40.476131" lon="16.1597765"><ele>859.0000000000001</ele><time>2026-04-06T14:29:00.864Z</time></trkpt><trkpt lat="40.4762129" lon="16.1598485"><ele>859.0</ele><time>2026-04-06T14:29:01.864Z</time></trkpt><trkpt lat="40.4762947" lon="16.1599235"><ele>859.0</ele><time>2026-04-06T14:29:02.864Z</time></trkpt><trkpt lat="40.4763727" lon="16.160007"><ele>859.8000000000001</ele><time>2026-04-06T14:29:03.864Z</time></trkpt><trkpt lat="40.4764468" lon="16.1601037"><ele>860.6000000000001</ele><time>2026-04-06T14:29:04.864Z</time></trkpt><trkpt lat="40.4765115" lon="16.1602184"><ele>861.4</ele><time>2026-04-06T14:29:05.864Z</time></trkpt><trkpt lat="40.4765633" lon="16.1603531"><ele>862.2</ele><time>2026-04-06T14:29:06.864Z</time></trkpt><trkpt lat="40.476618" lon="16.1604925"><ele>863.0</ele><time>2026-04-06T14:29:07.864Z</time></trkpt><trkpt lat="40.4766955" lon="16.1606184"><ele>862.0</ele><time>2026-04-06T14:29:08.864Z</time></trkpt><trkpt lat="40.4767943" lon="16.1607233"><ele>861.0</ele><time>2026-04-06T14:29:09.864Z</time></trkpt><trkpt lat="40.4769186" lon="16.1608056"><ele>860.0</ele><time>2026-04-06T14:29:10.864Z</time></trkpt><trkpt lat="40.4770509" lon="16.1608816"><ele>859.0</ele><time>2026-04-06T14:29:11.864Z</time></trkpt><trkpt lat="40.4771793" lon="16.1609634"><ele>859.0</ele><time>2026-04-06T14:29:12.864Z</time></trkpt><trkpt lat="40.4773048" lon="16.1610524"><ele>859.0</ele><time>2026-04-06T14:29:13.864Z</time></trkpt><trkpt lat="40.4774277" lon="16.1611507"><ele>859.0</ele><time>2026-04-06T14:29:14.864Z</time></trkpt><trkpt lat="40.4775444" lon="16.1612541"><ele>859.0</ele><time>2026-04-06T14:29:15.864Z</time></trkpt><trkpt lat="40.477648" lon="16.1613386"><ele>859.0</ele><time>2026-04-06T14:29:16.864Z</time></trkpt><trkpt lat="40.4777535" lon="16.1614136"><ele>859.0</ele><time>2026-04-06T14:29:17.864Z</time></trkpt><trkpt lat="40.4778695" lon="16.1614643"><ele>859.0</ele><time>2026-04-06T14:29:18.864Z</time></trkpt><trkpt lat="40.4779959" lon="16.1614898"><ele>859.0</ele><time>2026-04-06T14:29:19.865Z</time></trkpt><trkpt lat="40.4781264" lon="16.1614965"><ele>855.0</ele><time>2026-04-06T14:29:20.864Z</time></trkpt><trkpt lat="40.4782612" lon="16.1614916"><ele>851.0</ele><time>2026-04-06T14:29:21.865Z</time></trkpt><trkpt lat="40.4783992" lon="16.1614807"><ele>847.0</ele><time>2026-04-06T14:29:22.864Z</time></trkpt><trkpt lat="40.4785347" lon="16.1614613"><ele>843.0</ele><time>2026-04-06T14:29:23.864Z</time></trkpt><trkpt lat="40.4786566" lon="16.1614301"><ele>843.0</ele><time>2026-04-06T14:29:24.864Z</time></trkpt><trkpt lat="40.4787657" lon="16.1613684"><ele>843.0</ele><time>2026-04-06T14:29:25.864Z</time></trkpt><trkpt lat="40.478864" lon="16.1612707"><ele>843.0</ele><time>2026-04-06T14:29:26.864Z</time></trkpt><trkpt lat="40.4789322" lon="16.161142"><ele>843.0</ele><time>2026-04-06T14:29:27.865Z</time></trkpt><trkpt lat="40.4789796" lon="16.161002"><ele>844.8</ele><time>2026-04-06T14:29:28.864Z</time></trkpt><trkpt lat="40.4790287" lon="16.1608632"><ele>846.5999999999999</ele><time>2026-04-06T14:29:29.864Z</time></trkpt><trkpt lat="40.4790818" lon="16.160749"><ele>848.4000000000001</ele><time>2026-04-06T14:29:30.864Z</time></trkpt><trkpt lat="40.4791449" lon="16.1606753"><ele>850.2</ele><time>2026-04-06T14:29:31.864Z</time></trkpt><trkpt lat="40.479223" lon="16.160633"><ele>852.0</ele><time>2026-04-06T14:29:32.865Z</time></trkpt><trkpt lat="40.4793089" lon="16.1606188"><ele>850.2</ele><time>2026-04-06T14:29:33.865Z</time></trkpt><trkpt lat="40.4794029" lon="16.1606259"><ele>848.4000000000001</ele><time>2026-04-06T14:29:34.864Z</time></trkpt><trkpt lat="40.4795004" lon="16.16063"><ele>846.5999999999999</ele><time>2026-04-06T14:29:35.864Z</time></trkpt><trkpt lat="40.4795892" lon="16.1606129"><ele>844.8</ele><time>2026-04-06T14:29:36.864Z</time></trkpt><trkpt lat="40.4796692" lon="16.1605652"><ele>843.0</ele><time>2026-04-06T14:29:37.864Z</time></trkpt><trkpt lat="40.47974" lon="16.1604888"><ele>843.0</ele><time>2026-04-06T14:29:38.865Z</time></trkpt><trkpt lat="40.4797962" lon="16.1603885"><ele>843.0</ele><time>2026-04-06T14:29:39.864Z</time></trkpt><trkpt lat="40.4798398" lon="16.1602772"><ele>843.0</ele><time>2026-04-06T14:29:40.864Z</time></trkpt><trkpt lat="40.4798776" lon="16.1601598"><ele>843.0</ele><time>2026-04-06T14:29:41.865Z</time></trkpt><trkpt lat="40.4799134" lon="16.160041"><ele>843.0</ele><time>2026-04-06T14:29:42.865Z</time></trkpt><trkpt lat="40.479946" lon="16.1599218"><ele>840.6666666666666</ele><time>2026-04-06T14:29:43.864Z</time></trkpt><trkpt lat="40.479981" lon="16.1598099"><ele>838.3333333333333</ele><time>2026-04-06T14:29:44.865Z</time></trkpt><trkpt lat="40.4800241" lon="16.1597138"><ele>836.0</ele><time>2026-04-06T14:29:45.865Z</time></trkpt><trkpt lat="40.4800787" lon="16.1596369"><ele>833.6666666666666</ele><time>2026-04-06T14:29:46.864Z</time></trkpt><trkpt lat="40.4801491" lon="16.1595819"><ele>831.3333333333333</ele><time>2026-04-06T14:29:47.864Z</time></trkpt><trkpt lat="40.4802435" lon="16.1595702"><ele>829.0</ele><time>2026-04-06T14:29:48.864Z</time></trkpt><trkpt lat="40.4803492" lon="16.1595896"><ele>830.6</ele><time>2026-04-06T14:29:49.865Z</time></trkpt><trkpt lat="40.4804549" lon="16.1596163"><ele>832.2</ele><time>2026-04-06T14:29:50.865Z</time></trkpt><trkpt lat="40.4805592" lon="16.1596336"><ele>833.8000000000001</ele><time>2026-04-06T14:29:51.864Z</time></trkpt><trkpt lat="40.480662" lon="16.1596253"><ele>835.4000000000001</ele><time>2026-04-06T14:29:52.865Z</time></trkpt><trkpt lat="40.4807588" lon="16.1595834"><ele>837.0</ele><time>2026-04-06T14:29:53.864Z</time></trkpt><trkpt lat="40.4808494" lon="16.1595044"><ele>837.0</ele><time>2026-04-06T14:29:54.864Z</time></trkpt><trkpt lat="40.4809259" lon="16.159399"><ele>837.0</ele><time>2026-04-06T14:29:55.864Z</time></trkpt><trkpt lat="40.4809909" lon="16.159276"><ele>837.0</ele><time>2026-04-06T14:29:56.864Z</time></trkpt><trkpt lat="40.4810402" lon="16.1591468"><ele>837.0</ele><time>2026-04-06T14:29:57.864Z</time></trkpt><trkpt lat="40.4810737" lon="16.1590154"><ele>837.0</ele><time>2026-04-06T14:29:58.864Z</time></trkpt><trkpt lat="40.481096" lon="16.1588869"><ele>834.6</ele><time>2026-04-06T14:29:59.864Z</time></trkpt><trkpt lat="40.4811215" lon="16.1587667"><ele>832.2</ele><time>2026-04-06T14:30:00.864Z</time></trkpt><trkpt lat="40.4811618" lon="16.158662"><ele>829.8</ele><time>2026-04-06T14:30:01.864Z</time></trkpt><trkpt lat="40.4812283" lon="16.1585878"><ele>827.4</ele><time>2026-04-06T14:30:02.864Z</time></trkpt><trkpt lat="40.4813144" lon="16.1585428"><ele>825.0</ele><time>2026-04-06T14:30:03.865Z</time></trkpt><trkpt lat="40.4814116" lon="16.1585337"><ele>825.0</ele><time>2026-04-06T14:30:04.865Z</time></trkpt><trkpt lat="40.4815132" lon="16.1585581"><ele>825.0</ele><time>2026-04-06T14:30:05.864Z</time></trkpt><trkpt lat="40.4816111" lon="16.1586063"><ele>825.0</ele><time>2026-04-06T14:30:06.864Z</time></trkpt><trkpt lat="40.4817032" lon="16.1586725"><ele>825.0</ele><time>2026-04-06T14:30:07.864Z</time></trkpt><trkpt lat="40.4817912" lon="16.1587448"><ele>825.0</ele><time>2026-04-06T14:30:08.864Z</time></trkpt><trkpt lat="40.4818816" lon="16.1588205"><ele>825.0</ele><time>2026-04-06T14:30:09.864Z</time></trkpt><trkpt lat="40.4819682" lon="16.1588938"><ele>825.0</ele><time>2026-04-06T14:30:10.864Z</time></trkpt><trkpt lat="40.4820599" lon="16.1589628"><ele>825.0</ele><time>2026-04-06T14:30:11.864Z</time></trkpt><trkpt lat="40.4821584" lon="16.1590264"><ele>825.0</ele><time>2026-04-06T14:30:12.864Z</time></trkpt><trkpt lat="40.4822616" lon="16.1590733"><ele>825.0</ele><time>2026-04-06T14:30:13.864Z</time></trkpt><trkpt lat="40.4823658" lon="16.1590994"><ele>825.8333333333334</ele><time>2026-04-06T14:30:14.864Z</time></trkpt><trkpt lat="40.4824679" lon="16.1591049"><ele>826.6666666666667</ele><time>2026-04-06T14:30:15.864Z</time></trkpt><trkpt lat="40.4825606" lon="16.1590863"><ele>827.5</ele><time>2026-04-06T14:30:16.864Z</time></trkpt><trkpt lat="40.4826339" lon="16.1590673"><ele>828.3333333333334</ele><time>2026-04-06T14:30:17.864Z</time></trkpt><trkpt lat="40.4827027" lon="16.159053"><ele>829.1666666666667</ele><time>2026-04-06T14:30:18.864Z</time></trkpt><trkpt lat="40.4827759" lon="16.1590466"><ele>830.0</ele><time>2026-04-06T14:30:19.864Z</time></trkpt><trkpt lat="40.4828585" lon="16.1590455"><ele>829.0</ele><time>2026-04-06T14:30:20.864Z</time></trkpt><trkpt lat="40.4829461" lon="16.1590546"><ele>828.0</ele><time>2026-04-06T14:30:21.864Z</time></trkpt><trkpt lat="40.4830349" lon="16.1590789"><ele>827.0</ele><time>2026-04-06T14:30:22.864Z</time></trkpt><trkpt lat="40.4831223" lon="16.1591022"><ele>826.0</ele><time>2026-04-06T14:30:23.864Z</time></trkpt><trkpt lat="40.4832117" lon="16.1591315"><ele>825.0</ele><time>2026-04-06T14:30:24.864Z</time></trkpt><trkpt lat="40.4833027" lon="16.1591708"><ele>825.0</ele><time>2026-04-06T14:30:25.864Z</time></trkpt><trkpt lat="40.4833879" lon="16.1592194"><ele>825.0</ele><time>2026-04-06T14:30:26.864Z</time></trkpt><trkpt lat="40.483469" lon="16.1592759"><ele>825.0</ele><time>2026-04-06T14:30:27.864Z</time></trkpt><trkpt lat="40.4835453" lon="16.159332"><ele>825.0</ele><time>2026-04-06T14:30:28.864Z</time></trkpt><trkpt lat="40.4836166" lon="16.1593813"><ele>825.0</ele><time>2026-04-06T14:30:29.865Z</time></trkpt><trkpt lat="40.4836891" lon="16.1594192"><ele>825.0</ele><time>2026-04-06T14:30:30.865Z</time></trkpt><trkpt lat="40.4837645" lon="16.1594495"><ele>825.0</ele><time>2026-04-06T14:30:31.864Z</time></trkpt><trkpt lat="40.4838383" lon="16.1594725"><ele>825.0</ele><time>2026-04-06T14:30:32.865Z</time></trkpt><trkpt lat="40.4839168" lon="16.1594728"><ele>825.0</ele><time>2026-04-06T14:30:33.864Z</time></trkpt><trkpt lat="40.4839991" lon="16.1594532"><ele>825.0</ele><time>2026-04-06T14:30:34.864Z</time></trkpt><trkpt lat="40.484079" lon="16.1594238"><ele>825.0</ele><time>2026-04-06T14:30:35.865Z</time></trkpt><trkpt lat="40.4841617" lon="16.1593986"><ele>825.0</ele><time>2026-04-06T14:30:36.864Z</time></trkpt><trkpt lat="40.4842501" lon="16.1593842"><ele>825.0</ele><time>2026-04-06T14:30:37.865Z</time></trkpt><trkpt lat="40.4843376" lon="16.159382"><ele>825.0</ele><time>2026-04-06T14:30:38.864Z</time></trkpt><trkpt lat="40.484423" lon="16.1593833"><ele>825.0</ele><time>2026-04-06T14:30:39.864Z</time></trkpt><trkpt lat="40.4845026" lon="16.1593881"><ele>825.0</ele><time>2026-04-06T14:30:40.864Z</time></trkpt><trkpt lat="40.4845755" lon="16.159394"><ele>825.0</ele><time>2026-04-06T14:30:41.864Z</time></trkpt><trkpt lat="40.484648" lon="16.1594063"><ele>825.0</ele><time>2026-04-06T14:30:42.865Z</time></trkpt><trkpt lat="40.4847218" lon="16.1594272"><ele>823.5</ele><time>2026-04-06T14:30:43.865Z</time></trkpt><trkpt lat="40.4847976" lon="16.1594548"><ele>822.0</ele><time>2026-04-06T14:30:44.864Z</time></trkpt><trkpt lat="40.4848758" lon="16.1594969"><ele>820.5</ele><time>2026-04-06T14:30:45.864Z</time></trkpt><trkpt lat="40.4849581" lon="16.1595501"><ele>819.0</ele><time>2026-04-06T14:30:46.864Z</time></trkpt><trkpt lat="40.4850362" lon="16.1596074"><ele>817.5</ele><time>2026-04-06T14:30:47.864Z</time></trkpt><trkpt lat="40.4851131" lon="16.1596618"><ele>816.0</ele><time>2026-04-06T14:30:48.865Z</time></trkpt><trkpt lat="40.4851903" lon="16.1597202"><ele>816.0</ele><time>2026-04-06T14:30:49.865Z</time></trkpt><trkpt lat="40.4852725" lon="16.1597855"><ele>816.0</ele><time>2026-04-06T14:30:50.865Z</time></trkpt><trkpt lat="40.4853559" lon="16.1598513"><ele>816.0</ele><time>2026-04-06T14:30:51.864Z</time></trkpt><trkpt lat="40.4854357" lon="16.1599153"><ele>816.0</ele><time>2026-04-06T14:30:52.864Z</time></trkpt><trkpt lat="40.4855169" lon="16.1599814"><ele>816.0</ele><time>2026-04-06T14:30:53.864Z</time></trkpt><trkpt lat="40.4855957" lon="16.1600468"><ele>815.5</ele><time>2026-04-06T14:30:54.864Z</time></trkpt><trkpt lat="40.4856698" lon="16.1601107"><ele>815.0</ele><time>2026-04-06T14:30:55.864Z</time></trkpt><trkpt lat="40.4857373" lon="16.1601768"><ele>814.5</ele><time>2026-04-06T14:30:56.864Z</time></trkpt><trkpt lat="40.4858018" lon="16.1602524"><ele>814.0</ele><time>2026-04-06T14:30:57.865Z</time></trkpt><trkpt lat="40.4858603" lon="16.1603298"><ele>813.5</ele><time>2026-04-06T14:30:58.865Z</time></trkpt><trkpt lat="40.485906" lon="16.1603977"><ele>813.0</ele><time>2026-04-06T14:30:59.864Z</time></trkpt><trkpt lat="40.4859408" lon="16.1604699"><ele>813.0</ele><time>2026-04-06T14:31:01.865Z</time></trkpt><trkpt lat="40.4858395" lon="16.160504"><ele>813.0</ele><time>2026-04-06T14:31:05.864Z</time></trkpt><trkpt lat="40.4857788" lon="16.1604727"><ele>813.0</ele><time>2026-04-06T14:31:06.864Z</time></trkpt><trkpt lat="40.4857109" lon="16.1604295"><ele>813.0</ele><time>2026-04-06T14:31:07.865Z</time></trkpt><trkpt lat="40.4856336" lon="16.1603725"><ele>813.0</ele><time>2026-04-06T14:31:08.864Z</time></trkpt><trkpt lat="40.4855453" lon="16.1603123"><ele>813.0</ele><time>2026-04-06T14:31:09.864Z</time></trkpt><trkpt lat="40.4854523" lon="16.160253"><ele>816.2</ele><time>2026-04-06T14:31:10.865Z</time></trkpt><trkpt lat="40.4853589" lon="16.1601854"><ele>819.4</ele><time>2026-04-06T14:31:11.864Z</time></trkpt><trkpt lat="40.4852723" lon="16.1601215"><ele>822.6</ele><time>2026-04-06T14:31:12.864Z</time></trkpt><trkpt lat="40.4851804" lon="16.1600783"><ele>825.8000000000001</ele><time>2026-04-06T14:31:13.865Z</time></trkpt><trkpt lat="40.4850807" lon="16.1600608"><ele>829.0</ele><time>2026-04-06T14:31:14.864Z</time></trkpt><trkpt lat="40.4849861" lon="16.1600606"><ele>829.0</ele><time>2026-04-06T14:31:15.864Z</time></trkpt><trkpt lat="40.4848908" lon="16.1600687"><ele>829.0</ele><time>2026-04-06T14:31:16.865Z</time></trkpt><trkpt lat="40.4847955" lon="16.1600761"><ele>829.0</ele><time>2026-04-06T14:31:17.864Z</time></trkpt><trkpt lat="40.4847055" lon="16.1600736"><ele>829.0</ele><time>2026-04-06T14:31:18.864Z</time></trkpt><trkpt lat="40.4846171" lon="16.1600622"><ele>829.0</ele><time>2026-04-06T14:31:19.864Z</time></trkpt><trkpt lat="40.4845294" lon="16.1600522"><ele>830.4999999999999</ele><time>2026-04-06T14:31:20.864Z</time></trkpt><trkpt lat="40.4844379" lon="16.1600465"><ele>832.0</ele><time>2026-04-06T14:31:21.864Z</time></trkpt><trkpt lat="40.4843502" lon="16.1600532"><ele>833.5</ele><time>2026-04-06T14:31:22.864Z</time></trkpt><trkpt lat="40.4842724" lon="16.1600804"><ele>835.0</ele><time>2026-04-06T14:31:23.864Z</time></trkpt><trkpt lat="40.484195" lon="16.1601376"><ele>836.4999999999999</ele><time>2026-04-06T14:31:24.865Z</time></trkpt><trkpt lat="40.4841251" lon="16.1602253"><ele>838.0</ele><time>2026-04-06T14:31:25.864Z</time></trkpt><trkpt lat="40.4840615" lon="16.1603194"><ele>837.9999999999999</ele><time>2026-04-06T14:31:26.864Z</time></trkpt><trkpt lat="40.484004" lon="16.1604101"><ele>838.0</ele><time>2026-04-06T14:31:27.864Z</time></trkpt><trkpt lat="40.4839494" lon="16.1604952"><ele>838.0</ele><time>2026-04-06T14:31:28.864Z</time></trkpt><trkpt lat="40.4838978" lon="16.1605819"><ele>838.0</ele><time>2026-04-06T14:31:29.864Z</time></trkpt><trkpt lat="40.4838429" lon="16.1606703"><ele>837.9999999999999</ele><time>2026-04-06T14:31:30.864Z</time></trkpt><trkpt lat="40.4837855" lon="16.1607586"><ele>838.0</ele><time>2026-04-06T14:31:31.865Z</time></trkpt><trkpt lat="40.483727" lon="16.1608367"><ele>839.1666666666666</ele><time>2026-04-06T14:31:32.864Z</time></trkpt><trkpt lat="40.4836594" lon="16.1609108"><ele>840.3333333333333</ele><time>2026-04-06T14:31:33.864Z</time></trkpt><trkpt lat="40.483588" lon="16.1609757"><ele>841.5</ele><time>2026-04-06T14:31:34.864Z</time></trkpt><trkpt lat="40.4835103" lon="16.1610336"><ele>842.6666666666667</ele><time>2026-04-06T14:31:35.864Z</time></trkpt><trkpt lat="40.483431" lon="16.1610881"><ele>843.8333333333334</ele><time>2026-04-06T14:31:36.865Z</time></trkpt><trkpt lat="40.4833542" lon="16.1611488"><ele>845.0</ele><time>2026-04-06T14:31:37.864Z</time></trkpt><trkpt lat="40.4832776" lon="16.1612107"><ele>845.0000000000001</ele><time>2026-04-06T14:31:38.864Z</time></trkpt><trkpt lat="40.4832028" lon="16.1612753"><ele>845.0</ele><time>2026-04-06T14:31:39.864Z</time></trkpt><trkpt lat="40.4831337" lon="16.1613445"><ele>845.0</ele><time>2026-04-06T14:31:40.864Z</time></trkpt><trkpt lat="40.4830768" lon="16.1614218"><ele>845.0</ele><time>2026-04-06T14:31:41.865Z</time></trkpt><trkpt lat="40.4830425" lon="16.1615136"><ele>845.0000000000001</ele><time>2026-04-06T14:31:42.864Z</time></trkpt><trkpt lat="40.4830285" lon="16.1616115"><ele>845.0</ele><time>2026-04-06T14:31:43.865Z</time></trkpt><trkpt lat="40.4830412" lon="16.1617039"><ele>846.5000000000001</ele><time>2026-04-06T14:31:44.864Z</time></trkpt><trkpt lat="40.4830711" lon="16.1617769"><ele>848.0</ele><time>2026-04-06T14:31:45.864Z</time></trkpt><trkpt lat="40.4831041" lon="16.1619017"><ele>849.5</ele><time>2026-04-06T14:31:47.864Z</time></trkpt><trkpt lat="40.4830779" lon="16.1620655"><ele>851.0</ele><time>2026-04-06T14:31:49.864Z</time></trkpt><trkpt lat="40.4830591" lon="16.1621594"><ele>852.5000000000001</ele><time>2026-04-06T14:31:50.864Z</time></trkpt><trkpt lat="40.4830453" lon="16.1622566"><ele>854.0</ele><time>2026-04-06T14:31:51.864Z</time></trkpt><trkpt lat="40.4830318" lon="16.1623619"><ele>853.6666666666667</ele><time>2026-04-06T14:31:52.864Z</time></trkpt><trkpt lat="40.483017" lon="16.1624679"><ele>853.3333333333334</ele><time>2026-04-06T14:31:53.864Z</time></trkpt><trkpt lat="40.4830045" lon="16.1625776"><ele>853.0</ele><time>2026-04-06T14:31:54.864Z</time></trkpt><trkpt lat="40.4829921" lon="16.1626873"><ele>852.6666666666667</ele><time>2026-04-06T14:31:55.864Z</time></trkpt><trkpt lat="40.4829925" lon="16.1628042"><ele>852.3333333333334</ele><time>2026-04-06T14:31:56.865Z</time></trkpt><trkpt lat="40.4829977" lon="16.1629265"><ele>852.0</ele><time>2026-04-06T14:31:57.865Z</time></trkpt><trkpt lat="40.4829918" lon="16.1630492"><ele>852.0</ele><time>2026-04-06T14:31:58.864Z</time></trkpt><trkpt lat="40.4829775" lon="16.1631771"><ele>852.0</ele><time>2026-04-06T14:31:59.864Z</time></trkpt><trkpt lat="40.4829515" lon="16.1633022"><ele>852.0</ele><time>2026-04-06T14:32:00.864Z</time></trkpt><trkpt lat="40.4829155" lon="16.163419"><ele>852.0</ele><time>2026-04-06T14:32:01.864Z</time></trkpt><trkpt lat="40.482868" lon="16.1635132"><ele>852.0</ele><time>2026-04-06T14:32:02.864Z</time></trkpt><trkpt lat="40.4828149" lon="16.1635915"><ele>849.1666666666666</ele><time>2026-04-06T14:32:03.864Z</time></trkpt><trkpt lat="40.4827702" lon="16.1636709"><ele>846.3333333333333</ele><time>2026-04-06T14:32:04.864Z</time></trkpt><trkpt lat="40.4827376" lon="16.1637596"><ele>843.5</ele><time>2026-04-06T14:32:05.864Z</time></trkpt><trkpt lat="40.4827125" lon="16.1638588"><ele>840.6666666666666</ele><time>2026-04-06T14:32:06.864Z</time></trkpt><trkpt lat="40.4826943" lon="16.163956"><ele>837.8333333333333</ele><time>2026-04-06T14:32:07.865Z</time></trkpt><trkpt lat="40.4826813" lon="16.1640596"><ele>835.0</ele><time>2026-04-06T14:32:08.865Z</time></trkpt><trkpt lat="40.4826754" lon="16.1641657"><ele>834.6666666666666</ele><time>2026-04-06T14:32:09.864Z</time></trkpt><trkpt lat="40.4826767" lon="16.1642761"><ele>834.3333333333333</ele><time>2026-04-06T14:32:10.864Z</time></trkpt><trkpt lat="40.4826877" lon="16.1643903"><ele>834.0</ele><time>2026-04-06T14:32:11.864Z</time></trkpt><trkpt lat="40.4827129" lon="16.1645042"><ele>833.6666666666667</ele><time>2026-04-06T14:32:12.864Z</time></trkpt><trkpt lat="40.4827476" lon="16.1646155"><ele>833.3333333333334</ele><time>2026-04-06T14:32:13.864Z</time></trkpt><trkpt lat="40.4827813" lon="16.16473"><ele>833.0</ele><time>2026-04-06T14:32:14.864Z</time></trkpt><trkpt lat="40.4828061" lon="16.1648478"><ele>832.1666666666667</ele><time>2026-04-06T14:32:15.864Z</time></trkpt><trkpt lat="40.4828214" lon="16.1649637"><ele>831.3333333333334</ele><time>2026-04-06T14:32:16.864Z</time></trkpt><trkpt lat="40.4828235" lon="16.1650788"><ele>830.5</ele><time>2026-04-06T14:32:17.864Z</time></trkpt><trkpt lat="40.4828239" lon="16.1651886"><ele>829.6666666666667</ele><time>2026-04-06T14:32:18.864Z</time></trkpt><trkpt lat="40.4828327" lon="16.1652905"><ele>828.8333333333334</ele><time>2026-04-06T14:32:19.864Z</time></trkpt><trkpt lat="40.4828593" lon="16.1653872"><ele>828.0</ele><time>2026-04-06T14:32:20.864Z</time></trkpt><trkpt lat="40.4828947" lon="16.1654759"><ele>829.8333333333334</ele><time>2026-04-06T14:32:21.864Z</time></trkpt><trkpt lat="40.4829416" lon="16.1655516"><ele>831.6666666666667</ele><time>2026-04-06T14:32:22.864Z</time></trkpt><trkpt lat="40.4829981" lon="16.1656273"><ele>833.5</ele><time>2026-04-06T14:32:23.865Z</time></trkpt><trkpt lat="40.4830634" lon="16.1657014"><ele>835.3333333333334</ele><time>2026-04-06T14:32:24.864Z</time></trkpt><trkpt lat="40.4831396" lon="16.1657741"><ele>837.1666666666667</ele><time>2026-04-06T14:32:25.864Z</time></trkpt><trkpt lat="40.4832247" lon="16.1658413"><ele>839.0</ele><time>2026-04-06T14:32:26.863Z</time></trkpt><trkpt lat="40.483313" lon="16.165903"><ele>839.0</ele><time>2026-04-06T14:32:27.864Z</time></trkpt><trkpt lat="40.4834079" lon="16.165954"><ele>839.0</ele><time>2026-04-06T14:32:28.863Z</time></trkpt><trkpt lat="40.4835054" lon="16.1659973"><ele>839.0</ele><time>2026-04-06T14:32:29.863Z</time></trkpt><trkpt lat="40.4836016" lon="16.1660369"><ele>839.0</ele><time>2026-04-06T14:32:30.863Z</time></trkpt><trkpt lat="40.4836945" lon="16.1660817"><ele>839.0</ele><time>2026-04-06T14:32:31.863Z</time></trkpt><trkpt lat="40.4837715" lon="16.1661362"><ele>839.4000000000001</ele><time>2026-04-06T14:32:32.863Z</time></trkpt><trkpt lat="40.4838328" lon="16.1661998"><ele>839.8</ele><time>2026-04-06T14:32:33.864Z</time></trkpt><trkpt lat="40.4838801" lon="16.1662668"><ele>840.2</ele><time>2026-04-06T14:32:34.864Z</time></trkpt><trkpt lat="40.4839068" lon="16.166406"><ele>840.5999999999999</ele><time>2026-04-06T14:32:36.863Z</time></trkpt><trkpt lat="40.4838791" lon="16.1665715"><ele>841.0</ele><time>2026-04-06T14:32:38.863Z</time></trkpt><trkpt lat="40.4838561" lon="16.1666727"><ele>840.9999999999999</ele><time>2026-04-06T14:32:39.863Z</time></trkpt><trkpt lat="40.4838388" lon="16.1667773"><ele>841.0</ele><time>2026-04-06T14:32:40.863Z</time></trkpt><trkpt lat="40.4838239" lon="16.1668767"><ele>841.0</ele><time>2026-04-06T14:32:41.863Z</time></trkpt><trkpt lat="40.4838204" lon="16.1669644"><ele>841.0</ele><time>2026-04-06T14:32:42.863Z</time></trkpt><trkpt lat="40.483853" lon="16.1670795"><ele>840.9999999999999</ele><time>2026-04-06T14:32:44.863Z</time></trkpt><trkpt lat="40.4839291" lon="16.1671536"><ele>841.0</ele><time>2026-04-06T14:32:46.863Z</time></trkpt><trkpt lat="40.4840227" lon="16.1671996"><ele>840.9999999999999</ele><time>2026-04-06T14:32:48.863Z</time></trkpt><trkpt lat="40.4841329" lon="16.1672311"><ele>841.0</ele><time>2026-04-06T14:32:50.863Z</time></trkpt><trkpt lat="40.4841984" lon="16.167249"><ele>841.0</ele><time>2026-04-06T14:32:51.863Z</time></trkpt><trkpt lat="40.4842701" lon="16.1672665"><ele>841.0</ele><time>2026-04-06T14:32:52.863Z</time></trkpt><trkpt lat="40.4843471" lon="16.167275"><ele>840.9999999999999</ele><time>2026-04-06T14:32:53.863Z</time></trkpt><trkpt lat="40.4844302" lon="16.1672724"><ele>841.0</ele><time>2026-04-06T14:32:54.863Z</time></trkpt><trkpt lat="40.4845173" lon="16.1672634"><ele>840.6666666666666</ele><time>2026-04-06T14:32:55.863Z</time></trkpt><trkpt lat="40.4846038" lon="16.1672502"><ele>840.3333333333333</ele><time>2026-04-06T14:32:56.863Z</time></trkpt><trkpt lat="40.4846854" lon="16.1672299"><ele>840.0</ele><time>2026-04-06T14:32:57.863Z</time></trkpt><trkpt lat="40.4847643" lon="16.1672079"><ele>839.6666666666667</ele><time>2026-04-06T14:32:58.863Z</time></trkpt><trkpt lat="40.4848449" lon="16.1671868"><ele>839.3333333333334</ele><time>2026-04-06T14:32:59.863Z</time></trkpt><trkpt lat="40.4849264" lon="16.1671659"><ele>839.0</ele><time>2026-04-06T14:33:00.864Z</time></trkpt><trkpt lat="40.4850082" lon="16.1671454"><ele>839.0000000000001</ele><time>2026-04-06T14:33:01.863Z</time></trkpt><trkpt lat="40.4850887" lon="16.1671196"><ele>839.0</ele><time>2026-04-06T14:33:02.863Z</time></trkpt><trkpt lat="40.4851633" lon="16.1670807"><ele>839.0</ele><time>2026-04-06T14:33:03.864Z</time></trkpt><trkpt lat="40.4852346" lon="16.1670185"><ele>839.0</ele><time>2026-04-06T14:33:04.863Z</time></trkpt><trkpt lat="40.4852961" lon="16.1669483"><ele>839.0000000000001</ele><time>2026-04-06T14:33:05.863Z</time></trkpt><trkpt lat="40.4853513" lon="16.1668703"><ele>839.0</ele><time>2026-04-06T14:33:06.863Z</time></trkpt><trkpt lat="40.4854109" lon="16.1667886"><ele>837.0000000000001</ele><time>2026-04-06T14:33:07.863Z</time></trkpt><trkpt lat="40.4854746" lon="16.1667235"><ele>835.0</ele><time>2026-04-06T14:33:08.864Z</time></trkpt><trkpt lat="40.4855357" lon="16.1666795"><ele>833.0</ele><time>2026-04-06T14:33:09.863Z</time></trkpt><trkpt lat="40.4856143" lon="16.1666662"><ele>831.0</ele><time>2026-04-06T14:33:10.863Z</time></trkpt><trkpt lat="40.4856963" lon="16.1667038"><ele>829.0000000000001</ele><time>2026-04-06T14:33:11.863Z</time></trkpt><trkpt lat="40.4857805" lon="16.1667531"><ele>827.0</ele><time>2026-04-06T14:33:12.863Z</time></trkpt><trkpt lat="40.4858587" lon="16.1667919"><ele>827.0</ele><time>2026-04-06T14:33:13.863Z</time></trkpt><trkpt lat="40.4859438" lon="16.1668303"><ele>827.0</ele><time>2026-04-06T14:33:14.863Z</time></trkpt><trkpt lat="40.4860309" lon="16.1668586"><ele>827.0</ele><time>2026-04-06T14:33:15.863Z</time></trkpt><trkpt lat="40.4861222" lon="16.1668851"><ele>827.0</ele><time>2026-04-06T14:33:16.863Z</time></trkpt><trkpt lat="40.4862182" lon="16.1669063"><ele>827.0</ele><time>2026-04-06T14:33:17.863Z</time></trkpt><trkpt lat="40.4863141" lon="16.1669261"><ele>828.4000000000001</ele><time>2026-04-06T14:33:18.863Z</time></trkpt><trkpt lat="40.4864089" lon="16.1669475"><ele>829.8000000000001</ele><time>2026-04-06T14:33:19.864Z</time></trkpt><trkpt lat="40.4865043" lon="16.1669762"><ele>831.2</ele><time>2026-04-06T14:33:20.864Z</time></trkpt><trkpt lat="40.4865969" lon="16.1670164"><ele>832.6</ele><time>2026-04-06T14:33:21.863Z</time></trkpt><trkpt lat="40.4866861" lon="16.1670731"><ele>834.0</ele><time>2026-04-06T14:33:22.863Z</time></trkpt><trkpt lat="40.4867753" lon="16.1671344"><ele>834.0</ele><time>2026-04-06T14:33:23.863Z</time></trkpt><trkpt lat="40.4868622" lon="16.1671928"><ele>834.0</ele><time>2026-04-06T14:33:24.863Z</time></trkpt><trkpt lat="40.4869487" lon="16.1672365"><ele>834.0</ele><time>2026-04-06T14:33:25.863Z</time></trkpt><trkpt lat="40.4870342" lon="16.167272"><ele>834.0</ele><time>2026-04-06T14:33:26.863Z</time></trkpt><trkpt lat="40.4871254" lon="16.1673072"><ele>834.0</ele><time>2026-04-06T14:33:27.863Z</time></trkpt><trkpt lat="40.4872166" lon="16.1673435"><ele>828.5</ele><time>2026-04-06T14:33:28.863Z</time></trkpt><trkpt lat="40.4872994" lon="16.1673809"><ele>823.0</ele><time>2026-04-06T14:33:29.863Z</time></trkpt><trkpt lat="40.4873837" lon="16.1674049"><ele>817.5</ele><time>2026-04-06T14:33:30.863Z</time></trkpt><trkpt lat="40.4874723" lon="16.1674162"><ele>812.0</ele><time>2026-04-06T14:33:31.863Z</time></trkpt><trkpt lat="40.4875633" lon="16.1674272"><ele>806.5</ele><time>2026-04-06T14:33:32.863Z</time></trkpt><trkpt lat="40.4876552" lon="16.167432"><ele>801.0</ele><time>2026-04-06T14:33:33.863Z</time></trkpt><trkpt lat="40.4877487" lon="16.1674311"><ele>801.0</ele><time>2026-04-06T14:33:34.863Z</time></trkpt><trkpt lat="40.4878428" lon="16.1674333"><ele>801.0</ele><time>2026-04-06T14:33:35.863Z</time></trkpt><trkpt lat="40.4879354" lon="16.1674317"><ele>801.0</ele><time>2026-04-06T14:33:36.863Z</time></trkpt><trkpt lat="40.4880227" lon="16.1674284"><ele>801.0</ele><time>2026-04-06T14:33:37.864Z</time></trkpt><trkpt lat="40.4881057" lon="16.167431"><ele>801.0</ele><time>2026-04-06T14:33:38.864Z</time></trkpt><trkpt lat="40.4881802" lon="16.1674526"><ele>801.0</ele><time>2026-04-06T14:33:39.863Z</time></trkpt><trkpt lat="40.4882485" lon="16.1674901"><ele>799.5999999999999</ele><time>2026-04-06T14:33:40.863Z</time></trkpt><trkpt lat="40.4883069" lon="16.1675274"><ele>798.2</ele><time>2026-04-06T14:33:41.863Z</time></trkpt><trkpt lat="40.488402" lon="16.1675616"><ele>796.8</ele><time>2026-04-06T14:33:43.863Z</time></trkpt><trkpt lat="40.4884794" lon="16.1675574"><ele>795.4000000000001</ele><time>2026-04-06T14:33:46.863Z</time></trkpt><trkpt lat="40.4885374" lon="16.1676191"><ele>794.0</ele><time>2026-04-06T14:33:48.863Z</time></trkpt><trkpt lat="40.4886119" lon="16.1677922"><ele>794.0</ele><time>2026-04-06T14:33:50.863Z</time></trkpt><trkpt lat="40.4886633" lon="16.1679114"><ele>794.0</ele><time>2026-04-06T14:33:51.863Z</time></trkpt><trkpt lat="40.4887271" lon="16.1680303"><ele>794.0</ele><time>2026-04-06T14:33:52.863Z</time></trkpt><trkpt lat="40.4887999" lon="16.1681475"><ele>794.0</ele><time>2026-04-06T14:33:53.863Z</time></trkpt><trkpt lat="40.4888701" lon="16.1682694"><ele>794.0</ele><time>2026-04-06T14:33:54.863Z</time></trkpt><trkpt lat="40.488934" lon="16.1683948"><ele>795.25</ele><time>2026-04-06T14:33:55.863Z</time></trkpt><trkpt lat="40.4890027" lon="16.1685219"><ele>796.5</ele><time>2026-04-06T14:33:56.864Z</time></trkpt><trkpt lat="40.4890754" lon="16.1686439"><ele>797.75</ele><time>2026-04-06T14:33:57.864Z</time></trkpt><trkpt lat="40.4891491" lon="16.1687604"><ele>799.0</ele><time>2026-04-06T14:33:58.863Z</time></trkpt><trkpt lat="40.4892308" lon="16.1688714"><ele>799.0</ele><time>2026-04-06T14:33:59.863Z</time></trkpt><trkpt lat="40.4893213" lon="16.1689723"><ele>799.0</ele><time>2026-04-06T14:34:00.863Z</time></trkpt><trkpt lat="40.4894092" lon="16.169063"><ele>799.0</ele><time>2026-04-06T14:34:01.863Z</time></trkpt><trkpt lat="40.4895045" lon="16.1691452"><ele>799.0</ele><time>2026-04-06T14:34:02.863Z</time></trkpt><trkpt lat="40.489601" lon="16.1692281"><ele>800.8000000000001</ele><time>2026-04-06T14:34:03.864Z</time></trkpt><trkpt lat="40.4896832" lon="16.1693153"><ele>802.6</ele><time>2026-04-06T14:34:04.863Z</time></trkpt><trkpt lat="40.4897588" lon="16.1694156"><ele>804.4</ele><time>2026-04-06T14:34:05.863Z</time></trkpt><trkpt lat="40.489809" lon="16.169533"><ele>806.2</ele><time>2026-04-06T14:34:06.863Z</time></trkpt><trkpt lat="40.489831" lon="16.1696641"><ele>808.0</ele><time>2026-04-06T14:34:07.863Z</time></trkpt><trkpt lat="40.4898334" lon="16.1697981"><ele>807.4</ele><time>2026-04-06T14:34:08.864Z</time></trkpt><trkpt lat="40.4898229" lon="16.1699353"><ele>806.8</ele><time>2026-04-06T14:34:09.863Z</time></trkpt><trkpt lat="40.4898096" lon="16.1700717"><ele>806.2</ele><time>2026-04-06T14:34:10.863Z</time></trkpt><trkpt lat="40.4897932" lon="16.1702087"><ele>805.6</ele><time>2026-04-06T14:34:11.863Z</time></trkpt><trkpt lat="40.4897782" lon="16.1703458"><ele>805.0</ele><time>2026-04-06T14:34:12.863Z</time></trkpt><trkpt lat="40.4897664" lon="16.1704803"><ele>805.0</ele><time>2026-04-06T14:34:13.863Z</time></trkpt><trkpt lat="40.4897521" lon="16.1706193"><ele>805.0</ele><time>2026-04-06T14:34:14.864Z</time></trkpt><trkpt lat="40.4897389" lon="16.170765"><ele>805.0</ele><time>2026-04-06T14:34:15.864Z</time></trkpt><trkpt lat="40.48973" lon="16.1709124"><ele>805.0</ele><time>2026-04-06T14:34:16.864Z</time></trkpt><trkpt lat="40.4897304" lon="16.1710589"><ele>805.0</ele><time>2026-04-06T14:34:17.864Z</time></trkpt><trkpt lat="40.4897427" lon="16.1712068"><ele>805.5</ele><time>2026-04-06T14:34:18.864Z</time></trkpt><trkpt lat="40.4897652" lon="16.1713563"><ele>806.0</ele><time>2026-04-06T14:34:19.864Z</time></trkpt><trkpt lat="40.4897985" lon="16.1715049"><ele>806.5</ele><time>2026-04-06T14:34:20.863Z</time></trkpt><trkpt lat="40.4898419" lon="16.1716543"><ele>807.0</ele><time>2026-04-06T14:34:21.864Z</time></trkpt><trkpt lat="40.4898989" lon="16.1718011"><ele>806.0</ele><time>2026-04-06T14:34:22.863Z</time></trkpt><trkpt lat="40.4899628" lon="16.1719437"><ele>805.0</ele><time>2026-04-06T14:34:23.863Z</time></trkpt><trkpt lat="40.4900321" lon="16.1720848"><ele>804.0</ele><time>2026-04-06T14:34:24.863Z</time></trkpt><trkpt lat="40.4901122" lon="16.172214"><ele>803.0</ele><time>2026-04-06T14:34:25.863Z</time></trkpt><trkpt lat="40.4902013" lon="16.1723345"><ele>803.75</ele><time>2026-04-06T14:34:26.864Z</time></trkpt><trkpt lat="40.4902991" lon="16.1724437"><ele>804.5</ele><time>2026-04-06T14:34:27.863Z</time></trkpt><trkpt lat="40.4903992" lon="16.172546"><ele>805.25</ele><time>2026-04-06T14:34:28.863Z</time></trkpt><trkpt lat="40.4905018" lon="16.1726393"><ele>806.0</ele><time>2026-04-06T14:34:29.863Z</time></trkpt><trkpt lat="40.4906086" lon="16.1727211"><ele>806.0</ele><time>2026-04-06T14:34:30.863Z</time></trkpt><trkpt lat="40.4907175" lon="16.1727984"><ele>806.0</ele><time>2026-04-06T14:34:31.863Z</time></trkpt><trkpt lat="40.4908293" lon="16.1728713"><ele>806.0</ele><time>2026-04-06T14:34:32.863Z</time></trkpt><trkpt lat="40.4909444" lon="16.1729359"><ele>806.0</ele><time>2026-04-06T14:34:33.863Z</time></trkpt><trkpt lat="40.491064" lon="16.1729843"><ele>806.0</ele><time>2026-04-06T14:34:34.864Z</time></trkpt><trkpt lat="40.491187" lon="16.1730232"><ele>806.0</ele><time>2026-04-06T14:34:35.864Z</time></trkpt><trkpt lat="40.4913119" lon="16.1730618"><ele>806.0</ele><time>2026-04-06T14:34:36.864Z</time></trkpt><trkpt lat="40.4914395" lon="16.1731029"><ele>806.0</ele><time>2026-04-06T14:34:37.863Z</time></trkpt><trkpt lat="40.4915678" lon="16.1731458"><ele>807.0</ele><time>2026-04-06T14:34:38.863Z</time></trkpt><trkpt lat="40.491695" lon="16.1731937"><ele>808.0</ele><time>2026-04-06T14:34:39.863Z</time></trkpt><trkpt lat="40.4918181" lon="16.1732514"><ele>809.0</ele><time>2026-04-06T14:34:40.864Z</time></trkpt><trkpt lat="40.4919286" lon="16.1733192"><ele>810.0</ele><time>2026-04-06T14:34:41.863Z</time></trkpt><trkpt lat="40.4920161" lon="16.173401"><ele>810.0</ele><time>2026-04-06T14:34:42.864Z</time></trkpt><trkpt lat="40.4920823" lon="16.1735043"><ele>810.0</ele><time>2026-04-06T14:34:43.863Z</time></trkpt><trkpt lat="40.4921422" lon="16.1736156"><ele>810.0</ele><time>2026-04-06T14:34:44.863Z</time></trkpt><trkpt lat="40.4922131" lon="16.1737127"><ele>810.0</ele><time>2026-04-06T14:34:45.863Z</time></trkpt><trkpt lat="40.492299" lon="16.1737775"><ele>810.0</ele><time>2026-04-06T14:34:46.864Z</time></trkpt><trkpt lat="40.4924036" lon="16.1738113"><ele>808.75</ele><time>2026-04-06T14:34:47.863Z</time></trkpt><trkpt lat="40.4925217" lon="16.1738226"><ele>807.5</ele><time>2026-04-06T14:34:48.864Z</time></trkpt><trkpt lat="40.4926506" lon="16.1738169"><ele>806.25</ele><time>2026-04-06T14:34:49.863Z</time></trkpt><trkpt lat="40.4927814" lon="16.1738015"><ele>805.0</ele><time>2026-04-06T14:34:50.864Z</time></trkpt><trkpt lat="40.4929083" lon="16.1737662"><ele>805.0</ele><time>2026-04-06T14:34:51.864Z</time></trkpt><trkpt lat="40.4930289" lon="16.1737142"><ele>805.0</ele><time>2026-04-06T14:34:52.863Z</time></trkpt><trkpt lat="40.4931467" lon="16.1736628"><ele>805.0</ele><time>2026-04-06T14:34:53.863Z</time></trkpt><trkpt lat="40.4932653" lon="16.1736293"><ele>805.0</ele><time>2026-04-06T14:34:54.863Z</time></trkpt><trkpt lat="40.4933891" lon="16.1736202"><ele>805.0</ele><time>2026-04-06T14:34:55.863Z</time></trkpt><trkpt lat="40.4935154" lon="16.1736297"><ele>805.0</ele><time>2026-04-06T14:34:56.863Z</time></trkpt><trkpt lat="40.4936425" lon="16.1736506"><ele>805.0</ele><time>2026-04-06T14:34:57.863Z</time></trkpt><trkpt lat="40.4937723" lon="16.1736853"><ele>805.0</ele><time>2026-04-06T14:34:58.863Z</time></trkpt><trkpt lat="40.4938999" lon="16.1737366"><ele>805.0</ele><time>2026-04-06T14:34:59.864Z</time></trkpt><trkpt lat="40.4940226" lon="16.1737979"><ele>805.0</ele><time>2026-04-06T14:35:00.863Z</time></trkpt><trkpt lat="40.4941444" lon="16.173861"><ele>805.0</ele><time>2026-04-06T14:35:01.863Z</time></trkpt><trkpt lat="40.4942702" lon="16.173916"><ele>805.0</ele><time>2026-04-06T14:35:02.864Z</time></trkpt><trkpt lat="40.4943996" lon="16.1739521"><ele>805.0</ele><time>2026-04-06T14:35:03.863Z</time></trkpt><trkpt lat="40.4945339" lon="16.1739625"><ele>805.0</ele><time>2026-04-06T14:35:04.863Z</time></trkpt><trkpt lat="40.494672" lon="16.1739457"><ele>805.0</ele><time>2026-04-06T14:35:05.863Z</time></trkpt><trkpt lat="40.4948107" lon="16.1739077"><ele>805.0</ele><time>2026-04-06T14:35:06.863Z</time></trkpt><trkpt lat="40.4949447" lon="16.1738485"><ele>807.0</ele><time>2026-04-06T14:35:07.863Z</time></trkpt><trkpt lat="40.4950667" lon="16.1737648"><ele>809.0</ele><time>2026-04-06T14:35:08.863Z</time></trkpt><trkpt lat="40.4951718" lon="16.1736502"><ele>811.0</ele><time>2026-04-06T14:35:09.863Z</time></trkpt><trkpt lat="40.4952623" lon="16.1735128"><ele>813.0</ele><time>2026-04-06T14:35:10.864Z</time></trkpt><trkpt lat="40.4953437" lon="16.1733656"><ele>815.25</ele><time>2026-04-06T14:35:11.863Z</time></trkpt><trkpt lat="40.4954226" lon="16.1732251"><ele>817.5</ele><time>2026-04-06T14:35:12.864Z</time></trkpt><trkpt lat="40.4955015" lon="16.1731051"><ele>819.75</ele><time>2026-04-06T14:35:13.863Z</time></trkpt><trkpt lat="40.4955823" lon="16.1730137"><ele>822.0</ele><time>2026-04-06T14:35:14.863Z</time></trkpt><trkpt lat="40.4956719" lon="16.1729526"><ele>817.4000000000001</ele><time>2026-04-06T14:35:15.863Z</time></trkpt><trkpt lat="40.4957735" lon="16.1729253"><ele>812.8000000000001</ele><time>2026-04-06T14:35:16.863Z</time></trkpt><trkpt lat="40.4958802" lon="16.1729282"><ele>808.2</ele><time>2026-04-06T14:35:17.863Z</time></trkpt><trkpt lat="40.4959849" lon="16.1729615"><ele>803.6</ele><time>2026-04-06T14:35:18.864Z</time></trkpt><trkpt lat="40.49607" lon="16.1730298"><ele>799.0</ele><time>2026-04-06T14:35:19.863Z</time></trkpt><trkpt lat="40.4961179" lon="16.1731283"><ele>803.6</ele><time>2026-04-06T14:35:20.863Z</time></trkpt><trkpt lat="40.4961403" lon="16.1732497"><ele>808.2</ele><time>2026-04-06T14:35:21.863Z</time></trkpt><trkpt lat="40.4961187" lon="16.1733905"><ele>812.8000000000001</ele><time>2026-04-06T14:35:22.863Z</time></trkpt><trkpt lat="40.4960833" lon="16.1735419"><ele>817.4000000000001</ele><time>2026-04-06T14:35:23.863Z</time></trkpt><trkpt lat="40.4960636" lon="16.1737017"><ele>822.0</ele><time>2026-04-06T14:35:24.864Z</time></trkpt><trkpt lat="40.4960736" lon="16.1738565"><ele>822.0</ele><time>2026-04-06T14:35:25.864Z</time></trkpt><trkpt lat="40.4961167" lon="16.1740095"><ele>822.0</ele><time>2026-04-06T14:35:26.864Z</time></trkpt><trkpt lat="40.4961772" lon="16.174147"><ele>822.0</ele><time>2026-04-06T14:35:27.863Z</time></trkpt><trkpt lat="40.4962729" lon="16.1742645"><ele>822.0</ele><time>2026-04-06T14:35:28.863Z</time></trkpt><trkpt lat="40.4963886" lon="16.174357"><ele>818.75</ele><time>2026-04-06T14:35:29.864Z</time></trkpt><trkpt lat="40.4965199" lon="16.1744306"><ele>815.5</ele><time>2026-04-06T14:35:30.863Z</time></trkpt><trkpt lat="40.4966591" lon="16.1744897"><ele>812.25</ele><time>2026-04-06T14:35:31.863Z</time></trkpt><trkpt lat="40.4968012" lon="16.1745441"><ele>809.0</ele><time>2026-04-06T14:35:32.863Z</time></trkpt><trkpt lat="40.4969324" lon="16.1745976"><ele>809.0</ele><time>2026-04-06T14:35:33.863Z</time></trkpt><trkpt lat="40.4970415" lon="16.1746544"><ele>809.0</ele><time>2026-04-06T14:35:34.863Z</time></trkpt><trkpt lat="40.4971268" lon="16.1747207"><ele>809.0</ele><time>2026-04-06T14:35:35.863Z</time></trkpt><trkpt lat="40.4971839" lon="16.1748043"><ele>809.0</ele><time>2026-04-06T14:35:36.863Z</time></trkpt><trkpt lat="40.4972074" lon="16.1749025"><ele>809.0</ele><time>2026-04-06T14:35:37.863Z</time></trkpt><trkpt lat="40.4972095" lon="16.1750038"><ele>809.8000000000001</ele><time>2026-04-06T14:35:38.863Z</time></trkpt><trkpt lat="40.497151" lon="16.1750883"><ele>810.6</ele><time>2026-04-06T14:35:39.863Z</time></trkpt><trkpt lat="40.4970726" lon="16.1751415"><ele>811.4</ele><time>2026-04-06T14:35:40.863Z</time></trkpt><trkpt lat="40.4969791" lon="16.1751651"><ele>812.2</ele><time>2026-04-06T14:35:41.863Z</time></trkpt><trkpt lat="40.4968726" lon="16.1751655"><ele>813.0</ele><time>2026-04-06T14:35:42.863Z</time></trkpt><trkpt lat="40.4967596" lon="16.1751616"><ele>815.0</ele><time>2026-04-06T14:35:43.864Z</time></trkpt><trkpt lat="40.4966406" lon="16.1751882"><ele>817.0</ele><time>2026-04-06T14:35:44.864Z</time></trkpt><trkpt lat="40.4965311" lon="16.1752588"><ele>819.0</ele><time>2026-04-06T14:35:45.863Z</time></trkpt><trkpt lat="40.4964355" lon="16.1753737"><ele>821.0</ele><time>2026-04-06T14:35:46.863Z</time></trkpt><trkpt lat="40.4963545" lon="16.1755229"><ele>821.0</ele><time>2026-04-06T14:35:47.864Z</time></trkpt><trkpt lat="40.4962817" lon="16.1756824"><ele>821.0</ele><time>2026-04-06T14:35:48.863Z</time></trkpt><trkpt lat="40.4962077" lon="16.1758473"><ele>821.0</ele><time>2026-04-06T14:35:49.863Z</time></trkpt><trkpt lat="40.4961354" lon="16.1760061"><ele>821.0</ele><time>2026-04-06T14:35:50.863Z</time></trkpt><trkpt lat="40.4960467" lon="16.1761482"><ele>823.25</ele><time>2026-04-06T14:35:51.863Z</time></trkpt><trkpt lat="40.4959519" lon="16.1762514"><ele>825.5</ele><time>2026-04-06T14:35:52.863Z</time></trkpt><trkpt lat="40.4958531" lon="16.1763335"><ele>827.75</ele><time>2026-04-06T14:35:53.863Z</time></trkpt><trkpt lat="40.4957363" lon="16.1763855"><ele>830.0</ele><time>2026-04-06T14:35:54.863Z</time></trkpt><trkpt lat="40.495599" lon="16.1764371"><ele>830.0</ele><time>2026-04-06T14:35:55.864Z</time></trkpt><trkpt lat="40.4954606" lon="16.1765122"><ele>830.0</ele><time>2026-04-06T14:35:56.864Z</time></trkpt><trkpt lat="40.4953376" lon="16.1766075"><ele>830.0</ele><time>2026-04-06T14:35:57.864Z</time></trkpt><trkpt lat="40.4952446" lon="16.1767392"><ele>830.0</ele><time>2026-04-06T14:35:58.863Z</time></trkpt><trkpt lat="40.495182" lon="16.1768974"><ele>832.0</ele><time>2026-04-06T14:35:59.864Z</time></trkpt><trkpt lat="40.4951363" lon="16.1770693"><ele>834.0</ele><time>2026-04-06T14:36:00.863Z</time></trkpt><trkpt lat="40.4951099" lon="16.1772479"><ele>836.0</ele><time>2026-04-06T14:36:01.863Z</time></trkpt><trkpt lat="40.4950859" lon="16.1774195"><ele>838.0</ele><time>2026-04-06T14:36:02.863Z</time></trkpt><trkpt lat="40.4950539" lon="16.1775668"><ele>832.75</ele><time>2026-04-06T14:36:03.863Z</time></trkpt><trkpt lat="40.4949913" lon="16.1776776"><ele>827.5</ele><time>2026-04-06T14:36:04.864Z</time></trkpt><trkpt lat="40.4949127" lon="16.1777592"><ele>822.25</ele><time>2026-04-06T14:36:05.863Z</time></trkpt><trkpt lat="40.4948083" lon="16.1778007"><ele>817.0</ele><time>2026-04-06T14:36:06.864Z</time></trkpt><trkpt lat="40.4946726" lon="16.1778263"><ele>822.0</ele><time>2026-04-06T14:36:07.863Z</time></trkpt><trkpt lat="40.4945192" lon="16.1778552"><ele>827.0</ele><time>2026-04-06T14:36:08.864Z</time></trkpt><trkpt lat="40.4943619" lon="16.1778985"><ele>832.0</ele><time>2026-04-06T14:36:09.863Z</time></trkpt><trkpt lat="40.494204" lon="16.1779716"><ele>832.0</ele><time>2026-04-06T14:36:10.863Z</time></trkpt><trkpt lat="40.4940584" lon="16.1780676"><ele>832.0</ele><time>2026-04-06T14:36:11.863Z</time></trkpt><trkpt lat="40.4939266" lon="16.1781856"><ele>832.0</ele><time>2026-04-06T14:36:12.863Z</time></trkpt><trkpt lat="40.4938079" lon="16.1783207"><ele>830.3333333333333</ele><time>2026-04-06T14:36:13.863Z</time></trkpt><trkpt lat="40.4937096" lon="16.1784853"><ele>828.6666666666667</ele><time>2026-04-06T14:36:14.863Z</time></trkpt><trkpt lat="40.4936222" lon="16.1786683"><ele>827.0</ele><time>2026-04-06T14:36:15.864Z</time></trkpt><trkpt lat="40.4935483" lon="16.1788536"><ele>822.75</ele><time>2026-04-06T14:36:16.863Z</time></trkpt><trkpt lat="40.4934749" lon="16.1790356"><ele>818.5</ele><time>2026-04-06T14:36:17.863Z</time></trkpt><trkpt lat="40.4933876" lon="16.1791887"><ele>814.25</ele><time>2026-04-06T14:36:18.863Z</time></trkpt><trkpt lat="40.493299" lon="16.1793251"><ele>810.0</ele><time>2026-04-06T14:36:19.863Z</time></trkpt><trkpt lat="40.4932166" lon="16.1794725"><ele>810.0</ele><time>2026-04-06T14:36:20.863Z</time></trkpt><trkpt lat="40.4931474" lon="16.1796407"><ele>810.0</ele><time>2026-04-06T14:36:21.863Z</time></trkpt><trkpt lat="40.4930987" lon="16.1798184"><ele>810.0</ele><time>2026-04-06T14:36:22.864Z</time></trkpt><trkpt lat="40.4930573" lon="16.1800056"><ele>810.0</ele><time>2026-04-06T14:36:23.863Z</time></trkpt><trkpt lat="40.4930192" lon="16.1801936"><ele>810.0</ele><time>2026-04-06T14:36:24.863Z</time></trkpt><trkpt lat="40.4929828" lon="16.1803828"><ele>810.0</ele><time>2026-04-06T14:36:25.864Z</time></trkpt><trkpt lat="40.49294" lon="16.1805796"><ele>810.0</ele><time>2026-04-06T14:36:26.863Z</time></trkpt><trkpt lat="40.4929053" lon="16.1807773"><ele>810.0</ele><time>2026-04-06T14:36:27.863Z</time></trkpt><trkpt lat="40.4928819" lon="16.1809734"><ele>810.0</ele><time>2026-04-06T14:36:28.864Z</time></trkpt><trkpt lat="40.4928747" lon="16.1811599"><ele>810.0</ele><time>2026-04-06T14:36:29.863Z</time></trkpt><trkpt lat="40.4928705" lon="16.181342"><ele>810.0</ele><time>2026-04-06T14:36:30.863Z</time></trkpt><trkpt lat="40.4928581" lon="16.1815137"><ele>807.25</ele><time>2026-04-06T14:36:31.864Z</time></trkpt><trkpt lat="40.4928353" lon="16.1816725"><ele>804.5</ele><time>2026-04-06T14:36:32.864Z</time></trkpt><trkpt lat="40.4928128" lon="16.1818277"><ele>801.75</ele><time>2026-04-06T14:36:33.863Z</time></trkpt><trkpt lat="40.4928082" lon="16.1819746"><ele>799.0</ele><time>2026-04-06T14:36:34.863Z</time></trkpt><trkpt lat="40.4928294" lon="16.1821209"><ele>799.0</ele><time>2026-04-06T14:36:35.863Z</time></trkpt><trkpt lat="40.4928763" lon="16.1822651"><ele>799.0</ele><time>2026-04-06T14:36:36.863Z</time></trkpt><trkpt lat="40.4929463" lon="16.1824016"><ele>799.0</ele><time>2026-04-06T14:36:37.863Z</time></trkpt><trkpt lat="40.4930362" lon="16.182524"><ele>799.0</ele><time>2026-04-06T14:36:38.863Z</time></trkpt><trkpt lat="40.4931375" lon="16.1826385"><ele>794.5</ele><time>2026-04-06T14:36:39.863Z</time></trkpt><trkpt lat="40.4932262" lon="16.1827551"><ele>790.0</ele><time>2026-04-06T14:36:40.864Z</time></trkpt><trkpt lat="40.4932909" lon="16.1828877"><ele>785.5</ele><time>2026-04-06T14:36:41.864Z</time></trkpt><trkpt lat="40.4933338" lon="16.1830427"><ele>781.0</ele><time>2026-04-06T14:36:42.863Z</time></trkpt><trkpt lat="40.4933507" lon="16.183201"><ele>780.5</ele><time>2026-04-06T14:36:43.863Z</time></trkpt><trkpt lat="40.4933619" lon="16.1833616"><ele>780.0</ele><time>2026-04-06T14:36:44.863Z</time></trkpt><trkpt lat="40.493369" lon="16.1835198"><ele>779.5</ele><time>2026-04-06T14:36:45.863Z</time></trkpt><trkpt lat="40.4933743" lon="16.183678"><ele>779.0</ele><time>2026-04-06T14:36:46.863Z</time></trkpt><trkpt lat="40.4933885" lon="16.1838401"><ele>779.0</ele><time>2026-04-06T14:36:47.864Z</time></trkpt><trkpt lat="40.4934127" lon="16.1840102"><ele>779.0</ele><time>2026-04-06T14:36:48.863Z</time></trkpt><trkpt lat="40.4934458" lon="16.1841893"><ele>779.0</ele><time>2026-04-06T14:36:49.863Z</time></trkpt><trkpt lat="40.4934934" lon="16.1843723"><ele>779.0</ele><time>2026-04-06T14:36:50.863Z</time></trkpt><trkpt lat="40.4935483" lon="16.1845619"><ele>776.6666666666667</ele><time>2026-04-06T14:36:51.863Z</time></trkpt><trkpt lat="40.4936024" lon="16.184753"><ele>774.3333333333333</ele><time>2026-04-06T14:36:52.863Z</time></trkpt><trkpt lat="40.4936505" lon="16.1849494"><ele>772.0</ele><time>2026-04-06T14:36:53.863Z</time></trkpt><trkpt lat="40.4937005" lon="16.1851444"><ele>773.0</ele><time>2026-04-06T14:36:54.863Z</time></trkpt><trkpt lat="40.4937547" lon="16.1853336"><ele>774.0</ele><time>2026-04-06T14:36:55.863Z</time></trkpt><trkpt lat="40.4938071" lon="16.185528"><ele>775.0</ele><time>2026-04-06T14:36:56.863Z</time></trkpt><trkpt lat="40.4938626" lon="16.1857225"><ele>775.0</ele><time>2026-04-06T14:36:57.864Z</time></trkpt><trkpt lat="40.4939181" lon="16.185916"><ele>775.0</ele><time>2026-04-06T14:36:58.863Z</time></trkpt><trkpt lat="40.4939744" lon="16.1861104"><ele>775.0</ele><time>2026-04-06T14:36:59.863Z</time></trkpt><trkpt lat="40.4940203" lon="16.1862946"><ele>775.0</ele><time>2026-04-06T14:37:00.863Z</time></trkpt><trkpt lat="40.4940555" lon="16.1864745"><ele>775.0</ele><time>2026-04-06T14:37:01.863Z</time></trkpt><trkpt lat="40.4940816" lon="16.1866485"><ele>775.0</ele><time>2026-04-06T14:37:02.864Z</time></trkpt><trkpt lat="40.4940864" lon="16.1868197"><ele>775.0</ele><time>2026-04-06T14:37:03.863Z</time></trkpt><trkpt lat="40.4940663" lon="16.1869852"><ele>775.0</ele><time>2026-04-06T14:37:04.863Z</time></trkpt><trkpt lat="40.494037" lon="16.187152"><ele>775.0</ele><time>2026-04-06T14:37:05.863Z</time></trkpt><trkpt lat="40.4940287" lon="16.1873248"><ele>775.0</ele><time>2026-04-06T14:37:06.863Z</time></trkpt><trkpt lat="40.4940449" lon="16.1874927"><ele>775.0</ele><time>2026-04-06T14:37:07.863Z</time></trkpt><trkpt lat="40.4940812" lon="16.1876604"><ele>774.25</ele><time>2026-04-06T14:37:08.863Z</time></trkpt><trkpt lat="40.4941311" lon="16.1878351"><ele>773.5</ele><time>2026-04-06T14:37:09.863Z</time></trkpt><trkpt lat="40.4941823" lon="16.1880088"><ele>772.75</ele><time>2026-04-06T14:37:10.863Z</time></trkpt><trkpt lat="40.4942307" lon="16.1881827"><ele>772.0</ele><time>2026-04-06T14:37:11.863Z</time></trkpt><trkpt lat="40.4942773" lon="16.1883507"><ele>770.25</ele><time>2026-04-06T14:37:12.863Z</time></trkpt><trkpt lat="40.4943144" lon="16.1885069"><ele>768.5</ele><time>2026-04-06T14:37:13.863Z</time></trkpt><trkpt lat="40.4943339" lon="16.1886584"><ele>766.75</ele><time>2026-04-06T14:37:14.863Z</time></trkpt><trkpt lat="40.4943266" lon="16.1888086"><ele>765.0</ele><time>2026-04-06T14:37:15.863Z</time></trkpt><trkpt lat="40.4942912" lon="16.1889525"><ele>765.0</ele><time>2026-04-06T14:37:16.864Z</time></trkpt><trkpt lat="40.4942254" lon="16.1890911"><ele>765.0</ele><time>2026-04-06T14:37:17.864Z</time></trkpt><trkpt lat="40.4941381" lon="16.1892218"><ele>765.0</ele><time>2026-04-06T14:37:18.863Z</time></trkpt><trkpt lat="40.4940353" lon="16.1893451"><ele>765.0</ele><time>2026-04-06T14:37:19.863Z</time></trkpt><trkpt lat="40.4939347" lon="16.1894664"><ele>765.0</ele><time>2026-04-06T14:37:20.864Z</time></trkpt><trkpt lat="40.4938432" lon="16.1895947"><ele>765.0</ele><time>2026-04-06T14:37:21.864Z</time></trkpt><trkpt lat="40.4937688" lon="16.1897357"><ele>765.0</ele><time>2026-04-06T14:37:22.863Z</time></trkpt><trkpt lat="40.493719" lon="16.1898823"><ele>765.0</ele><time>2026-04-06T14:37:23.863Z</time></trkpt><trkpt lat="40.4937039" lon="16.1900362"><ele>766.6</ele><time>2026-04-06T14:37:24.863Z</time></trkpt><trkpt lat="40.4937166" lon="16.1901864"><ele>768.2</ele><time>2026-04-06T14:37:25.863Z</time></trkpt><trkpt lat="40.4937571" lon="16.1903238"><ele>769.8</ele><time>2026-04-06T14:37:26.863Z</time></trkpt><trkpt lat="40.4938076" lon="16.1904405"><ele>771.4</ele><time>2026-04-06T14:37:27.863Z</time></trkpt><trkpt lat="40.4938408" lon="16.1905445"><ele>773.0</ele><time>2026-04-06T14:37:28.863Z</time></trkpt><trkpt lat="40.4938515" lon="16.1906452"><ele>774.5999999999999</ele><time>2026-04-06T14:37:29.864Z</time></trkpt><trkpt lat="40.4938348" lon="16.190743"><ele>776.1999999999999</ele><time>2026-04-06T14:37:30.863Z</time></trkpt><trkpt lat="40.4937835" lon="16.1908389"><ele>777.8</ele><time>2026-04-06T14:37:31.863Z</time></trkpt><trkpt lat="40.4936981" lon="16.1909208"><ele>779.4</ele><time>2026-04-06T14:37:32.863Z</time></trkpt><trkpt lat="40.4935819" lon="16.1909708"><ele>781.0</ele><time>2026-04-06T14:37:33.863Z</time></trkpt><trkpt lat="40.4934587" lon="16.19101"><ele>773.5</ele><time>2026-04-06T14:37:34.864Z</time></trkpt><trkpt lat="40.4933334" lon="16.1910488"><ele>766.0</ele><time>2026-04-06T14:37:35.864Z</time></trkpt><trkpt lat="40.4932192" lon="16.1910963"><ele>758.5</ele><time>2026-04-06T14:37:36.863Z</time></trkpt><trkpt lat="40.493101" lon="16.1911622"><ele>751.0</ele><time>2026-04-06T14:37:37.864Z</time></trkpt><trkpt lat="40.4929894" lon="16.1912451"><ele>751.5</ele><time>2026-04-06T14:37:38.863Z</time></trkpt><trkpt lat="40.492875" lon="16.191343"><ele>752.0</ele><time>2026-04-06T14:37:39.863Z</time></trkpt><trkpt lat="40.4927656" lon="16.1914502"><ele>752.5</ele><time>2026-04-06T14:37:40.863Z</time></trkpt><trkpt lat="40.4926632" lon="16.191556"><ele>753.0</ele><time>2026-04-06T14:37:41.863Z</time></trkpt><trkpt lat="40.4925704" lon="16.1916579"><ele>753.0</ele><time>2026-04-06T14:37:42.864Z</time></trkpt><trkpt lat="40.4924864" lon="16.1917627"><ele>753.0</ele><time>2026-04-06T14:37:43.864Z</time></trkpt><trkpt lat="40.4924085" lon="16.1918741"><ele>753.0</ele><time>2026-04-06T14:37:44.863Z</time></trkpt><trkpt lat="40.4923359" lon="16.1919935"><ele>753.0</ele><time>2026-04-06T14:37:45.863Z</time></trkpt><trkpt lat="40.4922745" lon="16.1921193"><ele>753.0</ele><time>2026-04-06T14:37:46.863Z</time></trkpt><trkpt lat="40.4922115" lon="16.192233"><ele>753.0</ele><time>2026-04-06T14:37:47.863Z</time></trkpt><trkpt lat="40.4921429" lon="16.1923287"><ele>753.0</ele><time>2026-04-06T14:37:48.863Z</time></trkpt><trkpt lat="40.492067" lon="16.1923851"><ele>753.0</ele><time>2026-04-06T14:37:49.864Z</time></trkpt><trkpt lat="40.4919873" lon="16.1924022"><ele>753.0</ele><time>2026-04-06T14:37:50.863Z</time></trkpt><trkpt lat="40.4918953" lon="16.1923535"><ele>748.75</ele><time>2026-04-06T14:37:51.864Z</time></trkpt><trkpt lat="40.4917931" lon="16.1922689"><ele>744.5</ele><time>2026-04-06T14:37:52.863Z</time></trkpt><trkpt lat="40.4916881" lon="16.192176"><ele>740.25</ele><time>2026-04-06T14:37:53.863Z</time></trkpt><trkpt lat="40.4915781" lon="16.1920839"><ele>736.0</ele><time>2026-04-06T14:37:54.863Z</time></trkpt><trkpt lat="40.4914684" lon="16.1919994"><ele>736.0</ele><time>2026-04-06T14:37:55.863Z</time></trkpt><trkpt lat="40.4913632" lon="16.1919219"><ele>736.0</ele><time>2026-04-06T14:37:56.863Z</time></trkpt><trkpt lat="40.4912619" lon="16.1918639"><ele>736.0</ele><time>2026-04-06T14:37:57.863Z</time></trkpt><trkpt lat="40.4911603" lon="16.1918379"><ele>736.0</ele><time>2026-04-06T14:37:58.863Z</time></trkpt><trkpt lat="40.4910613" lon="16.1918668"><ele>736.0</ele><time>2026-04-06T14:37:59.864Z</time></trkpt><trkpt lat="40.4909704" lon="16.191942"><ele>734.5</ele><time>2026-04-06T14:38:00.863Z</time></trkpt><trkpt lat="40.4908936" lon="16.1920505"><ele>733.0</ele><time>2026-04-06T14:38:01.863Z</time></trkpt><trkpt lat="40.4908253" lon="16.1921752"><ele>731.5</ele><time>2026-04-06T14:38:02.863Z</time></trkpt><trkpt lat="40.4907556" lon="16.1922992"><ele>730.0</ele><time>2026-04-06T14:38:03.863Z</time></trkpt><trkpt lat="40.4906762" lon="16.1924097"><ele>729.0</ele><time>2026-04-06T14:38:04.863Z</time></trkpt><trkpt lat="40.4905809" lon="16.1924994"><ele>728.0</ele><time>2026-04-06T14:38:05.863Z</time></trkpt><trkpt lat="40.4904804" lon="16.1925804"><ele>727.0</ele><time>2026-04-06T14:38:06.863Z</time></trkpt><trkpt lat="40.4903809" lon="16.1926706"><ele>726.0</ele><time>2026-04-06T14:38:07.863Z</time></trkpt><trkpt lat="40.4902861" lon="16.1927747"><ele>726.0</ele><time>2026-04-06T14:38:08.863Z</time></trkpt><trkpt lat="40.4901913" lon="16.1928837"><ele>726.0</ele><time>2026-04-06T14:38:09.863Z</time></trkpt><trkpt lat="40.4901002" lon="16.1929969"><ele>726.0</ele><time>2026-04-06T14:38:10.864Z</time></trkpt><trkpt lat="40.4900115" lon="16.1931098"><ele>726.0</ele><time>2026-04-06T14:38:11.863Z</time></trkpt><trkpt lat="40.4899248" lon="16.1932257"><ele>728.5999999999999</ele><time>2026-04-06T14:38:12.863Z</time></trkpt><trkpt lat="40.4898431" lon="16.1933383"><ele>731.2</ele><time>2026-04-06T14:38:13.863Z</time></trkpt><trkpt lat="40.4897747" lon="16.1934475"><ele>733.8</ele><time>2026-04-06T14:38:14.863Z</time></trkpt><trkpt lat="40.48973" lon="16.1935601"><ele>736.4000000000001</ele><time>2026-04-06T14:38:15.863Z</time></trkpt><trkpt lat="40.4897102" lon="16.1936844"><ele>739.0</ele><time>2026-04-06T14:38:16.864Z</time></trkpt><trkpt lat="40.4897211" lon="16.1938197"><ele>739.0</ele><time>2026-04-06T14:38:17.864Z</time></trkpt><trkpt lat="40.489739" lon="16.1939557"><ele>739.0</ele><time>2026-04-06T14:38:18.863Z</time></trkpt><trkpt lat="40.4897433" lon="16.1940831"><ele>739.0</ele><time>2026-04-06T14:38:19.863Z</time></trkpt><trkpt lat="40.4897113" lon="16.1942002"><ele>739.0</ele><time>2026-04-06T14:38:20.863Z</time></trkpt><trkpt lat="40.4896442" lon="16.1943061"><ele>739.0</ele><time>2026-04-06T14:38:21.863Z</time></trkpt><trkpt lat="40.4895559" lon="16.1944014"><ele>735.25</ele><time>2026-04-06T14:38:22.863Z</time></trkpt><trkpt lat="40.4894561" lon="16.1944859"><ele>731.5</ele><time>2026-04-06T14:38:23.863Z</time></trkpt><trkpt lat="40.4893468" lon="16.1945638"><ele>727.75</ele><time>2026-04-06T14:38:24.863Z</time></trkpt><trkpt lat="40.4892268" lon="16.1946241"><ele>724.0</ele><time>2026-04-06T14:38:25.863Z</time></trkpt><trkpt lat="40.4891006" lon="16.1946791"><ele>724.0</ele><time>2026-04-06T14:38:26.863Z</time></trkpt><trkpt lat="40.4889712" lon="16.1947322"><ele>724.0</ele><time>2026-04-06T14:38:27.864Z</time></trkpt><trkpt lat="40.4888444" lon="16.194799"><ele>724.0</ele><time>2026-04-06T14:38:28.863Z</time></trkpt><trkpt lat="40.4887307" lon="16.1948896"><ele>724.0</ele><time>2026-04-06T14:38:29.863Z</time></trkpt><trkpt lat="40.4886325" lon="16.1950017"><ele>724.6</ele><time>2026-04-06T14:38:30.863Z</time></trkpt><trkpt lat="40.48854" lon="16.1951157"><ele>725.2</ele><time>2026-04-06T14:38:31.863Z</time></trkpt><trkpt lat="40.4884542" lon="16.1952192"><ele>725.8000000000001</ele><time>2026-04-06T14:38:32.863Z</time></trkpt><trkpt lat="40.4883707" lon="16.1953043"><ele>726.4000000000001</ele><time>2026-04-06T14:38:33.863Z</time></trkpt><trkpt lat="40.4882824" lon="16.1953542"><ele>727.0</ele><time>2026-04-06T14:38:34.863Z</time></trkpt><trkpt lat="40.4881851" lon="16.1953657"><ele>727.0</ele><time>2026-04-06T14:38:35.863Z</time></trkpt><trkpt lat="40.4880828" lon="16.1953633"><ele>727.0</ele><time>2026-04-06T14:38:36.863Z</time></trkpt><trkpt lat="40.4879878" lon="16.1953811"><ele>727.0</ele><time>2026-04-06T14:38:37.864Z</time></trkpt><trkpt lat="40.4879123" lon="16.1954392"><ele>727.0</ele><time>2026-04-06T14:38:38.864Z</time></trkpt><trkpt lat="40.4878521" lon="16.1955332"><ele>727.0</ele><time>2026-04-06T14:38:39.864Z</time></trkpt><trkpt lat="40.4878246" lon="16.1956754"><ele>728.0</ele><time>2026-04-06T14:38:40.863Z</time></trkpt><trkpt lat="40.4878144" lon="16.1958452"><ele>729.0</ele><time>2026-04-06T14:38:41.863Z</time></trkpt><trkpt lat="40.4878119" lon="16.1960108"><ele>730.0</ele><time>2026-04-06T14:38:42.863Z</time></trkpt><trkpt lat="40.4878137" lon="16.1961673"><ele>731.0</ele><time>2026-04-06T14:38:43.863Z</time></trkpt><trkpt lat="40.4878288" lon="16.196312"><ele>731.0</ele><time>2026-04-06T14:38:44.863Z</time></trkpt><trkpt lat="40.4878783" lon="16.1964375"><ele>731.0</ele><time>2026-04-06T14:38:45.863Z</time></trkpt><trkpt lat="40.4879558" lon="16.1965454"><ele>731.0</ele><time>2026-04-06T14:38:46.863Z</time></trkpt><trkpt lat="40.4880526" lon="16.196623"><ele>731.0</ele><time>2026-04-06T14:38:47.864Z</time></trkpt><trkpt lat="40.4881636" lon="16.1966629"><ele>731.0</ele><time>2026-04-06T14:38:48.863Z</time></trkpt><trkpt lat="40.4882853" lon="16.1966624"><ele>729.5</ele><time>2026-04-06T14:38:49.863Z</time></trkpt><trkpt lat="40.4884149" lon="16.1966309"><ele>728.0</ele><time>2026-04-06T14:38:50.864Z</time></trkpt><trkpt lat="40.4885436" lon="16.1965941"><ele>726.5</ele><time>2026-04-06T14:38:51.863Z</time></trkpt><trkpt lat="40.4886695" lon="16.1965534"><ele>725.0</ele><time>2026-04-06T14:38:52.863Z</time></trkpt><trkpt lat="40.4887955" lon="16.1965262"><ele>725.0</ele><time>2026-04-06T14:38:53.863Z</time></trkpt><trkpt lat="40.4889207" lon="16.1965193"><ele>725.0</ele><time>2026-04-06T14:38:54.863Z</time></trkpt><trkpt lat="40.4890381" lon="16.1965395"><ele>725.0</ele><time>2026-04-06T14:38:55.863Z</time></trkpt><trkpt lat="40.4891551" lon="16.1965902"><ele>725.0</ele><time>2026-04-06T14:38:56.863Z</time></trkpt><trkpt lat="40.4892593" lon="16.1966799"><ele>725.0</ele><time>2026-04-06T14:38:57.864Z</time></trkpt><trkpt lat="40.4893559" lon="16.1967904"><ele>725.0</ele><time>2026-04-06T14:38:58.863Z</time></trkpt><trkpt lat="40.489442" lon="16.1969219"><ele>725.0</ele><time>2026-04-06T14:38:59.864Z</time></trkpt><trkpt lat="40.4895187" lon="16.1970561"><ele>725.0</ele><time>2026-04-06T14:39:00.863Z</time></trkpt><trkpt lat="40.4895869" lon="16.1972058"><ele>723.25</ele><time>2026-04-06T14:39:01.863Z</time></trkpt><trkpt lat="40.4896474" lon="16.1973629"><ele>721.5</ele><time>2026-04-06T14:39:02.863Z</time></trkpt><trkpt lat="40.4897159" lon="16.1975126"><ele>719.75</ele><time>2026-04-06T14:39:03.863Z</time></trkpt><trkpt lat="40.4897969" lon="16.1976486"><ele>718.0</ele><time>2026-04-06T14:39:04.863Z</time></trkpt><trkpt lat="40.4898959" lon="16.1977673"><ele>718.0</ele><time>2026-04-06T14:39:05.863Z</time></trkpt><trkpt lat="40.4900048" lon="16.197868"><ele>718.0</ele><time>2026-04-06T14:39:06.863Z</time></trkpt><trkpt lat="40.4901239" lon="16.1979658"><ele>718.0</ele><time>2026-04-06T14:39:07.863Z</time></trkpt><trkpt lat="40.4902409" lon="16.1980638"><ele>718.0</ele><time>2026-04-06T14:39:08.863Z</time></trkpt><trkpt lat="40.4903504" lon="16.198166"><ele>718.25</ele><time>2026-04-06T14:39:09.863Z</time></trkpt><trkpt lat="40.4904547" lon="16.1982824"><ele>718.5</ele><time>2026-04-06T14:39:10.863Z</time></trkpt><trkpt lat="40.4905551" lon="16.1984101"><ele>718.75</ele><time>2026-04-06T14:39:11.863Z</time></trkpt><trkpt lat="40.4906533" lon="16.1985397"><ele>719.0</ele><time>2026-04-06T14:39:12.863Z</time></trkpt><trkpt lat="40.4907496" lon="16.1986647"><ele>719.0</ele><time>2026-04-06T14:39:13.863Z</time></trkpt><trkpt lat="40.4908414" lon="16.1987826"><ele>719.0</ele><time>2026-04-06T14:39:14.863Z</time></trkpt><trkpt lat="40.4909269" lon="16.1988946"><ele>719.0</ele><time>2026-04-06T14:39:15.864Z</time></trkpt><trkpt lat="40.4910086" lon="16.1990057"><ele>719.0</ele><time>2026-04-06T14:39:16.864Z</time></trkpt><trkpt lat="40.4910927" lon="16.199114"><ele>718.5</ele><time>2026-04-06T14:39:17.863Z</time></trkpt><trkpt lat="40.4911805" lon="16.1992147"><ele>718.0</ele><time>2026-04-06T14:39:18.864Z</time></trkpt><trkpt lat="40.4912781" lon="16.1993065"><ele>717.5</ele><time>2026-04-06T14:39:19.864Z</time></trkpt><trkpt lat="40.4913774" lon="16.199384"><ele>717.0</ele><time>2026-04-06T14:39:20.863Z</time></trkpt><trkpt lat="40.4914833" lon="16.1994419"><ele>717.0</ele><time>2026-04-06T14:39:21.863Z</time></trkpt><trkpt lat="40.4915895" lon="16.1994896"><ele>717.0</ele><time>2026-04-06T14:39:22.863Z</time></trkpt><trkpt lat="40.4916964" lon="16.1995322"><ele>717.0</ele><time>2026-04-06T14:39:23.864Z</time></trkpt><trkpt lat="40.4917977" lon="16.1995743"><ele>717.0</ele><time>2026-04-06T14:39:24.863Z</time></trkpt><trkpt lat="40.491889" lon="16.1996227"><ele>717.0</ele><time>2026-04-06T14:39:25.863Z</time></trkpt><trkpt lat="40.4919635" lon="16.1996883"><ele>717.0</ele><time>2026-04-06T14:39:26.863Z</time></trkpt><trkpt lat="40.4920228" lon="16.1997751"><ele>717.0</ele><time>2026-04-06T14:39:27.863Z</time></trkpt><trkpt lat="40.4920337" lon="16.199885"><ele>717.0</ele><time>2026-04-06T14:39:28.863Z</time></trkpt><trkpt lat="40.4920086" lon="16.2000085"><ele>717.0</ele><time>2026-04-06T14:39:29.863Z</time></trkpt><trkpt lat="40.4919527" lon="16.2001349"><ele>717.0</ele><time>2026-04-06T14:39:30.863Z</time></trkpt><trkpt lat="40.4918864" lon="16.2002633"><ele>715.5</ele><time>2026-04-06T14:39:31.864Z</time></trkpt><trkpt lat="40.4918187" lon="16.2004009"><ele>714.0</ele><time>2026-04-06T14:39:32.864Z</time></trkpt><trkpt lat="40.4917545" lon="16.2005388"><ele>712.5</ele><time>2026-04-06T14:39:33.863Z</time></trkpt><trkpt lat="40.4917032" lon="16.2006934"><ele>711.0</ele><time>2026-04-06T14:39:34.863Z</time></trkpt><trkpt lat="40.4916718" lon="16.2008454"><ele>711.0</ele><time>2026-04-06T14:39:35.863Z</time></trkpt><trkpt lat="40.491657" lon="16.2010023"><ele>711.0</ele><time>2026-04-06T14:39:36.863Z</time></trkpt><trkpt lat="40.4916506" lon="16.2011556"><ele>711.0</ele><time>2026-04-06T14:39:37.863Z</time></trkpt><trkpt lat="40.4916341" lon="16.201298"><ele>711.0</ele><time>2026-04-06T14:39:38.862Z</time></trkpt><trkpt lat="40.4916044" lon="16.2014282"><ele>713.75</ele><time>2026-04-06T14:39:39.862Z</time></trkpt><trkpt lat="40.4915554" lon="16.2015517"><ele>716.5</ele><time>2026-04-06T14:39:40.862Z</time></trkpt><trkpt lat="40.4914858" lon="16.2016616"><ele>719.25</ele><time>2026-04-06T14:39:41.862Z</time></trkpt><trkpt lat="40.491396" lon="16.2017585"><ele>722.0</ele><time>2026-04-06T14:39:42.862Z</time></trkpt><trkpt lat="40.4912909" lon="16.2018436"><ele>716.0</ele><time>2026-04-06T14:39:43.862Z</time></trkpt><trkpt lat="40.4911711" lon="16.2019145"><ele>710.0</ele><time>2026-04-06T14:39:44.863Z</time></trkpt><trkpt lat="40.491047" lon="16.2019814"><ele>704.0</ele><time>2026-04-06T14:39:45.863Z</time></trkpt><trkpt lat="40.4909205" lon="16.2020468"><ele>698.0</ele><time>2026-04-06T14:39:46.863Z</time></trkpt><trkpt lat="40.4907966" lon="16.2021098"><ele>698.0</ele><time>2026-04-06T14:39:47.862Z</time></trkpt><trkpt lat="40.4906782" lon="16.2021869"><ele>698.0</ele><time>2026-04-06T14:39:48.863Z</time></trkpt><trkpt lat="40.4905641" lon="16.2022938"><ele>698.0</ele><time>2026-04-06T14:39:49.863Z</time></trkpt><trkpt lat="40.490452" lon="16.2024276"><ele>698.0</ele><time>2026-04-06T14:39:50.862Z</time></trkpt><trkpt lat="40.4903376" lon="16.2025665"><ele>696.75</ele><time>2026-04-06T14:39:51.862Z</time></trkpt><trkpt lat="40.4902199" lon="16.202702"><ele>695.5</ele><time>2026-04-06T14:39:52.862Z</time></trkpt><trkpt lat="40.4901064" lon="16.2028328"><ele>694.25</ele><time>2026-04-06T14:39:53.862Z</time></trkpt><trkpt lat="40.4900168" lon="16.2029678"><ele>693.0</ele><time>2026-04-06T14:39:54.862Z</time></trkpt><trkpt lat="40.4899533" lon="16.2031167"><ele>695.25</ele><time>2026-04-06T14:39:55.862Z</time></trkpt><trkpt lat="40.4899191" lon="16.2032797"><ele>697.5</ele><time>2026-04-06T14:39:56.862Z</time></trkpt><trkpt lat="40.4899058" lon="16.2034565"><ele>699.75</ele><time>2026-04-06T14:39:57.862Z</time></trkpt><trkpt lat="40.4898961" lon="16.2036366"><ele>702.0</ele><time>2026-04-06T14:39:58.862Z</time></trkpt><trkpt lat="40.4898853" lon="16.2038151"><ele>702.0</ele><time>2026-04-06T14:39:59.862Z</time></trkpt><trkpt lat="40.4898923" lon="16.2039913"><ele>702.0</ele><time>2026-04-06T14:40:00.862Z</time></trkpt><trkpt lat="40.4899219" lon="16.2041642"><ele>702.0</ele><time>2026-04-06T14:40:01.862Z</time></trkpt><trkpt lat="40.4899618" lon="16.204334"><ele>702.0</ele><time>2026-04-06T14:40:02.862Z</time></trkpt><trkpt lat="40.4900009" lon="16.2044967"><ele>702.0</ele><time>2026-04-06T14:40:03.862Z</time></trkpt><trkpt lat="40.4900234" lon="16.2046567"><ele>702.0</ele><time>2026-04-06T14:40:04.862Z</time></trkpt><trkpt lat="40.4900242" lon="16.2048202"><ele>702.0</ele><time>2026-04-06T14:40:05.863Z</time></trkpt><trkpt lat="40.4900018" lon="16.2049859"><ele>702.0</ele><time>2026-04-06T14:40:06.862Z</time></trkpt><trkpt lat="40.4899566" lon="16.205145"><ele>702.0</ele><time>2026-04-06T14:40:07.862Z</time></trkpt><trkpt lat="40.4898907" lon="16.2052964"><ele>702.0</ele><time>2026-04-06T14:40:08.862Z</time></trkpt><trkpt lat="40.4898038" lon="16.2054437"><ele>702.0</ele><time>2026-04-06T14:40:09.862Z</time></trkpt><trkpt lat="40.48971" lon="16.20559"><ele>702.0</ele><time>2026-04-06T14:40:10.862Z</time></trkpt><trkpt lat="40.4896168" lon="16.205742"><ele>698.75</ele><time>2026-04-06T14:40:11.862Z</time></trkpt><trkpt lat="40.4895292" lon="16.2058997"><ele>695.5</ele><time>2026-04-06T14:40:12.862Z</time></trkpt><trkpt lat="40.4894534" lon="16.2060658"><ele>692.25</ele><time>2026-04-06T14:40:13.862Z</time></trkpt><trkpt lat="40.4893901" lon="16.2062466"><ele>689.0</ele><time>2026-04-06T14:40:14.862Z</time></trkpt><trkpt lat="40.489333" lon="16.2064319"><ele>691.0</ele><time>2026-04-06T14:40:15.862Z</time></trkpt><trkpt lat="40.4892715" lon="16.2066113"><ele>693.0</ele><time>2026-04-06T14:40:16.862Z</time></trkpt><trkpt lat="40.4891979" lon="16.2067779"><ele>695.0</ele><time>2026-04-06T14:40:17.863Z</time></trkpt><trkpt lat="40.4891124" lon="16.2069242"><ele>697.0</ele><time>2026-04-06T14:40:18.862Z</time></trkpt><trkpt lat="40.4890248" lon="16.2070509"><ele>697.0</ele><time>2026-04-06T14:40:19.863Z</time></trkpt><trkpt lat="40.4889457" lon="16.207176"><ele>697.0</ele><time>2026-04-06T14:40:20.863Z</time></trkpt><trkpt lat="40.4888864" lon="16.2073173"><ele>697.0</ele><time>2026-04-06T14:40:21.862Z</time></trkpt><trkpt lat="40.4888479" lon="16.2074787"><ele>697.0</ele><time>2026-04-06T14:40:22.862Z</time></trkpt><trkpt lat="40.488813" lon="16.2076512"><ele>698.75</ele><time>2026-04-06T14:40:23.862Z</time></trkpt><trkpt lat="40.4887673" lon="16.2078201"><ele>700.5</ele><time>2026-04-06T14:40:24.863Z</time></trkpt><trkpt lat="40.4887032" lon="16.2079845"><ele>702.25</ele><time>2026-04-06T14:40:25.863Z</time></trkpt><trkpt lat="40.4886243" lon="16.2081411"><ele>704.0</ele><time>2026-04-06T14:40:26.863Z</time></trkpt><trkpt lat="40.4885424" lon="16.2082933"><ele>700.25</ele><time>2026-04-06T14:40:27.862Z</time></trkpt><trkpt lat="40.4884571" lon="16.2084448"><ele>696.5</ele><time>2026-04-06T14:40:28.862Z</time></trkpt><trkpt lat="40.4883705" lon="16.2086003"><ele>692.75</ele><time>2026-04-06T14:40:29.862Z</time></trkpt><trkpt lat="40.4882834" lon="16.208758"><ele>689.0</ele><time>2026-04-06T14:40:30.863Z</time></trkpt><trkpt lat="40.4881946" lon="16.208916"><ele>691.0</ele><time>2026-04-06T14:40:31.862Z</time></trkpt><trkpt lat="40.4881084" lon="16.209072"><ele>693.0</ele><time>2026-04-06T14:40:32.863Z</time></trkpt><trkpt lat="40.4880285" lon="16.20923"><ele>695.0</ele><time>2026-04-06T14:40:33.862Z</time></trkpt><trkpt lat="40.4879515" lon="16.2093895"><ele>697.0</ele><time>2026-04-06T14:40:34.862Z</time></trkpt><trkpt lat="40.4878711" lon="16.2095492"><ele>694.5</ele><time>2026-04-06T14:40:35.862Z</time></trkpt><trkpt lat="40.4877846" lon="16.2097079"><ele>692.0</ele><time>2026-04-06T14:40:36.862Z</time></trkpt><trkpt lat="40.4876979" lon="16.209864"><ele>689.5</ele><time>2026-04-06T14:40:37.862Z</time></trkpt><trkpt lat="40.4876111" lon="16.210018"><ele>687.0</ele><time>2026-04-06T14:40:38.862Z</time></trkpt><trkpt lat="40.4875249" lon="16.2101682"><ele>687.0</ele><time>2026-04-06T14:40:39.862Z</time></trkpt><trkpt lat="40.4874478" lon="16.210312"><ele>687.0</ele><time>2026-04-06T14:40:40.862Z</time></trkpt><trkpt lat="40.4873747" lon="16.2104488"><ele>687.0</ele><time>2026-04-06T14:40:41.862Z</time></trkpt><trkpt lat="40.4873121" lon="16.2105791"><ele>687.0</ele><time>2026-04-06T14:40:42.863Z</time></trkpt><trkpt lat="40.4872725" lon="16.2107096"><ele>687.4000000000001</ele><time>2026-04-06T14:40:43.862Z</time></trkpt><trkpt lat="40.487269" lon="16.2108384"><ele>687.8000000000001</ele><time>2026-04-06T14:40:44.863Z</time></trkpt><trkpt lat="40.4873021" lon="16.2109674"><ele>688.2</ele><time>2026-04-06T14:40:45.863Z</time></trkpt><trkpt lat="40.4873693" lon="16.2110949"><ele>688.6</ele><time>2026-04-06T14:40:46.862Z</time></trkpt><trkpt lat="40.4874461" lon="16.2112181"><ele>689.0</ele><time>2026-04-06T14:40:47.862Z</time></trkpt><trkpt lat="40.4875162" lon="16.2113507"><ele>689.0</ele><time>2026-04-06T14:40:48.863Z</time></trkpt><trkpt lat="40.4875787" lon="16.2114886"><ele>689.0</ele><time>2026-04-06T14:40:49.862Z</time></trkpt><trkpt lat="40.4876295" lon="16.2116357"><ele>689.0</ele><time>2026-04-06T14:40:50.862Z</time></trkpt><trkpt lat="40.4876703" lon="16.2117959"><ele>689.0</ele><time>2026-04-06T14:40:51.862Z</time></trkpt><trkpt lat="40.4877054" lon="16.2119659"><ele>687.5</ele><time>2026-04-06T14:40:52.862Z</time></trkpt><trkpt lat="40.4877395" lon="16.2121403"><ele>686.0</ele><time>2026-04-06T14:40:53.862Z</time></trkpt><trkpt lat="40.4877683" lon="16.2123205"><ele>684.5</ele><time>2026-04-06T14:40:54.863Z</time></trkpt><trkpt lat="40.4877903" lon="16.2125058"><ele>683.0</ele><time>2026-04-06T14:40:55.862Z</time></trkpt><trkpt lat="40.4878026" lon="16.2126947"><ele>682.5</ele><time>2026-04-06T14:40:56.862Z</time></trkpt><trkpt lat="40.4878005" lon="16.2128879"><ele>682.0</ele><time>2026-04-06T14:40:57.862Z</time></trkpt><trkpt lat="40.4877842" lon="16.2130793"><ele>681.5</ele><time>2026-04-06T14:40:58.862Z</time></trkpt><trkpt lat="40.4877641" lon="16.2132654"><ele>681.0</ele><time>2026-04-06T14:40:59.862Z</time></trkpt><trkpt lat="40.4877449" lon="16.2134392"><ele>681.0</ele><time>2026-04-06T14:41:00.862Z</time></trkpt><trkpt lat="40.4877349" lon="16.2136029"><ele>681.0</ele><time>2026-04-06T14:41:01.863Z</time></trkpt><trkpt lat="40.487744" lon="16.2137569"><ele>681.0</ele><time>2026-04-06T14:41:02.862Z</time></trkpt><trkpt lat="40.4877872" lon="16.2138897"><ele>681.0</ele><time>2026-04-06T14:41:03.863Z</time></trkpt><trkpt lat="40.4878563" lon="16.2140018"><ele>680.8</ele><time>2026-04-06T14:41:04.862Z</time></trkpt><trkpt lat="40.4879448" lon="16.2140879"><ele>680.5999999999999</ele><time>2026-04-06T14:41:05.863Z</time></trkpt><trkpt lat="40.4880469" lon="16.2141481"><ele>680.4</ele><time>2026-04-06T14:41:06.862Z</time></trkpt><trkpt lat="40.4881589" lon="16.2141664"><ele>680.2</ele><time>2026-04-06T14:41:07.862Z</time></trkpt><trkpt lat="40.488267" lon="16.2141328"><ele>680.0</ele><time>2026-04-06T14:41:08.863Z</time></trkpt><trkpt lat="40.4883663" lon="16.2140523"><ele>683.75</ele><time>2026-04-06T14:41:09.862Z</time></trkpt><trkpt lat="40.4884567" lon="16.213931"><ele>687.5</ele><time>2026-04-06T14:41:10.863Z</time></trkpt><trkpt lat="40.4885424" lon="16.2138096"><ele>691.25</ele><time>2026-04-06T14:41:11.862Z</time></trkpt><trkpt lat="40.4886251" lon="16.2136932"><ele>695.0</ele><time>2026-04-06T14:41:12.863Z</time></trkpt><trkpt lat="40.4887126" lon="16.2135841"><ele>691.8</ele><time>2026-04-06T14:41:13.862Z</time></trkpt><trkpt lat="40.4888147" lon="16.2135013"><ele>688.6</ele><time>2026-04-06T14:41:14.862Z</time></trkpt><trkpt lat="40.4889164" lon="16.2134531"><ele>685.4000000000001</ele><time>2026-04-06T14:41:15.863Z</time></trkpt><trkpt lat="40.4890215" lon="16.213434"><ele>682.2</ele><time>2026-04-06T14:41:16.863Z</time></trkpt><trkpt lat="40.4891254" lon="16.2134458"><ele>679.0</ele><time>2026-04-06T14:41:17.862Z</time></trkpt><trkpt lat="40.4892251" lon="16.2134878"><ele>679.0</ele><time>2026-04-06T14:41:18.863Z</time></trkpt><trkpt lat="40.4893273" lon="16.2135342"><ele>679.0</ele><time>2026-04-06T14:41:19.862Z</time></trkpt><trkpt lat="40.4894233" lon="16.213569"><ele>679.0</ele><time>2026-04-06T14:41:20.862Z</time></trkpt><trkpt lat="40.4895208" lon="16.2135722"><ele>679.0</ele><time>2026-04-06T14:41:21.862Z</time></trkpt><trkpt lat="40.4896178" lon="16.2135268"><ele>679.0</ele><time>2026-04-06T14:41:22.862Z</time></trkpt><trkpt lat="40.4896985" lon="16.2134392"><ele>677.6</ele><time>2026-04-06T14:41:23.862Z</time></trkpt><trkpt lat="40.4897456" lon="16.2133274"><ele>676.2</ele><time>2026-04-06T14:41:24.862Z</time></trkpt><trkpt lat="40.4897353" lon="16.2131936"><ele>674.8000000000001</ele><time>2026-04-06T14:41:25.862Z</time></trkpt><trkpt lat="40.4896984" lon="16.213044"><ele>673.4000000000001</ele><time>2026-04-06T14:41:26.862Z</time></trkpt><trkpt lat="40.4896527" lon="16.2128839"><ele>672.0</ele><time>2026-04-06T14:41:27.862Z</time></trkpt><trkpt lat="40.4896293" lon="16.2127326"><ele>672.0</ele><time>2026-04-06T14:41:28.863Z</time></trkpt><trkpt lat="40.4896394" lon="16.2125853"><ele>672.0</ele><time>2026-04-06T14:41:29.862Z</time></trkpt><trkpt lat="40.4896811" lon="16.2124515"><ele>672.0</ele><time>2026-04-06T14:41:30.862Z</time></trkpt><trkpt lat="40.4897509" lon="16.2123329"><ele>672.0</ele><time>2026-04-06T14:41:31.862Z</time></trkpt><trkpt lat="40.4898384" lon="16.2122193"><ele>672.0</ele><time>2026-04-06T14:41:32.862Z</time></trkpt><trkpt lat="40.4899271" lon="16.2121078"><ele>672.0</ele><time>2026-04-06T14:41:33.862Z</time></trkpt><trkpt lat="40.4900023" lon="16.2119833"><ele>672.0</ele><time>2026-04-06T14:41:34.862Z</time></trkpt><trkpt lat="40.4900556" lon="16.211856"><ele>672.0</ele><time>2026-04-06T14:41:35.862Z</time></trkpt><trkpt lat="40.4900882" lon="16.2117271"><ele>672.0</ele><time>2026-04-06T14:41:36.862Z</time></trkpt><trkpt lat="40.4900796" lon="16.2115919"><ele>672.0</ele><time>2026-04-06T14:41:37.862Z</time></trkpt><trkpt lat="40.4900467" lon="16.211461"><ele>672.0</ele><time>2026-04-06T14:41:38.862Z</time></trkpt><trkpt lat="40.4900018" lon="16.2113388"><ele>672.0</ele><time>2026-04-06T14:41:39.862Z</time></trkpt><trkpt lat="40.4899723" lon="16.2112277"><ele>672.0</ele><time>2026-04-06T14:41:40.863Z</time></trkpt><trkpt lat="40.4899604" lon="16.2111079"><ele>673.0</ele><time>2026-04-06T14:41:41.862Z</time></trkpt><trkpt lat="40.4899771" lon="16.2109798"><ele>674.0</ele><time>2026-04-06T14:41:42.862Z</time></trkpt><trkpt lat="40.4900263" lon="16.2108473"><ele>675.0</ele><time>2026-04-06T14:41:43.863Z</time></trkpt><trkpt lat="40.4900916" lon="16.2107214"><ele>676.0</ele><time>2026-04-06T14:41:44.862Z</time></trkpt><trkpt lat="40.4901733" lon="16.2105988"><ele>673.75</ele><time>2026-04-06T14:41:45.862Z</time></trkpt><trkpt lat="40.4902636" lon="16.2104829"><ele>671.5</ele><time>2026-04-06T14:41:46.862Z</time></trkpt><trkpt lat="40.4903667" lon="16.210378"><ele>669.25</ele><time>2026-04-06T14:41:47.862Z</time></trkpt><trkpt lat="40.4904793" lon="16.2102856"><ele>667.0</ele><time>2026-04-06T14:41:48.862Z</time></trkpt><trkpt lat="40.4905938" lon="16.2101983"><ele>667.0</ele><time>2026-04-06T14:41:49.862Z</time></trkpt><trkpt lat="40.4907101" lon="16.2101071"><ele>667.0</ele><time>2026-04-06T14:41:50.862Z</time></trkpt><trkpt lat="40.4908261" lon="16.210011"><ele>667.0</ele><time>2026-04-06T14:41:51.862Z</time></trkpt><trkpt lat="40.4909388" lon="16.209905"><ele>667.0</ele><time>2026-04-06T14:41:52.862Z</time></trkpt><trkpt lat="40.4910474" lon="16.209799"><ele>669.4000000000001</ele><time>2026-04-06T14:41:53.862Z</time></trkpt><trkpt lat="40.4911434" lon="16.2096977"><ele>671.8000000000001</ele><time>2026-04-06T14:41:54.863Z</time></trkpt><trkpt lat="40.4912305" lon="16.2096057"><ele>674.2</ele><time>2026-04-06T14:41:55.863Z</time></trkpt><trkpt lat="40.4912954" lon="16.2095096"><ele>676.6</ele><time>2026-04-06T14:41:56.863Z</time></trkpt><trkpt lat="40.4913279" lon="16.2094005"><ele>679.0</ele><time>2026-04-06T14:41:57.863Z</time></trkpt><trkpt lat="40.4913349" lon="16.2092734"><ele>673.0</ele><time>2026-04-06T14:41:58.863Z</time></trkpt><trkpt lat="40.4913215" lon="16.2091316"><ele>667.0</ele><time>2026-04-06T14:41:59.862Z</time></trkpt><trkpt lat="40.4913088" lon="16.2089835"><ele>661.0</ele><time>2026-04-06T14:42:00.863Z</time></trkpt><trkpt lat="40.4913152" lon="16.2088258"><ele>655.0</ele><time>2026-04-06T14:42:01.862Z</time></trkpt><trkpt lat="40.4913425" lon="16.2086711"><ele>655.0</ele><time>2026-04-06T14:42:02.862Z</time></trkpt><trkpt lat="40.4913864" lon="16.2085156"><ele>655.0</ele><time>2026-04-06T14:42:03.862Z</time></trkpt><trkpt lat="40.4914376" lon="16.2083584"><ele>655.0</ele><time>2026-04-06T14:42:04.862Z</time></trkpt><trkpt lat="40.4914891" lon="16.2082029"><ele>655.0</ele><time>2026-04-06T14:42:05.862Z</time></trkpt><trkpt lat="40.4915473" lon="16.2080376"><ele>656.75</ele><time>2026-04-06T14:42:06.862Z</time></trkpt><trkpt lat="40.4916092" lon="16.2078736"><ele>658.5</ele><time>2026-04-06T14:42:07.862Z</time></trkpt><trkpt lat="40.4916696" lon="16.2077124"><ele>660.25</ele><time>2026-04-06T14:42:08.863Z</time></trkpt><trkpt lat="40.4917163" lon="16.207556"><ele>662.0</ele><time>2026-04-06T14:42:09.862Z</time></trkpt><trkpt lat="40.4917525" lon="16.2074066"><ele>663.6</ele><time>2026-04-06T14:42:10.863Z</time></trkpt><trkpt lat="40.4917878" lon="16.2072739"><ele>665.2</ele><time>2026-04-06T14:42:11.862Z</time></trkpt><trkpt lat="40.4918358" lon="16.2071701"><ele>666.8</ele><time>2026-04-06T14:42:12.862Z</time></trkpt><trkpt lat="40.4918938" lon="16.2070863"><ele>668.4</ele><time>2026-04-06T14:42:13.862Z</time></trkpt><trkpt lat="40.4919641" lon="16.2070281"><ele>670.0</ele><time>2026-04-06T14:42:14.862Z</time></trkpt><trkpt lat="40.4920563" lon="16.2070299"><ele>669.0</ele><time>2026-04-06T14:42:15.862Z</time></trkpt><trkpt lat="40.4921587" lon="16.2070654"><ele>668.0</ele><time>2026-04-06T14:42:16.862Z</time></trkpt><trkpt lat="40.4922514" lon="16.207141"><ele>667.0</ele><time>2026-04-06T14:42:17.862Z</time></trkpt><trkpt lat="40.4923362" lon="16.2072554"><ele>666.0</ele><time>2026-04-06T14:42:18.862Z</time></trkpt><trkpt lat="40.4924041" lon="16.2074027"><ele>663.75</ele><time>2026-04-06T14:42:19.862Z</time></trkpt><trkpt lat="40.4924648" lon="16.2075699"><ele>661.5</ele><time>2026-04-06T14:42:20.862Z</time></trkpt><trkpt lat="40.4925252" lon="16.2077321"><ele>659.25</ele><time>2026-04-06T14:42:21.862Z</time></trkpt><trkpt lat="40.4925861" lon="16.207879"><ele>657.0</ele><time>2026-04-06T14:42:22.862Z</time></trkpt><trkpt lat="40.492639" lon="16.2080141"><ele>657.0</ele><time>2026-04-06T14:42:23.862Z</time></trkpt><trkpt lat="40.4926721" lon="16.208146"><ele>657.0</ele><time>2026-04-06T14:42:24.862Z</time></trkpt><trkpt lat="40.4926732" lon="16.208279"><ele>657.0</ele><time>2026-04-06T14:42:25.863Z</time></trkpt><trkpt lat="40.4926483" lon="16.208413"><ele>657.0</ele><time>2026-04-06T14:42:26.863Z</time></trkpt><trkpt lat="40.4926217" lon="16.2085355"><ele>657.0</ele><time>2026-04-06T14:42:27.863Z</time></trkpt><trkpt lat="40.4926209" lon="16.2086534"><ele>658.4000000000001</ele><time>2026-04-06T14:42:28.862Z</time></trkpt><trkpt lat="40.4926515" lon="16.2087557"><ele>659.8000000000001</ele><time>2026-04-06T14:42:29.862Z</time></trkpt><trkpt lat="40.4927045" lon="16.2088441"><ele>661.2</ele><time>2026-04-06T14:42:30.862Z</time></trkpt><trkpt lat="40.4927874" lon="16.2089121"><ele>662.6</ele><time>2026-04-06T14:42:31.862Z</time></trkpt><trkpt lat="40.4928985" lon="16.2089412"><ele>664.0</ele><time>2026-04-06T14:42:32.862Z</time></trkpt><trkpt lat="40.4930546" lon="16.2089316"><ele>664.0</ele><time>2026-04-06T14:42:33.862Z</time></trkpt><trkpt lat="40.4932151" lon="16.2089335"><ele>664.0</ele><time>2026-04-06T14:42:34.862Z</time></trkpt><trkpt lat="40.4933654" lon="16.2089646"><ele>664.0</ele><time>2026-04-06T14:42:35.862Z</time></trkpt><trkpt lat="40.4935073" lon="16.2090176"><ele>660.3333333333334</ele><time>2026-04-06T14:42:36.862Z</time></trkpt><trkpt lat="40.4936436" lon="16.2090956"><ele>656.6666666666666</ele><time>2026-04-06T14:42:37.862Z</time></trkpt><trkpt lat="40.49378" lon="16.2091892"><ele>653.0</ele><time>2026-04-06T14:42:38.862Z</time></trkpt><trkpt lat="40.4939032" lon="16.2092955"><ele>653.0</ele><time>2026-04-06T14:42:39.862Z</time></trkpt><trkpt lat="40.4940149" lon="16.2094108"><ele>653.0</ele><time>2026-04-06T14:42:40.862Z</time></trkpt><trkpt lat="40.4941051" lon="16.2095314"><ele>653.0</ele><time>2026-04-06T14:42:41.862Z</time></trkpt><trkpt lat="40.4941639" lon="16.2096564"><ele>653.0</ele><time>2026-04-06T14:42:42.863Z</time></trkpt><trkpt lat="40.4941907" lon="16.2097907"><ele>650.0</ele><time>2026-04-06T14:42:43.862Z</time></trkpt><trkpt lat="40.494179" lon="16.2099305"><ele>647.0</ele><time>2026-04-06T14:42:44.862Z</time></trkpt><trkpt lat="40.4941588" lon="16.2100736"><ele>644.0</ele><time>2026-04-06T14:42:45.862Z</time></trkpt><trkpt lat="40.4941575" lon="16.2102206"><ele>641.0</ele><time>2026-04-06T14:42:46.863Z</time></trkpt><trkpt lat="40.4941877" lon="16.2103483"><ele>638.0</ele><time>2026-04-06T14:42:47.863Z</time></trkpt><trkpt lat="40.4942501" lon="16.2104634"><ele>638.0</ele><time>2026-04-06T14:42:48.863Z</time></trkpt><trkpt lat="40.494339" lon="16.2105671"><ele>638.0</ele><time>2026-04-06T14:42:49.862Z</time></trkpt><trkpt lat="40.4944454" lon="16.210664"><ele>638.0</ele><time>2026-04-06T14:42:50.862Z</time></trkpt><trkpt lat="40.494565" lon="16.2107562"><ele>638.0</ele><time>2026-04-06T14:42:51.862Z</time></trkpt><trkpt lat="40.494697" lon="16.2108461"><ele>637.75</ele><time>2026-04-06T14:42:52.863Z</time></trkpt><trkpt lat="40.4948254" lon="16.2109378"><ele>637.5</ele><time>2026-04-06T14:42:53.862Z</time></trkpt><trkpt lat="40.4949483" lon="16.2110332"><ele>637.25</ele><time>2026-04-06T14:42:54.862Z</time></trkpt><trkpt lat="40.4950657" lon="16.211124"><ele>637.0</ele><time>2026-04-06T14:42:55.862Z</time></trkpt><trkpt lat="40.4951903" lon="16.2112108"><ele>637.0</ele><time>2026-04-06T14:42:56.862Z</time></trkpt><trkpt lat="40.4953126" lon="16.2112966"><ele>637.0</ele><time>2026-04-06T14:42:57.862Z</time></trkpt><trkpt lat="40.4954264" lon="16.211377"><ele>637.0</ele><time>2026-04-06T14:42:58.862Z</time></trkpt><trkpt lat="40.4955322" lon="16.2114495"><ele>637.0</ele><time>2026-04-06T14:42:59.863Z</time></trkpt><trkpt lat="40.4956307" lon="16.2115176"><ele>636.0</ele><time>2026-04-06T14:43:00.862Z</time></trkpt><trkpt lat="40.4957175" lon="16.2115783"><ele>635.0</ele><time>2026-04-06T14:43:01.862Z</time></trkpt><trkpt lat="40.4957999" lon="16.2116373"><ele>634.0</ele><time>2026-04-06T14:43:02.862Z</time></trkpt><trkpt lat="40.4958777" lon="16.2116939"><ele>633.0</ele><time>2026-04-06T14:43:03.862Z</time></trkpt><trkpt lat="40.4959482" lon="16.2117416"><ele>632.0</ele><time>2026-04-06T14:43:04.862Z</time></trkpt><trkpt lat="40.4960145" lon="16.2117791"><ele>631.0</ele><time>2026-04-06T14:43:05.863Z</time></trkpt><trkpt lat="40.4960801" lon="16.2118184"><ele>631.0</ele><time>2026-04-06T14:43:06.862Z</time></trkpt><trkpt lat="40.4961445" lon="16.2118667"><ele>631.0</ele><time>2026-04-06T14:43:07.862Z</time></trkpt><trkpt lat="40.4962025" lon="16.2119375"><ele>631.0</ele><time>2026-04-06T14:43:08.862Z</time></trkpt><trkpt lat="40.4962546" lon="16.2120306"><ele>631.0</ele><time>2026-04-06T14:43:09.862Z</time></trkpt><trkpt lat="40.4962984" lon="16.2121466"><ele>631.0</ele><time>2026-04-06T14:43:10.862Z</time></trkpt><trkpt lat="40.4963409" lon="16.2122803"><ele>629.0</ele><time>2026-04-06T14:43:11.863Z</time></trkpt><trkpt lat="40.4963855" lon="16.2124185"><ele>627.0</ele><time>2026-04-06T14:43:12.863Z</time></trkpt><trkpt lat="40.4964428" lon="16.2125552"><ele>625.0</ele><time>2026-04-06T14:43:13.862Z</time></trkpt><trkpt lat="40.4965113" lon="16.2126913"><ele>623.0</ele><time>2026-04-06T14:43:14.863Z</time></trkpt><trkpt lat="40.4965847" lon="16.2128242"><ele>623.0</ele><time>2026-04-06T14:43:15.862Z</time></trkpt><trkpt lat="40.4966593" lon="16.2129518"><ele>623.0</ele><time>2026-04-06T14:43:16.862Z</time></trkpt><trkpt lat="40.4967429" lon="16.2130671"><ele>623.0</ele><time>2026-04-06T14:43:17.862Z</time></trkpt><trkpt lat="40.496838" lon="16.2131653"><ele>623.0</ele><time>2026-04-06T14:43:18.863Z</time></trkpt><trkpt lat="40.4969481" lon="16.213241"><ele>623.25</ele><time>2026-04-06T14:43:19.863Z</time></trkpt><trkpt lat="40.4970653" lon="16.2132844"><ele>623.5</ele><time>2026-04-06T14:43:20.862Z</time></trkpt><trkpt lat="40.4971917" lon="16.2132906"><ele>623.75</ele><time>2026-04-06T14:43:21.863Z</time></trkpt><trkpt lat="40.4973278" lon="16.2132668"><ele>624.0</ele><time>2026-04-06T14:43:22.862Z</time></trkpt><trkpt lat="40.4974674" lon="16.213238"><ele>624.0</ele><time>2026-04-06T14:43:23.862Z</time></trkpt><trkpt lat="40.4976093" lon="16.2132131"><ele>624.0</ele><time>2026-04-06T14:43:24.862Z</time></trkpt><trkpt lat="40.4977373" lon="16.2131954"><ele>624.0</ele><time>2026-04-06T14:43:25.862Z</time></trkpt><trkpt lat="40.4978581" lon="16.2131787"><ele>624.0</ele><time>2026-04-06T14:43:26.862Z</time></trkpt><trkpt lat="40.4979696" lon="16.2131623"><ele>622.4</ele><time>2026-04-06T14:43:27.862Z</time></trkpt><trkpt lat="40.4980773" lon="16.2131535"><ele>620.8</ele><time>2026-04-06T14:43:28.862Z</time></trkpt><trkpt lat="40.4981846" lon="16.2131582"><ele>619.2</ele><time>2026-04-06T14:43:29.862Z</time></trkpt><trkpt lat="40.4982923" lon="16.2131836"><ele>617.6</ele><time>2026-04-06T14:43:30.863Z</time></trkpt><trkpt lat="40.4983905" lon="16.213237"><ele>616.0</ele><time>2026-04-06T14:43:31.863Z</time></trkpt><trkpt lat="40.4984739" lon="16.2133246"><ele>616.0</ele><time>2026-04-06T14:43:32.862Z</time></trkpt><trkpt lat="40.4985272" lon="16.2134336"><ele>616.0</ele><time>2026-04-06T14:43:33.862Z</time></trkpt><trkpt lat="40.4985456" lon="16.2135565"><ele>616.0</ele><time>2026-04-06T14:43:34.862Z</time></trkpt><trkpt lat="40.4985308" lon="16.2136846"><ele>616.0</ele><time>2026-04-06T14:43:35.862Z</time></trkpt><trkpt lat="40.4985051" lon="16.2138177"><ele>616.0</ele><time>2026-04-06T14:43:36.862Z</time></trkpt><trkpt lat="40.4984954" lon="16.2139586"><ele>614.6</ele><time>2026-04-06T14:43:37.862Z</time></trkpt><trkpt lat="40.4985072" lon="16.2140923"><ele>613.2</ele><time>2026-04-06T14:43:38.862Z</time></trkpt><trkpt lat="40.4985392" lon="16.2142159"><ele>611.8</ele><time>2026-04-06T14:43:39.862Z</time></trkpt><trkpt lat="40.4985954" lon="16.2143103"><ele>610.4</ele><time>2026-04-06T14:43:40.862Z</time></trkpt><trkpt lat="40.4986707" lon="16.2143737"><ele>609.0</ele><time>2026-04-06T14:43:41.862Z</time></trkpt><trkpt lat="40.4987736" lon="16.2143772"><ele>609.0</ele><time>2026-04-06T14:43:42.863Z</time></trkpt><trkpt lat="40.4988877" lon="16.2143285"><ele>609.0</ele><time>2026-04-06T14:43:43.862Z</time></trkpt><trkpt lat="40.4989881" lon="16.214244"><ele>609.0</ele><time>2026-04-06T14:43:44.862Z</time></trkpt><trkpt lat="40.4990768" lon="16.2141423"><ele>609.0</ele><time>2026-04-06T14:43:45.862Z</time></trkpt><trkpt lat="40.4991575" lon="16.2140648"><ele>609.0</ele><time>2026-04-06T14:43:46.862Z</time></trkpt><trkpt lat="40.4992417" lon="16.2140321"><ele>609.0</ele><time>2026-04-06T14:43:47.862Z</time></trkpt><trkpt lat="40.4993292" lon="16.2140411"><ele>609.0</ele><time>2026-04-06T14:43:48.862Z</time></trkpt><trkpt lat="40.4993952" lon="16.2141067"><ele>609.0</ele><time>2026-04-06T14:43:49.862Z</time></trkpt><trkpt lat="40.4994394" lon="16.2141935"><ele>609.0</ele><time>2026-04-06T14:43:50.863Z</time></trkpt><trkpt lat="40.4994367" lon="16.2143076"><ele>609.0</ele><time>2026-04-06T14:43:51.862Z</time></trkpt><trkpt lat="40.4993992" lon="16.2144249"><ele>609.0</ele><time>2026-04-06T14:43:52.862Z</time></trkpt><trkpt lat="40.4993325" lon="16.2145339"><ele>609.0</ele><time>2026-04-06T14:43:53.862Z</time></trkpt><trkpt lat="40.4992392" lon="16.2146301"><ele>609.0</ele><time>2026-04-06T14:43:54.863Z</time></trkpt><trkpt lat="40.4991408" lon="16.2147332"><ele>609.0</ele><time>2026-04-06T14:43:55.862Z</time></trkpt><trkpt lat="40.4990555" lon="16.2148561"><ele>608.4</ele><time>2026-04-06T14:43:56.862Z</time></trkpt><trkpt lat="40.4989895" lon="16.2149925"><ele>607.8</ele><time>2026-04-06T14:43:57.863Z</time></trkpt><trkpt lat="40.4989342" lon="16.2151251"><ele>607.2</ele><time>2026-04-06T14:43:58.862Z</time></trkpt><trkpt lat="40.4988932" lon="16.2152516"><ele>606.6</ele><time>2026-04-06T14:43:59.862Z</time></trkpt><trkpt lat="40.4988706" lon="16.2153701"><ele>606.0</ele><time>2026-04-06T14:44:00.862Z</time></trkpt><trkpt lat="40.4988753" lon="16.2154805"><ele>606.0</ele><time>2026-04-06T14:44:01.863Z</time></trkpt><trkpt lat="40.4989052" lon="16.2155828"><ele>606.0</ele><time>2026-04-06T14:44:02.862Z</time></trkpt><trkpt lat="40.4989928" lon="16.215671"><ele>606.0</ele><time>2026-04-06T14:44:03.862Z</time></trkpt><trkpt lat="40.4990976" lon="16.2157515"><ele>606.0</ele><time>2026-04-06T14:44:04.862Z</time></trkpt><trkpt lat="40.499219" lon="16.2158422"><ele>606.5</ele><time>2026-04-06T14:44:05.862Z</time></trkpt><trkpt lat="40.4993368" lon="16.2159419"><ele>607.0</ele><time>2026-04-06T14:44:06.862Z</time></trkpt><trkpt lat="40.4994481" lon="16.2160508"><ele>607.5</ele><time>2026-04-06T14:44:07.862Z</time></trkpt><trkpt lat="40.4995499" lon="16.2161615"><ele>608.0</ele><time>2026-04-06T14:44:08.862Z</time></trkpt><trkpt lat="40.49964" lon="16.216268"><ele>604.6</ele><time>2026-04-06T14:44:09.862Z</time></trkpt><trkpt lat="40.4997116" lon="16.2163707"><ele>601.1999999999999</ele><time>2026-04-06T14:44:10.862Z</time></trkpt><trkpt lat="40.4997513" lon="16.2164792"><ele>597.8</ele><time>2026-04-06T14:44:11.862Z</time></trkpt><trkpt lat="40.4997556" lon="16.2165974"><ele>594.4</ele><time>2026-04-06T14:44:12.862Z</time></trkpt><trkpt lat="40.4997185" lon="16.2167253"><ele>591.0</ele><time>2026-04-06T14:44:13.862Z</time></trkpt><trkpt lat="40.4996516" lon="16.2168553"><ele>596.0</ele><time>2026-04-06T14:44:14.862Z</time></trkpt><trkpt lat="40.4995509" lon="16.2169662"><ele>601.0</ele><time>2026-04-06T14:44:15.862Z</time></trkpt><trkpt lat="40.4994451" lon="16.2170451"><ele>606.0</ele><time>2026-04-06T14:44:16.862Z</time></trkpt><trkpt lat="40.499328" lon="16.2170847"><ele>611.0</ele><time>2026-04-06T14:44:17.863Z</time></trkpt><trkpt lat="40.4992067" lon="16.2171027"><ele>611.0</ele><time>2026-04-06T14:44:18.862Z</time></trkpt><trkpt lat="40.4990902" lon="16.2171485"><ele>611.0</ele><time>2026-04-06T14:44:19.862Z</time></trkpt><trkpt lat="40.498984" lon="16.2172539"><ele>611.0</ele><time>2026-04-06T14:44:20.862Z</time></trkpt><trkpt lat="40.4988941" lon="16.2174034"><ele>611.0</ele><time>2026-04-06T14:44:21.862Z</time></trkpt><trkpt lat="40.4988199" lon="16.217578"><ele>608.75</ele><time>2026-04-06T14:44:22.862Z</time></trkpt><trkpt lat="40.4987615" lon="16.2177497"><ele>606.5</ele><time>2026-04-06T14:44:23.862Z</time></trkpt><trkpt lat="40.4987291" lon="16.2179223"><ele>604.25</ele><time>2026-04-06T14:44:24.862Z</time></trkpt><trkpt lat="40.4987389" lon="16.218082"><ele>602.0</ele><time>2026-04-06T14:44:25.862Z</time></trkpt><trkpt lat="40.4987786" lon="16.2182151"><ele>600.6</ele><time>2026-04-06T14:44:26.862Z</time></trkpt><trkpt lat="40.4988379" lon="16.2183122"><ele>599.2</ele><time>2026-04-06T14:44:27.862Z</time></trkpt><trkpt lat="40.4989213" lon="16.2183683"><ele>597.8</ele><time>2026-04-06T14:44:28.862Z</time></trkpt><trkpt lat="40.4990191" lon="16.2184104"><ele>596.4</ele><time>2026-04-06T14:44:29.862Z</time></trkpt><trkpt lat="40.4991379" lon="16.2184439"><ele>595.0</ele><time>2026-04-06T14:44:30.862Z</time></trkpt><trkpt lat="40.4992578" lon="16.2184982"><ele>595.0</ele><time>2026-04-06T14:44:31.862Z</time></trkpt><trkpt lat="40.4993659" lon="16.2185922"><ele>595.0</ele><time>2026-04-06T14:44:32.862Z</time></trkpt><trkpt lat="40.499461" lon="16.2187171"><ele>595.0</ele><time>2026-04-06T14:44:33.862Z</time></trkpt><trkpt lat="40.4995429" lon="16.2188524"><ele>595.0</ele><time>2026-04-06T14:44:34.862Z</time></trkpt><trkpt lat="40.4995973" lon="16.2189908"><ele>590.75</ele><time>2026-04-06T14:44:35.863Z</time></trkpt><trkpt lat="40.499621" lon="16.2191449"><ele>586.5</ele><time>2026-04-06T14:44:36.862Z</time></trkpt><trkpt lat="40.4996205" lon="16.2193083"><ele>582.25</ele><time>2026-04-06T14:44:37.863Z</time></trkpt><trkpt lat="40.4996392" lon="16.2194681"><ele>578.0</ele><time>2026-04-06T14:44:38.862Z</time></trkpt><trkpt lat="40.4996874" lon="16.2196303"><ele>578.0</ele><time>2026-04-06T14:44:39.862Z</time></trkpt><trkpt lat="40.4997682" lon="16.2197712"><ele>578.0</ele><time>2026-04-06T14:44:40.862Z</time></trkpt><trkpt lat="40.4998504" lon="16.2198999"><ele>578.0</ele><time>2026-04-06T14:44:41.862Z</time></trkpt><trkpt lat="40.4999221" lon="16.2200197"><ele>578.0</ele><time>2026-04-06T14:44:42.862Z</time></trkpt><trkpt lat="40.4999635" lon="16.2201447"><ele>578.75</ele><time>2026-04-06T14:44:43.862Z</time></trkpt><trkpt lat="40.4999809" lon="16.220294"><ele>579.5</ele><time>2026-04-06T14:44:44.862Z</time></trkpt><trkpt lat="40.499982" lon="16.2204692"><ele>580.25</ele><time>2026-04-06T14:44:45.862Z</time></trkpt><trkpt lat="40.4999766" lon="16.2206673"><ele>581.0</ele><time>2026-04-06T14:44:46.863Z</time></trkpt><trkpt lat="40.4999721" lon="16.2208697"><ele>581.0</ele><time>2026-04-06T14:44:47.862Z</time></trkpt><trkpt lat="40.4999623" lon="16.2210722"><ele>581.0</ele><time>2026-04-06T14:44:48.862Z</time></trkpt><trkpt lat="40.499945" lon="16.2212687"><ele>581.0</ele><time>2026-04-06T14:44:49.863Z</time></trkpt><trkpt lat="40.4999197" lon="16.221456"><ele>581.0</ele><time>2026-04-06T14:44:50.862Z</time></trkpt><trkpt lat="40.4998864" lon="16.2216326"><ele>581.0</ele><time>2026-04-06T14:44:51.863Z</time></trkpt><trkpt lat="40.4998514" lon="16.2217948"><ele>581.0</ele><time>2026-04-06T14:44:52.862Z</time></trkpt><trkpt lat="40.4998408" lon="16.2219517"><ele>581.0</ele><time>2026-04-06T14:44:53.862Z</time></trkpt><trkpt lat="40.4998765" lon="16.2220975"><ele>581.0</ele><time>2026-04-06T14:44:54.862Z</time></trkpt><trkpt lat="40.4999469" lon="16.2222311"><ele>580.4</ele><time>2026-04-06T14:44:55.863Z</time></trkpt><trkpt lat="40.500037" lon="16.2223564"><ele>579.8</ele><time>2026-04-06T14:44:56.863Z</time></trkpt><trkpt lat="40.5001116" lon="16.2224788"><ele>579.1999999999999</ele><time>2026-04-06T14:44:57.862Z</time></trkpt><trkpt lat="40.5001571" lon="16.2225966"><ele>578.6</ele><time>2026-04-06T14:44:58.863Z</time></trkpt><trkpt lat="40.5001687" lon="16.2227108"><ele>578.0</ele><time>2026-04-06T14:44:59.862Z</time></trkpt><trkpt lat="40.5001424" lon="16.222816"><ele>578.0</ele><time>2026-04-06T14:45:00.863Z</time></trkpt><trkpt lat="40.5000837" lon="16.2229113"><ele>578.0</ele><time>2026-04-06T14:45:01.862Z</time></trkpt><trkpt lat="40.4999667" lon="16.222978"><ele>578.0</ele><time>2026-04-06T14:45:02.862Z</time></trkpt><trkpt lat="40.4998222" lon="16.2230497"><ele>578.0</ele><time>2026-04-06T14:45:03.863Z</time></trkpt><trkpt lat="40.4996661" lon="16.2231345"><ele>576.3333333333333</ele><time>2026-04-06T14:45:04.862Z</time></trkpt><trkpt lat="40.499507" lon="16.2232305"><ele>574.6666666666666</ele><time>2026-04-06T14:45:05.862Z</time></trkpt><trkpt lat="40.4993546" lon="16.2233226"><ele>573.0</ele><time>2026-04-06T14:45:06.862Z</time></trkpt><trkpt lat="40.4992089" lon="16.2234071"><ele>573.0</ele><time>2026-04-06T14:45:07.863Z</time></trkpt><trkpt lat="40.4990699" lon="16.2234882"><ele>573.0</ele><time>2026-04-06T14:45:08.862Z</time></trkpt><trkpt lat="40.4989297" lon="16.2235738"><ele>573.0</ele><time>2026-04-06T14:45:09.862Z</time></trkpt><trkpt lat="40.4988023" lon="16.2236876"><ele>573.0</ele><time>2026-04-06T14:45:10.862Z</time></trkpt><trkpt lat="40.4986923" lon="16.223817"><ele>573.0</ele><time>2026-04-06T14:45:11.862Z</time></trkpt><trkpt lat="40.4986056" lon="16.2239624"><ele>573.0</ele><time>2026-04-06T14:45:12.862Z</time></trkpt><trkpt lat="40.4985372" lon="16.2241252"><ele>573.0</ele><time>2026-04-06T14:45:13.862Z</time></trkpt><trkpt lat="40.4984868" lon="16.224299"><ele>573.0</ele><time>2026-04-06T14:45:14.862Z</time></trkpt><trkpt lat="40.498452" lon="16.2244689"><ele>573.0</ele><time>2026-04-06T14:45:15.862Z</time></trkpt><trkpt lat="40.4984243" lon="16.2246274"><ele>573.0</ele><time>2026-04-06T14:45:16.862Z</time></trkpt><trkpt lat="40.4984117" lon="16.2247693"><ele>573.0</ele><time>2026-04-06T14:45:17.862Z</time></trkpt><trkpt lat="40.4984201" lon="16.2248975"><ele>572.6</ele><time>2026-04-06T14:45:18.862Z</time></trkpt><trkpt lat="40.4984708" lon="16.2250002"><ele>572.1999999999999</ele><time>2026-04-06T14:45:19.863Z</time></trkpt><trkpt lat="40.4985532" lon="16.2250669"><ele>571.8</ele><time>2026-04-06T14:45:20.863Z</time></trkpt><trkpt lat="40.4986562" lon="16.2251033"><ele>571.4</ele><time>2026-04-06T14:45:21.862Z</time></trkpt><trkpt lat="40.4987798" lon="16.2250997"><ele>571.0</ele><time>2026-04-06T14:45:22.863Z</time></trkpt><trkpt lat="40.4989088" lon="16.2250737"><ele>569.0</ele><time>2026-04-06T14:45:23.862Z</time></trkpt><trkpt lat="40.4990321" lon="16.2250318"><ele>567.0</ele><time>2026-04-06T14:45:24.862Z</time></trkpt><trkpt lat="40.4991582" lon="16.2250011"><ele>565.0</ele><time>2026-04-06T14:45:25.862Z</time></trkpt><trkpt lat="40.499267" lon="16.2250106"><ele>563.0</ele><time>2026-04-06T14:45:26.862Z</time></trkpt><trkpt lat="40.4993546" lon="16.2250653"><ele>563.0</ele><time>2026-04-06T14:45:27.863Z</time></trkpt><trkpt lat="40.4994384" lon="16.2251739"><ele>563.0</ele><time>2026-04-06T14:45:28.862Z</time></trkpt><trkpt lat="40.499521" lon="16.2253087"><ele>563.0</ele><time>2026-04-06T14:45:29.863Z</time></trkpt><trkpt lat="40.4996225" lon="16.2254455"><ele>563.0</ele><time>2026-04-06T14:45:30.862Z</time></trkpt><trkpt lat="40.4997345" lon="16.2255571"><ele>561.75</ele><time>2026-04-06T14:45:31.862Z</time></trkpt><trkpt lat="40.4998487" lon="16.2256407"><ele>560.5</ele><time>2026-04-06T14:45:32.862Z</time></trkpt><trkpt lat="40.4999595" lon="16.2257037"><ele>559.25</ele><time>2026-04-06T14:45:33.863Z</time></trkpt><trkpt lat="40.5000501" lon="16.225775"><ele>558.0</ele><time>2026-04-06T14:45:34.862Z</time></trkpt><trkpt lat="40.5001118" lon="16.2258734"><ele>558.0</ele><time>2026-04-06T14:45:35.862Z</time></trkpt><trkpt lat="40.5001427" lon="16.2260026"><ele>558.0</ele><time>2026-04-06T14:45:36.862Z</time></trkpt><trkpt lat="40.5001433" lon="16.2261392"><ele>558.0</ele><time>2026-04-06T14:45:37.862Z</time></trkpt><trkpt lat="40.5001142" lon="16.2262544"><ele>558.0</ele><time>2026-04-06T14:45:38.862Z</time></trkpt><trkpt lat="40.5000589" lon="16.2263416"><ele>558.0</ele><time>2026-04-06T14:45:39.862Z</time></trkpt><trkpt lat="40.4999858" lon="16.2263871"><ele>558.0</ele><time>2026-04-06T14:45:40.862Z</time></trkpt><trkpt lat="40.4998898" lon="16.2263875"><ele>558.0</ele><time>2026-04-06T14:45:41.863Z</time></trkpt><trkpt lat="40.4997568" lon="16.2263184"><ele>558.0</ele><time>2026-04-06T14:45:42.862Z</time></trkpt><trkpt lat="40.4996057" lon="16.2262558"><ele>558.0</ele><time>2026-04-06T14:45:43.862Z</time></trkpt><trkpt lat="40.4994486" lon="16.2262115"><ele>559.5</ele><time>2026-04-06T14:45:44.863Z</time></trkpt><trkpt lat="40.4992964" lon="16.2261713"><ele>561.0</ele><time>2026-04-06T14:45:45.862Z</time></trkpt><trkpt lat="40.4991563" lon="16.2261202"><ele>562.5</ele><time>2026-04-06T14:45:46.862Z</time></trkpt><trkpt lat="40.4990212" lon="16.2260706"><ele>564.0</ele><time>2026-04-06T14:45:47.862Z</time></trkpt><trkpt lat="40.498881" lon="16.2260561"><ele>565.25</ele><time>2026-04-06T14:45:48.862Z</time></trkpt><trkpt lat="40.4987422" lon="16.2260899"><ele>566.5</ele><time>2026-04-06T14:45:49.863Z</time></trkpt><trkpt lat="40.4986086" lon="16.2261758"><ele>567.75</ele><time>2026-04-06T14:45:50.862Z</time></trkpt><trkpt lat="40.4984896" lon="16.2262967"><ele>569.0</ele><time>2026-04-06T14:45:51.863Z</time></trkpt><trkpt lat="40.4983892" lon="16.2264283"><ele>566.25</ele><time>2026-04-06T14:45:52.862Z</time></trkpt><trkpt lat="40.4983091" lon="16.2265731"><ele>563.5</ele><time>2026-04-06T14:45:53.862Z</time></trkpt><trkpt lat="40.4982592" lon="16.2267252"><ele>560.75</ele><time>2026-04-06T14:45:54.863Z</time></trkpt><trkpt lat="40.4982506" lon="16.2268782"><ele>558.0</ele><time>2026-04-06T14:45:55.862Z</time></trkpt><trkpt lat="40.4982844" lon="16.2270384"><ele>558.0</ele><time>2026-04-06T14:45:56.862Z</time></trkpt><trkpt lat="40.4983509" lon="16.2271989"><ele>558.0</ele><time>2026-04-06T14:45:57.862Z</time></trkpt><trkpt lat="40.4984261" lon="16.2273658"><ele>558.0</ele><time>2026-04-06T14:45:58.863Z</time></trkpt><trkpt lat="40.4984953" lon="16.2275347"><ele>558.0</ele><time>2026-04-06T14:45:59.862Z</time></trkpt><trkpt lat="40.4985484" lon="16.2277042"><ele>557.25</ele><time>2026-04-06T14:46:00.862Z</time></trkpt><trkpt lat="40.4985821" lon="16.2278657"><ele>556.5</ele><time>2026-04-06T14:46:01.862Z</time></trkpt><trkpt lat="40.4985661" lon="16.2280216"><ele>555.75</ele><time>2026-04-06T14:46:02.862Z</time></trkpt><trkpt lat="40.498523" lon="16.228166"><ele>555.0</ele><time>2026-04-06T14:46:03.863Z</time></trkpt><trkpt lat="40.4984383" lon="16.2283015"><ele>553.75</ele><time>2026-04-06T14:46:04.862Z</time></trkpt><trkpt lat="40.4983302" lon="16.2284311"><ele>552.5</ele><time>2026-04-06T14:46:05.862Z</time></trkpt><trkpt lat="40.4982213" lon="16.2285687"><ele>551.25</ele><time>2026-04-06T14:46:06.863Z</time></trkpt><trkpt lat="40.4981263" lon="16.228711"><ele>550.0</ele><time>2026-04-06T14:46:07.863Z</time></trkpt><trkpt lat="40.4980475" lon="16.2288568"><ele>548.5</ele><time>2026-04-06T14:46:08.863Z</time></trkpt><trkpt lat="40.4979924" lon="16.2289955"><ele>547.0</ele><time>2026-04-06T14:46:09.862Z</time></trkpt><trkpt lat="40.4979614" lon="16.2291138"><ele>545.5</ele><time>2026-04-06T14:46:10.862Z</time></trkpt><trkpt lat="40.4979487" lon="16.22922"><ele>544.0</ele><time>2026-04-06T14:46:11.863Z</time></trkpt><trkpt lat="40.4979554" lon="16.2293197"><ele>542.5</ele><time>2026-04-06T14:46:12.862Z</time></trkpt><trkpt lat="40.497986" lon="16.2294057"><ele>541.0</ele><time>2026-04-06T14:46:13.863Z</time></trkpt><trkpt lat="40.4980399" lon="16.2294744"><ele>541.0</ele><time>2026-04-06T14:46:14.862Z</time></trkpt><trkpt lat="40.4981475" lon="16.2294844"><ele>541.0</ele><time>2026-04-06T14:46:15.862Z</time></trkpt><trkpt lat="40.4982638" lon="16.2294818"><ele>541.0</ele><time>2026-04-06T14:46:16.862Z</time></trkpt><trkpt lat="40.4983734" lon="16.2294855"><ele>541.0</ele><time>2026-04-06T14:46:17.862Z</time></trkpt><trkpt lat="40.4984638" lon="16.2295171"><ele>541.0</ele><time>2026-04-06T14:46:18.862Z</time></trkpt><trkpt lat="40.4985194" lon="16.2295876"><ele>541.0</ele><time>2026-04-06T14:46:19.862Z</time></trkpt><trkpt lat="40.4985443" lon="16.2296875"><ele>541.0</ele><time>2026-04-06T14:46:20.862Z</time></trkpt><trkpt lat="40.4985146" lon="16.2298187"><ele>541.0</ele><time>2026-04-06T14:46:21.862Z</time></trkpt><trkpt lat="40.4984522" lon="16.2299754"><ele>541.0</ele><time>2026-04-06T14:46:22.862Z</time></trkpt><trkpt lat="40.4983796" lon="16.2301495"><ele>540.75</ele><time>2026-04-06T14:46:23.862Z</time></trkpt><trkpt lat="40.498315" lon="16.2303242"><ele>540.5</ele><time>2026-04-06T14:46:24.862Z</time></trkpt><trkpt lat="40.4982624" lon="16.2304856"><ele>540.25</ele><time>2026-04-06T14:46:25.862Z</time></trkpt><trkpt lat="40.4982172" lon="16.230634"><ele>540.0</ele><time>2026-04-06T14:46:26.863Z</time></trkpt><trkpt lat="40.4981568" lon="16.2307581"><ele>540.0</ele><time>2026-04-06T14:46:27.862Z</time></trkpt><trkpt lat="40.4980727" lon="16.2308514"><ele>540.0</ele><time>2026-04-06T14:46:28.862Z</time></trkpt><trkpt lat="40.4979704" lon="16.2309111"><ele>540.0</ele><time>2026-04-06T14:46:29.862Z</time></trkpt><trkpt lat="40.4978472" lon="16.2309387"><ele>540.0</ele><time>2026-04-06T14:46:30.862Z</time></trkpt><trkpt lat="40.4977246" lon="16.2309722"><ele>540.0</ele><time>2026-04-06T14:46:31.862Z</time></trkpt><trkpt lat="40.4976092" lon="16.2310356"><ele>540.0</ele><time>2026-04-06T14:46:32.862Z</time></trkpt><trkpt lat="40.4975017" lon="16.231143"><ele>540.0</ele><time>2026-04-06T14:46:33.862Z</time></trkpt><trkpt lat="40.4974003" lon="16.2312856"><ele>540.0</ele><time>2026-04-06T14:46:34.862Z</time></trkpt><trkpt lat="40.4972945" lon="16.2314457"><ele>537.0</ele><time>2026-04-06T14:46:35.862Z</time></trkpt><trkpt lat="40.4971753" lon="16.2316055"><ele>534.0</ele><time>2026-04-06T14:46:36.862Z</time></trkpt><trkpt lat="40.497049" lon="16.2317565"><ele>531.0</ele><time>2026-04-06T14:46:37.862Z</time></trkpt><trkpt lat="40.4969241" lon="16.2318978"><ele>531.0</ele><time>2026-04-06T14:46:38.863Z</time></trkpt><trkpt lat="40.4968045" lon="16.2320286"><ele>531.0</ele><time>2026-04-06T14:46:39.862Z</time></trkpt><trkpt lat="40.4966961" lon="16.2321557"><ele>531.0</ele><time>2026-04-06T14:46:40.862Z</time></trkpt><trkpt lat="40.4965898" lon="16.2322784"><ele>531.0</ele><time>2026-04-06T14:46:41.863Z</time></trkpt><trkpt lat="40.4964928" lon="16.2324035"><ele>529.0</ele><time>2026-04-06T14:46:42.862Z</time></trkpt><trkpt lat="40.4964044" lon="16.232542"><ele>527.0</ele><time>2026-04-06T14:46:43.862Z</time></trkpt><trkpt lat="40.4963281" lon="16.2326985"><ele>525.0</ele><time>2026-04-06T14:46:44.862Z</time></trkpt><trkpt lat="40.4962607" lon="16.2328582"><ele>523.0</ele><time>2026-04-06T14:46:45.862Z</time></trkpt><trkpt lat="40.4961888" lon="16.2330199"><ele>521.5</ele><time>2026-04-06T14:46:46.863Z</time></trkpt><trkpt lat="40.4961151" lon="16.2331743"><ele>520.0</ele><time>2026-04-06T14:46:47.862Z</time></trkpt><trkpt lat="40.4960404" lon="16.233324"><ele>518.5</ele><time>2026-04-06T14:46:48.862Z</time></trkpt><trkpt lat="40.495967" lon="16.2334611"><ele>517.0</ele><time>2026-04-06T14:46:49.863Z</time></trkpt><trkpt lat="40.4958864" lon="16.2335769"><ele>517.0</ele><time>2026-04-06T14:46:50.862Z</time></trkpt><trkpt lat="40.4957974" lon="16.2336627"><ele>517.0</ele><time>2026-04-06T14:46:51.862Z</time></trkpt><trkpt lat="40.4956975" lon="16.2337185"><ele>517.0</ele><time>2026-04-06T14:46:52.862Z</time></trkpt><trkpt lat="40.4956006" lon="16.2337351"><ele>517.0</ele><time>2026-04-06T14:46:53.862Z</time></trkpt><trkpt lat="40.4955062" lon="16.2337127"><ele>517.0</ele><time>2026-04-06T14:46:54.862Z</time></trkpt><trkpt lat="40.4954141" lon="16.2336485"><ele>515.25</ele><time>2026-04-06T14:46:55.862Z</time></trkpt><trkpt lat="40.4953271" lon="16.2335376"><ele>513.5</ele><time>2026-04-06T14:46:56.862Z</time></trkpt><trkpt lat="40.4952459" lon="16.2333942"><ele>511.75</ele><time>2026-04-06T14:46:57.862Z</time></trkpt><trkpt lat="40.4951618" lon="16.2332377"><ele>510.0</ele><time>2026-04-06T14:46:58.862Z</time></trkpt><trkpt lat="40.4950815" lon="16.2330999"><ele>510.0</ele><time>2026-04-06T14:46:59.863Z</time></trkpt><trkpt lat="40.494991" lon="16.2329657"><ele>510.0</ele><time>2026-04-06T14:47:00.862Z</time></trkpt><trkpt lat="40.494912" lon="16.2328572"><ele>510.0</ele><time>2026-04-06T14:47:01.862Z</time></trkpt><trkpt lat="40.4948365" lon="16.2327704"><ele>510.0</ele><time>2026-04-06T14:47:02.862Z</time></trkpt><trkpt lat="40.4947657" lon="16.2327155"><ele>510.0</ele><time>2026-04-06T14:47:03.862Z</time></trkpt><trkpt lat="40.4946921" lon="16.2326914"><ele>510.0</ele><time>2026-04-06T14:47:04.863Z</time></trkpt><trkpt lat="40.4946151" lon="16.2326964"><ele>510.0</ele><time>2026-04-06T14:47:05.862Z</time></trkpt><trkpt lat="40.4945368" lon="16.2327295"><ele>510.0</ele><time>2026-04-06T14:47:06.863Z</time></trkpt><trkpt lat="40.4944595" lon="16.2327922"><ele>510.0</ele><time>2026-04-06T14:47:07.862Z</time></trkpt><trkpt lat="40.494389" lon="16.2328771"><ele>510.0</ele><time>2026-04-06T14:47:08.862Z</time></trkpt><trkpt lat="40.4943194" lon="16.2329647"><ele>510.0</ele><time>2026-04-06T14:47:09.862Z</time></trkpt><trkpt lat="40.4942537" lon="16.2330457"><ele>508.8</ele><time>2026-04-06T14:47:10.862Z</time></trkpt><trkpt lat="40.4941864" lon="16.2331336"><ele>507.6</ele><time>2026-04-06T14:47:11.863Z</time></trkpt><trkpt lat="40.4941199" lon="16.233216"><ele>506.4</ele><time>2026-04-06T14:47:12.862Z</time></trkpt><trkpt lat="40.4940539" lon="16.2333048"><ele>505.2</ele><time>2026-04-06T14:47:13.862Z</time></trkpt><trkpt lat="40.4939908" lon="16.2334064"><ele>504.0</ele><time>2026-04-06T14:47:14.862Z</time></trkpt><trkpt lat="40.493935" lon="16.2335201"><ele>504.0</ele><time>2026-04-06T14:47:15.862Z</time></trkpt><trkpt lat="40.4938939" lon="16.2336424"><ele>504.0</ele><time>2026-04-06T14:47:16.862Z</time></trkpt><trkpt lat="40.4938618" lon="16.2337727"><ele>504.0</ele><time>2026-04-06T14:47:17.862Z</time></trkpt><trkpt lat="40.4938386" lon="16.2339135"><ele>504.0</ele><time>2026-04-06T14:47:18.862Z</time></trkpt><trkpt lat="40.4938321" lon="16.2340616"><ele>504.0</ele><time>2026-04-06T14:47:19.862Z</time></trkpt><trkpt lat="40.4938405" lon="16.2342111"><ele>503.0</ele><time>2026-04-06T14:47:20.862Z</time></trkpt><trkpt lat="40.4938554" lon="16.2343595"><ele>502.0</ele><time>2026-04-06T14:47:21.862Z</time></trkpt><trkpt lat="40.4938704" lon="16.2345084"><ele>501.0</ele><time>2026-04-06T14:47:22.862Z</time></trkpt><trkpt lat="40.4938778" lon="16.2346586"><ele>500.0</ele><time>2026-04-06T14:47:23.863Z</time></trkpt><trkpt lat="40.4938709" lon="16.2348057"><ele>498.4</ele><time>2026-04-06T14:47:24.862Z</time></trkpt><trkpt lat="40.4938552" lon="16.2349447"><ele>496.8</ele><time>2026-04-06T14:47:25.862Z</time></trkpt><trkpt lat="40.4938323" lon="16.2350734"><ele>495.20000000000005</ele><time>2026-04-06T14:47:26.862Z</time></trkpt><trkpt lat="40.4938054" lon="16.2351871"><ele>493.6</ele><time>2026-04-06T14:47:27.862Z</time></trkpt><trkpt lat="40.4937787" lon="16.2352884"><ele>492.0</ele><time>2026-04-06T14:47:28.862Z</time></trkpt><trkpt lat="40.4937576" lon="16.2353858"><ele>493.00000000000006</ele><time>2026-04-06T14:47:29.862Z</time></trkpt><trkpt lat="40.4937333" lon="16.2354824"><ele>494.0</ele><time>2026-04-06T14:47:30.862Z</time></trkpt><trkpt lat="40.4937131" lon="16.235572"><ele>495.00000000000006</ele><time>2026-04-06T14:47:31.862Z</time></trkpt><trkpt lat="40.4936919" lon="16.2356623"><ele>496.00000000000006</ele><time>2026-04-06T14:47:32.862Z</time></trkpt><trkpt lat="40.4936715" lon="16.2357554"><ele>497.0</ele><time>2026-04-06T14:47:33.862Z</time></trkpt><trkpt lat="40.4936525" lon="16.2358454"><ele>498.00000000000006</ele><time>2026-04-06T14:47:34.862Z</time></trkpt><trkpt lat="40.4936324" lon="16.235925"><ele>499.00000000000006</ele><time>2026-04-06T14:47:35.861Z</time></trkpt><trkpt lat="40.4936063" lon="16.2360576"><ele>499.0</ele><time>2026-04-06T14:47:37.861Z</time></trkpt><trkpt lat="40.4935776" lon="16.2361967"><ele>499.0</ele><time>2026-04-06T14:47:39.861Z</time></trkpt><trkpt lat="40.4935148" lon="16.2363387"><ele>499.0</ele><time>2026-04-06T14:47:41.861Z</time></trkpt><trkpt lat="40.4934664" lon="16.2364064"><ele>499.0</ele><time>2026-04-06T14:47:42.862Z</time></trkpt><trkpt lat="40.4934045" lon="16.2364586"><ele>499.0</ele><time>2026-04-06T14:47:43.861Z</time></trkpt><trkpt lat="40.4933311" lon="16.236492"><ele>498.00000000000006</ele><time>2026-04-06T14:47:44.861Z</time></trkpt><trkpt lat="40.4932532" lon="16.2365072"><ele>497.0</ele><time>2026-04-06T14:47:45.861Z</time></trkpt><trkpt lat="40.4931801" lon="16.2365098"><ele>496.00000000000006</ele><time>2026-04-06T14:47:46.861Z</time></trkpt><trkpt lat="40.4931067" lon="16.2365068"><ele>495.00000000000006</ele><time>2026-04-06T14:47:47.861Z</time></trkpt><trkpt lat="40.4930412" lon="16.236499"><ele>494.0</ele><time>2026-04-06T14:47:48.861Z</time></trkpt><trkpt lat="40.4929776" lon="16.2364874"><ele>493.00000000000006</ele><time>2026-04-06T14:47:49.861Z</time></trkpt><trkpt lat="40.4929141" lon="16.236474"><ele>492.00000000000006</ele><time>2026-04-06T14:47:50.862Z</time></trkpt><trkpt lat="40.4928414" lon="16.2364553"><ele>491.6666666666667</ele><time>2026-04-06T14:47:51.862Z</time></trkpt><trkpt lat="40.4927663" lon="16.2364291"><ele>491.33333333333337</ele><time>2026-04-06T14:47:52.861Z</time></trkpt><trkpt lat="40.4926912" lon="16.2363872"><ele>491.0</ele><time>2026-04-06T14:47:53.861Z</time></trkpt><trkpt lat="40.4926205" lon="16.2363283"><ele>490.6666666666667</ele><time>2026-04-06T14:47:54.861Z</time></trkpt><trkpt lat="40.4925601" lon="16.2362616"><ele>490.33333333333337</ele><time>2026-04-06T14:47:55.861Z</time></trkpt><trkpt lat="40.4925092" lon="16.2361929"><ele>490.0</ele><time>2026-04-06T14:47:56.861Z</time></trkpt><trkpt lat="40.4924641" lon="16.2361212"><ele>490.00000000000006</ele><time>2026-04-06T14:47:57.862Z</time></trkpt><trkpt lat="40.4924127" lon="16.2360573"><ele>490.0</ele><time>2026-04-06T14:47:58.861Z</time></trkpt><trkpt lat="40.4923554" lon="16.2360145"><ele>490.0</ele><time>2026-04-06T14:47:59.861Z</time></trkpt><trkpt lat="40.4922896" lon="16.2360108"><ele>490.0</ele><time>2026-04-06T14:48:00.861Z</time></trkpt><trkpt lat="40.4922401" lon="16.2360919"><ele>490.00000000000006</ele><time>2026-04-06T14:48:01.862Z</time></trkpt><trkpt lat="40.4922134" lon="16.2362023"><ele>490.0</ele><time>2026-04-06T14:48:02.861Z</time></trkpt><trkpt lat="40.492214" lon="16.236324"><ele>490.0</ele><time>2026-04-06T14:48:03.861Z</time></trkpt><trkpt lat="40.4922428" lon="16.2364452"><ele>490.0</ele><time>2026-04-06T14:48:04.862Z</time></trkpt><trkpt lat="40.4922903" lon="16.2365646"><ele>490.0</ele><time>2026-04-06T14:48:05.861Z</time></trkpt><trkpt lat="40.4923362" lon="16.2366769"><ele>490.0</ele><time>2026-04-06T14:48:06.861Z</time></trkpt><trkpt lat="40.4923859" lon="16.2367922"><ele>490.0</ele><time>2026-04-06T14:48:07.861Z</time></trkpt><trkpt lat="40.4924397" lon="16.236906"><ele>488.6</ele><time>2026-04-06T14:48:08.862Z</time></trkpt><trkpt lat="40.492496" lon="16.2370115"><ele>487.2</ele><time>2026-04-06T14:48:09.861Z</time></trkpt><trkpt lat="40.4925538" lon="16.2371142"><ele>485.79999999999995</ele><time>2026-04-06T14:48:10.861Z</time></trkpt><trkpt lat="40.4926118" lon="16.2372328"><ele>484.4</ele><time>2026-04-06T14:48:11.861Z</time></trkpt><trkpt lat="40.4926599" lon="16.237382"><ele>483.0</ele><time>2026-04-06T14:48:12.861Z</time></trkpt><trkpt lat="40.4926864" lon="16.2375588"><ele>480.33333333333337</ele><time>2026-04-06T14:48:13.861Z</time></trkpt><trkpt lat="40.4926819" lon="16.2377678"><ele>477.6666666666667</ele><time>2026-04-06T14:48:14.861Z</time></trkpt><trkpt lat="40.4926529" lon="16.2379923"><ele>475.0</ele><time>2026-04-06T14:48:15.861Z</time></trkpt><trkpt lat="40.4926164" lon="16.2382196"><ele>473.0</ele><time>2026-04-06T14:48:16.861Z</time></trkpt><trkpt lat="40.4925826" lon="16.2384323"><ele>471.0</ele><time>2026-04-06T14:48:17.861Z</time></trkpt><trkpt lat="40.4925289" lon="16.2386247"><ele>469.0</ele><time>2026-04-06T14:48:18.861Z</time></trkpt><trkpt lat="40.4924572" lon="16.2388"><ele>469.0</ele><time>2026-04-06T14:48:19.861Z</time></trkpt><trkpt lat="40.492378" lon="16.2389699"><ele>469.0</ele><time>2026-04-06T14:48:20.861Z</time></trkpt><trkpt lat="40.4923053" lon="16.2391326"><ele>469.0</ele><time>2026-04-06T14:48:21.861Z</time></trkpt><trkpt lat="40.4922391" lon="16.2392904"><ele>469.0</ele><time>2026-04-06T14:48:22.862Z</time></trkpt><trkpt lat="40.4921678" lon="16.23944"><ele>469.0</ele><time>2026-04-06T14:48:23.861Z</time></trkpt><trkpt lat="40.492099" lon="16.2395875"><ele>469.0</ele><time>2026-04-06T14:48:24.861Z</time></trkpt><trkpt lat="40.4920334" lon="16.2397312"><ele>469.0</ele><time>2026-04-06T14:48:25.862Z</time></trkpt><trkpt lat="40.4919711" lon="16.2398728"><ele>469.0</ele><time>2026-04-06T14:48:26.861Z</time></trkpt><trkpt lat="40.4919104" lon="16.2400136"><ele>470.0</ele><time>2026-04-06T14:48:27.861Z</time></trkpt><trkpt lat="40.4918479" lon="16.240154"><ele>471.0</ele><time>2026-04-06T14:48:28.861Z</time></trkpt><trkpt lat="40.4917852" lon="16.240291"><ele>472.0</ele><time>2026-04-06T14:48:29.861Z</time></trkpt><trkpt lat="40.4917222" lon="16.2404283"><ele>473.0</ele><time>2026-04-06T14:48:30.861Z</time></trkpt><trkpt lat="40.4916593" lon="16.2405624"><ele>473.5</ele><time>2026-04-06T14:48:31.861Z</time></trkpt><trkpt lat="40.4915987" lon="16.2406958"><ele>474.0</ele><time>2026-04-06T14:48:32.861Z</time></trkpt><trkpt lat="40.4915427" lon="16.2408282"><ele>474.5</ele><time>2026-04-06T14:48:33.861Z</time></trkpt><trkpt lat="40.4914898" lon="16.2409611"><ele>475.0</ele><time>2026-04-06T14:48:34.861Z</time></trkpt><trkpt lat="40.4914305" lon="16.2410912"><ele>475.0</ele><time>2026-04-06T14:48:35.862Z</time></trkpt><trkpt lat="40.4913699" lon="16.2412142"><ele>475.0</ele><time>2026-04-06T14:48:36.861Z</time></trkpt><trkpt lat="40.4913136" lon="16.2413323"><ele>475.0</ele><time>2026-04-06T14:48:37.861Z</time></trkpt><trkpt lat="40.4912526" lon="16.2414407"><ele>475.0</ele><time>2026-04-06T14:48:38.861Z</time></trkpt><trkpt lat="40.4911801" lon="16.2415289"><ele>475.0</ele><time>2026-04-06T14:48:39.861Z</time></trkpt><trkpt lat="40.491087" lon="16.2415802"><ele>476.0</ele><time>2026-04-06T14:48:40.861Z</time></trkpt><trkpt lat="40.4909797" lon="16.2415862"><ele>477.0</ele><time>2026-04-06T14:48:41.861Z</time></trkpt><trkpt lat="40.4908706" lon="16.2415598"><ele>478.0</ele><time>2026-04-06T14:48:42.861Z</time></trkpt><trkpt lat="40.4907622" lon="16.2415101"><ele>479.0</ele><time>2026-04-06T14:48:43.861Z</time></trkpt><trkpt lat="40.490657" lon="16.2414471"><ele>480.0</ele><time>2026-04-06T14:48:44.861Z</time></trkpt><trkpt lat="40.4905529" lon="16.2413851"><ele>480.0</ele><time>2026-04-06T14:48:45.861Z</time></trkpt><trkpt lat="40.490447" lon="16.2413235"><ele>480.0</ele><time>2026-04-06T14:48:46.861Z</time></trkpt><trkpt lat="40.4903379" lon="16.2412672"><ele>480.0</ele><time>2026-04-06T14:48:47.861Z</time></trkpt><trkpt lat="40.4902291" lon="16.2412149"><ele>480.0</ele><time>2026-04-06T14:48:48.861Z</time></trkpt><trkpt lat="40.4901105" lon="16.2411785"><ele>481.0</ele><time>2026-04-06T14:48:49.861Z</time></trkpt><trkpt lat="40.4899962" lon="16.2411567"><ele>482.0</ele><time>2026-04-06T14:48:50.861Z</time></trkpt><trkpt lat="40.4898808" lon="16.2411622"><ele>483.0</ele><time>2026-04-06T14:48:51.861Z</time></trkpt><trkpt lat="40.4897732" lon="16.2412066"><ele>484.0</ele><time>2026-04-06T14:48:52.862Z</time></trkpt><trkpt lat="40.4896795" lon="16.2412915"><ele>484.0</ele><time>2026-04-06T14:48:53.861Z</time></trkpt><trkpt lat="40.4895998" lon="16.2414166"><ele>484.0</ele><time>2026-04-06T14:48:54.861Z</time></trkpt><trkpt lat="40.4895205" lon="16.2415369"><ele>484.0</ele><time>2026-04-06T14:48:55.861Z</time></trkpt><trkpt lat="40.4894361" lon="16.2416472"><ele>484.0</ele><time>2026-04-06T14:48:56.861Z</time></trkpt><trkpt lat="40.4893435" lon="16.2417495"><ele>486.0</ele><time>2026-04-06T14:48:57.861Z</time></trkpt><trkpt lat="40.4892515" lon="16.2418474"><ele>488.0</ele><time>2026-04-06T14:48:58.861Z</time></trkpt><trkpt lat="40.4891649" lon="16.2419488"><ele>490.0</ele><time>2026-04-06T14:48:59.861Z</time></trkpt><trkpt lat="40.4890748" lon="16.2420511"><ele>492.0</ele><time>2026-04-06T14:49:00.861Z</time></trkpt><trkpt lat="40.4889859" lon="16.2421479"><ele>492.0</ele><time>2026-04-06T14:49:01.861Z</time></trkpt><trkpt lat="40.4888959" lon="16.2422452"><ele>492.0</ele><time>2026-04-06T14:49:02.861Z</time></trkpt><trkpt lat="40.4888053" lon="16.2423363"><ele>492.0</ele><time>2026-04-06T14:49:03.861Z</time></trkpt><trkpt lat="40.4887147" lon="16.2424223"><ele>492.0</ele><time>2026-04-06T14:49:04.862Z</time></trkpt><trkpt lat="40.4886228" lon="16.2425057"><ele>494.5</ele><time>2026-04-06T14:49:05.861Z</time></trkpt><trkpt lat="40.4885308" lon="16.2425922"><ele>497.0</ele><time>2026-04-06T14:49:06.861Z</time></trkpt><trkpt lat="40.4884407" lon="16.2426765"><ele>499.5</ele><time>2026-04-06T14:49:07.861Z</time></trkpt><trkpt lat="40.4883375" lon="16.242741"><ele>502.0</ele><time>2026-04-06T14:49:08.862Z</time></trkpt><trkpt lat="40.488226" lon="16.2427957"><ele>502.0</ele><time>2026-04-06T14:49:09.862Z</time></trkpt><trkpt lat="40.4881189" lon="16.2428532"><ele>502.0</ele><time>2026-04-06T14:49:10.861Z</time></trkpt><trkpt lat="40.488014" lon="16.2429247"><ele>502.0</ele><time>2026-04-06T14:49:11.862Z</time></trkpt><trkpt lat="40.4879151" lon="16.2430087"><ele>502.0</ele><time>2026-04-06T14:49:12.861Z</time></trkpt><trkpt lat="40.4878217" lon="16.2431019"><ele>503.40000000000003</ele><time>2026-04-06T14:49:13.862Z</time></trkpt><trkpt lat="40.487736" lon="16.2431993"><ele>504.80000000000007</ele><time>2026-04-06T14:49:14.861Z</time></trkpt><trkpt lat="40.4876548" lon="16.2432929"><ele>506.2</ele><time>2026-04-06T14:49:15.861Z</time></trkpt><trkpt lat="40.4875791" lon="16.243381"><ele>507.6</ele><time>2026-04-06T14:49:16.862Z</time></trkpt><trkpt lat="40.4875076" lon="16.243465"><ele>509.0</ele><time>2026-04-06T14:49:17.861Z</time></trkpt><trkpt lat="40.4874424" lon="16.2435545"><ele>509.0</ele><time>2026-04-06T14:49:18.861Z</time></trkpt><trkpt lat="40.4873803" lon="16.2436467"><ele>509.0</ele><time>2026-04-06T14:49:19.861Z</time></trkpt><trkpt lat="40.4873147" lon="16.243733"><ele>509.0</ele><time>2026-04-06T14:49:20.861Z</time></trkpt><trkpt lat="40.4872442" lon="16.2438138"><ele>509.0</ele><time>2026-04-06T14:49:21.861Z</time></trkpt><trkpt lat="40.4871736" lon="16.2438914"><ele>509.0</ele><time>2026-04-06T14:49:22.861Z</time></trkpt><trkpt lat="40.4871021" lon="16.2439713"><ele>508.6</ele><time>2026-04-06T14:49:23.861Z</time></trkpt><trkpt lat="40.4870279" lon="16.2440591"><ele>508.2</ele><time>2026-04-06T14:49:24.861Z</time></trkpt><trkpt lat="40.4869555" lon="16.244151"><ele>507.80000000000007</ele><time>2026-04-06T14:49:25.861Z</time></trkpt><trkpt lat="40.4868877" lon="16.2442489"><ele>507.40000000000003</ele><time>2026-04-06T14:49:26.861Z</time></trkpt><trkpt lat="40.4868278" lon="16.2443549"><ele>507.0</ele><time>2026-04-06T14:49:27.862Z</time></trkpt><trkpt lat="40.4867758" lon="16.2444669"><ele>507.0</ele><time>2026-04-06T14:49:28.861Z</time></trkpt><trkpt lat="40.4867343" lon="16.2445905"><ele>507.00000000000006</ele><time>2026-04-06T14:49:29.861Z</time></trkpt><trkpt lat="40.4867074" lon="16.244722"><ele>507.00000000000006</ele><time>2026-04-06T14:49:30.862Z</time></trkpt><trkpt lat="40.4867005" lon="16.2448601"><ele>507.0</ele><time>2026-04-06T14:49:31.862Z</time></trkpt><trkpt lat="40.4867059" lon="16.2449984"><ele>507.0</ele><time>2026-04-06T14:49:32.861Z</time></trkpt><trkpt lat="40.4867158" lon="16.2451361"><ele>509.0</ele><time>2026-04-06T14:49:33.861Z</time></trkpt><trkpt lat="40.4867282" lon="16.2452735"><ele>511.00000000000006</ele><time>2026-04-06T14:49:34.861Z</time></trkpt><trkpt lat="40.4867361" lon="16.245412"><ele>513.0</ele><time>2026-04-06T14:49:35.861Z</time></trkpt><trkpt lat="40.4867336" lon="16.2455566"><ele>515.0</ele><time>2026-04-06T14:49:36.861Z</time></trkpt><trkpt lat="40.4867296" lon="16.2456991"><ele>517.0</ele><time>2026-04-06T14:49:37.861Z</time></trkpt><trkpt lat="40.4867235" lon="16.2458385"><ele>518.0</ele><time>2026-04-06T14:49:38.861Z</time></trkpt><trkpt lat="40.4867208" lon="16.2459732"><ele>519.0</ele><time>2026-04-06T14:49:39.861Z</time></trkpt><trkpt lat="40.4867271" lon="16.246104"><ele>520.0</ele><time>2026-04-06T14:49:40.861Z</time></trkpt><trkpt lat="40.4867371" lon="16.2462446"><ele>521.0</ele><time>2026-04-06T14:49:41.861Z</time></trkpt><trkpt lat="40.4867458" lon="16.2463809"><ele>522.0</ele><time>2026-04-06T14:49:42.861Z</time></trkpt><trkpt lat="40.4867564" lon="16.2465149"><ele>522.6</ele><time>2026-04-06T14:49:43.862Z</time></trkpt><trkpt lat="40.4867668" lon="16.246652"><ele>523.2</ele><time>2026-04-06T14:49:44.861Z</time></trkpt><trkpt lat="40.4867789" lon="16.2467814"><ele>523.8</ele><time>2026-04-06T14:49:45.861Z</time></trkpt><trkpt lat="40.4867862" lon="16.2469089"><ele>524.4</ele><time>2026-04-06T14:49:46.861Z</time></trkpt><trkpt lat="40.486787" lon="16.2470354"><ele>525.0</ele><time>2026-04-06T14:49:47.861Z</time></trkpt><trkpt lat="40.4867849" lon="16.2471546"><ele>525.0</ele><time>2026-04-06T14:49:48.861Z</time></trkpt><trkpt lat="40.4867801" lon="16.2472597"><ele>525.0</ele><time>2026-04-06T14:49:49.861Z</time></trkpt><trkpt lat="40.4867701" lon="16.2473457"><ele>525.0</ele><time>2026-04-06T14:49:50.861Z</time></trkpt><trkpt lat="40.4867518" lon="16.247503"><ele>525.0</ele><time>2026-04-06T14:49:52.862Z</time></trkpt><trkpt lat="40.4867452" lon="16.2475855"><ele>525.0</ele><time>2026-04-06T14:49:53.861Z</time></trkpt><trkpt lat="40.4867362" lon="16.2476707"><ele>525.0</ele><time>2026-04-06T14:49:54.862Z</time></trkpt><trkpt lat="40.4867218" lon="16.2477571"><ele>526.1666666666666</ele><time>2026-04-06T14:49:55.861Z</time></trkpt><trkpt lat="40.4867025" lon="16.247849"><ele>527.3333333333334</ele><time>2026-04-06T14:49:56.861Z</time></trkpt><trkpt lat="40.4866736" lon="16.2479399"><ele>528.5</ele><time>2026-04-06T14:49:57.861Z</time></trkpt><trkpt lat="40.4866407" lon="16.2480342"><ele>529.6666666666667</ele><time>2026-04-06T14:49:58.861Z</time></trkpt><trkpt lat="40.4866066" lon="16.2481342"><ele>530.8333333333334</ele><time>2026-04-06T14:49:59.861Z</time></trkpt><trkpt lat="40.4865648" lon="16.2482346"><ele>532.0</ele><time>2026-04-06T14:50:00.861Z</time></trkpt><trkpt lat="40.486516" lon="16.2483277"><ele>533.3333333333334</ele><time>2026-04-06T14:50:01.861Z</time></trkpt><trkpt lat="40.4864719" lon="16.2484185"><ele>534.6666666666667</ele><time>2026-04-06T14:50:02.862Z</time></trkpt><trkpt lat="40.4864247" lon="16.2485113"><ele>536.0</ele><time>2026-04-06T14:50:03.861Z</time></trkpt><trkpt lat="40.4863721" lon="16.2485997"><ele>537.3333333333334</ele><time>2026-04-06T14:50:04.861Z</time></trkpt><trkpt lat="40.4863539" lon="16.2487043"><ele>538.6666666666666</ele><time>2026-04-06T14:50:05.861Z</time></trkpt><trkpt lat="40.4863538" lon="16.2488147"><ele>540.0</ele><time>2026-04-06T14:50:06.861Z</time></trkpt><trkpt lat="40.4863611" lon="16.2489215"><ele>540.6666666666666</ele><time>2026-04-06T14:50:07.861Z</time></trkpt><trkpt lat="40.4863744" lon="16.2490259"><ele>541.3333333333334</ele><time>2026-04-06T14:50:08.861Z</time></trkpt><trkpt lat="40.4863877" lon="16.2491243"><ele>542.0</ele><time>2026-04-06T14:50:09.861Z</time></trkpt><trkpt lat="40.4863963" lon="16.2492188"><ele>542.6666666666667</ele><time>2026-04-06T14:50:10.861Z</time></trkpt><trkpt lat="40.4863957" lon="16.249309"><ele>543.3333333333334</ele><time>2026-04-06T14:50:11.861Z</time></trkpt><trkpt lat="40.486361" lon="16.2494548"><ele>544.0</ele><time>2026-04-06T14:50:13.861Z</time></trkpt><trkpt lat="40.4862812" lon="16.2495391"><ele>541.3333333333334</ele><time>2026-04-06T14:50:15.861Z</time></trkpt><trkpt lat="40.4862196" lon="16.249558"><ele>538.6666666666667</ele><time>2026-04-06T14:50:19.861Z</time></trkpt><trkpt lat="40.4861643" lon="16.2496241"><ele>536.0</ele><time>2026-04-06T14:51:26.861Z</time></trkpt><trkpt lat="40.4861235" lon="16.2497522"><ele>533.3333333333334</ele><time>2026-04-06T14:51:28.862Z</time></trkpt><trkpt lat="40.4861004" lon="16.2498392"><ele>530.6666666666666</ele><time>2026-04-06T14:51:29.861Z</time></trkpt><trkpt lat="40.4860887" lon="16.2499402"><ele>528.0</ele><time>2026-04-06T14:51:30.861Z</time></trkpt><trkpt lat="40.4860641" lon="16.2500283"><ele>528.0</ele><time>2026-04-06T14:51:31.861Z</time></trkpt><trkpt lat="40.48603" lon="16.2501107"><ele>528.0</ele><time>2026-04-06T14:51:32.861Z</time></trkpt><trkpt lat="40.4859996" lon="16.2501968"><ele>528.0</ele><time>2026-04-06T14:51:33.861Z</time></trkpt><trkpt lat="40.4859656" lon="16.2502777"><ele>528.0</ele><time>2026-04-06T14:51:34.861Z</time></trkpt><trkpt lat="40.4859343" lon="16.2503593"><ele>528.0</ele><time>2026-04-06T14:51:35.861Z</time></trkpt><trkpt lat="40.4859015" lon="16.2504411"><ele>528.0</ele><time>2026-04-06T14:51:36.861Z</time></trkpt><trkpt lat="40.4858645" lon="16.2505205"><ele>528.0</ele><time>2026-04-06T14:51:37.862Z</time></trkpt><trkpt lat="40.4858259" lon="16.2506036"><ele>529.2857142857142</ele><time>2026-04-06T14:51:38.862Z</time></trkpt><trkpt lat="40.4857844" lon="16.2506854"><ele>530.5714285714286</ele><time>2026-04-06T14:51:39.862Z</time></trkpt><trkpt lat="40.4857436" lon="16.2507671"><ele>531.8571428571429</ele><time>2026-04-06T14:51:40.861Z</time></trkpt><trkpt lat="40.4857082" lon="16.2508549"><ele>533.1428571428571</ele><time>2026-04-06T14:51:41.861Z</time></trkpt><trkpt lat="40.4856677" lon="16.2509342"><ele>534.4285714285714</ele><time>2026-04-06T14:51:42.861Z</time></trkpt><trkpt lat="40.4856204" lon="16.2510098"><ele>535.7142857142857</ele><time>2026-04-06T14:51:43.861Z</time></trkpt><trkpt lat="40.4855746" lon="16.2510897"><ele>537.0</ele><time>2026-04-06T14:51:44.862Z</time></trkpt><trkpt lat="40.4855283" lon="16.2511675"><ele>536.9999999999999</ele><time>2026-04-06T14:51:45.861Z</time></trkpt><trkpt lat="40.4854841" lon="16.2512383"><ele>537.0</ele><time>2026-04-06T14:51:46.862Z</time></trkpt><trkpt lat="40.4854432" lon="16.2513136"><ele>537.0</ele><time>2026-04-06T14:51:47.862Z</time></trkpt><trkpt lat="40.4854059" lon="16.2513915"><ele>537.0</ele><time>2026-04-06T14:51:48.861Z</time></trkpt><trkpt lat="40.4853696" lon="16.2514701"><ele>537.0</ele><time>2026-04-06T14:51:49.861Z</time></trkpt><trkpt lat="40.4853348" lon="16.25155"><ele>536.9999999999999</ele><time>2026-04-06T14:51:50.861Z</time></trkpt><trkpt lat="40.4853029" lon="16.2516366"><ele>537.0</ele><time>2026-04-06T14:51:51.861Z</time></trkpt><trkpt lat="40.4852731" lon="16.251725"><ele>534.4285714285713</ele><time>2026-04-06T14:51:52.861Z</time></trkpt><trkpt lat="40.4852408" lon="16.2518148"><ele>531.8571428571429</ele><time>2026-04-06T14:51:53.861Z</time></trkpt><trkpt lat="40.4852091" lon="16.2519035"><ele>529.2857142857142</ele><time>2026-04-06T14:51:54.861Z</time></trkpt><trkpt lat="40.4851803" lon="16.2519921"><ele>526.7142857142857</ele><time>2026-04-06T14:51:55.862Z</time></trkpt><trkpt lat="40.4851494" lon="16.2520818"><ele>524.1428571428571</ele><time>2026-04-06T14:51:56.861Z</time></trkpt><trkpt lat="40.4851207" lon="16.2521705"><ele>521.5714285714286</ele><time>2026-04-06T14:51:57.861Z</time></trkpt><trkpt lat="40.4850977" lon="16.2522616"><ele>519.0</ele><time>2026-04-06T14:51:58.861Z</time></trkpt><trkpt lat="40.4850788" lon="16.2523532"><ele>519.0</ele><time>2026-04-06T14:51:59.861Z</time></trkpt><trkpt lat="40.485058" lon="16.2524473"><ele>519.0</ele><time>2026-04-06T14:52:00.861Z</time></trkpt><trkpt lat="40.485035" lon="16.2525408"><ele>519.0</ele><time>2026-04-06T14:52:01.861Z</time></trkpt><trkpt lat="40.4850038" lon="16.2526306"><ele>519.0</ele><time>2026-04-06T14:52:02.861Z</time></trkpt><trkpt lat="40.4849692" lon="16.2527217"><ele>519.0</ele><time>2026-04-06T14:52:03.862Z</time></trkpt><trkpt lat="40.4849444" lon="16.2528075"><ele>519.0</ele><time>2026-04-06T14:52:04.861Z</time></trkpt><trkpt lat="40.4849207" lon="16.2529525"><ele>519.0</ele><time>2026-04-06T14:52:06.861Z</time></trkpt><trkpt lat="40.4849455" lon="16.2531045"><ele>519.0</ele><time>2026-04-06T14:52:08.861Z</time></trkpt><trkpt lat="40.4849774" lon="16.2531981"><ele>519.0</ele><time>2026-04-06T14:52:09.862Z</time></trkpt><trkpt lat="40.4850142" lon="16.2532859"><ele>519.0</ele><time>2026-04-06T14:52:10.861Z</time></trkpt><trkpt lat="40.4850502" lon="16.2533738"><ele>519.0</ele><time>2026-04-06T14:52:11.861Z</time></trkpt><trkpt lat="40.4851321" lon="16.2534726"><ele>518.0</ele><time>2026-04-06T14:52:13.861Z</time></trkpt><trkpt lat="40.485243" lon="16.253455"><ele>517.0</ele><time>2026-04-06T14:52:15.861Z</time></trkpt><trkpt lat="40.4853624" lon="16.2533876"><ele>516.0</ele><time>2026-04-06T14:52:17.862Z</time></trkpt><trkpt lat="40.4854273" lon="16.2533593"><ele>515.0</ele><time>2026-04-06T14:52:18.861Z</time></trkpt><trkpt lat="40.4854901" lon="16.2533341"><ele>514.0</ele><time>2026-04-06T14:52:19.861Z</time></trkpt><trkpt lat="40.4856018" lon="16.2532858"><ele>516.5</ele><time>2026-04-06T14:52:21.861Z</time></trkpt><trkpt lat="40.4857159" lon="16.2532638"><ele>519.0</ele><time>2026-04-06T14:52:23.861Z</time></trkpt><trkpt lat="40.4858321" lon="16.2532829"><ele>521.5</ele><time>2026-04-06T14:52:25.861Z</time></trkpt><trkpt lat="40.485955" lon="16.2533194"><ele>524.0</ele><time>2026-04-06T14:52:27.861Z</time></trkpt><trkpt lat="40.4860659" lon="16.2533882"><ele>524.0</ele><time>2026-04-06T14:52:29.862Z</time></trkpt><trkpt lat="40.4861237" lon="16.2534401"><ele>524.0</ele><time>2026-04-06T14:52:30.861Z</time></trkpt><trkpt lat="40.4861888" lon="16.2534934"><ele>524.0</ele><time>2026-04-06T14:52:31.861Z</time></trkpt><trkpt lat="40.4862595" lon="16.2535447"><ele>524.0</ele><time>2026-04-06T14:52:32.861Z</time></trkpt><trkpt lat="40.4863315" lon="16.2535895"><ele>524.0</ele><time>2026-04-06T14:52:33.861Z</time></trkpt><trkpt lat="40.4864035" lon="16.2536216"><ele>524.0</ele><time>2026-04-06T14:52:34.861Z</time></trkpt><trkpt lat="40.4864714" lon="16.2536469"><ele>526.5</ele><time>2026-04-06T14:52:35.861Z</time></trkpt><trkpt lat="40.4865329" lon="16.2536667"><ele>529.0</ele><time>2026-04-06T14:52:36.861Z</time></trkpt><trkpt lat="40.486639" lon="16.2537148"><ele>531.5</ele><time>2026-04-06T14:52:38.862Z</time></trkpt><trkpt lat="40.4867156" lon="16.2537643"><ele>534.0</ele><time>2026-04-06T14:52:41.861Z</time></trkpt><trkpt lat="40.486795" lon="16.2537913"><ele>536.5</ele><time>2026-04-06T14:52:43.861Z</time></trkpt><trkpt lat="40.4868788" lon="16.2537621"><ele>539.0</ele><time>2026-04-06T14:52:45.861Z</time></trkpt><trkpt lat="40.4869541" lon="16.2537075"><ele>539.0</ele><time>2026-04-06T14:52:47.861Z</time></trkpt><trkpt lat="40.4870397" lon="16.2536565"><ele>539.0</ele><time>2026-04-06T14:52:49.861Z</time></trkpt><trkpt lat="40.4870962" lon="16.2535987"><ele>539.0</ele><time>2026-04-06T14:52:51.861Z</time></trkpt><trkpt lat="40.4871492" lon="16.2535041"><ele>539.0</ele><time>2026-04-06T14:52:58.861Z</time></trkpt><trkpt lat="40.4872145" lon="16.2534422"><ele>539.0</ele><time>2026-04-06T14:53:00.861Z</time></trkpt><trkpt lat="40.4873063" lon="16.253433"><ele>539.0</ele><time>2026-04-06T14:53:02.861Z</time></trkpt><trkpt lat="40.4873866" lon="16.2533901"><ele>538.0</ele><time>2026-04-06T14:53:04.862Z</time></trkpt><trkpt lat="40.487438" lon="16.2532861"><ele>537.0</ele><time>2026-04-06T14:53:06.862Z</time></trkpt><trkpt lat="40.487461" lon="16.2531934"><ele>536.0</ele><time>2026-04-06T14:53:08.861Z</time></trkpt><trkpt lat="40.4874564" lon="16.2531106"><ele>535.0</ele><time>2026-04-06T14:53:41.861Z</time></trkpt><trkpt lat="40.4874526" lon="16.2529585"><ele>534.0</ele><time>2026-04-06T14:53:43.861Z</time></trkpt><trkpt lat="40.4874697" lon="16.2528044"><ele>536.5</ele><time>2026-04-06T14:53:45.861Z</time></trkpt><trkpt lat="40.4874941" lon="16.2527225"><ele>539.0</ele><time>2026-04-06T14:53:46.861Z</time></trkpt><trkpt lat="40.4875232" lon="16.2526362"><ele>541.5</ele><time>2026-04-06T14:53:47.861Z</time></trkpt><trkpt lat="40.4875536" lon="16.2525485"><ele>544.0</ele><time>2026-04-06T14:53:48.861Z</time></trkpt><trkpt lat="40.4875751" lon="16.2524674"><ele>546.5</ele><time>2026-04-06T14:53:49.861Z</time></trkpt><trkpt lat="40.487606" lon="16.252329"><ele>549.0</ele><time>2026-04-06T14:53:51.861Z</time></trkpt><trkpt lat="40.4876287" lon="16.2522505"><ele>550.1666666666666</ele><time>2026-04-06T14:53:53.862Z</time></trkpt><trkpt lat="40.4876803" lon="16.2521784"><ele>551.3333333333334</ele><time>2026-04-06T14:53:55.861Z</time></trkpt><trkpt lat="40.4877422" lon="16.2520952"><ele>552.5</ele><time>2026-04-06T14:53:57.862Z</time></trkpt><trkpt lat="40.4877979" lon="16.2520029"><ele>553.6666666666667</ele><time>2026-04-06T14:53:59.861Z</time></trkpt><trkpt lat="40.4878483" lon="16.2519089"><ele>554.8333333333334</ele><time>2026-04-06T14:54:01.861Z</time></trkpt><trkpt lat="40.4878888" lon="16.2518116"><ele>556.0</ele><time>2026-04-06T14:54:03.84Z</time></trkpt><trkpt lat="40.4878907" lon="16.2517028"><ele>556.0</ele><time>2026-04-06T14:54:06.862Z</time></trkpt><trkpt lat="40.4879015" lon="16.2515984"><ele>556.0</ele><time>2026-04-06T14:54:54.86Z</time></trkpt><trkpt lat="40.4879362" lon="16.251449"><ele>556.0</ele><time>2026-04-06T14:54:56.86Z</time></trkpt><trkpt lat="40.4879585" lon="16.2513688"><ele>556.0</ele><time>2026-04-06T14:54:57.86Z</time></trkpt><trkpt lat="40.4879627" lon="16.2512238"><ele>556.0</ele><time>2026-04-06T14:54:59.861Z</time></trkpt><trkpt lat="40.4879568" lon="16.2510918"><ele>555.1666666666667</ele><time>2026-04-06T14:55:01.861Z</time></trkpt><trkpt lat="40.4879474" lon="16.2509788"><ele>554.3333333333334</ele><time>2026-04-06T14:55:03.86Z</time></trkpt><trkpt lat="40.4878967" lon="16.2508865"><ele>553.5</ele><time>2026-04-06T14:55:05.86Z</time></trkpt><trkpt lat="40.4878606" lon="16.2508176"><ele>552.6666666666666</ele><time>2026-04-06T14:55:07.861Z</time></trkpt><trkpt lat="40.4878293" lon="16.2507344"><ele>551.8333333333333</ele><time>2026-04-06T14:55:09.86Z</time></trkpt><trkpt lat="40.4877996" lon="16.2506272"><ele>551.0</ele><time>2026-04-06T14:55:11.86Z</time></trkpt><trkpt lat="40.4877579" lon="16.2505399"><ele>549.2</ele><time>2026-04-06T14:55:13.861Z</time></trkpt><trkpt lat="40.4876865" lon="16.2504619"><ele>547.4000000000001</ele><time>2026-04-06T14:55:15.86Z</time></trkpt><trkpt lat="40.4875958" lon="16.2503709"><ele>545.6</ele><time>2026-04-06T14:55:17.86Z</time></trkpt><trkpt lat="40.4875186" lon="16.2502657"><ele>543.8000000000001</ele><time>2026-04-06T14:55:19.861Z</time></trkpt><trkpt lat="40.4874563" lon="16.2501614"><ele>542.0</ele><time>2026-04-06T14:55:21.861Z</time></trkpt><trkpt lat="40.4874262" lon="16.2500812"><ele>542.0</ele><time>2026-04-06T14:55:23.86Z</time></trkpt><trkpt lat="40.4874221" lon="16.2499878"><ele>542.0</ele><time>2026-04-06T14:55:25.861Z</time></trkpt><trkpt lat="40.4874133" lon="16.2498806"><ele>542.0</ele><time>2026-04-06T14:55:27.861Z</time></trkpt><trkpt lat="40.4874061" lon="16.2497943"><ele>542.0</ele><time>2026-04-06T14:55:37.86Z</time></trkpt><trkpt lat="40.487406" lon="16.249637"><ele>542.0</ele><time>2026-04-06T14:55:39.86Z</time></trkpt><trkpt lat="40.4873964" lon="16.2495423"><ele>542.0</ele><time>2026-04-06T14:55:40.86Z</time></trkpt><trkpt lat="40.4873721" lon="16.2494501"><ele>540.0</ele><time>2026-04-06T14:55:41.861Z</time></trkpt><trkpt lat="40.4873359" lon="16.2493601"><ele>538.0</ele><time>2026-04-06T14:55:42.861Z</time></trkpt><trkpt lat="40.4873001" lon="16.2492727"><ele>536.0</ele><time>2026-04-06T14:55:43.86Z</time></trkpt><trkpt lat="40.4872634" lon="16.2491952"><ele>534.0</ele><time>2026-04-06T14:55:44.86Z</time></trkpt><trkpt lat="40.4871958" lon="16.2490625"><ele>532.0</ele><time>2026-04-06T14:55:46.86Z</time></trkpt><trkpt lat="40.4871318" lon="16.2489495"><ele>532.0</ele><time>2026-04-06T14:55:48.86Z</time></trkpt><trkpt lat="40.4870704" lon="16.248873"><ele>532.0</ele><time>2026-04-06T14:55:50.861Z</time></trkpt><trkpt lat="40.4870293" lon="16.2488092"><ele>532.0</ele><time>2026-04-06T14:55:52.86Z</time></trkpt><trkpt lat="40.487117" lon="16.2488295"><ele>532.0</ele><time>2026-04-06T14:55:59.861Z</time></trkpt><trkpt lat="40.4872087" lon="16.2487324"><ele>532.0</ele><time>2026-04-06T14:56:01.86Z</time></trkpt><trkpt lat="40.4872403" lon="16.2486544"><ele>532.0</ele><time>2026-04-06T14:56:02.86Z</time></trkpt><trkpt lat="40.4872689" lon="16.2485616"><ele>532.0</ele><time>2026-04-06T14:56:03.86Z</time></trkpt><trkpt lat="40.4873022" lon="16.2484718"><ele>532.0</ele><time>2026-04-06T14:56:04.86Z</time></trkpt><trkpt lat="40.4873395" lon="16.2483856"><ele>532.0</ele><time>2026-04-06T14:56:05.86Z</time></trkpt><trkpt lat="40.487374" lon="16.2483067"><ele>532.0</ele><time>2026-04-06T14:56:06.86Z</time></trkpt><trkpt lat="40.4874287" lon="16.2481739"><ele>532.0</ele><time>2026-04-06T14:56:08.86Z</time></trkpt><trkpt lat="40.4874735" lon="16.2480472"><ele>532.0</ele><time>2026-04-06T14:56:10.86Z</time></trkpt><trkpt lat="40.4874989" lon="16.247923"><ele>532.4</ele><time>2026-04-06T14:56:12.86Z</time></trkpt><trkpt lat="40.4875257" lon="16.2478022"><ele>532.8000000000001</ele><time>2026-04-06T14:56:14.86Z</time></trkpt><trkpt lat="40.4875399" lon="16.2476555"><ele>533.2</ele><time>2026-04-06T14:56:16.86Z</time></trkpt><trkpt lat="40.4875676" lon="16.247498"><ele>533.6</ele><time>2026-04-06T14:56:18.86Z</time></trkpt><trkpt lat="40.4876028" lon="16.2473621"><ele>534.0</ele><time>2026-04-06T14:56:20.86Z</time></trkpt><trkpt lat="40.4876523" lon="16.2472299"><ele>534.6</ele><time>2026-04-06T14:56:22.86Z</time></trkpt><trkpt lat="40.4876959" lon="16.2471014"><ele>535.2</ele><time>2026-04-06T14:56:24.861Z</time></trkpt><trkpt lat="40.4877183" lon="16.2469961"><ele>535.8000000000001</ele><time>2026-04-06T14:56:26.861Z</time></trkpt><trkpt lat="40.4877276" lon="16.2468903"><ele>536.4</ele><time>2026-04-06T14:56:28.86Z</time></trkpt><trkpt lat="40.487717" lon="16.2467998"><ele>537.0</ele><time>2026-04-06T14:56:31.86Z</time></trkpt><trkpt lat="40.4876082" lon="16.2468315"><ele>537.0</ele><time>2026-04-06T14:56:34.86Z</time></trkpt><trkpt lat="40.4875129" lon="16.2468611"><ele>537.0</ele><time>2026-04-06T14:56:36.861Z</time></trkpt><trkpt lat="40.4874555" lon="16.2469437"><ele>537.0</ele><time>2026-04-06T14:56:38.86Z</time></trkpt><trkpt lat="40.4874304" lon="16.2470757"><ele>537.0</ele><time>2026-04-06T14:56:40.86Z</time></trkpt><trkpt lat="40.4874066" lon="16.2471849"><ele>537.0</ele><time>2026-04-06T14:56:42.86Z</time></trkpt><trkpt lat="40.4873494" lon="16.2472596"><ele>536.4</ele><time>2026-04-06T14:56:44.86Z</time></trkpt><trkpt lat="40.4872704" lon="16.2473056"><ele>535.8000000000001</ele><time>2026-04-06T14:56:46.861Z</time></trkpt><trkpt lat="40.4871902" lon="16.2473321"><ele>535.2</ele><time>2026-04-06T14:56:48.86Z</time></trkpt><trkpt lat="40.4870939" lon="16.2473577"><ele>534.6</ele><time>2026-04-06T14:56:50.86Z</time></trkpt><trkpt lat="40.4870087" lon="16.247397"><ele>534.0</ele><time>2026-04-06T14:56:52.86Z</time></trkpt><trkpt lat="40.4869132" lon="16.2474412"><ele>533.6</ele><time>2026-04-06T14:56:54.86Z</time></trkpt><trkpt lat="40.486831" lon="16.2475009"><ele>533.2</ele><time>2026-04-06T14:56:56.86Z</time></trkpt><trkpt lat="40.4867851" lon="16.2475862"><ele>532.8000000000001</ele><time>2026-04-06T14:56:58.861Z</time></trkpt><trkpt lat="40.4867628" lon="16.2476909"><ele>532.4</ele><time>2026-04-06T14:57:01.86Z</time></trkpt><trkpt lat="40.4867546" lon="16.2477848"><ele>532.0</ele><time>2026-04-06T14:57:05.861Z</time></trkpt><trkpt lat="40.4866867" lon="16.2479256"><ele>532.0</ele><time>2026-04-06T14:57:07.86Z</time></trkpt><trkpt lat="40.4866485" lon="16.2480208"><ele>532.0</ele><time>2026-04-06T14:57:08.86Z</time></trkpt><trkpt lat="40.4866106" lon="16.248124"><ele>532.0</ele><time>2026-04-06T14:57:09.861Z</time></trkpt><trkpt lat="40.4865696" lon="16.2482341"><ele>532.0</ele><time>2026-04-06T14:57:10.86Z</time></trkpt><trkpt lat="40.486524" lon="16.2483356"><ele>532.0</ele><time>2026-04-06T14:57:11.86Z</time></trkpt><trkpt lat="40.4864803" lon="16.2484365"><ele>532.0</ele><time>2026-04-06T14:57:12.861Z</time></trkpt><trkpt lat="40.4864353" lon="16.2485347"><ele>533.3333333333334</ele><time>2026-04-06T14:57:13.86Z</time></trkpt><trkpt lat="40.4863978" lon="16.2486335"><ele>534.6666666666667</ele><time>2026-04-06T14:57:14.861Z</time></trkpt><trkpt lat="40.4863729" lon="16.2487411"><ele>536.0</ele><time>2026-04-06T14:57:15.86Z</time></trkpt><trkpt lat="40.486366" lon="16.2488514"><ele>537.3333333333334</ele><time>2026-04-06T14:57:16.86Z</time></trkpt><trkpt lat="40.4863752" lon="16.2489646"><ele>538.6666666666666</ele><time>2026-04-06T14:57:17.86Z</time></trkpt><trkpt lat="40.4863907" lon="16.2490696"><ele>540.0</ele><time>2026-04-06T14:57:18.861Z</time></trkpt><trkpt lat="40.486403" lon="16.2491733"><ele>540.6666666666666</ele><time>2026-04-06T14:57:19.86Z</time></trkpt><trkpt lat="40.4864076" lon="16.2492752"><ele>541.3333333333334</ele><time>2026-04-06T14:57:20.86Z</time></trkpt><trkpt lat="40.4863893" lon="16.2493754"><ele>542.0</ele><time>2026-04-06T14:57:21.86Z</time></trkpt><trkpt lat="40.4863537" lon="16.2494663"><ele>542.6666666666667</ele><time>2026-04-06T14:57:22.86Z</time></trkpt><trkpt lat="40.4862909" lon="16.2495394"><ele>543.3333333333334</ele><time>2026-04-06T14:57:23.861Z</time></trkpt><trkpt lat="40.4862434" lon="16.2496116"><ele>544.0</ele><time>2026-04-06T14:57:24.86Z</time></trkpt><trkpt lat="40.486185" lon="16.2496876"><ele>541.3333333333334</ele><time>2026-04-06T14:57:25.86Z</time></trkpt><trkpt lat="40.4861296" lon="16.2497716"><ele>538.6666666666667</ele><time>2026-04-06T14:57:26.861Z</time></trkpt><trkpt lat="40.4860841" lon="16.2498581"><ele>536.0</ele><time>2026-04-06T14:57:27.86Z</time></trkpt><trkpt lat="40.4860457" lon="16.2499592"><ele>533.3333333333334</ele><time>2026-04-06T14:57:28.861Z</time></trkpt><trkpt lat="40.4860128" lon="16.2500593"><ele>530.6666666666666</ele><time>2026-04-06T14:57:29.861Z</time></trkpt><trkpt lat="40.4859803" lon="16.2501583"><ele>528.0</ele><time>2026-04-06T14:57:30.86Z</time></trkpt><trkpt lat="40.4859514" lon="16.250258"><ele>528.0</ele><time>2026-04-06T14:57:31.861Z</time></trkpt><trkpt lat="40.4859206" lon="16.2503516"><ele>528.0</ele><time>2026-04-06T14:57:32.86Z</time></trkpt><trkpt lat="40.4858816" lon="16.2504407"><ele>528.0</ele><time>2026-04-06T14:57:33.86Z</time></trkpt><trkpt lat="40.4858401" lon="16.2505283"><ele>528.0</ele><time>2026-04-06T14:57:34.86Z</time></trkpt><trkpt lat="40.4858019" lon="16.2506135"><ele>528.0</ele><time>2026-04-06T14:57:35.861Z</time></trkpt><trkpt lat="40.4857621" lon="16.2506996"><ele>528.0</ele><time>2026-04-06T14:57:36.86Z</time></trkpt><trkpt lat="40.4857204" lon="16.2507902"><ele>529.8</ele><time>2026-04-06T14:57:37.86Z</time></trkpt><trkpt lat="40.4856722" lon="16.2508779"><ele>531.5999999999999</ele><time>2026-04-06T14:57:38.86Z</time></trkpt><trkpt lat="40.4856209" lon="16.2509653"><ele>533.4000000000001</ele><time>2026-04-06T14:57:39.86Z</time></trkpt><trkpt lat="40.485567" lon="16.2510643"><ele>535.2</ele><time>2026-04-06T14:57:40.86Z</time></trkpt><trkpt lat="40.485509" lon="16.2511715"><ele>537.0</ele><time>2026-04-06T14:57:41.86Z</time></trkpt><trkpt lat="40.4854569" lon="16.2512767"><ele>534.0</ele><time>2026-04-06T14:57:42.86Z</time></trkpt><trkpt lat="40.4854119" lon="16.2513822"><ele>531.0</ele><time>2026-04-06T14:57:43.86Z</time></trkpt><trkpt lat="40.4853653" lon="16.2514804"><ele>528.0</ele><time>2026-04-06T14:57:44.86Z</time></trkpt><trkpt lat="40.4853232" lon="16.2515787"><ele>525.0</ele><time>2026-04-06T14:57:45.861Z</time></trkpt><trkpt lat="40.4852883" lon="16.2516854"><ele>522.0</ele><time>2026-04-06T14:57:46.86Z</time></trkpt><trkpt lat="40.4852603" lon="16.2517958"><ele>519.0</ele><time>2026-04-06T14:57:47.86Z</time></trkpt><trkpt lat="40.485229" lon="16.2518986"><ele>519.0</ele><time>2026-04-06T14:57:48.86Z</time></trkpt><trkpt lat="40.4851955" lon="16.2520014"><ele>519.0</ele><time>2026-04-06T14:57:49.86Z</time></trkpt><trkpt lat="40.485165" lon="16.2521007"><ele>519.0</ele><time>2026-04-06T14:57:50.86Z</time></trkpt><trkpt lat="40.4851366" lon="16.2521992"><ele>519.0</ele><time>2026-04-06T14:57:51.86Z</time></trkpt><trkpt lat="40.4851122" lon="16.2522924"><ele>519.0</ele><time>2026-04-06T14:57:52.861Z</time></trkpt><trkpt lat="40.4850851" lon="16.2523854"><ele>519.0</ele><time>2026-04-06T14:57:53.861Z</time></trkpt><trkpt lat="40.4850585" lon="16.2524797"><ele>519.0</ele><time>2026-04-06T14:57:54.86Z</time></trkpt><trkpt lat="40.4850323" lon="16.2525705"><ele>519.0</ele><time>2026-04-06T14:57:55.86Z</time></trkpt><trkpt lat="40.4850076" lon="16.2526601"><ele>519.0</ele><time>2026-04-06T14:57:56.86Z</time></trkpt><trkpt lat="40.4849828" lon="16.2527497"><ele>519.0</ele><time>2026-04-06T14:57:57.86Z</time></trkpt><trkpt lat="40.4849546" lon="16.2528389"><ele>519.0</ele><time>2026-04-06T14:57:58.86Z</time></trkpt><trkpt lat="40.4849125" lon="16.2529406"><ele>519.0</ele><time>2026-04-06T14:57:59.86Z</time></trkpt><trkpt lat="40.4848627" lon="16.2530454"><ele>518.0</ele><time>2026-04-06T14:58:00.86Z</time></trkpt><trkpt lat="40.4848112" lon="16.2531572"><ele>517.0</ele><time>2026-04-06T14:58:01.86Z</time></trkpt><trkpt lat="40.4847598" lon="16.2532669"><ele>516.0</ele><time>2026-04-06T14:58:02.86Z</time></trkpt><trkpt lat="40.4847075" lon="16.2533728"><ele>515.0</ele><time>2026-04-06T14:58:03.86Z</time></trkpt><trkpt lat="40.4846526" lon="16.2534699"><ele>514.0</ele><time>2026-04-06T14:58:04.86Z</time></trkpt><trkpt lat="40.4845984" lon="16.2535644"><ele>512.6666666666667</ele><time>2026-04-06T14:58:05.861Z</time></trkpt><trkpt lat="40.4845423" lon="16.2536546"><ele>511.33333333333337</ele><time>2026-04-06T14:58:06.86Z</time></trkpt><trkpt lat="40.484487" lon="16.2537387"><ele>510.0</ele><time>2026-04-06T14:58:07.86Z</time></trkpt><trkpt lat="40.4844328" lon="16.2538202"><ele>508.66666666666663</ele><time>2026-04-06T14:58:08.861Z</time></trkpt><trkpt lat="40.4843753" lon="16.2539067"><ele>507.3333333333333</ele><time>2026-04-06T14:58:09.861Z</time></trkpt><trkpt lat="40.4843116" lon="16.2539975"><ele>506.0</ele><time>2026-04-06T14:58:10.86Z</time></trkpt><trkpt lat="40.4842465" lon="16.2540938"><ele>505.4</ele><time>2026-04-06T14:58:11.86Z</time></trkpt><trkpt lat="40.4841866" lon="16.2542005"><ele>504.8</ele><time>2026-04-06T14:58:12.861Z</time></trkpt><trkpt lat="40.4841396" lon="16.2543126"><ele>504.19999999999993</ele><time>2026-04-06T14:58:13.86Z</time></trkpt><trkpt lat="40.4841004" lon="16.2544278"><ele>503.59999999999997</ele><time>2026-04-06T14:58:14.86Z</time></trkpt><trkpt lat="40.4840646" lon="16.2545456"><ele>503.0</ele><time>2026-04-06T14:58:15.861Z</time></trkpt><trkpt lat="40.4840348" lon="16.2546606"><ele>503.0</ele><time>2026-04-06T14:58:16.86Z</time></trkpt><trkpt lat="40.4840039" lon="16.2547718"><ele>502.99999999999994</ele><time>2026-04-06T14:58:17.86Z</time></trkpt><trkpt lat="40.483979" lon="16.2548788"><ele>502.99999999999994</ele><time>2026-04-06T14:58:18.86Z</time></trkpt><trkpt lat="40.4839491" lon="16.2549869"><ele>503.0</ele><time>2026-04-06T14:58:19.86Z</time></trkpt><trkpt lat="40.4839086" lon="16.2551077"><ele>503.0</ele><time>2026-04-06T14:58:20.86Z</time></trkpt><trkpt lat="40.4838514" lon="16.2552373"><ele>501.75</ele><time>2026-04-06T14:58:21.861Z</time></trkpt><trkpt lat="40.4837753" lon="16.2553713"><ele>500.5</ele><time>2026-04-06T14:58:22.861Z</time></trkpt><trkpt lat="40.4836908" lon="16.2555117"><ele>499.25</ele><time>2026-04-06T14:58:23.86Z</time></trkpt><trkpt lat="40.4836057" lon="16.255661"><ele>498.0</ele><time>2026-04-06T14:58:24.861Z</time></trkpt><trkpt lat="40.48352" lon="16.2558148"><ele>496.25</ele><time>2026-04-06T14:58:25.861Z</time></trkpt><trkpt lat="40.4834358" lon="16.2559679"><ele>494.5</ele><time>2026-04-06T14:58:26.86Z</time></trkpt><trkpt lat="40.4833527" lon="16.2561261"><ele>492.75</ele><time>2026-04-06T14:58:27.86Z</time></trkpt><trkpt lat="40.4832779" lon="16.2562947"><ele>491.0</ele><time>2026-04-06T14:58:28.86Z</time></trkpt><trkpt lat="40.4832178" lon="16.2564725"><ele>490.25</ele><time>2026-04-06T14:58:29.86Z</time></trkpt><trkpt lat="40.4831612" lon="16.2566519"><ele>489.5</ele><time>2026-04-06T14:58:30.86Z</time></trkpt><trkpt lat="40.4831045" lon="16.2568245"><ele>488.75</ele><time>2026-04-06T14:58:31.86Z</time></trkpt><trkpt lat="40.4830514" lon="16.2569892"><ele>488.0</ele><time>2026-04-06T14:58:32.86Z</time></trkpt><trkpt lat="40.4829853" lon="16.2571419"><ele>485.25</ele><time>2026-04-06T14:58:33.861Z</time></trkpt><trkpt lat="40.4829006" lon="16.2572877"><ele>482.5</ele><time>2026-04-06T14:58:34.86Z</time></trkpt><trkpt lat="40.4828071" lon="16.2574224"><ele>479.75</ele><time>2026-04-06T14:58:35.86Z</time></trkpt><trkpt lat="40.4827092" lon="16.2575481"><ele>477.0</ele><time>2026-04-06T14:58:36.861Z</time></trkpt><trkpt lat="40.4826054" lon="16.257671"><ele>477.0</ele><time>2026-04-06T14:58:37.86Z</time></trkpt><trkpt lat="40.4824975" lon="16.2578054"><ele>477.0</ele><time>2026-04-06T14:58:38.86Z</time></trkpt><trkpt lat="40.4823942" lon="16.2579475"><ele>477.0</ele><time>2026-04-06T14:58:39.86Z</time></trkpt><trkpt lat="40.4822936" lon="16.2581041"><ele>476.0</ele><time>2026-04-06T14:58:40.86Z</time></trkpt><trkpt lat="40.4821937" lon="16.2582749"><ele>475.0</ele><time>2026-04-06T14:58:41.86Z</time></trkpt><trkpt lat="40.4820903" lon="16.2584533"><ele>474.0</ele><time>2026-04-06T14:58:42.86Z</time></trkpt><trkpt lat="40.4819934" lon="16.2586248"><ele>471.33333333333337</ele><time>2026-04-06T14:58:43.86Z</time></trkpt><trkpt lat="40.481901" lon="16.2587888"><ele>468.6666666666667</ele><time>2026-04-06T14:58:44.86Z</time></trkpt><trkpt lat="40.4818099" lon="16.2589539"><ele>466.0</ele><time>2026-04-06T14:58:45.86Z</time></trkpt><trkpt lat="40.4817285" lon="16.259116"><ele>465.75</ele><time>2026-04-06T14:58:46.86Z</time></trkpt><trkpt lat="40.4816679" lon="16.259283"><ele>465.5</ele><time>2026-04-06T14:58:47.86Z</time></trkpt><trkpt lat="40.4816212" lon="16.2594485"><ele>465.25</ele><time>2026-04-06T14:58:48.86Z</time></trkpt><trkpt lat="40.481583" lon="16.259626"><ele>465.0</ele><time>2026-04-06T14:58:49.86Z</time></trkpt><trkpt lat="40.4815476" lon="16.2598115"><ele>463.75</ele><time>2026-04-06T14:58:50.86Z</time></trkpt><trkpt lat="40.4815177" lon="16.2600013"><ele>462.5</ele><time>2026-04-06T14:58:51.86Z</time></trkpt><trkpt lat="40.4814897" lon="16.2601896"><ele>461.25</ele><time>2026-04-06T14:58:52.86Z</time></trkpt><trkpt lat="40.481459" lon="16.2603784"><ele>460.0</ele><time>2026-04-06T14:58:53.86Z</time></trkpt><trkpt lat="40.4814283" lon="16.2605659"><ele>457.6666666666667</ele><time>2026-04-06T14:58:54.861Z</time></trkpt><trkpt lat="40.4813908" lon="16.2607552"><ele>455.33333333333337</ele><time>2026-04-06T14:58:55.86Z</time></trkpt><trkpt lat="40.4813338" lon="16.260945"><ele>453.0</ele><time>2026-04-06T14:58:56.861Z</time></trkpt><trkpt lat="40.4812517" lon="16.2611328"><ele>452.33333333333337</ele><time>2026-04-06T14:58:57.86Z</time></trkpt><trkpt lat="40.4811558" lon="16.2613194"><ele>451.6666666666667</ele><time>2026-04-06T14:58:58.861Z</time></trkpt><trkpt lat="40.4810548" lon="16.2615071"><ele>451.0</ele><time>2026-04-06T14:58:59.861Z</time></trkpt><trkpt lat="40.4809562" lon="16.2616953"><ele>451.0</ele><time>2026-04-06T14:59:00.86Z</time></trkpt><trkpt lat="40.4808601" lon="16.2618861"><ele>451.0</ele><time>2026-04-06T14:59:01.86Z</time></trkpt><trkpt lat="40.4807634" lon="16.2620748"><ele>451.0</ele><time>2026-04-06T14:59:02.86Z</time></trkpt><trkpt lat="40.480668" lon="16.2622618"><ele>451.0</ele><time>2026-04-06T14:59:03.861Z</time></trkpt><trkpt lat="40.4805753" lon="16.2624475"><ele>451.0</ele><time>2026-04-06T14:59:04.86Z</time></trkpt><trkpt lat="40.480486" lon="16.2626266"><ele>451.0</ele><time>2026-04-06T14:59:05.861Z</time></trkpt><trkpt lat="40.4803975" lon="16.2627991"><ele>449.0</ele><time>2026-04-06T14:59:06.86Z</time></trkpt><trkpt lat="40.4803112" lon="16.2629677"><ele>447.0</ele><time>2026-04-06T14:59:07.861Z</time></trkpt><trkpt lat="40.4802341" lon="16.26313"><ele>445.0</ele><time>2026-04-06T14:59:08.86Z</time></trkpt><trkpt lat="40.4801626" lon="16.2632964"><ele>443.0</ele><time>2026-04-06T14:59:09.86Z</time></trkpt><trkpt lat="40.4801022" lon="16.2634642"><ele>443.0</ele><time>2026-04-06T14:59:10.861Z</time></trkpt><trkpt lat="40.4800469" lon="16.2636308"><ele>443.0</ele><time>2026-04-06T14:59:11.86Z</time></trkpt><trkpt lat="40.4799997" lon="16.2637936"><ele>443.0</ele><time>2026-04-06T14:59:12.86Z</time></trkpt><trkpt lat="40.47995" lon="16.2639607"><ele>443.0</ele><time>2026-04-06T14:59:13.861Z</time></trkpt><trkpt lat="40.4798961" lon="16.2641328"><ele>442.75</ele><time>2026-04-06T14:59:14.86Z</time></trkpt><trkpt lat="40.4798438" lon="16.2643052"><ele>442.5</ele><time>2026-04-06T14:59:15.861Z</time></trkpt><trkpt lat="40.4797906" lon="16.2644809"><ele>442.25</ele><time>2026-04-06T14:59:16.861Z</time></trkpt><trkpt lat="40.4797361" lon="16.2646574"><ele>442.0</ele><time>2026-04-06T14:59:17.861Z</time></trkpt><trkpt lat="40.4796829" lon="16.2648319"><ele>441.0</ele><time>2026-04-06T14:59:18.86Z</time></trkpt><trkpt lat="40.4796304" lon="16.2650094"><ele>440.0</ele><time>2026-04-06T14:59:19.86Z</time></trkpt><trkpt lat="40.4795767" lon="16.2651828"><ele>439.0</ele><time>2026-04-06T14:59:20.861Z</time></trkpt><trkpt lat="40.4795207" lon="16.2653575"><ele>438.0</ele><time>2026-04-06T14:59:21.86Z</time></trkpt><trkpt lat="40.4794666" lon="16.265535"><ele>436.5</ele><time>2026-04-06T14:59:22.86Z</time></trkpt><trkpt lat="40.4794105" lon="16.2657162"><ele>435.0</ele><time>2026-04-06T14:59:23.861Z</time></trkpt><trkpt lat="40.4793567" lon="16.2658971"><ele>433.5</ele><time>2026-04-06T14:59:24.86Z</time></trkpt><trkpt lat="40.4793008" lon="16.2660837"><ele>432.0</ele><time>2026-04-06T14:59:25.86Z</time></trkpt><trkpt lat="40.4792442" lon="16.2662696"><ele>431.75</ele><time>2026-04-06T14:59:26.86Z</time></trkpt><trkpt lat="40.47919" lon="16.2664514"><ele>431.5</ele><time>2026-04-06T14:59:27.86Z</time></trkpt><trkpt lat="40.4791366" lon="16.2666313"><ele>431.25</ele><time>2026-04-06T14:59:28.86Z</time></trkpt><trkpt lat="40.4790838" lon="16.2668035"><ele>431.0</ele><time>2026-04-06T14:59:29.86Z</time></trkpt><trkpt lat="40.4790363" lon="16.2669617"><ele>431.0</ele><time>2026-04-06T14:59:30.86Z</time></trkpt><trkpt lat="40.4789941" lon="16.2671006"><ele>431.0</ele><time>2026-04-06T14:59:31.861Z</time></trkpt><trkpt lat="40.4789573" lon="16.2672125"><ele>431.0</ele><time>2026-04-06T14:59:32.86Z</time></trkpt><trkpt lat="40.4789309" lon="16.2672951"><ele>431.0</ele><time>2026-04-06T14:59:33.86Z</time></trkpt><trkpt lat="40.4789342" lon="16.2674324"><ele>431.0</ele><time>2026-04-06T14:59:35.86Z</time></trkpt><trkpt lat="40.4790192" lon="16.2674937"><ele>431.0</ele><time>2026-04-06T14:59:37.86Z</time></trkpt><trkpt lat="40.4791453" lon="16.2674246"><ele>431.0</ele><time>2026-04-06T14:59:39.86Z</time></trkpt><trkpt lat="40.4792114" lon="16.2673507"><ele>431.0</ele><time>2026-04-06T14:59:40.861Z</time></trkpt><trkpt lat="40.4792726" lon="16.2672573"><ele>431.0</ele><time>2026-04-06T14:59:41.86Z</time></trkpt><trkpt lat="40.4793306" lon="16.2671603"><ele>431.0</ele><time>2026-04-06T14:59:42.86Z</time></trkpt><trkpt lat="40.4793889" lon="16.2670705"><ele>430.99999999999994</ele><time>2026-04-06T14:59:43.86Z</time></trkpt><trkpt lat="40.4794487" lon="16.2669956"><ele>431.0</ele><time>2026-04-06T14:59:44.86Z</time></trkpt><trkpt lat="40.4795131" lon="16.2669248"><ele>431.0</ele><time>2026-04-06T14:59:45.86Z</time></trkpt><trkpt lat="40.4795802" lon="16.266868"><ele>431.0</ele><time>2026-04-06T14:59:46.861Z</time></trkpt><trkpt lat="40.4796481" lon="16.2668306"><ele>430.99999999999994</ele><time>2026-04-06T14:59:47.86Z</time></trkpt><trkpt lat="40.4797199" lon="16.2668123"><ele>431.0</ele><time>2026-04-06T14:59:48.861Z</time></trkpt><trkpt lat="40.4797948" lon="16.2668013"><ele>430.16666666666663</ele><time>2026-04-06T14:59:49.86Z</time></trkpt><trkpt lat="40.4798687" lon="16.2667955"><ele>429.3333333333333</ele><time>2026-04-06T14:59:50.86Z</time></trkpt><trkpt lat="40.4799423" lon="16.2667967"><ele>428.5</ele><time>2026-04-06T14:59:51.86Z</time></trkpt><trkpt lat="40.4800122" lon="16.2667968"><ele>427.66666666666663</ele><time>2026-04-06T14:59:52.86Z</time></trkpt><trkpt lat="40.4800886" lon="16.2667974"><ele>426.8333333333333</ele><time>2026-04-06T14:59:53.86Z</time></trkpt><trkpt lat="40.480168" lon="16.2668016"><ele>426.0</ele><time>2026-04-06T14:59:54.859Z</time></trkpt><trkpt lat="40.4802471" lon="16.2668059"><ele>426.0</ele><time>2026-04-06T14:59:55.859Z</time></trkpt><trkpt lat="40.4803283" lon="16.2668078"><ele>426.0</ele><time>2026-04-06T14:59:56.859Z</time></trkpt><trkpt lat="40.4804114" lon="16.2668092"><ele>426.0</ele><time>2026-04-06T14:59:57.859Z</time></trkpt><trkpt lat="40.4804949" lon="16.2668153"><ele>426.0</ele><time>2026-04-06T14:59:58.859Z</time></trkpt><trkpt lat="40.4805782" lon="16.2668222"><ele>426.0</ele><time>2026-04-06T14:59:59.86Z</time></trkpt><trkpt lat="40.4806652" lon="16.2668293"><ele>426.0</ele><time>2026-04-06T15:00:00.859Z</time></trkpt><trkpt lat="40.4807495" lon="16.2668324"><ele>424.5</ele><time>2026-04-06T15:00:01.859Z</time></trkpt><trkpt lat="40.4808329" lon="16.2668322"><ele>423.0</ele><time>2026-04-06T15:00:02.859Z</time></trkpt><trkpt lat="40.4809126" lon="16.2668375"><ele>421.5</ele><time>2026-04-06T15:00:03.859Z</time></trkpt><trkpt lat="40.4809926" lon="16.2668452"><ele>420.0</ele><time>2026-04-06T15:00:04.859Z</time></trkpt><trkpt lat="40.4810777" lon="16.2668539"><ele>418.5</ele><time>2026-04-06T15:00:05.86Z</time></trkpt><trkpt lat="40.4811684" lon="16.2668694"><ele>417.0</ele><time>2026-04-06T15:00:06.859Z</time></trkpt><trkpt lat="40.4812644" lon="16.2668931"><ele>416.6</ele><time>2026-04-06T15:00:07.859Z</time></trkpt><trkpt lat="40.4813642" lon="16.2669264"><ele>416.20000000000005</ele><time>2026-04-06T15:00:08.86Z</time></trkpt><trkpt lat="40.4814674" lon="16.2669747"><ele>415.8</ele><time>2026-04-06T15:00:09.859Z</time></trkpt><trkpt lat="40.4815663" lon="16.2670387"><ele>415.4</ele><time>2026-04-06T15:00:10.86Z</time></trkpt><trkpt lat="40.481665" lon="16.2671186"><ele>415.0</ele><time>2026-04-06T15:00:11.859Z</time></trkpt><trkpt lat="40.481765" lon="16.2672082"><ele>412.75</ele><time>2026-04-06T15:00:12.859Z</time></trkpt><trkpt lat="40.4818675" lon="16.2673055"><ele>410.5</ele><time>2026-04-06T15:00:13.859Z</time></trkpt><trkpt lat="40.481967" lon="16.2674123"><ele>408.25</ele><time>2026-04-06T15:00:14.859Z</time></trkpt><trkpt lat="40.48206" lon="16.2675353"><ele>406.0</ele><time>2026-04-06T15:00:15.859Z</time></trkpt><trkpt lat="40.4821503" lon="16.2676688"><ele>406.0</ele><time>2026-04-06T15:00:16.859Z</time></trkpt><trkpt lat="40.4822425" lon="16.2678056"><ele>406.0</ele><time>2026-04-06T15:00:17.859Z</time></trkpt><trkpt lat="40.4823307" lon="16.2679462"><ele>406.0</ele><time>2026-04-06T15:00:18.859Z</time></trkpt><trkpt lat="40.4824131" lon="16.2680824"><ele>406.0</ele><time>2026-04-06T15:00:19.859Z</time></trkpt><trkpt lat="40.4825113" lon="16.2682"><ele>402.5</ele><time>2026-04-06T15:00:20.859Z</time></trkpt><trkpt lat="40.4826268" lon="16.2682905"><ele>399.0</ele><time>2026-04-06T15:00:21.859Z</time></trkpt><trkpt lat="40.4827485" lon="16.2683573"><ele>395.5</ele><time>2026-04-06T15:00:22.859Z</time></trkpt><trkpt lat="40.4828761" lon="16.2684113"><ele>392.0</ele><time>2026-04-06T15:00:23.859Z</time></trkpt><trkpt lat="40.4830005" lon="16.2684875"><ele>392.0</ele><time>2026-04-06T15:00:24.86Z</time></trkpt><trkpt lat="40.4831229" lon="16.2685968"><ele>392.0</ele><time>2026-04-06T15:00:25.859Z</time></trkpt><trkpt lat="40.4832412" lon="16.2687215"><ele>392.0</ele><time>2026-04-06T15:00:26.86Z</time></trkpt><trkpt lat="40.4833647" lon="16.2688499"><ele>385.0</ele><time>2026-04-06T15:00:27.859Z</time></trkpt><trkpt lat="40.4834889" lon="16.2689736"><ele>378.0</ele><time>2026-04-06T15:00:28.859Z</time></trkpt><trkpt lat="40.4836178" lon="16.2690971"><ele>371.0</ele><time>2026-04-06T15:00:29.859Z</time></trkpt><trkpt lat="40.4837478" lon="16.2692301"><ele>370.6666666666667</ele><time>2026-04-06T15:00:30.859Z</time></trkpt><trkpt lat="40.4838726" lon="16.2693625"><ele>370.3333333333333</ele><time>2026-04-06T15:00:31.859Z</time></trkpt><trkpt lat="40.4839888" lon="16.2694987"><ele>370.0</ele><time>2026-04-06T15:00:32.859Z</time></trkpt><trkpt lat="40.4840956" lon="16.2696408"><ele>367.66666666666663</ele><time>2026-04-06T15:00:33.859Z</time></trkpt><trkpt lat="40.4841863" lon="16.2697926"><ele>365.3333333333333</ele><time>2026-04-06T15:00:34.859Z</time></trkpt><trkpt lat="40.4842572" lon="16.2699691"><ele>363.0</ele><time>2026-04-06T15:00:35.859Z</time></trkpt><trkpt lat="40.4843067" lon="16.2701573"><ele>363.0</ele><time>2026-04-06T15:00:36.859Z</time></trkpt><trkpt lat="40.4843653" lon="16.2703305"><ele>363.0</ele><time>2026-04-06T15:00:37.859Z</time></trkpt><trkpt lat="40.4844429" lon="16.270467"><ele>363.0</ele><time>2026-04-06T15:00:38.859Z</time></trkpt><trkpt lat="40.4845456" lon="16.2705594"><ele>363.0</ele><time>2026-04-06T15:00:39.859Z</time></trkpt><trkpt lat="40.4846689" lon="16.27061"><ele>360.25</ele><time>2026-04-06T15:00:40.859Z</time></trkpt><trkpt lat="40.4848015" lon="16.2706134"><ele>357.5</ele><time>2026-04-06T15:00:41.859Z</time></trkpt><trkpt lat="40.4849279" lon="16.2705695"><ele>354.75</ele><time>2026-04-06T15:00:42.86Z</time></trkpt><trkpt lat="40.4850532" lon="16.270482"><ele>352.0</ele><time>2026-04-06T15:00:43.86Z</time></trkpt><trkpt lat="40.485172" lon="16.2703738"><ele>351.75</ele><time>2026-04-06T15:00:44.86Z</time></trkpt><trkpt lat="40.4852879" lon="16.270271"><ele>351.5</ele><time>2026-04-06T15:00:45.859Z</time></trkpt><trkpt lat="40.4854082" lon="16.2702034"><ele>351.25</ele><time>2026-04-06T15:00:46.859Z</time></trkpt><trkpt lat="40.48553" lon="16.2701822"><ele>351.0</ele><time>2026-04-06T15:00:47.859Z</time></trkpt><trkpt lat="40.4856533" lon="16.2702107"><ele>349.25</ele><time>2026-04-06T15:00:48.86Z</time></trkpt><trkpt lat="40.48578" lon="16.2702866"><ele>347.5</ele><time>2026-04-06T15:00:49.859Z</time></trkpt><trkpt lat="40.4858934" lon="16.2704025"><ele>345.75</ele><time>2026-04-06T15:00:50.859Z</time></trkpt><trkpt lat="40.486009" lon="16.2705258"><ele>344.0</ele><time>2026-04-06T15:00:51.859Z</time></trkpt><trkpt lat="40.486134" lon="16.2706371"><ele>338.6666666666667</ele><time>2026-04-06T15:00:52.859Z</time></trkpt><trkpt lat="40.4862796" lon="16.270712"><ele>333.3333333333333</ele><time>2026-04-06T15:00:53.86Z</time></trkpt><trkpt lat="40.4864363" lon="16.2707454"><ele>328.0</ele><time>2026-04-06T15:00:54.86Z</time></trkpt><trkpt lat="40.4865971" lon="16.2707469"><ele>328.0</ele><time>2026-04-06T15:00:55.859Z</time></trkpt><trkpt lat="40.4867644" lon="16.270731"><ele>328.0</ele><time>2026-04-06T15:00:56.86Z</time></trkpt><trkpt lat="40.4869365" lon="16.2707114"><ele>328.0</ele><time>2026-04-06T15:00:57.859Z</time></trkpt><trkpt lat="40.4871155" lon="16.2706804"><ele>329.0</ele><time>2026-04-06T15:00:58.86Z</time></trkpt><trkpt lat="40.487288" lon="16.2706163"><ele>330.0</ele><time>2026-04-06T15:00:59.86Z</time></trkpt><trkpt lat="40.4874588" lon="16.2705148"><ele>331.0</ele><time>2026-04-06T15:01:00.859Z</time></trkpt><trkpt lat="40.4876244" lon="16.2703939"><ele>331.0</ele><time>2026-04-06T15:01:01.859Z</time></trkpt><trkpt lat="40.4877856" lon="16.2702766"><ele>331.0</ele><time>2026-04-06T15:01:02.859Z</time></trkpt><trkpt lat="40.4879526" lon="16.2701802"><ele>331.0</ele><time>2026-04-06T15:01:03.859Z</time></trkpt><trkpt lat="40.4881268" lon="16.2701141"><ele>326.3333333333333</ele><time>2026-04-06T15:01:04.86Z</time></trkpt><trkpt lat="40.4883031" lon="16.2700651"><ele>321.6666666666667</ele><time>2026-04-06T15:01:05.859Z</time></trkpt><trkpt lat="40.4884879" lon="16.2700267"><ele>317.0</ele><time>2026-04-06T15:01:06.859Z</time></trkpt><trkpt lat="40.4886735" lon="16.2699919"><ele>312.6666666666667</ele><time>2026-04-06T15:01:07.859Z</time></trkpt><trkpt lat="40.488853" lon="16.2699743"><ele>308.3333333333333</ele><time>2026-04-06T15:01:08.859Z</time></trkpt><trkpt lat="40.489022" lon="16.2699839"><ele>304.0</ele><time>2026-04-06T15:01:09.859Z</time></trkpt><trkpt lat="40.4891828" lon="16.270003"><ele>304.0</ele><time>2026-04-06T15:01:10.859Z</time></trkpt><trkpt lat="40.4893509" lon="16.2700041"><ele>304.0</ele><time>2026-04-06T15:01:11.86Z</time></trkpt><trkpt lat="40.4895187" lon="16.2699634"><ele>304.0</ele><time>2026-04-06T15:01:12.859Z</time></trkpt><trkpt lat="40.4896849" lon="16.2699"><ele>301.3333333333333</ele><time>2026-04-06T15:01:13.859Z</time></trkpt><trkpt lat="40.4898427" lon="16.2698374"><ele>298.6666666666667</ele><time>2026-04-06T15:01:14.859Z</time></trkpt><trkpt lat="40.4899897" lon="16.2697856"><ele>296.0</ele><time>2026-04-06T15:01:15.859Z</time></trkpt><trkpt lat="40.4901258" lon="16.2697416"><ele>296.0</ele><time>2026-04-06T15:01:16.859Z</time></trkpt><trkpt lat="40.4902575" lon="16.2697116"><ele>296.0</ele><time>2026-04-06T15:01:17.859Z</time></trkpt><trkpt lat="40.4903932" lon="16.2696911"><ele>296.0</ele><time>2026-04-06T15:01:18.859Z</time></trkpt><trkpt lat="40.490526" lon="16.2696751"><ele>296.0</ele><time>2026-04-06T15:01:19.859Z</time></trkpt><trkpt lat="40.4906465" lon="16.269661"><ele>295.40000000000003</ele><time>2026-04-06T15:01:20.859Z</time></trkpt><trkpt lat="40.4907573" lon="16.2696487"><ele>294.8</ele><time>2026-04-06T15:01:21.859Z</time></trkpt><trkpt lat="40.4908609" lon="16.2696437"><ele>294.20000000000005</ele><time>2026-04-06T15:01:22.859Z</time></trkpt><trkpt lat="40.4909556" lon="16.2696656"><ele>293.6</ele><time>2026-04-06T15:01:23.859Z</time></trkpt><trkpt lat="40.4910444" lon="16.2697228"><ele>293.0</ele><time>2026-04-06T15:01:24.859Z</time></trkpt><trkpt lat="40.491113" lon="16.2698143"><ele>293.0</ele><time>2026-04-06T15:01:25.86Z</time></trkpt><trkpt lat="40.4911565" lon="16.2699276"><ele>293.0</ele><time>2026-04-06T15:01:26.859Z</time></trkpt><trkpt lat="40.4911923" lon="16.2700567"><ele>293.0</ele><time>2026-04-06T15:01:27.859Z</time></trkpt><trkpt lat="40.4912275" lon="16.2702005"><ele>293.0</ele><time>2026-04-06T15:01:28.859Z</time></trkpt><trkpt lat="40.4912647" lon="16.270351"><ele>293.0</ele><time>2026-04-06T15:01:29.859Z</time></trkpt><trkpt lat="40.4913053" lon="16.270504"><ele>294.25</ele><time>2026-04-06T15:01:30.86Z</time></trkpt><trkpt lat="40.4913511" lon="16.2706534"><ele>295.5</ele><time>2026-04-06T15:01:31.859Z</time></trkpt><trkpt lat="40.4913995" lon="16.2708126"><ele>296.75</ele><time>2026-04-06T15:01:32.859Z</time></trkpt><trkpt lat="40.4914499" lon="16.2709801"><ele>298.0</ele><time>2026-04-06T15:01:33.859Z</time></trkpt><trkpt lat="40.4915056" lon="16.2711542"><ele>298.0</ele><time>2026-04-06T15:01:34.859Z</time></trkpt><trkpt lat="40.4915646" lon="16.2713369"><ele>298.0</ele><time>2026-04-06T15:01:35.859Z</time></trkpt><trkpt lat="40.4916286" lon="16.271514"><ele>298.0</ele><time>2026-04-06T15:01:36.859Z</time></trkpt><trkpt lat="40.4917081" lon="16.271679"><ele>298.0</ele><time>2026-04-06T15:01:37.859Z</time></trkpt><trkpt lat="40.4917997" lon="16.2718389"><ele>299.3333333333333</ele><time>2026-04-06T15:01:38.86Z</time></trkpt><trkpt lat="40.4919027" lon="16.2719892"><ele>300.6666666666667</ele><time>2026-04-06T15:01:39.859Z</time></trkpt><trkpt lat="40.492017" lon="16.2721294"><ele>302.0</ele><time>2026-04-06T15:01:40.859Z</time></trkpt><trkpt lat="40.4921361" lon="16.2722649"><ele>297.6666666666667</ele><time>2026-04-06T15:01:41.86Z</time></trkpt><trkpt lat="40.4922558" lon="16.2723975"><ele>293.3333333333333</ele><time>2026-04-06T15:01:42.859Z</time></trkpt><trkpt lat="40.4923734" lon="16.2725306"><ele>289.0</ele><time>2026-04-06T15:01:43.86Z</time></trkpt><trkpt lat="40.4924844" lon="16.2726709"><ele>289.0</ele><time>2026-04-06T15:01:44.859Z</time></trkpt><trkpt lat="40.4925855" lon="16.2728174"><ele>289.0</ele><time>2026-04-06T15:01:45.859Z</time></trkpt><trkpt lat="40.4926786" lon="16.2729733"><ele>289.0</ele><time>2026-04-06T15:01:46.859Z</time></trkpt><trkpt lat="40.4927639" lon="16.2731416"><ele>289.66666666666663</ele><time>2026-04-06T15:01:47.859Z</time></trkpt><trkpt lat="40.4928464" lon="16.2733164"><ele>290.3333333333333</ele><time>2026-04-06T15:01:48.859Z</time></trkpt><trkpt lat="40.4929358" lon="16.2734869"><ele>291.0</ele><time>2026-04-06T15:01:49.859Z</time></trkpt><trkpt lat="40.4930349" lon="16.2736534"><ele>289.0</ele><time>2026-04-06T15:01:50.859Z</time></trkpt><trkpt lat="40.4931481" lon="16.2738027"><ele>287.0</ele><time>2026-04-06T15:01:51.859Z</time></trkpt><trkpt lat="40.4932676" lon="16.2739393"><ele>285.0</ele><time>2026-04-06T15:01:52.859Z</time></trkpt><trkpt lat="40.4933939" lon="16.2740723"><ele>284.3333333333333</ele><time>2026-04-06T15:01:53.86Z</time></trkpt><trkpt lat="40.4935148" lon="16.2742056"><ele>283.66666666666663</ele><time>2026-04-06T15:01:54.859Z</time></trkpt><trkpt lat="40.4936295" lon="16.2743459"><ele>283.0</ele><time>2026-04-06T15:01:55.859Z</time></trkpt><trkpt lat="40.4937344" lon="16.2745019"><ele>284.0</ele><time>2026-04-06T15:01:56.86Z</time></trkpt><trkpt lat="40.4938297" lon="16.2746737"><ele>285.0</ele><time>2026-04-06T15:01:57.859Z</time></trkpt><trkpt lat="40.4939151" lon="16.2748501"><ele>286.0</ele><time>2026-04-06T15:01:58.859Z</time></trkpt><trkpt lat="40.4939948" lon="16.2750239"><ele>287.0</ele><time>2026-04-06T15:01:59.859Z</time></trkpt><trkpt lat="40.4940696" lon="16.2752001"><ele>288.0</ele><time>2026-04-06T15:02:00.859Z</time></trkpt><trkpt lat="40.494142" lon="16.2753781"><ele>289.0</ele><time>2026-04-06T15:02:01.859Z</time></trkpt><trkpt lat="40.4942117" lon="16.2755471"><ele>287.5</ele><time>2026-04-06T15:02:02.86Z</time></trkpt><trkpt lat="40.4942782" lon="16.2757065"><ele>286.0</ele><time>2026-04-06T15:02:03.859Z</time></trkpt><trkpt lat="40.4943372" lon="16.2758529"><ele>284.5</ele><time>2026-04-06T15:02:04.859Z</time></trkpt><trkpt lat="40.494389" lon="16.2759825"><ele>283.0</ele><time>2026-04-06T15:02:05.859Z</time></trkpt><trkpt lat="40.494441" lon="16.2760866"><ele>283.0</ele><time>2026-04-06T15:02:06.86Z</time></trkpt><trkpt lat="40.4944998" lon="16.2761685"><ele>283.0</ele><time>2026-04-06T15:02:07.86Z</time></trkpt><trkpt lat="40.4945737" lon="16.2762349"><ele>283.0</ele><time>2026-04-06T15:02:08.859Z</time></trkpt><trkpt lat="40.4946581" lon="16.2762929"><ele>283.0</ele><time>2026-04-06T15:02:09.859Z</time></trkpt><trkpt lat="40.4947375" lon="16.276361"><ele>283.0</ele><time>2026-04-06T15:02:10.859Z</time></trkpt><trkpt lat="40.4948017" lon="16.2764544"><ele>284.75</ele><time>2026-04-06T15:02:11.859Z</time></trkpt><trkpt lat="40.4948518" lon="16.276586"><ele>286.5</ele><time>2026-04-06T15:02:12.859Z</time></trkpt><trkpt lat="40.4949045" lon="16.2767337"><ele>288.25</ele><time>2026-04-06T15:02:13.859Z</time></trkpt><trkpt lat="40.4949678" lon="16.2768856"><ele>290.0</ele><time>2026-04-06T15:02:14.859Z</time></trkpt><trkpt lat="40.4950377" lon="16.2770267"><ele>290.0</ele><time>2026-04-06T15:02:15.859Z</time></trkpt><trkpt lat="40.495111" lon="16.2771656"><ele>290.0</ele><time>2026-04-06T15:02:16.859Z</time></trkpt><trkpt lat="40.4951954" lon="16.2772949"><ele>290.0</ele><time>2026-04-06T15:02:17.86Z</time></trkpt><trkpt lat="40.4952916" lon="16.2774104"><ele>290.0</ele><time>2026-04-06T15:02:18.859Z</time></trkpt><trkpt lat="40.4954102" lon="16.277515"><ele>294.25</ele><time>2026-04-06T15:02:19.859Z</time></trkpt><trkpt lat="40.4955384" lon="16.277605"><ele>298.5</ele><time>2026-04-06T15:02:20.859Z</time></trkpt><trkpt lat="40.4956719" lon="16.2776878"><ele>302.75</ele><time>2026-04-06T15:02:21.859Z</time></trkpt><trkpt lat="40.4958045" lon="16.277771"><ele>307.0</ele><time>2026-04-06T15:02:22.859Z</time></trkpt><trkpt lat="40.4959386" lon="16.2778538"><ele>307.0</ele><time>2026-04-06T15:02:23.859Z</time></trkpt><trkpt lat="40.4960721" lon="16.2779331"><ele>307.0</ele><time>2026-04-06T15:02:24.859Z</time></trkpt><trkpt lat="40.496197" lon="16.2780241"><ele>307.0</ele><time>2026-04-06T15:02:25.859Z</time></trkpt><trkpt lat="40.4963128" lon="16.2781325"><ele>307.0</ele><time>2026-04-06T15:02:26.86Z</time></trkpt><trkpt lat="40.4964198" lon="16.2782596"><ele>308.5</ele><time>2026-04-06T15:02:27.859Z</time></trkpt><trkpt lat="40.4965238" lon="16.2783917"><ele>310.0</ele><time>2026-04-06T15:02:28.859Z</time></trkpt><trkpt lat="40.4966268" lon="16.2785245"><ele>311.5</ele><time>2026-04-06T15:02:29.859Z</time></trkpt><trkpt lat="40.4967337" lon="16.2786558"><ele>313.0</ele><time>2026-04-06T15:02:30.859Z</time></trkpt><trkpt lat="40.4968455" lon="16.278785"><ele>313.0</ele><time>2026-04-06T15:02:31.859Z</time></trkpt><trkpt lat="40.4969564" lon="16.2789087"><ele>313.0</ele><time>2026-04-06T15:02:32.859Z</time></trkpt><trkpt lat="40.4970659" lon="16.2790264"><ele>313.0</ele><time>2026-04-06T15:02:33.859Z</time></trkpt><trkpt lat="40.4971799" lon="16.2791351"><ele>313.0</ele><time>2026-04-06T15:02:34.859Z</time></trkpt><trkpt lat="40.4973039" lon="16.2792276"><ele>317.75</ele><time>2026-04-06T15:02:35.86Z</time></trkpt><trkpt lat="40.49743" lon="16.279306"><ele>322.5</ele><time>2026-04-06T15:02:36.86Z</time></trkpt><trkpt lat="40.4975589" lon="16.2793657"><ele>327.25</ele><time>2026-04-06T15:02:37.859Z</time></trkpt><trkpt lat="40.497692" lon="16.27941"><ele>332.0</ele><time>2026-04-06T15:02:38.859Z</time></trkpt><trkpt lat="40.4978234" lon="16.2794525"><ele>336.0</ele><time>2026-04-06T15:02:39.86Z</time></trkpt><trkpt lat="40.4979515" lon="16.2794974"><ele>340.0</ele><time>2026-04-06T15:02:40.86Z</time></trkpt><trkpt lat="40.4980823" lon="16.2795413"><ele>344.0</ele><time>2026-04-06T15:02:41.859Z</time></trkpt><trkpt lat="40.4982128" lon="16.2795771"><ele>348.0</ele><time>2026-04-06T15:02:42.859Z</time></trkpt><trkpt lat="40.4983455" lon="16.2795965"><ele>348.0</ele><time>2026-04-06T15:02:43.859Z</time></trkpt><trkpt lat="40.4984772" lon="16.2795983"><ele>348.0</ele><time>2026-04-06T15:02:44.859Z</time></trkpt><trkpt lat="40.4986058" lon="16.2795815"><ele>348.0</ele><time>2026-04-06T15:02:45.859Z</time></trkpt><trkpt lat="40.4987315" lon="16.2795512"><ele>348.0</ele><time>2026-04-06T15:02:46.859Z</time></trkpt><trkpt lat="40.4988589" lon="16.2795135"><ele>351.0</ele><time>2026-04-06T15:02:47.86Z</time></trkpt><trkpt lat="40.498987" lon="16.2794808"><ele>354.0</ele><time>2026-04-06T15:02:48.859Z</time></trkpt><trkpt lat="40.499115" lon="16.2794477"><ele>357.0</ele><time>2026-04-06T15:02:49.859Z</time></trkpt><trkpt lat="40.4992338" lon="16.2794043"><ele>360.0</ele><time>2026-04-06T15:02:50.86Z</time></trkpt><trkpt lat="40.499351" lon="16.2793521"><ele>360.0</ele><time>2026-04-06T15:02:51.86Z</time></trkpt><trkpt lat="40.4994671" lon="16.2793042"><ele>360.0</ele><time>2026-04-06T15:02:52.859Z</time></trkpt><trkpt lat="40.4995885" lon="16.2792719"><ele>360.0</ele><time>2026-04-06T15:02:53.859Z</time></trkpt><trkpt lat="40.4997083" lon="16.2792661"><ele>360.0</ele><time>2026-04-06T15:02:54.859Z</time></trkpt><trkpt lat="40.4998354" lon="16.2792919"><ele>364.25</ele><time>2026-04-06T15:02:55.86Z</time></trkpt><trkpt lat="40.4999695" lon="16.2793305"><ele>368.5</ele><time>2026-04-06T15:02:56.859Z</time></trkpt><trkpt lat="40.5001078" lon="16.2793713"><ele>372.75</ele><time>2026-04-06T15:02:57.86Z</time></trkpt><trkpt lat="40.5002479" lon="16.2794097"><ele>377.0</ele><time>2026-04-06T15:02:58.859Z</time></trkpt><trkpt lat="40.5003869" lon="16.2794493"><ele>379.0</ele><time>2026-04-06T15:02:59.86Z</time></trkpt><trkpt lat="40.5005216" lon="16.2794879"><ele>381.0</ele><time>2026-04-06T15:03:00.859Z</time></trkpt><trkpt lat="40.5006533" lon="16.2795272"><ele>383.0</ele><time>2026-04-06T15:03:01.859Z</time></trkpt><trkpt lat="40.5007789" lon="16.2795561"><ele>385.0</ele><time>2026-04-06T15:03:02.86Z</time></trkpt><trkpt lat="40.5008966" lon="16.2795681"><ele>385.0</ele><time>2026-04-06T15:03:03.859Z</time></trkpt><trkpt lat="40.5010087" lon="16.279553"><ele>385.0</ele><time>2026-04-06T15:03:04.859Z</time></trkpt><trkpt lat="40.5011261" lon="16.2795157"><ele>385.0</ele><time>2026-04-06T15:03:05.859Z</time></trkpt><trkpt lat="40.501243" lon="16.27947"><ele>385.0</ele><time>2026-04-06T15:03:06.859Z</time></trkpt><trkpt lat="40.5013589" lon="16.2794166"><ele>383.75</ele><time>2026-04-06T15:03:07.859Z</time></trkpt><trkpt lat="40.5014782" lon="16.2793544"><ele>382.5</ele><time>2026-04-06T15:03:08.859Z</time></trkpt><trkpt lat="40.5015998" lon="16.2792923"><ele>381.25</ele><time>2026-04-06T15:03:09.859Z</time></trkpt><trkpt lat="40.5017258" lon="16.2792432"><ele>380.0</ele><time>2026-04-06T15:03:10.86Z</time></trkpt><trkpt lat="40.5018553" lon="16.2792024"><ele>380.0</ele><time>2026-04-06T15:03:11.859Z</time></trkpt><trkpt lat="40.5019846" lon="16.2791738"><ele>380.0</ele><time>2026-04-06T15:03:12.859Z</time></trkpt><trkpt lat="40.5021137" lon="16.2791593"><ele>380.0</ele><time>2026-04-06T15:03:13.86Z</time></trkpt><trkpt lat="40.5022462" lon="16.2791456"><ele>380.0</ele><time>2026-04-06T15:03:14.859Z</time></trkpt><trkpt lat="40.5023806" lon="16.2791248"><ele>378.75</ele><time>2026-04-06T15:03:15.859Z</time></trkpt><trkpt lat="40.5025195" lon="16.2790978"><ele>377.5</ele><time>2026-04-06T15:03:16.86Z</time></trkpt><trkpt lat="40.5026636" lon="16.2790658"><ele>376.25</ele><time>2026-04-06T15:03:17.86Z</time></trkpt><trkpt lat="40.5028067" lon="16.2790404"><ele>375.0</ele><time>2026-04-06T15:03:18.86Z</time></trkpt><trkpt lat="40.502951" lon="16.2790222"><ele>373.3333333333333</ele><time>2026-04-06T15:03:19.859Z</time></trkpt><trkpt lat="40.5030978" lon="16.2790082"><ele>371.66666666666663</ele><time>2026-04-06T15:03:20.86Z</time></trkpt><trkpt lat="40.5032475" lon="16.2789937"><ele>370.0</ele><time>2026-04-06T15:03:21.859Z</time></trkpt><trkpt lat="40.5034003" lon="16.2789796"><ele>370.0</ele><time>2026-04-06T15:03:22.859Z</time></trkpt><trkpt lat="40.503546" lon="16.2789699"><ele>370.0</ele><time>2026-04-06T15:03:23.86Z</time></trkpt><trkpt lat="40.5036903" lon="16.2789676"><ele>370.0</ele><time>2026-04-06T15:03:24.859Z</time></trkpt><trkpt lat="40.5038347" lon="16.2789871"><ele>370.0</ele><time>2026-04-06T15:03:25.86Z</time></trkpt><trkpt lat="40.5039819" lon="16.2790365"><ele>370.3333333333333</ele><time>2026-04-06T15:03:26.859Z</time></trkpt><trkpt lat="40.504125" lon="16.2791067"><ele>370.6666666666667</ele><time>2026-04-06T15:03:27.859Z</time></trkpt><trkpt lat="40.5042657" lon="16.2791852"><ele>371.0</ele><time>2026-04-06T15:03:28.859Z</time></trkpt><trkpt lat="40.5044083" lon="16.2792679"><ele>371.0</ele><time>2026-04-06T15:03:29.86Z</time></trkpt><trkpt lat="40.504549" lon="16.279342"><ele>371.0</ele><time>2026-04-06T15:03:30.86Z</time></trkpt><trkpt lat="40.5046906" lon="16.2794027"><ele>371.0</ele><time>2026-04-06T15:03:31.859Z</time></trkpt><trkpt lat="40.504834" lon="16.2794477"><ele>371.0</ele><time>2026-04-06T15:03:32.859Z</time></trkpt><trkpt lat="40.50498" lon="16.279489"><ele>373.33333333333337</ele><time>2026-04-06T15:03:33.859Z</time></trkpt><trkpt lat="40.5051266" lon="16.2795326"><ele>375.6666666666667</ele><time>2026-04-06T15:03:34.859Z</time></trkpt><trkpt lat="40.5052757" lon="16.2795767"><ele>378.0</ele><time>2026-04-06T15:03:35.859Z</time></trkpt><trkpt lat="40.5054255" lon="16.2796244"><ele>378.0</ele><time>2026-04-06T15:03:36.859Z</time></trkpt><trkpt lat="40.5055714" lon="16.2796796"><ele>378.0</ele><time>2026-04-06T15:03:37.859Z</time></trkpt><trkpt lat="40.5057124" lon="16.2797408"><ele>378.0</ele><time>2026-04-06T15:03:38.86Z</time></trkpt><trkpt lat="40.5058548" lon="16.2798013"><ele>377.6666666666667</ele><time>2026-04-06T15:03:39.859Z</time></trkpt><trkpt lat="40.5059993" lon="16.2798585"><ele>377.33333333333337</ele><time>2026-04-06T15:03:40.86Z</time></trkpt><trkpt lat="40.5061446" lon="16.2799165"><ele>377.0</ele><time>2026-04-06T15:03:41.86Z</time></trkpt><trkpt lat="40.5062924" lon="16.2799731"><ele>376.6666666666667</ele><time>2026-04-06T15:03:42.859Z</time></trkpt><trkpt lat="40.5064359" lon="16.280034"><ele>376.3333333333333</ele><time>2026-04-06T15:03:43.859Z</time></trkpt><trkpt lat="40.5065793" lon="16.2800981"><ele>376.0</ele><time>2026-04-06T15:03:44.859Z</time></trkpt><trkpt lat="40.5067261" lon="16.2801586"><ele>376.0</ele><time>2026-04-06T15:03:45.859Z</time></trkpt><trkpt lat="40.5068616" lon="16.280221"><ele>376.0</ele><time>2026-04-06T15:03:46.86Z</time></trkpt><trkpt lat="40.5069762" lon="16.2802755"><ele>376.0</ele><time>2026-04-06T15:03:47.859Z</time></trkpt><trkpt lat="40.5070643" lon="16.2803198"><ele>376.0</ele><time>2026-04-06T15:03:48.859Z</time></trkpt><trkpt lat="40.5071384" lon="16.2803586"><ele>376.0</ele><time>2026-04-06T15:03:49.859Z</time></trkpt><trkpt lat="40.5072104" lon="16.2804044"><ele>376.4</ele><time>2026-04-06T15:03:50.86Z</time></trkpt><trkpt lat="40.5072822" lon="16.2804675"><ele>376.8</ele><time>2026-04-06T15:03:51.859Z</time></trkpt><trkpt lat="40.507352" lon="16.2805457"><ele>377.2</ele><time>2026-04-06T15:03:52.859Z</time></trkpt><trkpt lat="40.5074238" lon="16.2806337"><ele>377.59999999999997</ele><time>2026-04-06T15:03:53.859Z</time></trkpt><trkpt lat="40.5074885" lon="16.2807344"><ele>378.0</ele><time>2026-04-06T15:03:54.859Z</time></trkpt><trkpt lat="40.5075444" lon="16.2808322"><ele>378.0</ele><time>2026-04-06T15:03:55.86Z</time></trkpt><trkpt lat="40.5075938" lon="16.2809236"><ele>378.0</ele><time>2026-04-06T15:03:56.859Z</time></trkpt><trkpt lat="40.5076419" lon="16.2810082"><ele>378.0</ele><time>2026-04-06T15:03:57.859Z</time></trkpt><trkpt lat="40.5076859" lon="16.2810965"><ele>378.0</ele><time>2026-04-06T15:03:58.859Z</time></trkpt><trkpt lat="40.5077305" lon="16.281194"><ele>378.0</ele><time>2026-04-06T15:03:59.859Z</time></trkpt><trkpt lat="40.5077808" lon="16.2813084"><ele>378.0</ele><time>2026-04-06T15:04:00.86Z</time></trkpt><trkpt lat="40.507834" lon="16.2814398"><ele>376.5</ele><time>2026-04-06T15:04:01.859Z</time></trkpt><trkpt lat="40.5078851" lon="16.2815784"><ele>375.0</ele><time>2026-04-06T15:04:02.859Z</time></trkpt><trkpt lat="40.5079312" lon="16.2817305"><ele>373.5</ele><time>2026-04-06T15:04:03.859Z</time></trkpt><trkpt lat="40.5079735" lon="16.2818974"><ele>372.0</ele><time>2026-04-06T15:04:04.859Z</time></trkpt><trkpt lat="40.508017" lon="16.2820749"><ele>368.75</ele><time>2026-04-06T15:04:05.859Z</time></trkpt><trkpt lat="40.5080574" lon="16.282257"><ele>365.5</ele><time>2026-04-06T15:04:06.86Z</time></trkpt><trkpt lat="40.5080974" lon="16.2824468"><ele>362.25</ele><time>2026-04-06T15:04:07.859Z</time></trkpt><trkpt lat="40.5081355" lon="16.2826407"><ele>359.0</ele><time>2026-04-06T15:04:08.859Z</time></trkpt><trkpt lat="40.5081727" lon="16.2828365"><ele>359.0</ele><time>2026-04-06T15:04:09.859Z</time></trkpt><trkpt lat="40.5082137" lon="16.2830351"><ele>359.0</ele><time>2026-04-06T15:04:10.859Z</time></trkpt><trkpt lat="40.5082593" lon="16.2832405"><ele>359.0</ele><time>2026-04-06T15:04:11.86Z</time></trkpt><trkpt lat="40.5083063" lon="16.2834443"><ele>359.33333333333337</ele><time>2026-04-06T15:04:12.859Z</time></trkpt><trkpt lat="40.5083504" lon="16.2836516"><ele>359.6666666666667</ele><time>2026-04-06T15:04:13.86Z</time></trkpt><trkpt lat="40.5083898" lon="16.2838644"><ele>360.0</ele><time>2026-04-06T15:04:14.859Z</time></trkpt><trkpt lat="40.5084278" lon="16.2840866"><ele>359.0</ele><time>2026-04-06T15:04:15.86Z</time></trkpt><trkpt lat="40.5084613" lon="16.2843191"><ele>358.0</ele><time>2026-04-06T15:04:16.859Z</time></trkpt><trkpt lat="40.5084844" lon="16.2845479"><ele>357.0</ele><time>2026-04-06T15:04:17.859Z</time></trkpt><trkpt lat="40.508495" lon="16.2847712"><ele>356.6666666666667</ele><time>2026-04-06T15:04:18.859Z</time></trkpt><trkpt lat="40.5084967" lon="16.284997"><ele>356.33333333333337</ele><time>2026-04-06T15:04:19.859Z</time></trkpt><trkpt lat="40.5084951" lon="16.2852152"><ele>356.0</ele><time>2026-04-06T15:04:20.86Z</time></trkpt><trkpt lat="40.508498" lon="16.2854157"><ele>355.6666666666667</ele><time>2026-04-06T15:04:21.859Z</time></trkpt><trkpt lat="40.5085023" lon="16.2856155"><ele>355.3333333333333</ele><time>2026-04-06T15:04:22.859Z</time></trkpt><trkpt lat="40.5085127" lon="16.2858154"><ele>355.0</ele><time>2026-04-06T15:04:23.86Z</time></trkpt><trkpt lat="40.5085318" lon="16.2860137"><ele>355.0</ele><time>2026-04-06T15:04:24.859Z</time></trkpt><trkpt lat="40.50855" lon="16.286214"><ele>355.0</ele><time>2026-04-06T15:04:25.859Z</time></trkpt><trkpt lat="40.5085683" lon="16.2864126"><ele>355.0</ele><time>2026-04-06T15:04:26.859Z</time></trkpt><trkpt lat="40.5085796" lon="16.2866098"><ele>354.66666666666663</ele><time>2026-04-06T15:04:27.86Z</time></trkpt><trkpt lat="40.50858" lon="16.2868115"><ele>354.3333333333333</ele><time>2026-04-06T15:04:28.859Z</time></trkpt><trkpt lat="40.5085629" lon="16.2870144"><ele>354.0</ele><time>2026-04-06T15:04:29.859Z</time></trkpt><trkpt lat="40.50853" lon="16.2872203"><ele>355.0</ele><time>2026-04-06T15:04:30.859Z</time></trkpt><trkpt lat="40.5084753" lon="16.2874184"><ele>356.0</ele><time>2026-04-06T15:04:31.859Z</time></trkpt><trkpt lat="40.5084177" lon="16.2876225"><ele>357.0</ele><time>2026-04-06T15:04:32.86Z</time></trkpt><trkpt lat="40.5083559" lon="16.287822"><ele>357.0</ele><time>2026-04-06T15:04:33.859Z</time></trkpt><trkpt lat="40.5082843" lon="16.2880126"><ele>357.0</ele><time>2026-04-06T15:04:34.859Z</time></trkpt><trkpt lat="40.5082017" lon="16.2881958"><ele>357.0</ele><time>2026-04-06T15:04:35.859Z</time></trkpt><trkpt lat="40.5081156" lon="16.2883783"><ele>360.3333333333333</ele><time>2026-04-06T15:04:36.859Z</time></trkpt><trkpt lat="40.5080261" lon="16.2885648"><ele>363.66666666666663</ele><time>2026-04-06T15:04:37.859Z</time></trkpt><trkpt lat="40.5079434" lon="16.2887502"><ele>367.0</ele><time>2026-04-06T15:04:38.859Z</time></trkpt><trkpt lat="40.5078619" lon="16.2889378"><ele>367.0</ele><time>2026-04-06T15:04:39.859Z</time></trkpt><trkpt lat="40.507782" lon="16.28912"><ele>367.0</ele><time>2026-04-06T15:04:40.859Z</time></trkpt><trkpt lat="40.5077055" lon="16.2892924"><ele>367.0</ele><time>2026-04-06T15:04:41.859Z</time></trkpt><trkpt lat="40.5076339" lon="16.2894532"><ele>367.0</ele><time>2026-04-06T15:04:42.859Z</time></trkpt><trkpt lat="40.5075733" lon="16.2895998"><ele>367.0</ele><time>2026-04-06T15:04:43.859Z</time></trkpt><trkpt lat="40.5075222" lon="16.2897448"><ele>367.0</ele><time>2026-04-06T15:04:44.859Z</time></trkpt><trkpt lat="40.5074841" lon="16.2898957"><ele>367.0</ele><time>2026-04-06T15:04:45.859Z</time></trkpt><trkpt lat="40.5074635" lon="16.2900566"><ele>368.5</ele><time>2026-04-06T15:04:46.859Z</time></trkpt><trkpt lat="40.5074531" lon="16.2902278"><ele>370.0</ele><time>2026-04-06T15:04:47.859Z</time></trkpt><trkpt lat="40.5074556" lon="16.2904"><ele>371.5</ele><time>2026-04-06T15:04:48.859Z</time></trkpt><trkpt lat="40.507456" lon="16.2905651"><ele>373.0</ele><time>2026-04-06T15:04:49.859Z</time></trkpt><trkpt lat="40.5074629" lon="16.2907113"><ele>373.0</ele><time>2026-04-06T15:04:50.859Z</time></trkpt><trkpt lat="40.5074701" lon="16.2908447"><ele>373.0</ele><time>2026-04-06T15:04:51.86Z</time></trkpt><trkpt lat="40.5074752" lon="16.2909842"><ele>373.0</ele><time>2026-04-06T15:04:52.859Z</time></trkpt><trkpt lat="40.507475" lon="16.291129"><ele>373.0</ele><time>2026-04-06T15:04:53.859Z</time></trkpt><trkpt lat="40.5074817" lon="16.2912754"><ele>373.0</ele><time>2026-04-06T15:04:54.859Z</time></trkpt><trkpt lat="40.5075045" lon="16.2914134"><ele>371.79999999999995</ele><time>2026-04-06T15:04:55.86Z</time></trkpt><trkpt lat="40.5075392" lon="16.2915489"><ele>370.6</ele><time>2026-04-06T15:04:56.859Z</time></trkpt><trkpt lat="40.507566" lon="16.291687"><ele>369.4</ele><time>2026-04-06T15:04:57.859Z</time></trkpt><trkpt lat="40.5075874" lon="16.2918234"><ele>368.20000000000005</ele><time>2026-04-06T15:04:58.859Z</time></trkpt><trkpt lat="40.5076106" lon="16.2919596"><ele>367.0</ele><time>2026-04-06T15:04:59.859Z</time></trkpt><trkpt lat="40.5076369" lon="16.292095"><ele>367.0</ele><time>2026-04-06T15:05:00.859Z</time></trkpt><trkpt lat="40.5076579" lon="16.2922317"><ele>367.0</ele><time>2026-04-06T15:05:01.86Z</time></trkpt><trkpt lat="40.507675" lon="16.292371"><ele>367.0</ele><time>2026-04-06T15:05:02.859Z</time></trkpt><trkpt lat="40.5076928" lon="16.2925084"><ele>367.0</ele><time>2026-04-06T15:05:03.859Z</time></trkpt><trkpt lat="40.5077085" lon="16.292649"><ele>367.0</ele><time>2026-04-06T15:05:04.859Z</time></trkpt><trkpt lat="40.5077286" lon="16.2927892"><ele>365.40000000000003</ele><time>2026-04-06T15:05:05.859Z</time></trkpt><trkpt lat="40.5077464" lon="16.2929265"><ele>363.8</ele><time>2026-04-06T15:05:06.859Z</time></trkpt><trkpt lat="40.5077643" lon="16.2930604"><ele>362.2</ele><time>2026-04-06T15:05:07.859Z</time></trkpt><trkpt lat="40.5077838" lon="16.2931932"><ele>360.6</ele><time>2026-04-06T15:05:08.858Z</time></trkpt><trkpt lat="40.5078033" lon="16.2933223"><ele>359.0</ele><time>2026-04-06T15:05:09.858Z</time></trkpt><trkpt lat="40.5078267" lon="16.2934478"><ele>357.0</ele><time>2026-04-06T15:05:10.858Z</time></trkpt><trkpt lat="40.507847" lon="16.2935747"><ele>355.0</ele><time>2026-04-06T15:05:11.858Z</time></trkpt><trkpt lat="40.5078715" lon="16.2936962"><ele>353.0</ele><time>2026-04-06T15:05:12.858Z</time></trkpt><trkpt lat="40.5078952" lon="16.293816"><ele>351.0</ele><time>2026-04-06T15:05:13.858Z</time></trkpt><trkpt lat="40.5079158" lon="16.2939319"><ele>349.0</ele><time>2026-04-06T15:05:14.858Z</time></trkpt><trkpt lat="40.5079367" lon="16.2940456"><ele>347.4</ele><time>2026-04-06T15:05:15.858Z</time></trkpt><trkpt lat="40.507957" lon="16.2941573"><ele>345.79999999999995</ele><time>2026-04-06T15:05:16.858Z</time></trkpt><trkpt lat="40.5079725" lon="16.29427"><ele>344.20000000000005</ele><time>2026-04-06T15:05:17.858Z</time></trkpt><trkpt lat="40.5079836" lon="16.2943868"><ele>342.6</ele><time>2026-04-06T15:05:18.858Z</time></trkpt><trkpt lat="40.507997" lon="16.294506"><ele>341.0</ele><time>2026-04-06T15:05:19.859Z</time></trkpt><trkpt lat="40.5080113" lon="16.2946287"><ele>341.0</ele><time>2026-04-06T15:05:20.858Z</time></trkpt><trkpt lat="40.5080249" lon="16.2947537"><ele>341.0</ele><time>2026-04-06T15:05:21.858Z</time></trkpt><trkpt lat="40.5080362" lon="16.2948832"><ele>341.0</ele><time>2026-04-06T15:05:22.858Z</time></trkpt><trkpt lat="40.5080452" lon="16.2950166"><ele>341.0</ele><time>2026-04-06T15:05:23.858Z</time></trkpt><trkpt lat="40.5080575" lon="16.2951547"><ele>341.0</ele><time>2026-04-06T15:05:24.858Z</time></trkpt><trkpt lat="40.5080693" lon="16.2952963"><ele>338.25</ele><time>2026-04-06T15:05:25.859Z</time></trkpt><trkpt lat="40.5080821" lon="16.2954437"><ele>335.5</ele><time>2026-04-06T15:05:26.859Z</time></trkpt><trkpt lat="40.5080943" lon="16.2955905"><ele>332.75</ele><time>2026-04-06T15:05:27.858Z</time></trkpt><trkpt lat="40.5081023" lon="16.2957394"><ele>330.0</ele><time>2026-04-06T15:05:28.858Z</time></trkpt><trkpt lat="40.5081153" lon="16.2958996"><ele>327.25</ele><time>2026-04-06T15:05:29.858Z</time></trkpt><trkpt lat="40.5081246" lon="16.2960559"><ele>324.5</ele><time>2026-04-06T15:05:30.858Z</time></trkpt><trkpt lat="40.5081343" lon="16.2962145"><ele>321.75</ele><time>2026-04-06T15:05:31.858Z</time></trkpt><trkpt lat="40.5081426" lon="16.2963774"><ele>319.0</ele><time>2026-04-06T15:05:32.858Z</time></trkpt><trkpt lat="40.5081508" lon="16.2965427"><ele>316.0</ele><time>2026-04-06T15:05:33.858Z</time></trkpt><trkpt lat="40.508162" lon="16.2967095"><ele>313.0</ele><time>2026-04-06T15:05:34.859Z</time></trkpt><trkpt lat="40.5081747" lon="16.2968794"><ele>310.0</ele><time>2026-04-06T15:05:35.858Z</time></trkpt><trkpt lat="40.5081881" lon="16.2970486"><ele>307.0</ele><time>2026-04-06T15:05:36.859Z</time></trkpt><trkpt lat="40.5082001" lon="16.2972209"><ele>304.75</ele><time>2026-04-06T15:05:37.858Z</time></trkpt><trkpt lat="40.5082133" lon="16.2973886"><ele>302.5</ele><time>2026-04-06T15:05:38.858Z</time></trkpt><trkpt lat="40.5082281" lon="16.2975513"><ele>300.25</ele><time>2026-04-06T15:05:39.858Z</time></trkpt><trkpt lat="40.5082478" lon="16.2977074"><ele>298.0</ele><time>2026-04-06T15:05:40.858Z</time></trkpt><trkpt lat="40.5082736" lon="16.2978614"><ele>298.0</ele><time>2026-04-06T15:05:41.858Z</time></trkpt><trkpt lat="40.5083038" lon="16.2980127"><ele>298.0</ele><time>2026-04-06T15:05:42.858Z</time></trkpt><trkpt lat="40.5083384" lon="16.2981651"><ele>298.0</ele><time>2026-04-06T15:05:43.858Z</time></trkpt><trkpt lat="40.5083715" lon="16.2983179"><ele>298.0</ele><time>2026-04-06T15:05:44.858Z</time></trkpt><trkpt lat="40.5084078" lon="16.2984682"><ele>296.6</ele><time>2026-04-06T15:05:45.858Z</time></trkpt><trkpt lat="40.5084465" lon="16.2986168"><ele>295.20000000000005</ele><time>2026-04-06T15:05:46.858Z</time></trkpt><trkpt lat="40.5084892" lon="16.2987612"><ele>293.8</ele><time>2026-04-06T15:05:47.858Z</time></trkpt><trkpt lat="40.5085315" lon="16.2988984"><ele>292.40000000000003</ele><time>2026-04-06T15:05:48.859Z</time></trkpt><trkpt lat="40.5085695" lon="16.2990144"><ele>291.0</ele><time>2026-04-06T15:05:49.858Z</time></trkpt><trkpt lat="40.5085916" lon="16.2991199"><ele>290.0</ele><time>2026-04-06T15:05:50.858Z</time></trkpt><trkpt lat="40.5085928" lon="16.2992205"><ele>289.0</ele><time>2026-04-06T15:05:51.858Z</time></trkpt><trkpt lat="40.5085723" lon="16.2993192"><ele>288.0</ele><time>2026-04-06T15:05:52.858Z</time></trkpt><trkpt lat="40.5085275" lon="16.2994174"><ele>287.0</ele><time>2026-04-06T15:05:53.859Z</time></trkpt><trkpt lat="40.5084769" lon="16.2995092"><ele>286.0</ele><time>2026-04-06T15:05:54.858Z</time></trkpt><trkpt lat="40.5084416" lon="16.2995987"><ele>285.0</ele><time>2026-04-06T15:05:55.858Z</time></trkpt><trkpt lat="40.5084439" lon="16.2996902"><ele>283.8333333333333</ele><time>2026-04-06T15:05:56.858Z</time></trkpt><trkpt lat="40.5084769" lon="16.2997776"><ele>282.6666666666667</ele><time>2026-04-06T15:05:57.858Z</time></trkpt><trkpt lat="40.5085272" lon="16.2998636"><ele>281.5</ele><time>2026-04-06T15:05:58.858Z</time></trkpt><trkpt lat="40.508589" lon="16.299947"><ele>280.33333333333337</ele><time>2026-04-06T15:05:59.858Z</time></trkpt><trkpt lat="40.5086576" lon="16.3000309"><ele>279.1666666666667</ele><time>2026-04-06T15:06:00.859Z</time></trkpt><trkpt lat="40.5087284" lon="16.3001143"><ele>278.0</ele><time>2026-04-06T15:06:01.858Z</time></trkpt><trkpt lat="40.5088025" lon="16.3001999"><ele>275.5</ele><time>2026-04-06T15:06:02.858Z</time></trkpt><trkpt lat="40.5088776" lon="16.3002674"><ele>273.0</ele><time>2026-04-06T15:06:03.858Z</time></trkpt><trkpt lat="40.5089538" lon="16.3003078"><ele>270.5</ele><time>2026-04-06T15:06:04.858Z</time></trkpt><trkpt lat="40.5090318" lon="16.3003191"><ele>268.0</ele><time>2026-04-06T15:06:05.858Z</time></trkpt><trkpt lat="40.509109" lon="16.3003017"><ele>265.5</ele><time>2026-04-06T15:06:06.858Z</time></trkpt><trkpt lat="40.5091833" lon="16.300266"><ele>263.0</ele><time>2026-04-06T15:06:07.859Z</time></trkpt><trkpt lat="40.5092564" lon="16.3002241"><ele>263.0</ele><time>2026-04-06T15:06:08.858Z</time></trkpt><trkpt lat="40.5093256" lon="16.300179"><ele>263.0</ele><time>2026-04-06T15:06:09.859Z</time></trkpt><trkpt lat="40.5093966" lon="16.3001315"><ele>263.0</ele><time>2026-04-06T15:06:10.858Z</time></trkpt><trkpt lat="40.5094736" lon="16.3000866"><ele>263.0</ele><time>2026-04-06T15:06:11.859Z</time></trkpt><trkpt lat="40.5095571" lon="16.3000587"><ele>263.0</ele><time>2026-04-06T15:06:12.858Z</time></trkpt><trkpt lat="40.5096373" lon="16.3000446"><ele>263.0</ele><time>2026-04-06T15:06:13.858Z</time></trkpt><trkpt lat="40.5097202" lon="16.3000623"><ele>261.5</ele><time>2026-04-06T15:06:14.859Z</time></trkpt><trkpt lat="40.5097994" lon="16.3000997"><ele>260.0</ele><time>2026-04-06T15:06:15.859Z</time></trkpt><trkpt lat="40.5098722" lon="16.3001455"><ele>258.5</ele><time>2026-04-06T15:06:16.858Z</time></trkpt><trkpt lat="40.509938" lon="16.3001928"><ele>257.0</ele><time>2026-04-06T15:06:17.858Z</time></trkpt><trkpt lat="40.5099959" lon="16.3002477"><ele>255.50000000000003</ele><time>2026-04-06T15:06:18.859Z</time></trkpt><trkpt lat="40.5100507" lon="16.3003167"><ele>254.0</ele><time>2026-04-06T15:06:19.859Z</time></trkpt><trkpt lat="40.5101006" lon="16.3003961"><ele>254.00000000000003</ele><time>2026-04-06T15:06:20.858Z</time></trkpt><trkpt lat="40.5101397" lon="16.3004843"><ele>254.0</ele><time>2026-04-06T15:06:21.859Z</time></trkpt><trkpt lat="40.5101666" lon="16.3005614"><ele>254.0</ele><time>2026-04-06T15:06:22.858Z</time></trkpt><trkpt lat="40.5101943" lon="16.3006645"><ele>254.0</ele><time>2026-04-06T15:06:24.859Z</time></trkpt><trkpt lat="40.5102201" lon="16.3007541"><ele>254.00000000000003</ele><time>2026-04-06T15:06:28.858Z</time></trkpt><trkpt lat="40.5103187" lon="16.3008168"><ele>254.0</ele><time>2026-04-06T15:08:20.858Z</time></trkpt><trkpt lat="40.5104012" lon="16.3007996"><ele>252.75</ele><time>2026-04-06T15:08:21.858Z</time></trkpt><trkpt lat="40.510501" lon="16.3007677"><ele>251.5</ele><time>2026-04-06T15:08:22.858Z</time></trkpt><trkpt lat="40.5106108" lon="16.3007345"><ele>250.25</ele><time>2026-04-06T15:08:23.858Z</time></trkpt><trkpt lat="40.5107295" lon="16.3007034"><ele>249.0</ele><time>2026-04-06T15:08:24.858Z</time></trkpt><trkpt lat="40.5108557" lon="16.3006844"><ele>249.0</ele><time>2026-04-06T15:08:25.859Z</time></trkpt><trkpt lat="40.5109848" lon="16.3006707"><ele>249.0</ele><time>2026-04-06T15:08:26.858Z</time></trkpt><trkpt lat="40.5111235" lon="16.3006598"><ele>249.0</ele><time>2026-04-06T15:08:27.858Z</time></trkpt><trkpt lat="40.5112605" lon="16.300649"><ele>249.0</ele><time>2026-04-06T15:08:28.858Z</time></trkpt><trkpt lat="40.5113926" lon="16.3006371"><ele>249.0</ele><time>2026-04-06T15:08:29.858Z</time></trkpt><trkpt lat="40.5115257" lon="16.3006228"><ele>249.0</ele><time>2026-04-06T15:08:30.858Z</time></trkpt><trkpt lat="40.5116604" lon="16.3006104"><ele>249.0</ele><time>2026-04-06T15:08:31.858Z</time></trkpt><trkpt lat="40.511798" lon="16.3005973"><ele>249.0</ele><time>2026-04-06T15:08:32.858Z</time></trkpt><trkpt lat="40.5119378" lon="16.3005804"><ele>249.75</ele><time>2026-04-06T15:08:33.858Z</time></trkpt><trkpt lat="40.5120805" lon="16.3005672"><ele>250.5</ele><time>2026-04-06T15:08:34.858Z</time></trkpt><trkpt lat="40.5122214" lon="16.300554"><ele>251.25</ele><time>2026-04-06T15:08:35.859Z</time></trkpt><trkpt lat="40.5123665" lon="16.3005328"><ele>252.0</ele><time>2026-04-06T15:08:36.858Z</time></trkpt><trkpt lat="40.5125128" lon="16.3005156"><ele>252.0</ele><time>2026-04-06T15:08:37.859Z</time></trkpt><trkpt lat="40.5126547" lon="16.3005022"><ele>252.0</ele><time>2026-04-06T15:08:38.859Z</time></trkpt><trkpt lat="40.5127964" lon="16.3004877"><ele>252.0</ele><time>2026-04-06T15:08:39.858Z</time></trkpt><trkpt lat="40.5129382" lon="16.3004739"><ele>252.0</ele><time>2026-04-06T15:08:40.859Z</time></trkpt><trkpt lat="40.5130826" lon="16.3004549"><ele>251.75</ele><time>2026-04-06T15:08:41.858Z</time></trkpt><trkpt lat="40.5132301" lon="16.3004374"><ele>251.5</ele><time>2026-04-06T15:08:42.859Z</time></trkpt><trkpt lat="40.5133761" lon="16.3004242"><ele>251.25</ele><time>2026-04-06T15:08:43.859Z</time></trkpt><trkpt lat="40.5135229" lon="16.3004068"><ele>251.0</ele><time>2026-04-06T15:08:44.858Z</time></trkpt><trkpt lat="40.5136697" lon="16.3003923"><ele>251.75</ele><time>2026-04-06T15:08:45.859Z</time></trkpt><trkpt lat="40.5138164" lon="16.3003786"><ele>252.5</ele><time>2026-04-06T15:08:46.858Z</time></trkpt><trkpt lat="40.5139616" lon="16.3003622"><ele>253.25</ele><time>2026-04-06T15:08:47.859Z</time></trkpt><trkpt lat="40.5141052" lon="16.3003462"><ele>254.0</ele><time>2026-04-06T15:08:48.858Z</time></trkpt><trkpt lat="40.5142488" lon="16.3003292"><ele>254.0</ele><time>2026-04-06T15:08:49.858Z</time></trkpt><trkpt lat="40.5143926" lon="16.300314"><ele>254.0</ele><time>2026-04-06T15:08:50.858Z</time></trkpt><trkpt lat="40.5145422" lon="16.3002999"><ele>254.0</ele><time>2026-04-06T15:08:51.858Z</time></trkpt><trkpt lat="40.5146924" lon="16.3002912"><ele>254.0</ele><time>2026-04-06T15:08:52.858Z</time></trkpt><trkpt lat="40.5148424" lon="16.3002888"><ele>255.25</ele><time>2026-04-06T15:08:53.858Z</time></trkpt><trkpt lat="40.5149897" lon="16.3002909"><ele>256.5</ele><time>2026-04-06T15:08:54.859Z</time></trkpt><trkpt lat="40.5151346" lon="16.300294"><ele>257.75</ele><time>2026-04-06T15:08:55.859Z</time></trkpt><trkpt lat="40.5152645" lon="16.3003036"><ele>259.0</ele><time>2026-04-06T15:08:56.858Z</time></trkpt><trkpt lat="40.5153795" lon="16.300321"><ele>259.4</ele><time>2026-04-06T15:08:57.858Z</time></trkpt><trkpt lat="40.5154756" lon="16.300342"><ele>259.79999999999995</ele><time>2026-04-06T15:08:58.858Z</time></trkpt><trkpt lat="40.5155582" lon="16.3003794"><ele>260.20000000000005</ele><time>2026-04-06T15:08:59.858Z</time></trkpt><trkpt lat="40.5156239" lon="16.3004423"><ele>260.6</ele><time>2026-04-06T15:09:00.858Z</time></trkpt><trkpt lat="40.51568" lon="16.3005319"><ele>261.0</ele><time>2026-04-06T15:09:01.858Z</time></trkpt><trkpt lat="40.5157372" lon="16.3006326"><ele>259.8</ele><time>2026-04-06T15:09:02.858Z</time></trkpt><trkpt lat="40.5158015" lon="16.3007335"><ele>258.6</ele><time>2026-04-06T15:09:03.859Z</time></trkpt><trkpt lat="40.5158747" lon="16.300828"><ele>257.4</ele><time>2026-04-06T15:09:04.858Z</time></trkpt><trkpt lat="40.5159581" lon="16.30091"><ele>256.2</ele><time>2026-04-06T15:09:05.859Z</time></trkpt><trkpt lat="40.5160464" lon="16.3009867"><ele>255.0</ele><time>2026-04-06T15:09:06.859Z</time></trkpt><trkpt lat="40.5161397" lon="16.3010556"><ele>255.0</ele><time>2026-04-06T15:09:07.858Z</time></trkpt><trkpt lat="40.5162313" lon="16.3011274"><ele>255.0</ele><time>2026-04-06T15:09:08.858Z</time></trkpt><trkpt lat="40.5163177" lon="16.3012157"><ele>255.0</ele><time>2026-04-06T15:09:09.858Z</time></trkpt><trkpt lat="40.5163951" lon="16.3013249"><ele>255.0</ele><time>2026-04-06T15:09:10.858Z</time></trkpt><trkpt lat="40.5164603" lon="16.3014551"><ele>255.0</ele><time>2026-04-06T15:09:11.858Z</time></trkpt><trkpt lat="40.5165212" lon="16.3015891"><ele>256.2</ele><time>2026-04-06T15:09:12.858Z</time></trkpt><trkpt lat="40.516579" lon="16.3017183"><ele>257.4</ele><time>2026-04-06T15:09:13.858Z</time></trkpt><trkpt lat="40.5166321" lon="16.3018378"><ele>258.6</ele><time>2026-04-06T15:09:14.859Z</time></trkpt><trkpt lat="40.5166784" lon="16.301951"><ele>259.8</ele><time>2026-04-06T15:09:15.858Z</time></trkpt><trkpt lat="40.5167059" lon="16.3020721"><ele>261.0</ele><time>2026-04-06T15:09:16.858Z</time></trkpt><trkpt lat="40.5167163" lon="16.3022015"><ele>262.40000000000003</ele><time>2026-04-06T15:09:17.858Z</time></trkpt><trkpt lat="40.5167151" lon="16.3023407"><ele>263.8</ele><time>2026-04-06T15:09:18.858Z</time></trkpt><trkpt lat="40.5167059" lon="16.3024869"><ele>265.20000000000005</ele><time>2026-04-06T15:09:19.858Z</time></trkpt><trkpt lat="40.516699" lon="16.3026399"><ele>266.6</ele><time>2026-04-06T15:09:20.858Z</time></trkpt><trkpt lat="40.5166902" lon="16.3027915"><ele>268.0</ele><time>2026-04-06T15:09:21.858Z</time></trkpt><trkpt lat="40.5166662" lon="16.3029303"><ele>268.0</ele><time>2026-04-06T15:09:22.858Z</time></trkpt><trkpt lat="40.5166428" lon="16.3030422"><ele>268.0</ele><time>2026-04-06T15:09:23.858Z</time></trkpt><trkpt lat="40.5166355" lon="16.3031429"><ele>268.0</ele><time>2026-04-06T15:09:24.858Z</time></trkpt><trkpt lat="40.5166498" lon="16.3032324"><ele>268.0</ele><time>2026-04-06T15:09:25.859Z</time></trkpt><trkpt lat="40.5166878" lon="16.3033195"><ele>268.0</ele><time>2026-04-06T15:09:26.858Z</time></trkpt><trkpt lat="40.5167384" lon="16.3033902"><ele>268.0</ele><time>2026-04-06T15:09:27.858Z</time></trkpt><trkpt lat="40.5168024" lon="16.3034655"><ele>269.6</ele><time>2026-04-06T15:09:28.858Z</time></trkpt><trkpt lat="40.5168711" lon="16.30355"><ele>271.20000000000005</ele><time>2026-04-06T15:09:29.858Z</time></trkpt><trkpt lat="40.5169455" lon="16.303639"><ele>272.8</ele><time>2026-04-06T15:09:30.858Z</time></trkpt><trkpt lat="40.5170085" lon="16.3037408"><ele>274.40000000000003</ele><time>2026-04-06T15:09:31.859Z</time></trkpt><trkpt lat="40.5170493" lon="16.3038577"><ele>276.0</ele><time>2026-04-06T15:09:32.858Z</time></trkpt><trkpt lat="40.5170722" lon="16.303975"><ele>280.8333333333333</ele><time>2026-04-06T15:09:33.858Z</time></trkpt><trkpt lat="40.5170942" lon="16.3040775"><ele>285.6666666666667</ele><time>2026-04-06T15:09:34.858Z</time></trkpt><trkpt lat="40.5171265" lon="16.3041664"><ele>290.5</ele><time>2026-04-06T15:09:35.858Z</time></trkpt><trkpt lat="40.5171754" lon="16.3042338"><ele>295.33333333333337</ele><time>2026-04-06T15:09:36.858Z</time></trkpt><trkpt lat="40.5172453" lon="16.3042788"><ele>300.1666666666667</ele><time>2026-04-06T15:09:37.858Z</time></trkpt><trkpt lat="40.5173259" lon="16.304313"><ele>305.0</ele><time>2026-04-06T15:09:38.858Z</time></trkpt><trkpt lat="40.5174109" lon="16.3043426"><ele>305.0</ele><time>2026-04-06T15:09:39.858Z</time></trkpt><trkpt lat="40.517495" lon="16.3043752"><ele>305.0</ele><time>2026-04-06T15:09:40.859Z</time></trkpt><trkpt lat="40.5175844" lon="16.3044083"><ele>305.0</ele><time>2026-04-06T15:09:41.858Z</time></trkpt><trkpt lat="40.5176747" lon="16.3044374"><ele>305.0</ele><time>2026-04-06T15:09:42.858Z</time></trkpt><trkpt lat="40.5177676" lon="16.3044645"><ele>305.0</ele><time>2026-04-06T15:09:43.858Z</time></trkpt><trkpt lat="40.5178601" lon="16.3044917"><ele>307.2</ele><time>2026-04-06T15:09:44.858Z</time></trkpt><trkpt lat="40.5179526" lon="16.3045168"><ele>309.4</ele><time>2026-04-06T15:09:45.858Z</time></trkpt><trkpt lat="40.5180449" lon="16.3045426"><ele>311.6</ele><time>2026-04-06T15:09:46.858Z</time></trkpt><trkpt lat="40.5181353" lon="16.3045678"><ele>313.8</ele><time>2026-04-06T15:09:47.858Z</time></trkpt><trkpt lat="40.5182227" lon="16.3045984"><ele>316.0</ele><time>2026-04-06T15:09:48.858Z</time></trkpt><trkpt lat="40.518308" lon="16.3046444"><ele>316.0</ele><time>2026-04-06T15:09:49.859Z</time></trkpt><trkpt lat="40.5183914" lon="16.3047014"><ele>316.0</ele><time>2026-04-06T15:09:50.858Z</time></trkpt><trkpt lat="40.5184772" lon="16.3047559"><ele>316.0</ele><time>2026-04-06T15:09:51.858Z</time></trkpt><trkpt lat="40.5185674" lon="16.3047996"><ele>316.0</ele><time>2026-04-06T15:09:52.858Z</time></trkpt><trkpt lat="40.5186606" lon="16.3048297"><ele>316.0</ele><time>2026-04-06T15:09:53.858Z</time></trkpt><trkpt lat="40.5187531" lon="16.3048317"><ele>315.2</ele><time>2026-04-06T15:09:54.858Z</time></trkpt><trkpt lat="40.5188485" lon="16.3047999"><ele>314.40000000000003</ele><time>2026-04-06T15:09:55.858Z</time></trkpt><trkpt lat="40.5189384" lon="16.3047593"><ele>313.6</ele><time>2026-04-06T15:09:56.858Z</time></trkpt><trkpt lat="40.5190259" lon="16.3047265"><ele>312.8</ele><time>2026-04-06T15:09:57.858Z</time></trkpt><trkpt lat="40.5191192" lon="16.3047168"><ele>312.0</ele><time>2026-04-06T15:09:58.858Z</time></trkpt><trkpt lat="40.5192179" lon="16.3047259"><ele>314.0</ele><time>2026-04-06T15:09:59.858Z</time></trkpt><trkpt lat="40.5193139" lon="16.3047541"><ele>316.0</ele><time>2026-04-06T15:10:00.858Z</time></trkpt><trkpt lat="40.5193982" lon="16.3047991"><ele>318.0</ele><time>2026-04-06T15:10:01.858Z</time></trkpt><trkpt lat="40.5194697" lon="16.3048587"><ele>320.0</ele><time>2026-04-06T15:10:02.858Z</time></trkpt><trkpt lat="40.5195278" lon="16.3049332"><ele>322.0</ele><time>2026-04-06T15:10:03.859Z</time></trkpt><trkpt lat="40.5195608" lon="16.305029"><ele>324.0</ele><time>2026-04-06T15:10:04.858Z</time></trkpt><trkpt lat="40.5195722" lon="16.3051442"><ele>324.0</ele><time>2026-04-06T15:10:05.858Z</time></trkpt><trkpt lat="40.5195623" lon="16.30526"><ele>324.0</ele><time>2026-04-06T15:10:06.858Z</time></trkpt><trkpt lat="40.5195365" lon="16.3053676"><ele>324.0</ele><time>2026-04-06T15:10:07.858Z</time></trkpt><trkpt lat="40.5195112" lon="16.3054615"><ele>324.0</ele><time>2026-04-06T15:10:08.858Z</time></trkpt><trkpt lat="40.5194898" lon="16.3055457"><ele>324.0</ele><time>2026-04-06T15:10:09.858Z</time></trkpt><trkpt lat="40.5195164" lon="16.3056944"><ele>324.0</ele><time>2026-04-06T15:10:11.859Z</time></trkpt><trkpt lat="40.5195623" lon="16.3057596"><ele>328.3333333333333</ele><time>2026-04-06T15:10:12.858Z</time></trkpt><trkpt lat="40.5196215" lon="16.3058152"><ele>332.6666666666667</ele><time>2026-04-06T15:10:13.858Z</time></trkpt><trkpt lat="40.5196889" lon="16.3058733"><ele>337.0</ele><time>2026-04-06T15:10:14.858Z</time></trkpt><trkpt lat="40.5197585" lon="16.305937"><ele>341.33333333333337</ele><time>2026-04-06T15:10:15.858Z</time></trkpt><trkpt lat="40.5198307" lon="16.3060012"><ele>345.6666666666667</ele><time>2026-04-06T15:10:16.858Z</time></trkpt><trkpt lat="40.5199048" lon="16.3060677"><ele>350.0</ele><time>2026-04-06T15:10:17.858Z</time></trkpt><trkpt lat="40.5199791" lon="16.306135"><ele>350.0</ele><time>2026-04-06T15:10:18.858Z</time></trkpt><trkpt lat="40.5200516" lon="16.306206"><ele>350.0</ele><time>2026-04-06T15:10:19.858Z</time></trkpt><trkpt lat="40.5201219" lon="16.3062733"><ele>350.0</ele><time>2026-04-06T15:10:20.858Z</time></trkpt><trkpt lat="40.5201878" lon="16.3063294"><ele>350.0</ele><time>2026-04-06T15:10:21.859Z</time></trkpt><trkpt lat="40.520254" lon="16.3063741"><ele>350.0</ele><time>2026-04-06T15:10:22.858Z</time></trkpt><trkpt lat="40.5203207" lon="16.3064257"><ele>350.0</ele><time>2026-04-06T15:10:23.858Z</time></trkpt><trkpt lat="40.5203945" lon="16.3064661"><ele>352.85714285714283</ele><time>2026-04-06T15:10:24.858Z</time></trkpt><trkpt lat="40.5204667" lon="16.3064854"><ele>355.7142857142857</ele><time>2026-04-06T15:10:25.858Z</time></trkpt><trkpt lat="40.5205361" lon="16.3064733"><ele>358.57142857142856</ele><time>2026-04-06T15:10:26.858Z</time></trkpt><trkpt lat="40.5205895" lon="16.3064278"><ele>361.42857142857144</ele><time>2026-04-06T15:10:27.858Z</time></trkpt><trkpt lat="40.5206167" lon="16.3063529"><ele>364.2857142857143</ele><time>2026-04-06T15:10:28.858Z</time></trkpt><trkpt lat="40.5206071" lon="16.3062469"><ele>367.1428571428571</ele><time>2026-04-06T15:10:29.858Z</time></trkpt><trkpt lat="40.5205754" lon="16.3061415"><ele>370.0</ele><time>2026-04-06T15:10:30.857Z</time></trkpt><trkpt lat="40.52053" lon="16.3060514"><ele>370.5</ele><time>2026-04-06T15:10:31.857Z</time></trkpt><trkpt lat="40.5204876" lon="16.3059761"><ele>371.0</ele><time>2026-04-06T15:10:32.857Z</time></trkpt><trkpt lat="40.5204698" lon="16.3058697"><ele>371.5</ele><time>2026-04-06T15:10:34.857Z</time></trkpt><trkpt lat="40.5205479" lon="16.3058479"><ele>372.0</ele><time>2026-04-06T15:10:36.857Z</time></trkpt><trkpt lat="40.5206257" lon="16.3058717"><ele>372.5</ele><time>2026-04-06T15:10:37.857Z</time></trkpt><trkpt lat="40.5207195" lon="16.3059139"><ele>373.0</ele><time>2026-04-06T15:10:38.857Z</time></trkpt><trkpt lat="40.520811" lon="16.3059471"><ele>373.0</ele><time>2026-04-06T15:10:39.858Z</time></trkpt><trkpt lat="40.5209012" lon="16.3059726"><ele>373.0</ele><time>2026-04-06T15:10:40.857Z</time></trkpt><trkpt lat="40.5209899" lon="16.3059995"><ele>373.0</ele><time>2026-04-06T15:10:41.857Z</time></trkpt><trkpt lat="40.5210782" lon="16.3060345"><ele>373.0</ele><time>2026-04-06T15:10:42.858Z</time></trkpt><trkpt lat="40.5211586" lon="16.306091"><ele>373.0</ele><time>2026-04-06T15:10:43.857Z</time></trkpt><trkpt lat="40.5212341" lon="16.306159"><ele>375.3333333333333</ele><time>2026-04-06T15:10:44.858Z</time></trkpt><trkpt lat="40.5213043" lon="16.3062284"><ele>377.66666666666663</ele><time>2026-04-06T15:10:45.857Z</time></trkpt><trkpt lat="40.5213724" lon="16.3062992"><ele>380.0</ele><time>2026-04-06T15:10:46.857Z</time></trkpt><trkpt lat="40.5214407" lon="16.3063684"><ele>382.3333333333333</ele><time>2026-04-06T15:10:47.857Z</time></trkpt><trkpt lat="40.5215143" lon="16.306434"><ele>384.6666666666667</ele><time>2026-04-06T15:10:48.858Z</time></trkpt><trkpt lat="40.5215867" lon="16.3065033"><ele>387.0</ele><time>2026-04-06T15:10:49.857Z</time></trkpt><trkpt lat="40.5216606" lon="16.3065785"><ele>387.0</ele><time>2026-04-06T15:10:50.858Z</time></trkpt><trkpt lat="40.5217338" lon="16.3066642"><ele>387.0</ele><time>2026-04-06T15:10:51.857Z</time></trkpt><trkpt lat="40.5218033" lon="16.3067582"><ele>387.0</ele><time>2026-04-06T15:10:52.857Z</time></trkpt><trkpt lat="40.5218722" lon="16.3068526"><ele>387.0</ele><time>2026-04-06T15:10:53.857Z</time></trkpt><trkpt lat="40.5219436" lon="16.3069514"><ele>387.0</ele><time>2026-04-06T15:10:54.858Z</time></trkpt><trkpt lat="40.5220129" lon="16.3070515"><ele>388.8</ele><time>2026-04-06T15:10:55.857Z</time></trkpt><trkpt lat="40.5220849" lon="16.307148"><ele>390.6</ele><time>2026-04-06T15:10:56.857Z</time></trkpt><trkpt lat="40.5221555" lon="16.3072418"><ele>392.40000000000003</ele><time>2026-04-06T15:10:57.857Z</time></trkpt><trkpt lat="40.5222277" lon="16.3073291"><ele>394.20000000000005</ele><time>2026-04-06T15:10:58.857Z</time></trkpt><trkpt lat="40.5222983" lon="16.3074069"><ele>396.0</ele><time>2026-04-06T15:10:59.857Z</time></trkpt><trkpt lat="40.5223726" lon="16.3074717"><ele>396.0</ele><time>2026-04-06T15:11:00.857Z</time></trkpt><trkpt lat="40.522451" lon="16.3075275"><ele>396.0</ele><time>2026-04-06T15:11:01.858Z</time></trkpt><trkpt lat="40.5225341" lon="16.3075803"><ele>396.0</ele><time>2026-04-06T15:11:02.858Z</time></trkpt><trkpt lat="40.5226221" lon="16.3076286"><ele>396.0</ele><time>2026-04-06T15:11:03.857Z</time></trkpt><trkpt lat="40.5227151" lon="16.3076792"><ele>396.0</ele><time>2026-04-06T15:11:04.858Z</time></trkpt><trkpt lat="40.5228092" lon="16.3077282"><ele>399.20000000000005</ele><time>2026-04-06T15:11:05.857Z</time></trkpt><trkpt lat="40.5229047" lon="16.3077764"><ele>402.40000000000003</ele><time>2026-04-06T15:11:06.857Z</time></trkpt><trkpt lat="40.5230041" lon="16.3078179"><ele>405.6</ele><time>2026-04-06T15:11:07.857Z</time></trkpt><trkpt lat="40.5231057" lon="16.3078589"><ele>408.8</ele><time>2026-04-06T15:11:08.858Z</time></trkpt><trkpt lat="40.5232067" lon="16.3078977"><ele>412.0</ele><time>2026-04-06T15:11:09.857Z</time></trkpt><trkpt lat="40.5233084" lon="16.3079383"><ele>412.0</ele><time>2026-04-06T15:11:10.857Z</time></trkpt><trkpt lat="40.5234102" lon="16.3079743"><ele>412.0</ele><time>2026-04-06T15:11:11.857Z</time></trkpt><trkpt lat="40.523513" lon="16.3080091"><ele>412.0</ele><time>2026-04-06T15:11:12.857Z</time></trkpt><trkpt lat="40.5236122" lon="16.3080542"><ele>412.0</ele><time>2026-04-06T15:11:13.858Z</time></trkpt><trkpt lat="40.5237063" lon="16.3081069"><ele>412.0</ele><time>2026-04-06T15:11:14.857Z</time></trkpt><trkpt lat="40.5237963" lon="16.3081646"><ele>413.6</ele><time>2026-04-06T15:11:15.858Z</time></trkpt><trkpt lat="40.5238805" lon="16.3082252"><ele>415.20000000000005</ele><time>2026-04-06T15:11:16.857Z</time></trkpt><trkpt lat="40.5239617" lon="16.3082897"><ele>416.8</ele><time>2026-04-06T15:11:17.857Z</time></trkpt><trkpt lat="40.5240425" lon="16.3083474"><ele>418.4</ele><time>2026-04-06T15:11:18.857Z</time></trkpt><trkpt lat="40.5241277" lon="16.3083902"><ele>420.0</ele><time>2026-04-06T15:11:19.857Z</time></trkpt><trkpt lat="40.5242185" lon="16.3084113"><ele>420.0</ele><time>2026-04-06T15:11:20.857Z</time></trkpt><trkpt lat="40.5243133" lon="16.3084087"><ele>420.0</ele><time>2026-04-06T15:11:21.857Z</time></trkpt><trkpt lat="40.5244076" lon="16.3083965"><ele>420.0</ele><time>2026-04-06T15:11:22.857Z</time></trkpt><trkpt lat="40.5245051" lon="16.3083843"><ele>420.0</ele><time>2026-04-06T15:11:23.857Z</time></trkpt><trkpt lat="40.5245987" lon="16.3083851"><ele>420.0</ele><time>2026-04-06T15:11:24.858Z</time></trkpt><trkpt lat="40.5246944" lon="16.3084001"><ele>418.8333333333333</ele><time>2026-04-06T15:11:25.857Z</time></trkpt><trkpt lat="40.524785" lon="16.3084286"><ele>417.66666666666663</ele><time>2026-04-06T15:11:26.857Z</time></trkpt><trkpt lat="40.5248627" lon="16.3084818"><ele>416.5</ele><time>2026-04-06T15:11:27.857Z</time></trkpt><trkpt lat="40.5249249" lon="16.3085577"><ele>415.3333333333333</ele><time>2026-04-06T15:11:28.858Z</time></trkpt><trkpt lat="40.5249647" lon="16.3086606"><ele>414.16666666666663</ele><time>2026-04-06T15:11:29.858Z</time></trkpt><trkpt lat="40.524989" lon="16.3087742"><ele>413.0</ele><time>2026-04-06T15:11:30.857Z</time></trkpt><trkpt lat="40.525003" lon="16.3088902"><ele>416.16666666666663</ele><time>2026-04-06T15:11:31.857Z</time></trkpt><trkpt lat="40.5250118" lon="16.3090064"><ele>419.3333333333333</ele><time>2026-04-06T15:11:32.857Z</time></trkpt><trkpt lat="40.5250199" lon="16.3091215"><ele>422.5</ele><time>2026-04-06T15:11:33.857Z</time></trkpt><trkpt lat="40.5250206" lon="16.3092366"><ele>425.66666666666663</ele><time>2026-04-06T15:11:34.857Z</time></trkpt><trkpt lat="40.5250183" lon="16.3093503"><ele>428.8333333333333</ele><time>2026-04-06T15:11:35.858Z</time></trkpt><trkpt lat="40.5250164" lon="16.3094651"><ele>432.0</ele><time>2026-04-06T15:11:36.857Z</time></trkpt><trkpt lat="40.5250114" lon="16.3095841"><ele>432.0</ele><time>2026-04-06T15:11:37.858Z</time></trkpt><trkpt lat="40.5250091" lon="16.3097027"><ele>432.0</ele><time>2026-04-06T15:11:38.857Z</time></trkpt><trkpt lat="40.525004" lon="16.3098224"><ele>432.0</ele><time>2026-04-06T15:11:39.857Z</time></trkpt><trkpt lat="40.5250009" lon="16.3099407"><ele>432.0</ele><time>2026-04-06T15:11:40.857Z</time></trkpt><trkpt lat="40.5250137" lon="16.3100496"><ele>432.0</ele><time>2026-04-06T15:11:41.857Z</time></trkpt><trkpt lat="40.5250343" lon="16.3101468"><ele>432.0</ele><time>2026-04-06T15:11:42.857Z</time></trkpt><trkpt lat="40.5250724" lon="16.3102321"><ele>432.20000000000005</ele><time>2026-04-06T15:11:43.857Z</time></trkpt><trkpt lat="40.5251254" lon="16.3103109"><ele>432.40000000000003</ele><time>2026-04-06T15:11:44.857Z</time></trkpt><trkpt lat="40.5251944" lon="16.3103841"><ele>432.59999999999997</ele><time>2026-04-06T15:11:45.857Z</time></trkpt><trkpt lat="40.5252695" lon="16.310455"><ele>432.79999999999995</ele><time>2026-04-06T15:11:46.857Z</time></trkpt><trkpt lat="40.5253516" lon="16.3105228"><ele>433.0</ele><time>2026-04-06T15:11:47.857Z</time></trkpt><trkpt lat="40.5254334" lon="16.3105899"><ele>434.0</ele><time>2026-04-06T15:11:48.858Z</time></trkpt><trkpt lat="40.5255155" lon="16.3106591"><ele>434.99999999999994</ele><time>2026-04-06T15:11:49.857Z</time></trkpt><trkpt lat="40.5255961" lon="16.3107308"><ele>435.99999999999994</ele><time>2026-04-06T15:11:50.857Z</time></trkpt><trkpt lat="40.5256789" lon="16.3108003"><ele>437.0</ele><time>2026-04-06T15:11:51.857Z</time></trkpt><trkpt lat="40.5257626" lon="16.3108674"><ele>438.0</ele><time>2026-04-06T15:11:52.858Z</time></trkpt><trkpt lat="40.5258478" lon="16.3109279"><ele>438.0</ele><time>2026-04-06T15:11:53.858Z</time></trkpt><trkpt lat="40.5259409" lon="16.3109709"><ele>438.0</ele><time>2026-04-06T15:11:54.857Z</time></trkpt><trkpt lat="40.5260334" lon="16.3109956"><ele>438.0</ele><time>2026-04-06T15:11:55.857Z</time></trkpt><trkpt lat="40.526119" lon="16.3109942"><ele>438.0</ele><time>2026-04-06T15:11:56.858Z</time></trkpt><trkpt lat="40.5261911" lon="16.3109522"><ele>438.0</ele><time>2026-04-06T15:11:57.857Z</time></trkpt><trkpt lat="40.5262398" lon="16.3108795"><ele>438.0</ele><time>2026-04-06T15:11:58.857Z</time></trkpt><trkpt lat="40.526273" lon="16.3107781"><ele>436.6666666666667</ele><time>2026-04-06T15:11:59.857Z</time></trkpt><trkpt lat="40.5263049" lon="16.3106566"><ele>435.33333333333337</ele><time>2026-04-06T15:12:00.857Z</time></trkpt><trkpt lat="40.5263509" lon="16.3105529"><ele>434.0</ele><time>2026-04-06T15:12:01.857Z</time></trkpt><trkpt lat="40.5264028" lon="16.3104773"><ele>432.6666666666667</ele><time>2026-04-06T15:12:02.857Z</time></trkpt><trkpt lat="40.5264648" lon="16.3104491"><ele>431.33333333333337</ele><time>2026-04-06T15:12:03.858Z</time></trkpt><trkpt lat="40.5265578" lon="16.3105426"><ele>430.0</ele><time>2026-04-06T15:12:05.857Z</time></trkpt><trkpt lat="40.5265797" lon="16.3106287"><ele>434.0</ele><time>2026-04-06T15:12:06.858Z</time></trkpt><trkpt lat="40.526593" lon="16.3107357"><ele>438.0</ele><time>2026-04-06T15:12:07.857Z</time></trkpt><trkpt lat="40.5266158" lon="16.3108531"><ele>442.0</ele><time>2026-04-06T15:12:08.857Z</time></trkpt><trkpt lat="40.5266533" lon="16.3109659"><ele>446.0</ele><time>2026-04-06T15:12:09.857Z</time></trkpt><trkpt lat="40.5266998" lon="16.311073"><ele>450.0</ele><time>2026-04-06T15:12:10.857Z</time></trkpt><trkpt lat="40.5267461" lon="16.3111761"><ele>450.0</ele><time>2026-04-06T15:12:11.857Z</time></trkpt><trkpt lat="40.5267888" lon="16.3112783"><ele>450.0</ele><time>2026-04-06T15:12:12.857Z</time></trkpt><trkpt lat="40.5268276" lon="16.3113789"><ele>450.0</ele><time>2026-04-06T15:12:13.857Z</time></trkpt><trkpt lat="40.5268618" lon="16.311468"><ele>450.0</ele><time>2026-04-06T15:12:14.857Z</time></trkpt><trkpt lat="40.526906" lon="16.3115388"><ele>450.0</ele><time>2026-04-06T15:12:15.857Z</time></trkpt><trkpt lat="40.5269656" lon="16.3115863"><ele>450.0</ele><time>2026-04-06T15:12:16.857Z</time></trkpt><trkpt lat="40.527031" lon="16.3115883"><ele>452.0</ele><time>2026-04-06T15:12:17.857Z</time></trkpt><trkpt lat="40.5270983" lon="16.3115566"><ele>454.0</ele><time>2026-04-06T15:12:18.857Z</time></trkpt><trkpt lat="40.5271662" lon="16.3115055"><ele>456.0</ele><time>2026-04-06T15:12:19.858Z</time></trkpt><trkpt lat="40.527241" lon="16.3114533"><ele>458.0</ele><time>2026-04-06T15:12:20.857Z</time></trkpt><trkpt lat="40.5273304" lon="16.3114054"><ele>460.0</ele><time>2026-04-06T15:12:21.857Z</time></trkpt><trkpt lat="40.5274299" lon="16.3113745"><ele>462.0</ele><time>2026-04-06T15:12:22.858Z</time></trkpt><trkpt lat="40.5275276" lon="16.311343"><ele>462.0</ele><time>2026-04-06T15:12:23.857Z</time></trkpt><trkpt lat="40.5276238" lon="16.3113298"><ele>462.00000000000006</ele><time>2026-04-06T15:12:24.857Z</time></trkpt><trkpt lat="40.5277155" lon="16.3113336"><ele>462.00000000000006</ele><time>2026-04-06T15:12:25.858Z</time></trkpt><trkpt lat="40.5278115" lon="16.3113654"><ele>462.0</ele><time>2026-04-06T15:12:26.857Z</time></trkpt><trkpt lat="40.5279175" lon="16.3114055"><ele>462.0</ele><time>2026-04-06T15:12:27.857Z</time></trkpt><trkpt lat="40.5280285" lon="16.3114393"><ele>467.1666666666667</ele><time>2026-04-06T15:12:28.857Z</time></trkpt><trkpt lat="40.5281342" lon="16.3114672"><ele>472.33333333333337</ele><time>2026-04-06T15:12:29.857Z</time></trkpt><trkpt lat="40.5282325" lon="16.3114864"><ele>477.5</ele><time>2026-04-06T15:12:30.857Z</time></trkpt><trkpt lat="40.5283206" lon="16.3114987"><ele>482.6666666666667</ele><time>2026-04-06T15:12:31.857Z</time></trkpt><trkpt lat="40.5284008" lon="16.3114974"><ele>487.83333333333337</ele><time>2026-04-06T15:12:32.858Z</time></trkpt><trkpt lat="40.5284675" lon="16.3114944"><ele>493.0</ele><time>2026-04-06T15:12:33.858Z</time></trkpt><trkpt lat="40.5285617" lon="16.3115144"><ele>493.00000000000006</ele><time>2026-04-06T15:12:35.858Z</time></trkpt><trkpt lat="40.5286109" lon="16.3116026"><ele>493.0</ele><time>2026-04-06T15:12:37.858Z</time></trkpt><trkpt lat="40.5286092" lon="16.3116885"><ele>493.0</ele><time>2026-04-06T15:12:38.857Z</time></trkpt><trkpt lat="40.528592" lon="16.3117963"><ele>493.0</ele><time>2026-04-06T15:12:39.857Z</time></trkpt><trkpt lat="40.5285729" lon="16.3119229"><ele>493.00000000000006</ele><time>2026-04-06T15:12:40.857Z</time></trkpt><trkpt lat="40.5285591" lon="16.3120452"><ele>493.0</ele><time>2026-04-06T15:12:41.857Z</time></trkpt><trkpt lat="40.5285553" lon="16.3121577"><ele>495.1666666666667</ele><time>2026-04-06T15:12:42.857Z</time></trkpt><trkpt lat="40.5285667" lon="16.3122615"><ele>497.33333333333337</ele><time>2026-04-06T15:12:43.857Z</time></trkpt><trkpt lat="40.5285882" lon="16.3123604"><ele>499.5</ele><time>2026-04-06T15:12:44.857Z</time></trkpt><trkpt lat="40.5286157" lon="16.3124572"><ele>501.66666666666663</ele><time>2026-04-06T15:12:45.857Z</time></trkpt><trkpt lat="40.5286463" lon="16.3125539"><ele>503.8333333333333</ele><time>2026-04-06T15:12:46.857Z</time></trkpt><trkpt lat="40.5286758" lon="16.3126519"><ele>506.0</ele><time>2026-04-06T15:12:47.857Z</time></trkpt><trkpt lat="40.5287156" lon="16.3127494"><ele>504.0</ele><time>2026-04-06T15:12:48.857Z</time></trkpt><trkpt lat="40.5287729" lon="16.3128402"><ele>502.0</ele><time>2026-04-06T15:12:49.857Z</time></trkpt><trkpt lat="40.5288413" lon="16.3129281"><ele>500.0</ele><time>2026-04-06T15:12:50.857Z</time></trkpt><trkpt lat="40.5289142" lon="16.3130173"><ele>498.0</ele><time>2026-04-06T15:12:51.857Z</time></trkpt><trkpt lat="40.5289912" lon="16.3131065"><ele>496.0</ele><time>2026-04-06T15:12:52.858Z</time></trkpt><trkpt lat="40.5290701" lon="16.3131966"><ele>496.0</ele><time>2026-04-06T15:12:53.858Z</time></trkpt><trkpt lat="40.5291477" lon="16.3132865"><ele>496.0</ele><time>2026-04-06T15:12:54.857Z</time></trkpt><trkpt lat="40.5292263" lon="16.3133766"><ele>496.0</ele><time>2026-04-06T15:12:55.857Z</time></trkpt><trkpt lat="40.529305" lon="16.3134679"><ele>496.0</ele><time>2026-04-06T15:12:56.857Z</time></trkpt><trkpt lat="40.5293837" lon="16.3135614"><ele>496.0</ele><time>2026-04-06T15:12:57.858Z</time></trkpt><trkpt lat="40.5294597" lon="16.3136604"><ele>496.0</ele><time>2026-04-06T15:12:58.857Z</time></trkpt><trkpt lat="40.5295413" lon="16.3137602"><ele>496.0</ele><time>2026-04-06T15:12:59.858Z</time></trkpt><trkpt lat="40.5296242" lon="16.3138605"><ele>496.0</ele><time>2026-04-06T15:13:00.857Z</time></trkpt><trkpt lat="40.5297084" lon="16.3139599"><ele>496.0</ele><time>2026-04-06T15:13:01.857Z</time></trkpt><trkpt lat="40.5297935" lon="16.3140571"><ele>495.4</ele><time>2026-04-06T15:13:02.857Z</time></trkpt><trkpt lat="40.5298765" lon="16.3141559"><ele>494.8</ele><time>2026-04-06T15:13:03.857Z</time></trkpt><trkpt lat="40.5299598" lon="16.314256"><ele>494.19999999999993</ele><time>2026-04-06T15:13:04.857Z</time></trkpt><trkpt lat="40.5300379" lon="16.3143552"><ele>493.59999999999997</ele><time>2026-04-06T15:13:05.858Z</time></trkpt><trkpt lat="40.5301091" lon="16.3144494"><ele>493.0</ele><time>2026-04-06T15:13:06.857Z</time></trkpt><trkpt lat="40.5301685" lon="16.3145382"><ele>493.0</ele><time>2026-04-06T15:13:07.857Z</time></trkpt><trkpt lat="40.5302125" lon="16.3146332"><ele>492.99999999999994</ele><time>2026-04-06T15:13:08.857Z</time></trkpt><trkpt lat="40.5302417" lon="16.3147467"><ele>492.99999999999994</ele><time>2026-04-06T15:13:09.858Z</time></trkpt><trkpt lat="40.5302654" lon="16.3148839"><ele>493.0</ele><time>2026-04-06T15:13:10.857Z</time></trkpt><trkpt lat="40.5302956" lon="16.315047"><ele>493.0</ele><time>2026-04-06T15:13:11.858Z</time></trkpt><trkpt lat="40.530326" lon="16.315237"><ele>493.33333333333337</ele><time>2026-04-06T15:13:12.857Z</time></trkpt><trkpt lat="40.5303604" lon="16.3154504"><ele>493.66666666666663</ele><time>2026-04-06T15:13:13.857Z</time></trkpt><trkpt lat="40.5303968" lon="16.3156743"><ele>494.0</ele><time>2026-04-06T15:13:14.857Z</time></trkpt><trkpt lat="40.5304318" lon="16.3158846"><ele>494.0</ele><time>2026-04-06T15:13:15.857Z</time></trkpt><trkpt lat="40.5304598" lon="16.3160684"><ele>494.0</ele><time>2026-04-06T15:13:16.857Z</time></trkpt><trkpt lat="40.5304687" lon="16.3162284"><ele>494.0</ele><time>2026-04-06T15:13:17.858Z</time></trkpt><trkpt lat="40.530473" lon="16.3163737"><ele>494.0</ele><time>2026-04-06T15:13:18.857Z</time></trkpt><trkpt lat="40.5304687" lon="16.3165148"><ele>495.3333333333333</ele><time>2026-04-06T15:13:19.857Z</time></trkpt><trkpt lat="40.5304659" lon="16.3166449"><ele>496.66666666666663</ele><time>2026-04-06T15:13:20.858Z</time></trkpt><trkpt lat="40.530468" lon="16.3167576"><ele>498.0</ele><time>2026-04-06T15:13:21.857Z</time></trkpt><trkpt lat="40.5304813" lon="16.3168534"><ele>499.33333333333337</ele><time>2026-04-06T15:13:22.857Z</time></trkpt><trkpt lat="40.530509" lon="16.3169389"><ele>500.6666666666667</ele><time>2026-04-06T15:13:23.857Z</time></trkpt><trkpt lat="40.5305385" lon="16.3170761"><ele>502.0</ele><time>2026-04-06T15:13:25.857Z</time></trkpt><trkpt lat="40.5305222" lon="16.3171833"><ele>503.00000000000006</ele><time>2026-04-06T15:13:27.857Z</time></trkpt><trkpt lat="40.5305102" lon="16.3172984"><ele>504.0</ele><time>2026-04-06T15:13:29.857Z</time></trkpt><trkpt lat="40.53054" lon="16.3173956"><ele>505.0</ele><time>2026-04-06T15:13:31.857Z</time></trkpt><trkpt lat="40.5305693" lon="16.3174897"><ele>506.0</ele><time>2026-04-06T15:13:33.857Z</time></trkpt><trkpt lat="40.5305405" lon="16.3175827"><ele>507.00000000000006</ele><time>2026-04-06T15:13:35.857Z</time></trkpt><trkpt lat="40.5304588" lon="16.3175924"><ele>508.0</ele><time>2026-04-06T15:13:37.857Z</time></trkpt><trkpt lat="40.5303168" lon="16.3175218"><ele>511.75</ele><time>2026-04-06T15:13:39.857Z</time></trkpt><trkpt lat="40.5302123" lon="16.3174745"><ele>515.5</ele><time>2026-04-06T15:13:40.858Z</time></trkpt><trkpt lat="40.530096" lon="16.3174416"><ele>519.25</ele><time>2026-04-06T15:13:41.857Z</time></trkpt><trkpt lat="40.5299731" lon="16.3174324"><ele>523.0</ele><time>2026-04-06T15:13:42.858Z</time></trkpt><trkpt lat="40.5298535" lon="16.3174308"><ele>523.0</ele><time>2026-04-06T15:13:43.858Z</time></trkpt><trkpt lat="40.5297436" lon="16.3174265"><ele>523.0</ele><time>2026-04-06T15:13:44.857Z</time></trkpt><trkpt lat="40.5296462" lon="16.3174028"><ele>523.0</ele><time>2026-04-06T15:13:45.857Z</time></trkpt><trkpt lat="40.5295559" lon="16.3173484"><ele>523.0</ele><time>2026-04-06T15:13:46.857Z</time></trkpt><trkpt lat="40.5294667" lon="16.3172648"><ele>523.0</ele><time>2026-04-06T15:13:47.857Z</time></trkpt><trkpt lat="40.5293717" lon="16.3171621"><ele>526.4</ele><time>2026-04-06T15:13:48.857Z</time></trkpt><trkpt lat="40.5292764" lon="16.3170585"><ele>529.8</ele><time>2026-04-06T15:13:49.857Z</time></trkpt><trkpt lat="40.52919" lon="16.3169636"><ele>533.2</ele><time>2026-04-06T15:13:50.857Z</time></trkpt><trkpt lat="40.5291228" lon="16.3168728"><ele>536.6</ele><time>2026-04-06T15:13:51.857Z</time></trkpt><trkpt lat="40.5290739" lon="16.3167881"><ele>540.0</ele><time>2026-04-06T15:13:52.858Z</time></trkpt><trkpt lat="40.5290406" lon="16.3167088"><ele>540.0</ele><time>2026-04-06T15:13:53.857Z</time></trkpt><trkpt lat="40.5290231" lon="16.316622"><ele>540.0</ele><time>2026-04-06T15:13:54.857Z</time></trkpt><trkpt lat="40.5290131" lon="16.3165195"><ele>540.0</ele><time>2026-04-06T15:13:55.857Z</time></trkpt><trkpt lat="40.5290089" lon="16.3164013"><ele>540.0</ele><time>2026-04-06T15:13:56.857Z</time></trkpt><trkpt lat="40.5290032" lon="16.3162787"><ele>540.0</ele><time>2026-04-06T15:13:57.857Z</time></trkpt><trkpt lat="40.5289885" lon="16.3161522"><ele>540.0</ele><time>2026-04-06T15:13:58.858Z</time></trkpt><trkpt lat="40.5289644" lon="16.316025"><ele>540.6</ele><time>2026-04-06T15:13:59.857Z</time></trkpt><trkpt lat="40.5289374" lon="16.3158991"><ele>541.2</ele><time>2026-04-06T15:14:00.857Z</time></trkpt><trkpt lat="40.5289048" lon="16.3157754"><ele>541.8</ele><time>2026-04-06T15:14:01.857Z</time></trkpt><trkpt lat="40.5288758" lon="16.3156619"><ele>542.4</ele><time>2026-04-06T15:14:02.857Z</time></trkpt><trkpt lat="40.5288462" lon="16.3155709"><ele>543.0</ele><time>2026-04-06T15:14:03.858Z</time></trkpt><trkpt lat="40.528766" lon="16.3154596"><ele>545.4</ele><time>2026-04-06T15:14:05.857Z</time></trkpt><trkpt lat="40.5286403" lon="16.315447"><ele>547.8</ele><time>2026-04-06T15:14:07.857Z</time></trkpt><trkpt lat="40.5285857" lon="16.3154883"><ele>550.2</ele><time>2026-04-06T15:14:08.857Z</time></trkpt><trkpt lat="40.5285241" lon="16.3156272"><ele>552.6</ele><time>2026-04-06T15:14:10.857Z</time></trkpt><trkpt lat="40.5285045" lon="16.3157247"><ele>555.0</ele><time>2026-04-06T15:14:11.858Z</time></trkpt><trkpt lat="40.5284888" lon="16.315837"><ele>557.0</ele><time>2026-04-06T15:14:12.857Z</time></trkpt><trkpt lat="40.5284713" lon="16.3159545"><ele>559.0</ele><time>2026-04-06T15:14:13.857Z</time></trkpt><trkpt lat="40.5284529" lon="16.3160628"><ele>561.0</ele><time>2026-04-06T15:14:14.858Z</time></trkpt><trkpt lat="40.5284393" lon="16.3161661"><ele>563.0</ele><time>2026-04-06T15:14:15.858Z</time></trkpt><trkpt lat="40.5284303" lon="16.3162653"><ele>565.0</ele><time>2026-04-06T15:14:16.857Z</time></trkpt><trkpt lat="40.5284273" lon="16.3163661"><ele>567.0</ele><time>2026-04-06T15:14:17.858Z</time></trkpt><trkpt lat="40.5284334" lon="16.3164626"><ele>567.3333333333334</ele><time>2026-04-06T15:14:18.857Z</time></trkpt><trkpt lat="40.5284393" lon="16.316554"><ele>567.6666666666666</ele><time>2026-04-06T15:14:19.858Z</time></trkpt><trkpt lat="40.5284448" lon="16.3166382"><ele>568.0</ele><time>2026-04-06T15:14:20.857Z</time></trkpt><trkpt lat="40.5284441" lon="16.316805"><ele>568.3333333333333</ele><time>2026-04-06T15:14:22.857Z</time></trkpt><trkpt lat="40.5284359" lon="16.3168941"><ele>568.6666666666666</ele><time>2026-04-06T15:14:23.858Z</time></trkpt><trkpt lat="40.5284216" lon="16.3169848"><ele>569.0</ele><time>2026-04-06T15:14:24.857Z</time></trkpt><trkpt lat="40.5283991" lon="16.3170641"><ele>569.0</ele><time>2026-04-06T15:14:25.857Z</time></trkpt><trkpt lat="40.5283145" lon="16.3171724"><ele>569.0</ele><time>2026-04-06T15:14:27.857Z</time></trkpt><trkpt lat="40.5282125" lon="16.3172339"><ele>569.0</ele><time>2026-04-06T15:14:29.857Z</time></trkpt><trkpt lat="40.5281339" lon="16.3172637"><ele>569.0</ele><time>2026-04-06T15:14:31.857Z</time></trkpt><trkpt lat="40.5281244" lon="16.3173612"><ele>569.0</ele><time>2026-04-06T15:14:33.858Z</time></trkpt><trkpt lat="40.5281362" lon="16.3174953"><ele>567.8</ele><time>2026-04-06T15:14:35.857Z</time></trkpt><trkpt lat="40.5281306" lon="16.3176403"><ele>566.5999999999999</ele><time>2026-04-06T15:14:37.857Z</time></trkpt><trkpt lat="40.5281006" lon="16.3177782"><ele>565.4</ele><time>2026-04-06T15:14:39.857Z</time></trkpt><trkpt lat="40.5280754" lon="16.3178957"><ele>564.1999999999999</ele><time>2026-04-06T15:14:41.857Z</time></trkpt><trkpt lat="40.5280222" lon="16.3179582"><ele>563.0</ele><time>2026-04-06T15:14:43.857Z</time></trkpt><trkpt lat="40.5279188" lon="16.3179895"><ele>562.5714285714286</ele><time>2026-04-06T15:14:45.857Z</time></trkpt><trkpt lat="40.5278569" lon="16.3180108"><ele>562.1428571428571</ele><time>2026-04-06T15:14:46.857Z</time></trkpt><trkpt lat="40.5277848" lon="16.3180306"><ele>561.7142857142858</ele><time>2026-04-06T15:14:47.857Z</time></trkpt><trkpt lat="40.5277142" lon="16.3180496"><ele>561.2857142857142</ele><time>2026-04-06T15:14:48.857Z</time></trkpt><trkpt lat="40.5276506" lon="16.3180645"><ele>560.8571428571429</ele><time>2026-04-06T15:14:49.857Z</time></trkpt><trkpt lat="40.5275893" lon="16.318088"><ele>560.4285714285714</ele><time>2026-04-06T15:14:50.857Z</time></trkpt><trkpt lat="40.5275291" lon="16.3181166"><ele>560.0</ele><time>2026-04-06T15:14:51.857Z</time></trkpt><trkpt lat="40.5274339" lon="16.3182096"><ele>560.0</ele><time>2026-04-06T15:14:53.857Z</time></trkpt><trkpt lat="40.5273528" lon="16.3183241"><ele>560.0</ele><time>2026-04-06T15:14:55.857Z</time></trkpt><trkpt lat="40.5272675" lon="16.3184526"><ele>560.0</ele><time>2026-04-06T15:14:57.857Z</time></trkpt><trkpt lat="40.5272275" lon="16.3185295"><ele>560.0</ele><time>2026-04-06T15:14:58.858Z</time></trkpt><trkpt lat="40.5271862" lon="16.3186"><ele>560.0</ele><time>2026-04-06T15:14:59.857Z</time></trkpt><trkpt lat="40.5271432" lon="16.318662"><ele>559.8333333333333</ele><time>2026-04-06T15:15:00.858Z</time></trkpt><trkpt lat="40.5270387" lon="16.3187414"><ele>559.6666666666666</ele><time>2026-04-06T15:15:02.857Z</time></trkpt><trkpt lat="40.5269672" lon="16.3187427"><ele>559.5</ele><time>2026-04-06T15:15:03.857Z</time></trkpt><trkpt lat="40.5268994" lon="16.3187477"><ele>559.3333333333334</ele><time>2026-04-06T15:15:04.857Z</time></trkpt><trkpt lat="40.5268303" lon="16.3187557"><ele>559.1666666666667</ele><time>2026-04-06T15:15:05.857Z</time></trkpt><trkpt lat="40.5267572" lon="16.3187593"><ele>559.0</ele><time>2026-04-06T15:15:06.857Z</time></trkpt><trkpt lat="40.5266897" lon="16.3187695"><ele>559.0</ele><time>2026-04-06T15:15:07.857Z</time></trkpt><trkpt lat="40.5266245" lon="16.3187713"><ele>559.0</ele><time>2026-04-06T15:15:08.857Z</time></trkpt><trkpt lat="40.526515" lon="16.3187455"><ele>559.0</ele><time>2026-04-06T15:15:10.857Z</time></trkpt><trkpt lat="40.5264144" lon="16.3187124"><ele>559.0</ele><time>2026-04-06T15:15:12.857Z</time></trkpt><trkpt lat="40.5262908" lon="16.3186512"><ele>559.0</ele><time>2026-04-06T15:15:14.857Z</time></trkpt><trkpt lat="40.5262117" lon="16.3186071"><ele>557.4</ele><time>2026-04-06T15:15:15.856Z</time></trkpt><trkpt lat="40.5261351" lon="16.3185567"><ele>555.8</ele><time>2026-04-06T15:15:16.856Z</time></trkpt><trkpt lat="40.5260847" lon="16.3184733"><ele>554.2</ele><time>2026-04-06T15:15:17.857Z</time></trkpt><trkpt lat="40.5260075" lon="16.3183879"><ele>552.6</ele><time>2026-04-06T15:15:19.856Z</time></trkpt><trkpt lat="40.5259263" lon="16.3184255"><ele>551.0</ele><time>2026-04-06T15:15:23.857Z</time></trkpt><trkpt lat="40.5258392" lon="16.3185789"><ele>551.0</ele><time>2026-04-06T15:15:25.856Z</time></trkpt><trkpt lat="40.5257929" lon="16.3186885"><ele>551.0</ele><time>2026-04-06T15:15:26.856Z</time></trkpt><trkpt lat="40.5257508" lon="16.3188029"><ele>551.0</ele><time>2026-04-06T15:15:27.856Z</time></trkpt><trkpt lat="40.5257091" lon="16.3189075"><ele>551.0</ele><time>2026-04-06T15:15:28.856Z</time></trkpt><trkpt lat="40.5256743" lon="16.319"><ele>551.0</ele><time>2026-04-06T15:15:29.856Z</time></trkpt><trkpt lat="40.5256214" lon="16.3191224"><ele>551.0</ele><time>2026-04-06T15:15:31.856Z</time></trkpt><trkpt lat="40.5255702" lon="16.3192325"><ele>551.0</ele><time>2026-04-06T15:16:59.856Z</time></trkpt><trkpt lat="40.525562" lon="16.3193541"><ele>551.0</ele><time>2026-04-06T15:17:01.856Z</time></trkpt><trkpt lat="40.5256387" lon="16.3194661"><ele>551.0</ele><time>2026-04-06T15:17:03.857Z</time></trkpt><trkpt lat="40.525709" lon="16.3195153"><ele>551.0</ele><time>2026-04-06T15:17:04.856Z</time></trkpt><trkpt lat="40.5257836" lon="16.3195569"><ele>550.9999999999999</ele><time>2026-04-06T15:17:05.857Z</time></trkpt><trkpt lat="40.5258575" lon="16.3195937"><ele>551.0</ele><time>2026-04-06T15:17:06.856Z</time></trkpt><trkpt lat="40.5259363" lon="16.3196222"><ele>551.0</ele><time>2026-04-06T15:17:07.856Z</time></trkpt><trkpt lat="40.5260108" lon="16.3196471"><ele>551.0</ele><time>2026-04-06T15:17:08.856Z</time></trkpt><trkpt lat="40.5260801" lon="16.3196625"><ele>551.0</ele><time>2026-04-06T15:17:09.857Z</time></trkpt><trkpt lat="40.5261491" lon="16.3196729"><ele>550.9999999999999</ele><time>2026-04-06T15:17:10.856Z</time></trkpt><trkpt lat="40.5262195" lon="16.319676"><ele>551.0</ele><time>2026-04-06T15:17:11.856Z</time></trkpt><trkpt lat="40.5262963" lon="16.319701"><ele>551.0</ele><time>2026-04-06T15:17:12.856Z</time></trkpt><trkpt lat="40.5263749" lon="16.3197287"><ele>551.0</ele><time>2026-04-06T15:17:13.856Z</time></trkpt><trkpt lat="40.5264623" lon="16.3197378"><ele>551.0</ele><time>2026-04-06T15:17:14.856Z</time></trkpt><trkpt lat="40.526552" lon="16.3197514"><ele>551.0</ele><time>2026-04-06T15:17:15.856Z</time></trkpt><trkpt lat="40.5266387" lon="16.3197545"><ele>551.0</ele><time>2026-04-06T15:17:16.856Z</time></trkpt><trkpt lat="40.5267183" lon="16.319742"><ele>551.0</ele><time>2026-04-06T15:17:17.856Z</time></trkpt><trkpt lat="40.5267983" lon="16.3197129"><ele>551.0</ele><time>2026-04-06T15:17:18.857Z</time></trkpt><trkpt lat="40.5268805" lon="16.3196874"><ele>551.0</ele><time>2026-04-06T15:17:19.857Z</time></trkpt><trkpt lat="40.5269651" lon="16.319667"><ele>551.0</ele><time>2026-04-06T15:17:20.856Z</time></trkpt><trkpt lat="40.5270502" lon="16.3196538"><ele>551.0</ele><time>2026-04-06T15:17:21.856Z</time></trkpt><trkpt lat="40.5271352" lon="16.3196398"><ele>551.0</ele><time>2026-04-06T15:17:22.856Z</time></trkpt><trkpt lat="40.5272175" lon="16.3196116"><ele>551.0</ele><time>2026-04-06T15:17:23.856Z</time></trkpt><trkpt lat="40.5273021" lon="16.3195817"><ele>550.0</ele><time>2026-04-06T15:17:24.856Z</time></trkpt><trkpt lat="40.5273999" lon="16.3195596"><ele>549.0</ele><time>2026-04-06T15:17:25.857Z</time></trkpt><trkpt lat="40.5275028" lon="16.3195382"><ele>548.0</ele><time>2026-04-06T15:17:26.856Z</time></trkpt><trkpt lat="40.5276067" lon="16.3195176"><ele>547.0</ele><time>2026-04-06T15:17:27.856Z</time></trkpt><trkpt lat="40.5277053" lon="16.3194995"><ele>546.0</ele><time>2026-04-06T15:17:28.857Z</time></trkpt><trkpt lat="40.5278012" lon="16.3194934"><ele>546.0</ele><time>2026-04-06T15:17:29.856Z</time></trkpt><trkpt lat="40.5278926" lon="16.3194921"><ele>546.0</ele><time>2026-04-06T15:17:30.857Z</time></trkpt><trkpt lat="40.5279823" lon="16.3195"><ele>546.0</ele><time>2026-04-06T15:17:31.856Z</time></trkpt><trkpt lat="40.5280593" lon="16.319499"><ele>546.0</ele><time>2026-04-06T15:17:32.856Z</time></trkpt><trkpt lat="40.5281363" lon="16.3194993"><ele>546.0</ele><time>2026-04-06T15:17:33.856Z</time></trkpt><trkpt lat="40.5282147" lon="16.3195075"><ele>546.0</ele><time>2026-04-06T15:17:34.856Z</time></trkpt><trkpt lat="40.5282875" lon="16.3195175"><ele>545.1666666666666</ele><time>2026-04-06T15:17:35.857Z</time></trkpt><trkpt lat="40.5283664" lon="16.3195302"><ele>544.3333333333334</ele><time>2026-04-06T15:17:36.856Z</time></trkpt><trkpt lat="40.5284408" lon="16.3195487"><ele>543.5</ele><time>2026-04-06T15:17:37.856Z</time></trkpt><trkpt lat="40.5285185" lon="16.3195593"><ele>542.6666666666667</ele><time>2026-04-06T15:17:38.856Z</time></trkpt><trkpt lat="40.5285898" lon="16.3195704"><ele>541.8333333333334</ele><time>2026-04-06T15:17:39.856Z</time></trkpt><trkpt lat="40.5286555" lon="16.3195915"><ele>541.0</ele><time>2026-04-06T15:17:40.856Z</time></trkpt><trkpt lat="40.5287546" lon="16.3196278"><ele>539.5</ele><time>2026-04-06T15:17:42.856Z</time></trkpt><trkpt lat="40.5288134" lon="16.31967"><ele>538.0</ele><time>2026-04-06T15:17:45.857Z</time></trkpt><trkpt lat="40.5288792" lon="16.3195981"><ele>536.5</ele><time>2026-04-06T15:20:08.856Z</time></trkpt><trkpt lat="40.5290039" lon="16.3195933"><ele>535.0</ele><time>2026-04-06T15:20:10.855Z</time></trkpt><trkpt lat="40.5290782" lon="16.319593"><ele>533.5</ele><time>2026-04-06T15:20:11.855Z</time></trkpt><trkpt lat="40.5291501" lon="16.3195803"><ele>532.0</ele><time>2026-04-06T15:20:12.855Z</time></trkpt><trkpt lat="40.529224" lon="16.3195653"><ele>532.0</ele><time>2026-04-06T15:20:13.855Z</time></trkpt><trkpt lat="40.5293032" lon="16.319533"><ele>532.0</ele><time>2026-04-06T15:20:14.856Z</time></trkpt><trkpt lat="40.5293761" lon="16.3195013"><ele>532.0</ele><time>2026-04-06T15:20:15.856Z</time></trkpt><trkpt lat="40.5294467" lon="16.3194739"><ele>532.0</ele><time>2026-04-06T15:20:16.855Z</time></trkpt><trkpt lat="40.529519" lon="16.3194509"><ele>532.0</ele><time>2026-04-06T15:20:17.855Z</time></trkpt><trkpt lat="40.5295893" lon="16.3194148"><ele>532.0</ele><time>2026-04-06T15:20:18.855Z</time></trkpt><trkpt lat="40.5296542" lon="16.3193676"><ele>529.3333333333334</ele><time>2026-04-06T15:20:19.855Z</time></trkpt><trkpt lat="40.5297178" lon="16.319309"><ele>526.6666666666667</ele><time>2026-04-06T15:20:20.855Z</time></trkpt><trkpt lat="40.5297813" lon="16.3192424"><ele>524.0</ele><time>2026-04-06T15:20:21.855Z</time></trkpt><trkpt lat="40.5298433" lon="16.3191675"><ele>521.3333333333334</ele><time>2026-04-06T15:20:22.855Z</time></trkpt><trkpt lat="40.5299075" lon="16.3190846"><ele>518.6666666666666</ele><time>2026-04-06T15:20:23.855Z</time></trkpt><trkpt lat="40.5299685" lon="16.3189948"><ele>516.0</ele><time>2026-04-06T15:20:24.855Z</time></trkpt><trkpt lat="40.5300306" lon="16.3189095"><ele>517.3333333333334</ele><time>2026-04-06T15:20:25.855Z</time></trkpt><trkpt lat="40.5300878" lon="16.318823"><ele>518.6666666666666</ele><time>2026-04-06T15:20:26.855Z</time></trkpt><trkpt lat="40.5301399" lon="16.3187418"><ele>520.0</ele><time>2026-04-06T15:20:27.856Z</time></trkpt><trkpt lat="40.5301886" lon="16.318661"><ele>521.3333333333333</ele><time>2026-04-06T15:20:28.855Z</time></trkpt><trkpt lat="40.5302422" lon="16.3185738"><ele>522.6666666666666</ele><time>2026-04-06T15:20:29.856Z</time></trkpt><trkpt lat="40.5302945" lon="16.318481"><ele>524.0</ele><time>2026-04-06T15:20:30.855Z</time></trkpt><trkpt lat="40.5303394" lon="16.3183887"><ele>524.0</ele><time>2026-04-06T15:20:31.855Z</time></trkpt><trkpt lat="40.5303812" lon="16.3183048"><ele>524.0</ele><time>2026-04-06T15:20:32.855Z</time></trkpt><trkpt lat="40.5304253" lon="16.3182345"><ele>524.0</ele><time>2026-04-06T15:20:33.855Z</time></trkpt><trkpt lat="40.5305225" lon="16.3181842"><ele>524.0</ele><time>2026-04-06T15:20:35.855Z</time></trkpt><trkpt lat="40.5306355" lon="16.3182767"><ele>524.0</ele><time>2026-04-06T15:20:37.855Z</time></trkpt><trkpt lat="40.5306792" lon="16.3183717"><ele>521.4</ele><time>2026-04-06T15:20:38.855Z</time></trkpt><trkpt lat="40.5307263" lon="16.3184751"><ele>518.8</ele><time>2026-04-06T15:20:39.855Z</time></trkpt><trkpt lat="40.5307898" lon="16.3185656"><ele>516.2</ele><time>2026-04-06T15:20:40.855Z</time></trkpt><trkpt lat="40.5308683" lon="16.3186245"><ele>513.6</ele><time>2026-04-06T15:20:41.855Z</time></trkpt><trkpt lat="40.5309611" lon="16.3186571"><ele>511.0</ele><time>2026-04-06T15:20:42.855Z</time></trkpt><trkpt lat="40.5310707" lon="16.3186429"><ele>511.0</ele><time>2026-04-06T15:20:43.856Z</time></trkpt><trkpt lat="40.531183" lon="16.3185976"><ele>511.0</ele><time>2026-04-06T15:20:44.855Z</time></trkpt><trkpt lat="40.5312902" lon="16.3185393"><ele>511.0</ele><time>2026-04-06T15:20:45.855Z</time></trkpt><trkpt lat="40.5313921" lon="16.3185044"><ele>511.0</ele><time>2026-04-06T15:20:46.855Z</time></trkpt><trkpt lat="40.5314993" lon="16.318516"><ele>511.0</ele><time>2026-04-06T15:20:47.855Z</time></trkpt><trkpt lat="40.531606" lon="16.3185564"><ele>510.20000000000005</ele><time>2026-04-06T15:20:48.855Z</time></trkpt><trkpt lat="40.5317072" lon="16.3186059"><ele>509.40000000000003</ele><time>2026-04-06T15:20:49.855Z</time></trkpt><trkpt lat="40.5318057" lon="16.3186495"><ele>508.6</ele><time>2026-04-06T15:20:50.856Z</time></trkpt><trkpt lat="40.531905" lon="16.3186859"><ele>507.8</ele><time>2026-04-06T15:20:51.855Z</time></trkpt><trkpt lat="40.5320063" lon="16.3187147"><ele>507.0</ele><time>2026-04-06T15:20:52.855Z</time></trkpt><trkpt lat="40.532112" lon="16.3187316"><ele>506.6</ele><time>2026-04-06T15:20:53.855Z</time></trkpt><trkpt lat="40.5322191" lon="16.318737"><ele>506.20000000000005</ele><time>2026-04-06T15:20:54.855Z</time></trkpt><trkpt lat="40.5323237" lon="16.3187358"><ele>505.8</ele><time>2026-04-06T15:20:55.855Z</time></trkpt><trkpt lat="40.5324246" lon="16.3187267"><ele>505.4</ele><time>2026-04-06T15:20:56.855Z</time></trkpt><trkpt lat="40.5325187" lon="16.3187029"><ele>505.0</ele><time>2026-04-06T15:20:57.855Z</time></trkpt><trkpt lat="40.5326043" lon="16.3186625"><ele>505.0</ele><time>2026-04-06T15:20:58.855Z</time></trkpt><trkpt lat="40.5326853" lon="16.3185987"><ele>505.0</ele><time>2026-04-06T15:20:59.855Z</time></trkpt><trkpt lat="40.532767" lon="16.3185188"><ele>505.0</ele><time>2026-04-06T15:21:00.855Z</time></trkpt><trkpt lat="40.5328518" lon="16.3184261"><ele>505.0</ele><time>2026-04-06T15:21:01.855Z</time></trkpt><trkpt lat="40.532934" lon="16.3183263"><ele>505.0</ele><time>2026-04-06T15:21:02.856Z</time></trkpt><trkpt lat="40.5330171" lon="16.3182256"><ele>505.5</ele><time>2026-04-06T15:21:03.855Z</time></trkpt><trkpt lat="40.533105" lon="16.3181197"><ele>506.0</ele><time>2026-04-06T15:21:04.855Z</time></trkpt><trkpt lat="40.533196" lon="16.318011"><ele>506.5</ele><time>2026-04-06T15:21:05.855Z</time></trkpt><trkpt lat="40.533287" lon="16.3179027"><ele>507.0</ele><time>2026-04-06T15:21:06.855Z</time></trkpt><trkpt lat="40.5333846" lon="16.3178057"><ele>507.0</ele><time>2026-04-06T15:21:07.855Z</time></trkpt><trkpt lat="40.5334841" lon="16.3177186"><ele>507.0</ele><time>2026-04-06T15:21:08.855Z</time></trkpt><trkpt lat="40.5335928" lon="16.3176491"><ele>507.0</ele><time>2026-04-06T15:21:09.855Z</time></trkpt><trkpt lat="40.5337128" lon="16.3175969"><ele>507.0</ele><time>2026-04-06T15:21:10.855Z</time></trkpt><trkpt lat="40.5338405" lon="16.3175483"><ele>507.25</ele><time>2026-04-06T15:21:11.856Z</time></trkpt><trkpt lat="40.5339661" lon="16.3175067"><ele>507.5</ele><time>2026-04-06T15:21:12.855Z</time></trkpt><trkpt lat="40.5340906" lon="16.3174648"><ele>507.75</ele><time>2026-04-06T15:21:13.855Z</time></trkpt><trkpt lat="40.5342144" lon="16.3174299"><ele>508.0</ele><time>2026-04-06T15:21:14.855Z</time></trkpt><trkpt lat="40.534339" lon="16.3173918"><ele>508.0</ele><time>2026-04-06T15:21:15.855Z</time></trkpt><trkpt lat="40.5344636" lon="16.3173491"><ele>508.0</ele><time>2026-04-06T15:21:16.855Z</time></trkpt><trkpt lat="40.5345845" lon="16.317304"><ele>508.0</ele><time>2026-04-06T15:21:17.855Z</time></trkpt><trkpt lat="40.5347045" lon="16.3172571"><ele>508.0</ele><time>2026-04-06T15:21:18.855Z</time></trkpt><trkpt lat="40.5348181" lon="16.317208"><ele>511.59999999999997</ele><time>2026-04-06T15:21:19.855Z</time></trkpt><trkpt lat="40.5349334" lon="16.317165"><ele>515.1999999999999</ele><time>2026-04-06T15:21:20.855Z</time></trkpt><trkpt lat="40.5350495" lon="16.3171356"><ele>518.8</ele><time>2026-04-06T15:21:21.856Z</time></trkpt><trkpt lat="40.5351538" lon="16.3171435"><ele>522.4</ele><time>2026-04-06T15:21:22.855Z</time></trkpt><trkpt lat="40.5352425" lon="16.3171709"><ele>526.0</ele><time>2026-04-06T15:21:23.856Z</time></trkpt><trkpt lat="40.5353159" lon="16.3171826"><ele>526.0</ele><time>2026-04-06T15:21:24.855Z</time></trkpt><trkpt lat="40.5354026" lon="16.3171158"><ele>526.0</ele><time>2026-04-06T15:21:26.855Z</time></trkpt><trkpt lat="40.5353474" lon="16.3169816"><ele>526.0</ele><time>2026-04-06T15:21:28.855Z</time></trkpt><trkpt lat="40.5352896" lon="16.3169326"><ele>526.0</ele><time>2026-04-06T15:21:29.855Z</time></trkpt><trkpt lat="40.5352131" lon="16.316903"><ele>526.0</ele><time>2026-04-06T15:21:30.856Z</time></trkpt><trkpt lat="40.5351274" lon="16.3168825"><ele>526.0</ele><time>2026-04-06T15:21:31.856Z</time></trkpt><trkpt lat="40.5350428" lon="16.3168618"><ele>526.0</ele><time>2026-04-06T15:21:32.856Z</time></trkpt><trkpt lat="40.5349778" lon="16.3168296"><ele>526.0</ele><time>2026-04-06T15:21:33.855Z</time></trkpt><trkpt lat="40.5349336" lon="16.3167442"><ele>526.0</ele><time>2026-04-06T15:21:35.856Z</time></trkpt><trkpt lat="40.5350058" lon="16.3166891"><ele>526.0</ele><time>2026-04-06T15:21:37.855Z</time></trkpt><trkpt lat="40.5350854" lon="16.3167203"><ele>526.0</ele><time>2026-04-06T15:21:38.855Z</time></trkpt><trkpt lat="40.5351731" lon="16.316766"><ele>526.0</ele><time>2026-04-06T15:21:39.855Z</time></trkpt><trkpt lat="40.5352673" lon="16.3168096"><ele>526.0</ele><time>2026-04-06T15:21:40.855Z</time></trkpt><trkpt lat="40.5353653" lon="16.3168333"><ele>526.0</ele><time>2026-04-06T15:21:41.855Z</time></trkpt><trkpt lat="40.5354768" lon="16.3168205"><ele>526.0</ele><time>2026-04-06T15:21:42.855Z</time></trkpt><trkpt lat="40.5355936" lon="16.3167848"><ele>526.0</ele><time>2026-04-06T15:21:43.855Z</time></trkpt><trkpt lat="40.5357133" lon="16.316732"><ele>527.0</ele><time>2026-04-06T15:21:44.856Z</time></trkpt><trkpt lat="40.5358344" lon="16.3166717"><ele>528.0</ele><time>2026-04-06T15:21:45.855Z</time></trkpt><trkpt lat="40.535953" lon="16.3166056"><ele>529.0</ele><time>2026-04-06T15:21:46.855Z</time></trkpt><trkpt lat="40.5360654" lon="16.3165378"><ele>530.0</ele><time>2026-04-06T15:21:47.855Z</time></trkpt><trkpt lat="40.5361799" lon="16.3164755"><ele>530.25</ele><time>2026-04-06T15:21:48.855Z</time></trkpt><trkpt lat="40.5362935" lon="16.3164096"><ele>530.5</ele><time>2026-04-06T15:21:49.855Z</time></trkpt><trkpt lat="40.5364054" lon="16.3163371"><ele>530.75</ele><time>2026-04-06T15:21:50.856Z</time></trkpt><trkpt lat="40.5365142" lon="16.3162565"><ele>531.0</ele><time>2026-04-06T15:21:51.856Z</time></trkpt><trkpt lat="40.5366222" lon="16.3161758"><ele>534.0</ele><time>2026-04-06T15:21:52.855Z</time></trkpt><trkpt lat="40.5367356" lon="16.3161093"><ele>537.0</ele><time>2026-04-06T15:21:53.855Z</time></trkpt><trkpt lat="40.5368481" lon="16.3160524"><ele>540.0</ele><time>2026-04-06T15:21:54.855Z</time></trkpt><trkpt lat="40.5369572" lon="16.3159991"><ele>543.0</ele><time>2026-04-06T15:21:55.855Z</time></trkpt><trkpt lat="40.5370611" lon="16.3159267"><ele>543.0</ele><time>2026-04-06T15:21:56.855Z</time></trkpt><trkpt lat="40.5371567" lon="16.3158309"><ele>543.0</ele><time>2026-04-06T15:21:57.856Z</time></trkpt><trkpt lat="40.5372457" lon="16.3157219"><ele>543.0</ele><time>2026-04-06T15:21:58.856Z</time></trkpt><trkpt lat="40.5373429" lon="16.3156163"><ele>543.0</ele><time>2026-04-06T15:21:59.855Z</time></trkpt><trkpt lat="40.5374512" lon="16.3155254"><ele>546.5</ele><time>2026-04-06T15:22:00.855Z</time></trkpt><trkpt lat="40.5375688" lon="16.315452"><ele>550.0</ele><time>2026-04-06T15:22:01.855Z</time></trkpt><trkpt lat="40.5376911" lon="16.3153892"><ele>553.5</ele><time>2026-04-06T15:22:02.856Z</time></trkpt><trkpt lat="40.5378167" lon="16.3153426"><ele>557.0</ele><time>2026-04-06T15:22:03.855Z</time></trkpt><trkpt lat="40.5379509" lon="16.3153211"><ele>557.5</ele><time>2026-04-06T15:22:04.855Z</time></trkpt><trkpt lat="40.5380927" lon="16.3153214"><ele>558.0</ele><time>2026-04-06T15:22:05.855Z</time></trkpt><trkpt lat="40.5382367" lon="16.3153313"><ele>558.5</ele><time>2026-04-06T15:22:06.855Z</time></trkpt><trkpt lat="40.5383791" lon="16.3153453"><ele>559.0</ele><time>2026-04-06T15:22:07.856Z</time></trkpt><trkpt lat="40.5385129" lon="16.3153696"><ele>559.0</ele><time>2026-04-06T15:22:08.855Z</time></trkpt><trkpt lat="40.5386395" lon="16.3154267"><ele>559.0</ele><time>2026-04-06T15:22:09.856Z</time></trkpt><trkpt lat="40.5387524" lon="16.3155166"><ele>559.0</ele><time>2026-04-06T15:22:10.856Z</time></trkpt><trkpt lat="40.5388549" lon="16.315607"><ele>559.0</ele><time>2026-04-06T15:22:11.855Z</time></trkpt><trkpt lat="40.5389587" lon="16.3156722"><ele>560.25</ele><time>2026-04-06T15:22:12.855Z</time></trkpt><trkpt lat="40.53907" lon="16.3156872"><ele>561.5</ele><time>2026-04-06T15:22:13.855Z</time></trkpt><trkpt lat="40.5391874" lon="16.3156662"><ele>562.75</ele><time>2026-04-06T15:22:14.855Z</time></trkpt><trkpt lat="40.5393113" lon="16.3156135"><ele>564.0</ele><time>2026-04-06T15:22:15.855Z</time></trkpt><trkpt lat="40.5394391" lon="16.3155369"><ele>563.75</ele><time>2026-04-06T15:22:16.855Z</time></trkpt><trkpt lat="40.5395654" lon="16.315458"><ele>563.5</ele><time>2026-04-06T15:22:17.856Z</time></trkpt><trkpt lat="40.5396908" lon="16.315375"><ele>563.25</ele><time>2026-04-06T15:22:18.855Z</time></trkpt><trkpt lat="40.5398075" lon="16.3152761"><ele>563.0</ele><time>2026-04-06T15:22:19.855Z</time></trkpt><trkpt lat="40.5399124" lon="16.3151628"><ele>563.0</ele><time>2026-04-06T15:22:20.855Z</time></trkpt><trkpt lat="40.540011" lon="16.3150466"><ele>563.0</ele><time>2026-04-06T15:22:21.856Z</time></trkpt><trkpt lat="40.5401181" lon="16.3149486"><ele>563.0</ele><time>2026-04-06T15:22:22.855Z</time></trkpt><trkpt lat="40.5402431" lon="16.3148839"><ele>563.0</ele><time>2026-04-06T15:22:23.855Z</time></trkpt><trkpt lat="40.5403792" lon="16.3148401"><ele>562.25</ele><time>2026-04-06T15:22:24.855Z</time></trkpt><trkpt lat="40.540516" lon="16.3148004"><ele>561.5</ele><time>2026-04-06T15:22:25.855Z</time></trkpt><trkpt lat="40.5406522" lon="16.3147753"><ele>560.75</ele><time>2026-04-06T15:22:26.855Z</time></trkpt><trkpt lat="40.5407882" lon="16.3147676"><ele>560.0</ele><time>2026-04-06T15:22:27.856Z</time></trkpt><trkpt lat="40.5409268" lon="16.3147874"><ele>560.0</ele><time>2026-04-06T15:22:28.855Z</time></trkpt><trkpt lat="40.5410708" lon="16.3148131"><ele>560.0</ele><time>2026-04-06T15:22:29.855Z</time></trkpt><trkpt lat="40.5412161" lon="16.3148332"><ele>560.0</ele><time>2026-04-06T15:22:30.855Z</time></trkpt><trkpt lat="40.5413652" lon="16.3148366"><ele>560.0</ele><time>2026-04-06T15:22:31.855Z</time></trkpt><trkpt lat="40.5415079" lon="16.314826"><ele>560.0</ele><time>2026-04-06T15:22:32.855Z</time></trkpt><trkpt lat="40.5416509" lon="16.3147894"><ele>560.0</ele><time>2026-04-06T15:22:33.855Z</time></trkpt><trkpt lat="40.5417915" lon="16.3147491"><ele>560.0</ele><time>2026-04-06T15:22:34.855Z</time></trkpt><trkpt lat="40.5419364" lon="16.3147082"><ele>560.0</ele><time>2026-04-06T15:22:35.855Z</time></trkpt><trkpt lat="40.5420827" lon="16.3146688"><ele>563.0</ele><time>2026-04-06T15:22:36.855Z</time></trkpt><trkpt lat="40.5422307" lon="16.3146271"><ele>566.0</ele><time>2026-04-06T15:22:37.856Z</time></trkpt><trkpt lat="40.5423828" lon="16.3145873"><ele>569.0</ele><time>2026-04-06T15:22:38.855Z</time></trkpt><trkpt lat="40.542537" lon="16.3145532"><ele>569.0</ele><time>2026-04-06T15:22:39.855Z</time></trkpt><trkpt lat="40.5426896" lon="16.3145279"><ele>569.0</ele><time>2026-04-06T15:22:40.855Z</time></trkpt><trkpt lat="40.5428379" lon="16.3145003"><ele>569.0</ele><time>2026-04-06T15:22:41.855Z</time></trkpt><trkpt lat="40.5429875" lon="16.3144767"><ele>570.0</ele><time>2026-04-06T15:22:42.855Z</time></trkpt><trkpt lat="40.5431377" lon="16.3144772"><ele>571.0</ele><time>2026-04-06T15:22:43.855Z</time></trkpt><trkpt lat="40.5432869" lon="16.3145044"><ele>572.0</ele><time>2026-04-06T15:22:44.856Z</time></trkpt><trkpt lat="40.5434365" lon="16.3145455"><ele>572.0</ele><time>2026-04-06T15:22:45.855Z</time></trkpt><trkpt lat="40.5435758" lon="16.3146101"><ele>572.0</ele><time>2026-04-06T15:22:46.855Z</time></trkpt><trkpt lat="40.5437136" lon="16.3146872"><ele>572.0</ele><time>2026-04-06T15:22:47.855Z</time></trkpt><trkpt lat="40.5438539" lon="16.3147639"><ele>572.0</ele><time>2026-04-06T15:22:48.856Z</time></trkpt><trkpt lat="40.5439967" lon="16.3148388"><ele>569.0</ele><time>2026-04-06T15:22:49.856Z</time></trkpt><trkpt lat="40.5441463" lon="16.3148893"><ele>566.0</ele><time>2026-04-06T15:22:50.855Z</time></trkpt><trkpt lat="40.5442994" lon="16.3149033"><ele>563.0</ele><time>2026-04-06T15:22:51.856Z</time></trkpt><trkpt lat="40.5444558" lon="16.3148932"><ele>564.3333333333333</ele><time>2026-04-06T15:22:52.855Z</time></trkpt><trkpt lat="40.5446129" lon="16.3148678"><ele>565.6666666666666</ele><time>2026-04-06T15:22:53.855Z</time></trkpt><trkpt lat="40.5447686" lon="16.3148432"><ele>567.0</ele><time>2026-04-06T15:22:54.855Z</time></trkpt><trkpt lat="40.5449199" lon="16.3148193"><ele>567.0</ele><time>2026-04-06T15:22:55.855Z</time></trkpt><trkpt lat="40.5450687" lon="16.3147788"><ele>567.0</ele><time>2026-04-06T15:22:56.856Z</time></trkpt><trkpt lat="40.5452141" lon="16.3147044"><ele>567.0</ele><time>2026-04-06T15:22:57.855Z</time></trkpt><trkpt lat="40.5453559" lon="16.3146054"><ele>570.3333333333334</ele><time>2026-04-06T15:22:58.855Z</time></trkpt><trkpt lat="40.5454943" lon="16.3144929"><ele>573.6666666666667</ele><time>2026-04-06T15:22:59.855Z</time></trkpt><trkpt lat="40.5456343" lon="16.3143737"><ele>577.0</ele><time>2026-04-06T15:23:00.855Z</time></trkpt><trkpt lat="40.5457739" lon="16.3142629"><ele>577.0</ele><time>2026-04-06T15:23:01.855Z</time></trkpt><trkpt lat="40.5459112" lon="16.3141661"><ele>577.0</ele><time>2026-04-06T15:23:02.855Z</time></trkpt><trkpt lat="40.5460494" lon="16.3140861"><ele>577.0</ele><time>2026-04-06T15:23:03.855Z</time></trkpt><trkpt lat="40.5461924" lon="16.3140267"><ele>576.3333333333334</ele><time>2026-04-06T15:23:04.856Z</time></trkpt><trkpt lat="40.5463469" lon="16.3139945"><ele>575.6666666666666</ele><time>2026-04-06T15:23:05.855Z</time></trkpt><trkpt lat="40.5465056" lon="16.3139884"><ele>575.0</ele><time>2026-04-06T15:23:06.855Z</time></trkpt><trkpt lat="40.5466719" lon="16.3140024"><ele>575.0</ele><time>2026-04-06T15:23:07.855Z</time></trkpt><trkpt lat="40.5468409" lon="16.3140278"><ele>575.0</ele><time>2026-04-06T15:23:08.856Z</time></trkpt><trkpt lat="40.547013" lon="16.3140581"><ele>575.0</ele><time>2026-04-06T15:23:09.855Z</time></trkpt><trkpt lat="40.5471819" lon="16.3140854"><ele>575.3333333333333</ele><time>2026-04-06T15:23:10.855Z</time></trkpt><trkpt lat="40.547358" lon="16.3141123"><ele>575.6666666666666</ele><time>2026-04-06T15:23:11.855Z</time></trkpt><trkpt lat="40.5475312" lon="16.3141349"><ele>576.0</ele><time>2026-04-06T15:23:12.855Z</time></trkpt><trkpt lat="40.5477099" lon="16.3141556"><ele>576.0</ele><time>2026-04-06T15:23:13.855Z</time></trkpt><trkpt lat="40.5478863" lon="16.3141803"><ele>576.0</ele><time>2026-04-06T15:23:14.855Z</time></trkpt><trkpt lat="40.5480657" lon="16.3142078"><ele>576.0</ele><time>2026-04-06T15:23:15.855Z</time></trkpt><trkpt lat="40.5482472" lon="16.3142353"><ele>576.0</ele><time>2026-04-06T15:23:16.856Z</time></trkpt><trkpt lat="40.5484317" lon="16.3142598"><ele>576.0</ele><time>2026-04-06T15:23:17.855Z</time></trkpt><trkpt lat="40.5486183" lon="16.3142734"><ele>576.0</ele><time>2026-04-06T15:23:18.856Z</time></trkpt><trkpt lat="40.5488014" lon="16.3142714"><ele>577.3333333333334</ele><time>2026-04-06T15:23:19.855Z</time></trkpt><trkpt lat="40.5489819" lon="16.3142593"><ele>578.6666666666667</ele><time>2026-04-06T15:23:20.855Z</time></trkpt><trkpt lat="40.5491618" lon="16.3142391"><ele>580.0</ele><time>2026-04-06T15:23:21.855Z</time></trkpt><trkpt lat="40.5493456" lon="16.314215"><ele>580.0</ele><time>2026-04-06T15:23:22.855Z</time></trkpt><trkpt lat="40.5495305" lon="16.3141865"><ele>580.0</ele><time>2026-04-06T15:23:23.855Z</time></trkpt><trkpt lat="40.5497156" lon="16.3141573"><ele>580.0</ele><time>2026-04-06T15:23:24.855Z</time></trkpt><trkpt lat="40.5498995" lon="16.3141283"><ele>581.6666666666667</ele><time>2026-04-06T15:23:25.855Z</time></trkpt><trkpt lat="40.5500829" lon="16.3141007"><ele>583.3333333333334</ele><time>2026-04-06T15:23:26.855Z</time></trkpt><trkpt lat="40.5502637" lon="16.3140707"><ele>585.0</ele><time>2026-04-06T15:23:27.855Z</time></trkpt><trkpt lat="40.5504462" lon="16.3140381"><ele>585.6666666666666</ele><time>2026-04-06T15:23:28.855Z</time></trkpt><trkpt lat="40.5506292" lon="16.3140065"><ele>586.3333333333333</ele><time>2026-04-06T15:23:29.855Z</time></trkpt><trkpt lat="40.5508112" lon="16.3139817"><ele>587.0</ele><time>2026-04-06T15:23:30.855Z</time></trkpt><trkpt lat="40.5509917" lon="16.31396"><ele>587.0</ele><time>2026-04-06T15:23:31.855Z</time></trkpt><trkpt lat="40.5511732" lon="16.3139358"><ele>587.0</ele><time>2026-04-06T15:23:32.855Z</time></trkpt><trkpt lat="40.551356" lon="16.313909"><ele>587.0</ele><time>2026-04-06T15:23:33.855Z</time></trkpt><trkpt lat="40.5515316" lon="16.3138817"><ele>585.6666666666666</ele><time>2026-04-06T15:23:34.855Z</time></trkpt><trkpt lat="40.5516979" lon="16.3138532"><ele>584.3333333333334</ele><time>2026-04-06T15:23:35.855Z</time></trkpt><trkpt lat="40.5518533" lon="16.313837"><ele>583.0</ele><time>2026-04-06T15:23:36.855Z</time></trkpt><trkpt lat="40.5519965" lon="16.3138396"><ele>582.25</ele><time>2026-04-06T15:23:37.855Z</time></trkpt><trkpt lat="40.5521384" lon="16.3138701"><ele>581.5</ele><time>2026-04-06T15:23:38.855Z</time></trkpt><trkpt lat="40.5522775" lon="16.3139327"><ele>580.75</ele><time>2026-04-06T15:23:39.855Z</time></trkpt><trkpt lat="40.5524081" lon="16.3140315"><ele>580.0</ele><time>2026-04-06T15:23:40.856Z</time></trkpt><trkpt lat="40.5525292" lon="16.3141598"><ele>585.0</ele><time>2026-04-06T15:23:41.855Z</time></trkpt><trkpt lat="40.5526313" lon="16.3143095"><ele>590.0</ele><time>2026-04-06T15:23:42.855Z</time></trkpt><trkpt lat="40.5527135" lon="16.3144888"><ele>595.0</ele><time>2026-04-06T15:23:43.856Z</time></trkpt><trkpt lat="40.5527902" lon="16.3146887"><ele>596.0</ele><time>2026-04-06T15:23:44.855Z</time></trkpt><trkpt lat="40.5528721" lon="16.314894"><ele>597.0</ele><time>2026-04-06T15:23:45.855Z</time></trkpt><trkpt lat="40.552972" lon="16.3151024"><ele>598.0</ele><time>2026-04-06T15:23:46.855Z</time></trkpt><trkpt lat="40.5530867" lon="16.3153005"><ele>598.0</ele><time>2026-04-06T15:23:47.855Z</time></trkpt><trkpt lat="40.5532047" lon="16.3154936"><ele>598.0</ele><time>2026-04-06T15:23:48.855Z</time></trkpt><trkpt lat="40.5533213" lon="16.3156761"><ele>598.0</ele><time>2026-04-06T15:23:49.855Z</time></trkpt><trkpt lat="40.553433" lon="16.3158434"><ele>597.5</ele><time>2026-04-06T15:23:50.855Z</time></trkpt><trkpt lat="40.553542" lon="16.3159921"><ele>597.0</ele><time>2026-04-06T15:23:51.856Z</time></trkpt><trkpt lat="40.5536533" lon="16.3161198"><ele>596.5</ele><time>2026-04-06T15:23:52.855Z</time></trkpt><trkpt lat="40.553771" lon="16.316222"><ele>596.0</ele><time>2026-04-06T15:23:53.855Z</time></trkpt><trkpt lat="40.5538941" lon="16.3162891"><ele>596.0</ele><time>2026-04-06T15:23:54.855Z</time></trkpt><trkpt lat="40.554026" lon="16.3163229"><ele>596.0</ele><time>2026-04-06T15:23:55.855Z</time></trkpt><trkpt lat="40.5541682" lon="16.3163307"><ele>596.0</ele><time>2026-04-06T15:23:56.856Z</time></trkpt><trkpt lat="40.5543137" lon="16.3163182"><ele>596.0</ele><time>2026-04-06T15:23:57.855Z</time></trkpt><trkpt lat="40.5544598" lon="16.3162842"><ele>595.0</ele><time>2026-04-06T15:23:58.855Z</time></trkpt><trkpt lat="40.5546042" lon="16.3162195"><ele>594.0</ele><time>2026-04-06T15:23:59.855Z</time></trkpt><trkpt lat="40.5547393" lon="16.3161229"><ele>593.0</ele><time>2026-04-06T15:24:00.855Z</time></trkpt><trkpt lat="40.5548661" lon="16.3159938"><ele>593.0</ele><time>2026-04-06T15:24:01.855Z</time></trkpt><trkpt lat="40.5549751" lon="16.3158272"><ele>593.0</ele><time>2026-04-06T15:24:02.855Z</time></trkpt><trkpt lat="40.5550713" lon="16.3156516"><ele>593.0</ele><time>2026-04-06T15:24:03.855Z</time></trkpt><trkpt lat="40.555172" lon="16.3154711"><ele>591.0</ele><time>2026-04-06T15:24:04.855Z</time></trkpt><trkpt lat="40.5552873" lon="16.315299"><ele>589.0</ele><time>2026-04-06T15:24:05.855Z</time></trkpt><trkpt lat="40.5554226" lon="16.3151364"><ele>587.0</ele><time>2026-04-06T15:24:06.855Z</time></trkpt><trkpt lat="40.5555723" lon="16.3149846"><ele>587.0</ele><time>2026-04-06T15:24:07.855Z</time></trkpt><trkpt lat="40.5557378" lon="16.3148358"><ele>587.0</ele><time>2026-04-06T15:24:08.855Z</time></trkpt><trkpt lat="40.5559091" lon="16.3146868"><ele>587.0</ele><time>2026-04-06T15:24:09.855Z</time></trkpt><trkpt lat="40.5560803" lon="16.314542"><ele>587.0</ele><time>2026-04-06T15:24:10.855Z</time></trkpt><trkpt lat="40.5562455" lon="16.3144016"><ele>587.0</ele><time>2026-04-06T15:24:11.856Z</time></trkpt><trkpt lat="40.5564056" lon="16.314269"><ele>587.0</ele><time>2026-04-06T15:24:12.855Z</time></trkpt><trkpt lat="40.5565579" lon="16.3141426"><ele>587.0</ele><time>2026-04-06T15:24:13.855Z</time></trkpt><trkpt lat="40.5567006" lon="16.3140278"><ele>587.0</ele><time>2026-04-06T15:24:14.856Z</time></trkpt><trkpt lat="40.5568439" lon="16.3139199"><ele>587.0</ele><time>2026-04-06T15:24:15.855Z</time></trkpt><trkpt lat="40.5569963" lon="16.3138257"><ele>586.0</ele><time>2026-04-06T15:24:16.856Z</time></trkpt><trkpt lat="40.5571554" lon="16.313748"><ele>585.0</ele><time>2026-04-06T15:24:17.855Z</time></trkpt><trkpt lat="40.5573188" lon="16.3136836"><ele>584.0</ele><time>2026-04-06T15:24:18.856Z</time></trkpt><trkpt lat="40.5574858" lon="16.3136262"><ele>584.0</ele><time>2026-04-06T15:24:19.856Z</time></trkpt><trkpt lat="40.5576557" lon="16.3135688"><ele>584.0</ele><time>2026-04-06T15:24:20.855Z</time></trkpt><trkpt lat="40.5578285" lon="16.3135169"><ele>584.0</ele><time>2026-04-06T15:24:21.855Z</time></trkpt><trkpt lat="40.5580058" lon="16.3134701"><ele>584.0</ele><time>2026-04-06T15:24:22.855Z</time></trkpt><trkpt lat="40.5581819" lon="16.3134192"><ele>584.0</ele><time>2026-04-06T15:24:23.855Z</time></trkpt><trkpt lat="40.55836" lon="16.3133671"><ele>584.0</ele><time>2026-04-06T15:24:24.855Z</time></trkpt><trkpt lat="40.5585348" lon="16.3133158"><ele>585.0</ele><time>2026-04-06T15:24:25.855Z</time></trkpt><trkpt lat="40.5587111" lon="16.3132643"><ele>586.0</ele><time>2026-04-06T15:24:26.856Z</time></trkpt><trkpt lat="40.5588878" lon="16.3132165"><ele>587.0</ele><time>2026-04-06T15:24:27.855Z</time></trkpt><trkpt lat="40.5590662" lon="16.3131665"><ele>587.0</ele><time>2026-04-06T15:24:28.856Z</time></trkpt><trkpt lat="40.5592436" lon="16.313113"><ele>587.0</ele><time>2026-04-06T15:24:29.855Z</time></trkpt><trkpt lat="40.5594229" lon="16.3130619"><ele>587.0</ele><time>2026-04-06T15:24:30.856Z</time></trkpt><trkpt lat="40.5596029" lon="16.3130083"><ele>588.0</ele><time>2026-04-06T15:24:31.855Z</time></trkpt><trkpt lat="40.5597804" lon="16.3129571"><ele>589.0</ele><time>2026-04-06T15:24:32.855Z</time></trkpt><trkpt lat="40.5599556" lon="16.312907"><ele>590.0</ele><time>2026-04-06T15:24:33.855Z</time></trkpt><trkpt lat="40.5601318" lon="16.3128594"><ele>590.0</ele><time>2026-04-06T15:24:34.855Z</time></trkpt><trkpt lat="40.5603096" lon="16.3128037"><ele>590.0</ele><time>2026-04-06T15:24:35.856Z</time></trkpt><trkpt lat="40.5604851" lon="16.3127431"><ele>590.0</ele><time>2026-04-06T15:24:36.855Z</time></trkpt><trkpt lat="40.5606615" lon="16.3126902"><ele>590.6666666666666</ele><time>2026-04-06T15:24:37.855Z</time></trkpt><trkpt lat="40.5608405" lon="16.3126365"><ele>591.3333333333334</ele><time>2026-04-06T15:24:38.855Z</time></trkpt><trkpt lat="40.5610201" lon="16.3125845"><ele>592.0</ele><time>2026-04-06T15:24:39.855Z</time></trkpt><trkpt lat="40.5611966" lon="16.3125389"><ele>592.3333333333334</ele><time>2026-04-06T15:24:40.855Z</time></trkpt><trkpt lat="40.5613769" lon="16.312493"><ele>592.6666666666666</ele><time>2026-04-06T15:24:41.856Z</time></trkpt><trkpt lat="40.5615543" lon="16.3124449"><ele>593.0</ele><time>2026-04-06T15:24:42.855Z</time></trkpt><trkpt lat="40.5617323" lon="16.3123905"><ele>593.0</ele><time>2026-04-06T15:24:43.855Z</time></trkpt><trkpt lat="40.5619042" lon="16.3123369"><ele>593.0</ele><time>2026-04-06T15:24:44.856Z</time></trkpt><trkpt lat="40.5620588" lon="16.3122868"><ele>593.0</ele><time>2026-04-06T15:24:45.855Z</time></trkpt><trkpt lat="40.5621774" lon="16.312249"><ele>593.0</ele><time>2026-04-06T15:24:46.855Z</time></trkpt><trkpt lat="40.562263" lon="16.312221"><ele>593.0</ele><time>2026-04-06T15:24:47.855Z</time></trkpt><trkpt lat="40.5623325" lon="16.3121902"><ele>593.0</ele><time>2026-04-06T15:24:48.855Z</time></trkpt><trkpt lat="40.5623947" lon="16.3121392"><ele>593.0</ele><time>2026-04-06T15:24:49.855Z</time></trkpt><trkpt lat="40.5624556" lon="16.3120694"><ele>593.0</ele><time>2026-04-06T15:24:50.856Z</time></trkpt><trkpt lat="40.5625296" lon="16.3119952"><ele>593.0</ele><time>2026-04-06T15:24:51.855Z</time></trkpt><trkpt lat="40.5626197" lon="16.3119207"><ele>593.0</ele><time>2026-04-06T15:24:52.855Z</time></trkpt><trkpt lat="40.5627192" lon="16.3118433"><ele>593.0</ele><time>2026-04-06T15:24:53.855Z</time></trkpt><trkpt lat="40.5628269" lon="16.3117612"><ele>593.0</ele><time>2026-04-06T15:24:54.855Z</time></trkpt><trkpt lat="40.5629312" lon="16.3116759"><ele>593.0</ele><time>2026-04-06T15:24:55.855Z</time></trkpt><trkpt lat="40.5630352" lon="16.3115915"><ele>593.5</ele><time>2026-04-06T15:24:56.855Z</time></trkpt><trkpt lat="40.5631362" lon="16.3115102"><ele>594.0</ele><time>2026-04-06T15:24:57.855Z</time></trkpt><trkpt lat="40.5632349" lon="16.3114227"><ele>594.5</ele><time>2026-04-06T15:24:58.855Z</time></trkpt><trkpt lat="40.563333" lon="16.3113369"><ele>595.0</ele><time>2026-04-06T15:24:59.855Z</time></trkpt><trkpt lat="40.5634313" lon="16.3112491"><ele>595.0</ele><time>2026-04-06T15:25:00.855Z</time></trkpt><trkpt lat="40.563534" lon="16.3111592"><ele>595.0</ele><time>2026-04-06T15:25:01.855Z</time></trkpt><trkpt lat="40.5636435" lon="16.3110637"><ele>595.0</ele><time>2026-04-06T15:25:02.855Z</time></trkpt><trkpt lat="40.5637548" lon="16.3109675"><ele>595.0</ele><time>2026-04-06T15:25:03.855Z</time></trkpt><trkpt lat="40.563871" lon="16.3108687"><ele>595.25</ele><time>2026-04-06T15:25:04.855Z</time></trkpt><trkpt lat="40.5639868" lon="16.310771"><ele>595.5</ele><time>2026-04-06T15:25:05.855Z</time></trkpt><trkpt lat="40.5641007" lon="16.3106717"><ele>595.75</ele><time>2026-04-06T15:25:06.856Z</time></trkpt><trkpt lat="40.5642188" lon="16.3105772"><ele>596.0</ele><time>2026-04-06T15:25:07.855Z</time></trkpt><trkpt lat="40.5643331" lon="16.3104879"><ele>596.0</ele><time>2026-04-06T15:25:08.856Z</time></trkpt><trkpt lat="40.5644349" lon="16.3104081"><ele>596.0</ele><time>2026-04-06T15:25:09.855Z</time></trkpt><trkpt lat="40.5645192" lon="16.3103308"><ele>596.0</ele><time>2026-04-06T15:25:10.856Z</time></trkpt><trkpt lat="40.5645862" lon="16.3102414"><ele>596.0</ele><time>2026-04-06T15:25:11.855Z</time></trkpt><trkpt lat="40.5646369" lon="16.3101382"><ele>596.0</ele><time>2026-04-06T15:25:12.855Z</time></trkpt><trkpt lat="40.5646812" lon="16.3100299"><ele>595.8</ele><time>2026-04-06T15:25:13.855Z</time></trkpt><trkpt lat="40.5647281" lon="16.3099176"><ele>595.6</ele><time>2026-04-06T15:25:14.856Z</time></trkpt><trkpt lat="40.5647783" lon="16.3098055"><ele>595.4</ele><time>2026-04-06T15:25:15.856Z</time></trkpt><trkpt lat="40.5648283" lon="16.3097022"><ele>595.2</ele><time>2026-04-06T15:25:16.856Z</time></trkpt><trkpt lat="40.5648724" lon="16.3096073"><ele>595.0</ele><time>2026-04-06T15:25:17.855Z</time></trkpt><trkpt lat="40.5649036" lon="16.3095024"><ele>594.6</ele><time>2026-04-06T15:25:18.855Z</time></trkpt><trkpt lat="40.5649244" lon="16.3093879"><ele>594.2</ele><time>2026-04-06T15:25:19.855Z</time></trkpt><trkpt lat="40.564945" lon="16.3092708"><ele>593.8</ele><time>2026-04-06T15:25:20.855Z</time></trkpt><trkpt lat="40.5649709" lon="16.309143"><ele>593.4</ele><time>2026-04-06T15:25:21.855Z</time></trkpt><trkpt lat="40.5649946" lon="16.3090123"><ele>593.0</ele><time>2026-04-06T15:25:22.855Z</time></trkpt><trkpt lat="40.5650165" lon="16.3088799"><ele>591.6</ele><time>2026-04-06T15:25:23.855Z</time></trkpt><trkpt lat="40.5650354" lon="16.3087473"><ele>590.1999999999999</ele><time>2026-04-06T15:25:24.855Z</time></trkpt><trkpt lat="40.5650469" lon="16.308618"><ele>588.8</ele><time>2026-04-06T15:25:25.856Z</time></trkpt><trkpt lat="40.565048" lon="16.3084977"><ele>587.4</ele><time>2026-04-06T15:25:26.855Z</time></trkpt><trkpt lat="40.5650415" lon="16.3083703"><ele>586.0</ele><time>2026-04-06T15:25:27.855Z</time></trkpt><trkpt lat="40.5650341" lon="16.3082379"><ele>586.0</ele><time>2026-04-06T15:25:28.855Z</time></trkpt><trkpt lat="40.565023" lon="16.3081045"><ele>586.0</ele><time>2026-04-06T15:25:29.856Z</time></trkpt><trkpt lat="40.5650157" lon="16.3079726"><ele>586.0</ele><time>2026-04-06T15:25:30.855Z</time></trkpt><trkpt lat="40.5650145" lon="16.3078459"><ele>586.0</ele><time>2026-04-06T15:25:31.856Z</time></trkpt><trkpt lat="40.5650233" lon="16.3077165"><ele>586.0</ele><time>2026-04-06T15:25:32.855Z</time></trkpt><trkpt lat="40.5650439" lon="16.3075893"><ele>584.6</ele><time>2026-04-06T15:25:33.856Z</time></trkpt><trkpt lat="40.5650669" lon="16.3074665"><ele>583.2</ele><time>2026-04-06T15:25:34.855Z</time></trkpt><trkpt lat="40.565088" lon="16.3073434"><ele>581.8</ele><time>2026-04-06T15:25:35.855Z</time></trkpt><trkpt lat="40.565101" lon="16.3072146"><ele>580.4</ele><time>2026-04-06T15:25:36.855Z</time></trkpt><trkpt lat="40.5651131" lon="16.3070817"><ele>579.0</ele><time>2026-04-06T15:25:37.855Z</time></trkpt><trkpt lat="40.5651346" lon="16.3069484"><ele>579.0</ele><time>2026-04-06T15:25:38.856Z</time></trkpt><trkpt lat="40.5651681" lon="16.3068203"><ele>579.0</ele><time>2026-04-06T15:25:39.855Z</time></trkpt><trkpt lat="40.5652053" lon="16.3066934"><ele>579.0</ele><time>2026-04-06T15:25:40.855Z</time></trkpt><trkpt lat="40.5652384" lon="16.306561"><ele>579.0</ele><time>2026-04-06T15:25:41.856Z</time></trkpt><trkpt lat="40.5652631" lon="16.3064203"><ele>579.0</ele><time>2026-04-06T15:25:42.856Z</time></trkpt><trkpt lat="40.565283" lon="16.3062752"><ele>578.2</ele><time>2026-04-06T15:25:43.856Z</time></trkpt><trkpt lat="40.5653025" lon="16.3061312"><ele>577.4</ele><time>2026-04-06T15:25:44.856Z</time></trkpt><trkpt lat="40.5653264" lon="16.3059955"><ele>576.6</ele><time>2026-04-06T15:25:45.855Z</time></trkpt><trkpt lat="40.5653557" lon="16.3058646"><ele>575.8</ele><time>2026-04-06T15:25:46.855Z</time></trkpt><trkpt lat="40.5653856" lon="16.3057324"><ele>575.0</ele><time>2026-04-06T15:25:47.856Z</time></trkpt><trkpt lat="40.5654098" lon="16.3056009"><ele>572.8</ele><time>2026-04-06T15:25:48.854Z</time></trkpt><trkpt lat="40.5654362" lon="16.3054716"><ele>570.6</ele><time>2026-04-06T15:25:49.854Z</time></trkpt><trkpt lat="40.5654737" lon="16.3053432"><ele>568.4</ele><time>2026-04-06T15:25:50.854Z</time></trkpt><trkpt lat="40.5655172" lon="16.3052116"><ele>566.2</ele><time>2026-04-06T15:25:51.854Z</time></trkpt><trkpt lat="40.5655748" lon="16.3050852"><ele>564.0</ele><time>2026-04-06T15:25:52.854Z</time></trkpt><trkpt lat="40.5656394" lon="16.3049592"><ele>564.0</ele><time>2026-04-06T15:25:53.854Z</time></trkpt><trkpt lat="40.565708" lon="16.3048386"><ele>564.0</ele><time>2026-04-06T15:25:54.854Z</time></trkpt><trkpt lat="40.5657741" lon="16.3047263"><ele>564.0</ele><time>2026-04-06T15:25:55.854Z</time></trkpt><trkpt lat="40.5658462" lon="16.3046202"><ele>564.0</ele><time>2026-04-06T15:25:56.854Z</time></trkpt><trkpt lat="40.5659181" lon="16.3045158"><ele>564.0</ele><time>2026-04-06T15:25:57.854Z</time></trkpt><trkpt lat="40.5659847" lon="16.3044169"><ele>562.6</ele><time>2026-04-06T15:25:58.855Z</time></trkpt><trkpt lat="40.5660518" lon="16.3043319"><ele>561.2</ele><time>2026-04-06T15:25:59.854Z</time></trkpt><trkpt lat="40.5661305" lon="16.3042539"><ele>559.8000000000001</ele><time>2026-04-06T15:26:00.855Z</time></trkpt><trkpt lat="40.5662157" lon="16.3041839"><ele>558.4</ele><time>2026-04-06T15:26:01.854Z</time></trkpt><trkpt lat="40.5663076" lon="16.3041205"><ele>557.0</ele><time>2026-04-06T15:26:02.854Z</time></trkpt><trkpt lat="40.5664068" lon="16.3040568"><ele>556.6</ele><time>2026-04-06T15:26:03.854Z</time></trkpt><trkpt lat="40.5665061" lon="16.3039924"><ele>556.2</ele><time>2026-04-06T15:26:04.854Z</time></trkpt><trkpt lat="40.5666036" lon="16.3039286"><ele>555.8</ele><time>2026-04-06T15:26:05.854Z</time></trkpt><trkpt lat="40.5667026" lon="16.3038613"><ele>555.4</ele><time>2026-04-06T15:26:06.854Z</time></trkpt><trkpt lat="40.5667946" lon="16.3037975"><ele>555.0</ele><time>2026-04-06T15:26:07.854Z</time></trkpt><trkpt lat="40.5668807" lon="16.3037442"><ele>554.1666666666666</ele><time>2026-04-06T15:26:08.854Z</time></trkpt><trkpt lat="40.56696" lon="16.3037126"><ele>553.3333333333334</ele><time>2026-04-06T15:26:09.854Z</time></trkpt><trkpt lat="40.5670352" lon="16.3037071"><ele>552.5</ele><time>2026-04-06T15:26:10.854Z</time></trkpt><trkpt lat="40.5671082" lon="16.3037239"><ele>551.6666666666667</ele><time>2026-04-06T15:26:11.854Z</time></trkpt><trkpt lat="40.5671771" lon="16.3037634"><ele>550.8333333333334</ele><time>2026-04-06T15:26:12.855Z</time></trkpt><trkpt lat="40.5672447" lon="16.3038218"><ele>550.0</ele><time>2026-04-06T15:26:13.854Z</time></trkpt><trkpt lat="40.5673093" lon="16.3038778"><ele>550.0</ele><time>2026-04-06T15:26:14.854Z</time></trkpt><trkpt lat="40.5673681" lon="16.30392"><ele>550.0</ele><time>2026-04-06T15:26:15.854Z</time></trkpt><trkpt lat="40.5674464" lon="16.3039589"><ele>550.0</ele><time>2026-04-06T15:26:17.854Z</time></trkpt><trkpt lat="40.5675299" lon="16.3039068"><ele>550.0</ele><time>2026-04-06T15:26:22.854Z</time></trkpt><trkpt lat="40.5676106" lon="16.3038077"><ele>550.0</ele><time>2026-04-06T15:26:24.854Z</time></trkpt><trkpt lat="40.5676589" lon="16.3037468"><ele>550.0</ele><time>2026-04-06T15:26:25.854Z</time></trkpt><trkpt lat="40.5677077" lon="16.3036877"><ele>550.0</ele><time>2026-04-06T15:26:26.854Z</time></trkpt><trkpt lat="40.5677796" lon="16.3035808"><ele>550.0</ele><time>2026-04-06T15:26:28.854Z</time></trkpt><trkpt lat="40.5678273" lon="16.3035036"><ele>550.0</ele><time>2026-04-06T15:26:30.855Z</time></trkpt><trkpt lat="40.567917" lon="16.3035086"><ele>550.0</ele><time>2026-04-06T15:26:33.854Z</time></trkpt><trkpt lat="40.5679926" lon="16.3036168"><ele>550.0</ele><time>2026-04-06T15:26:35.854Z</time></trkpt><trkpt lat="40.5680314" lon="16.3036909"><ele>548.5</ele><time>2026-04-06T15:26:36.854Z</time></trkpt><trkpt lat="40.5680688" lon="16.3037727"><ele>547.0</ele><time>2026-04-06T15:26:37.854Z</time></trkpt><trkpt lat="40.568107" lon="16.3038593"><ele>545.5</ele><time>2026-04-06T15:26:38.854Z</time></trkpt><trkpt lat="40.5681443" lon="16.3039528"><ele>544.0</ele><time>2026-04-06T15:26:39.854Z</time></trkpt><trkpt lat="40.5681813" lon="16.3040559"><ele>542.5</ele><time>2026-04-06T15:26:40.854Z</time></trkpt><trkpt lat="40.568214" lon="16.3041637"><ele>541.0</ele><time>2026-04-06T15:26:41.855Z</time></trkpt><trkpt lat="40.568248" lon="16.3042744"><ele>539.4</ele><time>2026-04-06T15:26:42.854Z</time></trkpt><trkpt lat="40.5682849" lon="16.3043894"><ele>537.8</ele><time>2026-04-06T15:26:43.854Z</time></trkpt><trkpt lat="40.5683286" lon="16.3044989"><ele>536.1999999999999</ele><time>2026-04-06T15:26:44.854Z</time></trkpt><trkpt lat="40.5683682" lon="16.3046087"><ele>534.6</ele><time>2026-04-06T15:26:45.854Z</time></trkpt><trkpt lat="40.568405" lon="16.3047187"><ele>533.0</ele><time>2026-04-06T15:26:46.854Z</time></trkpt><trkpt lat="40.5684415" lon="16.3048326"><ele>531.4</ele><time>2026-04-06T15:26:47.855Z</time></trkpt><trkpt lat="40.5684769" lon="16.3049476"><ele>529.8</ele><time>2026-04-06T15:26:48.855Z</time></trkpt><trkpt lat="40.568516" lon="16.3050627"><ele>528.2</ele><time>2026-04-06T15:26:49.855Z</time></trkpt><trkpt lat="40.5685587" lon="16.3051753"><ele>526.6</ele><time>2026-04-06T15:26:50.854Z</time></trkpt><trkpt lat="40.5685985" lon="16.3052923"><ele>525.0</ele><time>2026-04-06T15:26:51.854Z</time></trkpt><trkpt lat="40.5686363" lon="16.3054121"><ele>525.0</ele><time>2026-04-06T15:26:52.854Z</time></trkpt><trkpt lat="40.5686799" lon="16.3055285"><ele>525.0</ele><time>2026-04-06T15:26:53.854Z</time></trkpt><trkpt lat="40.5687252" lon="16.3056451"><ele>525.0</ele><time>2026-04-06T15:26:54.854Z</time></trkpt><trkpt lat="40.5687693" lon="16.3057634"><ele>525.0</ele><time>2026-04-06T15:26:55.854Z</time></trkpt><trkpt lat="40.5688077" lon="16.3058896"><ele>525.0</ele><time>2026-04-06T15:26:56.855Z</time></trkpt><trkpt lat="40.5688454" lon="16.3060089"><ele>520.2</ele><time>2026-04-06T15:26:57.854Z</time></trkpt><trkpt lat="40.5688849" lon="16.3061269"><ele>515.4</ele><time>2026-04-06T15:26:58.854Z</time></trkpt><trkpt lat="40.5689301" lon="16.3062422"><ele>510.6</ele><time>2026-04-06T15:26:59.854Z</time></trkpt><trkpt lat="40.5689762" lon="16.3063518"><ele>505.8</ele><time>2026-04-06T15:27:00.855Z</time></trkpt><trkpt lat="40.5690183" lon="16.3064623"><ele>501.0</ele><time>2026-04-06T15:27:01.854Z</time></trkpt><trkpt lat="40.5690584" lon="16.3065724"><ele>500.0</ele><time>2026-04-06T15:27:02.855Z</time></trkpt><trkpt lat="40.5691014" lon="16.3066826"><ele>499.0</ele><time>2026-04-06T15:27:03.854Z</time></trkpt><trkpt lat="40.5691358" lon="16.3068032"><ele>498.0</ele><time>2026-04-06T15:27:04.854Z</time></trkpt><trkpt lat="40.5691686" lon="16.3069311"><ele>497.0</ele><time>2026-04-06T15:27:05.854Z</time></trkpt><trkpt lat="40.5691973" lon="16.3070671"><ele>496.0</ele><time>2026-04-06T15:27:06.854Z</time></trkpt><trkpt lat="40.5692236" lon="16.3072086"><ele>495.0</ele><time>2026-04-06T15:27:07.855Z</time></trkpt><trkpt lat="40.5692444" lon="16.3073467"><ele>494.0</ele><time>2026-04-06T15:27:08.854Z</time></trkpt><trkpt lat="40.5692617" lon="16.30748"><ele>493.0</ele><time>2026-04-06T15:27:09.854Z</time></trkpt><trkpt lat="40.5692805" lon="16.3076129"><ele>492.0</ele><time>2026-04-06T15:27:10.854Z</time></trkpt><trkpt lat="40.569295" lon="16.307736"><ele>491.0</ele><time>2026-04-06T15:27:11.854Z</time></trkpt><trkpt lat="40.5693084" lon="16.3078474"><ele>491.0</ele><time>2026-04-06T15:27:12.854Z</time></trkpt><trkpt lat="40.5693253" lon="16.3079548"><ele>490.99999999999994</ele><time>2026-04-06T15:27:13.854Z</time></trkpt><trkpt lat="40.5693449" lon="16.3080554"><ele>491.0</ele><time>2026-04-06T15:27:14.854Z</time></trkpt><trkpt lat="40.5693721" lon="16.3081422"><ele>491.0</ele><time>2026-04-06T15:27:15.854Z</time></trkpt><trkpt lat="40.5694066" lon="16.3082162"><ele>490.99999999999994</ele><time>2026-04-06T15:27:16.855Z</time></trkpt><trkpt lat="40.5694505" lon="16.3082827"><ele>491.0</ele><time>2026-04-06T15:27:17.854Z</time></trkpt><trkpt lat="40.569503" lon="16.308348"><ele>491.0</ele><time>2026-04-06T15:27:18.855Z</time></trkpt><trkpt lat="40.5695661" lon="16.3084202"><ele>487.0</ele><time>2026-04-06T15:27:19.854Z</time></trkpt><trkpt lat="40.5696447" lon="16.3085074"><ele>483.0</ele><time>2026-04-06T15:27:20.854Z</time></trkpt><trkpt lat="40.5697226" lon="16.3085923"><ele>479.0</ele><time>2026-04-06T15:27:21.854Z</time></trkpt><trkpt lat="40.5697953" lon="16.3086803"><ele>475.0</ele><time>2026-04-06T15:27:22.854Z</time></trkpt><trkpt lat="40.5698662" lon="16.3087651"><ele>471.0</ele><time>2026-04-06T15:27:23.854Z</time></trkpt><trkpt lat="40.5699353" lon="16.3088445"><ele>471.8333333333333</ele><time>2026-04-06T15:27:24.854Z</time></trkpt><trkpt lat="40.5700014" lon="16.3089172"><ele>472.66666666666663</ele><time>2026-04-06T15:27:25.854Z</time></trkpt><trkpt lat="40.5700653" lon="16.3089844"><ele>473.5</ele><time>2026-04-06T15:27:26.854Z</time></trkpt><trkpt lat="40.5701298" lon="16.3090506"><ele>474.3333333333333</ele><time>2026-04-06T15:27:27.855Z</time></trkpt><trkpt lat="40.5701962" lon="16.3091156"><ele>475.16666666666663</ele><time>2026-04-06T15:27:28.854Z</time></trkpt><trkpt lat="40.5702655" lon="16.3091842"><ele>476.0</ele><time>2026-04-06T15:27:29.855Z</time></trkpt><trkpt lat="40.5703338" lon="16.3092619"><ele>473.8333333333333</ele><time>2026-04-06T15:27:30.854Z</time></trkpt><trkpt lat="40.5703968" lon="16.3093382"><ele>471.66666666666663</ele><time>2026-04-06T15:27:31.854Z</time></trkpt><trkpt lat="40.5704612" lon="16.3094055"><ele>469.5</ele><time>2026-04-06T15:27:32.854Z</time></trkpt><trkpt lat="40.5705255" lon="16.309462"><ele>467.33333333333337</ele><time>2026-04-06T15:27:33.854Z</time></trkpt><trkpt lat="40.5705975" lon="16.309505"><ele>465.1666666666667</ele><time>2026-04-06T15:27:34.854Z</time></trkpt><trkpt lat="40.5706701" lon="16.3095364"><ele>463.0</ele><time>2026-04-06T15:27:35.854Z</time></trkpt><trkpt lat="40.5707464" lon="16.3095528"><ele>463.00000000000006</ele><time>2026-04-06T15:27:36.854Z</time></trkpt><trkpt lat="40.5708323" lon="16.309573"><ele>463.0</ele><time>2026-04-06T15:27:37.854Z</time></trkpt><trkpt lat="40.5709207" lon="16.3095871"><ele>463.0</ele><time>2026-04-06T15:27:38.854Z</time></trkpt><trkpt lat="40.5710118" lon="16.3095828"><ele>463.0</ele><time>2026-04-06T15:27:39.855Z</time></trkpt><trkpt lat="40.5711031" lon="16.309572"><ele>463.00000000000006</ele><time>2026-04-06T15:27:40.854Z</time></trkpt><trkpt lat="40.5711861" lon="16.3095644"><ele>463.0</ele><time>2026-04-06T15:27:41.854Z</time></trkpt><trkpt lat="40.5712654" lon="16.3095648"><ele>461.33333333333337</ele><time>2026-04-06T15:27:42.854Z</time></trkpt><trkpt lat="40.5713387" lon="16.3095748"><ele>459.6666666666667</ele><time>2026-04-06T15:27:43.854Z</time></trkpt><trkpt lat="40.5714139" lon="16.3095907"><ele>458.0</ele><time>2026-04-06T15:27:44.854Z</time></trkpt><trkpt lat="40.5714888" lon="16.3096095"><ele>456.33333333333337</ele><time>2026-04-06T15:27:45.855Z</time></trkpt><trkpt lat="40.5715623" lon="16.3096286"><ele>454.6666666666667</ele><time>2026-04-06T15:27:46.854Z</time></trkpt><trkpt lat="40.5716377" lon="16.3096452"><ele>453.0</ele><time>2026-04-06T15:27:47.854Z</time></trkpt><trkpt lat="40.5717137" lon="16.3096662"><ele>452.99999999999994</ele><time>2026-04-06T15:27:48.854Z</time></trkpt><trkpt lat="40.5717889" lon="16.3096908"><ele>453.0</ele><time>2026-04-06T15:27:49.854Z</time></trkpt><trkpt lat="40.5718615" lon="16.3097187"><ele>452.99999999999994</ele><time>2026-04-06T15:27:50.854Z</time></trkpt><trkpt lat="40.5719307" lon="16.3097472"><ele>452.99999999999994</ele><time>2026-04-06T15:27:51.855Z</time></trkpt><trkpt lat="40.571997" lon="16.3097747"><ele>453.0</ele><time>2026-04-06T15:27:52.854Z</time></trkpt><trkpt lat="40.5720575" lon="16.3098118"><ele>452.99999999999994</ele><time>2026-04-06T15:27:53.854Z</time></trkpt><trkpt lat="40.5721116" lon="16.3098625"><ele>452.99999999999994</ele><time>2026-04-06T15:27:54.855Z</time></trkpt><trkpt lat="40.5721493" lon="16.309931"><ele>451.8333333333333</ele><time>2026-04-06T15:27:55.854Z</time></trkpt><trkpt lat="40.5721732" lon="16.3100147"><ele>450.66666666666663</ele><time>2026-04-06T15:27:56.855Z</time></trkpt><trkpt lat="40.5721869" lon="16.3101164"><ele>449.5</ele><time>2026-04-06T15:27:57.854Z</time></trkpt><trkpt lat="40.5722015" lon="16.3102246"><ele>448.3333333333333</ele><time>2026-04-06T15:27:58.854Z</time></trkpt><trkpt lat="40.5722176" lon="16.3103336"><ele>447.16666666666663</ele><time>2026-04-06T15:27:59.854Z</time></trkpt><trkpt lat="40.5722405" lon="16.3104431"><ele>446.0</ele><time>2026-04-06T15:28:00.855Z</time></trkpt><trkpt lat="40.572265" lon="16.3105532"><ele>445.99999999999994</ele><time>2026-04-06T15:28:01.854Z</time></trkpt><trkpt lat="40.5722882" lon="16.3106585"><ele>446.0</ele><time>2026-04-06T15:28:02.855Z</time></trkpt><trkpt lat="40.5722989" lon="16.3107608"><ele>446.0</ele><time>2026-04-06T15:28:03.854Z</time></trkpt><trkpt lat="40.5722927" lon="16.3108583"><ele>446.0</ele><time>2026-04-06T15:28:04.854Z</time></trkpt><trkpt lat="40.5722673" lon="16.3109512"><ele>445.99999999999994</ele><time>2026-04-06T15:28:05.854Z</time></trkpt><trkpt lat="40.5722269" lon="16.3110372"><ele>446.0</ele><time>2026-04-06T15:28:06.854Z</time></trkpt><trkpt lat="40.5721887" lon="16.3111188"><ele>445.99999999999994</ele><time>2026-04-06T15:28:07.854Z</time></trkpt><trkpt lat="40.5721614" lon="16.3112033"><ele>446.0</ele><time>2026-04-06T15:28:08.854Z</time></trkpt><trkpt lat="40.5721494" lon="16.3112876"><ele>446.0</ele><time>2026-04-06T15:28:09.855Z</time></trkpt><trkpt lat="40.5721981" lon="16.3114314"><ele>446.0</ele><time>2026-04-06T15:28:11.854Z</time></trkpt><trkpt lat="40.572249" lon="16.3114964"><ele>445.99999999999994</ele><time>2026-04-06T15:28:12.854Z</time></trkpt><trkpt lat="40.572309" lon="16.3115576"><ele>446.0</ele><time>2026-04-06T15:28:13.854Z</time></trkpt><trkpt lat="40.5723766" lon="16.3116128"><ele>445.57142857142856</ele><time>2026-04-06T15:28:14.854Z</time></trkpt><trkpt lat="40.5724477" lon="16.3116568"><ele>445.1428571428571</ele><time>2026-04-06T15:28:15.854Z</time></trkpt><trkpt lat="40.5725142" lon="16.3116893"><ele>444.7142857142857</ele><time>2026-04-06T15:28:16.854Z</time></trkpt><trkpt lat="40.5725827" lon="16.3117169"><ele>444.2857142857143</ele><time>2026-04-06T15:28:17.854Z</time></trkpt><trkpt lat="40.5726544" lon="16.3117427"><ele>443.8571428571429</ele><time>2026-04-06T15:28:18.854Z</time></trkpt><trkpt lat="40.5727295" lon="16.3117582"><ele>443.42857142857144</ele><time>2026-04-06T15:28:19.854Z</time></trkpt><trkpt lat="40.5728052" lon="16.3117632"><ele>443.0</ele><time>2026-04-06T15:28:20.854Z</time></trkpt><trkpt lat="40.5728805" lon="16.3117647"><ele>442.99999999999994</ele><time>2026-04-06T15:28:21.855Z</time></trkpt><trkpt lat="40.5729565" lon="16.3117642"><ele>443.0</ele><time>2026-04-06T15:28:22.854Z</time></trkpt><trkpt lat="40.5730343" lon="16.3117596"><ele>443.0</ele><time>2026-04-06T15:28:23.854Z</time></trkpt><trkpt lat="40.5731127" lon="16.3117498"><ele>443.0</ele><time>2026-04-06T15:28:24.854Z</time></trkpt><trkpt lat="40.5731942" lon="16.3117402"><ele>442.99999999999994</ele><time>2026-04-06T15:28:25.854Z</time></trkpt><trkpt lat="40.5732828" lon="16.3117303"><ele>443.0</ele><time>2026-04-06T15:28:26.854Z</time></trkpt><trkpt lat="40.5733771" lon="16.3117238"><ele>443.0</ele><time>2026-04-06T15:28:27.854Z</time></trkpt><trkpt lat="40.5734753" lon="16.3117134"><ele>442.99999999999994</ele><time>2026-04-06T15:28:28.855Z</time></trkpt><trkpt lat="40.5735771" lon="16.3116984"><ele>442.99999999999994</ele><time>2026-04-06T15:28:29.854Z</time></trkpt><trkpt lat="40.5736784" lon="16.311679"><ele>443.0</ele><time>2026-04-06T15:28:30.854Z</time></trkpt><trkpt lat="40.5737814" lon="16.3116626"><ele>443.0</ele><time>2026-04-06T15:28:31.854Z</time></trkpt><trkpt lat="40.5738755" lon="16.3116463"><ele>440.0</ele><time>2026-04-06T15:28:32.855Z</time></trkpt><trkpt lat="40.573963" lon="16.3116329"><ele>436.99999999999994</ele><time>2026-04-06T15:28:33.854Z</time></trkpt><trkpt lat="40.5740438" lon="16.3116246"><ele>433.99999999999994</ele><time>2026-04-06T15:28:34.854Z</time></trkpt><trkpt lat="40.5741585" lon="16.3116558"><ele>431.0</ele><time>2026-04-06T15:28:36.854Z</time></trkpt><trkpt lat="40.5742437" lon="16.3117606"><ele>428.0</ele><time>2026-04-06T15:28:38.854Z</time></trkpt><trkpt lat="40.5742846" lon="16.3118435"><ele>427.99999999999994</ele><time>2026-04-06T15:28:39.855Z</time></trkpt><trkpt lat="40.5743305" lon="16.3119373"><ele>428.0</ele><time>2026-04-06T15:28:40.854Z</time></trkpt><trkpt lat="40.5743771" lon="16.3120281"><ele>428.0</ele><time>2026-04-06T15:28:41.854Z</time></trkpt><trkpt lat="40.5744266" lon="16.3121178"><ele>428.0</ele><time>2026-04-06T15:28:42.855Z</time></trkpt><trkpt lat="40.5744819" lon="16.3122004"><ele>427.99999999999994</ele><time>2026-04-06T15:28:43.854Z</time></trkpt><trkpt lat="40.5745392" lon="16.3122816"><ele>428.0</ele><time>2026-04-06T15:28:44.854Z</time></trkpt><trkpt lat="40.5746007" lon="16.3123572"><ele>426.66666666666663</ele><time>2026-04-06T15:28:45.855Z</time></trkpt><trkpt lat="40.5746665" lon="16.3124288"><ele>425.3333333333333</ele><time>2026-04-06T15:28:46.854Z</time></trkpt><trkpt lat="40.5747334" lon="16.3125051"><ele>424.0</ele><time>2026-04-06T15:28:47.854Z</time></trkpt><trkpt lat="40.5747965" lon="16.3125795"><ele>422.66666666666663</ele><time>2026-04-06T15:28:48.854Z</time></trkpt><trkpt lat="40.5748557" lon="16.3126559"><ele>421.3333333333333</ele><time>2026-04-06T15:28:49.855Z</time></trkpt><trkpt lat="40.5749114" lon="16.3127313"><ele>420.0</ele><time>2026-04-06T15:28:50.854Z</time></trkpt><trkpt lat="40.5749684" lon="16.3128033"><ele>420.0</ele><time>2026-04-06T15:28:51.854Z</time></trkpt><trkpt lat="40.575021" lon="16.3128638"><ele>420.0</ele><time>2026-04-06T15:28:52.854Z</time></trkpt><trkpt lat="40.5751137" lon="16.3129504"><ele>420.0</ele><time>2026-04-06T15:28:54.854Z</time></trkpt><trkpt lat="40.5752048" lon="16.3129787"><ele>420.0</ele><time>2026-04-06T15:28:56.854Z</time></trkpt><trkpt lat="40.5753071" lon="16.3129984"><ele>420.0</ele><time>2026-04-06T15:28:58.854Z</time></trkpt><trkpt lat="40.5753663" lon="16.3130475"><ele>419.8333333333333</ele><time>2026-04-06T15:29:00.854Z</time></trkpt><trkpt lat="40.5753557" lon="16.3131381"><ele>419.66666666666663</ele><time>2026-04-06T15:29:02.854Z</time></trkpt><trkpt lat="40.5752765" lon="16.3132441"><ele>419.5</ele><time>2026-04-06T15:29:04.854Z</time></trkpt><trkpt lat="40.5752174" lon="16.3132997"><ele>419.3333333333333</ele><time>2026-04-06T15:29:05.855Z</time></trkpt><trkpt lat="40.5751584" lon="16.313355"><ele>419.16666666666663</ele><time>2026-04-06T15:29:06.854Z</time></trkpt><trkpt lat="40.5751045" lon="16.3134115"><ele>419.0</ele><time>2026-04-06T15:29:07.854Z</time></trkpt><trkpt lat="40.5750147" lon="16.3135203"><ele>418.99999999999994</ele><time>2026-04-06T15:29:09.855Z</time></trkpt><trkpt lat="40.574972" lon="16.3135868"><ele>419.0</ele><time>2026-04-06T15:29:10.855Z</time></trkpt><trkpt lat="40.5749305" lon="16.3136588"><ele>419.0</ele><time>2026-04-06T15:29:11.854Z</time></trkpt><trkpt lat="40.5748875" lon="16.3137365"><ele>419.0</ele><time>2026-04-06T15:29:12.854Z</time></trkpt><trkpt lat="40.5748405" lon="16.3138118"><ele>418.99999999999994</ele><time>2026-04-06T15:29:13.854Z</time></trkpt><trkpt lat="40.5747962" lon="16.3138824"><ele>419.0</ele><time>2026-04-06T15:29:14.854Z</time></trkpt><trkpt lat="40.5747126" lon="16.3139877"><ele>419.79999999999995</ele><time>2026-04-06T15:29:16.855Z</time></trkpt><trkpt lat="40.5746443" lon="16.3140664"><ele>420.59999999999997</ele><time>2026-04-06T15:29:18.854Z</time></trkpt><trkpt lat="40.5745891" lon="16.3141549"><ele>421.4</ele><time>2026-04-06T15:29:20.854Z</time></trkpt><trkpt lat="40.574535" lon="16.3142857"><ele>422.2</ele><time>2026-04-06T15:29:22.854Z</time></trkpt><trkpt lat="40.5744992" lon="16.3144508"><ele>423.0</ele><time>2026-04-06T15:29:24.855Z</time></trkpt><trkpt lat="40.5744754" lon="16.3145536"><ele>423.0</ele><time>2026-04-06T15:29:25.854Z</time></trkpt><trkpt lat="40.5744522" lon="16.3146539"><ele>423.0</ele><time>2026-04-06T15:29:26.854Z</time></trkpt><trkpt lat="40.5744279" lon="16.3147574"><ele>423.0</ele><time>2026-04-06T15:29:27.854Z</time></trkpt><trkpt lat="40.5743998" lon="16.3148589"><ele>423.0</ele><time>2026-04-06T15:29:28.854Z</time></trkpt><trkpt lat="40.5743662" lon="16.3149619"><ele>423.0</ele><time>2026-04-06T15:29:29.854Z</time></trkpt><trkpt lat="40.5743349" lon="16.3150604"><ele>423.0</ele><time>2026-04-06T15:29:30.854Z</time></trkpt><trkpt lat="40.5743017" lon="16.3151562"><ele>422.5</ele><time>2026-04-06T15:29:31.855Z</time></trkpt><trkpt lat="40.5742672" lon="16.3152512"><ele>422.0</ele><time>2026-04-06T15:29:32.854Z</time></trkpt><trkpt lat="40.5742299" lon="16.3153442"><ele>421.5</ele><time>2026-04-06T15:29:33.854Z</time></trkpt><trkpt lat="40.5741943" lon="16.3154233"><ele>421.0</ele><time>2026-04-06T15:29:34.854Z</time></trkpt><trkpt lat="40.5741394" lon="16.3155309"><ele>420.5</ele><time>2026-04-06T15:29:36.855Z</time></trkpt><trkpt lat="40.5741282" lon="16.3156303"><ele>420.0</ele><time>2026-04-06T15:29:38.854Z</time></trkpt><trkpt lat="40.5741312" lon="16.3157677"><ele>420.0</ele><time>2026-04-06T15:29:40.854Z</time></trkpt><trkpt lat="40.5741365" lon="16.3158503"><ele>420.0</ele><time>2026-04-06T15:29:41.854Z</time></trkpt><trkpt lat="40.5741425" lon="16.3159404"><ele>420.0</ele><time>2026-04-06T15:29:42.855Z</time></trkpt><trkpt lat="40.5741487" lon="16.3160348"><ele>420.0</ele><time>2026-04-06T15:29:43.854Z</time></trkpt><trkpt lat="40.5741538" lon="16.3161362"><ele>420.0</ele><time>2026-04-06T15:29:44.854Z</time></trkpt><trkpt lat="40.5741596" lon="16.3162428"><ele>420.0</ele><time>2026-04-06T15:29:45.854Z</time></trkpt><trkpt lat="40.5741664" lon="16.3163486"><ele>420.0</ele><time>2026-04-06T15:29:46.855Z</time></trkpt><trkpt lat="40.574175" lon="16.316444"><ele>420.3333333333333</ele><time>2026-04-06T15:29:47.854Z</time></trkpt><trkpt lat="40.5741974" lon="16.316583"><ele>420.66666666666663</ele><time>2026-04-06T15:29:49.854Z</time></trkpt><trkpt lat="40.5742265" lon="16.3166946"><ele>421.0</ele><time>2026-04-06T15:29:51.855Z</time></trkpt><trkpt lat="40.5742418" lon="16.3168372"><ele>421.3333333333333</ele><time>2026-04-06T15:29:53.854Z</time></trkpt><trkpt lat="40.5742476" lon="16.3169232"><ele>421.66666666666663</ele><time>2026-04-06T15:29:54.854Z</time></trkpt><trkpt lat="40.5742512" lon="16.3170111"><ele>422.0</ele><time>2026-04-06T15:29:55.854Z</time></trkpt><trkpt lat="40.574253" lon="16.3171003"><ele>421.99999999999994</ele><time>2026-04-06T15:29:56.854Z</time></trkpt><trkpt lat="40.5742594" lon="16.3171907"><ele>422.0</ele><time>2026-04-06T15:29:57.854Z</time></trkpt><trkpt lat="40.57427" lon="16.3172818"><ele>422.0</ele><time>2026-04-06T15:29:58.854Z</time></trkpt><trkpt lat="40.5742831" lon="16.3173663"><ele>422.0</ele><time>2026-04-06T15:29:59.854Z</time></trkpt><trkpt lat="40.5743389" lon="16.3174757"><ele>421.99999999999994</ele><time>2026-04-06T15:30:01.854Z</time></trkpt><trkpt lat="40.5744517" lon="16.3175323"><ele>422.0</ele><time>2026-04-06T15:30:03.855Z</time></trkpt><trkpt lat="40.5745196" lon="16.3175643"><ele>421.57142857142856</ele><time>2026-04-06T15:30:04.854Z</time></trkpt><trkpt lat="40.5745891" lon="16.3176089"><ele>421.14285714285717</ele><time>2026-04-06T15:30:05.854Z</time></trkpt><trkpt lat="40.5746463" lon="16.3176614"><ele>420.71428571428567</ele><time>2026-04-06T15:30:06.854Z</time></trkpt><trkpt lat="40.5746869" lon="16.3177289"><ele>420.2857142857143</ele><time>2026-04-06T15:30:07.854Z</time></trkpt><trkpt lat="40.574712" lon="16.3178143"><ele>419.85714285714283</ele><time>2026-04-06T15:30:08.854Z</time></trkpt><trkpt lat="40.5747254" lon="16.3179118"><ele>419.4285714285714</ele><time>2026-04-06T15:30:09.854Z</time></trkpt><trkpt lat="40.5747277" lon="16.3180177"><ele>419.0</ele><time>2026-04-06T15:30:10.854Z</time></trkpt><trkpt lat="40.5747236" lon="16.3181361"><ele>420.99999999999994</ele><time>2026-04-06T15:30:11.854Z</time></trkpt><trkpt lat="40.5747189" lon="16.3182611"><ele>423.0</ele><time>2026-04-06T15:30:12.854Z</time></trkpt><trkpt lat="40.574719" lon="16.3183848"><ele>425.0</ele><time>2026-04-06T15:30:13.854Z</time></trkpt><trkpt lat="40.574726" lon="16.3185008"><ele>427.0</ele><time>2026-04-06T15:30:14.854Z</time></trkpt><trkpt lat="40.5747463" lon="16.3186081"><ele>428.99999999999994</ele><time>2026-04-06T15:30:15.854Z</time></trkpt><trkpt lat="40.5747777" lon="16.3187023"><ele>431.0</ele><time>2026-04-06T15:30:16.854Z</time></trkpt><trkpt lat="40.5748212" lon="16.3187898"><ele>430.99999999999994</ele><time>2026-04-06T15:30:17.854Z</time></trkpt><trkpt lat="40.5748749" lon="16.3188619"><ele>431.0</ele><time>2026-04-06T15:30:18.854Z</time></trkpt><trkpt lat="40.5749358" lon="16.3189298"><ele>431.0</ele><time>2026-04-06T15:30:19.854Z</time></trkpt><trkpt lat="40.5750003" lon="16.3189911"><ele>431.0</ele><time>2026-04-06T15:30:20.855Z</time></trkpt><trkpt lat="40.575063" lon="16.3190393"><ele>430.99999999999994</ele><time>2026-04-06T15:30:21.855Z</time></trkpt><trkpt lat="40.5751285" lon="16.3190807"><ele>431.0</ele><time>2026-04-06T15:30:22.855Z</time></trkpt><trkpt lat="40.5751918" lon="16.3191252"><ele>431.8333333333333</ele><time>2026-04-06T15:30:23.854Z</time></trkpt><trkpt lat="40.5752664" lon="16.3191748"><ele>432.66666666666663</ele><time>2026-04-06T15:30:24.854Z</time></trkpt><trkpt lat="40.5753444" lon="16.3192161"><ele>433.5</ele><time>2026-04-06T15:30:25.854Z</time></trkpt><trkpt lat="40.5754243" lon="16.3192534"><ele>434.33333333333337</ele><time>2026-04-06T15:30:26.854Z</time></trkpt><trkpt lat="40.5755034" lon="16.3192919"><ele>435.1666666666667</ele><time>2026-04-06T15:30:27.854Z</time></trkpt><trkpt lat="40.5755756" lon="16.3193316"><ele>436.0</ele><time>2026-04-06T15:30:28.854Z</time></trkpt><trkpt lat="40.5756381" lon="16.3193643"><ele>433.50000000000006</ele><time>2026-04-06T15:30:29.855Z</time></trkpt><trkpt lat="40.5757253" lon="16.3194029"><ele>431.0</ele><time>2026-04-06T15:30:31.854Z</time></trkpt><trkpt lat="40.5758073" lon="16.3194507"><ele>428.5</ele><time>2026-04-06T15:30:34.854Z</time></trkpt><trkpt lat="40.5758779" lon="16.3195004"><ele>426.0</ele><time>2026-04-06T15:30:36.854Z</time></trkpt><trkpt lat="40.5759104" lon="16.3196265"><ele>423.50000000000006</ele><time>2026-04-06T15:30:38.854Z</time></trkpt><trkpt lat="40.5759016" lon="16.3197283"><ele>421.0</ele><time>2026-04-06T15:30:39.855Z</time></trkpt><trkpt lat="40.5758885" lon="16.3198438"><ele>421.0</ele><time>2026-04-06T15:30:40.854Z</time></trkpt><trkpt lat="40.5758708" lon="16.3199648"><ele>421.0</ele><time>2026-04-06T15:30:41.854Z</time></trkpt><trkpt lat="40.5758464" lon="16.3200872"><ele>421.0</ele><time>2026-04-06T15:30:42.854Z</time></trkpt><trkpt lat="40.5758225" lon="16.3202049"><ele>421.0</ele><time>2026-04-06T15:30:43.854Z</time></trkpt><trkpt lat="40.5757939" lon="16.3203154"><ele>421.0</ele><time>2026-04-06T15:30:44.854Z</time></trkpt><trkpt lat="40.5757688" lon="16.3204191"><ele>421.0</ele><time>2026-04-06T15:30:45.854Z</time></trkpt><trkpt lat="40.575753" lon="16.3205237"><ele>421.0</ele><time>2026-04-06T15:30:46.855Z</time></trkpt><trkpt lat="40.5757562" lon="16.3206299"><ele>421.0</ele><time>2026-04-06T15:30:47.854Z</time></trkpt><trkpt lat="40.5757781" lon="16.3207439"><ele>421.0</ele><time>2026-04-06T15:30:48.855Z</time></trkpt><trkpt lat="40.5758235" lon="16.3208627"><ele>421.0</ele><time>2026-04-06T15:30:49.854Z</time></trkpt><trkpt lat="40.5758916" lon="16.3209846"><ele>420.5</ele><time>2026-04-06T15:30:50.855Z</time></trkpt><trkpt lat="40.575968" lon="16.321108"><ele>420.0</ele><time>2026-04-06T15:30:51.854Z</time></trkpt><trkpt lat="40.57604" lon="16.3212224"><ele>419.5</ele><time>2026-04-06T15:30:52.854Z</time></trkpt><trkpt lat="40.5761188" lon="16.3213274"><ele>419.0</ele><time>2026-04-06T15:30:53.855Z</time></trkpt><trkpt lat="40.5761965" lon="16.3214266"><ele>416.4</ele><time>2026-04-06T15:30:54.855Z</time></trkpt><trkpt lat="40.5762758" lon="16.3215175"><ele>413.79999999999995</ele><time>2026-04-06T15:30:55.854Z</time></trkpt><trkpt lat="40.5763621" lon="16.3216002"><ele>411.20000000000005</ele><time>2026-04-06T15:30:56.854Z</time></trkpt><trkpt lat="40.5764566" lon="16.3216698"><ele>408.6</ele><time>2026-04-06T15:30:57.854Z</time></trkpt><trkpt lat="40.5765586" lon="16.3217235"><ele>406.0</ele><time>2026-04-06T15:30:58.854Z</time></trkpt><trkpt lat="40.5766633" lon="16.3217598"><ele>406.0</ele><time>2026-04-06T15:30:59.854Z</time></trkpt><trkpt lat="40.576765" lon="16.3217968"><ele>406.0</ele><time>2026-04-06T15:31:00.854Z</time></trkpt><trkpt lat="40.5768585" lon="16.321853"><ele>406.0</ele><time>2026-04-06T15:31:01.855Z</time></trkpt><trkpt lat="40.5769373" lon="16.3219273"><ele>406.0</ele><time>2026-04-06T15:31:02.854Z</time></trkpt><trkpt lat="40.5769957" lon="16.3220091"><ele>406.0</ele><time>2026-04-06T15:31:03.854Z</time></trkpt><trkpt lat="40.5770325" lon="16.3221031"><ele>405.8</ele><time>2026-04-06T15:31:04.854Z</time></trkpt><trkpt lat="40.5770424" lon="16.3222002"><ele>405.6</ele><time>2026-04-06T15:31:05.854Z</time></trkpt><trkpt lat="40.5770277" lon="16.3222992"><ele>405.4</ele><time>2026-04-06T15:31:06.854Z</time></trkpt><trkpt lat="40.5769679" lon="16.3223963"><ele>405.2</ele><time>2026-04-06T15:31:07.854Z</time></trkpt><trkpt lat="40.5768912" lon="16.3224909"><ele>405.0</ele><time>2026-04-06T15:31:08.855Z</time></trkpt><trkpt lat="40.5768189" lon="16.3225865"><ele>405.0</ele><time>2026-04-06T15:31:09.854Z</time></trkpt><trkpt lat="40.5767547" lon="16.3226946"><ele>405.0</ele><time>2026-04-06T15:31:10.854Z</time></trkpt><trkpt lat="40.576702" lon="16.3228182"><ele>405.0</ele><time>2026-04-06T15:31:11.854Z</time></trkpt><trkpt lat="40.5766619" lon="16.3229559"><ele>405.0</ele><time>2026-04-06T15:31:12.854Z</time></trkpt><trkpt lat="40.5766366" lon="16.3231038"><ele>405.0</ele><time>2026-04-06T15:31:13.854Z</time></trkpt><trkpt lat="40.5766341" lon="16.3232589"><ele>404.75</ele><time>2026-04-06T15:31:14.854Z</time></trkpt><trkpt lat="40.5766543" lon="16.3234125"><ele>404.5</ele><time>2026-04-06T15:31:15.854Z</time></trkpt><trkpt lat="40.5766858" lon="16.3235731"><ele>404.25</ele><time>2026-04-06T15:31:16.855Z</time></trkpt><trkpt lat="40.5767158" lon="16.3237394"><ele>404.0</ele><time>2026-04-06T15:31:17.854Z</time></trkpt><trkpt lat="40.5767438" lon="16.3239082"><ele>404.0</ele><time>2026-04-06T15:31:18.854Z</time></trkpt><trkpt lat="40.5767713" lon="16.3240819"><ele>404.0</ele><time>2026-04-06T15:31:19.854Z</time></trkpt><trkpt lat="40.5768032" lon="16.3242716"><ele>404.0</ele><time>2026-04-06T15:31:20.854Z</time></trkpt><trkpt lat="40.5768349" lon="16.3244576"><ele>404.0</ele><time>2026-04-06T15:31:21.854Z</time></trkpt><trkpt lat="40.5768682" lon="16.3246473"><ele>403.5</ele><time>2026-04-06T15:31:22.854Z</time></trkpt><trkpt lat="40.5768982" lon="16.3248314"><ele>403.0</ele><time>2026-04-06T15:31:23.854Z</time></trkpt><trkpt lat="40.5769316" lon="16.3250049"><ele>402.5</ele><time>2026-04-06T15:31:24.854Z</time></trkpt><trkpt lat="40.5769604" lon="16.3251776"><ele>402.0</ele><time>2026-04-06T15:31:25.854Z</time></trkpt><trkpt lat="40.5769999" lon="16.3253437"><ele>399.25</ele><time>2026-04-06T15:31:26.854Z</time></trkpt><trkpt lat="40.577057" lon="16.3255023"><ele>396.5</ele><time>2026-04-06T15:31:27.854Z</time></trkpt><trkpt lat="40.5771293" lon="16.3256515"><ele>393.75</ele><time>2026-04-06T15:31:28.854Z</time></trkpt><trkpt lat="40.5772096" lon="16.3257939"><ele>391.0</ele><time>2026-04-06T15:31:29.855Z</time></trkpt><trkpt lat="40.5772768" lon="16.3259425"><ele>390.8</ele><time>2026-04-06T15:31:30.854Z</time></trkpt><trkpt lat="40.5773336" lon="16.3260805"><ele>390.6</ele><time>2026-04-06T15:31:31.854Z</time></trkpt><trkpt lat="40.577368" lon="16.326207"><ele>390.4</ele><time>2026-04-06T15:31:32.854Z</time></trkpt><trkpt lat="40.5773943" lon="16.3263274"><ele>390.2</ele><time>2026-04-06T15:31:33.854Z</time></trkpt><trkpt lat="40.5774014" lon="16.3264506"><ele>390.0</ele><time>2026-04-06T15:31:34.855Z</time></trkpt><trkpt lat="40.5773975" lon="16.3265768"><ele>389.4</ele><time>2026-04-06T15:31:35.854Z</time></trkpt><trkpt lat="40.5774042" lon="16.3267078"><ele>388.8</ele><time>2026-04-06T15:31:36.854Z</time></trkpt><trkpt lat="40.5774373" lon="16.3268383"><ele>388.20000000000005</ele><time>2026-04-06T15:31:37.854Z</time></trkpt><trkpt lat="40.5774939" lon="16.3269666"><ele>387.6</ele><time>2026-04-06T15:31:38.855Z</time></trkpt><trkpt lat="40.5775735" lon="16.3270849"><ele>387.0</ele><time>2026-04-06T15:31:39.855Z</time></trkpt><trkpt lat="40.5776563" lon="16.3272007"><ele>386.6</ele><time>2026-04-06T15:31:40.854Z</time></trkpt><trkpt lat="40.5777299" lon="16.3273178"><ele>386.20000000000005</ele><time>2026-04-06T15:31:41.854Z</time></trkpt><trkpt lat="40.5777826" lon="16.3274361"><ele>385.8</ele><time>2026-04-06T15:31:42.854Z</time></trkpt><trkpt lat="40.5778056" lon="16.3275561"><ele>385.4</ele><time>2026-04-06T15:31:43.854Z</time></trkpt><trkpt lat="40.5777979" lon="16.3276791"><ele>385.0</ele><time>2026-04-06T15:31:44.855Z</time></trkpt><trkpt lat="40.5777585" lon="16.3278045"><ele>385.0</ele><time>2026-04-06T15:31:45.854Z</time></trkpt><trkpt lat="40.5777053" lon="16.3279318"><ele>385.0</ele><time>2026-04-06T15:31:46.855Z</time></trkpt><trkpt lat="40.5776431" lon="16.3280634"><ele>385.0</ele><time>2026-04-06T15:31:47.854Z</time></trkpt><trkpt lat="40.5775804" lon="16.3282024"><ele>385.0</ele><time>2026-04-06T15:31:48.854Z</time></trkpt><trkpt lat="40.577519" lon="16.3283461"><ele>384.5</ele><time>2026-04-06T15:31:49.855Z</time></trkpt><trkpt lat="40.5774639" lon="16.3284984"><ele>384.0</ele><time>2026-04-06T15:31:50.854Z</time></trkpt><trkpt lat="40.5774146" lon="16.3286578"><ele>383.5</ele><time>2026-04-06T15:31:51.855Z</time></trkpt><trkpt lat="40.5773717" lon="16.328824"><ele>383.0</ele><time>2026-04-06T15:31:52.855Z</time></trkpt><trkpt lat="40.5773325" lon="16.3290003"><ele>380.25</ele><time>2026-04-06T15:31:53.854Z</time></trkpt><trkpt lat="40.5772954" lon="16.3291781"><ele>377.5</ele><time>2026-04-06T15:31:54.854Z</time></trkpt><trkpt lat="40.5772568" lon="16.3293495"><ele>374.75</ele><time>2026-04-06T15:31:55.854Z</time></trkpt><trkpt lat="40.5772015" lon="16.3295153"><ele>372.0</ele><time>2026-04-06T15:31:56.855Z</time></trkpt><trkpt lat="40.5771354" lon="16.3296686"><ele>370.75</ele><time>2026-04-06T15:31:57.854Z</time></trkpt><trkpt lat="40.5770676" lon="16.3298241"><ele>369.5</ele><time>2026-04-06T15:31:58.854Z</time></trkpt><trkpt lat="40.5770042" lon="16.3299852"><ele>368.25</ele><time>2026-04-06T15:31:59.854Z</time></trkpt><trkpt lat="40.5769411" lon="16.3301441"><ele>367.0</ele><time>2026-04-06T15:32:00.854Z</time></trkpt><trkpt lat="40.576874" lon="16.3303025"><ele>368.25</ele><time>2026-04-06T15:32:01.855Z</time></trkpt><trkpt lat="40.5768031" lon="16.3304596"><ele>369.5</ele><time>2026-04-06T15:32:02.854Z</time></trkpt><trkpt lat="40.5767421" lon="16.3306188"><ele>370.75</ele><time>2026-04-06T15:32:03.855Z</time></trkpt><trkpt lat="40.576703" lon="16.3307826"><ele>372.0</ele><time>2026-04-06T15:32:04.854Z</time></trkpt><trkpt lat="40.5766794" lon="16.3309449"><ele>372.0</ele><time>2026-04-06T15:32:05.854Z</time></trkpt><trkpt lat="40.5766772" lon="16.3311047"><ele>372.0</ele><time>2026-04-06T15:32:06.854Z</time></trkpt><trkpt lat="40.5766905" lon="16.3312561"><ele>372.0</ele><time>2026-04-06T15:32:07.854Z</time></trkpt><trkpt lat="40.5767247" lon="16.3314018"><ele>372.0</ele><time>2026-04-06T15:32:08.855Z</time></trkpt><trkpt lat="40.576767" lon="16.331544"><ele>371.0</ele><time>2026-04-06T15:32:09.855Z</time></trkpt><trkpt lat="40.5768177" lon="16.3316918"><ele>370.0</ele><time>2026-04-06T15:32:10.854Z</time></trkpt><trkpt lat="40.5768646" lon="16.3318466"><ele>369.0</ele><time>2026-04-06T15:32:11.854Z</time></trkpt><trkpt lat="40.5769115" lon="16.3320013"><ele>368.0</ele><time>2026-04-06T15:32:12.854Z</time></trkpt><trkpt lat="40.5769469" lon="16.3321617"><ele>367.5</ele><time>2026-04-06T15:32:13.855Z</time></trkpt><trkpt lat="40.5769774" lon="16.3323207"><ele>367.0</ele><time>2026-04-06T15:32:14.853Z</time></trkpt><trkpt lat="40.5770125" lon="16.332482"><ele>366.5</ele><time>2026-04-06T15:32:15.854Z</time></trkpt><trkpt lat="40.5770375" lon="16.3326483"><ele>366.0</ele><time>2026-04-06T15:32:16.854Z</time></trkpt><trkpt lat="40.5770549" lon="16.3328196"><ele>360.5</ele><time>2026-04-06T15:32:17.853Z</time></trkpt><trkpt lat="40.5770614" lon="16.3329971"><ele>355.0</ele><time>2026-04-06T15:32:18.853Z</time></trkpt><trkpt lat="40.5770596" lon="16.3331764"><ele>349.5</ele><time>2026-04-06T15:32:19.853Z</time></trkpt><trkpt lat="40.5770502" lon="16.3333593"><ele>344.0</ele><time>2026-04-06T15:32:20.853Z</time></trkpt><trkpt lat="40.5770323" lon="16.3335415"><ele>347.0</ele><time>2026-04-06T15:32:21.853Z</time></trkpt><trkpt lat="40.5770059" lon="16.3337197"><ele>350.0</ele><time>2026-04-06T15:32:22.853Z</time></trkpt><trkpt lat="40.5769698" lon="16.3338979"><ele>353.0</ele><time>2026-04-06T15:32:23.854Z</time></trkpt><trkpt lat="40.576926" lon="16.3340711"><ele>356.0</ele><time>2026-04-06T15:32:24.853Z</time></trkpt><trkpt lat="40.5768739" lon="16.3342414"><ele>356.0</ele><time>2026-04-06T15:32:25.853Z</time></trkpt><trkpt lat="40.5768086" lon="16.3344043"><ele>356.0</ele><time>2026-04-06T15:32:26.853Z</time></trkpt><trkpt lat="40.5767383" lon="16.3345521"><ele>356.0</ele><time>2026-04-06T15:32:27.853Z</time></trkpt><trkpt lat="40.5766571" lon="16.3346946"><ele>356.0</ele><time>2026-04-06T15:32:28.853Z</time></trkpt><trkpt lat="40.5765695" lon="16.3348211"><ele>354.0</ele><time>2026-04-06T15:32:29.854Z</time></trkpt><trkpt lat="40.5764745" lon="16.3349352"><ele>352.0</ele><time>2026-04-06T15:32:30.853Z</time></trkpt><trkpt lat="40.5763755" lon="16.3350282"><ele>350.0</ele><time>2026-04-06T15:32:31.854Z</time></trkpt><trkpt lat="40.5762665" lon="16.3351001"><ele>348.0</ele><time>2026-04-06T15:32:32.853Z</time></trkpt><trkpt lat="40.576143" lon="16.3351567"><ele>348.0</ele><time>2026-04-06T15:32:33.853Z</time></trkpt><trkpt lat="40.5760112" lon="16.3352077"><ele>348.0</ele><time>2026-04-06T15:32:34.854Z</time></trkpt><trkpt lat="40.5758807" lon="16.3352701"><ele>348.0</ele><time>2026-04-06T15:32:35.854Z</time></trkpt><trkpt lat="40.5757518" lon="16.3353565"><ele>348.0</ele><time>2026-04-06T15:32:36.854Z</time></trkpt><trkpt lat="40.5756256" lon="16.335455"><ele>348.0</ele><time>2026-04-06T15:32:37.853Z</time></trkpt><trkpt lat="40.5755039" lon="16.3355457"><ele>348.0</ele><time>2026-04-06T15:32:38.853Z</time></trkpt><trkpt lat="40.5753802" lon="16.3356327"><ele>348.0</ele><time>2026-04-06T15:32:39.853Z</time></trkpt><trkpt lat="40.5752585" lon="16.3357117"><ele>348.0</ele><time>2026-04-06T15:32:40.853Z</time></trkpt><trkpt lat="40.575135" lon="16.3357827"><ele>345.79999999999995</ele><time>2026-04-06T15:32:41.853Z</time></trkpt><trkpt lat="40.5750182" lon="16.335832"><ele>343.6</ele><time>2026-04-06T15:32:42.853Z</time></trkpt><trkpt lat="40.57491" lon="16.3358583"><ele>341.4</ele><time>2026-04-06T15:32:43.853Z</time></trkpt><trkpt lat="40.5748108" lon="16.3358716"><ele>339.20000000000005</ele><time>2026-04-06T15:32:44.853Z</time></trkpt><trkpt lat="40.5747187" lon="16.335883"><ele>337.0</ele><time>2026-04-06T15:32:45.853Z</time></trkpt><trkpt lat="40.5746308" lon="16.3358935"><ele>337.0</ele><time>2026-04-06T15:32:46.853Z</time></trkpt><trkpt lat="40.5745502" lon="16.3359139"><ele>337.0</ele><time>2026-04-06T15:32:47.853Z</time></trkpt><trkpt lat="40.5744757" lon="16.335952"><ele>337.0</ele><time>2026-04-06T15:32:48.854Z</time></trkpt><trkpt lat="40.5744151" lon="16.3360019"><ele>337.0</ele><time>2026-04-06T15:32:49.853Z</time></trkpt><trkpt lat="40.5743633" lon="16.3361344"><ele>337.0</ele><time>2026-04-06T15:32:51.854Z</time></trkpt><trkpt lat="40.574391" lon="16.3362531"><ele>337.0</ele><time>2026-04-06T15:32:53.853Z</time></trkpt><trkpt lat="40.5744804" lon="16.3363061"><ele>337.0</ele><time>2026-04-06T15:32:55.853Z</time></trkpt><trkpt lat="40.5746033" lon="16.3362764"><ele>337.0</ele><time>2026-04-06T15:32:57.853Z</time></trkpt><trkpt lat="40.574715" lon="16.3362715"><ele>337.0</ele><time>2026-04-06T15:32:59.853Z</time></trkpt><trkpt lat="40.5748357" lon="16.336328"><ele>337.0</ele><time>2026-04-06T15:33:01.853Z</time></trkpt><trkpt lat="40.5748993" lon="16.3363781"><ele>337.0</ele><time>2026-04-06T15:33:02.853Z</time></trkpt><trkpt lat="40.574967" lon="16.3364524"><ele>334.8</ele><time>2026-04-06T15:33:03.853Z</time></trkpt><trkpt lat="40.5750412" lon="16.3365384"><ele>332.6</ele><time>2026-04-06T15:33:04.854Z</time></trkpt><trkpt lat="40.5751168" lon="16.3366201"><ele>330.40000000000003</ele><time>2026-04-06T15:33:05.853Z</time></trkpt><trkpt lat="40.5751896" lon="16.3367007"><ele>328.20000000000005</ele><time>2026-04-06T15:33:06.853Z</time></trkpt><trkpt lat="40.5752603" lon="16.336777"><ele>326.0</ele><time>2026-04-06T15:33:07.853Z</time></trkpt><trkpt lat="40.5753308" lon="16.3368379"><ele>325.0</ele><time>2026-04-06T15:33:08.853Z</time></trkpt><trkpt lat="40.5754028" lon="16.3368877"><ele>324.0</ele><time>2026-04-06T15:33:09.853Z</time></trkpt><trkpt lat="40.5754761" lon="16.336928"><ele>323.0</ele><time>2026-04-06T15:33:10.853Z</time></trkpt><trkpt lat="40.5755527" lon="16.3369667"><ele>322.0</ele><time>2026-04-06T15:33:11.854Z</time></trkpt><trkpt lat="40.5756344" lon="16.3370091"><ele>321.0</ele><time>2026-04-06T15:33:12.853Z</time></trkpt><trkpt lat="40.5757208" lon="16.3370473"><ele>320.0</ele><time>2026-04-06T15:33:13.853Z</time></trkpt><trkpt lat="40.5758095" lon="16.337091"><ele>320.0</ele><time>2026-04-06T15:33:14.853Z</time></trkpt><trkpt lat="40.5758976" lon="16.337154"><ele>320.0</ele><time>2026-04-06T15:33:15.853Z</time></trkpt><trkpt lat="40.5759747" lon="16.3372403"><ele>320.0</ele><time>2026-04-06T15:33:16.854Z</time></trkpt><trkpt lat="40.5760425" lon="16.3373449"><ele>320.0</ele><time>2026-04-06T15:33:17.853Z</time></trkpt><trkpt lat="40.5761068" lon="16.3374675"><ele>320.0</ele><time>2026-04-06T15:33:18.853Z</time></trkpt><trkpt lat="40.5761711" lon="16.337598"><ele>314.75</ele><time>2026-04-06T15:33:19.853Z</time></trkpt><trkpt lat="40.5762397" lon="16.3377344"><ele>309.5</ele><time>2026-04-06T15:33:20.853Z</time></trkpt><trkpt lat="40.5763065" lon="16.3378724"><ele>304.25</ele><time>2026-04-06T15:33:21.853Z</time></trkpt><trkpt lat="40.5763606" lon="16.3380035"><ele>299.0</ele><time>2026-04-06T15:33:22.854Z</time></trkpt><trkpt lat="40.5764008" lon="16.3381242"><ele>296.0</ele><time>2026-04-06T15:33:23.853Z</time></trkpt><trkpt lat="40.5764365" lon="16.3382403"><ele>293.0</ele><time>2026-04-06T15:33:24.853Z</time></trkpt><trkpt lat="40.5764747" lon="16.3383515"><ele>290.0</ele><time>2026-04-06T15:33:25.853Z</time></trkpt><trkpt lat="40.5765245" lon="16.338458"><ele>287.0</ele><time>2026-04-06T15:33:26.854Z</time></trkpt><trkpt lat="40.5765921" lon="16.3385569"><ele>284.0</ele><time>2026-04-06T15:33:27.854Z</time></trkpt><trkpt lat="40.5766812" lon="16.3386377"><ele>284.0</ele><time>2026-04-06T15:33:28.853Z</time></trkpt><trkpt lat="40.5767822" lon="16.3387027"><ele>284.0</ele><time>2026-04-06T15:33:29.853Z</time></trkpt><trkpt lat="40.5768866" lon="16.3387566"><ele>284.0</ele><time>2026-04-06T15:33:30.853Z</time></trkpt><trkpt lat="40.5769918" lon="16.3388007"><ele>284.0</ele><time>2026-04-06T15:33:31.853Z</time></trkpt><trkpt lat="40.5771001" lon="16.3388328"><ele>284.0</ele><time>2026-04-06T15:33:32.853Z</time></trkpt><trkpt lat="40.5772102" lon="16.3388604"><ele>283.0</ele><time>2026-04-06T15:33:33.853Z</time></trkpt><trkpt lat="40.5773204" lon="16.3388824"><ele>282.0</ele><time>2026-04-06T15:33:34.853Z</time></trkpt><trkpt lat="40.5774308" lon="16.3389058"><ele>281.0</ele><time>2026-04-06T15:33:35.853Z</time></trkpt><trkpt lat="40.5775425" lon="16.3389303"><ele>280.0</ele><time>2026-04-06T15:33:36.854Z</time></trkpt><trkpt lat="40.577652" lon="16.3389546"><ele>279.0</ele><time>2026-04-06T15:33:37.853Z</time></trkpt><trkpt lat="40.5777551" lon="16.3389739"><ele>274.5</ele><time>2026-04-06T15:33:38.853Z</time></trkpt><trkpt lat="40.5778544" lon="16.338991"><ele>270.0</ele><time>2026-04-06T15:33:39.853Z</time></trkpt><trkpt lat="40.5779487" lon="16.339014"><ele>265.5</ele><time>2026-04-06T15:33:40.853Z</time></trkpt><trkpt lat="40.5780292" lon="16.3390486"><ele>261.0</ele><time>2026-04-06T15:33:41.853Z</time></trkpt><trkpt lat="40.5780881" lon="16.3391011"><ele>256.5</ele><time>2026-04-06T15:33:42.853Z</time></trkpt><trkpt lat="40.5781256" lon="16.3391798"><ele>252.0</ele><time>2026-04-06T15:33:43.853Z</time></trkpt><trkpt lat="40.5781419" lon="16.3392796"><ele>252.0</ele><time>2026-04-06T15:33:44.853Z</time></trkpt><trkpt lat="40.5781414" lon="16.3393926"><ele>252.0</ele><time>2026-04-06T15:33:45.853Z</time></trkpt><trkpt lat="40.578127" lon="16.3395203"><ele>252.0</ele><time>2026-04-06T15:33:46.853Z</time></trkpt><trkpt lat="40.5781077" lon="16.33965"><ele>252.0</ele><time>2026-04-06T15:33:47.853Z</time></trkpt><trkpt lat="40.5780911" lon="16.3397811"><ele>252.0</ele><time>2026-04-06T15:33:48.853Z</time></trkpt><trkpt lat="40.5780802" lon="16.3399095"><ele>251.83333333333334</ele><time>2026-04-06T15:33:49.853Z</time></trkpt><trkpt lat="40.5780598" lon="16.340028"><ele>251.66666666666669</ele><time>2026-04-06T15:33:50.853Z</time></trkpt><trkpt lat="40.5780356" lon="16.3401237"><ele>251.5</ele><time>2026-04-06T15:33:51.853Z</time></trkpt><trkpt lat="40.5780005" lon="16.3401956"><ele>251.33333333333334</ele><time>2026-04-06T15:33:52.853Z</time></trkpt><trkpt lat="40.5779459" lon="16.3402474"><ele>251.16666666666669</ele><time>2026-04-06T15:33:53.853Z</time></trkpt><trkpt lat="40.5778737" lon="16.3402841"><ele>251.0</ele><time>2026-04-06T15:33:54.853Z</time></trkpt><trkpt lat="40.5777917" lon="16.340319"><ele>251.00000000000003</ele><time>2026-04-06T15:33:55.853Z</time></trkpt><trkpt lat="40.577709" lon="16.3403648"><ele>251.0</ele><time>2026-04-06T15:33:56.853Z</time></trkpt><trkpt lat="40.577625" lon="16.34041"><ele>251.0</ele><time>2026-04-06T15:33:57.853Z</time></trkpt><trkpt lat="40.5775461" lon="16.3404624"><ele>251.0</ele><time>2026-04-06T15:33:58.853Z</time></trkpt><trkpt lat="40.5774757" lon="16.3405174"><ele>251.00000000000003</ele><time>2026-04-06T15:33:59.853Z</time></trkpt><trkpt lat="40.5774203" lon="16.3405842"><ele>251.0</ele><time>2026-04-06T15:34:00.854Z</time></trkpt><trkpt lat="40.5773885" lon="16.3406659"><ele>247.33333333333334</ele><time>2026-04-06T15:34:01.853Z</time></trkpt><trkpt lat="40.5773953" lon="16.3407601"><ele>243.66666666666669</ele><time>2026-04-06T15:34:02.854Z</time></trkpt><trkpt lat="40.5774191" lon="16.3408557"><ele>240.0</ele><time>2026-04-06T15:34:03.854Z</time></trkpt><trkpt lat="40.5774587" lon="16.3409518"><ele>236.33333333333331</ele><time>2026-04-06T15:34:04.853Z</time></trkpt><trkpt lat="40.5775057" lon="16.3410465"><ele>232.66666666666666</ele><time>2026-04-06T15:34:05.853Z</time></trkpt><trkpt lat="40.5775543" lon="16.3411448"><ele>229.0</ele><time>2026-04-06T15:34:06.853Z</time></trkpt><trkpt lat="40.5776007" lon="16.3412482"><ele>229.0</ele><time>2026-04-06T15:34:07.853Z</time></trkpt><trkpt lat="40.5776476" lon="16.3413634"><ele>228.99999999999997</ele><time>2026-04-06T15:34:08.853Z</time></trkpt><trkpt lat="40.577699" lon="16.3414799"><ele>228.99999999999997</ele><time>2026-04-06T15:34:09.853Z</time></trkpt><trkpt lat="40.5777583" lon="16.3415918"><ele>229.0</ele><time>2026-04-06T15:34:10.854Z</time></trkpt><trkpt lat="40.5778265" lon="16.3416987"><ele>229.0</ele><time>2026-04-06T15:34:11.853Z</time></trkpt><trkpt lat="40.5779015" lon="16.3418023"><ele>224.0</ele><time>2026-04-06T15:34:12.853Z</time></trkpt><trkpt lat="40.5779859" lon="16.3419024"><ele>219.0</ele><time>2026-04-06T15:34:13.854Z</time></trkpt><trkpt lat="40.5780777" lon="16.3419961"><ele>214.0</ele><time>2026-04-06T15:34:14.853Z</time></trkpt><trkpt lat="40.578172" lon="16.3420912"><ele>209.0</ele><time>2026-04-06T15:34:15.853Z</time></trkpt><trkpt lat="40.5782676" lon="16.3421782"><ele>206.25</ele><time>2026-04-06T15:34:16.853Z</time></trkpt><trkpt lat="40.5783589" lon="16.3422752"><ele>203.5</ele><time>2026-04-06T15:34:17.853Z</time></trkpt><trkpt lat="40.5784513" lon="16.3423795"><ele>200.75</ele><time>2026-04-06T15:34:18.853Z</time></trkpt><trkpt lat="40.5785463" lon="16.3424686"><ele>198.0</ele><time>2026-04-06T15:34:19.853Z</time></trkpt><trkpt lat="40.5786436" lon="16.342542"><ele>198.0</ele><time>2026-04-06T15:34:20.853Z</time></trkpt><trkpt lat="40.5787451" lon="16.3425978"><ele>198.0</ele><time>2026-04-06T15:34:21.853Z</time></trkpt><trkpt lat="40.5788485" lon="16.3426394"><ele>198.0</ele><time>2026-04-06T15:34:22.854Z</time></trkpt><trkpt lat="40.5789531" lon="16.3426744"><ele>198.0</ele><time>2026-04-06T15:34:23.853Z</time></trkpt><trkpt lat="40.5790589" lon="16.3427128"><ele>198.0</ele><time>2026-04-06T15:34:24.853Z</time></trkpt><trkpt lat="40.5791584" lon="16.3427595"><ele>198.0</ele><time>2026-04-06T15:34:25.853Z</time></trkpt><trkpt lat="40.5792527" lon="16.3428114"><ele>198.0</ele><time>2026-04-06T15:34:26.853Z</time></trkpt><trkpt lat="40.5793483" lon="16.3428614"><ele>198.0</ele><time>2026-04-06T15:34:27.853Z</time></trkpt><trkpt lat="40.5794434" lon="16.3429122"><ele>198.0</ele><time>2026-04-06T15:34:28.853Z</time></trkpt><trkpt lat="40.5795415" lon="16.3429636"><ele>198.0</ele><time>2026-04-06T15:34:29.853Z</time></trkpt><trkpt lat="40.579643" lon="16.3430238"><ele>195.25</ele><time>2026-04-06T15:34:30.853Z</time></trkpt><trkpt lat="40.5797462" lon="16.3431005"><ele>192.5</ele><time>2026-04-06T15:34:31.853Z</time></trkpt><trkpt lat="40.5798482" lon="16.3431887"><ele>189.75</ele><time>2026-04-06T15:34:32.853Z</time></trkpt><trkpt lat="40.5799571" lon="16.3432766"><ele>187.0</ele><time>2026-04-06T15:34:33.854Z</time></trkpt><trkpt lat="40.5800727" lon="16.3433612"><ele>187.0</ele><time>2026-04-06T15:34:34.853Z</time></trkpt><trkpt lat="40.5801986" lon="16.3434452"><ele>187.0</ele><time>2026-04-06T15:34:35.853Z</time></trkpt><trkpt lat="40.5803326" lon="16.3435341"><ele>187.0</ele><time>2026-04-06T15:34:36.853Z</time></trkpt><trkpt lat="40.580467" lon="16.3436326"><ele>187.0</ele><time>2026-04-06T15:34:37.853Z</time></trkpt><trkpt lat="40.5805982" lon="16.3437349"><ele>185.0</ele><time>2026-04-06T15:34:38.854Z</time></trkpt><trkpt lat="40.5807185" lon="16.3438403"><ele>183.0</ele><time>2026-04-06T15:34:39.853Z</time></trkpt><trkpt lat="40.5808235" lon="16.343941"><ele>181.0</ele><time>2026-04-06T15:34:40.853Z</time></trkpt><trkpt lat="40.5809235" lon="16.3440298"><ele>179.0</ele><time>2026-04-06T15:34:41.853Z</time></trkpt><trkpt lat="40.581013" lon="16.3441043"><ele>178.2</ele><time>2026-04-06T15:34:42.853Z</time></trkpt><trkpt lat="40.5810937" lon="16.3441553"><ele>177.39999999999998</ele><time>2026-04-06T15:34:43.853Z</time></trkpt><trkpt lat="40.5811755" lon="16.3441862"><ele>176.6</ele><time>2026-04-06T15:34:44.853Z</time></trkpt><trkpt lat="40.5812693" lon="16.3441895"><ele>175.8</ele><time>2026-04-06T15:34:45.853Z</time></trkpt><trkpt lat="40.5813722" lon="16.3441556"><ele>175.0</ele><time>2026-04-06T15:34:46.854Z</time></trkpt><trkpt lat="40.5814656" lon="16.3441069"><ele>173.33333333333334</ele><time>2026-04-06T15:34:47.854Z</time></trkpt><trkpt lat="40.5815559" lon="16.344063"><ele>171.66666666666669</ele><time>2026-04-06T15:34:48.853Z</time></trkpt><trkpt lat="40.5816405" lon="16.3440372"><ele>170.0</ele><time>2026-04-06T15:34:49.853Z</time></trkpt><trkpt lat="40.581726" lon="16.3440369"><ele>168.33333333333334</ele><time>2026-04-06T15:34:50.853Z</time></trkpt><trkpt lat="40.5818067" lon="16.3440626"><ele>166.66666666666666</ele><time>2026-04-06T15:34:51.853Z</time></trkpt><trkpt lat="40.581887" lon="16.3441148"><ele>165.0</ele><time>2026-04-06T15:34:52.854Z</time></trkpt><trkpt lat="40.5819601" lon="16.3441979"><ele>163.0</ele><time>2026-04-06T15:34:53.853Z</time></trkpt><trkpt lat="40.5820311" lon="16.344308"><ele>161.0</ele><time>2026-04-06T15:34:54.853Z</time></trkpt><trkpt lat="40.5820996" lon="16.3444269"><ele>159.0</ele><time>2026-04-06T15:34:55.854Z</time></trkpt><trkpt lat="40.5821689" lon="16.3445343"><ele>157.0</ele><time>2026-04-06T15:34:56.853Z</time></trkpt><trkpt lat="40.582233" lon="16.3446197"><ele>155.0</ele><time>2026-04-06T15:34:57.853Z</time></trkpt><trkpt lat="40.582285" lon="16.3446868"><ele>154.33333333333331</ele><time>2026-04-06T15:34:58.853Z</time></trkpt><trkpt lat="40.5823496" lon="16.3447567"><ele>153.66666666666666</ele><time>2026-04-06T15:35:00.853Z</time></trkpt><trkpt lat="40.5823994" lon="16.344816"><ele>153.0</ele><time>2026-04-06T15:35:03.853Z</time></trkpt><trkpt lat="40.5824165" lon="16.344938"><ele>152.33333333333334</ele><time>2026-04-06T15:35:05.853Z</time></trkpt><trkpt lat="40.5824138" lon="16.3450539"><ele>151.66666666666669</ele><time>2026-04-06T15:35:06.853Z</time></trkpt><trkpt lat="40.5823994" lon="16.3452045"><ele>151.0</ele><time>2026-04-06T15:35:07.853Z</time></trkpt><trkpt lat="40.5823769" lon="16.3453838"><ele>149.66666666666669</ele><time>2026-04-06T15:35:08.853Z</time></trkpt><trkpt lat="40.5823428" lon="16.3455804"><ele>148.33333333333334</ele><time>2026-04-06T15:35:09.854Z</time></trkpt><trkpt lat="40.5822959" lon="16.3457881"><ele>147.0</ele><time>2026-04-06T15:35:10.854Z</time></trkpt><trkpt lat="40.5822368" lon="16.3459944"><ele>147.0</ele><time>2026-04-06T15:35:11.853Z</time></trkpt><trkpt lat="40.5821804" lon="16.3461987"><ele>147.0</ele><time>2026-04-06T15:35:12.853Z</time></trkpt><trkpt lat="40.5821286" lon="16.3464013"><ele>147.0</ele><time>2026-04-06T15:35:13.853Z</time></trkpt><trkpt lat="40.5820731" lon="16.3466042"><ele>145.33333333333334</ele><time>2026-04-06T15:35:14.854Z</time></trkpt><trkpt lat="40.5820201" lon="16.3468042"><ele>143.66666666666669</ele><time>2026-04-06T15:35:15.853Z</time></trkpt><trkpt lat="40.5819598" lon="16.3469861"><ele>142.0</ele><time>2026-04-06T15:35:16.854Z</time></trkpt><trkpt lat="40.5818929" lon="16.3471681"><ele>143.66666666666669</ele><time>2026-04-06T15:35:17.853Z</time></trkpt><trkpt lat="40.5818337" lon="16.3473536"><ele>145.33333333333334</ele><time>2026-04-06T15:35:18.853Z</time></trkpt><trkpt lat="40.5817879" lon="16.3475513"><ele>147.0</ele><time>2026-04-06T15:35:19.854Z</time></trkpt><trkpt lat="40.5817552" lon="16.347753"><ele>147.0</ele><time>2026-04-06T15:35:20.853Z</time></trkpt><trkpt lat="40.5817347" lon="16.3479568"><ele>147.0</ele><time>2026-04-06T15:35:21.854Z</time></trkpt><trkpt lat="40.5817194" lon="16.3481597"><ele>147.0</ele><time>2026-04-06T15:35:22.853Z</time></trkpt><trkpt lat="40.581715" lon="16.3483596"><ele>146.0</ele><time>2026-04-06T15:35:23.854Z</time></trkpt><trkpt lat="40.5817254" lon="16.3485541"><ele>145.0</ele><time>2026-04-06T15:35:24.854Z</time></trkpt><trkpt lat="40.5817484" lon="16.3487465"><ele>144.0</ele><time>2026-04-06T15:35:25.853Z</time></trkpt><trkpt lat="40.581795" lon="16.3489395"><ele>142.33333333333334</ele><time>2026-04-06T15:35:26.853Z</time></trkpt><trkpt lat="40.5818571" lon="16.3491245"><ele>140.66666666666669</ele><time>2026-04-06T15:35:27.853Z</time></trkpt><trkpt lat="40.581924" lon="16.3493038"><ele>139.0</ele><time>2026-04-06T15:35:28.853Z</time></trkpt><trkpt lat="40.5819921" lon="16.3494801"><ele>138.66666666666669</ele><time>2026-04-06T15:35:29.853Z</time></trkpt><trkpt lat="40.5820626" lon="16.3496572"><ele>138.33333333333334</ele><time>2026-04-06T15:35:30.853Z</time></trkpt><trkpt lat="40.5821402" lon="16.3498359"><ele>138.0</ele><time>2026-04-06T15:35:31.853Z</time></trkpt><trkpt lat="40.5822246" lon="16.3500061"><ele>137.66666666666666</ele><time>2026-04-06T15:35:32.854Z</time></trkpt><trkpt lat="40.5823133" lon="16.3501672"><ele>137.33333333333331</ele><time>2026-04-06T15:35:33.853Z</time></trkpt><trkpt lat="40.5824068" lon="16.3503219"><ele>137.0</ele><time>2026-04-06T15:35:34.853Z</time></trkpt><trkpt lat="40.5825048" lon="16.3504728"><ele>137.0</ele><time>2026-04-06T15:35:35.853Z</time></trkpt><trkpt lat="40.5825985" lon="16.3506233"><ele>137.0</ele><time>2026-04-06T15:35:36.854Z</time></trkpt><trkpt lat="40.5826891" lon="16.350772"><ele>137.0</ele><time>2026-04-06T15:35:37.853Z</time></trkpt><trkpt lat="40.5827763" lon="16.3509205"><ele>137.0</ele><time>2026-04-06T15:35:38.853Z</time></trkpt><trkpt lat="40.5828653" lon="16.3510797"><ele>137.0</ele><time>2026-04-06T15:35:39.853Z</time></trkpt><trkpt lat="40.5829477" lon="16.3512344"><ele>137.0</ele><time>2026-04-06T15:35:40.853Z</time></trkpt><trkpt lat="40.5830344" lon="16.3513838"><ele>137.0</ele><time>2026-04-06T15:35:41.853Z</time></trkpt><trkpt lat="40.583118" lon="16.3515211"><ele>137.0</ele><time>2026-04-06T15:35:42.854Z</time></trkpt><trkpt lat="40.5831795" lon="16.3516471"><ele>137.0</ele><time>2026-04-06T15:35:43.853Z</time></trkpt><trkpt lat="40.5832235" lon="16.3517554"><ele>137.0</ele><time>2026-04-06T15:35:44.853Z</time></trkpt><trkpt lat="40.583243" lon="16.3518665"><ele>137.0</ele><time>2026-04-06T15:35:45.853Z</time></trkpt><trkpt lat="40.5832406" lon="16.3519887"><ele>137.0</ele><time>2026-04-06T15:35:46.853Z</time></trkpt><trkpt lat="40.5832286" lon="16.3521212"><ele>137.0</ele><time>2026-04-06T15:35:47.853Z</time></trkpt><trkpt lat="40.5832089" lon="16.3522539"><ele>137.0</ele><time>2026-04-06T15:35:48.853Z</time></trkpt><trkpt lat="40.5831871" lon="16.3523876"><ele>137.0</ele><time>2026-04-06T15:35:49.854Z</time></trkpt><trkpt lat="40.5831696" lon="16.3525195"><ele>137.0</ele><time>2026-04-06T15:35:50.854Z</time></trkpt><trkpt lat="40.5831513" lon="16.3526427"><ele>137.0</ele><time>2026-04-06T15:35:51.853Z</time></trkpt><trkpt lat="40.5831336" lon="16.3527594"><ele>137.0</ele><time>2026-04-06T15:35:52.853Z</time></trkpt><trkpt lat="40.5831143" lon="16.3528881"><ele>137.0</ele><time>2026-04-06T15:35:53.854Z</time></trkpt><trkpt lat="40.5830888" lon="16.3530301"><ele>137.0</ele><time>2026-04-06T15:35:54.853Z</time></trkpt><trkpt lat="40.5830621" lon="16.3531828"><ele>137.0</ele><time>2026-04-06T15:35:55.853Z</time></trkpt><trkpt lat="40.583033" lon="16.3533417"><ele>137.0</ele><time>2026-04-06T15:35:56.853Z</time></trkpt><trkpt lat="40.5830017" lon="16.3535075"><ele>137.0</ele><time>2026-04-06T15:35:57.853Z</time></trkpt><trkpt lat="40.5829683" lon="16.3536696"><ele>137.0</ele><time>2026-04-06T15:35:58.853Z</time></trkpt><trkpt lat="40.5829403" lon="16.3538292"><ele>137.0</ele><time>2026-04-06T15:35:59.853Z</time></trkpt><trkpt lat="40.5829169" lon="16.3539908"><ele>137.0</ele><time>2026-04-06T15:36:00.853Z</time></trkpt><trkpt lat="40.5828911" lon="16.3541429"><ele>137.0</ele><time>2026-04-06T15:36:01.853Z</time></trkpt><trkpt lat="40.5828644" lon="16.3542802"><ele>137.0</ele><time>2026-04-06T15:36:02.853Z</time></trkpt><trkpt lat="40.5828547" lon="16.3543959"><ele>137.0</ele><time>2026-04-06T15:36:03.854Z</time></trkpt><trkpt lat="40.5828577" lon="16.354495"><ele>137.0</ele><time>2026-04-06T15:36:04.853Z</time></trkpt><trkpt lat="40.5828783" lon="16.3545864"><ele>137.0</ele><time>2026-04-06T15:36:05.853Z</time></trkpt><trkpt lat="40.5829247" lon="16.3546622"><ele>137.0</ele><time>2026-04-06T15:36:06.853Z</time></trkpt><trkpt lat="40.5829891" lon="16.3547237"><ele>137.0</ele><time>2026-04-06T15:36:07.853Z</time></trkpt><trkpt lat="40.5830635" lon="16.3547797"><ele>137.0</ele><time>2026-04-06T15:36:08.853Z</time></trkpt><trkpt lat="40.5831462" lon="16.3548351"><ele>137.0</ele><time>2026-04-06T15:36:09.853Z</time></trkpt><trkpt lat="40.5832285" lon="16.3549024"><ele>137.0</ele><time>2026-04-06T15:36:10.853Z</time></trkpt><trkpt lat="40.5833068" lon="16.3549861"><ele>137.0</ele><time>2026-04-06T15:36:11.853Z</time></trkpt><trkpt lat="40.5833701" lon="16.3550892"><ele>137.0</ele><time>2026-04-06T15:36:12.853Z</time></trkpt><trkpt lat="40.5834074" lon="16.355214"><ele>137.0</ele><time>2026-04-06T15:36:13.853Z</time></trkpt><trkpt lat="40.5834255" lon="16.3553522"><ele>137.0</ele><time>2026-04-06T15:36:14.854Z</time></trkpt><trkpt lat="40.5834229" lon="16.3555107"><ele>137.0</ele><time>2026-04-06T15:36:15.854Z</time></trkpt><trkpt lat="40.5834109" lon="16.3556885"><ele>136.33333333333331</ele><time>2026-04-06T15:36:16.853Z</time></trkpt><trkpt lat="40.5833896" lon="16.355879"><ele>135.66666666666666</ele><time>2026-04-06T15:36:17.854Z</time></trkpt><trkpt lat="40.5833667" lon="16.3560827"><ele>135.0</ele><time>2026-04-06T15:36:18.853Z</time></trkpt><trkpt lat="40.5833453" lon="16.3562957"><ele>134.33333333333334</ele><time>2026-04-06T15:36:19.853Z</time></trkpt><trkpt lat="40.5833247" lon="16.3565165"><ele>133.66666666666669</ele><time>2026-04-06T15:36:20.853Z</time></trkpt><trkpt lat="40.5833058" lon="16.35674"><ele>133.0</ele><time>2026-04-06T15:36:21.853Z</time></trkpt><trkpt lat="40.5832865" lon="16.3569671"><ele>133.0</ele><time>2026-04-06T15:36:22.853Z</time></trkpt><trkpt lat="40.5832704" lon="16.3571929"><ele>133.0</ele><time>2026-04-06T15:36:23.854Z</time></trkpt><trkpt lat="40.5832526" lon="16.3574115"><ele>133.0</ele><time>2026-04-06T15:36:24.853Z</time></trkpt><trkpt lat="40.5832378" lon="16.357632"><ele>133.0</ele><time>2026-04-06T15:36:25.853Z</time></trkpt><trkpt lat="40.58323" lon="16.3578507"><ele>133.0</ele><time>2026-04-06T15:36:26.853Z</time></trkpt><trkpt lat="40.5832303" lon="16.3580701"><ele>133.0</ele><time>2026-04-06T15:36:27.853Z</time></trkpt><trkpt lat="40.5832405" lon="16.3582873"><ele>132.33333333333334</ele><time>2026-04-06T15:36:28.853Z</time></trkpt><trkpt lat="40.5832616" lon="16.3585025"><ele>131.66666666666666</ele><time>2026-04-06T15:36:29.854Z</time></trkpt><trkpt lat="40.5832979" lon="16.3587155"><ele>131.0</ele><time>2026-04-06T15:36:30.853Z</time></trkpt><trkpt lat="40.5833491" lon="16.3589242"><ele>131.0</ele><time>2026-04-06T15:36:31.853Z</time></trkpt><trkpt lat="40.5834178" lon="16.359129"><ele>131.0</ele><time>2026-04-06T15:36:32.853Z</time></trkpt><trkpt lat="40.5835009" lon="16.3593271"><ele>131.0</ele><time>2026-04-06T15:36:33.853Z</time></trkpt><trkpt lat="40.5835952" lon="16.359512"><ele>131.0</ele><time>2026-04-06T15:36:34.853Z</time></trkpt><trkpt lat="40.5837032" lon="16.3596803"><ele>131.0</ele><time>2026-04-06T15:36:35.853Z</time></trkpt><trkpt lat="40.5838219" lon="16.3598365"><ele>131.0</ele><time>2026-04-06T15:36:36.854Z</time></trkpt><trkpt lat="40.5839489" lon="16.3599802"><ele>130.66666666666666</ele><time>2026-04-06T15:36:37.853Z</time></trkpt><trkpt lat="40.5840853" lon="16.3601132"><ele>130.33333333333334</ele><time>2026-04-06T15:36:38.853Z</time></trkpt><trkpt lat="40.5842276" lon="16.3602443"><ele>130.0</ele><time>2026-04-06T15:36:39.853Z</time></trkpt><trkpt lat="40.5843729" lon="16.3603713"><ele>130.33333333333334</ele><time>2026-04-06T15:36:40.853Z</time></trkpt><trkpt lat="40.5845187" lon="16.3604984"><ele>130.66666666666666</ele><time>2026-04-06T15:36:41.853Z</time></trkpt><trkpt lat="40.5846671" lon="16.3606245"><ele>131.0</ele><time>2026-04-06T15:36:42.854Z</time></trkpt><trkpt lat="40.584816" lon="16.3607489"><ele>131.33333333333331</ele><time>2026-04-06T15:36:43.853Z</time></trkpt><trkpt lat="40.5849636" lon="16.3608682"><ele>131.66666666666666</ele><time>2026-04-06T15:36:44.854Z</time></trkpt><trkpt lat="40.5851104" lon="16.3609842"><ele>132.0</ele><time>2026-04-06T15:36:45.853Z</time></trkpt><trkpt lat="40.5852604" lon="16.3610972"><ele>131.66666666666666</ele><time>2026-04-06T15:36:46.853Z</time></trkpt><trkpt lat="40.5854066" lon="16.3612149"><ele>131.33333333333331</ele><time>2026-04-06T15:36:47.853Z</time></trkpt><trkpt lat="40.5855455" lon="16.3613404"><ele>131.0</ele><time>2026-04-06T15:36:48.853Z</time></trkpt><trkpt lat="40.5856874" lon="16.3614619"><ele>131.66666666666666</ele><time>2026-04-06T15:36:49.854Z</time></trkpt><trkpt lat="40.5858303" lon="16.3615797"><ele>132.33333333333334</ele><time>2026-04-06T15:36:50.854Z</time></trkpt><trkpt lat="40.5859763" lon="16.3616967"><ele>133.0</ele><time>2026-04-06T15:36:51.853Z</time></trkpt><trkpt lat="40.5861234" lon="16.3618192"><ele>131.33333333333334</ele><time>2026-04-06T15:36:52.854Z</time></trkpt><trkpt lat="40.5862729" lon="16.361944"><ele>129.66666666666666</ele><time>2026-04-06T15:36:53.854Z</time></trkpt><trkpt lat="40.5864242" lon="16.3620678"><ele>128.0</ele><time>2026-04-06T15:36:54.854Z</time></trkpt><trkpt lat="40.5865799" lon="16.3621942"><ele>128.0</ele><time>2026-04-06T15:36:55.853Z</time></trkpt><trkpt lat="40.5867373" lon="16.3623237"><ele>128.0</ele><time>2026-04-06T15:36:56.853Z</time></trkpt><trkpt lat="40.5868989" lon="16.3624578"><ele>128.0</ele><time>2026-04-06T15:36:57.853Z</time></trkpt><trkpt lat="40.5870571" lon="16.3625908"><ele>128.0</ele><time>2026-04-06T15:36:58.853Z</time></trkpt><trkpt lat="40.587209" lon="16.3627225"><ele>128.0</ele><time>2026-04-06T15:36:59.853Z</time></trkpt><trkpt lat="40.5873582" lon="16.3628472"><ele>128.0</ele><time>2026-04-06T15:37:00.853Z</time></trkpt><trkpt lat="40.5874963" lon="16.3629629"><ele>128.5</ele><time>2026-04-06T15:37:01.853Z</time></trkpt><trkpt lat="40.5876208" lon="16.363067"><ele>129.0</ele><time>2026-04-06T15:37:02.853Z</time></trkpt><trkpt lat="40.5877268" lon="16.3631677"><ele>129.5</ele><time>2026-04-06T15:37:03.853Z</time></trkpt><trkpt lat="40.587809" lon="16.3632754"><ele>130.0</ele><time>2026-04-06T15:37:04.853Z</time></trkpt><trkpt lat="40.5878718" lon="16.3633903"><ele>131.4</ele><time>2026-04-06T15:37:05.853Z</time></trkpt><trkpt lat="40.5879164" lon="16.3635182"><ele>132.8</ele><time>2026-04-06T15:37:06.854Z</time></trkpt><trkpt lat="40.5879457" lon="16.363652"><ele>134.2</ele><time>2026-04-06T15:37:07.853Z</time></trkpt><trkpt lat="40.5879532" lon="16.3637899"><ele>135.6</ele><time>2026-04-06T15:37:08.853Z</time></trkpt><trkpt lat="40.5879398" lon="16.3639348"><ele>137.0</ele><time>2026-04-06T15:37:09.853Z</time></trkpt><trkpt lat="40.5879048" lon="16.3640838"><ele>137.25</ele><time>2026-04-06T15:37:10.853Z</time></trkpt><trkpt lat="40.58785" lon="16.3642363"><ele>137.5</ele><time>2026-04-06T15:37:11.853Z</time></trkpt><trkpt lat="40.5877835" lon="16.364397"><ele>137.75</ele><time>2026-04-06T15:37:12.854Z</time></trkpt><trkpt lat="40.5877171" lon="16.3645593"><ele>138.0</ele><time>2026-04-06T15:37:13.853Z</time></trkpt><trkpt lat="40.5876509" lon="16.3647189"><ele>138.0</ele><time>2026-04-06T15:37:14.854Z</time></trkpt><trkpt lat="40.5875856" lon="16.3648803"><ele>138.0</ele><time>2026-04-06T15:37:15.853Z</time></trkpt><trkpt lat="40.587521" lon="16.3650461"><ele>138.0</ele><time>2026-04-06T15:37:16.854Z</time></trkpt><trkpt lat="40.5874597" lon="16.365209"><ele>138.0</ele><time>2026-04-06T15:37:17.854Z</time></trkpt><trkpt lat="40.587398" lon="16.3653738"><ele>139.5</ele><time>2026-04-06T15:37:18.853Z</time></trkpt><trkpt lat="40.5873398" lon="16.3655473"><ele>141.0</ele><time>2026-04-06T15:37:19.853Z</time></trkpt><trkpt lat="40.5872916" lon="16.3657285"><ele>142.5</ele><time>2026-04-06T15:37:20.853Z</time></trkpt><trkpt lat="40.5872462" lon="16.3659164"><ele>144.0</ele><time>2026-04-06T15:37:21.853Z</time></trkpt><trkpt lat="40.5872034" lon="16.3661055"><ele>144.0</ele><time>2026-04-06T15:37:22.853Z</time></trkpt><trkpt lat="40.5871629" lon="16.366293"><ele>144.0</ele><time>2026-04-06T15:37:23.853Z</time></trkpt><trkpt lat="40.5871221" lon="16.3664784"><ele>144.0</ele><time>2026-04-06T15:37:24.853Z</time></trkpt><trkpt lat="40.5870811" lon="16.3666623"><ele>144.0</ele><time>2026-04-06T15:37:25.853Z</time></trkpt><trkpt lat="40.5870406" lon="16.3668443"><ele>141.25</ele><time>2026-04-06T15:37:26.853Z</time></trkpt><trkpt lat="40.5870024" lon="16.3670246"><ele>138.5</ele><time>2026-04-06T15:37:27.853Z</time></trkpt><trkpt lat="40.5869698" lon="16.3672044"><ele>135.75</ele><time>2026-04-06T15:37:28.853Z</time></trkpt><trkpt lat="40.5869413" lon="16.3673844"><ele>133.0</ele><time>2026-04-06T15:37:29.853Z</time></trkpt><trkpt lat="40.5869248" lon="16.3675724"><ele>133.0</ele><time>2026-04-06T15:37:30.853Z</time></trkpt><trkpt lat="40.5869241" lon="16.3677678"><ele>133.0</ele><time>2026-04-06T15:37:31.853Z</time></trkpt><trkpt lat="40.5869348" lon="16.3679649"><ele>133.0</ele><time>2026-04-06T15:37:32.854Z</time></trkpt><trkpt lat="40.5869557" lon="16.3681616"><ele>133.0</ele><time>2026-04-06T15:37:33.853Z</time></trkpt><trkpt lat="40.5869766" lon="16.3683483"><ele>133.0</ele><time>2026-04-06T15:37:34.853Z</time></trkpt><trkpt lat="40.5869999" lon="16.368514"><ele>133.0</ele><time>2026-04-06T15:37:35.853Z</time></trkpt><trkpt lat="40.5870262" lon="16.3686574"><ele>133.0</ele><time>2026-04-06T15:37:36.853Z</time></trkpt><trkpt lat="40.5870811" lon="16.368777"><ele>133.0</ele><time>2026-04-06T15:37:37.853Z</time></trkpt><trkpt lat="40.587168" lon="16.3688712"><ele>136.25</ele><time>2026-04-06T15:37:38.853Z</time></trkpt><trkpt lat="40.5872774" lon="16.3689386"><ele>139.5</ele><time>2026-04-06T15:37:39.853Z</time></trkpt><trkpt lat="40.5874006" lon="16.3689923"><ele>142.75</ele><time>2026-04-06T15:37:40.853Z</time></trkpt><trkpt lat="40.5875365" lon="16.3690359"><ele>146.0</ele><time>2026-04-06T15:37:41.853Z</time></trkpt><trkpt lat="40.5876781" lon="16.3690639"><ele>146.0</ele><time>2026-04-06T15:37:42.854Z</time></trkpt><trkpt lat="40.587813" lon="16.3690842"><ele>146.0</ele><time>2026-04-06T15:37:43.853Z</time></trkpt><trkpt lat="40.5879362" lon="16.3691207"><ele>146.0</ele><time>2026-04-06T15:37:44.853Z</time></trkpt><trkpt lat="40.588051" lon="16.3691825"><ele>146.0</ele><time>2026-04-06T15:37:45.853Z</time></trkpt><trkpt lat="40.5881725" lon="16.3692598"><ele>150.0</ele><time>2026-04-06T15:37:46.853Z</time></trkpt><trkpt lat="40.5883019" lon="16.369333"><ele>154.0</ele><time>2026-04-06T15:37:47.854Z</time></trkpt><trkpt lat="40.588425" lon="16.369391"><ele>158.0</ele><time>2026-04-06T15:37:48.853Z</time></trkpt><trkpt lat="40.5885312" lon="16.3694372"><ele>162.0</ele><time>2026-04-06T15:37:49.853Z</time></trkpt><trkpt lat="40.5886182" lon="16.3694853"><ele>162.0</ele><time>2026-04-06T15:37:50.853Z</time></trkpt><trkpt lat="40.5886851" lon="16.3695443"><ele>162.0</ele><time>2026-04-06T15:37:51.853Z</time></trkpt><trkpt lat="40.5887216" lon="16.3696138"><ele>162.0</ele><time>2026-04-06T15:37:52.853Z</time></trkpt><trkpt lat="40.588734" lon="16.3696952"><ele>162.0</ele><time>2026-04-06T15:37:53.853Z</time></trkpt><trkpt lat="40.5887088" lon="16.3697922"><ele>162.0</ele><time>2026-04-06T15:37:54.853Z</time></trkpt><trkpt lat="40.5886596" lon="16.3698872"><ele>162.0</ele><time>2026-04-06T15:37:55.853Z</time></trkpt><trkpt lat="40.588585" lon="16.3699567"><ele>162.0</ele><time>2026-04-06T15:37:56.854Z</time></trkpt><trkpt lat="40.5884893" lon="16.369993"><ele>162.0</ele><time>2026-04-06T15:37:57.854Z</time></trkpt><trkpt lat="40.5883763" lon="16.37"><ele>162.0</ele><time>2026-04-06T15:37:58.853Z</time></trkpt><trkpt lat="40.5882483" lon="16.3699946"><ele>162.0</ele><time>2026-04-06T15:37:59.853Z</time></trkpt><trkpt lat="40.5881149" lon="16.3699825"><ele>162.0</ele><time>2026-04-06T15:38:00.853Z</time></trkpt><trkpt lat="40.5879867" lon="16.369959"><ele>162.0</ele><time>2026-04-06T15:38:01.854Z</time></trkpt><trkpt lat="40.5878693" lon="16.3699186"><ele>162.0</ele><time>2026-04-06T15:38:02.853Z</time></trkpt><trkpt lat="40.5877606" lon="16.3698726"><ele>162.0</ele><time>2026-04-06T15:38:03.853Z</time></trkpt><trkpt lat="40.5876564" lon="16.3698403"><ele>161.25</ele><time>2026-04-06T15:38:04.853Z</time></trkpt><trkpt lat="40.5875501" lon="16.3698341"><ele>160.5</ele><time>2026-04-06T15:38:05.853Z</time></trkpt><trkpt lat="40.5874328" lon="16.3698597"><ele>159.75</ele><time>2026-04-06T15:38:06.853Z</time></trkpt><trkpt lat="40.5873147" lon="16.3699041"><ele>159.0</ele><time>2026-04-06T15:38:07.854Z</time></trkpt><trkpt lat="40.5872138" lon="16.3699542"><ele>159.0</ele><time>2026-04-06T15:38:08.853Z</time></trkpt><trkpt lat="40.5871391" lon="16.3700063"><ele>159.0</ele><time>2026-04-06T15:38:09.854Z</time></trkpt><trkpt lat="40.5870876" lon="16.370138"><ele>159.0</ele><time>2026-04-06T15:38:11.854Z</time></trkpt><trkpt lat="40.5871699" lon="16.3702193"><ele>159.0</ele><time>2026-04-06T15:38:13.853Z</time></trkpt><trkpt lat="40.5872407" lon="16.3702016"><ele>159.0</ele><time>2026-04-06T15:38:14.853Z</time></trkpt><trkpt lat="40.5873214" lon="16.3701569"><ele>159.0</ele><time>2026-04-06T15:38:15.852Z</time></trkpt><trkpt lat="40.5874047" lon="16.370106"><ele>159.0</ele><time>2026-04-06T15:38:16.852Z</time></trkpt><trkpt lat="40.5874917" lon="16.3700711"><ele>159.0</ele><time>2026-04-06T15:38:17.852Z</time></trkpt><trkpt lat="40.587594" lon="16.3700766"><ele>159.0</ele><time>2026-04-06T15:38:18.852Z</time></trkpt><trkpt lat="40.5877083" lon="16.3701223"><ele>159.0</ele><time>2026-04-06T15:38:19.852Z</time></trkpt><trkpt lat="40.5878251" lon="16.3701977"><ele>159.75</ele><time>2026-04-06T15:38:20.852Z</time></trkpt><trkpt lat="40.587942" lon="16.3702717"><ele>160.5</ele><time>2026-04-06T15:38:21.853Z</time></trkpt><trkpt lat="40.5880598" lon="16.3703145"><ele>161.25</ele><time>2026-04-06T15:38:22.852Z</time></trkpt><trkpt lat="40.5881743" lon="16.3703233"><ele>162.0</ele><time>2026-04-06T15:38:23.853Z</time></trkpt><trkpt lat="40.5882752" lon="16.3703253"><ele>162.0</ele><time>2026-04-06T15:38:24.852Z</time></trkpt><trkpt lat="40.5883523" lon="16.3703422"><ele>162.0</ele><time>2026-04-06T15:38:25.852Z</time></trkpt><trkpt lat="40.5883971" lon="16.3704416"><ele>162.0</ele><time>2026-04-06T15:38:27.853Z</time></trkpt><trkpt lat="40.5882773" lon="16.3705234"><ele>162.0</ele><time>2026-04-06T15:38:29.852Z</time></trkpt><trkpt lat="40.5881667" lon="16.3705183"><ele>162.0</ele><time>2026-04-06T15:38:30.852Z</time></trkpt><trkpt lat="40.5880303" lon="16.3704931"><ele>162.0</ele><time>2026-04-06T15:38:31.852Z</time></trkpt><trkpt lat="40.5878897" lon="16.3704594"><ele>162.0</ele><time>2026-04-06T15:38:32.852Z</time></trkpt><trkpt lat="40.5877607" lon="16.3704232"><ele>162.0</ele><time>2026-04-06T15:38:33.852Z</time></trkpt><trkpt lat="40.5876441" lon="16.3703914"><ele>162.0</ele><time>2026-04-06T15:38:34.852Z</time></trkpt><trkpt lat="40.5875372" lon="16.370381"><ele>161.5</ele><time>2026-04-06T15:38:35.852Z</time></trkpt><trkpt lat="40.587445" lon="16.3703954"><ele>161.0</ele><time>2026-04-06T15:38:36.852Z</time></trkpt><trkpt lat="40.5873687" lon="16.3704333"><ele>160.5</ele><time>2026-04-06T15:38:37.853Z</time></trkpt><trkpt lat="40.5873428" lon="16.3705847"><ele>160.0</ele><time>2026-04-06T15:38:39.852Z</time></trkpt><trkpt lat="40.5873782" lon="16.3706595"><ele>159.5</ele><time>2026-04-06T15:38:40.852Z</time></trkpt><trkpt lat="40.5874386" lon="16.3707094"><ele>159.0</ele><time>2026-04-06T15:38:41.852Z</time></trkpt><trkpt lat="40.5875271" lon="16.370738"><ele>164.0</ele><time>2026-04-06T15:38:42.852Z</time></trkpt><trkpt lat="40.5876455" lon="16.3707625"><ele>169.0</ele><time>2026-04-06T15:38:43.852Z</time></trkpt><trkpt lat="40.5877877" lon="16.3708108"><ele>174.0</ele><time>2026-04-06T15:38:44.852Z</time></trkpt><trkpt lat="40.5879287" lon="16.370874"><ele>179.0</ele><time>2026-04-06T15:38:45.852Z</time></trkpt><trkpt lat="40.5880678" lon="16.3709249"><ele>179.39999999999998</ele><time>2026-04-06T15:38:46.852Z</time></trkpt><trkpt lat="40.5881922" lon="16.3709509"><ele>179.8</ele><time>2026-04-06T15:38:47.852Z</time></trkpt><trkpt lat="40.5883047" lon="16.3709572"><ele>180.2</ele><time>2026-04-06T15:38:48.852Z</time></trkpt><trkpt lat="40.5883925" lon="16.3709646"><ele>180.60000000000002</ele><time>2026-04-06T15:38:49.852Z</time></trkpt><trkpt lat="40.5884569" lon="16.3709928"><ele>181.0</ele><time>2026-04-06T15:38:50.852Z</time></trkpt><trkpt lat="40.5884712" lon="16.37112"><ele>181.0</ele><time>2026-04-06T15:38:52.852Z</time></trkpt><trkpt lat="40.5884293" lon="16.3711847"><ele>181.0</ele><time>2026-04-06T15:38:53.852Z</time></trkpt><trkpt lat="40.5883397" lon="16.3712126"><ele>181.0</ele><time>2026-04-06T15:38:54.852Z</time></trkpt><trkpt lat="40.5882324" lon="16.3712142"><ele>181.0</ele><time>2026-04-06T15:38:55.852Z</time></trkpt><trkpt lat="40.5881021" lon="16.3711902"><ele>181.0</ele><time>2026-04-06T15:38:56.852Z</time></trkpt><trkpt lat="40.5879776" lon="16.3711663"><ele>181.0</ele><time>2026-04-06T15:38:57.852Z</time></trkpt><trkpt lat="40.5878657" lon="16.3711617"><ele>181.0</ele><time>2026-04-06T15:38:58.852Z</time></trkpt><trkpt lat="40.5877587" lon="16.3711837"><ele>181.0</ele><time>2026-04-06T15:38:59.852Z</time></trkpt><trkpt lat="40.5876612" lon="16.3712496"><ele>181.0</ele><time>2026-04-06T15:39:00.852Z</time></trkpt><trkpt lat="40.5875808" lon="16.3713573"><ele>181.0</ele><time>2026-04-06T15:39:01.852Z</time></trkpt><trkpt lat="40.5875033" lon="16.3714819"><ele>186.0</ele><time>2026-04-06T15:39:02.852Z</time></trkpt><trkpt lat="40.5874201" lon="16.3715914"><ele>191.0</ele><time>2026-04-06T15:39:03.852Z</time></trkpt><trkpt lat="40.587316" lon="16.3716626"><ele>196.0</ele><time>2026-04-06T15:39:04.853Z</time></trkpt><trkpt lat="40.5872048" lon="16.371722"><ele>201.0</ele><time>2026-04-06T15:39:05.853Z</time></trkpt><trkpt lat="40.5871034" lon="16.3717973"><ele>201.0</ele><time>2026-04-06T15:39:06.852Z</time></trkpt><trkpt lat="40.587025" lon="16.3718968"><ele>201.0</ele><time>2026-04-06T15:39:07.852Z</time></trkpt><trkpt lat="40.5869774" lon="16.3720112"><ele>201.0</ele><time>2026-04-06T15:39:08.853Z</time></trkpt><trkpt lat="40.5869676" lon="16.3721413"><ele>201.0</ele><time>2026-04-06T15:39:09.852Z</time></trkpt><trkpt lat="40.5869971" lon="16.3722735"><ele>201.0</ele><time>2026-04-06T15:39:10.852Z</time></trkpt><trkpt lat="40.5870551" lon="16.3724119"><ele>204.75</ele><time>2026-04-06T15:39:11.852Z</time></trkpt><trkpt lat="40.5871166" lon="16.3725554"><ele>208.5</ele><time>2026-04-06T15:39:12.852Z</time></trkpt><trkpt lat="40.5871609" lon="16.3727052"><ele>212.25</ele><time>2026-04-06T15:39:13.852Z</time></trkpt><trkpt lat="40.587188" lon="16.3728618"><ele>216.0</ele><time>2026-04-06T15:39:14.852Z</time></trkpt><trkpt lat="40.5871926" lon="16.3730319"><ele>217.5</ele><time>2026-04-06T15:39:15.853Z</time></trkpt><trkpt lat="40.587185" lon="16.3732095"><ele>219.0</ele><time>2026-04-06T15:39:16.853Z</time></trkpt><trkpt lat="40.5871722" lon="16.3733908"><ele>220.5</ele><time>2026-04-06T15:39:17.852Z</time></trkpt><trkpt lat="40.5871582" lon="16.3735702"><ele>222.0</ele><time>2026-04-06T15:39:18.852Z</time></trkpt><trkpt lat="40.5871511" lon="16.3737369"><ele>223.0</ele><time>2026-04-06T15:39:19.852Z</time></trkpt><trkpt lat="40.587156" lon="16.373901"><ele>224.0</ele><time>2026-04-06T15:39:20.852Z</time></trkpt><trkpt lat="40.587191" lon="16.3740602"><ele>225.0</ele><time>2026-04-06T15:39:21.852Z</time></trkpt><trkpt lat="40.5872574" lon="16.3742172"><ele>226.0</ele><time>2026-04-06T15:39:22.852Z</time></trkpt><trkpt lat="40.5873456" lon="16.3743768"><ele>226.0</ele><time>2026-04-06T15:39:23.852Z</time></trkpt><trkpt lat="40.5874359" lon="16.3745316"><ele>226.0</ele><time>2026-04-06T15:39:24.852Z</time></trkpt><trkpt lat="40.5875159" lon="16.3746706"><ele>226.0</ele><time>2026-04-06T15:39:25.852Z</time></trkpt><trkpt lat="40.5875723" lon="16.3747938"><ele>226.0</ele><time>2026-04-06T15:39:26.852Z</time></trkpt><trkpt lat="40.587601" lon="16.3749014"><ele>225.33333333333331</ele><time>2026-04-06T15:39:27.852Z</time></trkpt><trkpt lat="40.5876052" lon="16.374995"><ele>224.66666666666666</ele><time>2026-04-06T15:39:28.852Z</time></trkpt><trkpt lat="40.5875784" lon="16.375083"><ele>224.0</ele><time>2026-04-06T15:39:29.852Z</time></trkpt><trkpt lat="40.5875276" lon="16.3751623"><ele>223.33333333333331</ele><time>2026-04-06T15:39:30.853Z</time></trkpt><trkpt lat="40.5874536" lon="16.3752156"><ele>222.66666666666666</ele><time>2026-04-06T15:39:31.852Z</time></trkpt><trkpt lat="40.5873728" lon="16.3752767"><ele>222.0</ele><time>2026-04-06T15:39:32.852Z</time></trkpt><trkpt lat="40.5873095" lon="16.3753605"><ele>222.0</ele><time>2026-04-06T15:39:33.853Z</time></trkpt><trkpt lat="40.5872923" lon="16.3754666"><ele>222.0</ele><time>2026-04-06T15:39:34.852Z</time></trkpt><trkpt lat="40.5873226" lon="16.3755642"><ele>222.0</ele><time>2026-04-06T15:39:35.852Z</time></trkpt><trkpt lat="40.5874042" lon="16.3756168"><ele>222.0</ele><time>2026-04-06T15:39:36.852Z</time></trkpt><trkpt lat="40.5875179" lon="16.3756233"><ele>222.0</ele><time>2026-04-06T15:39:37.852Z</time></trkpt><trkpt lat="40.5876425" lon="16.3755901"><ele>222.25</ele><time>2026-04-06T15:39:38.852Z</time></trkpt><trkpt lat="40.5877744" lon="16.3755318"><ele>222.5</ele><time>2026-04-06T15:39:39.852Z</time></trkpt><trkpt lat="40.5879058" lon="16.3754702"><ele>222.75</ele><time>2026-04-06T15:39:40.852Z</time></trkpt><trkpt lat="40.5880288" lon="16.3754163"><ele>223.0</ele><time>2026-04-06T15:39:41.852Z</time></trkpt><trkpt lat="40.5881346" lon="16.3753681"><ele>226.0</ele><time>2026-04-06T15:39:42.853Z</time></trkpt><trkpt lat="40.5882207" lon="16.3753164"><ele>229.0</ele><time>2026-04-06T15:39:43.852Z</time></trkpt><trkpt lat="40.5882879" lon="16.3752407"><ele>232.0</ele><time>2026-04-06T15:39:44.852Z</time></trkpt><trkpt lat="40.5883228" lon="16.3751365"><ele>235.0</ele><time>2026-04-06T15:39:45.852Z</time></trkpt><trkpt lat="40.5883255" lon="16.3750092"><ele>238.0</ele><time>2026-04-06T15:39:46.852Z</time></trkpt><trkpt lat="40.5882966" lon="16.3748713"><ele>238.0</ele><time>2026-04-06T15:39:47.852Z</time></trkpt><trkpt lat="40.5882596" lon="16.3747364"><ele>238.0</ele><time>2026-04-06T15:39:48.852Z</time></trkpt><trkpt lat="40.5882326" lon="16.3746087"><ele>238.0</ele><time>2026-04-06T15:39:49.853Z</time></trkpt><trkpt lat="40.5882246" lon="16.3744886"><ele>238.0</ele><time>2026-04-06T15:39:50.852Z</time></trkpt><trkpt lat="40.5882484" lon="16.3743801"><ele>238.0</ele><time>2026-04-06T15:39:51.852Z</time></trkpt><trkpt lat="40.5883003" lon="16.3743008"><ele>237.60000000000002</ele><time>2026-04-06T15:39:52.852Z</time></trkpt><trkpt lat="40.5883709" lon="16.3742702"><ele>237.20000000000002</ele><time>2026-04-06T15:39:53.853Z</time></trkpt><trkpt lat="40.5884567" lon="16.3742897"><ele>236.8</ele><time>2026-04-06T15:39:54.853Z</time></trkpt><trkpt lat="40.5885466" lon="16.3743475"><ele>236.4</ele><time>2026-04-06T15:39:55.852Z</time></trkpt><trkpt lat="40.58863" lon="16.3744578"><ele>236.0</ele><time>2026-04-06T15:39:56.852Z</time></trkpt><trkpt lat="40.5887033" lon="16.3745869"><ele>239.5</ele><time>2026-04-06T15:39:57.852Z</time></trkpt><trkpt lat="40.5887679" lon="16.3747254"><ele>243.0</ele><time>2026-04-06T15:39:58.853Z</time></trkpt><trkpt lat="40.5888154" lon="16.374871"><ele>246.5</ele><time>2026-04-06T15:39:59.852Z</time></trkpt><trkpt lat="40.5888335" lon="16.3750228"><ele>250.0</ele><time>2026-04-06T15:40:00.852Z</time></trkpt><trkpt lat="40.5888227" lon="16.3751846"><ele>250.0</ele><time>2026-04-06T15:40:01.853Z</time></trkpt><trkpt lat="40.5887875" lon="16.3753511"><ele>250.0</ele><time>2026-04-06T15:40:02.852Z</time></trkpt><trkpt lat="40.5887418" lon="16.3755177"><ele>250.0</ele><time>2026-04-06T15:40:03.852Z</time></trkpt><trkpt lat="40.588692" lon="16.3756794"><ele>250.0</ele><time>2026-04-06T15:40:04.852Z</time></trkpt><trkpt lat="40.5886501" lon="16.3758343"><ele>250.6</ele><time>2026-04-06T15:40:05.852Z</time></trkpt><trkpt lat="40.5886141" lon="16.3759803"><ele>251.2</ele><time>2026-04-06T15:40:06.852Z</time></trkpt><trkpt lat="40.5885968" lon="16.3761181"><ele>251.8</ele><time>2026-04-06T15:40:07.853Z</time></trkpt><trkpt lat="40.5886125" lon="16.3762476"><ele>252.4</ele><time>2026-04-06T15:40:08.853Z</time></trkpt><trkpt lat="40.5886613" lon="16.3763568"><ele>253.0</ele><time>2026-04-06T15:40:09.852Z</time></trkpt><trkpt lat="40.58875" lon="16.3764244"><ele>253.0</ele><time>2026-04-06T15:40:10.852Z</time></trkpt><trkpt lat="40.5888582" lon="16.3764397"><ele>253.0</ele><time>2026-04-06T15:40:11.852Z</time></trkpt><trkpt lat="40.5889776" lon="16.3764047"><ele>253.0</ele><time>2026-04-06T15:40:12.852Z</time></trkpt><trkpt lat="40.5891008" lon="16.3763415"><ele>253.0</ele><time>2026-04-06T15:40:13.852Z</time></trkpt><trkpt lat="40.5892289" lon="16.376272"><ele>253.25</ele><time>2026-04-06T15:40:14.853Z</time></trkpt><trkpt lat="40.5893545" lon="16.376211"><ele>253.5</ele><time>2026-04-06T15:40:15.852Z</time></trkpt><trkpt lat="40.5894773" lon="16.3761648"><ele>253.75</ele><time>2026-04-06T15:40:16.853Z</time></trkpt><trkpt lat="40.5895878" lon="16.376135"><ele>254.0</ele><time>2026-04-06T15:40:17.852Z</time></trkpt><trkpt lat="40.5896895" lon="16.3761241"><ele>255.2</ele><time>2026-04-06T15:40:18.852Z</time></trkpt><trkpt lat="40.5897828" lon="16.3761359"><ele>256.4</ele><time>2026-04-06T15:40:19.852Z</time></trkpt><trkpt lat="40.5898693" lon="16.3761769"><ele>257.6</ele><time>2026-04-06T15:40:20.853Z</time></trkpt><trkpt lat="40.5899384" lon="16.3762465"><ele>258.8</ele><time>2026-04-06T15:40:21.852Z</time></trkpt><trkpt lat="40.5899839" lon="16.3763459"><ele>260.0</ele><time>2026-04-06T15:40:22.852Z</time></trkpt><trkpt lat="40.5900046" lon="16.3764605"><ele>261.5</ele><time>2026-04-06T15:40:23.852Z</time></trkpt><trkpt lat="40.5899652" lon="16.376581"><ele>263.0</ele><time>2026-04-06T15:40:24.852Z</time></trkpt><trkpt lat="40.5898885" lon="16.3766893"><ele>264.5</ele><time>2026-04-06T15:40:25.852Z</time></trkpt><trkpt lat="40.5897896" lon="16.3767838"><ele>266.0</ele><time>2026-04-06T15:40:26.852Z</time></trkpt><trkpt lat="40.5896873" lon="16.3768772"><ele>266.0</ele><time>2026-04-06T15:40:27.852Z</time></trkpt><trkpt lat="40.5895981" lon="16.3769805"><ele>266.0</ele><time>2026-04-06T15:40:28.852Z</time></trkpt><trkpt lat="40.5895258" lon="16.3771031"><ele>266.0</ele><time>2026-04-06T15:40:29.852Z</time></trkpt><trkpt lat="40.5894904" lon="16.377247"><ele>266.0</ele><time>2026-04-06T15:40:30.852Z</time></trkpt><trkpt lat="40.5894949" lon="16.3773952"><ele>267.5</ele><time>2026-04-06T15:40:31.852Z</time></trkpt><trkpt lat="40.589545" lon="16.3775334"><ele>269.0</ele><time>2026-04-06T15:40:32.852Z</time></trkpt><trkpt lat="40.589632" lon="16.3776519"><ele>270.5</ele><time>2026-04-06T15:40:33.852Z</time></trkpt><trkpt lat="40.5897449" lon="16.3777521"><ele>272.0</ele><time>2026-04-06T15:40:34.852Z</time></trkpt><trkpt lat="40.5898631" lon="16.3778427"><ele>272.0</ele><time>2026-04-06T15:40:35.852Z</time></trkpt><trkpt lat="40.589987" lon="16.3779138"><ele>272.0</ele><time>2026-04-06T15:40:36.852Z</time></trkpt><trkpt lat="40.5901171" lon="16.3779499"><ele>272.0</ele><time>2026-04-06T15:40:37.852Z</time></trkpt><trkpt lat="40.5902512" lon="16.3779454"><ele>272.0</ele><time>2026-04-06T15:40:38.853Z</time></trkpt><trkpt lat="40.5903851" lon="16.3779039"><ele>273.75</ele><time>2026-04-06T15:40:39.853Z</time></trkpt><trkpt lat="40.5905176" lon="16.3778246"><ele>275.5</ele><time>2026-04-06T15:40:40.852Z</time></trkpt><trkpt lat="40.590634" lon="16.3777046"><ele>277.25</ele><time>2026-04-06T15:40:41.852Z</time></trkpt><trkpt lat="40.5907423" lon="16.3775703"><ele>279.0</ele><time>2026-04-06T15:40:42.852Z</time></trkpt><trkpt lat="40.5908482" lon="16.3774444"><ele>279.0</ele><time>2026-04-06T15:40:43.852Z</time></trkpt><trkpt lat="40.5909522" lon="16.3773341"><ele>279.0</ele><time>2026-04-06T15:40:44.852Z</time></trkpt><trkpt lat="40.5910654" lon="16.377235"><ele>279.0</ele><time>2026-04-06T15:40:45.852Z</time></trkpt><trkpt lat="40.5911986" lon="16.377154"><ele>279.0</ele><time>2026-04-06T15:40:46.853Z</time></trkpt><trkpt lat="40.5913492" lon="16.3770827"><ele>280.6666666666667</ele><time>2026-04-06T15:40:47.852Z</time></trkpt><trkpt lat="40.5915155" lon="16.3770072"><ele>282.33333333333337</ele><time>2026-04-06T15:40:48.852Z</time></trkpt><trkpt lat="40.5916911" lon="16.376927"><ele>284.0</ele><time>2026-04-06T15:40:49.852Z</time></trkpt><trkpt lat="40.5918608" lon="16.3768433"><ele>286.33333333333337</ele><time>2026-04-06T15:40:50.852Z</time></trkpt><trkpt lat="40.5920247" lon="16.3767638"><ele>288.6666666666667</ele><time>2026-04-06T15:40:51.852Z</time></trkpt><trkpt lat="40.5921782" lon="16.3766863"><ele>291.0</ele><time>2026-04-06T15:40:52.852Z</time></trkpt><trkpt lat="40.5923243" lon="16.3766013"><ele>291.0</ele><time>2026-04-06T15:40:53.852Z</time></trkpt><trkpt lat="40.5924578" lon="16.3765058"><ele>291.0</ele><time>2026-04-06T15:40:54.852Z</time></trkpt><trkpt lat="40.5925688" lon="16.3763909"><ele>291.0</ele><time>2026-04-06T15:40:55.852Z</time></trkpt><trkpt lat="40.5926527" lon="16.3762578"><ele>291.0</ele><time>2026-04-06T15:40:56.852Z</time></trkpt><trkpt lat="40.5927195" lon="16.3761125"><ele>291.25</ele><time>2026-04-06T15:40:57.852Z</time></trkpt><trkpt lat="40.5927773" lon="16.3759457"><ele>291.5</ele><time>2026-04-06T15:40:58.852Z</time></trkpt><trkpt lat="40.5928347" lon="16.3757674"><ele>291.75</ele><time>2026-04-06T15:40:59.852Z</time></trkpt><trkpt lat="40.5928921" lon="16.3755775"><ele>292.0</ele><time>2026-04-06T15:41:00.853Z</time></trkpt><trkpt lat="40.5929509" lon="16.3753853"><ele>296.0</ele><time>2026-04-06T15:41:01.852Z</time></trkpt><trkpt lat="40.5930096" lon="16.3751907"><ele>300.0</ele><time>2026-04-06T15:41:02.852Z</time></trkpt><trkpt lat="40.5930748" lon="16.3749933"><ele>304.0</ele><time>2026-04-06T15:41:03.852Z</time></trkpt><trkpt lat="40.5931402" lon="16.3748001"><ele>303.75</ele><time>2026-04-06T15:41:04.853Z</time></trkpt><trkpt lat="40.5932025" lon="16.3746235"><ele>303.5</ele><time>2026-04-06T15:41:05.852Z</time></trkpt><trkpt lat="40.5932574" lon="16.3744648"><ele>303.25</ele><time>2026-04-06T15:41:06.852Z</time></trkpt><trkpt lat="40.5933125" lon="16.3743456"><ele>303.0</ele><time>2026-04-06T15:41:07.852Z</time></trkpt><trkpt lat="40.5933806" lon="16.3742691"><ele>303.0</ele><time>2026-04-06T15:41:08.852Z</time></trkpt><trkpt lat="40.593468" lon="16.3742311"><ele>303.0</ele><time>2026-04-06T15:41:09.853Z</time></trkpt><trkpt lat="40.593564" lon="16.3742324"><ele>303.0</ele><time>2026-04-06T15:41:10.852Z</time></trkpt><trkpt lat="40.59366" lon="16.3742809"><ele>303.0</ele><time>2026-04-06T15:41:11.853Z</time></trkpt><trkpt lat="40.5937357" lon="16.3743804"><ele>303.0</ele><time>2026-04-06T15:41:12.852Z</time></trkpt><trkpt lat="40.5937854" lon="16.374519"><ele>306.75</ele><time>2026-04-06T15:41:13.852Z</time></trkpt><trkpt lat="40.5938174" lon="16.37468"><ele>310.5</ele><time>2026-04-06T15:41:14.852Z</time></trkpt><trkpt lat="40.5938483" lon="16.3748553"><ele>314.25</ele><time>2026-04-06T15:41:15.853Z</time></trkpt><trkpt lat="40.5938825" lon="16.3750341"><ele>318.0</ele><time>2026-04-06T15:41:16.852Z</time></trkpt><trkpt lat="40.5939264" lon="16.3752123"><ele>318.0</ele><time>2026-04-06T15:41:17.853Z</time></trkpt><trkpt lat="40.5939711" lon="16.3753821"><ele>318.0</ele><time>2026-04-06T15:41:18.852Z</time></trkpt><trkpt lat="40.5940308" lon="16.375535"><ele>318.0</ele><time>2026-04-06T15:41:19.852Z</time></trkpt><trkpt lat="40.5941141" lon="16.3756579"><ele>318.0</ele><time>2026-04-06T15:41:20.852Z</time></trkpt><trkpt lat="40.5942234" lon="16.3757414"><ele>317.25</ele><time>2026-04-06T15:41:21.852Z</time></trkpt><trkpt lat="40.5943554" lon="16.3757888"><ele>316.5</ele><time>2026-04-06T15:41:22.852Z</time></trkpt><trkpt lat="40.5944946" lon="16.3758219"><ele>315.75</ele><time>2026-04-06T15:41:23.852Z</time></trkpt><trkpt lat="40.5946254" lon="16.3758704"><ele>315.0</ele><time>2026-04-06T15:41:24.853Z</time></trkpt><trkpt lat="40.59474" lon="16.3759573"><ele>317.0</ele><time>2026-04-06T15:41:25.852Z</time></trkpt><trkpt lat="40.5948317" lon="16.3760834"><ele>319.0</ele><time>2026-04-06T15:41:26.852Z</time></trkpt><trkpt lat="40.5949115" lon="16.3762331"><ele>321.0</ele><time>2026-04-06T15:41:27.852Z</time></trkpt><trkpt lat="40.5949885" lon="16.3763999"><ele>323.0</ele><time>2026-04-06T15:41:28.852Z</time></trkpt><trkpt lat="40.5950709" lon="16.3765715"><ele>323.0</ele><time>2026-04-06T15:41:29.852Z</time></trkpt><trkpt lat="40.595153" lon="16.3767352"><ele>323.0</ele><time>2026-04-06T15:41:30.852Z</time></trkpt><trkpt lat="40.5952402" lon="16.3768886"><ele>323.0</ele><time>2026-04-06T15:41:31.852Z</time></trkpt><trkpt lat="40.5953461" lon="16.3770189"><ele>323.0</ele><time>2026-04-06T15:41:32.852Z</time></trkpt><trkpt lat="40.5954696" lon="16.3771251"><ele>325.0</ele><time>2026-04-06T15:41:33.852Z</time></trkpt><trkpt lat="40.5956091" lon="16.3772021"><ele>327.0</ele><time>2026-04-06T15:41:34.852Z</time></trkpt><trkpt lat="40.5957559" lon="16.3772503"><ele>329.0</ele><time>2026-04-06T15:41:35.853Z</time></trkpt><trkpt lat="40.595903" lon="16.3772784"><ele>329.0</ele><time>2026-04-06T15:41:36.852Z</time></trkpt><trkpt lat="40.5960473" lon="16.3773031"><ele>329.0</ele><time>2026-04-06T15:41:37.852Z</time></trkpt><trkpt lat="40.5961835" lon="16.3773451"><ele>329.0</ele><time>2026-04-06T15:41:38.852Z</time></trkpt><trkpt lat="40.596303" lon="16.3774263"><ele>329.0</ele><time>2026-04-06T15:41:39.852Z</time></trkpt><trkpt lat="40.5964041" lon="16.3775366"><ele>331.5</ele><time>2026-04-06T15:41:40.852Z</time></trkpt><trkpt lat="40.5964754" lon="16.377677"><ele>334.0</ele><time>2026-04-06T15:41:41.852Z</time></trkpt><trkpt lat="40.5965234" lon="16.3778398"><ele>336.5</ele><time>2026-04-06T15:41:42.852Z</time></trkpt><trkpt lat="40.5965614" lon="16.3780062"><ele>339.0</ele><time>2026-04-06T15:41:43.852Z</time></trkpt><trkpt lat="40.5966093" lon="16.3781609"><ele>339.0</ele><time>2026-04-06T15:41:44.853Z</time></trkpt><trkpt lat="40.5966869" lon="16.3782914"><ele>339.0</ele><time>2026-04-06T15:41:45.852Z</time></trkpt><trkpt lat="40.5967884" lon="16.3783889"><ele>339.0</ele><time>2026-04-06T15:41:46.852Z</time></trkpt><trkpt lat="40.5969096" lon="16.378448"><ele>339.0</ele><time>2026-04-06T15:41:47.852Z</time></trkpt><trkpt lat="40.5970447" lon="16.3784749"><ele>341.25</ele><time>2026-04-06T15:41:48.852Z</time></trkpt><trkpt lat="40.5971863" lon="16.3784783"><ele>343.5</ele><time>2026-04-06T15:41:49.852Z</time></trkpt><trkpt lat="40.5973256" lon="16.3784704"><ele>345.75</ele><time>2026-04-06T15:41:50.853Z</time></trkpt><trkpt lat="40.5974526" lon="16.3784637"><ele>348.0</ele><time>2026-04-06T15:41:51.852Z</time></trkpt><trkpt lat="40.5975603" lon="16.3784694"><ele>348.0</ele><time>2026-04-06T15:41:52.852Z</time></trkpt><trkpt lat="40.5976564" lon="16.3785013"><ele>348.0</ele><time>2026-04-06T15:41:53.853Z</time></trkpt><trkpt lat="40.5977283" lon="16.37857"><ele>348.0</ele><time>2026-04-06T15:41:54.852Z</time></trkpt><trkpt lat="40.5977832" lon="16.3786598"><ele>348.0</ele><time>2026-04-06T15:41:55.852Z</time></trkpt><trkpt lat="40.5978047" lon="16.378781"><ele>348.0</ele><time>2026-04-06T15:41:56.852Z</time></trkpt><trkpt lat="40.5977884" lon="16.37891"><ele>348.25</ele><time>2026-04-06T15:41:57.852Z</time></trkpt><trkpt lat="40.5977294" lon="16.379033"><ele>348.5</ele><time>2026-04-06T15:41:58.852Z</time></trkpt><trkpt lat="40.5976372" lon="16.3791442"><ele>348.75</ele><time>2026-04-06T15:41:59.852Z</time></trkpt><trkpt lat="40.5975332" lon="16.3792572"><ele>349.0</ele><time>2026-04-06T15:42:00.853Z</time></trkpt><trkpt lat="40.5974231" lon="16.3793751"><ele>349.0</ele><time>2026-04-06T15:42:01.852Z</time></trkpt><trkpt lat="40.5973122" lon="16.3794982"><ele>349.0</ele><time>2026-04-06T15:42:02.852Z</time></trkpt><trkpt lat="40.5971997" lon="16.3796247"><ele>349.0</ele><time>2026-04-06T15:42:03.853Z</time></trkpt><trkpt lat="40.5970842" lon="16.3797513"><ele>349.0</ele><time>2026-04-06T15:42:04.852Z</time></trkpt><trkpt lat="40.5969652" lon="16.3798708"><ele>348.3333333333333</ele><time>2026-04-06T15:42:05.852Z</time></trkpt><trkpt lat="40.5968421" lon="16.379982"><ele>347.6666666666667</ele><time>2026-04-06T15:42:06.852Z</time></trkpt><trkpt lat="40.5967193" lon="16.3800911"><ele>347.0</ele><time>2026-04-06T15:42:07.852Z</time></trkpt><trkpt lat="40.5965895" lon="16.3801983"><ele>347.0</ele><time>2026-04-06T15:42:08.852Z</time></trkpt><trkpt lat="40.5964662" lon="16.3802963"><ele>347.0</ele><time>2026-04-06T15:42:09.852Z</time></trkpt><trkpt lat="40.59634" lon="16.3803826"><ele>347.0</ele><time>2026-04-06T15:42:10.852Z</time></trkpt><trkpt lat="40.5962131" lon="16.3804568"><ele>347.0</ele><time>2026-04-06T15:42:11.852Z</time></trkpt><trkpt lat="40.5960919" lon="16.3805188"><ele>347.5</ele><time>2026-04-06T15:42:12.853Z</time></trkpt><trkpt lat="40.595986" lon="16.3805718"><ele>348.0</ele><time>2026-04-06T15:42:13.852Z</time></trkpt><trkpt lat="40.5959041" lon="16.3806299"><ele>348.5</ele><time>2026-04-06T15:42:14.852Z</time></trkpt><trkpt lat="40.5958471" lon="16.3807065"><ele>349.0</ele><time>2026-04-06T15:42:15.852Z</time></trkpt><trkpt lat="40.5958405" lon="16.3807918"><ele>349.5</ele><time>2026-04-06T15:42:16.852Z</time></trkpt><trkpt lat="40.5958714" lon="16.380869"><ele>350.0</ele><time>2026-04-06T15:42:17.853Z</time></trkpt><trkpt lat="40.595952" lon="16.3808973"><ele>350.0</ele><time>2026-04-06T15:42:18.852Z</time></trkpt><trkpt lat="40.5960531" lon="16.380888"><ele>350.0</ele><time>2026-04-06T15:42:19.852Z</time></trkpt><trkpt lat="40.5961714" lon="16.3808446"><ele>350.0</ele><time>2026-04-06T15:42:20.852Z</time></trkpt><trkpt lat="40.596294" lon="16.3807861"><ele>350.0</ele><time>2026-04-06T15:42:21.852Z</time></trkpt><trkpt lat="40.5964158" lon="16.3807275"><ele>349.25</ele><time>2026-04-06T15:42:22.852Z</time></trkpt><trkpt lat="40.5965447" lon="16.3806678"><ele>348.5</ele><time>2026-04-06T15:42:23.852Z</time></trkpt><trkpt lat="40.5966759" lon="16.3806059"><ele>347.75</ele><time>2026-04-06T15:42:24.852Z</time></trkpt><trkpt lat="40.5967997" lon="16.3805279"><ele>347.0</ele><time>2026-04-06T15:42:25.852Z</time></trkpt><trkpt lat="40.5969219" lon="16.3804427"><ele>350.25</ele><time>2026-04-06T15:42:26.852Z</time></trkpt><trkpt lat="40.5970383" lon="16.3803552"><ele>353.5</ele><time>2026-04-06T15:42:27.852Z</time></trkpt><trkpt lat="40.5971531" lon="16.380268"><ele>356.75</ele><time>2026-04-06T15:42:28.853Z</time></trkpt><trkpt lat="40.5972704" lon="16.3801838"><ele>360.0</ele><time>2026-04-06T15:42:29.853Z</time></trkpt><trkpt lat="40.5973921" lon="16.3800978"><ele>360.0</ele><time>2026-04-06T15:42:30.852Z</time></trkpt><trkpt lat="40.5975195" lon="16.3800139"><ele>360.0</ele><time>2026-04-06T15:42:31.852Z</time></trkpt><trkpt lat="40.5976504" lon="16.3799372"><ele>360.0</ele><time>2026-04-06T15:42:32.853Z</time></trkpt><trkpt lat="40.597784" lon="16.3798689"><ele>360.0</ele><time>2026-04-06T15:42:33.852Z</time></trkpt><trkpt lat="40.5979152" lon="16.379799"><ele>360.75</ele><time>2026-04-06T15:42:34.853Z</time></trkpt><trkpt lat="40.5980464" lon="16.3797315"><ele>361.5</ele><time>2026-04-06T15:42:35.852Z</time></trkpt><trkpt lat="40.5981724" lon="16.3796567"><ele>362.25</ele><time>2026-04-06T15:42:36.852Z</time></trkpt><trkpt lat="40.5982992" lon="16.3795754"><ele>363.0</ele><time>2026-04-06T15:42:37.852Z</time></trkpt><trkpt lat="40.5984188" lon="16.379483"><ele>363.0</ele><time>2026-04-06T15:42:38.852Z</time></trkpt><trkpt lat="40.5985339" lon="16.3793801"><ele>363.0</ele><time>2026-04-06T15:42:39.852Z</time></trkpt><trkpt lat="40.598643" lon="16.3792712"><ele>363.0</ele><time>2026-04-06T15:42:40.853Z</time></trkpt><trkpt lat="40.5987459" lon="16.3791591"><ele>363.0</ele><time>2026-04-06T15:42:41.853Z</time></trkpt><trkpt lat="40.5988512" lon="16.3790512"><ele>365.25</ele><time>2026-04-06T15:42:42.852Z</time></trkpt><trkpt lat="40.598957" lon="16.3789502"><ele>367.5</ele><time>2026-04-06T15:42:43.853Z</time></trkpt><trkpt lat="40.5990591" lon="16.3788522"><ele>369.75</ele><time>2026-04-06T15:42:44.852Z</time></trkpt><trkpt lat="40.5991618" lon="16.3787558"><ele>372.0</ele><time>2026-04-06T15:42:45.852Z</time></trkpt><trkpt lat="40.5992637" lon="16.3786584"><ele>372.0</ele><time>2026-04-06T15:42:46.852Z</time></trkpt><trkpt lat="40.5993706" lon="16.3785685"><ele>372.0</ele><time>2026-04-06T15:42:47.852Z</time></trkpt><trkpt lat="40.5994803" lon="16.37849"><ele>372.0</ele><time>2026-04-06T15:42:48.853Z</time></trkpt><trkpt lat="40.5995945" lon="16.3784258"><ele>372.0</ele><time>2026-04-06T15:42:49.853Z</time></trkpt><trkpt lat="40.5997015" lon="16.3783788"><ele>375.5</ele><time>2026-04-06T15:42:50.852Z</time></trkpt><trkpt lat="40.599821" lon="16.3783449"><ele>379.0</ele><time>2026-04-06T15:42:51.852Z</time></trkpt><trkpt lat="40.5999402" lon="16.3783172"><ele>382.5</ele><time>2026-04-06T15:42:52.853Z</time></trkpt><trkpt lat="40.6000577" lon="16.3782891"><ele>386.0</ele><time>2026-04-06T15:42:53.852Z</time></trkpt><trkpt lat="40.6001734" lon="16.3782544"><ele>386.0</ele><time>2026-04-06T15:42:54.853Z</time></trkpt><trkpt lat="40.6002923" lon="16.3782173"><ele>386.0</ele><time>2026-04-06T15:42:55.852Z</time></trkpt><trkpt lat="40.6004094" lon="16.3781736"><ele>386.0</ele><time>2026-04-06T15:42:56.853Z</time></trkpt><trkpt lat="40.6005242" lon="16.3781128"><ele>386.0</ele><time>2026-04-06T15:42:57.852Z</time></trkpt><trkpt lat="40.6006263" lon="16.3780244"><ele>387.6</ele><time>2026-04-06T15:42:58.852Z</time></trkpt><trkpt lat="40.6007136" lon="16.3779097"><ele>389.20000000000005</ele><time>2026-04-06T15:42:59.852Z</time></trkpt><trkpt lat="40.600779" lon="16.3777856"><ele>390.79999999999995</ele><time>2026-04-06T15:43:00.852Z</time></trkpt><trkpt lat="40.6008387" lon="16.3776641"><ele>392.4</ele><time>2026-04-06T15:43:01.853Z</time></trkpt><trkpt lat="40.6008937" lon="16.3775557"><ele>394.0</ele><time>2026-04-06T15:43:02.852Z</time></trkpt><trkpt lat="40.6009536" lon="16.3774742"><ele>394.00000000000006</ele><time>2026-04-06T15:43:03.853Z</time></trkpt><trkpt lat="40.601022" lon="16.3774177"><ele>394.0</ele><time>2026-04-06T15:43:04.852Z</time></trkpt><trkpt lat="40.6011003" lon="16.3773769"><ele>394.0</ele><time>2026-04-06T15:43:05.852Z</time></trkpt><trkpt lat="40.6011936" lon="16.3773729"><ele>394.0</ele><time>2026-04-06T15:43:06.853Z</time></trkpt><trkpt lat="40.6012848" lon="16.377373"><ele>394.00000000000006</ele><time>2026-04-06T15:43:07.852Z</time></trkpt><trkpt lat="40.6013743" lon="16.3773644"><ele>394.0</ele><time>2026-04-06T15:43:08.852Z</time></trkpt><trkpt lat="40.6014587" lon="16.377332"><ele>395.4</ele><time>2026-04-06T15:43:09.852Z</time></trkpt><trkpt lat="40.6015328" lon="16.3772687"><ele>396.79999999999995</ele><time>2026-04-06T15:43:10.852Z</time></trkpt><trkpt lat="40.6015908" lon="16.3771801"><ele>398.20000000000005</ele><time>2026-04-06T15:43:11.852Z</time></trkpt><trkpt lat="40.6016358" lon="16.377072"><ele>399.6</ele><time>2026-04-06T15:43:12.852Z</time></trkpt><trkpt lat="40.60168" lon="16.3769543"><ele>401.0</ele><time>2026-04-06T15:43:13.852Z</time></trkpt><trkpt lat="40.6017242" lon="16.3768337"><ele>401.0</ele><time>2026-04-06T15:43:14.852Z</time></trkpt><trkpt lat="40.6017712" lon="16.3767107"><ele>401.0</ele><time>2026-04-06T15:43:15.852Z</time></trkpt><trkpt lat="40.6018191" lon="16.3765847"><ele>401.0</ele><time>2026-04-06T15:43:16.852Z</time></trkpt><trkpt lat="40.6018679" lon="16.3764506"><ele>401.0</ele><time>2026-04-06T15:43:17.852Z</time></trkpt><trkpt lat="40.6019179" lon="16.3763161"><ele>401.0</ele><time>2026-04-06T15:43:18.852Z</time></trkpt><trkpt lat="40.6019704" lon="16.3761856"><ele>403.6</ele><time>2026-04-06T15:43:19.852Z</time></trkpt><trkpt lat="40.6020195" lon="16.3760516"><ele>406.20000000000005</ele><time>2026-04-06T15:43:20.852Z</time></trkpt><trkpt lat="40.602065" lon="16.3759206"><ele>408.79999999999995</ele><time>2026-04-06T15:43:21.852Z</time></trkpt><trkpt lat="40.602107" lon="16.3757978"><ele>411.4</ele><time>2026-04-06T15:43:22.852Z</time></trkpt><trkpt lat="40.602147" lon="16.3756922"><ele>414.0</ele><time>2026-04-06T15:43:23.851Z</time></trkpt><trkpt lat="40.6021931" lon="16.3756021"><ele>414.0</ele><time>2026-04-06T15:43:24.852Z</time></trkpt><trkpt lat="40.6022921" lon="16.375554"><ele>414.0</ele><time>2026-04-06T15:43:26.851Z</time></trkpt><trkpt lat="40.6023647" lon="16.3756419"><ele>414.0</ele><time>2026-04-06T15:43:28.852Z</time></trkpt><trkpt lat="40.6023833" lon="16.3757507"><ele>414.0</ele><time>2026-04-06T15:43:29.851Z</time></trkpt><trkpt lat="40.6024013" lon="16.3758808"><ele>414.0</ele><time>2026-04-06T15:43:30.851Z</time></trkpt><trkpt lat="40.6024223" lon="16.3760219"><ele>414.0</ele><time>2026-04-06T15:43:31.851Z</time></trkpt><trkpt lat="40.6024421" lon="16.3761655"><ele>414.0</ele><time>2026-04-06T15:43:32.851Z</time></trkpt><trkpt lat="40.6024646" lon="16.3763057"><ele>414.0</ele><time>2026-04-06T15:43:33.851Z</time></trkpt><trkpt lat="40.6024829" lon="16.376447"><ele>414.0</ele><time>2026-04-06T15:43:34.852Z</time></trkpt><trkpt lat="40.6025021" lon="16.3765833"><ele>414.0</ele><time>2026-04-06T15:43:35.851Z</time></trkpt><trkpt lat="40.6025217" lon="16.3767252"><ele>414.4</ele><time>2026-04-06T15:43:36.851Z</time></trkpt><trkpt lat="40.6025416" lon="16.3768622"><ele>414.79999999999995</ele><time>2026-04-06T15:43:37.851Z</time></trkpt><trkpt lat="40.6025589" lon="16.3769973"><ele>415.20000000000005</ele><time>2026-04-06T15:43:38.852Z</time></trkpt><trkpt lat="40.6025731" lon="16.3771278"><ele>415.6</ele><time>2026-04-06T15:43:39.852Z</time></trkpt><trkpt lat="40.6025881" lon="16.3772534"><ele>416.0</ele><time>2026-04-06T15:43:40.851Z</time></trkpt><trkpt lat="40.6026073" lon="16.3773737"><ele>416.0</ele><time>2026-04-06T15:43:41.852Z</time></trkpt><trkpt lat="40.6026311" lon="16.3774914"><ele>416.0</ele><time>2026-04-06T15:43:42.851Z</time></trkpt><trkpt lat="40.6026559" lon="16.3776075"><ele>416.0</ele><time>2026-04-06T15:43:43.851Z</time></trkpt><trkpt lat="40.602674" lon="16.3777263"><ele>416.0</ele><time>2026-04-06T15:43:44.851Z</time></trkpt><trkpt lat="40.6026847" lon="16.3778477"><ele>416.0</ele><time>2026-04-06T15:43:45.851Z</time></trkpt><trkpt lat="40.6026887" lon="16.3779696"><ele>416.6</ele><time>2026-04-06T15:43:46.851Z</time></trkpt><trkpt lat="40.6026841" lon="16.3780916"><ele>417.20000000000005</ele><time>2026-04-06T15:43:47.851Z</time></trkpt><trkpt lat="40.602675" lon="16.3782147"><ele>417.79999999999995</ele><time>2026-04-06T15:43:48.852Z</time></trkpt><trkpt lat="40.6026645" lon="16.3783369"><ele>418.4</ele><time>2026-04-06T15:43:49.851Z</time></trkpt><trkpt lat="40.6026554" lon="16.3784587"><ele>419.0</ele><time>2026-04-06T15:43:50.851Z</time></trkpt><trkpt lat="40.6026455" lon="16.378583"><ele>419.0</ele><time>2026-04-06T15:43:51.852Z</time></trkpt><trkpt lat="40.6026378" lon="16.3787067"><ele>419.0</ele><time>2026-04-06T15:43:52.851Z</time></trkpt><trkpt lat="40.6026314" lon="16.37883"><ele>419.0</ele><time>2026-04-06T15:43:53.851Z</time></trkpt><trkpt lat="40.602626" lon="16.3789548"><ele>419.0</ele><time>2026-04-06T15:43:54.852Z</time></trkpt><trkpt lat="40.6026196" lon="16.3790813"><ele>419.0</ele><time>2026-04-06T15:43:55.851Z</time></trkpt><trkpt lat="40.6026066" lon="16.3792081"><ele>420.6</ele><time>2026-04-06T15:43:56.852Z</time></trkpt><trkpt lat="40.6025869" lon="16.3793335"><ele>422.2</ele><time>2026-04-06T15:43:57.851Z</time></trkpt><trkpt lat="40.6025683" lon="16.3794575"><ele>423.80000000000007</ele><time>2026-04-06T15:43:58.852Z</time></trkpt><trkpt lat="40.6025465" lon="16.3795813"><ele>425.40000000000003</ele><time>2026-04-06T15:43:59.852Z</time></trkpt><trkpt lat="40.6025264" lon="16.3797062"><ele>427.0</ele><time>2026-04-06T15:44:00.851Z</time></trkpt><trkpt lat="40.6025073" lon="16.3798324"><ele>429.20000000000005</ele><time>2026-04-06T15:44:01.851Z</time></trkpt><trkpt lat="40.6024857" lon="16.37996"><ele>431.40000000000003</ele><time>2026-04-06T15:44:02.851Z</time></trkpt><trkpt lat="40.6024652" lon="16.3800907"><ele>433.59999999999997</ele><time>2026-04-06T15:44:03.851Z</time></trkpt><trkpt lat="40.6024487" lon="16.3802175"><ele>435.79999999999995</ele><time>2026-04-06T15:44:04.852Z</time></trkpt><trkpt lat="40.6024271" lon="16.3803441"><ele>438.0</ele><time>2026-04-06T15:44:05.851Z</time></trkpt><trkpt lat="40.6023959" lon="16.3804601"><ele>439.0</ele><time>2026-04-06T15:44:06.851Z</time></trkpt><trkpt lat="40.6023691" lon="16.3805787"><ele>439.99999999999994</ele><time>2026-04-06T15:44:07.851Z</time></trkpt><trkpt lat="40.602353" lon="16.3806992"><ele>440.99999999999994</ele><time>2026-04-06T15:44:08.851Z</time></trkpt><trkpt lat="40.6023394" lon="16.3808205"><ele>442.0</ele><time>2026-04-06T15:44:09.851Z</time></trkpt><trkpt lat="40.6023215" lon="16.3809447"><ele>443.0</ele><time>2026-04-06T15:44:10.852Z</time></trkpt><trkpt lat="40.6022969" lon="16.381067"><ele>443.0</ele><time>2026-04-06T15:44:11.852Z</time></trkpt><trkpt lat="40.6022789" lon="16.3811924"><ele>442.99999999999994</ele><time>2026-04-06T15:44:12.851Z</time></trkpt><trkpt lat="40.6022333" lon="16.3813049"><ele>442.99999999999994</ele><time>2026-04-06T15:44:13.851Z</time></trkpt><trkpt lat="40.6021885" lon="16.3814128"><ele>443.0</ele><time>2026-04-06T15:44:14.851Z</time></trkpt><trkpt lat="40.6021417" lon="16.381524"><ele>443.0</ele><time>2026-04-06T15:44:15.851Z</time></trkpt><trkpt lat="40.6020991" lon="16.3816303"><ele>443.16666666666663</ele><time>2026-04-06T15:44:16.851Z</time></trkpt><trkpt lat="40.6020555" lon="16.3817415"><ele>443.3333333333333</ele><time>2026-04-06T15:44:17.851Z</time></trkpt><trkpt lat="40.6020145" lon="16.3818487"><ele>443.5</ele><time>2026-04-06T15:44:18.851Z</time></trkpt><trkpt lat="40.6019787" lon="16.3819442"><ele>443.66666666666663</ele><time>2026-04-06T15:44:19.851Z</time></trkpt><trkpt lat="40.6019442" lon="16.3820231"><ele>443.8333333333333</ele><time>2026-04-06T15:44:20.851Z</time></trkpt><trkpt lat="40.6019009" lon="16.3821538"><ele>444.0</ele><time>2026-04-06T15:44:22.852Z</time></trkpt><trkpt lat="40.6018592" lon="16.3822832"><ele>444.1666666666667</ele><time>2026-04-06T15:44:24.852Z</time></trkpt><trkpt lat="40.6018076" lon="16.3824275"><ele>444.33333333333337</ele><time>2026-04-06T15:44:26.851Z</time></trkpt><trkpt lat="40.6017868" lon="16.3825103"><ele>444.5</ele><time>2026-04-06T15:44:27.851Z</time></trkpt><trkpt lat="40.6017657" lon="16.3825995"><ele>444.6666666666667</ele><time>2026-04-06T15:44:28.851Z</time></trkpt><trkpt lat="40.6017344" lon="16.3826889"><ele>444.83333333333337</ele><time>2026-04-06T15:44:29.851Z</time></trkpt><trkpt lat="40.601692" lon="16.3827795"><ele>445.0</ele><time>2026-04-06T15:44:30.851Z</time></trkpt><trkpt lat="40.6016434" lon="16.3828686"><ele>445.0</ele><time>2026-04-06T15:44:31.851Z</time></trkpt><trkpt lat="40.6015967" lon="16.3829558"><ele>445.0</ele><time>2026-04-06T15:44:32.851Z</time></trkpt><trkpt lat="40.601552" lon="16.3830367"><ele>445.0</ele><time>2026-04-06T15:44:33.851Z</time></trkpt><trkpt lat="40.6015028" lon="16.3831096"><ele>445.0</ele><time>2026-04-06T15:44:34.851Z</time></trkpt><trkpt lat="40.6014557" lon="16.3831829"><ele>445.0</ele><time>2026-04-06T15:44:35.851Z</time></trkpt><trkpt lat="40.6014142" lon="16.3832504"><ele>445.0</ele><time>2026-04-06T15:44:36.851Z</time></trkpt><trkpt lat="40.6013725" lon="16.3833186"><ele>445.0</ele><time>2026-04-06T15:44:37.852Z</time></trkpt><trkpt lat="40.6013189" lon="16.3833883"><ele>445.1666666666667</ele><time>2026-04-06T15:44:38.851Z</time></trkpt><trkpt lat="40.6012554" lon="16.383454"><ele>445.33333333333337</ele><time>2026-04-06T15:44:39.851Z</time></trkpt><trkpt lat="40.6011893" lon="16.383522"><ele>445.5</ele><time>2026-04-06T15:44:40.851Z</time></trkpt><trkpt lat="40.601122" lon="16.3835986"><ele>445.66666666666663</ele><time>2026-04-06T15:44:41.852Z</time></trkpt><trkpt lat="40.6010537" lon="16.3836763"><ele>445.8333333333333</ele><time>2026-04-06T15:44:42.851Z</time></trkpt><trkpt lat="40.6009917" lon="16.383756"><ele>446.0</ele><time>2026-04-06T15:44:43.851Z</time></trkpt><trkpt lat="40.6009373" lon="16.3838344"><ele>450.16666666666663</ele><time>2026-04-06T15:44:44.851Z</time></trkpt><trkpt lat="40.6008847" lon="16.3839085"><ele>454.3333333333333</ele><time>2026-04-06T15:44:45.851Z</time></trkpt><trkpt lat="40.6008321" lon="16.3839776"><ele>458.5</ele><time>2026-04-06T15:44:46.852Z</time></trkpt><trkpt lat="40.6007816" lon="16.3840388"><ele>462.66666666666663</ele><time>2026-04-06T15:44:47.851Z</time></trkpt><trkpt lat="40.600693" lon="16.384113"><ele>466.8333333333333</ele><time>2026-04-06T15:44:49.851Z</time></trkpt><trkpt lat="40.6006077" lon="16.3841578"><ele>471.0</ele><time>2026-04-06T15:44:51.852Z</time></trkpt><trkpt lat="40.600514" lon="16.3841857"><ele>471.0</ele><time>2026-04-06T15:44:53.851Z</time></trkpt><trkpt lat="40.600439" lon="16.3842272"><ele>471.0</ele><time>2026-04-06T15:44:55.851Z</time></trkpt><trkpt lat="40.6003461" lon="16.3842919"><ele>471.0</ele><time>2026-04-06T15:44:57.851Z</time></trkpt><trkpt lat="40.6002398" lon="16.3843493"><ele>471.0</ele><time>2026-04-06T15:44:59.852Z</time></trkpt><trkpt lat="40.6001807" lon="16.3843863"><ele>471.0</ele><time>2026-04-06T15:45:00.851Z</time></trkpt><trkpt lat="40.6001241" lon="16.3844288"><ele>471.0</ele><time>2026-04-06T15:45:01.851Z</time></trkpt><trkpt lat="40.6000247" lon="16.384535"><ele>472.8</ele><time>2026-04-06T15:45:03.852Z</time></trkpt><trkpt lat="40.5999251" lon="16.3846047"><ele>474.6</ele><time>2026-04-06T15:45:05.851Z</time></trkpt><trkpt lat="40.5998415" lon="16.3846677"><ele>476.4</ele><time>2026-04-06T15:45:07.851Z</time></trkpt><trkpt lat="40.5997731" lon="16.384728"><ele>478.2</ele><time>2026-04-06T15:45:09.851Z</time></trkpt><trkpt lat="40.5997179" lon="16.3848386"><ele>480.0</ele><time>2026-04-06T15:45:11.851Z</time></trkpt><trkpt lat="40.5996726" lon="16.3849465"><ele>480.0</ele><time>2026-04-06T15:45:13.852Z</time></trkpt><trkpt lat="40.5997434" lon="16.3849864"><ele>480.0</ele><time>2026-04-06T15:45:21.851Z</time></trkpt><trkpt lat="40.5998577" lon="16.3849132"><ele>480.0</ele><time>2026-04-06T15:45:23.851Z</time></trkpt><trkpt lat="40.5999266" lon="16.3848691"><ele>480.0</ele><time>2026-04-06T15:45:24.851Z</time></trkpt><trkpt lat="40.5999949" lon="16.3848087"><ele>480.0</ele><time>2026-04-06T15:45:25.851Z</time></trkpt><trkpt lat="40.6000669" lon="16.3847479"><ele>480.0</ele><time>2026-04-06T15:45:26.851Z</time></trkpt><trkpt lat="40.6001381" lon="16.3846865"><ele>478.5</ele><time>2026-04-06T15:45:27.852Z</time></trkpt><trkpt lat="40.600206" lon="16.3846245"><ele>477.0</ele><time>2026-04-06T15:45:28.851Z</time></trkpt><trkpt lat="40.6002702" lon="16.3845641"><ele>475.5</ele><time>2026-04-06T15:45:29.851Z</time></trkpt><trkpt lat="40.600336" lon="16.3845103"><ele>474.0</ele><time>2026-04-06T15:45:30.851Z</time></trkpt><trkpt lat="40.6003982" lon="16.3844597"><ele>472.5</ele><time>2026-04-06T15:45:31.852Z</time></trkpt><trkpt lat="40.6004566" lon="16.3844167"><ele>471.0</ele><time>2026-04-06T15:45:32.851Z</time></trkpt><trkpt lat="40.600556" lon="16.3843876"><ele>471.0</ele><time>2026-04-06T15:45:34.851Z</time></trkpt><trkpt lat="40.6006176" lon="16.3844232"><ele>471.0</ele><time>2026-04-06T15:45:37.851Z</time></trkpt><trkpt lat="40.600581" lon="16.3845134"><ele>471.0</ele><time>2026-04-06T15:45:40.851Z</time></trkpt><trkpt lat="40.6005057" lon="16.3846399"><ele>471.0</ele><time>2026-04-06T15:45:42.851Z</time></trkpt><trkpt lat="40.6004464" lon="16.3847756"><ele>471.0</ele><time>2026-04-06T15:45:44.851Z</time></trkpt><trkpt lat="40.6004086" lon="16.3849148"><ele>472.8</ele><time>2026-04-06T15:45:46.851Z</time></trkpt><trkpt lat="40.6003322" lon="16.3849879"><ele>474.6</ele><time>2026-04-06T15:45:48.851Z</time></trkpt><trkpt lat="40.6002617" lon="16.3850256"><ele>476.4</ele><time>2026-04-06T15:45:50.851Z</time></trkpt><trkpt lat="40.6002078" lon="16.3851323"><ele>478.2</ele><time>2026-04-06T15:45:53.851Z</time></trkpt><trkpt lat="40.600174" lon="16.3852457"><ele>480.0</ele><time>2026-04-06T15:45:55.852Z</time></trkpt><trkpt lat="40.6001438" lon="16.385371"><ele>480.0</ele><time>2026-04-06T15:45:57.852Z</time></trkpt><trkpt lat="40.6001404" lon="16.3854715"><ele>480.0</ele><time>2026-04-06T15:45:59.851Z</time></trkpt><trkpt lat="40.6001279" lon="16.3855578"><ele>480.0</ele><time>2026-04-06T15:46:02.851Z</time></trkpt><trkpt lat="40.600122" lon="16.3854636"><ele>480.0</ele><time>2026-04-06T15:46:16.851Z</time></trkpt><trkpt lat="40.6001429" lon="16.3853363"><ele>480.0</ele><time>2026-04-06T15:46:18.851Z</time></trkpt><trkpt lat="40.6001774" lon="16.3852197"><ele>480.0</ele><time>2026-04-06T15:46:20.851Z</time></trkpt><trkpt lat="40.6002112" lon="16.3851374"><ele>480.0</ele><time>2026-04-06T15:46:22.852Z</time></trkpt><trkpt lat="40.6002066" lon="16.385047"><ele>480.0</ele><time>2026-04-06T15:46:25.851Z</time></trkpt><trkpt lat="40.6001275" lon="16.3850588"><ele>480.0</ele><time>2026-04-06T15:46:29.851Z</time></trkpt><trkpt lat="40.6000567" lon="16.3851203"><ele>480.0</ele><time>2026-04-06T15:46:32.851Z</time></trkpt><trkpt lat="40.6000033" lon="16.3851871"><ele>480.0</ele><time>2026-04-06T15:46:34.851Z</time></trkpt><trkpt lat="40.599939" lon="16.385249"><ele>480.0</ele><time>2026-04-06T15:46:36.852Z</time></trkpt><trkpt lat="40.5998873" lon="16.3853041"><ele>480.0</ele><time>2026-04-06T15:46:38.852Z</time></trkpt><trkpt lat="40.5998137" lon="16.3853388"><ele>480.0</ele><time>2026-04-06T15:46:40.851Z</time></trkpt><trkpt lat="40.5997255" lon="16.3853663"><ele>480.0</ele><time>2026-04-06T15:46:43.851Z</time></trkpt><trkpt lat="40.5996566" lon="16.3854338"><ele>480.0</ele><time>2026-04-06T15:46:46.851Z</time></trkpt><trkpt lat="40.5996095" lon="16.3854962"><ele>480.0</ele><time>2026-04-06T15:46:48.851Z</time></trkpt><trkpt lat="40.5995437" lon="16.385566"><ele>480.0</ele><time>2026-04-06T15:46:50.851Z</time></trkpt><trkpt lat="40.5994842" lon="16.3856634"><ele>478.1666666666667</ele><time>2026-04-06T15:46:52.851Z</time></trkpt><trkpt lat="40.5994523" lon="16.3857767"><ele>476.33333333333337</ele><time>2026-04-06T15:46:54.851Z</time></trkpt><trkpt lat="40.5994204" lon="16.385874"><ele>474.5</ele><time>2026-04-06T15:46:56.851Z</time></trkpt><trkpt lat="40.5993871" lon="16.3859704"><ele>472.6666666666667</ele><time>2026-04-06T15:46:58.851Z</time></trkpt><trkpt lat="40.5993396" lon="16.3860602"><ele>470.83333333333337</ele><time>2026-04-06T15:47:00.852Z</time></trkpt><trkpt lat="40.5992799" lon="16.3861356"><ele>469.0</ele><time>2026-04-06T15:47:02.851Z</time></trkpt><trkpt lat="40.5992283" lon="16.3862015"><ele>469.00000000000006</ele><time>2026-04-06T15:47:04.851Z</time></trkpt><trkpt lat="40.5991661" lon="16.386278"><ele>469.0</ele><time>2026-04-06T15:47:07.851Z</time></trkpt><trkpt lat="40.5990893" lon="16.3863447"><ele>469.0</ele><time>2026-04-06T15:47:10.851Z</time></trkpt><trkpt lat="40.5990315" lon="16.3863863"><ele>469.0</ele><time>2026-04-06T15:47:12.851Z</time></trkpt><trkpt lat="40.5989569" lon="16.3864038"><ele>469.00000000000006</ele><time>2026-04-06T15:47:15.851Z</time></trkpt><trkpt lat="40.5988929" lon="16.3863804"><ele>469.0</ele><time>2026-04-06T15:47:18.851Z</time></trkpt><trkpt lat="40.5989721" lon="16.3864093"><ele>466.0</ele><time>2026-04-06T15:47:52.851Z</time></trkpt></trkseg></trk></gpx>